<?xml version="1.0" encoding="UTF-8" standalone="no" ?>
<gpx xmlns="http://www.topografix.com/GPX/1/1" xmlns:xsi="http://www.w3.org/2001/XMLSchema-instance" xsi:schemaLocation="http://www.topografix.com/GPX/1/1 http://www.topografix.com/GPX/1/1/gpx.xsd" version="1.1" creator="VisuGPX - https://www.visugpx.com">
  <metadata>
    <name>10 avril 2018</name>
    <desc><![CDATA[Echassière
Sortie du 10/04/2018, réalisée en solo, avec un peu de vent.]]></desc>
  </metadata>
  <trk>
    <name><![CDATA[10 avr. 2018 8:55:55 AM]]></name>
    <trkseg>
      <trkpt lat="46.3112" lon="2.75276">
        <ele>341.36</ele>
        <time>2018-04-10T06:56:18.000Z</time>
      </trkpt>
      <trkpt lat="46.31101" lon="2.75404">
        <ele>453.37</ele>
        <time>2018-04-10T06:56:21.000Z</time>
      </trkpt>
      <trkpt lat="46.3111" lon="2.75402">
        <ele>439.5</ele>
        <time>2018-04-10T06:57:27.000Z</time>
      </trkpt>
      <trkpt lat="46.31118" lon="2.75395">
        <ele>431.12</ele>
        <time>2018-04-10T07:00:47.000Z</time>
      </trkpt>
      <trkpt lat="46.31107" lon="2.75393">
        <ele>424.18</ele>
        <time>2018-04-10T07:04:56.000Z</time>
      </trkpt>
      <trkpt lat="46.31097" lon="2.75392">
        <ele>422.75</ele>
        <time>2018-04-10T07:05:02.000Z</time>
      </trkpt>
      <trkpt lat="46.31089" lon="2.75399">
        <ele>422.48</ele>
        <time>2018-04-10T07:05:06.000Z</time>
      </trkpt>
      <trkpt lat="46.31079" lon="2.75399">
        <ele>421.27</ele>
        <time>2018-04-10T07:05:09.000Z</time>
      </trkpt>
      <trkpt lat="46.31068" lon="2.754">
        <ele>418.66</ele>
        <time>2018-04-10T07:05:12.000Z</time>
      </trkpt>
      <trkpt lat="46.31058" lon="2.75404">
        <ele>417.17</ele>
        <time>2018-04-10T07:05:15.000Z</time>
      </trkpt>
      <trkpt lat="46.31047" lon="2.7541">
        <ele>416.13</ele>
        <time>2018-04-10T07:05:18.000Z</time>
      </trkpt>
      <trkpt lat="46.31034" lon="2.75417">
        <ele>415.54</ele>
        <time>2018-04-10T07:05:21.000Z</time>
      </trkpt>
      <trkpt lat="46.31025" lon="2.7542">
        <ele>414.85</ele>
        <time>2018-04-10T07:05:23.000Z</time>
      </trkpt>
      <trkpt lat="46.31015" lon="2.75421">
        <ele>413.96</ele>
        <time>2018-04-10T07:05:25.000Z</time>
      </trkpt>
      <trkpt lat="46.31006" lon="2.7542">
        <ele>413.2</ele>
        <time>2018-04-10T07:05:27.000Z</time>
      </trkpt>
      <trkpt lat="46.30997" lon="2.75416">
        <ele>412.79</ele>
        <time>2018-04-10T07:05:29.000Z</time>
      </trkpt>
      <trkpt lat="46.30985" lon="2.75409">
        <ele>412.65</ele>
        <time>2018-04-10T07:05:32.000Z</time>
      </trkpt>
      <trkpt lat="46.30974" lon="2.75401">
        <ele>412.67</ele>
        <time>2018-04-10T07:05:35.000Z</time>
      </trkpt>
      <trkpt lat="46.30962" lon="2.75394">
        <ele>413.04</ele>
        <time>2018-04-10T07:05:38.000Z</time>
      </trkpt>
      <trkpt lat="46.30953" lon="2.75389">
        <ele>414.4</ele>
        <time>2018-04-10T07:05:40.000Z</time>
      </trkpt>
      <trkpt lat="46.30943" lon="2.75383">
        <ele>413.98</ele>
        <time>2018-04-10T07:05:43.000Z</time>
      </trkpt>
      <trkpt lat="46.30932" lon="2.75377">
        <ele>413.72</ele>
        <time>2018-04-10T07:05:46.000Z</time>
      </trkpt>
      <trkpt lat="46.30922" lon="2.75374">
        <ele>414</ele>
        <time>2018-04-10T07:05:49.000Z</time>
      </trkpt>
      <trkpt lat="46.30913" lon="2.7538">
        <ele>414.49</ele>
        <time>2018-04-10T07:05:52.000Z</time>
      </trkpt>
      <trkpt lat="46.30909" lon="2.75396">
        <ele>415.04</ele>
        <time>2018-04-10T07:05:55.000Z</time>
      </trkpt>
      <trkpt lat="46.30906" lon="2.7541">
        <ele>415.38</ele>
        <time>2018-04-10T07:05:57.000Z</time>
      </trkpt>
      <trkpt lat="46.30905" lon="2.75425">
        <ele>415.34</ele>
        <time>2018-04-10T07:05:59.000Z</time>
      </trkpt>
      <trkpt lat="46.30903" lon="2.75443">
        <ele>415.3</ele>
        <time>2018-04-10T07:06:01.000Z</time>
      </trkpt>
      <trkpt lat="46.30903" lon="2.75463">
        <ele>415.08</ele>
        <time>2018-04-10T07:06:03.000Z</time>
      </trkpt>
      <trkpt lat="46.30903" lon="2.75485">
        <ele>414.97</ele>
        <time>2018-04-10T07:06:05.000Z</time>
      </trkpt>
      <trkpt lat="46.30903" lon="2.75508">
        <ele>414.56</ele>
        <time>2018-04-10T07:06:07.000Z</time>
      </trkpt>
      <trkpt lat="46.30903" lon="2.75533">
        <ele>414.06</ele>
        <time>2018-04-10T07:06:09.000Z</time>
      </trkpt>
      <trkpt lat="46.30903" lon="2.75546">
        <ele>413.85</ele>
        <time>2018-04-10T07:06:10.000Z</time>
      </trkpt>
      <trkpt lat="46.30904" lon="2.75559">
        <ele>413.49</ele>
        <time>2018-04-10T07:06:11.000Z</time>
      </trkpt>
      <trkpt lat="46.30904" lon="2.75573">
        <ele>413.3</ele>
        <time>2018-04-10T07:06:12.000Z</time>
      </trkpt>
      <trkpt lat="46.30904" lon="2.75588">
        <ele>413.17</ele>
        <time>2018-04-10T07:06:13.000Z</time>
      </trkpt>
      <trkpt lat="46.30904" lon="2.75603">
        <ele>413.08</ele>
        <time>2018-04-10T07:06:14.000Z</time>
      </trkpt>
      <trkpt lat="46.30904" lon="2.75618">
        <ele>412.83</ele>
        <time>2018-04-10T07:06:15.000Z</time>
      </trkpt>
      <trkpt lat="46.30904" lon="2.75634">
        <ele>412.44</ele>
        <time>2018-04-10T07:06:16.000Z</time>
      </trkpt>
      <trkpt lat="46.30904" lon="2.7565">
        <ele>412</ele>
        <time>2018-04-10T07:06:17.000Z</time>
      </trkpt>
      <trkpt lat="46.30904" lon="2.75666">
        <ele>411.4</ele>
        <time>2018-04-10T07:06:18.000Z</time>
      </trkpt>
      <trkpt lat="46.30905" lon="2.75681">
        <ele>410.35</ele>
        <time>2018-04-10T07:06:19.000Z</time>
      </trkpt>
      <trkpt lat="46.30906" lon="2.75698">
        <ele>409.57</ele>
        <time>2018-04-10T07:06:20.000Z</time>
      </trkpt>
      <trkpt lat="46.30906" lon="2.75714">
        <ele>408.76</ele>
        <time>2018-04-10T07:06:21.000Z</time>
      </trkpt>
      <trkpt lat="46.30907" lon="2.7573">
        <ele>407.71</ele>
        <time>2018-04-10T07:06:22.000Z</time>
      </trkpt>
      <trkpt lat="46.30907" lon="2.75747">
        <ele>406.92</ele>
        <time>2018-04-10T07:06:23.000Z</time>
      </trkpt>
      <trkpt lat="46.30907" lon="2.75764">
        <ele>406.02</ele>
        <time>2018-04-10T07:06:24.000Z</time>
      </trkpt>
      <trkpt lat="46.30907" lon="2.75781">
        <ele>405.27</ele>
        <time>2018-04-10T07:06:25.000Z</time>
      </trkpt>
      <trkpt lat="46.30904" lon="2.75798">
        <ele>404.52</ele>
        <time>2018-04-10T07:06:26.000Z</time>
      </trkpt>
      <trkpt lat="46.309" lon="2.75814">
        <ele>403.86</ele>
        <time>2018-04-10T07:06:27.000Z</time>
      </trkpt>
      <trkpt lat="46.30894" lon="2.75829">
        <ele>403.19</ele>
        <time>2018-04-10T07:06:28.000Z</time>
      </trkpt>
      <trkpt lat="46.30886" lon="2.75843">
        <ele>402.52</ele>
        <time>2018-04-10T07:06:29.000Z</time>
      </trkpt>
      <trkpt lat="46.30877" lon="2.75855">
        <ele>401.71</ele>
        <time>2018-04-10T07:06:30.000Z</time>
      </trkpt>
      <trkpt lat="46.30867" lon="2.75865">
        <ele>401.16</ele>
        <time>2018-04-10T07:06:31.000Z</time>
      </trkpt>
      <trkpt lat="46.30858" lon="2.75876">
        <ele>400.75</ele>
        <time>2018-04-10T07:06:32.000Z</time>
      </trkpt>
      <trkpt lat="46.30849" lon="2.75887">
        <ele>400.38</ele>
        <time>2018-04-10T07:06:33.000Z</time>
      </trkpt>
      <trkpt lat="46.30841" lon="2.75898">
        <ele>399.94</ele>
        <time>2018-04-10T07:06:34.000Z</time>
      </trkpt>
      <trkpt lat="46.30833" lon="2.7591">
        <ele>399.57</ele>
        <time>2018-04-10T07:06:35.000Z</time>
      </trkpt>
      <trkpt lat="46.30827" lon="2.75921">
        <ele>399.55</ele>
        <time>2018-04-10T07:06:36.000Z</time>
      </trkpt>
      <trkpt lat="46.30823" lon="2.75934">
        <ele>399.49</ele>
        <time>2018-04-10T07:06:37.000Z</time>
      </trkpt>
      <trkpt lat="46.30821" lon="2.75948">
        <ele>399.4</ele>
        <time>2018-04-10T07:06:38.000Z</time>
      </trkpt>
      <trkpt lat="46.30822" lon="2.75962">
        <ele>399.3</ele>
        <time>2018-04-10T07:06:39.000Z</time>
      </trkpt>
      <trkpt lat="46.30826" lon="2.75985">
        <ele>399.33</ele>
        <time>2018-04-10T07:06:41.000Z</time>
      </trkpt>
      <trkpt lat="46.30832" lon="2.76005">
        <ele>399.31</ele>
        <time>2018-04-10T07:06:43.000Z</time>
      </trkpt>
      <trkpt lat="46.30837" lon="2.76022">
        <ele>399.24</ele>
        <time>2018-04-10T07:06:45.000Z</time>
      </trkpt>
      <trkpt lat="46.3084" lon="2.76036">
        <ele>399.53</ele>
        <time>2018-04-10T07:06:47.000Z</time>
      </trkpt>
      <trkpt lat="46.30842" lon="2.7605">
        <ele>399.59</ele>
        <time>2018-04-10T07:06:49.000Z</time>
      </trkpt>
      <trkpt lat="46.30845" lon="2.76063">
        <ele>399.59</ele>
        <time>2018-04-10T07:06:51.000Z</time>
      </trkpt>
      <trkpt lat="46.30847" lon="2.76076">
        <ele>399.73</ele>
        <time>2018-04-10T07:06:53.000Z</time>
      </trkpt>
      <trkpt lat="46.30849" lon="2.76089">
        <ele>400.05</ele>
        <time>2018-04-10T07:06:55.000Z</time>
      </trkpt>
      <trkpt lat="46.30852" lon="2.76107">
        <ele>400.38</ele>
        <time>2018-04-10T07:06:58.000Z</time>
      </trkpt>
      <trkpt lat="46.30858" lon="2.76124">
        <ele>400.92</ele>
        <time>2018-04-10T07:07:01.000Z</time>
      </trkpt>
      <trkpt lat="46.30867" lon="2.76137">
        <ele>401.57</ele>
        <time>2018-04-10T07:07:04.000Z</time>
      </trkpt>
      <trkpt lat="46.30875" lon="2.76144">
        <ele>401.87</ele>
        <time>2018-04-10T07:07:06.000Z</time>
      </trkpt>
      <trkpt lat="46.30885" lon="2.76148">
        <ele>402.49</ele>
        <time>2018-04-10T07:07:08.000Z</time>
      </trkpt>
      <trkpt lat="46.30898" lon="2.76147">
        <ele>403.28</ele>
        <time>2018-04-10T07:07:11.000Z</time>
      </trkpt>
      <trkpt lat="46.3091" lon="2.76146">
        <ele>403.62</ele>
        <time>2018-04-10T07:07:14.000Z</time>
      </trkpt>
      <trkpt lat="46.30922" lon="2.7615">
        <ele>403.39</ele>
        <time>2018-04-10T07:07:17.000Z</time>
      </trkpt>
      <trkpt lat="46.30928" lon="2.76162">
        <ele>403.61</ele>
        <time>2018-04-10T07:07:20.000Z</time>
      </trkpt>
      <trkpt lat="46.3093" lon="2.7618">
        <ele>404.48</ele>
        <time>2018-04-10T07:07:23.000Z</time>
      </trkpt>
      <trkpt lat="46.30927" lon="2.76193">
        <ele>404.92</ele>
        <time>2018-04-10T07:07:25.000Z</time>
      </trkpt>
      <trkpt lat="46.30925" lon="2.76206">
        <ele>405.34</ele>
        <time>2018-04-10T07:07:27.000Z</time>
      </trkpt>
      <trkpt lat="46.30922" lon="2.76219">
        <ele>405.88</ele>
        <time>2018-04-10T07:07:29.000Z</time>
      </trkpt>
      <trkpt lat="46.30918" lon="2.7623">
        <ele>406.77</ele>
        <time>2018-04-10T07:07:31.000Z</time>
      </trkpt>
      <trkpt lat="46.30906" lon="2.7624">
        <ele>407.62</ele>
        <time>2018-04-10T07:07:34.000Z</time>
      </trkpt>
      <trkpt lat="46.30896" lon="2.76242">
        <ele>408.13</ele>
        <time>2018-04-10T07:07:36.000Z</time>
      </trkpt>
      <trkpt lat="46.30887" lon="2.76243">
        <ele>408.61</ele>
        <time>2018-04-10T07:07:38.000Z</time>
      </trkpt>
      <trkpt lat="46.30877" lon="2.76246">
        <ele>409.4</ele>
        <time>2018-04-10T07:07:40.000Z</time>
      </trkpt>
      <trkpt lat="46.30869" lon="2.76253">
        <ele>410.04</ele>
        <time>2018-04-10T07:07:42.000Z</time>
      </trkpt>
      <trkpt lat="46.30862" lon="2.76262">
        <ele>410.5</ele>
        <time>2018-04-10T07:07:44.000Z</time>
      </trkpt>
      <trkpt lat="46.30858" lon="2.76275">
        <ele>410.85</ele>
        <time>2018-04-10T07:07:46.000Z</time>
      </trkpt>
      <trkpt lat="46.30855" lon="2.7629">
        <ele>411.49</ele>
        <time>2018-04-10T07:07:48.000Z</time>
      </trkpt>
      <trkpt lat="46.30854" lon="2.76305">
        <ele>411.71</ele>
        <time>2018-04-10T07:07:50.000Z</time>
      </trkpt>
      <trkpt lat="46.30853" lon="2.7632">
        <ele>412.18</ele>
        <time>2018-04-10T07:07:52.000Z</time>
      </trkpt>
      <trkpt lat="46.30851" lon="2.76335">
        <ele>412.78</ele>
        <time>2018-04-10T07:07:54.000Z</time>
      </trkpt>
      <trkpt lat="46.3085" lon="2.76348">
        <ele>413.6</ele>
        <time>2018-04-10T07:07:56.000Z</time>
      </trkpt>
      <trkpt lat="46.30848" lon="2.76362">
        <ele>414.04</ele>
        <time>2018-04-10T07:07:58.000Z</time>
      </trkpt>
      <trkpt lat="46.30847" lon="2.76381">
        <ele>414.55</ele>
        <time>2018-04-10T07:08:01.000Z</time>
      </trkpt>
      <trkpt lat="46.30845" lon="2.76399">
        <ele>415.34</ele>
        <time>2018-04-10T07:08:04.000Z</time>
      </trkpt>
      <trkpt lat="46.30843" lon="2.76417">
        <ele>416.2</ele>
        <time>2018-04-10T07:08:07.000Z</time>
      </trkpt>
      <trkpt lat="46.3084" lon="2.76434">
        <ele>416.9</ele>
        <time>2018-04-10T07:08:10.000Z</time>
      </trkpt>
      <trkpt lat="46.30838" lon="2.76452">
        <ele>417.38</ele>
        <time>2018-04-10T07:08:13.000Z</time>
      </trkpt>
      <trkpt lat="46.30838" lon="2.76471">
        <ele>417.93</ele>
        <time>2018-04-10T07:08:16.000Z</time>
      </trkpt>
      <trkpt lat="46.30837" lon="2.7649">
        <ele>418.82</ele>
        <time>2018-04-10T07:08:19.000Z</time>
      </trkpt>
      <trkpt lat="46.30837" lon="2.76508">
        <ele>420.29</ele>
        <time>2018-04-10T07:08:22.000Z</time>
      </trkpt>
      <trkpt lat="46.30838" lon="2.76525">
        <ele>421.87</ele>
        <time>2018-04-10T07:08:25.000Z</time>
      </trkpt>
      <trkpt lat="46.3084" lon="2.76541">
        <ele>422.99</ele>
        <time>2018-04-10T07:08:28.000Z</time>
      </trkpt>
      <trkpt lat="46.30841" lon="2.76559">
        <ele>424.21</ele>
        <time>2018-04-10T07:08:31.000Z</time>
      </trkpt>
      <trkpt lat="46.30838" lon="2.76578">
        <ele>425.32</ele>
        <time>2018-04-10T07:08:34.000Z</time>
      </trkpt>
      <trkpt lat="46.30835" lon="2.76591">
        <ele>426.15</ele>
        <time>2018-04-10T07:08:36.000Z</time>
      </trkpt>
      <trkpt lat="46.30832" lon="2.76604">
        <ele>426.57</ele>
        <time>2018-04-10T07:08:38.000Z</time>
      </trkpt>
      <trkpt lat="46.3083" lon="2.76617">
        <ele>427.01</ele>
        <time>2018-04-10T07:08:40.000Z</time>
      </trkpt>
      <trkpt lat="46.30827" lon="2.7663">
        <ele>427.74</ele>
        <time>2018-04-10T07:08:42.000Z</time>
      </trkpt>
      <trkpt lat="46.30823" lon="2.76643">
        <ele>428.26</ele>
        <time>2018-04-10T07:08:44.000Z</time>
      </trkpt>
      <trkpt lat="46.30819" lon="2.76657">
        <ele>428.52</ele>
        <time>2018-04-10T07:08:46.000Z</time>
      </trkpt>
      <trkpt lat="46.30816" lon="2.7667">
        <ele>429.02</ele>
        <time>2018-04-10T07:08:48.000Z</time>
      </trkpt>
      <trkpt lat="46.30813" lon="2.76683">
        <ele>429.15</ele>
        <time>2018-04-10T07:08:50.000Z</time>
      </trkpt>
      <trkpt lat="46.30809" lon="2.76697">
        <ele>429.07</ele>
        <time>2018-04-10T07:08:52.000Z</time>
      </trkpt>
      <trkpt lat="46.30808" lon="2.76712">
        <ele>428.78</ele>
        <time>2018-04-10T07:08:54.000Z</time>
      </trkpt>
      <trkpt lat="46.30806" lon="2.76727">
        <ele>428.8</ele>
        <time>2018-04-10T07:08:56.000Z</time>
      </trkpt>
      <trkpt lat="46.30806" lon="2.76742">
        <ele>427.99</ele>
        <time>2018-04-10T07:08:58.000Z</time>
      </trkpt>
      <trkpt lat="46.30806" lon="2.76756">
        <ele>428.07</ele>
        <time>2018-04-10T07:09:00.000Z</time>
      </trkpt>
      <trkpt lat="46.30804" lon="2.76771">
        <ele>427.87</ele>
        <time>2018-04-10T07:09:02.000Z</time>
      </trkpt>
      <trkpt lat="46.30803" lon="2.76785">
        <ele>427.88</ele>
        <time>2018-04-10T07:09:04.000Z</time>
      </trkpt>
      <trkpt lat="46.30801" lon="2.76801">
        <ele>427.79</ele>
        <time>2018-04-10T07:09:06.000Z</time>
      </trkpt>
      <trkpt lat="46.30798" lon="2.76816">
        <ele>427.62</ele>
        <time>2018-04-10T07:09:08.000Z</time>
      </trkpt>
      <trkpt lat="46.30796" lon="2.76831">
        <ele>427.63</ele>
        <time>2018-04-10T07:09:10.000Z</time>
      </trkpt>
      <trkpt lat="46.30794" lon="2.76846">
        <ele>427.71</ele>
        <time>2018-04-10T07:09:12.000Z</time>
      </trkpt>
      <trkpt lat="46.30792" lon="2.76862">
        <ele>427.59</ele>
        <time>2018-04-10T07:09:14.000Z</time>
      </trkpt>
      <trkpt lat="46.30789" lon="2.76878">
        <ele>427.77</ele>
        <time>2018-04-10T07:09:16.000Z</time>
      </trkpt>
      <trkpt lat="46.30785" lon="2.76892">
        <ele>428.1</ele>
        <time>2018-04-10T07:09:18.000Z</time>
      </trkpt>
      <trkpt lat="46.30781" lon="2.76907">
        <ele>429.09</ele>
        <time>2018-04-10T07:09:20.000Z</time>
      </trkpt>
      <trkpt lat="46.30777" lon="2.76922">
        <ele>429.69</ele>
        <time>2018-04-10T07:09:22.000Z</time>
      </trkpt>
      <trkpt lat="46.30773" lon="2.76937">
        <ele>429.79</ele>
        <time>2018-04-10T07:09:24.000Z</time>
      </trkpt>
      <trkpt lat="46.30769" lon="2.76952">
        <ele>429.49</ele>
        <time>2018-04-10T07:09:26.000Z</time>
      </trkpt>
      <trkpt lat="46.30765" lon="2.76967">
        <ele>429.24</ele>
        <time>2018-04-10T07:09:28.000Z</time>
      </trkpt>
      <trkpt lat="46.30761" lon="2.76982">
        <ele>429.27</ele>
        <time>2018-04-10T07:09:30.000Z</time>
      </trkpt>
      <trkpt lat="46.30759" lon="2.76998">
        <ele>429.6</ele>
        <time>2018-04-10T07:09:32.000Z</time>
      </trkpt>
      <trkpt lat="46.30756" lon="2.77013">
        <ele>429.66</ele>
        <time>2018-04-10T07:09:34.000Z</time>
      </trkpt>
      <trkpt lat="46.30755" lon="2.77029">
        <ele>429.82</ele>
        <time>2018-04-10T07:09:36.000Z</time>
      </trkpt>
      <trkpt lat="46.30754" lon="2.77044">
        <ele>429.97</ele>
        <time>2018-04-10T07:09:38.000Z</time>
      </trkpt>
      <trkpt lat="46.30753" lon="2.7706">
        <ele>430.34</ele>
        <time>2018-04-10T07:09:40.000Z</time>
      </trkpt>
      <trkpt lat="46.30752" lon="2.77076">
        <ele>430.58</ele>
        <time>2018-04-10T07:09:42.000Z</time>
      </trkpt>
      <trkpt lat="46.30751" lon="2.77092">
        <ele>430.68</ele>
        <time>2018-04-10T07:09:44.000Z</time>
      </trkpt>
      <trkpt lat="46.3075" lon="2.77109">
        <ele>430.99</ele>
        <time>2018-04-10T07:09:46.000Z</time>
      </trkpt>
      <trkpt lat="46.30749" lon="2.77125">
        <ele>431.19</ele>
        <time>2018-04-10T07:09:48.000Z</time>
      </trkpt>
      <trkpt lat="46.30748" lon="2.77141">
        <ele>431.39</ele>
        <time>2018-04-10T07:09:50.000Z</time>
      </trkpt>
      <trkpt lat="46.30747" lon="2.77157">
        <ele>431.71</ele>
        <time>2018-04-10T07:09:52.000Z</time>
      </trkpt>
      <trkpt lat="46.30744" lon="2.77173">
        <ele>431.98</ele>
        <time>2018-04-10T07:09:54.000Z</time>
      </trkpt>
      <trkpt lat="46.30742" lon="2.77189">
        <ele>432.13</ele>
        <time>2018-04-10T07:09:56.000Z</time>
      </trkpt>
      <trkpt lat="46.30739" lon="2.77205">
        <ele>432.54</ele>
        <time>2018-04-10T07:09:58.000Z</time>
      </trkpt>
      <trkpt lat="46.30737" lon="2.7722">
        <ele>432.43</ele>
        <time>2018-04-10T07:10:00.000Z</time>
      </trkpt>
      <trkpt lat="46.30736" lon="2.77236">
        <ele>432.46</ele>
        <time>2018-04-10T07:10:02.000Z</time>
      </trkpt>
      <trkpt lat="46.30734" lon="2.77252">
        <ele>432.3</ele>
        <time>2018-04-10T07:10:04.000Z</time>
      </trkpt>
      <trkpt lat="46.30732" lon="2.77268">
        <ele>432.11</ele>
        <time>2018-04-10T07:10:06.000Z</time>
      </trkpt>
      <trkpt lat="46.30731" lon="2.77285">
        <ele>432.5</ele>
        <time>2018-04-10T07:10:08.000Z</time>
      </trkpt>
      <trkpt lat="46.3073" lon="2.77302">
        <ele>432.74</ele>
        <time>2018-04-10T07:10:10.000Z</time>
      </trkpt>
      <trkpt lat="46.30731" lon="2.77319">
        <ele>432.88</ele>
        <time>2018-04-10T07:10:12.000Z</time>
      </trkpt>
      <trkpt lat="46.30732" lon="2.77336">
        <ele>432.84</ele>
        <time>2018-04-10T07:10:14.000Z</time>
      </trkpt>
      <trkpt lat="46.30733" lon="2.77354">
        <ele>432.69</ele>
        <time>2018-04-10T07:10:16.000Z</time>
      </trkpt>
      <trkpt lat="46.30732" lon="2.77372">
        <ele>432.85</ele>
        <time>2018-04-10T07:10:18.000Z</time>
      </trkpt>
      <trkpt lat="46.3073" lon="2.77391">
        <ele>432.89</ele>
        <time>2018-04-10T07:10:20.000Z</time>
      </trkpt>
      <trkpt lat="46.30727" lon="2.77409">
        <ele>432.9</ele>
        <time>2018-04-10T07:10:22.000Z</time>
      </trkpt>
      <trkpt lat="46.30722" lon="2.77426">
        <ele>433.07</ele>
        <time>2018-04-10T07:10:24.000Z</time>
      </trkpt>
      <trkpt lat="46.30716" lon="2.77442">
        <ele>432.71</ele>
        <time>2018-04-10T07:10:26.000Z</time>
      </trkpt>
      <trkpt lat="46.30709" lon="2.77456">
        <ele>432.58</ele>
        <time>2018-04-10T07:10:28.000Z</time>
      </trkpt>
      <trkpt lat="46.30703" lon="2.77471">
        <ele>432.35</ele>
        <time>2018-04-10T07:10:30.000Z</time>
      </trkpt>
      <trkpt lat="46.30698" lon="2.77487">
        <ele>432.53</ele>
        <time>2018-04-10T07:10:32.000Z</time>
      </trkpt>
      <trkpt lat="46.30693" lon="2.77503">
        <ele>432.82</ele>
        <time>2018-04-10T07:10:34.000Z</time>
      </trkpt>
      <trkpt lat="46.30688" lon="2.77519">
        <ele>432.87</ele>
        <time>2018-04-10T07:10:36.000Z</time>
      </trkpt>
      <trkpt lat="46.30682" lon="2.77535">
        <ele>433</ele>
        <time>2018-04-10T07:10:38.000Z</time>
      </trkpt>
      <trkpt lat="46.30675" lon="2.77549">
        <ele>433.2</ele>
        <time>2018-04-10T07:10:40.000Z</time>
      </trkpt>
      <trkpt lat="46.30667" lon="2.77561">
        <ele>433.75</ele>
        <time>2018-04-10T07:10:42.000Z</time>
      </trkpt>
      <trkpt lat="46.30658" lon="2.77572">
        <ele>434.02</ele>
        <time>2018-04-10T07:10:44.000Z</time>
      </trkpt>
      <trkpt lat="46.30648" lon="2.77582">
        <ele>433.94</ele>
        <time>2018-04-10T07:10:46.000Z</time>
      </trkpt>
      <trkpt lat="46.30638" lon="2.77592">
        <ele>433.89</ele>
        <time>2018-04-10T07:10:48.000Z</time>
      </trkpt>
      <trkpt lat="46.30627" lon="2.77601">
        <ele>434.22</ele>
        <time>2018-04-10T07:10:50.000Z</time>
      </trkpt>
      <trkpt lat="46.30618" lon="2.7761">
        <ele>434.44</ele>
        <time>2018-04-10T07:10:52.000Z</time>
      </trkpt>
      <trkpt lat="46.3061" lon="2.77618">
        <ele>434.47</ele>
        <time>2018-04-10T07:10:54.000Z</time>
      </trkpt>
      <trkpt lat="46.306" lon="2.77627">
        <ele>434.27</ele>
        <time>2018-04-10T07:10:56.000Z</time>
      </trkpt>
      <trkpt lat="46.30592" lon="2.77637">
        <ele>434.14</ele>
        <time>2018-04-10T07:10:58.000Z</time>
      </trkpt>
      <trkpt lat="46.30582" lon="2.77645">
        <ele>434.01</ele>
        <time>2018-04-10T07:11:00.000Z</time>
      </trkpt>
      <trkpt lat="46.30573" lon="2.77653">
        <ele>434.13</ele>
        <time>2018-04-10T07:11:02.000Z</time>
      </trkpt>
      <trkpt lat="46.30564" lon="2.77662">
        <ele>434.18</ele>
        <time>2018-04-10T07:11:04.000Z</time>
      </trkpt>
      <trkpt lat="46.30555" lon="2.77671">
        <ele>434.42</ele>
        <time>2018-04-10T07:11:06.000Z</time>
      </trkpt>
      <trkpt lat="46.30546" lon="2.7768">
        <ele>434.56</ele>
        <time>2018-04-10T07:11:08.000Z</time>
      </trkpt>
      <trkpt lat="46.30538" lon="2.7769">
        <ele>434.91</ele>
        <time>2018-04-10T07:11:10.000Z</time>
      </trkpt>
      <trkpt lat="46.3053" lon="2.777">
        <ele>435.12</ele>
        <time>2018-04-10T07:11:12.000Z</time>
      </trkpt>
      <trkpt lat="46.30523" lon="2.77713">
        <ele>435.92</ele>
        <time>2018-04-10T07:11:14.000Z</time>
      </trkpt>
      <trkpt lat="46.30516" lon="2.77724">
        <ele>437</ele>
        <time>2018-04-10T07:11:15.999Z</time>
      </trkpt>
      <trkpt lat="46.30511" lon="2.77738">
        <ele>437.26</ele>
        <time>2018-04-10T07:11:17.999Z</time>
      </trkpt>
      <trkpt lat="46.30507" lon="2.77753">
        <ele>437.33</ele>
        <time>2018-04-10T07:11:19.999Z</time>
      </trkpt>
      <trkpt lat="46.30502" lon="2.77767">
        <ele>437.52</ele>
        <time>2018-04-10T07:11:21.999Z</time>
      </trkpt>
      <trkpt lat="46.30497" lon="2.77781">
        <ele>437.69</ele>
        <time>2018-04-10T07:11:23.999Z</time>
      </trkpt>
      <trkpt lat="46.30492" lon="2.77795">
        <ele>437.73</ele>
        <time>2018-04-10T07:11:25.999Z</time>
      </trkpt>
      <trkpt lat="46.30487" lon="2.77809">
        <ele>437.78</ele>
        <time>2018-04-10T07:11:27.999Z</time>
      </trkpt>
      <trkpt lat="46.30481" lon="2.77823">
        <ele>437.99</ele>
        <time>2018-04-10T07:11:29.999Z</time>
      </trkpt>
      <trkpt lat="46.30474" lon="2.77836">
        <ele>438.28</ele>
        <time>2018-04-10T07:11:31.999Z</time>
      </trkpt>
      <trkpt lat="46.30468" lon="2.77849">
        <ele>438.62</ele>
        <time>2018-04-10T07:11:33.999Z</time>
      </trkpt>
      <trkpt lat="46.30461" lon="2.77862">
        <ele>438.91</ele>
        <time>2018-04-10T07:11:35.999Z</time>
      </trkpt>
      <trkpt lat="46.30454" lon="2.77874">
        <ele>439.1</ele>
        <time>2018-04-10T07:11:37.999Z</time>
      </trkpt>
      <trkpt lat="46.30447" lon="2.77885">
        <ele>439.43</ele>
        <time>2018-04-10T07:11:39.999Z</time>
      </trkpt>
      <trkpt lat="46.3044" lon="2.77896">
        <ele>439.86</ele>
        <time>2018-04-10T07:11:41.999Z</time>
      </trkpt>
      <trkpt lat="46.30433" lon="2.77906">
        <ele>440.24</ele>
        <time>2018-04-10T07:11:43.999Z</time>
      </trkpt>
      <trkpt lat="46.30426" lon="2.77917">
        <ele>440.44</ele>
        <time>2018-04-10T07:11:45.999Z</time>
      </trkpt>
      <trkpt lat="46.30418" lon="2.77928">
        <ele>440.78</ele>
        <time>2018-04-10T07:11:47.999Z</time>
      </trkpt>
      <trkpt lat="46.30411" lon="2.7794">
        <ele>441.17</ele>
        <time>2018-04-10T07:11:49.999Z</time>
      </trkpt>
      <trkpt lat="46.30404" lon="2.77952">
        <ele>441.2</ele>
        <time>2018-04-10T07:11:51.999Z</time>
      </trkpt>
      <trkpt lat="46.30397" lon="2.77964">
        <ele>441.25</ele>
        <time>2018-04-10T07:11:53.999Z</time>
      </trkpt>
      <trkpt lat="46.3039" lon="2.77976">
        <ele>441.72</ele>
        <time>2018-04-10T07:11:55.999Z</time>
      </trkpt>
      <trkpt lat="46.30383" lon="2.77989">
        <ele>442.49</ele>
        <time>2018-04-10T07:11:57.999Z</time>
      </trkpt>
      <trkpt lat="46.30376" lon="2.78001">
        <ele>442.97</ele>
        <time>2018-04-10T07:11:59.999Z</time>
      </trkpt>
      <trkpt lat="46.3037" lon="2.78013">
        <ele>443.29</ele>
        <time>2018-04-10T07:12:01.999Z</time>
      </trkpt>
      <trkpt lat="46.30364" lon="2.78026">
        <ele>443.34</ele>
        <time>2018-04-10T07:12:03.999Z</time>
      </trkpt>
      <trkpt lat="46.30357" lon="2.78039">
        <ele>443.16</ele>
        <time>2018-04-10T07:12:05.999Z</time>
      </trkpt>
      <trkpt lat="46.3035" lon="2.78052">
        <ele>443.38</ele>
        <time>2018-04-10T07:12:07.999Z</time>
      </trkpt>
      <trkpt lat="46.30344" lon="2.78065">
        <ele>444.24</ele>
        <time>2018-04-10T07:12:09.999Z</time>
      </trkpt>
      <trkpt lat="46.30337" lon="2.78076">
        <ele>444.63</ele>
        <time>2018-04-10T07:12:11.999Z</time>
      </trkpt>
      <trkpt lat="46.30329" lon="2.78087">
        <ele>445.11</ele>
        <time>2018-04-10T07:12:13.999Z</time>
      </trkpt>
      <trkpt lat="46.30322" lon="2.781">
        <ele>445.26</ele>
        <time>2018-04-10T07:12:15.999Z</time>
      </trkpt>
      <trkpt lat="46.30314" lon="2.78113">
        <ele>445.44</ele>
        <time>2018-04-10T07:12:17.999Z</time>
      </trkpt>
      <trkpt lat="46.30309" lon="2.78125">
        <ele>446.02</ele>
        <time>2018-04-10T07:12:19.999Z</time>
      </trkpt>
      <trkpt lat="46.30304" lon="2.78138">
        <ele>446.59</ele>
        <time>2018-04-10T07:12:21.999Z</time>
      </trkpt>
      <trkpt lat="46.30299" lon="2.7815">
        <ele>446.82</ele>
        <time>2018-04-10T07:12:23.999Z</time>
      </trkpt>
      <trkpt lat="46.30294" lon="2.78164">
        <ele>446.8</ele>
        <time>2018-04-10T07:12:25.999Z</time>
      </trkpt>
      <trkpt lat="46.3029" lon="2.78178">
        <ele>446.78</ele>
        <time>2018-04-10T07:12:27.999Z</time>
      </trkpt>
      <trkpt lat="46.30285" lon="2.78189">
        <ele>446.81</ele>
        <time>2018-04-10T07:12:29.999Z</time>
      </trkpt>
      <trkpt lat="46.30272" lon="2.78197">
        <ele>447.05</ele>
        <time>2018-04-10T07:12:32.999Z</time>
      </trkpt>
      <trkpt lat="46.30263" lon="2.78197">
        <ele>448.14</ele>
        <time>2018-04-10T07:12:34.999Z</time>
      </trkpt>
      <trkpt lat="46.30254" lon="2.78195">
        <ele>448.82</ele>
        <time>2018-04-10T07:12:36.999Z</time>
      </trkpt>
      <trkpt lat="46.30244" lon="2.78191">
        <ele>449.67</ele>
        <time>2018-04-10T07:12:38.999Z</time>
      </trkpt>
      <trkpt lat="46.30234" lon="2.78187">
        <ele>450.76</ele>
        <time>2018-04-10T07:12:40.999Z</time>
      </trkpt>
      <trkpt lat="46.30224" lon="2.78184">
        <ele>451.52</ele>
        <time>2018-04-10T07:12:42.999Z</time>
      </trkpt>
      <trkpt lat="46.30214" lon="2.78182">
        <ele>452.55</ele>
        <time>2018-04-10T07:12:44.999Z</time>
      </trkpt>
      <trkpt lat="46.30203" lon="2.7818">
        <ele>452.88</ele>
        <time>2018-04-10T07:12:46.999Z</time>
      </trkpt>
      <trkpt lat="46.30193" lon="2.78178">
        <ele>453.36</ele>
        <time>2018-04-10T07:12:48.999Z</time>
      </trkpt>
      <trkpt lat="46.30181" lon="2.78177">
        <ele>453.58</ele>
        <time>2018-04-10T07:12:50.999Z</time>
      </trkpt>
      <trkpt lat="46.30169" lon="2.78177">
        <ele>453.99</ele>
        <time>2018-04-10T07:12:52.999Z</time>
      </trkpt>
      <trkpt lat="46.30157" lon="2.78178">
        <ele>454.13</ele>
        <time>2018-04-10T07:12:54.999Z</time>
      </trkpt>
      <trkpt lat="46.30146" lon="2.78182">
        <ele>454.25</ele>
        <time>2018-04-10T07:12:56.999Z</time>
      </trkpt>
      <trkpt lat="46.30138" lon="2.78193">
        <ele>453.69</ele>
        <time>2018-04-10T07:12:58.999Z</time>
      </trkpt>
      <trkpt lat="46.30136" lon="2.78207">
        <ele>452.94</ele>
        <time>2018-04-10T07:13:00.999Z</time>
      </trkpt>
      <trkpt lat="46.30139" lon="2.78223">
        <ele>451.53</ele>
        <time>2018-04-10T07:13:02.999Z</time>
      </trkpt>
      <trkpt lat="46.30143" lon="2.78238">
        <ele>450.56</ele>
        <time>2018-04-10T07:13:04.999Z</time>
      </trkpt>
      <trkpt lat="46.30145" lon="2.78253">
        <ele>450.7</ele>
        <time>2018-04-10T07:13:06.999Z</time>
      </trkpt>
      <trkpt lat="46.3014" lon="2.78266">
        <ele>451.3</ele>
        <time>2018-04-10T07:13:08.999Z</time>
      </trkpt>
      <trkpt lat="46.3013" lon="2.7827">
        <ele>451.69</ele>
        <time>2018-04-10T07:13:10.999Z</time>
      </trkpt>
      <trkpt lat="46.30118" lon="2.78274">
        <ele>451.91</ele>
        <time>2018-04-10T07:13:12.999Z</time>
      </trkpt>
      <trkpt lat="46.30107" lon="2.7828">
        <ele>452.03</ele>
        <time>2018-04-10T07:13:14.999Z</time>
      </trkpt>
      <trkpt lat="46.30096" lon="2.78288">
        <ele>452.37</ele>
        <time>2018-04-10T07:13:16.999Z</time>
      </trkpt>
      <trkpt lat="46.30085" lon="2.78297">
        <ele>452.47</ele>
        <time>2018-04-10T07:13:18.999Z</time>
      </trkpt>
      <trkpt lat="46.30074" lon="2.78306">
        <ele>452.43</ele>
        <time>2018-04-10T07:13:20.999Z</time>
      </trkpt>
      <trkpt lat="46.30063" lon="2.78315">
        <ele>452.44</ele>
        <time>2018-04-10T07:13:22.999Z</time>
      </trkpt>
      <trkpt lat="46.30052" lon="2.78325">
        <ele>451.84</ele>
        <time>2018-04-10T07:13:24.999Z</time>
      </trkpt>
      <trkpt lat="46.3004" lon="2.78335">
        <ele>451.44</ele>
        <time>2018-04-10T07:13:26.999Z</time>
      </trkpt>
      <trkpt lat="46.30029" lon="2.78345">
        <ele>451.46</ele>
        <time>2018-04-10T07:13:28.999Z</time>
      </trkpt>
      <trkpt lat="46.30019" lon="2.78356">
        <ele>450.88</ele>
        <time>2018-04-10T07:13:30.999Z</time>
      </trkpt>
      <trkpt lat="46.30008" lon="2.78367">
        <ele>451.08</ele>
        <time>2018-04-10T07:13:32.999Z</time>
      </trkpt>
      <trkpt lat="46.29998" lon="2.78379">
        <ele>450.86</ele>
        <time>2018-04-10T07:13:34.999Z</time>
      </trkpt>
      <trkpt lat="46.29989" lon="2.78391">
        <ele>450.73</ele>
        <time>2018-04-10T07:13:36.999Z</time>
      </trkpt>
      <trkpt lat="46.29979" lon="2.78402">
        <ele>450.87</ele>
        <time>2018-04-10T07:13:38.999Z</time>
      </trkpt>
      <trkpt lat="46.29969" lon="2.78413">
        <ele>450.82</ele>
        <time>2018-04-10T07:13:40.999Z</time>
      </trkpt>
      <trkpt lat="46.2996" lon="2.78424">
        <ele>450.6</ele>
        <time>2018-04-10T07:13:42.999Z</time>
      </trkpt>
      <trkpt lat="46.2995" lon="2.78434">
        <ele>450.86</ele>
        <time>2018-04-10T07:13:44.999Z</time>
      </trkpt>
      <trkpt lat="46.29939" lon="2.78444">
        <ele>450.97</ele>
        <time>2018-04-10T07:13:46.999Z</time>
      </trkpt>
      <trkpt lat="46.29929" lon="2.78455">
        <ele>451.17</ele>
        <time>2018-04-10T07:13:48.999Z</time>
      </trkpt>
      <trkpt lat="46.29919" lon="2.78467">
        <ele>451.36</ele>
        <time>2018-04-10T07:13:50.999Z</time>
      </trkpt>
      <trkpt lat="46.29909" lon="2.78479">
        <ele>451.54</ele>
        <time>2018-04-10T07:13:52.999Z</time>
      </trkpt>
      <trkpt lat="46.299" lon="2.78491">
        <ele>451.55</ele>
        <time>2018-04-10T07:13:54.999Z</time>
      </trkpt>
      <trkpt lat="46.2989" lon="2.78504">
        <ele>451.84</ele>
        <time>2018-04-10T07:13:56.999Z</time>
      </trkpt>
      <trkpt lat="46.2988" lon="2.78516">
        <ele>451.75</ele>
        <time>2018-04-10T07:13:58.999Z</time>
      </trkpt>
      <trkpt lat="46.2987" lon="2.78528">
        <ele>451.44</ele>
        <time>2018-04-10T07:14:00.999Z</time>
      </trkpt>
      <trkpt lat="46.2986" lon="2.7854">
        <ele>451.58</ele>
        <time>2018-04-10T07:14:02.999Z</time>
      </trkpt>
      <trkpt lat="46.2985" lon="2.78552">
        <ele>451.89</ele>
        <time>2018-04-10T07:14:04.999Z</time>
      </trkpt>
      <trkpt lat="46.29841" lon="2.78564">
        <ele>452.16</ele>
        <time>2018-04-10T07:14:06.999Z</time>
      </trkpt>
      <trkpt lat="46.29831" lon="2.78576">
        <ele>452.5</ele>
        <time>2018-04-10T07:14:08.999Z</time>
      </trkpt>
      <trkpt lat="46.29822" lon="2.78589">
        <ele>452.42</ele>
        <time>2018-04-10T07:14:10.999Z</time>
      </trkpt>
      <trkpt lat="46.29813" lon="2.78601">
        <ele>452.42</ele>
        <time>2018-04-10T07:14:12.999Z</time>
      </trkpt>
      <trkpt lat="46.29803" lon="2.78613">
        <ele>452.42</ele>
        <time>2018-04-10T07:14:14.999Z</time>
      </trkpt>
      <trkpt lat="46.29793" lon="2.78626">
        <ele>452.77</ele>
        <time>2018-04-10T07:14:16.999Z</time>
      </trkpt>
      <trkpt lat="46.29784" lon="2.78638">
        <ele>452.62</ele>
        <time>2018-04-10T07:14:18.999Z</time>
      </trkpt>
      <trkpt lat="46.29774" lon="2.78651">
        <ele>452.35</ele>
        <time>2018-04-10T07:14:20.999Z</time>
      </trkpt>
      <trkpt lat="46.29765" lon="2.78663">
        <ele>452.02</ele>
        <time>2018-04-10T07:14:22.999Z</time>
      </trkpt>
      <trkpt lat="46.29755" lon="2.78675">
        <ele>452.16</ele>
        <time>2018-04-10T07:14:24.999Z</time>
      </trkpt>
      <trkpt lat="46.29745" lon="2.78687">
        <ele>452.33</ele>
        <time>2018-04-10T07:14:26.999Z</time>
      </trkpt>
      <trkpt lat="46.29734" lon="2.78699">
        <ele>452.31</ele>
        <time>2018-04-10T07:14:28.999Z</time>
      </trkpt>
      <trkpt lat="46.29724" lon="2.7871">
        <ele>452.61</ele>
        <time>2018-04-10T07:14:30.999Z</time>
      </trkpt>
      <trkpt lat="46.29713" lon="2.78721">
        <ele>452.8</ele>
        <time>2018-04-10T07:14:32.999Z</time>
      </trkpt>
      <trkpt lat="46.29702" lon="2.78731">
        <ele>453.07</ele>
        <time>2018-04-10T07:14:34.999Z</time>
      </trkpt>
      <trkpt lat="46.29691" lon="2.7874">
        <ele>453.42</ele>
        <time>2018-04-10T07:14:36.999Z</time>
      </trkpt>
      <trkpt lat="46.2968" lon="2.7875">
        <ele>453.52</ele>
        <time>2018-04-10T07:14:38.999Z</time>
      </trkpt>
      <trkpt lat="46.29668" lon="2.78758">
        <ele>453.2</ele>
        <time>2018-04-10T07:14:40.999Z</time>
      </trkpt>
      <trkpt lat="46.29656" lon="2.78767">
        <ele>452.49</ele>
        <time>2018-04-10T07:14:42.999Z</time>
      </trkpt>
      <trkpt lat="46.29643" lon="2.78776">
        <ele>452.05</ele>
        <time>2018-04-10T07:14:44.999Z</time>
      </trkpt>
      <trkpt lat="46.29631" lon="2.78783">
        <ele>451.78</ele>
        <time>2018-04-10T07:14:46.999Z</time>
      </trkpt>
      <trkpt lat="46.29619" lon="2.78789">
        <ele>451.7</ele>
        <time>2018-04-10T07:14:48.999Z</time>
      </trkpt>
      <trkpt lat="46.29606" lon="2.78796">
        <ele>451.48</ele>
        <time>2018-04-10T07:14:50.999Z</time>
      </trkpt>
      <trkpt lat="46.29594" lon="2.78802">
        <ele>451.26</ele>
        <time>2018-04-10T07:14:52.999Z</time>
      </trkpt>
      <trkpt lat="46.29582" lon="2.7881">
        <ele>451.11</ele>
        <time>2018-04-10T07:14:54.999Z</time>
      </trkpt>
      <trkpt lat="46.29572" lon="2.78818">
        <ele>451.05</ele>
        <time>2018-04-10T07:14:56.999Z</time>
      </trkpt>
      <trkpt lat="46.29562" lon="2.78827">
        <ele>451.1</ele>
        <time>2018-04-10T07:14:58.999Z</time>
      </trkpt>
      <trkpt lat="46.29554" lon="2.7884">
        <ele>451.2</ele>
        <time>2018-04-10T07:15:00.999Z</time>
      </trkpt>
      <trkpt lat="46.29547" lon="2.78854">
        <ele>451.14</ele>
        <time>2018-04-10T07:15:02.999Z</time>
      </trkpt>
      <trkpt lat="46.29541" lon="2.78869">
        <ele>450.96</ele>
        <time>2018-04-10T07:15:04.999Z</time>
      </trkpt>
      <trkpt lat="46.29534" lon="2.78883">
        <ele>451</ele>
        <time>2018-04-10T07:15:06.999Z</time>
      </trkpt>
      <trkpt lat="46.29525" lon="2.78896">
        <ele>451.23</ele>
        <time>2018-04-10T07:15:08.999Z</time>
      </trkpt>
      <trkpt lat="46.29517" lon="2.78908">
        <ele>451.53</ele>
        <time>2018-04-10T07:15:10.999Z</time>
      </trkpt>
      <trkpt lat="46.29507" lon="2.7892">
        <ele>451.7</ele>
        <time>2018-04-10T07:15:12.999Z</time>
      </trkpt>
      <trkpt lat="46.29499" lon="2.78932">
        <ele>451.64</ele>
        <time>2018-04-10T07:15:14.999Z</time>
      </trkpt>
      <trkpt lat="46.2949" lon="2.78942">
        <ele>451.56</ele>
        <time>2018-04-10T07:15:16.999Z</time>
      </trkpt>
      <trkpt lat="46.29481" lon="2.78953">
        <ele>451.57</ele>
        <time>2018-04-10T07:15:18.999Z</time>
      </trkpt>
      <trkpt lat="46.29472" lon="2.78964">
        <ele>451.39</ele>
        <time>2018-04-10T07:15:20.999Z</time>
      </trkpt>
      <trkpt lat="46.29463" lon="2.78975">
        <ele>451.39</ele>
        <time>2018-04-10T07:15:22.999Z</time>
      </trkpt>
      <trkpt lat="46.29454" lon="2.78986">
        <ele>451.68</ele>
        <time>2018-04-10T07:15:24.999Z</time>
      </trkpt>
      <trkpt lat="46.29446" lon="2.78997">
        <ele>452.11</ele>
        <time>2018-04-10T07:15:26.999Z</time>
      </trkpt>
      <trkpt lat="46.29437" lon="2.79008">
        <ele>452.45</ele>
        <time>2018-04-10T07:15:28.999Z</time>
      </trkpt>
      <trkpt lat="46.29428" lon="2.79019">
        <ele>452.66</ele>
        <time>2018-04-10T07:15:30.999Z</time>
      </trkpt>
      <trkpt lat="46.29419" lon="2.7903">
        <ele>452.86</ele>
        <time>2018-04-10T07:15:32.999Z</time>
      </trkpt>
      <trkpt lat="46.2941" lon="2.79042">
        <ele>453.15</ele>
        <time>2018-04-10T07:15:34.999Z</time>
      </trkpt>
      <trkpt lat="46.29401" lon="2.79053">
        <ele>453.54</ele>
        <time>2018-04-10T07:15:36.999Z</time>
      </trkpt>
      <trkpt lat="46.29392" lon="2.79063">
        <ele>454.13</ele>
        <time>2018-04-10T07:15:38.999Z</time>
      </trkpt>
      <trkpt lat="46.29384" lon="2.79074">
        <ele>454.63</ele>
        <time>2018-04-10T07:15:40.999Z</time>
      </trkpt>
      <trkpt lat="46.29375" lon="2.79085">
        <ele>454.91</ele>
        <time>2018-04-10T07:15:42.999Z</time>
      </trkpt>
      <trkpt lat="46.29366" lon="2.79096">
        <ele>455.3</ele>
        <time>2018-04-10T07:15:44.999Z</time>
      </trkpt>
      <trkpt lat="46.29358" lon="2.79106">
        <ele>455.8</ele>
        <time>2018-04-10T07:15:46.999Z</time>
      </trkpt>
      <trkpt lat="46.2935" lon="2.79117">
        <ele>456.4</ele>
        <time>2018-04-10T07:15:48.999Z</time>
      </trkpt>
      <trkpt lat="46.29341" lon="2.79128">
        <ele>456.96</ele>
        <time>2018-04-10T07:15:50.999Z</time>
      </trkpt>
      <trkpt lat="46.29332" lon="2.79139">
        <ele>457.28</ele>
        <time>2018-04-10T07:15:52.999Z</time>
      </trkpt>
      <trkpt lat="46.29324" lon="2.7915">
        <ele>457.84</ele>
        <time>2018-04-10T07:15:54.999Z</time>
      </trkpt>
      <trkpt lat="46.29315" lon="2.7916">
        <ele>458.56</ele>
        <time>2018-04-10T07:15:56.999Z</time>
      </trkpt>
      <trkpt lat="46.29306" lon="2.79172">
        <ele>459.01</ele>
        <time>2018-04-10T07:15:58.999Z</time>
      </trkpt>
      <trkpt lat="46.29298" lon="2.79182">
        <ele>459.44</ele>
        <time>2018-04-10T07:16:00.999Z</time>
      </trkpt>
      <trkpt lat="46.2929" lon="2.79193">
        <ele>460.2</ele>
        <time>2018-04-10T07:16:02.999Z</time>
      </trkpt>
      <trkpt lat="46.29281" lon="2.79203">
        <ele>460.82</ele>
        <time>2018-04-10T07:16:04.999Z</time>
      </trkpt>
      <trkpt lat="46.29273" lon="2.79214">
        <ele>461.54</ele>
        <time>2018-04-10T07:16:06.999Z</time>
      </trkpt>
      <trkpt lat="46.29264" lon="2.79224">
        <ele>462.24</ele>
        <time>2018-04-10T07:16:08.999Z</time>
      </trkpt>
      <trkpt lat="46.29255" lon="2.79235">
        <ele>463.12</ele>
        <time>2018-04-10T07:16:10.999Z</time>
      </trkpt>
      <trkpt lat="46.29247" lon="2.79246">
        <ele>464.08</ele>
        <time>2018-04-10T07:16:12.999Z</time>
      </trkpt>
      <trkpt lat="46.29238" lon="2.79256">
        <ele>464.36</ele>
        <time>2018-04-10T07:16:14.999Z</time>
      </trkpt>
      <trkpt lat="46.2923" lon="2.79267">
        <ele>464.38</ele>
        <time>2018-04-10T07:16:16.999Z</time>
      </trkpt>
      <trkpt lat="46.29222" lon="2.79277">
        <ele>464.35</ele>
        <time>2018-04-10T07:16:18.999Z</time>
      </trkpt>
      <trkpt lat="46.29214" lon="2.79288">
        <ele>464.32</ele>
        <time>2018-04-10T07:16:20.999Z</time>
      </trkpt>
      <trkpt lat="46.29207" lon="2.79298">
        <ele>464.6</ele>
        <time>2018-04-10T07:16:22.999Z</time>
      </trkpt>
      <trkpt lat="46.29199" lon="2.79309">
        <ele>464.76</ele>
        <time>2018-04-10T07:16:24.999Z</time>
      </trkpt>
      <trkpt lat="46.29192" lon="2.79321">
        <ele>464.89</ele>
        <time>2018-04-10T07:16:26.999Z</time>
      </trkpt>
      <trkpt lat="46.29184" lon="2.79332">
        <ele>465.13</ele>
        <time>2018-04-10T07:16:28.999Z</time>
      </trkpt>
      <trkpt lat="46.29177" lon="2.79343">
        <ele>465.28</ele>
        <time>2018-04-10T07:16:30.999Z</time>
      </trkpt>
      <trkpt lat="46.2917" lon="2.79354">
        <ele>465.53</ele>
        <time>2018-04-10T07:16:32.999Z</time>
      </trkpt>
      <trkpt lat="46.29162" lon="2.79365">
        <ele>465.84</ele>
        <time>2018-04-10T07:16:34.999Z</time>
      </trkpt>
      <trkpt lat="46.29155" lon="2.79377">
        <ele>465.94</ele>
        <time>2018-04-10T07:16:36.999Z</time>
      </trkpt>
      <trkpt lat="46.29148" lon="2.79388">
        <ele>466.22</ele>
        <time>2018-04-10T07:16:38.999Z</time>
      </trkpt>
      <trkpt lat="46.29141" lon="2.79399">
        <ele>466.48</ele>
        <time>2018-04-10T07:16:40.999Z</time>
      </trkpt>
      <trkpt lat="46.29134" lon="2.7941">
        <ele>466.51</ele>
        <time>2018-04-10T07:16:42.999Z</time>
      </trkpt>
      <trkpt lat="46.29126" lon="2.7942">
        <ele>466.69</ele>
        <time>2018-04-10T07:16:44.999Z</time>
      </trkpt>
      <trkpt lat="46.29119" lon="2.79431">
        <ele>467.12</ele>
        <time>2018-04-10T07:16:46.999Z</time>
      </trkpt>
      <trkpt lat="46.29112" lon="2.79442">
        <ele>467.37</ele>
        <time>2018-04-10T07:16:48.999Z</time>
      </trkpt>
      <trkpt lat="46.29104" lon="2.79452">
        <ele>467.3</ele>
        <time>2018-04-10T07:16:50.999Z</time>
      </trkpt>
      <trkpt lat="46.29096" lon="2.79463">
        <ele>467.32</ele>
        <time>2018-04-10T07:16:52.999Z</time>
      </trkpt>
      <trkpt lat="46.29088" lon="2.79474">
        <ele>467.45</ele>
        <time>2018-04-10T07:16:54.999Z</time>
      </trkpt>
      <trkpt lat="46.2908" lon="2.79485">
        <ele>467.5</ele>
        <time>2018-04-10T07:16:56.999Z</time>
      </trkpt>
      <trkpt lat="46.29073" lon="2.79495">
        <ele>467.73</ele>
        <time>2018-04-10T07:16:58.999Z</time>
      </trkpt>
      <trkpt lat="46.29065" lon="2.79506">
        <ele>467.78</ele>
        <time>2018-04-10T07:17:00.999Z</time>
      </trkpt>
      <trkpt lat="46.29056" lon="2.79517">
        <ele>468.01</ele>
        <time>2018-04-10T07:17:02.999Z</time>
      </trkpt>
      <trkpt lat="46.29048" lon="2.79527">
        <ele>468.39</ele>
        <time>2018-04-10T07:17:04.999Z</time>
      </trkpt>
      <trkpt lat="46.2904" lon="2.79538">
        <ele>468.89</ele>
        <time>2018-04-10T07:17:06.999Z</time>
      </trkpt>
      <trkpt lat="46.29032" lon="2.79548">
        <ele>469.6</ele>
        <time>2018-04-10T07:17:08.999Z</time>
      </trkpt>
      <trkpt lat="46.29023" lon="2.79558">
        <ele>470.05</ele>
        <time>2018-04-10T07:17:10.999Z</time>
      </trkpt>
      <trkpt lat="46.29015" lon="2.79568">
        <ele>470.34</ele>
        <time>2018-04-10T07:17:12.999Z</time>
      </trkpt>
      <trkpt lat="46.29007" lon="2.79579">
        <ele>470.36</ele>
        <time>2018-04-10T07:17:14.999Z</time>
      </trkpt>
      <trkpt lat="46.28998" lon="2.79589">
        <ele>470.43</ele>
        <time>2018-04-10T07:17:16.999Z</time>
      </trkpt>
      <trkpt lat="46.2899" lon="2.79597">
        <ele>470.48</ele>
        <time>2018-04-10T07:17:18.999Z</time>
      </trkpt>
      <trkpt lat="46.28982" lon="2.79606">
        <ele>470.61</ele>
        <time>2018-04-10T07:17:20.999Z</time>
      </trkpt>
      <trkpt lat="46.28974" lon="2.79613">
        <ele>470.87</ele>
        <time>2018-04-10T07:17:22.999Z</time>
      </trkpt>
      <trkpt lat="46.28966" lon="2.7962">
        <ele>471.33</ele>
        <time>2018-04-10T07:17:24.999Z</time>
      </trkpt>
      <trkpt lat="46.28955" lon="2.7963">
        <ele>472.13</ele>
        <time>2018-04-10T07:17:27.999Z</time>
      </trkpt>
      <trkpt lat="46.28947" lon="2.79637">
        <ele>472.65</ele>
        <time>2018-04-10T07:17:29.999Z</time>
      </trkpt>
      <trkpt lat="46.28939" lon="2.79643">
        <ele>473.04</ele>
        <time>2018-04-10T07:17:31.999Z</time>
      </trkpt>
      <trkpt lat="46.28931" lon="2.7965">
        <ele>473.5</ele>
        <time>2018-04-10T07:17:33.999Z</time>
      </trkpt>
      <trkpt lat="46.28922" lon="2.79657">
        <ele>474.06</ele>
        <time>2018-04-10T07:17:35.999Z</time>
      </trkpt>
      <trkpt lat="46.28914" lon="2.79664">
        <ele>474.74</ele>
        <time>2018-04-10T07:17:37.999Z</time>
      </trkpt>
      <trkpt lat="46.28906" lon="2.79671">
        <ele>474.96</ele>
        <time>2018-04-10T07:17:39.999Z</time>
      </trkpt>
      <trkpt lat="46.28899" lon="2.79678">
        <ele>475.19</ele>
        <time>2018-04-10T07:17:41.999Z</time>
      </trkpt>
      <trkpt lat="46.2889" lon="2.79685">
        <ele>475.25</ele>
        <time>2018-04-10T07:17:43.999Z</time>
      </trkpt>
      <trkpt lat="46.28882" lon="2.79692">
        <ele>475.38</ele>
        <time>2018-04-10T07:17:45.999Z</time>
      </trkpt>
      <trkpt lat="46.28874" lon="2.79699">
        <ele>475.66</ele>
        <time>2018-04-10T07:17:47.999Z</time>
      </trkpt>
      <trkpt lat="46.28866" lon="2.79706">
        <ele>475.98</ele>
        <time>2018-04-10T07:17:49.999Z</time>
      </trkpt>
      <trkpt lat="46.28858" lon="2.79713">
        <ele>476.12</ele>
        <time>2018-04-10T07:17:51.999Z</time>
      </trkpt>
      <trkpt lat="46.28851" lon="2.79721">
        <ele>476.1</ele>
        <time>2018-04-10T07:17:53.999Z</time>
      </trkpt>
      <trkpt lat="46.28843" lon="2.79727">
        <ele>476.05</ele>
        <time>2018-04-10T07:17:55.999Z</time>
      </trkpt>
      <trkpt lat="46.28835" lon="2.79734">
        <ele>476.11</ele>
        <time>2018-04-10T07:17:57.999Z</time>
      </trkpt>
      <trkpt lat="46.28827" lon="2.79741">
        <ele>476.28</ele>
        <time>2018-04-10T07:17:59.999Z</time>
      </trkpt>
      <trkpt lat="46.28819" lon="2.79747">
        <ele>476.55</ele>
        <time>2018-04-10T07:18:01.999Z</time>
      </trkpt>
      <trkpt lat="46.28811" lon="2.79754">
        <ele>477.07</ele>
        <time>2018-04-10T07:18:03.999Z</time>
      </trkpt>
      <trkpt lat="46.28804" lon="2.79761">
        <ele>477.57</ele>
        <time>2018-04-10T07:18:05.999Z</time>
      </trkpt>
      <trkpt lat="46.28792" lon="2.79771">
        <ele>478.28</ele>
        <time>2018-04-10T07:18:08.999Z</time>
      </trkpt>
      <trkpt lat="46.28782" lon="2.79781">
        <ele>478.89</ele>
        <time>2018-04-10T07:18:11.999Z</time>
      </trkpt>
      <trkpt lat="46.2877" lon="2.79791">
        <ele>479.63</ele>
        <time>2018-04-10T07:18:14.999Z</time>
      </trkpt>
      <trkpt lat="46.2876" lon="2.79801">
        <ele>480.39</ele>
        <time>2018-04-10T07:18:17.999Z</time>
      </trkpt>
      <trkpt lat="46.28749" lon="2.79812">
        <ele>481.13</ele>
        <time>2018-04-10T07:18:20.999Z</time>
      </trkpt>
      <trkpt lat="46.28738" lon="2.79821">
        <ele>481.86</ele>
        <time>2018-04-10T07:18:23.999Z</time>
      </trkpt>
      <trkpt lat="46.28727" lon="2.79832">
        <ele>482.67</ele>
        <time>2018-04-10T07:18:26.999Z</time>
      </trkpt>
      <trkpt lat="46.28717" lon="2.79844">
        <ele>482.92</ele>
        <time>2018-04-10T07:18:29.999Z</time>
      </trkpt>
      <trkpt lat="46.28708" lon="2.79856">
        <ele>483.26</ele>
        <time>2018-04-10T07:18:32.999Z</time>
      </trkpt>
      <trkpt lat="46.28699" lon="2.79869">
        <ele>483.18</ele>
        <time>2018-04-10T07:18:35.999Z</time>
      </trkpt>
      <trkpt lat="46.2869" lon="2.79882">
        <ele>483.43</ele>
        <time>2018-04-10T07:18:38.999Z</time>
      </trkpt>
      <trkpt lat="46.28682" lon="2.79895">
        <ele>483.29</ele>
        <time>2018-04-10T07:18:41.999Z</time>
      </trkpt>
      <trkpt lat="46.28676" lon="2.79905">
        <ele>483.37</ele>
        <time>2018-04-10T07:18:43.999Z</time>
      </trkpt>
      <trkpt lat="46.2867" lon="2.79916">
        <ele>483.48</ele>
        <time>2018-04-10T07:18:45.999Z</time>
      </trkpt>
      <trkpt lat="46.28664" lon="2.79927">
        <ele>483.51</ele>
        <time>2018-04-10T07:18:47.999Z</time>
      </trkpt>
      <trkpt lat="46.28659" lon="2.79938">
        <ele>483.7</ele>
        <time>2018-04-10T07:18:49.999Z</time>
      </trkpt>
      <trkpt lat="46.28654" lon="2.79949">
        <ele>484.06</ele>
        <time>2018-04-10T07:18:51.999Z</time>
      </trkpt>
      <trkpt lat="46.28646" lon="2.79963">
        <ele>483.9</ele>
        <time>2018-04-10T07:18:54.999Z</time>
      </trkpt>
      <trkpt lat="46.28639" lon="2.79979">
        <ele>483.89</ele>
        <time>2018-04-10T07:18:57.999Z</time>
      </trkpt>
      <trkpt lat="46.28631" lon="2.79993">
        <ele>484.2</ele>
        <time>2018-04-10T07:19:00.999Z</time>
      </trkpt>
      <trkpt lat="46.28624" lon="2.80007">
        <ele>484.38</ele>
        <time>2018-04-10T07:19:03.999Z</time>
      </trkpt>
      <trkpt lat="46.28616" lon="2.80021">
        <ele>484.73</ele>
        <time>2018-04-10T07:19:06.999Z</time>
      </trkpt>
      <trkpt lat="46.28609" lon="2.80035">
        <ele>484.72</ele>
        <time>2018-04-10T07:19:09.999Z</time>
      </trkpt>
      <trkpt lat="46.28602" lon="2.80051">
        <ele>484.87</ele>
        <time>2018-04-10T07:19:12.999Z</time>
      </trkpt>
      <trkpt lat="46.28596" lon="2.80061">
        <ele>485.03</ele>
        <time>2018-04-10T07:19:14.999Z</time>
      </trkpt>
      <trkpt lat="46.2859" lon="2.80072">
        <ele>484.8</ele>
        <time>2018-04-10T07:19:16.999Z</time>
      </trkpt>
      <trkpt lat="46.28585" lon="2.80082">
        <ele>484.87</ele>
        <time>2018-04-10T07:19:18.999Z</time>
      </trkpt>
      <trkpt lat="46.28579" lon="2.80094">
        <ele>485.17</ele>
        <time>2018-04-10T07:19:20.999Z</time>
      </trkpt>
      <trkpt lat="46.28574" lon="2.80105">
        <ele>485.47</ele>
        <time>2018-04-10T07:19:22.999Z</time>
      </trkpt>
      <trkpt lat="46.28568" lon="2.80116">
        <ele>485.9</ele>
        <time>2018-04-10T07:19:24.999Z</time>
      </trkpt>
      <trkpt lat="46.28563" lon="2.80127">
        <ele>486.44</ele>
        <time>2018-04-10T07:19:26.999Z</time>
      </trkpt>
      <trkpt lat="46.28558" lon="2.80139">
        <ele>487.14</ele>
        <time>2018-04-10T07:19:28.999Z</time>
      </trkpt>
      <trkpt lat="46.28553" lon="2.80151">
        <ele>487.65</ele>
        <time>2018-04-10T07:19:30.999Z</time>
      </trkpt>
      <trkpt lat="46.28548" lon="2.80163">
        <ele>487.92</ele>
        <time>2018-04-10T07:19:32.999Z</time>
      </trkpt>
      <trkpt lat="46.28544" lon="2.80175">
        <ele>488.04</ele>
        <time>2018-04-10T07:19:34.999Z</time>
      </trkpt>
      <trkpt lat="46.2854" lon="2.80188">
        <ele>488.2</ele>
        <time>2018-04-10T07:19:36.999Z</time>
      </trkpt>
      <trkpt lat="46.28537" lon="2.80201">
        <ele>488.28</ele>
        <time>2018-04-10T07:19:38.999Z</time>
      </trkpt>
      <trkpt lat="46.28533" lon="2.80214">
        <ele>488.49</ele>
        <time>2018-04-10T07:19:40.999Z</time>
      </trkpt>
      <trkpt lat="46.28529" lon="2.80227">
        <ele>488.63</ele>
        <time>2018-04-10T07:19:42.999Z</time>
      </trkpt>
      <trkpt lat="46.28526" lon="2.80241">
        <ele>488.76</ele>
        <time>2018-04-10T07:19:44.999Z</time>
      </trkpt>
      <trkpt lat="46.28523" lon="2.80254">
        <ele>488.81</ele>
        <time>2018-04-10T07:19:46.999Z</time>
      </trkpt>
      <trkpt lat="46.28519" lon="2.80268">
        <ele>488.95</ele>
        <time>2018-04-10T07:19:48.999Z</time>
      </trkpt>
      <trkpt lat="46.28515" lon="2.80282">
        <ele>489.18</ele>
        <time>2018-04-10T07:19:50.999Z</time>
      </trkpt>
      <trkpt lat="46.28512" lon="2.80295">
        <ele>489.42</ele>
        <time>2018-04-10T07:19:52.999Z</time>
      </trkpt>
      <trkpt lat="46.28508" lon="2.80309">
        <ele>489.81</ele>
        <time>2018-04-10T07:19:54.999Z</time>
      </trkpt>
      <trkpt lat="46.28505" lon="2.80323">
        <ele>490.13</ele>
        <time>2018-04-10T07:19:56.999Z</time>
      </trkpt>
      <trkpt lat="46.28501" lon="2.80336">
        <ele>490.49</ele>
        <time>2018-04-10T07:19:58.999Z</time>
      </trkpt>
      <trkpt lat="46.28497" lon="2.8035">
        <ele>491.03</ele>
        <time>2018-04-10T07:20:00.999Z</time>
      </trkpt>
      <trkpt lat="46.28494" lon="2.80362">
        <ele>491.48</ele>
        <time>2018-04-10T07:20:02.999Z</time>
      </trkpt>
      <trkpt lat="46.2849" lon="2.80374">
        <ele>492.05</ele>
        <time>2018-04-10T07:20:04.999Z</time>
      </trkpt>
      <trkpt lat="46.28486" lon="2.80387">
        <ele>492.61</ele>
        <time>2018-04-10T07:20:06.999Z</time>
      </trkpt>
      <trkpt lat="46.28482" lon="2.80399">
        <ele>492.85</ele>
        <time>2018-04-10T07:20:08.999Z</time>
      </trkpt>
      <trkpt lat="46.28478" lon="2.80411">
        <ele>492.96</ele>
        <time>2018-04-10T07:20:10.999Z</time>
      </trkpt>
      <trkpt lat="46.28474" lon="2.80423">
        <ele>492.94</ele>
        <time>2018-04-10T07:20:12.999Z</time>
      </trkpt>
      <trkpt lat="46.28471" lon="2.80436">
        <ele>493.21</ele>
        <time>2018-04-10T07:20:14.999Z</time>
      </trkpt>
      <trkpt lat="46.28468" lon="2.80449">
        <ele>493.61</ele>
        <time>2018-04-10T07:20:16.999Z</time>
      </trkpt>
      <trkpt lat="46.28464" lon="2.80462">
        <ele>493.79</ele>
        <time>2018-04-10T07:20:18.999Z</time>
      </trkpt>
      <trkpt lat="46.28461" lon="2.80475">
        <ele>493.9</ele>
        <time>2018-04-10T07:20:20.999Z</time>
      </trkpt>
      <trkpt lat="46.28458" lon="2.80488">
        <ele>494.37</ele>
        <time>2018-04-10T07:20:22.999Z</time>
      </trkpt>
      <trkpt lat="46.28454" lon="2.80502">
        <ele>494.53</ele>
        <time>2018-04-10T07:20:24.999Z</time>
      </trkpt>
      <trkpt lat="46.2845" lon="2.80514">
        <ele>494.62</ele>
        <time>2018-04-10T07:20:26.999Z</time>
      </trkpt>
      <trkpt lat="46.28447" lon="2.80527">
        <ele>494.91</ele>
        <time>2018-04-10T07:20:28.999Z</time>
      </trkpt>
      <trkpt lat="46.28444" lon="2.8054">
        <ele>495.09</ele>
        <time>2018-04-10T07:20:30.999Z</time>
      </trkpt>
      <trkpt lat="46.28441" lon="2.80554">
        <ele>495.48</ele>
        <time>2018-04-10T07:20:32.999Z</time>
      </trkpt>
      <trkpt lat="46.28438" lon="2.80567">
        <ele>495.9</ele>
        <time>2018-04-10T07:20:34.999Z</time>
      </trkpt>
      <trkpt lat="46.28434" lon="2.8058">
        <ele>495.98</ele>
        <time>2018-04-10T07:20:36.999Z</time>
      </trkpt>
      <trkpt lat="46.28431" lon="2.80594">
        <ele>495.95</ele>
        <time>2018-04-10T07:20:38.999Z</time>
      </trkpt>
      <trkpt lat="46.28428" lon="2.80607">
        <ele>495.99</ele>
        <time>2018-04-10T07:20:40.999Z</time>
      </trkpt>
      <trkpt lat="46.28425" lon="2.8062">
        <ele>496.11</ele>
        <time>2018-04-10T07:20:42.999Z</time>
      </trkpt>
      <trkpt lat="46.28421" lon="2.80632">
        <ele>496.45</ele>
        <time>2018-04-10T07:20:44.999Z</time>
      </trkpt>
      <trkpt lat="46.28418" lon="2.80645">
        <ele>496.75</ele>
        <time>2018-04-10T07:20:46.999Z</time>
      </trkpt>
      <trkpt lat="46.28415" lon="2.80658">
        <ele>497.03</ele>
        <time>2018-04-10T07:20:48.999Z</time>
      </trkpt>
      <trkpt lat="46.28412" lon="2.8067">
        <ele>497.15</ele>
        <time>2018-04-10T07:20:50.999Z</time>
      </trkpt>
      <trkpt lat="46.28408" lon="2.80683">
        <ele>497.46</ele>
        <time>2018-04-10T07:20:52.999Z</time>
      </trkpt>
      <trkpt lat="46.28404" lon="2.80696">
        <ele>497.87</ele>
        <time>2018-04-10T07:20:54.999Z</time>
      </trkpt>
      <trkpt lat="46.28401" lon="2.80709">
        <ele>497.81</ele>
        <time>2018-04-10T07:20:56.999Z</time>
      </trkpt>
      <trkpt lat="46.28398" lon="2.80722">
        <ele>498.1</ele>
        <time>2018-04-10T07:20:58.999Z</time>
      </trkpt>
      <trkpt lat="46.28394" lon="2.80735">
        <ele>498.32</ele>
        <time>2018-04-10T07:21:00.999Z</time>
      </trkpt>
      <trkpt lat="46.28392" lon="2.80748">
        <ele>498.6</ele>
        <time>2018-04-10T07:21:02.999Z</time>
      </trkpt>
      <trkpt lat="46.28389" lon="2.80761">
        <ele>498.97</ele>
        <time>2018-04-10T07:21:04.999Z</time>
      </trkpt>
      <trkpt lat="46.28386" lon="2.80775">
        <ele>499.41</ele>
        <time>2018-04-10T07:21:06.999Z</time>
      </trkpt>
      <trkpt lat="46.28383" lon="2.80788">
        <ele>499.97</ele>
        <time>2018-04-10T07:21:08.999Z</time>
      </trkpt>
      <trkpt lat="46.28381" lon="2.80802">
        <ele>500.39</ele>
        <time>2018-04-10T07:21:10.999Z</time>
      </trkpt>
      <trkpt lat="46.28378" lon="2.80815">
        <ele>500.92</ele>
        <time>2018-04-10T07:21:12.999Z</time>
      </trkpt>
      <trkpt lat="46.28376" lon="2.80829">
        <ele>501.52</ele>
        <time>2018-04-10T07:21:14.999Z</time>
      </trkpt>
      <trkpt lat="46.28374" lon="2.80842">
        <ele>502.05</ele>
        <time>2018-04-10T07:21:16.999Z</time>
      </trkpt>
      <trkpt lat="46.28372" lon="2.80855">
        <ele>502.47</ele>
        <time>2018-04-10T07:21:18.999Z</time>
      </trkpt>
      <trkpt lat="46.28371" lon="2.80868">
        <ele>502.81</ele>
        <time>2018-04-10T07:21:20.999Z</time>
      </trkpt>
      <trkpt lat="46.28369" lon="2.80882">
        <ele>503.46</ele>
        <time>2018-04-10T07:21:22.999Z</time>
      </trkpt>
      <trkpt lat="46.28367" lon="2.80895">
        <ele>503.56</ele>
        <time>2018-04-10T07:21:24.999Z</time>
      </trkpt>
      <trkpt lat="46.28365" lon="2.80909">
        <ele>503.39</ele>
        <time>2018-04-10T07:21:26.999Z</time>
      </trkpt>
      <trkpt lat="46.28363" lon="2.80928">
        <ele>503.51</ele>
        <time>2018-04-10T07:21:29.999Z</time>
      </trkpt>
      <trkpt lat="46.28361" lon="2.80941">
        <ele>503.64</ele>
        <time>2018-04-10T07:21:31.999Z</time>
      </trkpt>
      <trkpt lat="46.2836" lon="2.80954">
        <ele>503.79</ele>
        <time>2018-04-10T07:21:33.999Z</time>
      </trkpt>
      <trkpt lat="46.28359" lon="2.80967">
        <ele>504.02</ele>
        <time>2018-04-10T07:21:35.999Z</time>
      </trkpt>
      <trkpt lat="46.28358" lon="2.8098">
        <ele>504.36</ele>
        <time>2018-04-10T07:21:37.999Z</time>
      </trkpt>
      <trkpt lat="46.28357" lon="2.80999">
        <ele>504.81</ele>
        <time>2018-04-10T07:21:40.999Z</time>
      </trkpt>
      <trkpt lat="46.28356" lon="2.81018">
        <ele>505.06</ele>
        <time>2018-04-10T07:21:43.999Z</time>
      </trkpt>
      <trkpt lat="46.28356" lon="2.81031">
        <ele>505.54</ele>
        <time>2018-04-10T07:21:45.999Z</time>
      </trkpt>
      <trkpt lat="46.28357" lon="2.8105">
        <ele>506.42</ele>
        <time>2018-04-10T07:21:48.999Z</time>
      </trkpt>
      <trkpt lat="46.28357" lon="2.81069">
        <ele>507.4</ele>
        <time>2018-04-10T07:21:51.999Z</time>
      </trkpt>
      <trkpt lat="46.28358" lon="2.81089">
        <ele>507.93</ele>
        <time>2018-04-10T07:21:54.999Z</time>
      </trkpt>
      <trkpt lat="46.28358" lon="2.81103">
        <ele>508.22</ele>
        <time>2018-04-10T07:21:56.999Z</time>
      </trkpt>
      <trkpt lat="46.28359" lon="2.81118">
        <ele>508.23</ele>
        <time>2018-04-10T07:21:58.999Z</time>
      </trkpt>
      <trkpt lat="46.28359" lon="2.81132">
        <ele>508.56</ele>
        <time>2018-04-10T07:22:00.999Z</time>
      </trkpt>
      <trkpt lat="46.2836" lon="2.81145">
        <ele>508.93</ele>
        <time>2018-04-10T07:22:02.999Z</time>
      </trkpt>
      <trkpt lat="46.28361" lon="2.81159">
        <ele>509.36</ele>
        <time>2018-04-10T07:22:04.999Z</time>
      </trkpt>
      <trkpt lat="46.28361" lon="2.81173">
        <ele>509.67</ele>
        <time>2018-04-10T07:22:06.999Z</time>
      </trkpt>
      <trkpt lat="46.28362" lon="2.81186">
        <ele>510.18</ele>
        <time>2018-04-10T07:22:08.999Z</time>
      </trkpt>
      <trkpt lat="46.28363" lon="2.812">
        <ele>510.58</ele>
        <time>2018-04-10T07:22:10.999Z</time>
      </trkpt>
      <trkpt lat="46.28364" lon="2.81214">
        <ele>510.86</ele>
        <time>2018-04-10T07:22:12.999Z</time>
      </trkpt>
      <trkpt lat="46.28365" lon="2.81228">
        <ele>511.16</ele>
        <time>2018-04-10T07:22:14.999Z</time>
      </trkpt>
      <trkpt lat="46.28366" lon="2.81242">
        <ele>511.86</ele>
        <time>2018-04-10T07:22:16.999Z</time>
      </trkpt>
      <trkpt lat="46.28367" lon="2.81256">
        <ele>512.27</ele>
        <time>2018-04-10T07:22:18.999Z</time>
      </trkpt>
      <trkpt lat="46.28367" lon="2.8127">
        <ele>512.42</ele>
        <time>2018-04-10T07:22:20.999Z</time>
      </trkpt>
      <trkpt lat="46.28368" lon="2.81284">
        <ele>512.54</ele>
        <time>2018-04-10T07:22:22.999Z</time>
      </trkpt>
      <trkpt lat="46.28369" lon="2.81299">
        <ele>512.62</ele>
        <time>2018-04-10T07:22:24.999Z</time>
      </trkpt>
      <trkpt lat="46.2837" lon="2.81313">
        <ele>512.62</ele>
        <time>2018-04-10T07:22:26.999Z</time>
      </trkpt>
      <trkpt lat="46.28371" lon="2.81327">
        <ele>512.82</ele>
        <time>2018-04-10T07:22:28.999Z</time>
      </trkpt>
      <trkpt lat="46.28373" lon="2.81342">
        <ele>513.07</ele>
        <time>2018-04-10T07:22:30.999Z</time>
      </trkpt>
      <trkpt lat="46.28375" lon="2.81357">
        <ele>513.34</ele>
        <time>2018-04-10T07:22:32.999Z</time>
      </trkpt>
      <trkpt lat="46.28376" lon="2.81372">
        <ele>513.53</ele>
        <time>2018-04-10T07:22:34.999Z</time>
      </trkpt>
      <trkpt lat="46.28378" lon="2.81386">
        <ele>513.74</ele>
        <time>2018-04-10T07:22:36.999Z</time>
      </trkpt>
      <trkpt lat="46.2838" lon="2.81402">
        <ele>513.98</ele>
        <time>2018-04-10T07:22:38.999Z</time>
      </trkpt>
      <trkpt lat="46.28383" lon="2.81417">
        <ele>514.31</ele>
        <time>2018-04-10T07:22:40.999Z</time>
      </trkpt>
      <trkpt lat="46.28384" lon="2.81433">
        <ele>514.44</ele>
        <time>2018-04-10T07:22:42.999Z</time>
      </trkpt>
      <trkpt lat="46.28386" lon="2.81448">
        <ele>514.49</ele>
        <time>2018-04-10T07:22:44.999Z</time>
      </trkpt>
      <trkpt lat="46.28387" lon="2.81463">
        <ele>514.49</ele>
        <time>2018-04-10T07:22:46.999Z</time>
      </trkpt>
      <trkpt lat="46.28388" lon="2.81479">
        <ele>514.48</ele>
        <time>2018-04-10T07:22:48.999Z</time>
      </trkpt>
      <trkpt lat="46.2839" lon="2.81495">
        <ele>514.57</ele>
        <time>2018-04-10T07:22:50.999Z</time>
      </trkpt>
      <trkpt lat="46.28392" lon="2.8151">
        <ele>514.81</ele>
        <time>2018-04-10T07:22:52.999Z</time>
      </trkpt>
      <trkpt lat="46.28394" lon="2.81526">
        <ele>515.41</ele>
        <time>2018-04-10T07:22:54.999Z</time>
      </trkpt>
      <trkpt lat="46.28396" lon="2.81539">
        <ele>515.75</ele>
        <time>2018-04-10T07:22:56.999Z</time>
      </trkpt>
      <trkpt lat="46.28398" lon="2.81553">
        <ele>516.04</ele>
        <time>2018-04-10T07:22:58.999Z</time>
      </trkpt>
      <trkpt lat="46.284" lon="2.81567">
        <ele>516.19</ele>
        <time>2018-04-10T07:23:00.999Z</time>
      </trkpt>
      <trkpt lat="46.28401" lon="2.81581">
        <ele>516.5</ele>
        <time>2018-04-10T07:23:02.999Z</time>
      </trkpt>
      <trkpt lat="46.28402" lon="2.81594">
        <ele>516.7</ele>
        <time>2018-04-10T07:23:04.999Z</time>
      </trkpt>
      <trkpt lat="46.28404" lon="2.81607">
        <ele>517.1</ele>
        <time>2018-04-10T07:23:06.999Z</time>
      </trkpt>
      <trkpt lat="46.28405" lon="2.81621">
        <ele>517.32</ele>
        <time>2018-04-10T07:23:08.999Z</time>
      </trkpt>
      <trkpt lat="46.28406" lon="2.81635">
        <ele>517.84</ele>
        <time>2018-04-10T07:23:10.999Z</time>
      </trkpt>
      <trkpt lat="46.28408" lon="2.81649">
        <ele>517.82</ele>
        <time>2018-04-10T07:23:12.999Z</time>
      </trkpt>
      <trkpt lat="46.28409" lon="2.81663">
        <ele>518.31</ele>
        <time>2018-04-10T07:23:14.999Z</time>
      </trkpt>
      <trkpt lat="46.2841" lon="2.81677">
        <ele>518.86</ele>
        <time>2018-04-10T07:23:16.999Z</time>
      </trkpt>
      <trkpt lat="46.28412" lon="2.81691">
        <ele>519.49</ele>
        <time>2018-04-10T07:23:18.999Z</time>
      </trkpt>
      <trkpt lat="46.28413" lon="2.81705">
        <ele>519.95</ele>
        <time>2018-04-10T07:23:20.999Z</time>
      </trkpt>
      <trkpt lat="46.28415" lon="2.8172">
        <ele>520.33</ele>
        <time>2018-04-10T07:23:22.999Z</time>
      </trkpt>
      <trkpt lat="46.28416" lon="2.81735">
        <ele>520.83</ele>
        <time>2018-04-10T07:23:24.999Z</time>
      </trkpt>
      <trkpt lat="46.28418" lon="2.8175">
        <ele>521.39</ele>
        <time>2018-04-10T07:23:26.999Z</time>
      </trkpt>
      <trkpt lat="46.28419" lon="2.81765">
        <ele>522.04</ele>
        <time>2018-04-10T07:23:28.999Z</time>
      </trkpt>
      <trkpt lat="46.2842" lon="2.8178">
        <ele>522.57</ele>
        <time>2018-04-10T07:23:30.999Z</time>
      </trkpt>
      <trkpt lat="46.28421" lon="2.81795">
        <ele>523.41</ele>
        <time>2018-04-10T07:23:32.999Z</time>
      </trkpt>
      <trkpt lat="46.28422" lon="2.8181">
        <ele>524.18</ele>
        <time>2018-04-10T07:23:34.999Z</time>
      </trkpt>
      <trkpt lat="46.28423" lon="2.81824">
        <ele>524.46</ele>
        <time>2018-04-10T07:23:36.999Z</time>
      </trkpt>
      <trkpt lat="46.28425" lon="2.81837">
        <ele>524.4</ele>
        <time>2018-04-10T07:23:38.999Z</time>
      </trkpt>
      <trkpt lat="46.28426" lon="2.81851">
        <ele>524.47</ele>
        <time>2018-04-10T07:23:40.999Z</time>
      </trkpt>
      <trkpt lat="46.28428" lon="2.81865">
        <ele>524.56</ele>
        <time>2018-04-10T07:23:42.999Z</time>
      </trkpt>
      <trkpt lat="46.28429" lon="2.81879">
        <ele>524.44</ele>
        <time>2018-04-10T07:23:44.999Z</time>
      </trkpt>
      <trkpt lat="46.2843" lon="2.81892">
        <ele>524.34</ele>
        <time>2018-04-10T07:23:46.999Z</time>
      </trkpt>
      <trkpt lat="46.28432" lon="2.81906">
        <ele>524.77</ele>
        <time>2018-04-10T07:23:48.999Z</time>
      </trkpt>
      <trkpt lat="46.28432" lon="2.81919">
        <ele>524.84</ele>
        <time>2018-04-10T07:23:50.999Z</time>
      </trkpt>
      <trkpt lat="46.28433" lon="2.81932">
        <ele>524.97</ele>
        <time>2018-04-10T07:23:52.999Z</time>
      </trkpt>
      <trkpt lat="46.28434" lon="2.81945">
        <ele>525.49</ele>
        <time>2018-04-10T07:23:54.999Z</time>
      </trkpt>
      <trkpt lat="46.28434" lon="2.81958">
        <ele>526.01</ele>
        <time>2018-04-10T07:23:56.999Z</time>
      </trkpt>
      <trkpt lat="46.28435" lon="2.81973">
        <ele>526.63</ele>
        <time>2018-04-10T07:23:58.999Z</time>
      </trkpt>
      <trkpt lat="46.28436" lon="2.81987">
        <ele>526.6</ele>
        <time>2018-04-10T07:24:00.999Z</time>
      </trkpt>
      <trkpt lat="46.28438" lon="2.82001">
        <ele>526.33</ele>
        <time>2018-04-10T07:24:02.999Z</time>
      </trkpt>
      <trkpt lat="46.2844" lon="2.82015">
        <ele>526.15</ele>
        <time>2018-04-10T07:24:04.999Z</time>
      </trkpt>
      <trkpt lat="46.28441" lon="2.8203">
        <ele>526.22</ele>
        <time>2018-04-10T07:24:06.999Z</time>
      </trkpt>
      <trkpt lat="46.28442" lon="2.82044">
        <ele>526.21</ele>
        <time>2018-04-10T07:24:08.999Z</time>
      </trkpt>
      <trkpt lat="46.28443" lon="2.82059">
        <ele>526.2</ele>
        <time>2018-04-10T07:24:10.999Z</time>
      </trkpt>
      <trkpt lat="46.28444" lon="2.82074">
        <ele>526.32</ele>
        <time>2018-04-10T07:24:12.999Z</time>
      </trkpt>
      <trkpt lat="46.28445" lon="2.82089">
        <ele>526.27</ele>
        <time>2018-04-10T07:24:14.999Z</time>
      </trkpt>
      <trkpt lat="46.28447" lon="2.82104">
        <ele>526.08</ele>
        <time>2018-04-10T07:24:16.999Z</time>
      </trkpt>
      <trkpt lat="46.28447" lon="2.82118">
        <ele>526.32</ele>
        <time>2018-04-10T07:24:18.999Z</time>
      </trkpt>
      <trkpt lat="46.28449" lon="2.82133">
        <ele>526.56</ele>
        <time>2018-04-10T07:24:20.999Z</time>
      </trkpt>
      <trkpt lat="46.2845" lon="2.82148">
        <ele>526.83</ele>
        <time>2018-04-10T07:24:22.999Z</time>
      </trkpt>
      <trkpt lat="46.2845" lon="2.82162">
        <ele>527.01</ele>
        <time>2018-04-10T07:24:24.999Z</time>
      </trkpt>
      <trkpt lat="46.28451" lon="2.82177">
        <ele>527.18</ele>
        <time>2018-04-10T07:24:26.999Z</time>
      </trkpt>
      <trkpt lat="46.28452" lon="2.82191">
        <ele>527.22</ele>
        <time>2018-04-10T07:24:28.999Z</time>
      </trkpt>
      <trkpt lat="46.28453" lon="2.82206">
        <ele>527.19</ele>
        <time>2018-04-10T07:24:30.999Z</time>
      </trkpt>
      <trkpt lat="46.28455" lon="2.82222">
        <ele>527.25</ele>
        <time>2018-04-10T07:24:32.999Z</time>
      </trkpt>
      <trkpt lat="46.28457" lon="2.82238">
        <ele>527.2</ele>
        <time>2018-04-10T07:24:34.999Z</time>
      </trkpt>
      <trkpt lat="46.28458" lon="2.82255">
        <ele>527.37</ele>
        <time>2018-04-10T07:24:36.999Z</time>
      </trkpt>
      <trkpt lat="46.2846" lon="2.82272">
        <ele>527.75</ele>
        <time>2018-04-10T07:24:38.999Z</time>
      </trkpt>
      <trkpt lat="46.28461" lon="2.82289">
        <ele>528.42</ele>
        <time>2018-04-10T07:24:40.999Z</time>
      </trkpt>
      <trkpt lat="46.28462" lon="2.82306">
        <ele>528.63</ele>
        <time>2018-04-10T07:24:42.999Z</time>
      </trkpt>
      <trkpt lat="46.28463" lon="2.82323">
        <ele>528.94</ele>
        <time>2018-04-10T07:24:44.999Z</time>
      </trkpt>
      <trkpt lat="46.28464" lon="2.82339">
        <ele>529.26</ele>
        <time>2018-04-10T07:24:46.999Z</time>
      </trkpt>
      <trkpt lat="46.28465" lon="2.82356">
        <ele>529.65</ele>
        <time>2018-04-10T07:24:48.999Z</time>
      </trkpt>
      <trkpt lat="46.28466" lon="2.82374">
        <ele>529.96</ele>
        <time>2018-04-10T07:24:50.999Z</time>
      </trkpt>
      <trkpt lat="46.28468" lon="2.82392">
        <ele>530.16</ele>
        <time>2018-04-10T07:24:52.999Z</time>
      </trkpt>
      <trkpt lat="46.28469" lon="2.82411">
        <ele>530.02</ele>
        <time>2018-04-10T07:24:54.999Z</time>
      </trkpt>
      <trkpt lat="46.28471" lon="2.82429">
        <ele>530</ele>
        <time>2018-04-10T07:24:56.999Z</time>
      </trkpt>
      <trkpt lat="46.28473" lon="2.82447">
        <ele>530.08</ele>
        <time>2018-04-10T07:24:58.999Z</time>
      </trkpt>
      <trkpt lat="46.28474" lon="2.82465">
        <ele>530.2</ele>
        <time>2018-04-10T07:25:00.999Z</time>
      </trkpt>
      <trkpt lat="46.28476" lon="2.82483">
        <ele>530.47</ele>
        <time>2018-04-10T07:25:02.999Z</time>
      </trkpt>
      <trkpt lat="46.28477" lon="2.825">
        <ele>530.86</ele>
        <time>2018-04-10T07:25:04.999Z</time>
      </trkpt>
      <trkpt lat="46.28478" lon="2.82517">
        <ele>531.21</ele>
        <time>2018-04-10T07:25:06.999Z</time>
      </trkpt>
      <trkpt lat="46.28479" lon="2.82534">
        <ele>531.36</ele>
        <time>2018-04-10T07:25:08.999Z</time>
      </trkpt>
      <trkpt lat="46.2848" lon="2.8255">
        <ele>531.51</ele>
        <time>2018-04-10T07:25:10.999Z</time>
      </trkpt>
      <trkpt lat="46.28481" lon="2.82566">
        <ele>531.74</ele>
        <time>2018-04-10T07:25:12.999Z</time>
      </trkpt>
      <trkpt lat="46.28482" lon="2.82583">
        <ele>531.9</ele>
        <time>2018-04-10T07:25:14.999Z</time>
      </trkpt>
      <trkpt lat="46.28484" lon="2.826">
        <ele>532.02</ele>
        <time>2018-04-10T07:25:16.999Z</time>
      </trkpt>
      <trkpt lat="46.28485" lon="2.82617">
        <ele>532.04</ele>
        <time>2018-04-10T07:25:18.999Z</time>
      </trkpt>
      <trkpt lat="46.28486" lon="2.82633">
        <ele>532.32</ele>
        <time>2018-04-10T07:25:20.999Z</time>
      </trkpt>
      <trkpt lat="46.28485" lon="2.82649">
        <ele>532.1</ele>
        <time>2018-04-10T07:25:22.999Z</time>
      </trkpt>
      <trkpt lat="46.28485" lon="2.82665">
        <ele>532.46</ele>
        <time>2018-04-10T07:25:24.999Z</time>
      </trkpt>
      <trkpt lat="46.28484" lon="2.82681">
        <ele>532.75</ele>
        <time>2018-04-10T07:25:26.999Z</time>
      </trkpt>
      <trkpt lat="46.28482" lon="2.82696">
        <ele>532.88</ele>
        <time>2018-04-10T07:25:28.999Z</time>
      </trkpt>
      <trkpt lat="46.28481" lon="2.82712">
        <ele>533.08</ele>
        <time>2018-04-10T07:25:30.999Z</time>
      </trkpt>
      <trkpt lat="46.2848" lon="2.82727">
        <ele>533.39</ele>
        <time>2018-04-10T07:25:32.999Z</time>
      </trkpt>
      <trkpt lat="46.28478" lon="2.82742">
        <ele>533.58</ele>
        <time>2018-04-10T07:25:34.999Z</time>
      </trkpt>
      <trkpt lat="46.28476" lon="2.82758">
        <ele>533.63</ele>
        <time>2018-04-10T07:25:36.999Z</time>
      </trkpt>
      <trkpt lat="46.28474" lon="2.82774">
        <ele>533.67</ele>
        <time>2018-04-10T07:25:38.999Z</time>
      </trkpt>
      <trkpt lat="46.28472" lon="2.82789">
        <ele>533.71</ele>
        <time>2018-04-10T07:25:40.999Z</time>
      </trkpt>
      <trkpt lat="46.2847" lon="2.82804">
        <ele>533.91</ele>
        <time>2018-04-10T07:25:42.999Z</time>
      </trkpt>
      <trkpt lat="46.28468" lon="2.82819">
        <ele>534.54</ele>
        <time>2018-04-10T07:25:44.999Z</time>
      </trkpt>
      <trkpt lat="46.28467" lon="2.82834">
        <ele>534.88</ele>
        <time>2018-04-10T07:25:46.999Z</time>
      </trkpt>
      <trkpt lat="46.28466" lon="2.8285">
        <ele>535.2</ele>
        <time>2018-04-10T07:25:48.999Z</time>
      </trkpt>
      <trkpt lat="46.28464" lon="2.82866">
        <ele>535.41</ele>
        <time>2018-04-10T07:25:50.999Z</time>
      </trkpt>
      <trkpt lat="46.28463" lon="2.82882">
        <ele>535.68</ele>
        <time>2018-04-10T07:25:52.999Z</time>
      </trkpt>
      <trkpt lat="46.28461" lon="2.82899">
        <ele>535.67</ele>
        <time>2018-04-10T07:25:54.999Z</time>
      </trkpt>
      <trkpt lat="46.2846" lon="2.82915">
        <ele>535.82</ele>
        <time>2018-04-10T07:25:56.999Z</time>
      </trkpt>
      <trkpt lat="46.28458" lon="2.82932">
        <ele>535.91</ele>
        <time>2018-04-10T07:25:58.999Z</time>
      </trkpt>
      <trkpt lat="46.28457" lon="2.82949">
        <ele>536.01</ele>
        <time>2018-04-10T07:26:00.999Z</time>
      </trkpt>
      <trkpt lat="46.28456" lon="2.82966">
        <ele>536.44</ele>
        <time>2018-04-10T07:26:02.999Z</time>
      </trkpt>
      <trkpt lat="46.28455" lon="2.82982">
        <ele>536.88</ele>
        <time>2018-04-10T07:26:04.999Z</time>
      </trkpt>
      <trkpt lat="46.28453" lon="2.82999">
        <ele>537.16</ele>
        <time>2018-04-10T07:26:06.999Z</time>
      </trkpt>
      <trkpt lat="46.28452" lon="2.83016">
        <ele>537.5</ele>
        <time>2018-04-10T07:26:08.999Z</time>
      </trkpt>
      <trkpt lat="46.28451" lon="2.83032">
        <ele>537.39</ele>
        <time>2018-04-10T07:26:10.999Z</time>
      </trkpt>
      <trkpt lat="46.28452" lon="2.83049">
        <ele>537.49</ele>
        <time>2018-04-10T07:26:12.999Z</time>
      </trkpt>
      <trkpt lat="46.28452" lon="2.83066">
        <ele>537.93</ele>
        <time>2018-04-10T07:26:14.999Z</time>
      </trkpt>
      <trkpt lat="46.28447" lon="2.83082">
        <ele>537.96</ele>
        <time>2018-04-10T07:26:16.999Z</time>
      </trkpt>
      <trkpt lat="46.28441" lon="2.83099">
        <ele>537.95</ele>
        <time>2018-04-10T07:26:18.999Z</time>
      </trkpt>
      <trkpt lat="46.28434" lon="2.83117">
        <ele>537.99</ele>
        <time>2018-04-10T07:26:20.999Z</time>
      </trkpt>
      <trkpt lat="46.2843" lon="2.83135">
        <ele>537.67</ele>
        <time>2018-04-10T07:26:22.999Z</time>
      </trkpt>
      <trkpt lat="46.28426" lon="2.83153">
        <ele>537</ele>
        <time>2018-04-10T07:26:24.999Z</time>
      </trkpt>
      <trkpt lat="46.28423" lon="2.8317">
        <ele>536.37</ele>
        <time>2018-04-10T07:26:26.999Z</time>
      </trkpt>
      <trkpt lat="46.28419" lon="2.83187">
        <ele>535.88</ele>
        <time>2018-04-10T07:26:28.999Z</time>
      </trkpt>
      <trkpt lat="46.28416" lon="2.83205">
        <ele>535.63</ele>
        <time>2018-04-10T07:26:30.999Z</time>
      </trkpt>
      <trkpt lat="46.28413" lon="2.83222">
        <ele>535.41</ele>
        <time>2018-04-10T07:26:32.999Z</time>
      </trkpt>
      <trkpt lat="46.28409" lon="2.83239">
        <ele>535.16</ele>
        <time>2018-04-10T07:26:34.999Z</time>
      </trkpt>
      <trkpt lat="46.28407" lon="2.83257">
        <ele>534.6</ele>
        <time>2018-04-10T07:26:36.999Z</time>
      </trkpt>
      <trkpt lat="46.28404" lon="2.83273">
        <ele>534.18</ele>
        <time>2018-04-10T07:26:38.999Z</time>
      </trkpt>
      <trkpt lat="46.28402" lon="2.8329">
        <ele>533.8</ele>
        <time>2018-04-10T07:26:40.999Z</time>
      </trkpt>
      <trkpt lat="46.28401" lon="2.83307">
        <ele>533.64</ele>
        <time>2018-04-10T07:26:42.999Z</time>
      </trkpt>
      <trkpt lat="46.284" lon="2.83324">
        <ele>533.76</ele>
        <time>2018-04-10T07:26:44.999Z</time>
      </trkpt>
      <trkpt lat="46.28399" lon="2.83341">
        <ele>534.04</ele>
        <time>2018-04-10T07:26:46.999Z</time>
      </trkpt>
      <trkpt lat="46.28397" lon="2.83359">
        <ele>534.14</ele>
        <time>2018-04-10T07:26:48.999Z</time>
      </trkpt>
      <trkpt lat="46.28395" lon="2.83375">
        <ele>534.49</ele>
        <time>2018-04-10T07:26:50.999Z</time>
      </trkpt>
      <trkpt lat="46.28392" lon="2.83391">
        <ele>534.77</ele>
        <time>2018-04-10T07:26:52.999Z</time>
      </trkpt>
      <trkpt lat="46.28389" lon="2.83407">
        <ele>535.03</ele>
        <time>2018-04-10T07:26:54.999Z</time>
      </trkpt>
      <trkpt lat="46.28386" lon="2.83424">
        <ele>535.11</ele>
        <time>2018-04-10T07:26:56.999Z</time>
      </trkpt>
      <trkpt lat="46.28382" lon="2.83441">
        <ele>535.07</ele>
        <time>2018-04-10T07:26:58.999Z</time>
      </trkpt>
      <trkpt lat="46.28378" lon="2.83459">
        <ele>535.19</ele>
        <time>2018-04-10T07:27:00.999Z</time>
      </trkpt>
      <trkpt lat="46.28373" lon="2.83478">
        <ele>535.22</ele>
        <time>2018-04-10T07:27:02.999Z</time>
      </trkpt>
      <trkpt lat="46.28369" lon="2.83498">
        <ele>535.21</ele>
        <time>2018-04-10T07:27:04.999Z</time>
      </trkpt>
      <trkpt lat="46.28364" lon="2.83518">
        <ele>534.87</ele>
        <time>2018-04-10T07:27:06.999Z</time>
      </trkpt>
      <trkpt lat="46.28359" lon="2.83538">
        <ele>534.79</ele>
        <time>2018-04-10T07:27:08.999Z</time>
      </trkpt>
      <trkpt lat="46.28354" lon="2.83559">
        <ele>534.73</ele>
        <time>2018-04-10T07:27:10.999Z</time>
      </trkpt>
      <trkpt lat="46.28349" lon="2.8358">
        <ele>534.32</ele>
        <time>2018-04-10T07:27:12.999Z</time>
      </trkpt>
      <trkpt lat="46.28344" lon="2.83601">
        <ele>534.15</ele>
        <time>2018-04-10T07:27:14.999Z</time>
      </trkpt>
      <trkpt lat="46.28339" lon="2.83622">
        <ele>533.94</ele>
        <time>2018-04-10T07:27:16.999Z</time>
      </trkpt>
      <trkpt lat="46.28334" lon="2.83642">
        <ele>533.66</ele>
        <time>2018-04-10T07:27:18.999Z</time>
      </trkpt>
      <trkpt lat="46.2833" lon="2.83662">
        <ele>533.42</ele>
        <time>2018-04-10T07:27:20.999Z</time>
      </trkpt>
      <trkpt lat="46.28325" lon="2.83683">
        <ele>533.26</ele>
        <time>2018-04-10T07:27:22.999Z</time>
      </trkpt>
      <trkpt lat="46.2832" lon="2.83703">
        <ele>533.43</ele>
        <time>2018-04-10T07:27:24.999Z</time>
      </trkpt>
      <trkpt lat="46.28316" lon="2.83723">
        <ele>533.69</ele>
        <time>2018-04-10T07:27:26.999Z</time>
      </trkpt>
      <trkpt lat="46.28312" lon="2.83742">
        <ele>533.48</ele>
        <time>2018-04-10T07:27:28.999Z</time>
      </trkpt>
      <trkpt lat="46.28307" lon="2.83762">
        <ele>533.36</ele>
        <time>2018-04-10T07:27:30.999Z</time>
      </trkpt>
      <trkpt lat="46.28302" lon="2.83781">
        <ele>533.37</ele>
        <time>2018-04-10T07:27:32.999Z</time>
      </trkpt>
      <trkpt lat="46.28297" lon="2.838">
        <ele>533.28</ele>
        <time>2018-04-10T07:27:34.999Z</time>
      </trkpt>
      <trkpt lat="46.28293" lon="2.83819">
        <ele>533.29</ele>
        <time>2018-04-10T07:27:36.999Z</time>
      </trkpt>
      <trkpt lat="46.28288" lon="2.83837">
        <ele>533.54</ele>
        <time>2018-04-10T07:27:38.999Z</time>
      </trkpt>
      <trkpt lat="46.28283" lon="2.83856">
        <ele>533.62</ele>
        <time>2018-04-10T07:27:40.999Z</time>
      </trkpt>
      <trkpt lat="46.28279" lon="2.83875">
        <ele>533.67</ele>
        <time>2018-04-10T07:27:42.999Z</time>
      </trkpt>
      <trkpt lat="46.28275" lon="2.83894">
        <ele>533.73</ele>
        <time>2018-04-10T07:27:44.999Z</time>
      </trkpt>
      <trkpt lat="46.28271" lon="2.83913">
        <ele>533.83</ele>
        <time>2018-04-10T07:27:46.999Z</time>
      </trkpt>
      <trkpt lat="46.28267" lon="2.83931">
        <ele>533.99</ele>
        <time>2018-04-10T07:27:48.999Z</time>
      </trkpt>
      <trkpt lat="46.28262" lon="2.8395">
        <ele>534.29</ele>
        <time>2018-04-10T07:27:50.999Z</time>
      </trkpt>
      <trkpt lat="46.28259" lon="2.83968">
        <ele>534.83</ele>
        <time>2018-04-10T07:27:52.999Z</time>
      </trkpt>
      <trkpt lat="46.28254" lon="2.83986">
        <ele>535.08</ele>
        <time>2018-04-10T07:27:54.999Z</time>
      </trkpt>
      <trkpt lat="46.28251" lon="2.84005">
        <ele>535.26</ele>
        <time>2018-04-10T07:27:56.999Z</time>
      </trkpt>
      <trkpt lat="46.28248" lon="2.84024">
        <ele>535.45</ele>
        <time>2018-04-10T07:27:58.999Z</time>
      </trkpt>
      <trkpt lat="46.28246" lon="2.84042">
        <ele>535.53</ele>
        <time>2018-04-10T07:28:00.999Z</time>
      </trkpt>
      <trkpt lat="46.28245" lon="2.84061">
        <ele>535.74</ele>
        <time>2018-04-10T07:28:02.999Z</time>
      </trkpt>
      <trkpt lat="46.28244" lon="2.8408">
        <ele>535.96</ele>
        <time>2018-04-10T07:28:04.999Z</time>
      </trkpt>
      <trkpt lat="46.28242" lon="2.84098">
        <ele>536.11</ele>
        <time>2018-04-10T07:28:06.999Z</time>
      </trkpt>
      <trkpt lat="46.28241" lon="2.84117">
        <ele>536.11</ele>
        <time>2018-04-10T07:28:08.999Z</time>
      </trkpt>
      <trkpt lat="46.28239" lon="2.84135">
        <ele>535.96</ele>
        <time>2018-04-10T07:28:10.999Z</time>
      </trkpt>
      <trkpt lat="46.28238" lon="2.84154">
        <ele>535.92</ele>
        <time>2018-04-10T07:28:12.999Z</time>
      </trkpt>
      <trkpt lat="46.28237" lon="2.84174">
        <ele>535.97</ele>
        <time>2018-04-10T07:28:14.999Z</time>
      </trkpt>
      <trkpt lat="46.28236" lon="2.84195">
        <ele>535.32</ele>
        <time>2018-04-10T07:28:16.999Z</time>
      </trkpt>
      <trkpt lat="46.28235" lon="2.84215">
        <ele>535</ele>
        <time>2018-04-10T07:28:18.999Z</time>
      </trkpt>
      <trkpt lat="46.28235" lon="2.84234">
        <ele>534.64</ele>
        <time>2018-04-10T07:28:20.999Z</time>
      </trkpt>
      <trkpt lat="46.28234" lon="2.84254">
        <ele>534.71</ele>
        <time>2018-04-10T07:28:22.999Z</time>
      </trkpt>
      <trkpt lat="46.28233" lon="2.84273">
        <ele>534.82</ele>
        <time>2018-04-10T07:28:24.999Z</time>
      </trkpt>
      <trkpt lat="46.28232" lon="2.84292">
        <ele>534.97</ele>
        <time>2018-04-10T07:28:26.999Z</time>
      </trkpt>
      <trkpt lat="46.28231" lon="2.8431">
        <ele>535.04</ele>
        <time>2018-04-10T07:28:28.999Z</time>
      </trkpt>
      <trkpt lat="46.28231" lon="2.84329">
        <ele>534.83</ele>
        <time>2018-04-10T07:28:30.999Z</time>
      </trkpt>
      <trkpt lat="46.2823" lon="2.84347">
        <ele>534.92</ele>
        <time>2018-04-10T07:28:32.999Z</time>
      </trkpt>
      <trkpt lat="46.28229" lon="2.84367">
        <ele>535.23</ele>
        <time>2018-04-10T07:28:34.999Z</time>
      </trkpt>
      <trkpt lat="46.28228" lon="2.84385">
        <ele>535.29</ele>
        <time>2018-04-10T07:28:36.999Z</time>
      </trkpt>
      <trkpt lat="46.28227" lon="2.84404">
        <ele>535.65</ele>
        <time>2018-04-10T07:28:38.999Z</time>
      </trkpt>
      <trkpt lat="46.28225" lon="2.84422">
        <ele>535.77</ele>
        <time>2018-04-10T07:28:40.999Z</time>
      </trkpt>
      <trkpt lat="46.28224" lon="2.8444">
        <ele>535.74</ele>
        <time>2018-04-10T07:28:42.999Z</time>
      </trkpt>
      <trkpt lat="46.28222" lon="2.84458">
        <ele>535.69</ele>
        <time>2018-04-10T07:28:44.999Z</time>
      </trkpt>
      <trkpt lat="46.28221" lon="2.84476">
        <ele>535.82</ele>
        <time>2018-04-10T07:28:46.999Z</time>
      </trkpt>
      <trkpt lat="46.2822" lon="2.84493">
        <ele>536.13</ele>
        <time>2018-04-10T07:28:48.999Z</time>
      </trkpt>
      <trkpt lat="46.28219" lon="2.8451">
        <ele>536.4</ele>
        <time>2018-04-10T07:28:50.999Z</time>
      </trkpt>
      <trkpt lat="46.28218" lon="2.84528">
        <ele>536.63</ele>
        <time>2018-04-10T07:28:52.999Z</time>
      </trkpt>
      <trkpt lat="46.28217" lon="2.84544">
        <ele>537.01</ele>
        <time>2018-04-10T07:28:54.999Z</time>
      </trkpt>
      <trkpt lat="46.28215" lon="2.84561">
        <ele>537.08</ele>
        <time>2018-04-10T07:28:56.999Z</time>
      </trkpt>
      <trkpt lat="46.28214" lon="2.84579">
        <ele>537.35</ele>
        <time>2018-04-10T07:28:58.999Z</time>
      </trkpt>
      <trkpt lat="46.28213" lon="2.84595">
        <ele>537.44</ele>
        <time>2018-04-10T07:29:00.999Z</time>
      </trkpt>
      <trkpt lat="46.28211" lon="2.84613">
        <ele>537.57</ele>
        <time>2018-04-10T07:29:02.999Z</time>
      </trkpt>
      <trkpt lat="46.2821" lon="2.8463">
        <ele>537.73</ele>
        <time>2018-04-10T07:29:04.999Z</time>
      </trkpt>
      <trkpt lat="46.28209" lon="2.84648">
        <ele>537.88</ele>
        <time>2018-04-10T07:29:06.999Z</time>
      </trkpt>
      <trkpt lat="46.28208" lon="2.84665">
        <ele>538.17</ele>
        <time>2018-04-10T07:29:08.999Z</time>
      </trkpt>
      <trkpt lat="46.28207" lon="2.84682">
        <ele>538.56</ele>
        <time>2018-04-10T07:29:10.999Z</time>
      </trkpt>
      <trkpt lat="46.28206" lon="2.84699">
        <ele>539.02</ele>
        <time>2018-04-10T07:29:12.999Z</time>
      </trkpt>
      <trkpt lat="46.28204" lon="2.84716">
        <ele>539.47</ele>
        <time>2018-04-10T07:29:14.999Z</time>
      </trkpt>
      <trkpt lat="46.28203" lon="2.84732">
        <ele>539.78</ele>
        <time>2018-04-10T07:29:16.999Z</time>
      </trkpt>
      <trkpt lat="46.28202" lon="2.84748">
        <ele>540.21</ele>
        <time>2018-04-10T07:29:18.999Z</time>
      </trkpt>
      <trkpt lat="46.28201" lon="2.84763">
        <ele>540.69</ele>
        <time>2018-04-10T07:29:20.999Z</time>
      </trkpt>
      <trkpt lat="46.282" lon="2.84779">
        <ele>540.87</ele>
        <time>2018-04-10T07:29:22.999Z</time>
      </trkpt>
      <trkpt lat="46.28199" lon="2.84795">
        <ele>540.87</ele>
        <time>2018-04-10T07:29:24.999Z</time>
      </trkpt>
      <trkpt lat="46.28198" lon="2.84811">
        <ele>540.78</ele>
        <time>2018-04-10T07:29:26.999Z</time>
      </trkpt>
      <trkpt lat="46.28196" lon="2.84827">
        <ele>540.77</ele>
        <time>2018-04-10T07:29:28.999Z</time>
      </trkpt>
      <trkpt lat="46.28195" lon="2.84842">
        <ele>541</ele>
        <time>2018-04-10T07:29:30.999Z</time>
      </trkpt>
      <trkpt lat="46.28194" lon="2.84858">
        <ele>541.23</ele>
        <time>2018-04-10T07:29:32.999Z</time>
      </trkpt>
      <trkpt lat="46.28192" lon="2.84874">
        <ele>541.76</ele>
        <time>2018-04-10T07:29:34.999Z</time>
      </trkpt>
      <trkpt lat="46.28191" lon="2.8489">
        <ele>542.27</ele>
        <time>2018-04-10T07:29:36.999Z</time>
      </trkpt>
      <trkpt lat="46.2819" lon="2.84906">
        <ele>542.62</ele>
        <time>2018-04-10T07:29:38.999Z</time>
      </trkpt>
      <trkpt lat="46.28188" lon="2.84923">
        <ele>542.78</ele>
        <time>2018-04-10T07:29:40.999Z</time>
      </trkpt>
      <trkpt lat="46.28186" lon="2.84939">
        <ele>542.99</ele>
        <time>2018-04-10T07:29:42.999Z</time>
      </trkpt>
      <trkpt lat="46.28185" lon="2.84954">
        <ele>543.13</ele>
        <time>2018-04-10T07:29:44.999Z</time>
      </trkpt>
      <trkpt lat="46.28182" lon="2.8497">
        <ele>543.24</ele>
        <time>2018-04-10T07:29:46.998Z</time>
      </trkpt>
      <trkpt lat="46.2818" lon="2.84986">
        <ele>543.34</ele>
        <time>2018-04-10T07:29:48.999Z</time>
      </trkpt>
      <trkpt lat="46.28177" lon="2.85003">
        <ele>543.45</ele>
        <time>2018-04-10T07:29:50.999Z</time>
      </trkpt>
      <trkpt lat="46.28174" lon="2.8502">
        <ele>543.63</ele>
        <time>2018-04-10T07:29:52.999Z</time>
      </trkpt>
      <trkpt lat="46.28172" lon="2.85037">
        <ele>543.5</ele>
        <time>2018-04-10T07:29:54.999Z</time>
      </trkpt>
      <trkpt lat="46.28168" lon="2.85054">
        <ele>543.5</ele>
        <time>2018-04-10T07:29:56.999Z</time>
      </trkpt>
      <trkpt lat="46.28165" lon="2.85071">
        <ele>543.47</ele>
        <time>2018-04-10T07:29:58.999Z</time>
      </trkpt>
      <trkpt lat="46.28161" lon="2.85088">
        <ele>543.19</ele>
        <time>2018-04-10T07:30:00.999Z</time>
      </trkpt>
      <trkpt lat="46.28157" lon="2.85104">
        <ele>543.04</ele>
        <time>2018-04-10T07:30:02.999Z</time>
      </trkpt>
      <trkpt lat="46.28152" lon="2.8512">
        <ele>543.1</ele>
        <time>2018-04-10T07:30:04.999Z</time>
      </trkpt>
      <trkpt lat="46.28147" lon="2.85136">
        <ele>543.19</ele>
        <time>2018-04-10T07:30:06.999Z</time>
      </trkpt>
      <trkpt lat="46.28142" lon="2.85153">
        <ele>543.09</ele>
        <time>2018-04-10T07:30:08.999Z</time>
      </trkpt>
      <trkpt lat="46.28137" lon="2.8517">
        <ele>542.86</ele>
        <time>2018-04-10T07:30:10.999Z</time>
      </trkpt>
      <trkpt lat="46.28132" lon="2.85187">
        <ele>542.67</ele>
        <time>2018-04-10T07:30:12.999Z</time>
      </trkpt>
      <trkpt lat="46.28127" lon="2.85204">
        <ele>542.82</ele>
        <time>2018-04-10T07:30:14.999Z</time>
      </trkpt>
      <trkpt lat="46.28123" lon="2.8522">
        <ele>542.86</ele>
        <time>2018-04-10T07:30:16.999Z</time>
      </trkpt>
      <trkpt lat="46.28119" lon="2.85237">
        <ele>542.36</ele>
        <time>2018-04-10T07:30:18.999Z</time>
      </trkpt>
      <trkpt lat="46.28114" lon="2.85254">
        <ele>542.3</ele>
        <time>2018-04-10T07:30:20.999Z</time>
      </trkpt>
      <trkpt lat="46.2811" lon="2.85271">
        <ele>542.41</ele>
        <time>2018-04-10T07:30:22.999Z</time>
      </trkpt>
      <trkpt lat="46.28106" lon="2.85288">
        <ele>542.29</ele>
        <time>2018-04-10T07:30:24.999Z</time>
      </trkpt>
      <trkpt lat="46.28101" lon="2.85305">
        <ele>542.22</ele>
        <time>2018-04-10T07:30:26.999Z</time>
      </trkpt>
      <trkpt lat="46.28098" lon="2.85322">
        <ele>542.21</ele>
        <time>2018-04-10T07:30:28.999Z</time>
      </trkpt>
      <trkpt lat="46.28093" lon="2.85339">
        <ele>542.51</ele>
        <time>2018-04-10T07:30:30.999Z</time>
      </trkpt>
      <trkpt lat="46.2809" lon="2.85357">
        <ele>542.57</ele>
        <time>2018-04-10T07:30:32.999Z</time>
      </trkpt>
      <trkpt lat="46.28086" lon="2.85373">
        <ele>542.29</ele>
        <time>2018-04-10T07:30:34.999Z</time>
      </trkpt>
      <trkpt lat="46.28083" lon="2.8539">
        <ele>542.31</ele>
        <time>2018-04-10T07:30:36.999Z</time>
      </trkpt>
      <trkpt lat="46.2808" lon="2.85407">
        <ele>542.34</ele>
        <time>2018-04-10T07:30:38.999Z</time>
      </trkpt>
      <trkpt lat="46.28077" lon="2.85424">
        <ele>542.46</ele>
        <time>2018-04-10T07:30:40.999Z</time>
      </trkpt>
      <trkpt lat="46.28075" lon="2.85441">
        <ele>542.83</ele>
        <time>2018-04-10T07:30:42.999Z</time>
      </trkpt>
      <trkpt lat="46.28071" lon="2.85459">
        <ele>542.87</ele>
        <time>2018-04-10T07:30:44.999Z</time>
      </trkpt>
      <trkpt lat="46.28069" lon="2.85478">
        <ele>543.22</ele>
        <time>2018-04-10T07:30:46.999Z</time>
      </trkpt>
      <trkpt lat="46.28067" lon="2.85497">
        <ele>542.91</ele>
        <time>2018-04-10T07:30:48.999Z</time>
      </trkpt>
      <trkpt lat="46.28065" lon="2.85516">
        <ele>542.5</ele>
        <time>2018-04-10T07:30:50.999Z</time>
      </trkpt>
      <trkpt lat="46.28064" lon="2.85536">
        <ele>542</ele>
        <time>2018-04-10T07:30:52.999Z</time>
      </trkpt>
      <trkpt lat="46.28063" lon="2.85556">
        <ele>541.54</ele>
        <time>2018-04-10T07:30:54.999Z</time>
      </trkpt>
      <trkpt lat="46.28063" lon="2.85578">
        <ele>541.1</ele>
        <time>2018-04-10T07:30:56.999Z</time>
      </trkpt>
      <trkpt lat="46.28063" lon="2.85599">
        <ele>540.56</ele>
        <time>2018-04-10T07:30:58.999Z</time>
      </trkpt>
      <trkpt lat="46.28064" lon="2.85621">
        <ele>540.36</ele>
        <time>2018-04-10T07:31:00.999Z</time>
      </trkpt>
      <trkpt lat="46.28064" lon="2.85644">
        <ele>540.26</ele>
        <time>2018-04-10T07:31:02.999Z</time>
      </trkpt>
      <trkpt lat="46.28066" lon="2.85667">
        <ele>539.67</ele>
        <time>2018-04-10T07:31:04.999Z</time>
      </trkpt>
      <trkpt lat="46.28068" lon="2.85691">
        <ele>539.18</ele>
        <time>2018-04-10T07:31:06.999Z</time>
      </trkpt>
      <trkpt lat="46.2807" lon="2.85714">
        <ele>538.54</ele>
        <time>2018-04-10T07:31:08.999Z</time>
      </trkpt>
      <trkpt lat="46.28072" lon="2.85736">
        <ele>538.41</ele>
        <time>2018-04-10T07:31:10.999Z</time>
      </trkpt>
      <trkpt lat="46.28074" lon="2.85759">
        <ele>538.05</ele>
        <time>2018-04-10T07:31:12.999Z</time>
      </trkpt>
      <trkpt lat="46.28075" lon="2.85782">
        <ele>537.85</ele>
        <time>2018-04-10T07:31:14.999Z</time>
      </trkpt>
      <trkpt lat="46.28076" lon="2.85805">
        <ele>537.78</ele>
        <time>2018-04-10T07:31:16.999Z</time>
      </trkpt>
      <trkpt lat="46.28077" lon="2.85827">
        <ele>537.92</ele>
        <time>2018-04-10T07:31:18.999Z</time>
      </trkpt>
      <trkpt lat="46.28078" lon="2.85851">
        <ele>537.94</ele>
        <time>2018-04-10T07:31:20.999Z</time>
      </trkpt>
      <trkpt lat="46.28078" lon="2.85874">
        <ele>537.95</ele>
        <time>2018-04-10T07:31:22.999Z</time>
      </trkpt>
      <trkpt lat="46.28077" lon="2.85895">
        <ele>537.88</ele>
        <time>2018-04-10T07:31:24.999Z</time>
      </trkpt>
      <trkpt lat="46.28076" lon="2.85916">
        <ele>537.86</ele>
        <time>2018-04-10T07:31:26.999Z</time>
      </trkpt>
      <trkpt lat="46.28075" lon="2.85937">
        <ele>537.69</ele>
        <time>2018-04-10T07:31:28.999Z</time>
      </trkpt>
      <trkpt lat="46.28074" lon="2.85958">
        <ele>537.55</ele>
        <time>2018-04-10T07:31:30.999Z</time>
      </trkpt>
      <trkpt lat="46.28072" lon="2.85979">
        <ele>537.46</ele>
        <time>2018-04-10T07:31:32.999Z</time>
      </trkpt>
      <trkpt lat="46.2807" lon="2.85999">
        <ele>537.41</ele>
        <time>2018-04-10T07:31:34.999Z</time>
      </trkpt>
      <trkpt lat="46.28068" lon="2.8602">
        <ele>537.15</ele>
        <time>2018-04-10T07:31:36.999Z</time>
      </trkpt>
      <trkpt lat="46.28066" lon="2.8604">
        <ele>537.31</ele>
        <time>2018-04-10T07:31:38.999Z</time>
      </trkpt>
      <trkpt lat="46.28062" lon="2.86058">
        <ele>537.53</ele>
        <time>2018-04-10T07:31:40.999Z</time>
      </trkpt>
      <trkpt lat="46.28059" lon="2.86077">
        <ele>537.72</ele>
        <time>2018-04-10T07:31:42.999Z</time>
      </trkpt>
      <trkpt lat="46.28056" lon="2.86096">
        <ele>538.02</ele>
        <time>2018-04-10T07:31:44.999Z</time>
      </trkpt>
      <trkpt lat="46.28052" lon="2.86114">
        <ele>538.16</ele>
        <time>2018-04-10T07:31:46.999Z</time>
      </trkpt>
      <trkpt lat="46.28049" lon="2.86132">
        <ele>538.25</ele>
        <time>2018-04-10T07:31:48.999Z</time>
      </trkpt>
      <trkpt lat="46.28045" lon="2.86151">
        <ele>538.14</ele>
        <time>2018-04-10T07:31:50.999Z</time>
      </trkpt>
      <trkpt lat="46.28042" lon="2.86169">
        <ele>538.32</ele>
        <time>2018-04-10T07:31:52.999Z</time>
      </trkpt>
      <trkpt lat="46.28038" lon="2.86187">
        <ele>538.49</ele>
        <time>2018-04-10T07:31:54.999Z</time>
      </trkpt>
      <trkpt lat="46.28035" lon="2.86205">
        <ele>538.75</ele>
        <time>2018-04-10T07:31:56.999Z</time>
      </trkpt>
      <trkpt lat="46.28032" lon="2.86223">
        <ele>539.21</ele>
        <time>2018-04-10T07:31:58.999Z</time>
      </trkpt>
      <trkpt lat="46.28029" lon="2.8624">
        <ele>539.62</ele>
        <time>2018-04-10T07:32:00.999Z</time>
      </trkpt>
      <trkpt lat="46.28026" lon="2.86258">
        <ele>540.2</ele>
        <time>2018-04-10T07:32:02.999Z</time>
      </trkpt>
      <trkpt lat="46.28022" lon="2.86275">
        <ele>540.8</ele>
        <time>2018-04-10T07:32:04.999Z</time>
      </trkpt>
      <trkpt lat="46.2802" lon="2.86292">
        <ele>541.19</ele>
        <time>2018-04-10T07:32:06.999Z</time>
      </trkpt>
      <trkpt lat="46.28017" lon="2.86308">
        <ele>541.74</ele>
        <time>2018-04-10T07:32:08.999Z</time>
      </trkpt>
      <trkpt lat="46.28015" lon="2.86324">
        <ele>542.2</ele>
        <time>2018-04-10T07:32:10.999Z</time>
      </trkpt>
      <trkpt lat="46.28012" lon="2.8634">
        <ele>542.29</ele>
        <time>2018-04-10T07:32:12.999Z</time>
      </trkpt>
      <trkpt lat="46.28011" lon="2.86355">
        <ele>542.45</ele>
        <time>2018-04-10T07:32:14.999Z</time>
      </trkpt>
      <trkpt lat="46.28009" lon="2.86371">
        <ele>542.78</ele>
        <time>2018-04-10T07:32:16.999Z</time>
      </trkpt>
      <trkpt lat="46.28008" lon="2.86387">
        <ele>543.38</ele>
        <time>2018-04-10T07:32:18.999Z</time>
      </trkpt>
      <trkpt lat="46.28008" lon="2.86401">
        <ele>544.02</ele>
        <time>2018-04-10T07:32:20.999Z</time>
      </trkpt>
      <trkpt lat="46.28006" lon="2.86416">
        <ele>544.76</ele>
        <time>2018-04-10T07:32:22.999Z</time>
      </trkpt>
      <trkpt lat="46.28005" lon="2.86429">
        <ele>545.42</ele>
        <time>2018-04-10T07:32:24.999Z</time>
      </trkpt>
      <trkpt lat="46.28003" lon="2.86441">
        <ele>545.96</ele>
        <time>2018-04-10T07:32:26.999Z</time>
      </trkpt>
      <trkpt lat="46.28002" lon="2.86455">
        <ele>546.1</ele>
        <time>2018-04-10T07:32:28.999Z</time>
      </trkpt>
      <trkpt lat="46.28" lon="2.86469">
        <ele>545.92</ele>
        <time>2018-04-10T07:32:30.999Z</time>
      </trkpt>
      <trkpt lat="46.27999" lon="2.86483">
        <ele>545.84</ele>
        <time>2018-04-10T07:32:32.999Z</time>
      </trkpt>
      <trkpt lat="46.27998" lon="2.86498">
        <ele>545.63</ele>
        <time>2018-04-10T07:32:34.999Z</time>
      </trkpt>
      <trkpt lat="46.27997" lon="2.86513">
        <ele>545.57</ele>
        <time>2018-04-10T07:32:36.999Z</time>
      </trkpt>
      <trkpt lat="46.27996" lon="2.86527">
        <ele>545.94</ele>
        <time>2018-04-10T07:32:38.999Z</time>
      </trkpt>
      <trkpt lat="46.27995" lon="2.86541">
        <ele>546.44</ele>
        <time>2018-04-10T07:32:40.999Z</time>
      </trkpt>
      <trkpt lat="46.27995" lon="2.86556">
        <ele>547.08</ele>
        <time>2018-04-10T07:32:42.999Z</time>
      </trkpt>
      <trkpt lat="46.27994" lon="2.8657">
        <ele>547.19</ele>
        <time>2018-04-10T07:32:44.999Z</time>
      </trkpt>
      <trkpt lat="46.27994" lon="2.86584">
        <ele>547.35</ele>
        <time>2018-04-10T07:32:46.999Z</time>
      </trkpt>
      <trkpt lat="46.27994" lon="2.86598">
        <ele>547.42</ele>
        <time>2018-04-10T07:32:48.999Z</time>
      </trkpt>
      <trkpt lat="46.27994" lon="2.86612">
        <ele>547.46</ele>
        <time>2018-04-10T07:32:50.999Z</time>
      </trkpt>
      <trkpt lat="46.27994" lon="2.86626">
        <ele>547.64</ele>
        <time>2018-04-10T07:32:52.999Z</time>
      </trkpt>
      <trkpt lat="46.27994" lon="2.86641">
        <ele>547.68</ele>
        <time>2018-04-10T07:32:54.999Z</time>
      </trkpt>
      <trkpt lat="46.27994" lon="2.86656">
        <ele>547.47</ele>
        <time>2018-04-10T07:32:56.999Z</time>
      </trkpt>
      <trkpt lat="46.27993" lon="2.8667">
        <ele>547.07</ele>
        <time>2018-04-10T07:32:58.999Z</time>
      </trkpt>
      <trkpt lat="46.27992" lon="2.86684">
        <ele>546.93</ele>
        <time>2018-04-10T07:33:00.999Z</time>
      </trkpt>
      <trkpt lat="46.27992" lon="2.86699">
        <ele>547.06</ele>
        <time>2018-04-10T07:33:02.999Z</time>
      </trkpt>
      <trkpt lat="46.2799" lon="2.86715">
        <ele>546.91</ele>
        <time>2018-04-10T07:33:04.999Z</time>
      </trkpt>
      <trkpt lat="46.2799" lon="2.8673">
        <ele>546.92</ele>
        <time>2018-04-10T07:33:06.999Z</time>
      </trkpt>
      <trkpt lat="46.27989" lon="2.86745">
        <ele>546.95</ele>
        <time>2018-04-10T07:33:08.999Z</time>
      </trkpt>
      <trkpt lat="46.27988" lon="2.8676">
        <ele>546.87</ele>
        <time>2018-04-10T07:33:10.999Z</time>
      </trkpt>
      <trkpt lat="46.27988" lon="2.86775">
        <ele>547.02</ele>
        <time>2018-04-10T07:33:12.999Z</time>
      </trkpt>
      <trkpt lat="46.27987" lon="2.86789">
        <ele>547.12</ele>
        <time>2018-04-10T07:33:14.999Z</time>
      </trkpt>
      <trkpt lat="46.27986" lon="2.86803">
        <ele>547.23</ele>
        <time>2018-04-10T07:33:16.999Z</time>
      </trkpt>
      <trkpt lat="46.27985" lon="2.86818">
        <ele>547.85</ele>
        <time>2018-04-10T07:33:18.999Z</time>
      </trkpt>
      <trkpt lat="46.27984" lon="2.86832">
        <ele>548.14</ele>
        <time>2018-04-10T07:33:20.999Z</time>
      </trkpt>
      <trkpt lat="46.27984" lon="2.86847">
        <ele>548.34</ele>
        <time>2018-04-10T07:33:22.999Z</time>
      </trkpt>
      <trkpt lat="46.27983" lon="2.86861">
        <ele>548.84</ele>
        <time>2018-04-10T07:33:24.999Z</time>
      </trkpt>
      <trkpt lat="46.27982" lon="2.86875">
        <ele>549.31</ele>
        <time>2018-04-10T07:33:26.999Z</time>
      </trkpt>
      <trkpt lat="46.27982" lon="2.86889">
        <ele>549.74</ele>
        <time>2018-04-10T07:33:28.999Z</time>
      </trkpt>
      <trkpt lat="46.27981" lon="2.86903">
        <ele>550.04</ele>
        <time>2018-04-10T07:33:30.999Z</time>
      </trkpt>
      <trkpt lat="46.27979" lon="2.86917">
        <ele>550.43</ele>
        <time>2018-04-10T07:33:32.999Z</time>
      </trkpt>
      <trkpt lat="46.27977" lon="2.86931">
        <ele>550.74</ele>
        <time>2018-04-10T07:33:34.999Z</time>
      </trkpt>
      <trkpt lat="46.27977" lon="2.86946">
        <ele>551</ele>
        <time>2018-04-10T07:33:36.999Z</time>
      </trkpt>
      <trkpt lat="46.27976" lon="2.86961">
        <ele>550.82</ele>
        <time>2018-04-10T07:33:38.999Z</time>
      </trkpt>
      <trkpt lat="46.27975" lon="2.86977">
        <ele>551.15</ele>
        <time>2018-04-10T07:33:40.999Z</time>
      </trkpt>
      <trkpt lat="46.27974" lon="2.86993">
        <ele>551.36</ele>
        <time>2018-04-10T07:33:42.999Z</time>
      </trkpt>
      <trkpt lat="46.27972" lon="2.8701">
        <ele>551.51</ele>
        <time>2018-04-10T07:33:44.999Z</time>
      </trkpt>
      <trkpt lat="46.27971" lon="2.87027">
        <ele>551.65</ele>
        <time>2018-04-10T07:33:46.999Z</time>
      </trkpt>
      <trkpt lat="46.27969" lon="2.87044">
        <ele>551.77</ele>
        <time>2018-04-10T07:33:48.999Z</time>
      </trkpt>
      <trkpt lat="46.27966" lon="2.87062">
        <ele>551.33</ele>
        <time>2018-04-10T07:33:50.999Z</time>
      </trkpt>
      <trkpt lat="46.27962" lon="2.87081">
        <ele>550.98</ele>
        <time>2018-04-10T07:33:52.999Z</time>
      </trkpt>
      <trkpt lat="46.27957" lon="2.871">
        <ele>550.85</ele>
        <time>2018-04-10T07:33:54.999Z</time>
      </trkpt>
      <trkpt lat="46.2795" lon="2.87119">
        <ele>550.68</ele>
        <time>2018-04-10T07:33:56.999Z</time>
      </trkpt>
      <trkpt lat="46.27943" lon="2.87137">
        <ele>550.53</ele>
        <time>2018-04-10T07:33:58.999Z</time>
      </trkpt>
      <trkpt lat="46.27934" lon="2.87154">
        <ele>550.37</ele>
        <time>2018-04-10T07:34:00.999Z</time>
      </trkpt>
      <trkpt lat="46.27925" lon="2.8717">
        <ele>550.15</ele>
        <time>2018-04-10T07:34:02.999Z</time>
      </trkpt>
      <trkpt lat="46.27916" lon="2.87185">
        <ele>550.27</ele>
        <time>2018-04-10T07:34:04.999Z</time>
      </trkpt>
      <trkpt lat="46.27905" lon="2.872">
        <ele>550.27</ele>
        <time>2018-04-10T07:34:06.999Z</time>
      </trkpt>
      <trkpt lat="46.27895" lon="2.87215">
        <ele>550.05</ele>
        <time>2018-04-10T07:34:08.999Z</time>
      </trkpt>
      <trkpt lat="46.27885" lon="2.8723">
        <ele>549.94</ele>
        <time>2018-04-10T07:34:10.999Z</time>
      </trkpt>
      <trkpt lat="46.27874" lon="2.87245">
        <ele>549.55</ele>
        <time>2018-04-10T07:34:12.999Z</time>
      </trkpt>
      <trkpt lat="46.27864" lon="2.8726">
        <ele>548.85</ele>
        <time>2018-04-10T07:34:14.999Z</time>
      </trkpt>
      <trkpt lat="46.27854" lon="2.87275">
        <ele>548.06</ele>
        <time>2018-04-10T07:34:16.999Z</time>
      </trkpt>
      <trkpt lat="46.27844" lon="2.87291">
        <ele>547.29</ele>
        <time>2018-04-10T07:34:18.999Z</time>
      </trkpt>
      <trkpt lat="46.27833" lon="2.87308">
        <ele>546.51</ele>
        <time>2018-04-10T07:34:20.999Z</time>
      </trkpt>
      <trkpt lat="46.27823" lon="2.87324">
        <ele>546</ele>
        <time>2018-04-10T07:34:22.999Z</time>
      </trkpt>
      <trkpt lat="46.27813" lon="2.87341">
        <ele>545.84</ele>
        <time>2018-04-10T07:34:24.999Z</time>
      </trkpt>
      <trkpt lat="46.27802" lon="2.87357">
        <ele>545.77</ele>
        <time>2018-04-10T07:34:26.999Z</time>
      </trkpt>
      <trkpt lat="46.27792" lon="2.87373">
        <ele>545.78</ele>
        <time>2018-04-10T07:34:28.999Z</time>
      </trkpt>
      <trkpt lat="46.27781" lon="2.87389">
        <ele>545.56</ele>
        <time>2018-04-10T07:34:30.999Z</time>
      </trkpt>
      <trkpt lat="46.27771" lon="2.87401">
        <ele>545.61</ele>
        <time>2018-04-10T07:34:32.999Z</time>
      </trkpt>
      <trkpt lat="46.27761" lon="2.87413">
        <ele>546.08</ele>
        <time>2018-04-10T07:34:34.999Z</time>
      </trkpt>
      <trkpt lat="46.27751" lon="2.87424">
        <ele>546.4</ele>
        <time>2018-04-10T07:34:36.999Z</time>
      </trkpt>
      <trkpt lat="46.27742" lon="2.87434">
        <ele>546.46</ele>
        <time>2018-04-10T07:34:38.999Z</time>
      </trkpt>
      <trkpt lat="46.27734" lon="2.87442">
        <ele>546.82</ele>
        <time>2018-04-10T07:34:40.999Z</time>
      </trkpt>
      <trkpt lat="46.27723" lon="2.87453">
        <ele>547.59</ele>
        <time>2018-04-10T07:34:43.999Z</time>
      </trkpt>
      <trkpt lat="46.27714" lon="2.87464">
        <ele>548.78</ele>
        <time>2018-04-10T07:34:46.999Z</time>
      </trkpt>
      <trkpt lat="46.27704" lon="2.87476">
        <ele>550.22</ele>
        <time>2018-04-10T07:34:49.999Z</time>
      </trkpt>
      <trkpt lat="46.27694" lon="2.87488">
        <ele>551.29</ele>
        <time>2018-04-10T07:34:52.999Z</time>
      </trkpt>
      <trkpt lat="46.27686" lon="2.87496">
        <ele>551.47</ele>
        <time>2018-04-10T07:34:54.999Z</time>
      </trkpt>
      <trkpt lat="46.27679" lon="2.87505">
        <ele>551.55</ele>
        <time>2018-04-10T07:34:56.999Z</time>
      </trkpt>
      <trkpt lat="46.27673" lon="2.87515">
        <ele>551.9</ele>
        <time>2018-04-10T07:34:58.999Z</time>
      </trkpt>
      <trkpt lat="46.27666" lon="2.87524">
        <ele>552.37</ele>
        <time>2018-04-10T07:35:00.999Z</time>
      </trkpt>
      <trkpt lat="46.27659" lon="2.87533">
        <ele>552.83</ele>
        <time>2018-04-10T07:35:02.999Z</time>
      </trkpt>
      <trkpt lat="46.27652" lon="2.87542">
        <ele>553.45</ele>
        <time>2018-04-10T07:35:04.999Z</time>
      </trkpt>
      <trkpt lat="46.27646" lon="2.87552">
        <ele>554.02</ele>
        <time>2018-04-10T07:35:06.999Z</time>
      </trkpt>
      <trkpt lat="46.27638" lon="2.87562">
        <ele>554.34</ele>
        <time>2018-04-10T07:35:08.999Z</time>
      </trkpt>
      <trkpt lat="46.27631" lon="2.87572">
        <ele>554.55</ele>
        <time>2018-04-10T07:35:10.999Z</time>
      </trkpt>
      <trkpt lat="46.27625" lon="2.87583">
        <ele>554.66</ele>
        <time>2018-04-10T07:35:12.999Z</time>
      </trkpt>
      <trkpt lat="46.27618" lon="2.87594">
        <ele>554.65</ele>
        <time>2018-04-10T07:35:14.999Z</time>
      </trkpt>
      <trkpt lat="46.27612" lon="2.87605">
        <ele>554.72</ele>
        <time>2018-04-10T07:35:16.999Z</time>
      </trkpt>
      <trkpt lat="46.27606" lon="2.87616">
        <ele>554.75</ele>
        <time>2018-04-10T07:35:18.999Z</time>
      </trkpt>
      <trkpt lat="46.276" lon="2.87628">
        <ele>555.02</ele>
        <time>2018-04-10T07:35:20.999Z</time>
      </trkpt>
      <trkpt lat="46.27594" lon="2.8764">
        <ele>555.26</ele>
        <time>2018-04-10T07:35:22.999Z</time>
      </trkpt>
      <trkpt lat="46.27586" lon="2.87651">
        <ele>555.26</ele>
        <time>2018-04-10T07:35:24.999Z</time>
      </trkpt>
      <trkpt lat="46.27579" lon="2.87664">
        <ele>555.16</ele>
        <time>2018-04-10T07:35:26.999Z</time>
      </trkpt>
      <trkpt lat="46.27571" lon="2.87677">
        <ele>554.96</ele>
        <time>2018-04-10T07:35:28.999Z</time>
      </trkpt>
      <trkpt lat="46.27562" lon="2.87692">
        <ele>554.69</ele>
        <time>2018-04-10T07:35:30.999Z</time>
      </trkpt>
      <trkpt lat="46.27554" lon="2.87707">
        <ele>554.49</ele>
        <time>2018-04-10T07:35:32.999Z</time>
      </trkpt>
      <trkpt lat="46.27544" lon="2.87721">
        <ele>553.86</ele>
        <time>2018-04-10T07:35:34.999Z</time>
      </trkpt>
      <trkpt lat="46.27535" lon="2.87736">
        <ele>553.49</ele>
        <time>2018-04-10T07:35:36.999Z</time>
      </trkpt>
      <trkpt lat="46.27527" lon="2.87751">
        <ele>553.28</ele>
        <time>2018-04-10T07:35:38.999Z</time>
      </trkpt>
      <trkpt lat="46.2752" lon="2.87767">
        <ele>553.22</ele>
        <time>2018-04-10T07:35:40.999Z</time>
      </trkpt>
      <trkpt lat="46.27512" lon="2.87783">
        <ele>553.34</ele>
        <time>2018-04-10T07:35:42.999Z</time>
      </trkpt>
      <trkpt lat="46.27504" lon="2.87799">
        <ele>553.44</ele>
        <time>2018-04-10T07:35:44.999Z</time>
      </trkpt>
      <trkpt lat="46.27497" lon="2.87815">
        <ele>553.5</ele>
        <time>2018-04-10T07:35:46.999Z</time>
      </trkpt>
      <trkpt lat="46.2749" lon="2.8783">
        <ele>553.49</ele>
        <time>2018-04-10T07:35:48.999Z</time>
      </trkpt>
      <trkpt lat="46.27483" lon="2.87845">
        <ele>553.82</ele>
        <time>2018-04-10T07:35:50.999Z</time>
      </trkpt>
      <trkpt lat="46.27478" lon="2.87859">
        <ele>553.64</ele>
        <time>2018-04-10T07:35:52.999Z</time>
      </trkpt>
      <trkpt lat="46.27471" lon="2.87873">
        <ele>553.37</ele>
        <time>2018-04-10T07:35:54.999Z</time>
      </trkpt>
      <trkpt lat="46.27464" lon="2.87886">
        <ele>553.15</ele>
        <time>2018-04-10T07:35:56.999Z</time>
      </trkpt>
      <trkpt lat="46.27457" lon="2.87899">
        <ele>553.01</ele>
        <time>2018-04-10T07:35:58.999Z</time>
      </trkpt>
      <trkpt lat="46.27451" lon="2.87913">
        <ele>552.91</ele>
        <time>2018-04-10T07:36:00.999Z</time>
      </trkpt>
      <trkpt lat="46.27445" lon="2.87925">
        <ele>553.5</ele>
        <time>2018-04-10T07:36:02.999Z</time>
      </trkpt>
      <trkpt lat="46.2744" lon="2.87938">
        <ele>554.12</ele>
        <time>2018-04-10T07:36:04.999Z</time>
      </trkpt>
      <trkpt lat="46.27433" lon="2.8795">
        <ele>554.55</ele>
        <time>2018-04-10T07:36:06.999Z</time>
      </trkpt>
      <trkpt lat="46.27428" lon="2.87962">
        <ele>554.9</ele>
        <time>2018-04-10T07:36:08.999Z</time>
      </trkpt>
      <trkpt lat="46.27422" lon="2.87974">
        <ele>555.29</ele>
        <time>2018-04-10T07:36:10.999Z</time>
      </trkpt>
      <trkpt lat="46.27416" lon="2.87987">
        <ele>555.69</ele>
        <time>2018-04-10T07:36:12.999Z</time>
      </trkpt>
      <trkpt lat="46.27409" lon="2.87999">
        <ele>556.1</ele>
        <time>2018-04-10T07:36:14.999Z</time>
      </trkpt>
      <trkpt lat="46.27403" lon="2.88012">
        <ele>556.58</ele>
        <time>2018-04-10T07:36:16.999Z</time>
      </trkpt>
      <trkpt lat="46.27397" lon="2.88025">
        <ele>556.79</ele>
        <time>2018-04-10T07:36:18.999Z</time>
      </trkpt>
      <trkpt lat="46.27392" lon="2.88038">
        <ele>557.39</ele>
        <time>2018-04-10T07:36:20.999Z</time>
      </trkpt>
      <trkpt lat="46.27387" lon="2.8805">
        <ele>558.29</ele>
        <time>2018-04-10T07:36:22.999Z</time>
      </trkpt>
      <trkpt lat="46.27382" lon="2.88062">
        <ele>558.81</ele>
        <time>2018-04-10T07:36:24.999Z</time>
      </trkpt>
      <trkpt lat="46.27376" lon="2.88075">
        <ele>559.29</ele>
        <time>2018-04-10T07:36:26.999Z</time>
      </trkpt>
      <trkpt lat="46.27372" lon="2.88089">
        <ele>559.88</ele>
        <time>2018-04-10T07:36:28.999Z</time>
      </trkpt>
      <trkpt lat="46.27369" lon="2.88103">
        <ele>560.39</ele>
        <time>2018-04-10T07:36:30.999Z</time>
      </trkpt>
      <trkpt lat="46.27366" lon="2.88117">
        <ele>560.79</ele>
        <time>2018-04-10T07:36:32.999Z</time>
      </trkpt>
      <trkpt lat="46.27364" lon="2.8813">
        <ele>561.34</ele>
        <time>2018-04-10T07:36:34.999Z</time>
      </trkpt>
      <trkpt lat="46.27361" lon="2.88144">
        <ele>561.88</ele>
        <time>2018-04-10T07:36:36.999Z</time>
      </trkpt>
      <trkpt lat="46.27359" lon="2.88157">
        <ele>562.25</ele>
        <time>2018-04-10T07:36:38.999Z</time>
      </trkpt>
      <trkpt lat="46.27358" lon="2.8817">
        <ele>562.94</ele>
        <time>2018-04-10T07:36:40.999Z</time>
      </trkpt>
      <trkpt lat="46.27356" lon="2.88183">
        <ele>563.51</ele>
        <time>2018-04-10T07:36:42.999Z</time>
      </trkpt>
      <trkpt lat="46.27356" lon="2.88196">
        <ele>563.91</ele>
        <time>2018-04-10T07:36:44.999Z</time>
      </trkpt>
      <trkpt lat="46.27354" lon="2.88209">
        <ele>564.69</ele>
        <time>2018-04-10T07:36:46.999Z</time>
      </trkpt>
      <trkpt lat="46.27353" lon="2.88227">
        <ele>565.44</ele>
        <time>2018-04-10T07:36:49.999Z</time>
      </trkpt>
      <trkpt lat="46.27351" lon="2.88244">
        <ele>565.86</ele>
        <time>2018-04-10T07:36:52.999Z</time>
      </trkpt>
      <trkpt lat="46.2735" lon="2.88261">
        <ele>566.43</ele>
        <time>2018-04-10T07:36:55.999Z</time>
      </trkpt>
      <trkpt lat="46.27348" lon="2.88278">
        <ele>566.81</ele>
        <time>2018-04-10T07:36:58.999Z</time>
      </trkpt>
      <trkpt lat="46.27348" lon="2.88296">
        <ele>567.46</ele>
        <time>2018-04-10T07:37:01.999Z</time>
      </trkpt>
      <trkpt lat="46.27348" lon="2.88312">
        <ele>568.73</ele>
        <time>2018-04-10T07:37:04.999Z</time>
      </trkpt>
      <trkpt lat="46.27349" lon="2.88329">
        <ele>570.2</ele>
        <time>2018-04-10T07:37:07.999Z</time>
      </trkpt>
      <trkpt lat="46.2735" lon="2.88346">
        <ele>571.25</ele>
        <time>2018-04-10T07:37:10.999Z</time>
      </trkpt>
      <trkpt lat="46.27351" lon="2.88362">
        <ele>572.16</ele>
        <time>2018-04-10T07:37:13.999Z</time>
      </trkpt>
      <trkpt lat="46.27352" lon="2.8838">
        <ele>572.71</ele>
        <time>2018-04-10T07:37:16.999Z</time>
      </trkpt>
      <trkpt lat="46.27353" lon="2.88397">
        <ele>573.29</ele>
        <time>2018-04-10T07:37:19.999Z</time>
      </trkpt>
      <trkpt lat="46.27354" lon="2.88414">
        <ele>574.36</ele>
        <time>2018-04-10T07:37:22.999Z</time>
      </trkpt>
      <trkpt lat="46.27354" lon="2.88432">
        <ele>575.14</ele>
        <time>2018-04-10T07:37:25.999Z</time>
      </trkpt>
      <trkpt lat="46.27354" lon="2.88451">
        <ele>575.38</ele>
        <time>2018-04-10T07:37:28.999Z</time>
      </trkpt>
      <trkpt lat="46.27353" lon="2.8847">
        <ele>575.43</ele>
        <time>2018-04-10T07:37:31.999Z</time>
      </trkpt>
      <trkpt lat="46.27353" lon="2.88483">
        <ele>575.52</ele>
        <time>2018-04-10T07:37:33.999Z</time>
      </trkpt>
      <trkpt lat="46.27352" lon="2.88496">
        <ele>575.61</ele>
        <time>2018-04-10T07:37:35.999Z</time>
      </trkpt>
      <trkpt lat="46.27352" lon="2.8851">
        <ele>575.59</ele>
        <time>2018-04-10T07:37:37.999Z</time>
      </trkpt>
      <trkpt lat="46.27351" lon="2.88528">
        <ele>575.24</ele>
        <time>2018-04-10T07:37:40.999Z</time>
      </trkpt>
      <trkpt lat="46.2735" lon="2.88548">
        <ele>574.88</ele>
        <time>2018-04-10T07:37:43.999Z</time>
      </trkpt>
      <trkpt lat="46.27349" lon="2.88567">
        <ele>574.7</ele>
        <time>2018-04-10T07:37:46.999Z</time>
      </trkpt>
      <trkpt lat="46.27348" lon="2.8858">
        <ele>574.98</ele>
        <time>2018-04-10T07:37:48.999Z</time>
      </trkpt>
      <trkpt lat="46.27347" lon="2.88599">
        <ele>575.28</ele>
        <time>2018-04-10T07:37:51.999Z</time>
      </trkpt>
      <trkpt lat="46.27346" lon="2.88612">
        <ele>575.53</ele>
        <time>2018-04-10T07:37:53.999Z</time>
      </trkpt>
      <trkpt lat="46.27345" lon="2.88625">
        <ele>575.67</ele>
        <time>2018-04-10T07:37:55.999Z</time>
      </trkpt>
      <trkpt lat="46.27345" lon="2.88639">
        <ele>575.9</ele>
        <time>2018-04-10T07:37:57.999Z</time>
      </trkpt>
      <trkpt lat="46.27344" lon="2.88652">
        <ele>576.33</ele>
        <time>2018-04-10T07:37:59.999Z</time>
      </trkpt>
      <trkpt lat="46.27343" lon="2.88665">
        <ele>576.44</ele>
        <time>2018-04-10T07:38:01.999Z</time>
      </trkpt>
      <trkpt lat="46.27343" lon="2.88678">
        <ele>576.82</ele>
        <time>2018-04-10T07:38:03.999Z</time>
      </trkpt>
      <trkpt lat="46.27342" lon="2.88691">
        <ele>576.97</ele>
        <time>2018-04-10T07:38:05.999Z</time>
      </trkpt>
      <trkpt lat="46.27342" lon="2.88705">
        <ele>577.23</ele>
        <time>2018-04-10T07:38:07.999Z</time>
      </trkpt>
      <trkpt lat="46.27341" lon="2.88718">
        <ele>577.46</ele>
        <time>2018-04-10T07:38:09.999Z</time>
      </trkpt>
      <trkpt lat="46.2734" lon="2.88732">
        <ele>577.28</ele>
        <time>2018-04-10T07:38:11.999Z</time>
      </trkpt>
      <trkpt lat="46.27339" lon="2.88745">
        <ele>577.1</ele>
        <time>2018-04-10T07:38:13.999Z</time>
      </trkpt>
      <trkpt lat="46.27338" lon="2.88758">
        <ele>577.35</ele>
        <time>2018-04-10T07:38:15.999Z</time>
      </trkpt>
      <trkpt lat="46.27337" lon="2.88771">
        <ele>577.62</ele>
        <time>2018-04-10T07:38:17.999Z</time>
      </trkpt>
      <trkpt lat="46.27336" lon="2.88784">
        <ele>577.79</ele>
        <time>2018-04-10T07:38:19.999Z</time>
      </trkpt>
      <trkpt lat="46.27333" lon="2.88802">
        <ele>578.43</ele>
        <time>2018-04-10T07:38:22.999Z</time>
      </trkpt>
      <trkpt lat="46.2733" lon="2.88819">
        <ele>578.98</ele>
        <time>2018-04-10T07:38:25.999Z</time>
      </trkpt>
      <trkpt lat="46.27329" lon="2.88836">
        <ele>579.71</ele>
        <time>2018-04-10T07:38:28.999Z</time>
      </trkpt>
      <trkpt lat="46.27326" lon="2.88853">
        <ele>580.41</ele>
        <time>2018-04-10T07:38:31.999Z</time>
      </trkpt>
      <trkpt lat="46.27324" lon="2.88869">
        <ele>581.1</ele>
        <time>2018-04-10T07:38:34.999Z</time>
      </trkpt>
      <trkpt lat="46.27321" lon="2.88886">
        <ele>581.97</ele>
        <time>2018-04-10T07:38:37.999Z</time>
      </trkpt>
      <trkpt lat="46.27318" lon="2.88903">
        <ele>582.95</ele>
        <time>2018-04-10T07:38:40.999Z</time>
      </trkpt>
      <trkpt lat="46.27316" lon="2.88921">
        <ele>583.93</ele>
        <time>2018-04-10T07:38:43.999Z</time>
      </trkpt>
      <trkpt lat="46.27313" lon="2.88938">
        <ele>584.63</ele>
        <time>2018-04-10T07:38:46.999Z</time>
      </trkpt>
      <trkpt lat="46.27311" lon="2.88956">
        <ele>585.41</ele>
        <time>2018-04-10T07:38:49.999Z</time>
      </trkpt>
      <trkpt lat="46.27309" lon="2.88974">
        <ele>585.89</ele>
        <time>2018-04-10T07:38:52.999Z</time>
      </trkpt>
      <trkpt lat="46.27308" lon="2.88991">
        <ele>586.22</ele>
        <time>2018-04-10T07:38:55.999Z</time>
      </trkpt>
      <trkpt lat="46.27306" lon="2.89009">
        <ele>586.83</ele>
        <time>2018-04-10T07:38:58.999Z</time>
      </trkpt>
      <trkpt lat="46.27305" lon="2.89023">
        <ele>586.9</ele>
        <time>2018-04-10T07:39:00.999Z</time>
      </trkpt>
      <trkpt lat="46.27305" lon="2.89036">
        <ele>587.24</ele>
        <time>2018-04-10T07:39:02.999Z</time>
      </trkpt>
      <trkpt lat="46.27303" lon="2.89049">
        <ele>587.04</ele>
        <time>2018-04-10T07:39:04.999Z</time>
      </trkpt>
      <trkpt lat="46.27302" lon="2.89062">
        <ele>586.9</ele>
        <time>2018-04-10T07:39:06.999Z</time>
      </trkpt>
      <trkpt lat="46.27301" lon="2.89075">
        <ele>586.88</ele>
        <time>2018-04-10T07:39:08.999Z</time>
      </trkpt>
      <trkpt lat="46.273" lon="2.89088">
        <ele>587.06</ele>
        <time>2018-04-10T07:39:10.999Z</time>
      </trkpt>
      <trkpt lat="46.27298" lon="2.89102">
        <ele>587.08</ele>
        <time>2018-04-10T07:39:12.999Z</time>
      </trkpt>
      <trkpt lat="46.27296" lon="2.89115">
        <ele>587.22</ele>
        <time>2018-04-10T07:39:14.999Z</time>
      </trkpt>
      <trkpt lat="46.27294" lon="2.89129">
        <ele>587.22</ele>
        <time>2018-04-10T07:39:16.999Z</time>
      </trkpt>
      <trkpt lat="46.27291" lon="2.89142">
        <ele>587.39</ele>
        <time>2018-04-10T07:39:18.999Z</time>
      </trkpt>
      <trkpt lat="46.27287" lon="2.89156">
        <ele>587.85</ele>
        <time>2018-04-10T07:39:20.999Z</time>
      </trkpt>
      <trkpt lat="46.27283" lon="2.8917">
        <ele>588.02</ele>
        <time>2018-04-10T07:39:22.999Z</time>
      </trkpt>
      <trkpt lat="46.27278" lon="2.89184">
        <ele>587.96</ele>
        <time>2018-04-10T07:39:24.999Z</time>
      </trkpt>
      <trkpt lat="46.27272" lon="2.89199">
        <ele>587.87</ele>
        <time>2018-04-10T07:39:26.999Z</time>
      </trkpt>
      <trkpt lat="46.27265" lon="2.89213">
        <ele>587.9</ele>
        <time>2018-04-10T07:39:28.999Z</time>
      </trkpt>
      <trkpt lat="46.27256" lon="2.89225">
        <ele>587.86</ele>
        <time>2018-04-10T07:39:30.999Z</time>
      </trkpt>
      <trkpt lat="46.27247" lon="2.89236">
        <ele>587.88</ele>
        <time>2018-04-10T07:39:32.999Z</time>
      </trkpt>
      <trkpt lat="46.27237" lon="2.89248">
        <ele>587.61</ele>
        <time>2018-04-10T07:39:34.999Z</time>
      </trkpt>
      <trkpt lat="46.27227" lon="2.89259">
        <ele>586.89</ele>
        <time>2018-04-10T07:39:36.999Z</time>
      </trkpt>
      <trkpt lat="46.27216" lon="2.89271">
        <ele>585.68</ele>
        <time>2018-04-10T07:39:38.999Z</time>
      </trkpt>
      <trkpt lat="46.27207" lon="2.89282">
        <ele>584.14</ele>
        <time>2018-04-10T07:39:40.999Z</time>
      </trkpt>
      <trkpt lat="46.27202" lon="2.89298">
        <ele>583.25</ele>
        <time>2018-04-10T07:39:43.999Z</time>
      </trkpt>
      <trkpt lat="46.27203" lon="2.89312">
        <ele>582.82</ele>
        <time>2018-04-10T07:39:45.999Z</time>
      </trkpt>
      <trkpt lat="46.27211" lon="2.89328">
        <ele>582.98</ele>
        <time>2018-04-10T07:39:47.999Z</time>
      </trkpt>
      <trkpt lat="46.2722" lon="2.89345">
        <ele>582.74</ele>
        <time>2018-04-10T07:39:49.999Z</time>
      </trkpt>
      <trkpt lat="46.2723" lon="2.89365">
        <ele>582.52</ele>
        <time>2018-04-10T07:39:51.999Z</time>
      </trkpt>
      <trkpt lat="46.27238" lon="2.89387">
        <ele>582.11</ele>
        <time>2018-04-10T07:39:53.999Z</time>
      </trkpt>
      <trkpt lat="46.27246" lon="2.8941">
        <ele>581.57</ele>
        <time>2018-04-10T07:39:55.999Z</time>
      </trkpt>
      <trkpt lat="46.2725" lon="2.89423">
        <ele>581.41</ele>
        <time>2018-04-10T07:39:56.999Z</time>
      </trkpt>
      <trkpt lat="46.27253" lon="2.89436">
        <ele>581.12</ele>
        <time>2018-04-10T07:39:57.999Z</time>
      </trkpt>
      <trkpt lat="46.27257" lon="2.89449">
        <ele>580.86</ele>
        <time>2018-04-10T07:39:58.999Z</time>
      </trkpt>
      <trkpt lat="46.2726" lon="2.89463">
        <ele>580.76</ele>
        <time>2018-04-10T07:39:59.999Z</time>
      </trkpt>
      <trkpt lat="46.27263" lon="2.89477">
        <ele>580.41</ele>
        <time>2018-04-10T07:40:00.999Z</time>
      </trkpt>
      <trkpt lat="46.27266" lon="2.89492">
        <ele>580.02</ele>
        <time>2018-04-10T07:40:01.999Z</time>
      </trkpt>
      <trkpt lat="46.27268" lon="2.89506">
        <ele>579.86</ele>
        <time>2018-04-10T07:40:02.999Z</time>
      </trkpt>
      <trkpt lat="46.2727" lon="2.89521">
        <ele>579.59</ele>
        <time>2018-04-10T07:40:03.999Z</time>
      </trkpt>
      <trkpt lat="46.27272" lon="2.89535">
        <ele>579.35</ele>
        <time>2018-04-10T07:40:04.999Z</time>
      </trkpt>
      <trkpt lat="46.27274" lon="2.89549">
        <ele>578.92</ele>
        <time>2018-04-10T07:40:05.999Z</time>
      </trkpt>
      <trkpt lat="46.27275" lon="2.89564">
        <ele>578.68</ele>
        <time>2018-04-10T07:40:06.999Z</time>
      </trkpt>
      <trkpt lat="46.27277" lon="2.89578">
        <ele>578.47</ele>
        <time>2018-04-10T07:40:07.999Z</time>
      </trkpt>
      <trkpt lat="46.27279" lon="2.89593">
        <ele>578.26</ele>
        <time>2018-04-10T07:40:08.999Z</time>
      </trkpt>
      <trkpt lat="46.2728" lon="2.89607">
        <ele>577.95</ele>
        <time>2018-04-10T07:40:09.999Z</time>
      </trkpt>
      <trkpt lat="46.27282" lon="2.89622">
        <ele>577.62</ele>
        <time>2018-04-10T07:40:10.999Z</time>
      </trkpt>
      <trkpt lat="46.27284" lon="2.89636">
        <ele>577.43</ele>
        <time>2018-04-10T07:40:11.999Z</time>
      </trkpt>
      <trkpt lat="46.27286" lon="2.89651">
        <ele>577.06</ele>
        <time>2018-04-10T07:40:12.999Z</time>
      </trkpt>
      <trkpt lat="46.27288" lon="2.89666">
        <ele>576.64</ele>
        <time>2018-04-10T07:40:13.999Z</time>
      </trkpt>
      <trkpt lat="46.2729" lon="2.89681">
        <ele>576.29</ele>
        <time>2018-04-10T07:40:14.999Z</time>
      </trkpt>
      <trkpt lat="46.27292" lon="2.89696">
        <ele>575.88</ele>
        <time>2018-04-10T07:40:15.999Z</time>
      </trkpt>
      <trkpt lat="46.27293" lon="2.89712">
        <ele>575.38</ele>
        <time>2018-04-10T07:40:16.999Z</time>
      </trkpt>
      <trkpt lat="46.27295" lon="2.89727">
        <ele>575.23</ele>
        <time>2018-04-10T07:40:17.999Z</time>
      </trkpt>
      <trkpt lat="46.27297" lon="2.89742">
        <ele>574.66</ele>
        <time>2018-04-10T07:40:18.999Z</time>
      </trkpt>
      <trkpt lat="46.27299" lon="2.89757">
        <ele>574.34</ele>
        <time>2018-04-10T07:40:19.999Z</time>
      </trkpt>
      <trkpt lat="46.27301" lon="2.89773">
        <ele>574.19</ele>
        <time>2018-04-10T07:40:20.999Z</time>
      </trkpt>
      <trkpt lat="46.27303" lon="2.89788">
        <ele>574.03</ele>
        <time>2018-04-10T07:40:21.999Z</time>
      </trkpt>
      <trkpt lat="46.27305" lon="2.89803">
        <ele>573.77</ele>
        <time>2018-04-10T07:40:22.999Z</time>
      </trkpt>
      <trkpt lat="46.27307" lon="2.89818">
        <ele>573.5</ele>
        <time>2018-04-10T07:40:23.999Z</time>
      </trkpt>
      <trkpt lat="46.27309" lon="2.89832">
        <ele>573.26</ele>
        <time>2018-04-10T07:40:24.999Z</time>
      </trkpt>
      <trkpt lat="46.27311" lon="2.89847">
        <ele>572.76</ele>
        <time>2018-04-10T07:40:25.999Z</time>
      </trkpt>
      <trkpt lat="46.27314" lon="2.89861">
        <ele>572.19</ele>
        <time>2018-04-10T07:40:26.999Z</time>
      </trkpt>
      <trkpt lat="46.27317" lon="2.89876">
        <ele>571.61</ele>
        <time>2018-04-10T07:40:27.999Z</time>
      </trkpt>
      <trkpt lat="46.2732" lon="2.8989">
        <ele>571.11</ele>
        <time>2018-04-10T07:40:28.999Z</time>
      </trkpt>
      <trkpt lat="46.27324" lon="2.89905">
        <ele>570.47</ele>
        <time>2018-04-10T07:40:29.999Z</time>
      </trkpt>
      <trkpt lat="46.27327" lon="2.89919">
        <ele>569.88</ele>
        <time>2018-04-10T07:40:30.999Z</time>
      </trkpt>
      <trkpt lat="46.2733" lon="2.89933">
        <ele>569.3</ele>
        <time>2018-04-10T07:40:31.999Z</time>
      </trkpt>
      <trkpt lat="46.27334" lon="2.89947">
        <ele>568.73</ele>
        <time>2018-04-10T07:40:32.999Z</time>
      </trkpt>
      <trkpt lat="46.27338" lon="2.8996">
        <ele>568.28</ele>
        <time>2018-04-10T07:40:33.999Z</time>
      </trkpt>
      <trkpt lat="46.27342" lon="2.89974">
        <ele>567.92</ele>
        <time>2018-04-10T07:40:34.999Z</time>
      </trkpt>
      <trkpt lat="46.27346" lon="2.89987">
        <ele>567.46</ele>
        <time>2018-04-10T07:40:35.999Z</time>
      </trkpt>
      <trkpt lat="46.2735" lon="2.9">
        <ele>566.98</ele>
        <time>2018-04-10T07:40:36.999Z</time>
      </trkpt>
      <trkpt lat="46.27354" lon="2.90013">
        <ele>566.64</ele>
        <time>2018-04-10T07:40:37.999Z</time>
      </trkpt>
      <trkpt lat="46.27358" lon="2.90026">
        <ele>566.3</ele>
        <time>2018-04-10T07:40:38.999Z</time>
      </trkpt>
      <trkpt lat="46.27363" lon="2.90039">
        <ele>565.96</ele>
        <time>2018-04-10T07:40:39.999Z</time>
      </trkpt>
      <trkpt lat="46.27367" lon="2.90052">
        <ele>565.67</ele>
        <time>2018-04-10T07:40:40.999Z</time>
      </trkpt>
      <trkpt lat="46.27372" lon="2.90064">
        <ele>565.34</ele>
        <time>2018-04-10T07:40:41.999Z</time>
      </trkpt>
      <trkpt lat="46.27376" lon="2.90076">
        <ele>565.21</ele>
        <time>2018-04-10T07:40:42.999Z</time>
      </trkpt>
      <trkpt lat="46.27381" lon="2.90089">
        <ele>565.01</ele>
        <time>2018-04-10T07:40:43.999Z</time>
      </trkpt>
      <trkpt lat="46.27385" lon="2.90101">
        <ele>564.79</ele>
        <time>2018-04-10T07:40:44.999Z</time>
      </trkpt>
      <trkpt lat="46.2739" lon="2.90113">
        <ele>564.67</ele>
        <time>2018-04-10T07:40:45.999Z</time>
      </trkpt>
      <trkpt lat="46.27395" lon="2.90126">
        <ele>564.38</ele>
        <time>2018-04-10T07:40:46.999Z</time>
      </trkpt>
      <trkpt lat="46.27399" lon="2.90138">
        <ele>564.21</ele>
        <time>2018-04-10T07:40:47.999Z</time>
      </trkpt>
      <trkpt lat="46.27403" lon="2.9015">
        <ele>563.98</ele>
        <time>2018-04-10T07:40:48.999Z</time>
      </trkpt>
      <trkpt lat="46.27407" lon="2.90162">
        <ele>563.78</ele>
        <time>2018-04-10T07:40:49.999Z</time>
      </trkpt>
      <trkpt lat="46.27412" lon="2.90175">
        <ele>563.57</ele>
        <time>2018-04-10T07:40:50.999Z</time>
      </trkpt>
      <trkpt lat="46.27416" lon="2.90187">
        <ele>563.6</ele>
        <time>2018-04-10T07:40:51.999Z</time>
      </trkpt>
      <trkpt lat="46.2742" lon="2.90199">
        <ele>563.56</ele>
        <time>2018-04-10T07:40:52.999Z</time>
      </trkpt>
      <trkpt lat="46.27425" lon="2.90211">
        <ele>563.45</ele>
        <time>2018-04-10T07:40:53.999Z</time>
      </trkpt>
      <trkpt lat="46.27429" lon="2.90223">
        <ele>563.4</ele>
        <time>2018-04-10T07:40:54.999Z</time>
      </trkpt>
      <trkpt lat="46.27434" lon="2.90236">
        <ele>563.4</ele>
        <time>2018-04-10T07:40:55.999Z</time>
      </trkpt>
      <trkpt lat="46.27438" lon="2.90248">
        <ele>563.42</ele>
        <time>2018-04-10T07:40:56.999Z</time>
      </trkpt>
      <trkpt lat="46.27443" lon="2.9026">
        <ele>563.35</ele>
        <time>2018-04-10T07:40:57.999Z</time>
      </trkpt>
      <trkpt lat="46.27447" lon="2.90273">
        <ele>563.19</ele>
        <time>2018-04-10T07:40:58.999Z</time>
      </trkpt>
      <trkpt lat="46.27452" lon="2.90286">
        <ele>563.01</ele>
        <time>2018-04-10T07:40:59.999Z</time>
      </trkpt>
      <trkpt lat="46.27457" lon="2.90298">
        <ele>562.92</ele>
        <time>2018-04-10T07:41:00.999Z</time>
      </trkpt>
      <trkpt lat="46.27462" lon="2.90311">
        <ele>562.71</ele>
        <time>2018-04-10T07:41:01.999Z</time>
      </trkpt>
      <trkpt lat="46.27466" lon="2.90324">
        <ele>562.62</ele>
        <time>2018-04-10T07:41:02.999Z</time>
      </trkpt>
      <trkpt lat="46.27471" lon="2.90338">
        <ele>562.37</ele>
        <time>2018-04-10T07:41:03.999Z</time>
      </trkpt>
      <trkpt lat="46.27475" lon="2.90351">
        <ele>562.14</ele>
        <time>2018-04-10T07:41:04.999Z</time>
      </trkpt>
      <trkpt lat="46.2748" lon="2.90365">
        <ele>562</ele>
        <time>2018-04-10T07:41:05.999Z</time>
      </trkpt>
      <trkpt lat="46.27484" lon="2.90379">
        <ele>561.88</ele>
        <time>2018-04-10T07:41:06.999Z</time>
      </trkpt>
      <trkpt lat="46.27488" lon="2.90393">
        <ele>561.57</ele>
        <time>2018-04-10T07:41:07.999Z</time>
      </trkpt>
      <trkpt lat="46.27491" lon="2.90408">
        <ele>561.09</ele>
        <time>2018-04-10T07:41:08.999Z</time>
      </trkpt>
      <trkpt lat="46.27495" lon="2.90422">
        <ele>561.07</ele>
        <time>2018-04-10T07:41:09.999Z</time>
      </trkpt>
      <trkpt lat="46.27498" lon="2.90438">
        <ele>560.67</ele>
        <time>2018-04-10T07:41:10.999Z</time>
      </trkpt>
      <trkpt lat="46.27501" lon="2.90453">
        <ele>560.18</ele>
        <time>2018-04-10T07:41:11.999Z</time>
      </trkpt>
      <trkpt lat="46.27504" lon="2.90468">
        <ele>559.61</ele>
        <time>2018-04-10T07:41:12.999Z</time>
      </trkpt>
      <trkpt lat="46.27506" lon="2.90484">
        <ele>559.1</ele>
        <time>2018-04-10T07:41:13.999Z</time>
      </trkpt>
      <trkpt lat="46.27509" lon="2.905">
        <ele>558.65</ele>
        <time>2018-04-10T07:41:14.999Z</time>
      </trkpt>
      <trkpt lat="46.27511" lon="2.90515">
        <ele>558.12</ele>
        <time>2018-04-10T07:41:15.999Z</time>
      </trkpt>
      <trkpt lat="46.27512" lon="2.90531">
        <ele>557.49</ele>
        <time>2018-04-10T07:41:16.999Z</time>
      </trkpt>
      <trkpt lat="46.27514" lon="2.90547">
        <ele>556.95</ele>
        <time>2018-04-10T07:41:17.999Z</time>
      </trkpt>
      <trkpt lat="46.27515" lon="2.90563">
        <ele>556.23</ele>
        <time>2018-04-10T07:41:18.999Z</time>
      </trkpt>
      <trkpt lat="46.27516" lon="2.90579">
        <ele>556.26</ele>
        <time>2018-04-10T07:41:19.999Z</time>
      </trkpt>
      <trkpt lat="46.27517" lon="2.90596">
        <ele>555.86</ele>
        <time>2018-04-10T07:41:20.999Z</time>
      </trkpt>
      <trkpt lat="46.27518" lon="2.90612">
        <ele>555.42</ele>
        <time>2018-04-10T07:41:21.999Z</time>
      </trkpt>
      <trkpt lat="46.27519" lon="2.90628">
        <ele>555.09</ele>
        <time>2018-04-10T07:41:22.999Z</time>
      </trkpt>
      <trkpt lat="46.2752" lon="2.90644">
        <ele>554.73</ele>
        <time>2018-04-10T07:41:23.999Z</time>
      </trkpt>
      <trkpt lat="46.2752" lon="2.90659">
        <ele>554.32</ele>
        <time>2018-04-10T07:41:24.999Z</time>
      </trkpt>
      <trkpt lat="46.27522" lon="2.90674">
        <ele>553.79</ele>
        <time>2018-04-10T07:41:25.999Z</time>
      </trkpt>
      <trkpt lat="46.27523" lon="2.90689">
        <ele>553.25</ele>
        <time>2018-04-10T07:41:26.999Z</time>
      </trkpt>
      <trkpt lat="46.27525" lon="2.90704">
        <ele>553.07</ele>
        <time>2018-04-10T07:41:27.999Z</time>
      </trkpt>
      <trkpt lat="46.27527" lon="2.90719">
        <ele>552.76</ele>
        <time>2018-04-10T07:41:28.999Z</time>
      </trkpt>
      <trkpt lat="46.2753" lon="2.90734">
        <ele>552.47</ele>
        <time>2018-04-10T07:41:29.999Z</time>
      </trkpt>
      <trkpt lat="46.27533" lon="2.90749">
        <ele>552.24</ele>
        <time>2018-04-10T07:41:30.999Z</time>
      </trkpt>
      <trkpt lat="46.27537" lon="2.90763">
        <ele>552.06</ele>
        <time>2018-04-10T07:41:31.999Z</time>
      </trkpt>
      <trkpt lat="46.27541" lon="2.90777">
        <ele>551.8</ele>
        <time>2018-04-10T07:41:32.999Z</time>
      </trkpt>
      <trkpt lat="46.27544" lon="2.90791">
        <ele>551.61</ele>
        <time>2018-04-10T07:41:33.999Z</time>
      </trkpt>
      <trkpt lat="46.27548" lon="2.90805">
        <ele>551.4</ele>
        <time>2018-04-10T07:41:34.999Z</time>
      </trkpt>
      <trkpt lat="46.27551" lon="2.90818">
        <ele>551.13</ele>
        <time>2018-04-10T07:41:35.999Z</time>
      </trkpt>
      <trkpt lat="46.27554" lon="2.90832">
        <ele>550.9</ele>
        <time>2018-04-10T07:41:36.999Z</time>
      </trkpt>
      <trkpt lat="46.27557" lon="2.90845">
        <ele>550.8</ele>
        <time>2018-04-10T07:41:37.999Z</time>
      </trkpt>
      <trkpt lat="46.2756" lon="2.90859">
        <ele>550.59</ele>
        <time>2018-04-10T07:41:38.999Z</time>
      </trkpt>
      <trkpt lat="46.27563" lon="2.90872">
        <ele>550.45</ele>
        <time>2018-04-10T07:41:39.999Z</time>
      </trkpt>
      <trkpt lat="46.27566" lon="2.90885">
        <ele>550.47</ele>
        <time>2018-04-10T07:41:40.999Z</time>
      </trkpt>
      <trkpt lat="46.2757" lon="2.90898">
        <ele>550.43</ele>
        <time>2018-04-10T07:41:41.999Z</time>
      </trkpt>
      <trkpt lat="46.27573" lon="2.90911">
        <ele>550.46</ele>
        <time>2018-04-10T07:41:42.999Z</time>
      </trkpt>
      <trkpt lat="46.27576" lon="2.90923">
        <ele>550.38</ele>
        <time>2018-04-10T07:41:43.999Z</time>
      </trkpt>
      <trkpt lat="46.27579" lon="2.90936">
        <ele>550.26</ele>
        <time>2018-04-10T07:41:44.999Z</time>
      </trkpt>
      <trkpt lat="46.27582" lon="2.90949">
        <ele>550.1</ele>
        <time>2018-04-10T07:41:45.999Z</time>
      </trkpt>
      <trkpt lat="46.27585" lon="2.90962">
        <ele>549.92</ele>
        <time>2018-04-10T07:41:46.999Z</time>
      </trkpt>
      <trkpt lat="46.27588" lon="2.90974">
        <ele>549.95</ele>
        <time>2018-04-10T07:41:47.999Z</time>
      </trkpt>
      <trkpt lat="46.27591" lon="2.90987">
        <ele>550.11</ele>
        <time>2018-04-10T07:41:48.999Z</time>
      </trkpt>
      <trkpt lat="46.27594" lon="2.90999">
        <ele>550.09</ele>
        <time>2018-04-10T07:41:49.999Z</time>
      </trkpt>
      <trkpt lat="46.27598" lon="2.91012">
        <ele>549.86</ele>
        <time>2018-04-10T07:41:50.999Z</time>
      </trkpt>
      <trkpt lat="46.27602" lon="2.91024">
        <ele>549.65</ele>
        <time>2018-04-10T07:41:51.999Z</time>
      </trkpt>
      <trkpt lat="46.27607" lon="2.91037">
        <ele>549.43</ele>
        <time>2018-04-10T07:41:52.999Z</time>
      </trkpt>
      <trkpt lat="46.27611" lon="2.9105">
        <ele>549.24</ele>
        <time>2018-04-10T07:41:53.999Z</time>
      </trkpt>
      <trkpt lat="46.27616" lon="2.91062">
        <ele>549.24</ele>
        <time>2018-04-10T07:41:54.999Z</time>
      </trkpt>
      <trkpt lat="46.27621" lon="2.91075">
        <ele>549.37</ele>
        <time>2018-04-10T07:41:55.999Z</time>
      </trkpt>
      <trkpt lat="46.27626" lon="2.91087">
        <ele>549.54</ele>
        <time>2018-04-10T07:41:56.999Z</time>
      </trkpt>
      <trkpt lat="46.27632" lon="2.91099">
        <ele>549.46</ele>
        <time>2018-04-10T07:41:57.999Z</time>
      </trkpt>
      <trkpt lat="46.27638" lon="2.91111">
        <ele>549.27</ele>
        <time>2018-04-10T07:41:58.999Z</time>
      </trkpt>
      <trkpt lat="46.27644" lon="2.91123">
        <ele>549.15</ele>
        <time>2018-04-10T07:41:59.999Z</time>
      </trkpt>
      <trkpt lat="46.27651" lon="2.91135">
        <ele>549.1</ele>
        <time>2018-04-10T07:42:00.999Z</time>
      </trkpt>
      <trkpt lat="46.27659" lon="2.91146">
        <ele>549.07</ele>
        <time>2018-04-10T07:42:01.999Z</time>
      </trkpt>
      <trkpt lat="46.27666" lon="2.91157">
        <ele>548.94</ele>
        <time>2018-04-10T07:42:02.999Z</time>
      </trkpt>
      <trkpt lat="46.27674" lon="2.91168">
        <ele>548.7</ele>
        <time>2018-04-10T07:42:03.999Z</time>
      </trkpt>
      <trkpt lat="46.27683" lon="2.91178">
        <ele>548.45</ele>
        <time>2018-04-10T07:42:04.999Z</time>
      </trkpt>
      <trkpt lat="46.27691" lon="2.91189">
        <ele>548.39</ele>
        <time>2018-04-10T07:42:05.999Z</time>
      </trkpt>
      <trkpt lat="46.277" lon="2.91198">
        <ele>548.25</ele>
        <time>2018-04-10T07:42:06.999Z</time>
      </trkpt>
      <trkpt lat="46.2771" lon="2.91208">
        <ele>548.02</ele>
        <time>2018-04-10T07:42:07.999Z</time>
      </trkpt>
      <trkpt lat="46.2772" lon="2.91216">
        <ele>547.77</ele>
        <time>2018-04-10T07:42:08.999Z</time>
      </trkpt>
      <trkpt lat="46.2773" lon="2.91224">
        <ele>547.58</ele>
        <time>2018-04-10T07:42:09.999Z</time>
      </trkpt>
      <trkpt lat="46.27741" lon="2.91232">
        <ele>547.25</ele>
        <time>2018-04-10T07:42:10.999Z</time>
      </trkpt>
      <trkpt lat="46.27751" lon="2.91238">
        <ele>546.88</ele>
        <time>2018-04-10T07:42:11.999Z</time>
      </trkpt>
      <trkpt lat="46.27763" lon="2.91245">
        <ele>546.59</ele>
        <time>2018-04-10T07:42:12.999Z</time>
      </trkpt>
      <trkpt lat="46.27774" lon="2.91251">
        <ele>546.23</ele>
        <time>2018-04-10T07:42:13.999Z</time>
      </trkpt>
      <trkpt lat="46.27786" lon="2.91257">
        <ele>545.82</ele>
        <time>2018-04-10T07:42:14.999Z</time>
      </trkpt>
      <trkpt lat="46.27797" lon="2.91262">
        <ele>545.41</ele>
        <time>2018-04-10T07:42:15.999Z</time>
      </trkpt>
      <trkpt lat="46.27808" lon="2.91268">
        <ele>545.08</ele>
        <time>2018-04-10T07:42:16.999Z</time>
      </trkpt>
      <trkpt lat="46.2782" lon="2.91273">
        <ele>544.8</ele>
        <time>2018-04-10T07:42:17.999Z</time>
      </trkpt>
      <trkpt lat="46.27832" lon="2.91279">
        <ele>544.51</ele>
        <time>2018-04-10T07:42:18.999Z</time>
      </trkpt>
      <trkpt lat="46.27843" lon="2.91285">
        <ele>544.22</ele>
        <time>2018-04-10T07:42:19.999Z</time>
      </trkpt>
      <trkpt lat="46.27854" lon="2.9129">
        <ele>543.94</ele>
        <time>2018-04-10T07:42:20.999Z</time>
      </trkpt>
      <trkpt lat="46.27865" lon="2.91296">
        <ele>543.69</ele>
        <time>2018-04-10T07:42:21.999Z</time>
      </trkpt>
      <trkpt lat="46.27875" lon="2.91302">
        <ele>543.55</ele>
        <time>2018-04-10T07:42:22.999Z</time>
      </trkpt>
      <trkpt lat="46.27885" lon="2.91308">
        <ele>543.29</ele>
        <time>2018-04-10T07:42:23.999Z</time>
      </trkpt>
      <trkpt lat="46.27895" lon="2.91315">
        <ele>543.2</ele>
        <time>2018-04-10T07:42:24.999Z</time>
      </trkpt>
      <trkpt lat="46.27905" lon="2.91321">
        <ele>543.25</ele>
        <time>2018-04-10T07:42:25.999Z</time>
      </trkpt>
      <trkpt lat="46.27914" lon="2.91327">
        <ele>543.2</ele>
        <time>2018-04-10T07:42:26.999Z</time>
      </trkpt>
      <trkpt lat="46.27923" lon="2.91334">
        <ele>543.09</ele>
        <time>2018-04-10T07:42:27.999Z</time>
      </trkpt>
      <trkpt lat="46.27932" lon="2.91341">
        <ele>542.85</ele>
        <time>2018-04-10T07:42:28.999Z</time>
      </trkpt>
      <trkpt lat="46.27941" lon="2.91348">
        <ele>542.58</ele>
        <time>2018-04-10T07:42:29.999Z</time>
      </trkpt>
      <trkpt lat="46.2795" lon="2.91355">
        <ele>542.5</ele>
        <time>2018-04-10T07:42:30.999Z</time>
      </trkpt>
      <trkpt lat="46.27958" lon="2.91362">
        <ele>542.22</ele>
        <time>2018-04-10T07:42:31.999Z</time>
      </trkpt>
      <trkpt lat="46.27966" lon="2.91369">
        <ele>541.9</ele>
        <time>2018-04-10T07:42:32.999Z</time>
      </trkpt>
      <trkpt lat="46.27975" lon="2.91376">
        <ele>541.75</ele>
        <time>2018-04-10T07:42:33.999Z</time>
      </trkpt>
      <trkpt lat="46.27984" lon="2.91383">
        <ele>541.59</ele>
        <time>2018-04-10T07:42:34.999Z</time>
      </trkpt>
      <trkpt lat="46.27992" lon="2.91389">
        <ele>541.34</ele>
        <time>2018-04-10T07:42:35.999Z</time>
      </trkpt>
      <trkpt lat="46.28" lon="2.91396">
        <ele>541.17</ele>
        <time>2018-04-10T07:42:36.999Z</time>
      </trkpt>
      <trkpt lat="46.28009" lon="2.91403">
        <ele>540.91</ele>
        <time>2018-04-10T07:42:37.999Z</time>
      </trkpt>
      <trkpt lat="46.28017" lon="2.91409">
        <ele>540.64</ele>
        <time>2018-04-10T07:42:38.999Z</time>
      </trkpt>
      <trkpt lat="46.28025" lon="2.91416">
        <ele>540.28</ele>
        <time>2018-04-10T07:42:39.999Z</time>
      </trkpt>
      <trkpt lat="46.28033" lon="2.91421">
        <ele>539.74</ele>
        <time>2018-04-10T07:42:40.999Z</time>
      </trkpt>
      <trkpt lat="46.28042" lon="2.91427">
        <ele>539.34</ele>
        <time>2018-04-10T07:42:41.999Z</time>
      </trkpt>
      <trkpt lat="46.2805" lon="2.91434">
        <ele>539.04</ele>
        <time>2018-04-10T07:42:42.999Z</time>
      </trkpt>
      <trkpt lat="46.28059" lon="2.9144">
        <ele>538.75</ele>
        <time>2018-04-10T07:42:43.999Z</time>
      </trkpt>
      <trkpt lat="46.28067" lon="2.91446">
        <ele>538.57</ele>
        <time>2018-04-10T07:42:44.999Z</time>
      </trkpt>
      <trkpt lat="46.28076" lon="2.91452">
        <ele>538.57</ele>
        <time>2018-04-10T07:42:45.999Z</time>
      </trkpt>
      <trkpt lat="46.28085" lon="2.91459">
        <ele>538.53</ele>
        <time>2018-04-10T07:42:46.999Z</time>
      </trkpt>
      <trkpt lat="46.28094" lon="2.91465">
        <ele>538.31</ele>
        <time>2018-04-10T07:42:47.999Z</time>
      </trkpt>
      <trkpt lat="46.28103" lon="2.91472">
        <ele>538.1</ele>
        <time>2018-04-10T07:42:48.999Z</time>
      </trkpt>
      <trkpt lat="46.28112" lon="2.91478">
        <ele>538</ele>
        <time>2018-04-10T07:42:49.999Z</time>
      </trkpt>
      <trkpt lat="46.28122" lon="2.91484">
        <ele>537.76</ele>
        <time>2018-04-10T07:42:50.999Z</time>
      </trkpt>
      <trkpt lat="46.28131" lon="2.91491">
        <ele>537.89</ele>
        <time>2018-04-10T07:42:51.999Z</time>
      </trkpt>
      <trkpt lat="46.28141" lon="2.91498">
        <ele>537.77</ele>
        <time>2018-04-10T07:42:52.999Z</time>
      </trkpt>
      <trkpt lat="46.2815" lon="2.91505">
        <ele>537.61</ele>
        <time>2018-04-10T07:42:53.999Z</time>
      </trkpt>
      <trkpt lat="46.2816" lon="2.91512">
        <ele>537.42</ele>
        <time>2018-04-10T07:42:54.999Z</time>
      </trkpt>
      <trkpt lat="46.2817" lon="2.91519">
        <ele>537.23</ele>
        <time>2018-04-10T07:42:55.999Z</time>
      </trkpt>
      <trkpt lat="46.2818" lon="2.91526">
        <ele>537.04</ele>
        <time>2018-04-10T07:42:56.999Z</time>
      </trkpt>
      <trkpt lat="46.2819" lon="2.91533">
        <ele>537</ele>
        <time>2018-04-10T07:42:57.999Z</time>
      </trkpt>
      <trkpt lat="46.282" lon="2.9154">
        <ele>536.86</ele>
        <time>2018-04-10T07:42:58.999Z</time>
      </trkpt>
      <trkpt lat="46.2821" lon="2.91548">
        <ele>536.82</ele>
        <time>2018-04-10T07:42:59.999Z</time>
      </trkpt>
      <trkpt lat="46.28221" lon="2.91556">
        <ele>536.63</ele>
        <time>2018-04-10T07:43:00.999Z</time>
      </trkpt>
      <trkpt lat="46.28231" lon="2.91563">
        <ele>536.36</ele>
        <time>2018-04-10T07:43:01.999Z</time>
      </trkpt>
      <trkpt lat="46.28241" lon="2.91571">
        <ele>536.08</ele>
        <time>2018-04-10T07:43:02.999Z</time>
      </trkpt>
      <trkpt lat="46.28252" lon="2.91579">
        <ele>535.95</ele>
        <time>2018-04-10T07:43:03.999Z</time>
      </trkpt>
      <trkpt lat="46.28262" lon="2.91587">
        <ele>535.69</ele>
        <time>2018-04-10T07:43:04.999Z</time>
      </trkpt>
      <trkpt lat="46.28273" lon="2.91595">
        <ele>535.48</ele>
        <time>2018-04-10T07:43:05.999Z</time>
      </trkpt>
      <trkpt lat="46.28284" lon="2.91603">
        <ele>535.3</ele>
        <time>2018-04-10T07:43:06.999Z</time>
      </trkpt>
      <trkpt lat="46.28294" lon="2.91611">
        <ele>534.9</ele>
        <time>2018-04-10T07:43:07.999Z</time>
      </trkpt>
      <trkpt lat="46.28305" lon="2.91619">
        <ele>534.62</ele>
        <time>2018-04-10T07:43:08.999Z</time>
      </trkpt>
      <trkpt lat="46.28315" lon="2.91627">
        <ele>534.27</ele>
        <time>2018-04-10T07:43:09.999Z</time>
      </trkpt>
      <trkpt lat="46.28325" lon="2.91635">
        <ele>534.03</ele>
        <time>2018-04-10T07:43:10.999Z</time>
      </trkpt>
      <trkpt lat="46.28335" lon="2.91644">
        <ele>533.6</ele>
        <time>2018-04-10T07:43:11.999Z</time>
      </trkpt>
      <trkpt lat="46.28346" lon="2.91652">
        <ele>533.16</ele>
        <time>2018-04-10T07:43:12.999Z</time>
      </trkpt>
      <trkpt lat="46.28355" lon="2.91661">
        <ele>532.5</ele>
        <time>2018-04-10T07:43:13.999Z</time>
      </trkpt>
      <trkpt lat="46.28366" lon="2.91669">
        <ele>531.95</ele>
        <time>2018-04-10T07:43:14.999Z</time>
      </trkpt>
      <trkpt lat="46.28376" lon="2.91678">
        <ele>531.55</ele>
        <time>2018-04-10T07:43:15.999Z</time>
      </trkpt>
      <trkpt lat="46.28386" lon="2.91686">
        <ele>531.33</ele>
        <time>2018-04-10T07:43:16.999Z</time>
      </trkpt>
      <trkpt lat="46.28396" lon="2.91694">
        <ele>531.15</ele>
        <time>2018-04-10T07:43:17.999Z</time>
      </trkpt>
      <trkpt lat="46.28406" lon="2.91703">
        <ele>530.91</ele>
        <time>2018-04-10T07:43:18.999Z</time>
      </trkpt>
      <trkpt lat="46.28416" lon="2.91711">
        <ele>530.66</ele>
        <time>2018-04-10T07:43:19.999Z</time>
      </trkpt>
      <trkpt lat="46.28425" lon="2.9172">
        <ele>530.3</ele>
        <time>2018-04-10T07:43:20.999Z</time>
      </trkpt>
      <trkpt lat="46.28434" lon="2.91728">
        <ele>529.92</ele>
        <time>2018-04-10T07:43:21.999Z</time>
      </trkpt>
      <trkpt lat="46.28444" lon="2.91737">
        <ele>529.36</ele>
        <time>2018-04-10T07:43:22.999Z</time>
      </trkpt>
      <trkpt lat="46.28453" lon="2.91745">
        <ele>529.19</ele>
        <time>2018-04-10T07:43:23.999Z</time>
      </trkpt>
      <trkpt lat="46.28463" lon="2.91753">
        <ele>529.01</ele>
        <time>2018-04-10T07:43:24.999Z</time>
      </trkpt>
      <trkpt lat="46.28472" lon="2.91761">
        <ele>528.94</ele>
        <time>2018-04-10T07:43:25.999Z</time>
      </trkpt>
      <trkpt lat="46.28481" lon="2.91769">
        <ele>528.33</ele>
        <time>2018-04-10T07:43:26.999Z</time>
      </trkpt>
      <trkpt lat="46.28489" lon="2.91776">
        <ele>527.59</ele>
        <time>2018-04-10T07:43:27.999Z</time>
      </trkpt>
      <trkpt lat="46.28498" lon="2.91783">
        <ele>527.1</ele>
        <time>2018-04-10T07:43:28.999Z</time>
      </trkpt>
      <trkpt lat="46.28511" lon="2.91796">
        <ele>526.14</ele>
        <time>2018-04-10T07:43:30.999Z</time>
      </trkpt>
      <trkpt lat="46.28517" lon="2.91813">
        <ele>525.97</ele>
        <time>2018-04-10T07:43:32.999Z</time>
      </trkpt>
      <trkpt lat="46.28511" lon="2.91833">
        <ele>526.09</ele>
        <time>2018-04-10T07:43:34.999Z</time>
      </trkpt>
      <trkpt lat="46.28505" lon="2.91855">
        <ele>525.2</ele>
        <time>2018-04-10T07:43:36.999Z</time>
      </trkpt>
      <trkpt lat="46.28502" lon="2.91878">
        <ele>524.62</ele>
        <time>2018-04-10T07:43:38.999Z</time>
      </trkpt>
      <trkpt lat="46.285" lon="2.919">
        <ele>524.09</ele>
        <time>2018-04-10T07:43:40.999Z</time>
      </trkpt>
      <trkpt lat="46.28494" lon="2.91921">
        <ele>523.66</ele>
        <time>2018-04-10T07:43:42.999Z</time>
      </trkpt>
      <trkpt lat="46.28487" lon="2.9194">
        <ele>523.39</ele>
        <time>2018-04-10T07:43:44.999Z</time>
      </trkpt>
      <trkpt lat="46.2848" lon="2.91958">
        <ele>523.05</ele>
        <time>2018-04-10T07:43:46.999Z</time>
      </trkpt>
      <trkpt lat="46.28474" lon="2.91978">
        <ele>522.61</ele>
        <time>2018-04-10T07:43:48.999Z</time>
      </trkpt>
      <trkpt lat="46.28467" lon="2.91997">
        <ele>521.82</ele>
        <time>2018-04-10T07:43:50.999Z</time>
      </trkpt>
      <trkpt lat="46.28461" lon="2.92017">
        <ele>520.99</ele>
        <time>2018-04-10T07:43:52.999Z</time>
      </trkpt>
      <trkpt lat="46.28454" lon="2.92036">
        <ele>520.73</ele>
        <time>2018-04-10T07:43:54.999Z</time>
      </trkpt>
      <trkpt lat="46.28448" lon="2.92055">
        <ele>520.38</ele>
        <time>2018-04-10T07:43:56.999Z</time>
      </trkpt>
      <trkpt lat="46.28442" lon="2.92074">
        <ele>520.01</ele>
        <time>2018-04-10T07:43:58.999Z</time>
      </trkpt>
      <trkpt lat="46.28435" lon="2.92094">
        <ele>519.62</ele>
        <time>2018-04-10T07:44:00.999Z</time>
      </trkpt>
      <trkpt lat="46.28428" lon="2.92114">
        <ele>519.61</ele>
        <time>2018-04-10T07:44:02.999Z</time>
      </trkpt>
      <trkpt lat="46.28421" lon="2.92135">
        <ele>519.16</ele>
        <time>2018-04-10T07:44:04.999Z</time>
      </trkpt>
      <trkpt lat="46.28414" lon="2.92156">
        <ele>518.96</ele>
        <time>2018-04-10T07:44:06.999Z</time>
      </trkpt>
      <trkpt lat="46.28407" lon="2.92177">
        <ele>518.96</ele>
        <time>2018-04-10T07:44:08.999Z</time>
      </trkpt>
      <trkpt lat="46.284" lon="2.92198">
        <ele>518.85</ele>
        <time>2018-04-10T07:44:10.999Z</time>
      </trkpt>
      <trkpt lat="46.28393" lon="2.92219">
        <ele>518.74</ele>
        <time>2018-04-10T07:44:12.999Z</time>
      </trkpt>
      <trkpt lat="46.28387" lon="2.9224">
        <ele>518.6</ele>
        <time>2018-04-10T07:44:14.999Z</time>
      </trkpt>
      <trkpt lat="46.28381" lon="2.9226">
        <ele>518.59</ele>
        <time>2018-04-10T07:44:16.999Z</time>
      </trkpt>
      <trkpt lat="46.28376" lon="2.92281">
        <ele>518.51</ele>
        <time>2018-04-10T07:44:18.999Z</time>
      </trkpt>
      <trkpt lat="46.28373" lon="2.92303">
        <ele>518.27</ele>
        <time>2018-04-10T07:44:20.999Z</time>
      </trkpt>
      <trkpt lat="46.28369" lon="2.92324">
        <ele>518.19</ele>
        <time>2018-04-10T07:44:22.999Z</time>
      </trkpt>
      <trkpt lat="46.28365" lon="2.92346">
        <ele>518.06</ele>
        <time>2018-04-10T07:44:24.999Z</time>
      </trkpt>
      <trkpt lat="46.28362" lon="2.92368">
        <ele>517.68</ele>
        <time>2018-04-10T07:44:26.999Z</time>
      </trkpt>
      <trkpt lat="46.28358" lon="2.9239">
        <ele>517.5</ele>
        <time>2018-04-10T07:44:28.999Z</time>
      </trkpt>
      <trkpt lat="46.28353" lon="2.92412">
        <ele>517.52</ele>
        <time>2018-04-10T07:44:30.999Z</time>
      </trkpt>
      <trkpt lat="46.28349" lon="2.92436">
        <ele>517.46</ele>
        <time>2018-04-10T07:44:32.999Z</time>
      </trkpt>
      <trkpt lat="46.28345" lon="2.92458">
        <ele>517.19</ele>
        <time>2018-04-10T07:44:34.999Z</time>
      </trkpt>
      <trkpt lat="46.28342" lon="2.92481">
        <ele>516.84</ele>
        <time>2018-04-10T07:44:36.999Z</time>
      </trkpt>
      <trkpt lat="46.28342" lon="2.92505">
        <ele>516.25</ele>
        <time>2018-04-10T07:44:38.999Z</time>
      </trkpt>
      <trkpt lat="46.28342" lon="2.92531">
        <ele>515.74</ele>
        <time>2018-04-10T07:44:40.999Z</time>
      </trkpt>
      <trkpt lat="46.28343" lon="2.92544">
        <ele>515.61</ele>
        <time>2018-04-10T07:44:41.999Z</time>
      </trkpt>
      <trkpt lat="46.28344" lon="2.92569">
        <ele>515.51</ele>
        <time>2018-04-10T07:44:43.999Z</time>
      </trkpt>
      <trkpt lat="46.28344" lon="2.92595">
        <ele>515.74</ele>
        <time>2018-04-10T07:44:45.999Z</time>
      </trkpt>
      <trkpt lat="46.28342" lon="2.92618">
        <ele>515.71</ele>
        <time>2018-04-10T07:44:47.999Z</time>
      </trkpt>
      <trkpt lat="46.28337" lon="2.92642">
        <ele>515.87</ele>
        <time>2018-04-10T07:44:49.999Z</time>
      </trkpt>
      <trkpt lat="46.28329" lon="2.92663">
        <ele>515.79</ele>
        <time>2018-04-10T07:44:51.999Z</time>
      </trkpt>
      <trkpt lat="46.28321" lon="2.92683">
        <ele>515.78</ele>
        <time>2018-04-10T07:44:53.999Z</time>
      </trkpt>
      <trkpt lat="46.28312" lon="2.92703">
        <ele>515.72</ele>
        <time>2018-04-10T07:44:55.999Z</time>
      </trkpt>
      <trkpt lat="46.28304" lon="2.92722">
        <ele>515.72</ele>
        <time>2018-04-10T07:44:57.999Z</time>
      </trkpt>
      <trkpt lat="46.28297" lon="2.92743">
        <ele>515.7</ele>
        <time>2018-04-10T07:44:59.999Z</time>
      </trkpt>
      <trkpt lat="46.28294" lon="2.92768">
        <ele>515.36</ele>
        <time>2018-04-10T07:45:01.999Z</time>
      </trkpt>
      <trkpt lat="46.28294" lon="2.92781">
        <ele>515.14</ele>
        <time>2018-04-10T07:45:02.999Z</time>
      </trkpt>
      <trkpt lat="46.28294" lon="2.92794">
        <ele>514.99</ele>
        <time>2018-04-10T07:45:03.999Z</time>
      </trkpt>
      <trkpt lat="46.28294" lon="2.92808">
        <ele>514.84</ele>
        <time>2018-04-10T07:45:04.999Z</time>
      </trkpt>
      <trkpt lat="46.28295" lon="2.92821">
        <ele>515.36</ele>
        <time>2018-04-10T07:45:05.999Z</time>
      </trkpt>
      <trkpt lat="46.28297" lon="2.92835">
        <ele>515.43</ele>
        <time>2018-04-10T07:45:06.999Z</time>
      </trkpt>
      <trkpt lat="46.283" lon="2.92848">
        <ele>515.39</ele>
        <time>2018-04-10T07:45:07.999Z</time>
      </trkpt>
      <trkpt lat="46.28304" lon="2.9286">
        <ele>515.27</ele>
        <time>2018-04-10T07:45:08.999Z</time>
      </trkpt>
      <trkpt lat="46.28309" lon="2.92871">
        <ele>515.21</ele>
        <time>2018-04-10T07:45:09.999Z</time>
      </trkpt>
      <trkpt lat="46.28315" lon="2.92882">
        <ele>515.18</ele>
        <time>2018-04-10T07:45:10.999Z</time>
      </trkpt>
      <trkpt lat="46.28321" lon="2.92893">
        <ele>515.09</ele>
        <time>2018-04-10T07:45:11.999Z</time>
      </trkpt>
      <trkpt lat="46.28326" lon="2.92903">
        <ele>515.02</ele>
        <time>2018-04-10T07:45:12.999Z</time>
      </trkpt>
      <trkpt lat="46.28333" lon="2.92913">
        <ele>515.08</ele>
        <time>2018-04-10T07:45:13.999Z</time>
      </trkpt>
      <trkpt lat="46.28338" lon="2.92924">
        <ele>515.24</ele>
        <time>2018-04-10T07:45:14.999Z</time>
      </trkpt>
      <trkpt lat="46.28344" lon="2.92935">
        <ele>515.47</ele>
        <time>2018-04-10T07:45:15.999Z</time>
      </trkpt>
      <trkpt lat="46.2835" lon="2.92946">
        <ele>515.65</ele>
        <time>2018-04-10T07:45:16.999Z</time>
      </trkpt>
      <trkpt lat="46.28356" lon="2.92957">
        <ele>515.84</ele>
        <time>2018-04-10T07:45:17.999Z</time>
      </trkpt>
      <trkpt lat="46.28362" lon="2.92968">
        <ele>515.88</ele>
        <time>2018-04-10T07:45:18.999Z</time>
      </trkpt>
      <trkpt lat="46.28368" lon="2.92979">
        <ele>515.99</ele>
        <time>2018-04-10T07:45:19.999Z</time>
      </trkpt>
      <trkpt lat="46.28373" lon="2.9299">
        <ele>515.85</ele>
        <time>2018-04-10T07:45:20.999Z</time>
      </trkpt>
      <trkpt lat="46.28379" lon="2.93001">
        <ele>515.44</ele>
        <time>2018-04-10T07:45:21.999Z</time>
      </trkpt>
      <trkpt lat="46.28385" lon="2.93012">
        <ele>514.81</ele>
        <time>2018-04-10T07:45:22.999Z</time>
      </trkpt>
      <trkpt lat="46.28391" lon="2.93024">
        <ele>514.15</ele>
        <time>2018-04-10T07:45:23.999Z</time>
      </trkpt>
      <trkpt lat="46.28396" lon="2.93035">
        <ele>513.62</ele>
        <time>2018-04-10T07:45:24.999Z</time>
      </trkpt>
      <trkpt lat="46.28402" lon="2.93046">
        <ele>513.09</ele>
        <time>2018-04-10T07:45:25.999Z</time>
      </trkpt>
      <trkpt lat="46.28407" lon="2.93058">
        <ele>512.92</ele>
        <time>2018-04-10T07:45:26.999Z</time>
      </trkpt>
      <trkpt lat="46.28412" lon="2.9307">
        <ele>512.91</ele>
        <time>2018-04-10T07:45:27.999Z</time>
      </trkpt>
      <trkpt lat="46.28416" lon="2.93082">
        <ele>513.59</ele>
        <time>2018-04-10T07:45:28.999Z</time>
      </trkpt>
      <trkpt lat="46.2842" lon="2.93095">
        <ele>513.87</ele>
        <time>2018-04-10T07:45:29.999Z</time>
      </trkpt>
      <trkpt lat="46.28423" lon="2.93108">
        <ele>513.84</ele>
        <time>2018-04-10T07:45:30.999Z</time>
      </trkpt>
      <trkpt lat="46.28427" lon="2.93121">
        <ele>514.06</ele>
        <time>2018-04-10T07:45:31.999Z</time>
      </trkpt>
      <trkpt lat="46.28429" lon="2.93134">
        <ele>514.22</ele>
        <time>2018-04-10T07:45:32.999Z</time>
      </trkpt>
      <trkpt lat="46.28432" lon="2.93147">
        <ele>514.21</ele>
        <time>2018-04-10T07:45:33.999Z</time>
      </trkpt>
      <trkpt lat="46.28436" lon="2.93171">
        <ele>514.36</ele>
        <time>2018-04-10T07:45:35.999Z</time>
      </trkpt>
      <trkpt lat="46.28439" lon="2.93196">
        <ele>513.84</ele>
        <time>2018-04-10T07:45:37.999Z</time>
      </trkpt>
      <trkpt lat="46.28442" lon="2.93221">
        <ele>513.66</ele>
        <time>2018-04-10T07:45:39.999Z</time>
      </trkpt>
      <trkpt lat="46.28445" lon="2.93246">
        <ele>513.41</ele>
        <time>2018-04-10T07:45:41.999Z</time>
      </trkpt>
      <trkpt lat="46.28448" lon="2.93271">
        <ele>513</ele>
        <time>2018-04-10T07:45:43.999Z</time>
      </trkpt>
      <trkpt lat="46.2845" lon="2.93296">
        <ele>512.69</ele>
        <time>2018-04-10T07:45:45.999Z</time>
      </trkpt>
      <trkpt lat="46.28453" lon="2.9332">
        <ele>512.04</ele>
        <time>2018-04-10T07:45:47.999Z</time>
      </trkpt>
      <trkpt lat="46.28457" lon="2.93346">
        <ele>511.97</ele>
        <time>2018-04-10T07:45:49.999Z</time>
      </trkpt>
      <trkpt lat="46.2846" lon="2.93371">
        <ele>511.81</ele>
        <time>2018-04-10T07:45:51.999Z</time>
      </trkpt>
      <trkpt lat="46.28463" lon="2.93396">
        <ele>511.94</ele>
        <time>2018-04-10T07:45:53.999Z</time>
      </trkpt>
      <trkpt lat="46.28464" lon="2.93421">
        <ele>511.56</ele>
        <time>2018-04-10T07:45:55.999Z</time>
      </trkpt>
      <trkpt lat="46.28465" lon="2.93447">
        <ele>510.88</ele>
        <time>2018-04-10T07:45:57.999Z</time>
      </trkpt>
      <trkpt lat="46.28465" lon="2.9346">
        <ele>510.51</ele>
        <time>2018-04-10T07:45:58.999Z</time>
      </trkpt>
      <trkpt lat="46.28465" lon="2.93486">
        <ele>509.65</ele>
        <time>2018-04-10T07:46:00.999Z</time>
      </trkpt>
      <trkpt lat="46.28465" lon="2.93499">
        <ele>509.13</ele>
        <time>2018-04-10T07:46:01.999Z</time>
      </trkpt>
      <trkpt lat="46.28465" lon="2.93513">
        <ele>508.62</ele>
        <time>2018-04-10T07:46:02.999Z</time>
      </trkpt>
      <trkpt lat="46.28465" lon="2.93526">
        <ele>508.16</ele>
        <time>2018-04-10T07:46:03.999Z</time>
      </trkpt>
      <trkpt lat="46.28465" lon="2.9354">
        <ele>507.64</ele>
        <time>2018-04-10T07:46:04.999Z</time>
      </trkpt>
      <trkpt lat="46.28465" lon="2.93555">
        <ele>507.12</ele>
        <time>2018-04-10T07:46:05.999Z</time>
      </trkpt>
      <trkpt lat="46.28465" lon="2.93569">
        <ele>506.82</ele>
        <time>2018-04-10T07:46:06.999Z</time>
      </trkpt>
      <trkpt lat="46.28465" lon="2.93584">
        <ele>506.38</ele>
        <time>2018-04-10T07:46:07.999Z</time>
      </trkpt>
      <trkpt lat="46.28466" lon="2.93598">
        <ele>506.02</ele>
        <time>2018-04-10T07:46:08.999Z</time>
      </trkpt>
      <trkpt lat="46.28467" lon="2.93613">
        <ele>505.63</ele>
        <time>2018-04-10T07:46:09.999Z</time>
      </trkpt>
      <trkpt lat="46.2847" lon="2.93629">
        <ele>505.1</ele>
        <time>2018-04-10T07:46:10.999Z</time>
      </trkpt>
      <trkpt lat="46.28473" lon="2.93645">
        <ele>504.45</ele>
        <time>2018-04-10T07:46:11.999Z</time>
      </trkpt>
      <trkpt lat="46.28476" lon="2.93661">
        <ele>503.8</ele>
        <time>2018-04-10T07:46:12.999Z</time>
      </trkpt>
      <trkpt lat="46.28479" lon="2.93678">
        <ele>503.16</ele>
        <time>2018-04-10T07:46:13.999Z</time>
      </trkpt>
      <trkpt lat="46.28484" lon="2.93695">
        <ele>502.37</ele>
        <time>2018-04-10T07:46:14.999Z</time>
      </trkpt>
      <trkpt lat="46.28489" lon="2.93711">
        <ele>501.65</ele>
        <time>2018-04-10T07:46:15.999Z</time>
      </trkpt>
      <trkpt lat="46.28495" lon="2.93727">
        <ele>501.03</ele>
        <time>2018-04-10T07:46:16.999Z</time>
      </trkpt>
      <trkpt lat="46.28501" lon="2.93742">
        <ele>500.36</ele>
        <time>2018-04-10T07:46:17.999Z</time>
      </trkpt>
      <trkpt lat="46.28507" lon="2.93756">
        <ele>499.8</ele>
        <time>2018-04-10T07:46:18.999Z</time>
      </trkpt>
      <trkpt lat="46.28512" lon="2.9377">
        <ele>499.38</ele>
        <time>2018-04-10T07:46:19.999Z</time>
      </trkpt>
      <trkpt lat="46.28516" lon="2.93784">
        <ele>498.96</ele>
        <time>2018-04-10T07:46:20.999Z</time>
      </trkpt>
      <trkpt lat="46.28519" lon="2.93799">
        <ele>498.34</ele>
        <time>2018-04-10T07:46:21.999Z</time>
      </trkpt>
      <trkpt lat="46.28521" lon="2.93815">
        <ele>497.22</ele>
        <time>2018-04-10T07:46:22.999Z</time>
      </trkpt>
      <trkpt lat="46.2852" lon="2.93832">
        <ele>496.1</ele>
        <time>2018-04-10T07:46:23.999Z</time>
      </trkpt>
      <trkpt lat="46.28519" lon="2.93849">
        <ele>495.16</ele>
        <time>2018-04-10T07:46:24.999Z</time>
      </trkpt>
      <trkpt lat="46.28517" lon="2.93865">
        <ele>494.15</ele>
        <time>2018-04-10T07:46:25.999Z</time>
      </trkpt>
      <trkpt lat="46.28515" lon="2.93882">
        <ele>493.27</ele>
        <time>2018-04-10T07:46:26.999Z</time>
      </trkpt>
      <trkpt lat="46.28513" lon="2.93899">
        <ele>492.54</ele>
        <time>2018-04-10T07:46:27.999Z</time>
      </trkpt>
      <trkpt lat="46.28512" lon="2.93916">
        <ele>491.76</ele>
        <time>2018-04-10T07:46:28.999Z</time>
      </trkpt>
      <trkpt lat="46.2851" lon="2.93934">
        <ele>490.88</ele>
        <time>2018-04-10T07:46:29.999Z</time>
      </trkpt>
      <trkpt lat="46.28509" lon="2.93951">
        <ele>490.1</ele>
        <time>2018-04-10T07:46:30.999Z</time>
      </trkpt>
      <trkpt lat="46.28508" lon="2.93968">
        <ele>489.51</ele>
        <time>2018-04-10T07:46:31.999Z</time>
      </trkpt>
      <trkpt lat="46.28506" lon="2.93985">
        <ele>488.91</ele>
        <time>2018-04-10T07:46:32.999Z</time>
      </trkpt>
      <trkpt lat="46.28505" lon="2.94003">
        <ele>488.21</ele>
        <time>2018-04-10T07:46:33.999Z</time>
      </trkpt>
      <trkpt lat="46.28503" lon="2.9402">
        <ele>487.65</ele>
        <time>2018-04-10T07:46:34.999Z</time>
      </trkpt>
      <trkpt lat="46.28503" lon="2.94037">
        <ele>486.84</ele>
        <time>2018-04-10T07:46:35.999Z</time>
      </trkpt>
      <trkpt lat="46.28502" lon="2.94054">
        <ele>486.16</ele>
        <time>2018-04-10T07:46:36.999Z</time>
      </trkpt>
      <trkpt lat="46.285" lon="2.9407">
        <ele>485.51</ele>
        <time>2018-04-10T07:46:37.999Z</time>
      </trkpt>
      <trkpt lat="46.28499" lon="2.94087">
        <ele>484.99</ele>
        <time>2018-04-10T07:46:38.999Z</time>
      </trkpt>
      <trkpt lat="46.28498" lon="2.94104">
        <ele>484.21</ele>
        <time>2018-04-10T07:46:39.999Z</time>
      </trkpt>
      <trkpt lat="46.28497" lon="2.94121">
        <ele>483.34</ele>
        <time>2018-04-10T07:46:40.999Z</time>
      </trkpt>
      <trkpt lat="46.28497" lon="2.94138">
        <ele>482.67</ele>
        <time>2018-04-10T07:46:41.999Z</time>
      </trkpt>
      <trkpt lat="46.28499" lon="2.94155">
        <ele>482.41</ele>
        <time>2018-04-10T07:46:42.999Z</time>
      </trkpt>
      <trkpt lat="46.28502" lon="2.94171">
        <ele>481.95</ele>
        <time>2018-04-10T07:46:43.999Z</time>
      </trkpt>
      <trkpt lat="46.28505" lon="2.94187">
        <ele>481.4</ele>
        <time>2018-04-10T07:46:44.999Z</time>
      </trkpt>
      <trkpt lat="46.2851" lon="2.94202">
        <ele>480.77</ele>
        <time>2018-04-10T07:46:45.999Z</time>
      </trkpt>
      <trkpt lat="46.28515" lon="2.94217">
        <ele>480.03</ele>
        <time>2018-04-10T07:46:46.999Z</time>
      </trkpt>
      <trkpt lat="46.28521" lon="2.94232">
        <ele>479.19</ele>
        <time>2018-04-10T07:46:47.999Z</time>
      </trkpt>
      <trkpt lat="46.28526" lon="2.94247">
        <ele>478.43</ele>
        <time>2018-04-10T07:46:48.999Z</time>
      </trkpt>
      <trkpt lat="46.28531" lon="2.94262">
        <ele>477.71</ele>
        <time>2018-04-10T07:46:49.999Z</time>
      </trkpt>
      <trkpt lat="46.28536" lon="2.94277">
        <ele>477.15</ele>
        <time>2018-04-10T07:46:50.999Z</time>
      </trkpt>
      <trkpt lat="46.2854" lon="2.94293">
        <ele>476.64</ele>
        <time>2018-04-10T07:46:51.999Z</time>
      </trkpt>
      <trkpt lat="46.28545" lon="2.94308">
        <ele>476.01</ele>
        <time>2018-04-10T07:46:52.999Z</time>
      </trkpt>
      <trkpt lat="46.2855" lon="2.94323">
        <ele>475.47</ele>
        <time>2018-04-10T07:46:53.999Z</time>
      </trkpt>
      <trkpt lat="46.28555" lon="2.94339">
        <ele>475.01</ele>
        <time>2018-04-10T07:46:54.999Z</time>
      </trkpt>
      <trkpt lat="46.28559" lon="2.94355">
        <ele>474.47</ele>
        <time>2018-04-10T07:46:55.999Z</time>
      </trkpt>
      <trkpt lat="46.28563" lon="2.94371">
        <ele>473.96</ele>
        <time>2018-04-10T07:46:56.999Z</time>
      </trkpt>
      <trkpt lat="46.28567" lon="2.94387">
        <ele>473.55</ele>
        <time>2018-04-10T07:46:57.999Z</time>
      </trkpt>
      <trkpt lat="46.2857" lon="2.94403">
        <ele>473.07</ele>
        <time>2018-04-10T07:46:58.999Z</time>
      </trkpt>
      <trkpt lat="46.28573" lon="2.94419">
        <ele>472.51</ele>
        <time>2018-04-10T07:46:59.999Z</time>
      </trkpt>
      <trkpt lat="46.28575" lon="2.94436">
        <ele>471.92</ele>
        <time>2018-04-10T07:47:00.999Z</time>
      </trkpt>
      <trkpt lat="46.28577" lon="2.94452">
        <ele>471.36</ele>
        <time>2018-04-10T07:47:01.999Z</time>
      </trkpt>
      <trkpt lat="46.28579" lon="2.94468">
        <ele>470.8</ele>
        <time>2018-04-10T07:47:02.999Z</time>
      </trkpt>
      <trkpt lat="46.28581" lon="2.94485">
        <ele>470.33</ele>
        <time>2018-04-10T07:47:03.999Z</time>
      </trkpt>
      <trkpt lat="46.28582" lon="2.94502">
        <ele>469.8</ele>
        <time>2018-04-10T07:47:04.999Z</time>
      </trkpt>
      <trkpt lat="46.28584" lon="2.94518">
        <ele>469.15</ele>
        <time>2018-04-10T07:47:05.999Z</time>
      </trkpt>
      <trkpt lat="46.28585" lon="2.94535">
        <ele>468.42</ele>
        <time>2018-04-10T07:47:06.999Z</time>
      </trkpt>
      <trkpt lat="46.28587" lon="2.94551">
        <ele>467.74</ele>
        <time>2018-04-10T07:47:07.999Z</time>
      </trkpt>
      <trkpt lat="46.28588" lon="2.94568">
        <ele>467.07</ele>
        <time>2018-04-10T07:47:08.999Z</time>
      </trkpt>
      <trkpt lat="46.28589" lon="2.94585">
        <ele>466.54</ele>
        <time>2018-04-10T07:47:09.999Z</time>
      </trkpt>
      <trkpt lat="46.28591" lon="2.94603">
        <ele>465.83</ele>
        <time>2018-04-10T07:47:10.999Z</time>
      </trkpt>
      <trkpt lat="46.28592" lon="2.9462">
        <ele>465.15</ele>
        <time>2018-04-10T07:47:11.999Z</time>
      </trkpt>
      <trkpt lat="46.28592" lon="2.94638">
        <ele>464.47</ele>
        <time>2018-04-10T07:47:12.999Z</time>
      </trkpt>
      <trkpt lat="46.28591" lon="2.94655">
        <ele>463.9</ele>
        <time>2018-04-10T07:47:13.999Z</time>
      </trkpt>
      <trkpt lat="46.28589" lon="2.94672">
        <ele>463.44</ele>
        <time>2018-04-10T07:47:14.999Z</time>
      </trkpt>
      <trkpt lat="46.28585" lon="2.94689">
        <ele>462.97</ele>
        <time>2018-04-10T07:47:15.999Z</time>
      </trkpt>
      <trkpt lat="46.2858" lon="2.94707">
        <ele>462.47</ele>
        <time>2018-04-10T07:47:16.999Z</time>
      </trkpt>
      <trkpt lat="46.28575" lon="2.94723">
        <ele>461.91</ele>
        <time>2018-04-10T07:47:17.999Z</time>
      </trkpt>
      <trkpt lat="46.28571" lon="2.9474">
        <ele>461.4</ele>
        <time>2018-04-10T07:47:18.999Z</time>
      </trkpt>
      <trkpt lat="46.28566" lon="2.94756">
        <ele>460.85</ele>
        <time>2018-04-10T07:47:19.999Z</time>
      </trkpt>
      <trkpt lat="46.28561" lon="2.94773">
        <ele>460.06</ele>
        <time>2018-04-10T07:47:20.999Z</time>
      </trkpt>
      <trkpt lat="46.28557" lon="2.9479">
        <ele>459.46</ele>
        <time>2018-04-10T07:47:21.999Z</time>
      </trkpt>
      <trkpt lat="46.28553" lon="2.94806">
        <ele>458.87</ele>
        <time>2018-04-10T07:47:22.999Z</time>
      </trkpt>
      <trkpt lat="46.28549" lon="2.94823">
        <ele>458.4</ele>
        <time>2018-04-10T07:47:23.999Z</time>
      </trkpt>
      <trkpt lat="46.28546" lon="2.94839">
        <ele>457.87</ele>
        <time>2018-04-10T07:47:24.999Z</time>
      </trkpt>
      <trkpt lat="46.28542" lon="2.94855">
        <ele>457.32</ele>
        <time>2018-04-10T07:47:25.999Z</time>
      </trkpt>
      <trkpt lat="46.28539" lon="2.94871">
        <ele>456.7</ele>
        <time>2018-04-10T07:47:26.999Z</time>
      </trkpt>
      <trkpt lat="46.28535" lon="2.94887">
        <ele>456.12</ele>
        <time>2018-04-10T07:47:27.999Z</time>
      </trkpt>
      <trkpt lat="46.28531" lon="2.94904">
        <ele>455.81</ele>
        <time>2018-04-10T07:47:28.999Z</time>
      </trkpt>
      <trkpt lat="46.28526" lon="2.9492">
        <ele>455.27</ele>
        <time>2018-04-10T07:47:29.999Z</time>
      </trkpt>
      <trkpt lat="46.28523" lon="2.94936">
        <ele>454.61</ele>
        <time>2018-04-10T07:47:30.999Z</time>
      </trkpt>
      <trkpt lat="46.28519" lon="2.94951">
        <ele>453.99</ele>
        <time>2018-04-10T07:47:31.999Z</time>
      </trkpt>
      <trkpt lat="46.28516" lon="2.94967">
        <ele>453.45</ele>
        <time>2018-04-10T07:47:32.999Z</time>
      </trkpt>
      <trkpt lat="46.28512" lon="2.94983">
        <ele>452.86</ele>
        <time>2018-04-10T07:47:33.999Z</time>
      </trkpt>
      <trkpt lat="46.28509" lon="2.94999">
        <ele>452.28</ele>
        <time>2018-04-10T07:47:34.999Z</time>
      </trkpt>
      <trkpt lat="46.28505" lon="2.95015">
        <ele>451.76</ele>
        <time>2018-04-10T07:47:35.999Z</time>
      </trkpt>
      <trkpt lat="46.28501" lon="2.95031">
        <ele>451.2</ele>
        <time>2018-04-10T07:47:36.999Z</time>
      </trkpt>
      <trkpt lat="46.28497" lon="2.95047">
        <ele>450.51</ele>
        <time>2018-04-10T07:47:37.999Z</time>
      </trkpt>
      <trkpt lat="46.28494" lon="2.95063">
        <ele>450.24</ele>
        <time>2018-04-10T07:47:38.999Z</time>
      </trkpt>
      <trkpt lat="46.28489" lon="2.95079">
        <ele>449.82</ele>
        <time>2018-04-10T07:47:39.999Z</time>
      </trkpt>
      <trkpt lat="46.28486" lon="2.95095">
        <ele>449.44</ele>
        <time>2018-04-10T07:47:40.999Z</time>
      </trkpt>
      <trkpt lat="46.28482" lon="2.95111">
        <ele>448.99</ele>
        <time>2018-04-10T07:47:41.999Z</time>
      </trkpt>
      <trkpt lat="46.28479" lon="2.95128">
        <ele>448.73</ele>
        <time>2018-04-10T07:47:42.999Z</time>
      </trkpt>
      <trkpt lat="46.28475" lon="2.95144">
        <ele>448.45</ele>
        <time>2018-04-10T07:47:43.999Z</time>
      </trkpt>
      <trkpt lat="46.28471" lon="2.9516">
        <ele>448.1</ele>
        <time>2018-04-10T07:47:44.999Z</time>
      </trkpt>
      <trkpt lat="46.28468" lon="2.95175">
        <ele>447.76</ele>
        <time>2018-04-10T07:47:45.999Z</time>
      </trkpt>
      <trkpt lat="46.28465" lon="2.9519">
        <ele>447.42</ele>
        <time>2018-04-10T07:47:46.999Z</time>
      </trkpt>
      <trkpt lat="46.28462" lon="2.95204">
        <ele>447.1</ele>
        <time>2018-04-10T07:47:47.999Z</time>
      </trkpt>
      <trkpt lat="46.28458" lon="2.95219">
        <ele>446.68</ele>
        <time>2018-04-10T07:47:48.999Z</time>
      </trkpt>
      <trkpt lat="46.28454" lon="2.95234">
        <ele>446.37</ele>
        <time>2018-04-10T07:47:49.999Z</time>
      </trkpt>
      <trkpt lat="46.28451" lon="2.95249">
        <ele>445.98</ele>
        <time>2018-04-10T07:47:50.999Z</time>
      </trkpt>
      <trkpt lat="46.28448" lon="2.95264">
        <ele>445.43</ele>
        <time>2018-04-10T07:47:51.999Z</time>
      </trkpt>
      <trkpt lat="46.28445" lon="2.95279">
        <ele>444.91</ele>
        <time>2018-04-10T07:47:52.999Z</time>
      </trkpt>
      <trkpt lat="46.28441" lon="2.95293">
        <ele>444.39</ele>
        <time>2018-04-10T07:47:53.999Z</time>
      </trkpt>
      <trkpt lat="46.28437" lon="2.95308">
        <ele>443.83</ele>
        <time>2018-04-10T07:47:54.999Z</time>
      </trkpt>
      <trkpt lat="46.28434" lon="2.95322">
        <ele>443.41</ele>
        <time>2018-04-10T07:47:55.999Z</time>
      </trkpt>
      <trkpt lat="46.2843" lon="2.95336">
        <ele>442.92</ele>
        <time>2018-04-10T07:47:56.999Z</time>
      </trkpt>
      <trkpt lat="46.28426" lon="2.95351">
        <ele>442.46</ele>
        <time>2018-04-10T07:47:57.999Z</time>
      </trkpt>
      <trkpt lat="46.28423" lon="2.95365">
        <ele>442.11</ele>
        <time>2018-04-10T07:47:58.999Z</time>
      </trkpt>
      <trkpt lat="46.2842" lon="2.9538">
        <ele>441.83</ele>
        <time>2018-04-10T07:47:59.999Z</time>
      </trkpt>
      <trkpt lat="46.28416" lon="2.95395">
        <ele>441.48</ele>
        <time>2018-04-10T07:48:00.999Z</time>
      </trkpt>
      <trkpt lat="46.28413" lon="2.95409">
        <ele>441.24</ele>
        <time>2018-04-10T07:48:01.999Z</time>
      </trkpt>
      <trkpt lat="46.28409" lon="2.95424">
        <ele>440.81</ele>
        <time>2018-04-10T07:48:02.999Z</time>
      </trkpt>
      <trkpt lat="46.28406" lon="2.95438">
        <ele>440.44</ele>
        <time>2018-04-10T07:48:03.999Z</time>
      </trkpt>
      <trkpt lat="46.28402" lon="2.95453">
        <ele>439.96</ele>
        <time>2018-04-10T07:48:04.999Z</time>
      </trkpt>
      <trkpt lat="46.28397" lon="2.95467">
        <ele>439.43</ele>
        <time>2018-04-10T07:48:05.999Z</time>
      </trkpt>
      <trkpt lat="46.28394" lon="2.95482">
        <ele>438.97</ele>
        <time>2018-04-10T07:48:06.999Z</time>
      </trkpt>
      <trkpt lat="46.2839" lon="2.95498">
        <ele>438.61</ele>
        <time>2018-04-10T07:48:07.999Z</time>
      </trkpt>
      <trkpt lat="46.28387" lon="2.95512">
        <ele>438.15</ele>
        <time>2018-04-10T07:48:08.999Z</time>
      </trkpt>
      <trkpt lat="46.28383" lon="2.95527">
        <ele>437.77</ele>
        <time>2018-04-10T07:48:09.999Z</time>
      </trkpt>
      <trkpt lat="46.2838" lon="2.95541">
        <ele>437.46</ele>
        <time>2018-04-10T07:48:10.999Z</time>
      </trkpt>
      <trkpt lat="46.28377" lon="2.95555">
        <ele>437.28</ele>
        <time>2018-04-10T07:48:11.999Z</time>
      </trkpt>
      <trkpt lat="46.28374" lon="2.95568">
        <ele>437.2</ele>
        <time>2018-04-10T07:48:12.999Z</time>
      </trkpt>
      <trkpt lat="46.28371" lon="2.95581">
        <ele>436.84</ele>
        <time>2018-04-10T07:48:13.999Z</time>
      </trkpt>
      <trkpt lat="46.28365" lon="2.95605">
        <ele>436.17</ele>
        <time>2018-04-10T07:48:15.999Z</time>
      </trkpt>
      <trkpt lat="46.28359" lon="2.95628">
        <ele>435.27</ele>
        <time>2018-04-10T07:48:17.999Z</time>
      </trkpt>
      <trkpt lat="46.28352" lon="2.9565">
        <ele>434.31</ele>
        <time>2018-04-10T07:48:19.999Z</time>
      </trkpt>
      <trkpt lat="46.28347" lon="2.95672">
        <ele>433.71</ele>
        <time>2018-04-10T07:48:21.998Z</time>
      </trkpt>
      <trkpt lat="46.28341" lon="2.95693">
        <ele>433.48</ele>
        <time>2018-04-10T07:48:23.999Z</time>
      </trkpt>
      <trkpt lat="46.28339" lon="2.95714">
        <ele>434.24</ele>
        <time>2018-04-10T07:48:25.999Z</time>
      </trkpt>
      <trkpt lat="46.2834" lon="2.95735">
        <ele>434.59</ele>
        <time>2018-04-10T07:48:27.999Z</time>
      </trkpt>
      <trkpt lat="46.28347" lon="2.95757">
        <ele>434.52</ele>
        <time>2018-04-10T07:48:29.999Z</time>
      </trkpt>
      <trkpt lat="46.28356" lon="2.95775">
        <ele>434.43</ele>
        <time>2018-04-10T07:48:31.999Z</time>
      </trkpt>
      <trkpt lat="46.28366" lon="2.95792">
        <ele>434.35</ele>
        <time>2018-04-10T07:48:33.999Z</time>
      </trkpt>
      <trkpt lat="46.28377" lon="2.95809">
        <ele>434.08</ele>
        <time>2018-04-10T07:48:35.999Z</time>
      </trkpt>
      <trkpt lat="46.28387" lon="2.95827">
        <ele>433.84</ele>
        <time>2018-04-10T07:48:37.999Z</time>
      </trkpt>
      <trkpt lat="46.28397" lon="2.95847">
        <ele>434.11</ele>
        <time>2018-04-10T07:48:39.999Z</time>
      </trkpt>
      <trkpt lat="46.28408" lon="2.95866">
        <ele>434.64</ele>
        <time>2018-04-10T07:48:41.999Z</time>
      </trkpt>
      <trkpt lat="46.28418" lon="2.95886">
        <ele>435.46</ele>
        <time>2018-04-10T07:48:43.999Z</time>
      </trkpt>
      <trkpt lat="46.28428" lon="2.95907">
        <ele>436.19</ele>
        <time>2018-04-10T07:48:45.999Z</time>
      </trkpt>
      <trkpt lat="46.28434" lon="2.95917">
        <ele>436.85</ele>
        <time>2018-04-10T07:48:46.999Z</time>
      </trkpt>
      <trkpt lat="46.28445" lon="2.95937">
        <ele>437.93</ele>
        <time>2018-04-10T07:48:48.999Z</time>
      </trkpt>
      <trkpt lat="46.28459" lon="2.95954">
        <ele>438.69</ele>
        <time>2018-04-10T07:48:50.999Z</time>
      </trkpt>
      <trkpt lat="46.28466" lon="2.95963">
        <ele>438.97</ele>
        <time>2018-04-10T07:48:51.999Z</time>
      </trkpt>
      <trkpt lat="46.28474" lon="2.95971">
        <ele>439.29</ele>
        <time>2018-04-10T07:48:52.999Z</time>
      </trkpt>
      <trkpt lat="46.28481" lon="2.9598">
        <ele>439.52</ele>
        <time>2018-04-10T07:48:53.999Z</time>
      </trkpt>
      <trkpt lat="46.2849" lon="2.95987">
        <ele>439.68</ele>
        <time>2018-04-10T07:48:54.999Z</time>
      </trkpt>
      <trkpt lat="46.28499" lon="2.95994">
        <ele>440.06</ele>
        <time>2018-04-10T07:48:55.999Z</time>
      </trkpt>
      <trkpt lat="46.28508" lon="2.96001">
        <ele>440.56</ele>
        <time>2018-04-10T07:48:56.999Z</time>
      </trkpt>
      <trkpt lat="46.28516" lon="2.96007">
        <ele>440.89</ele>
        <time>2018-04-10T07:48:57.999Z</time>
      </trkpt>
      <trkpt lat="46.28525" lon="2.96014">
        <ele>441.36</ele>
        <time>2018-04-10T07:48:58.999Z</time>
      </trkpt>
      <trkpt lat="46.28533" lon="2.96021">
        <ele>441.86</ele>
        <time>2018-04-10T07:48:59.999Z</time>
      </trkpt>
      <trkpt lat="46.28541" lon="2.9603">
        <ele>442.31</ele>
        <time>2018-04-10T07:49:00.999Z</time>
      </trkpt>
      <trkpt lat="46.28549" lon="2.96039">
        <ele>442.72</ele>
        <time>2018-04-10T07:49:01.999Z</time>
      </trkpt>
      <trkpt lat="46.28556" lon="2.96048">
        <ele>443.14</ele>
        <time>2018-04-10T07:49:02.999Z</time>
      </trkpt>
      <trkpt lat="46.28564" lon="2.96058">
        <ele>443.47</ele>
        <time>2018-04-10T07:49:03.999Z</time>
      </trkpt>
      <trkpt lat="46.28571" lon="2.96069">
        <ele>443.89</ele>
        <time>2018-04-10T07:49:04.999Z</time>
      </trkpt>
      <trkpt lat="46.28578" lon="2.9608">
        <ele>444.2</ele>
        <time>2018-04-10T07:49:05.999Z</time>
      </trkpt>
      <trkpt lat="46.28584" lon="2.96092">
        <ele>444.6</ele>
        <time>2018-04-10T07:49:06.999Z</time>
      </trkpt>
      <trkpt lat="46.28591" lon="2.96104">
        <ele>444.98</ele>
        <time>2018-04-10T07:49:07.999Z</time>
      </trkpt>
      <trkpt lat="46.28597" lon="2.96116">
        <ele>445.41</ele>
        <time>2018-04-10T07:49:08.999Z</time>
      </trkpt>
      <trkpt lat="46.28605" lon="2.96125">
        <ele>445.77</ele>
        <time>2018-04-10T07:49:09.999Z</time>
      </trkpt>
      <trkpt lat="46.28612" lon="2.96135">
        <ele>446.11</ele>
        <time>2018-04-10T07:49:10.999Z</time>
      </trkpt>
      <trkpt lat="46.2862" lon="2.96144">
        <ele>446.41</ele>
        <time>2018-04-10T07:49:11.999Z</time>
      </trkpt>
      <trkpt lat="46.28629" lon="2.96152">
        <ele>446.54</ele>
        <time>2018-04-10T07:49:12.999Z</time>
      </trkpt>
      <trkpt lat="46.28639" lon="2.96159">
        <ele>446.8</ele>
        <time>2018-04-10T07:49:13.999Z</time>
      </trkpt>
      <trkpt lat="46.28648" lon="2.96166">
        <ele>446.86</ele>
        <time>2018-04-10T07:49:14.999Z</time>
      </trkpt>
      <trkpt lat="46.28658" lon="2.96172">
        <ele>447.22</ele>
        <time>2018-04-10T07:49:15.999Z</time>
      </trkpt>
      <trkpt lat="46.28668" lon="2.96178">
        <ele>447.53</ele>
        <time>2018-04-10T07:49:16.999Z</time>
      </trkpt>
      <trkpt lat="46.28677" lon="2.96186">
        <ele>447.92</ele>
        <time>2018-04-10T07:49:17.999Z</time>
      </trkpt>
      <trkpt lat="46.28685" lon="2.96195">
        <ele>448.03</ele>
        <time>2018-04-10T07:49:18.999Z</time>
      </trkpt>
      <trkpt lat="46.28692" lon="2.96205">
        <ele>448.43</ele>
        <time>2018-04-10T07:49:19.999Z</time>
      </trkpt>
      <trkpt lat="46.28698" lon="2.96215">
        <ele>448.74</ele>
        <time>2018-04-10T07:49:20.999Z</time>
      </trkpt>
      <trkpt lat="46.28707" lon="2.96236">
        <ele>449.11</ele>
        <time>2018-04-10T07:49:22.999Z</time>
      </trkpt>
      <trkpt lat="46.28713" lon="2.96256">
        <ele>449.39</ele>
        <time>2018-04-10T07:49:24.999Z</time>
      </trkpt>
      <trkpt lat="46.28717" lon="2.96273">
        <ele>449.9</ele>
        <time>2018-04-10T07:49:26.999Z</time>
      </trkpt>
      <trkpt lat="46.28722" lon="2.96286">
        <ele>450.08</ele>
        <time>2018-04-10T07:49:28.999Z</time>
      </trkpt>
      <trkpt lat="46.28725" lon="2.96301">
        <ele>450.94</ele>
        <time>2018-04-10T07:49:31.999Z</time>
      </trkpt>
      <trkpt lat="46.28729" lon="2.96316">
        <ele>451.38</ele>
        <time>2018-04-10T07:49:34.999Z</time>
      </trkpt>
      <trkpt lat="46.28734" lon="2.96331">
        <ele>452.26</ele>
        <time>2018-04-10T07:49:37.999Z</time>
      </trkpt>
      <trkpt lat="46.2874" lon="2.96346">
        <ele>453.14</ele>
        <time>2018-04-10T07:49:40.999Z</time>
      </trkpt>
      <trkpt lat="46.28748" lon="2.96361">
        <ele>454.48</ele>
        <time>2018-04-10T07:49:43.999Z</time>
      </trkpt>
      <trkpt lat="46.28758" lon="2.96371">
        <ele>457.26</ele>
        <time>2018-04-10T07:49:46.999Z</time>
      </trkpt>
      <trkpt lat="46.28766" lon="2.9638">
        <ele>461.13</ele>
        <time>2018-04-10T07:49:49.999Z</time>
      </trkpt>
      <trkpt lat="46.28774" lon="2.96389">
        <ele>464.06</ele>
        <time>2018-04-10T07:49:52.999Z</time>
      </trkpt>
      <trkpt lat="46.28784" lon="2.96401">
        <ele>466.59</ele>
        <time>2018-04-10T07:49:55.999Z</time>
      </trkpt>
      <trkpt lat="46.28793" lon="2.96412">
        <ele>469.19</ele>
        <time>2018-04-10T07:49:58.999Z</time>
      </trkpt>
      <trkpt lat="46.28803" lon="2.96425">
        <ele>471.61</ele>
        <time>2018-04-10T07:50:01.999Z</time>
      </trkpt>
      <trkpt lat="46.28813" lon="2.96438">
        <ele>473.27</ele>
        <time>2018-04-10T07:50:04.999Z</time>
      </trkpt>
      <trkpt lat="46.28822" lon="2.9645">
        <ele>474.21</ele>
        <time>2018-04-10T07:50:07.999Z</time>
      </trkpt>
      <trkpt lat="46.28828" lon="2.96459">
        <ele>474.21</ele>
        <time>2018-04-10T07:50:09.999Z</time>
      </trkpt>
      <trkpt lat="46.28835" lon="2.96468">
        <ele>474.31</ele>
        <time>2018-04-10T07:50:11.999Z</time>
      </trkpt>
      <trkpt lat="46.28845" lon="2.96481">
        <ele>474</ele>
        <time>2018-04-10T07:50:14.999Z</time>
      </trkpt>
      <trkpt lat="46.28852" lon="2.9649">
        <ele>473.9</ele>
        <time>2018-04-10T07:50:16.999Z</time>
      </trkpt>
      <trkpt lat="46.28859" lon="2.965">
        <ele>473.92</ele>
        <time>2018-04-10T07:50:18.999Z</time>
      </trkpt>
      <trkpt lat="46.28864" lon="2.96511">
        <ele>472.8</ele>
        <time>2018-04-10T07:50:20.999Z</time>
      </trkpt>
      <trkpt lat="46.28871" lon="2.96526">
        <ele>470.64</ele>
        <time>2018-04-10T07:50:23.999Z</time>
      </trkpt>
      <trkpt lat="46.28877" lon="2.96545">
        <ele>467.88</ele>
        <time>2018-04-10T07:50:27.999Z</time>
      </trkpt>
      <trkpt lat="46.2888" lon="2.96564">
        <ele>467.91</ele>
        <time>2018-04-10T07:50:30.999Z</time>
      </trkpt>
      <trkpt lat="46.28881" lon="2.96577">
        <ele>467.78</ele>
        <time>2018-04-10T07:50:32.999Z</time>
      </trkpt>
      <trkpt lat="46.28882" lon="2.96591">
        <ele>468.06</ele>
        <time>2018-04-10T07:50:34.999Z</time>
      </trkpt>
      <trkpt lat="46.28883" lon="2.96609">
        <ele>468.82</ele>
        <time>2018-04-10T07:50:37.999Z</time>
      </trkpt>
      <trkpt lat="46.28885" lon="2.96628">
        <ele>469.13</ele>
        <time>2018-04-10T07:50:40.999Z</time>
      </trkpt>
      <trkpt lat="46.28886" lon="2.96647">
        <ele>469.76</ele>
        <time>2018-04-10T07:50:43.999Z</time>
      </trkpt>
      <trkpt lat="46.28886" lon="2.96661">
        <ele>470.72</ele>
        <time>2018-04-10T07:50:45.999Z</time>
      </trkpt>
      <trkpt lat="46.28886" lon="2.96675">
        <ele>471.63</ele>
        <time>2018-04-10T07:50:47.999Z</time>
      </trkpt>
      <trkpt lat="46.28887" lon="2.9669">
        <ele>473.03</ele>
        <time>2018-04-10T07:50:49.999Z</time>
      </trkpt>
      <trkpt lat="46.28888" lon="2.96709">
        <ele>474.42</ele>
        <time>2018-04-10T07:50:52.999Z</time>
      </trkpt>
      <trkpt lat="46.28888" lon="2.96722">
        <ele>475.07</ele>
        <time>2018-04-10T07:50:54.999Z</time>
      </trkpt>
      <trkpt lat="46.28889" lon="2.96736">
        <ele>475.3</ele>
        <time>2018-04-10T07:50:56.999Z</time>
      </trkpt>
      <trkpt lat="46.2889" lon="2.96749">
        <ele>475.91</ele>
        <time>2018-04-10T07:50:58.999Z</time>
      </trkpt>
      <trkpt lat="46.2889" lon="2.96764">
        <ele>476.73</ele>
        <time>2018-04-10T07:51:00.999Z</time>
      </trkpt>
      <trkpt lat="46.28891" lon="2.96779">
        <ele>477.67</ele>
        <time>2018-04-10T07:51:02.999Z</time>
      </trkpt>
      <trkpt lat="46.28891" lon="2.96794">
        <ele>477.89</ele>
        <time>2018-04-10T07:51:04.999Z</time>
      </trkpt>
      <trkpt lat="46.28893" lon="2.96809">
        <ele>477.94</ele>
        <time>2018-04-10T07:51:06.999Z</time>
      </trkpt>
      <trkpt lat="46.28893" lon="2.96824">
        <ele>478.03</ele>
        <time>2018-04-10T07:51:08.999Z</time>
      </trkpt>
      <trkpt lat="46.28893" lon="2.9684">
        <ele>478.51</ele>
        <time>2018-04-10T07:51:10.999Z</time>
      </trkpt>
      <trkpt lat="46.28893" lon="2.96857">
        <ele>478.36</ele>
        <time>2018-04-10T07:51:12.999Z</time>
      </trkpt>
      <trkpt lat="46.28893" lon="2.96875">
        <ele>478</ele>
        <time>2018-04-10T07:51:14.999Z</time>
      </trkpt>
      <trkpt lat="46.28893" lon="2.96894">
        <ele>477.47</ele>
        <time>2018-04-10T07:51:16.999Z</time>
      </trkpt>
      <trkpt lat="46.28894" lon="2.96916">
        <ele>476.53</ele>
        <time>2018-04-10T07:51:18.999Z</time>
      </trkpt>
      <trkpt lat="46.28896" lon="2.96937">
        <ele>475.82</ele>
        <time>2018-04-10T07:51:20.999Z</time>
      </trkpt>
      <trkpt lat="46.28897" lon="2.96961">
        <ele>475.12</ele>
        <time>2018-04-10T07:51:22.999Z</time>
      </trkpt>
      <trkpt lat="46.28899" lon="2.96999">
        <ele>474.07</ele>
        <time>2018-04-10T07:51:25.999Z</time>
      </trkpt>
      <trkpt lat="46.28901" lon="2.97012">
        <ele>473.51</ele>
        <time>2018-04-10T07:51:26.999Z</time>
      </trkpt>
      <trkpt lat="46.28903" lon="2.97025">
        <ele>473.05</ele>
        <time>2018-04-10T07:51:27.999Z</time>
      </trkpt>
      <trkpt lat="46.28908" lon="2.97053">
        <ele>472.24</ele>
        <time>2018-04-10T07:51:29.999Z</time>
      </trkpt>
      <trkpt lat="46.28912" lon="2.97066">
        <ele>471.69</ele>
        <time>2018-04-10T07:51:30.999Z</time>
      </trkpt>
      <trkpt lat="46.28916" lon="2.9708">
        <ele>471.21</ele>
        <time>2018-04-10T07:51:31.999Z</time>
      </trkpt>
      <trkpt lat="46.2892" lon="2.97094">
        <ele>470.88</ele>
        <time>2018-04-10T07:51:32.999Z</time>
      </trkpt>
      <trkpt lat="46.28924" lon="2.97109">
        <ele>470.35</ele>
        <time>2018-04-10T07:51:33.999Z</time>
      </trkpt>
      <trkpt lat="46.28928" lon="2.97124">
        <ele>469.77</ele>
        <time>2018-04-10T07:51:34.999Z</time>
      </trkpt>
      <trkpt lat="46.28933" lon="2.97139">
        <ele>469.21</ele>
        <time>2018-04-10T07:51:35.999Z</time>
      </trkpt>
      <trkpt lat="46.28938" lon="2.97155">
        <ele>468.63</ele>
        <time>2018-04-10T07:51:36.999Z</time>
      </trkpt>
      <trkpt lat="46.28942" lon="2.9717">
        <ele>468.08</ele>
        <time>2018-04-10T07:51:37.999Z</time>
      </trkpt>
      <trkpt lat="46.28946" lon="2.97183">
        <ele>467.53</ele>
        <time>2018-04-10T07:51:38.999Z</time>
      </trkpt>
      <trkpt lat="46.28951" lon="2.97196">
        <ele>466.86</ele>
        <time>2018-04-10T07:51:39.999Z</time>
      </trkpt>
      <trkpt lat="46.28956" lon="2.97207">
        <ele>466.22</ele>
        <time>2018-04-10T07:51:40.999Z</time>
      </trkpt>
      <trkpt lat="46.28962" lon="2.97217">
        <ele>465.63</ele>
        <time>2018-04-10T07:51:41.999Z</time>
      </trkpt>
      <trkpt lat="46.2897" lon="2.97225">
        <ele>464.93</ele>
        <time>2018-04-10T07:51:42.999Z</time>
      </trkpt>
      <trkpt lat="46.2898" lon="2.97229">
        <ele>464.47</ele>
        <time>2018-04-10T07:51:43.999Z</time>
      </trkpt>
      <trkpt lat="46.2899" lon="2.97229">
        <ele>464.06</ele>
        <time>2018-04-10T07:51:44.999Z</time>
      </trkpt>
      <trkpt lat="46.29001" lon="2.97225">
        <ele>463.56</ele>
        <time>2018-04-10T07:51:45.999Z</time>
      </trkpt>
      <trkpt lat="46.29011" lon="2.97217">
        <ele>463.21</ele>
        <time>2018-04-10T07:51:46.999Z</time>
      </trkpt>
      <trkpt lat="46.2902" lon="2.97208">
        <ele>462.8</ele>
        <time>2018-04-10T07:51:47.999Z</time>
      </trkpt>
      <trkpt lat="46.2903" lon="2.97198">
        <ele>462.29</ele>
        <time>2018-04-10T07:51:48.999Z</time>
      </trkpt>
      <trkpt lat="46.29038" lon="2.97188">
        <ele>461.82</ele>
        <time>2018-04-10T07:51:49.999Z</time>
      </trkpt>
      <trkpt lat="46.29046" lon="2.97179">
        <ele>461.13</ele>
        <time>2018-04-10T07:51:50.999Z</time>
      </trkpt>
      <trkpt lat="46.29055" lon="2.97171">
        <ele>459.99</ele>
        <time>2018-04-10T07:51:51.999Z</time>
      </trkpt>
      <trkpt lat="46.29073" lon="2.97168">
        <ele>457.86</ele>
        <time>2018-04-10T07:51:53.999Z</time>
      </trkpt>
      <trkpt lat="46.29081" lon="2.97175">
        <ele>457.04</ele>
        <time>2018-04-10T07:51:54.999Z</time>
      </trkpt>
      <trkpt lat="46.29089" lon="2.97185">
        <ele>455.98</ele>
        <time>2018-04-10T07:51:55.999Z</time>
      </trkpt>
      <trkpt lat="46.29097" lon="2.97198">
        <ele>454.32</ele>
        <time>2018-04-10T07:51:56.999Z</time>
      </trkpt>
      <trkpt lat="46.29103" lon="2.97211">
        <ele>453.36</ele>
        <time>2018-04-10T07:51:57.999Z</time>
      </trkpt>
      <trkpt lat="46.29109" lon="2.97225">
        <ele>452.68</ele>
        <time>2018-04-10T07:51:58.999Z</time>
      </trkpt>
      <trkpt lat="46.29113" lon="2.97239">
        <ele>452.08</ele>
        <time>2018-04-10T07:51:59.999Z</time>
      </trkpt>
      <trkpt lat="46.29114" lon="2.97252">
        <ele>451.87</ele>
        <time>2018-04-10T07:52:00.999Z</time>
      </trkpt>
      <trkpt lat="46.29113" lon="2.97266">
        <ele>450.95</ele>
        <time>2018-04-10T07:52:01.999Z</time>
      </trkpt>
      <trkpt lat="46.29109" lon="2.97278">
        <ele>450.36</ele>
        <time>2018-04-10T07:52:02.999Z</time>
      </trkpt>
      <trkpt lat="46.29102" lon="2.97288">
        <ele>449.47</ele>
        <time>2018-04-10T07:52:03.999Z</time>
      </trkpt>
      <trkpt lat="46.29093" lon="2.97294">
        <ele>448.45</ele>
        <time>2018-04-10T07:52:04.999Z</time>
      </trkpt>
      <trkpt lat="46.29084" lon="2.97297">
        <ele>447.71</ele>
        <time>2018-04-10T07:52:05.999Z</time>
      </trkpt>
      <trkpt lat="46.29067" lon="2.97301">
        <ele>446.23</ele>
        <time>2018-04-10T07:52:07.999Z</time>
      </trkpt>
      <trkpt lat="46.29053" lon="2.97308">
        <ele>444.92</ele>
        <time>2018-04-10T07:52:09.999Z</time>
      </trkpt>
      <trkpt lat="46.29042" lon="2.97319">
        <ele>443.78</ele>
        <time>2018-04-10T07:52:11.999Z</time>
      </trkpt>
      <trkpt lat="46.29033" lon="2.97331">
        <ele>442.93</ele>
        <time>2018-04-10T07:52:13.999Z</time>
      </trkpt>
      <trkpt lat="46.29025" lon="2.97343">
        <ele>442.28</ele>
        <time>2018-04-10T07:52:15.999Z</time>
      </trkpt>
      <trkpt lat="46.29016" lon="2.97353">
        <ele>441.33</ele>
        <time>2018-04-10T07:52:17.999Z</time>
      </trkpt>
      <trkpt lat="46.29008" lon="2.97363">
        <ele>440.83</ele>
        <time>2018-04-10T07:52:19.999Z</time>
      </trkpt>
      <trkpt lat="46.29" lon="2.97372">
        <ele>440.55</ele>
        <time>2018-04-10T07:52:21.999Z</time>
      </trkpt>
      <trkpt lat="46.28992" lon="2.97382">
        <ele>440.64</ele>
        <time>2018-04-10T07:52:23.999Z</time>
      </trkpt>
      <trkpt lat="46.28985" lon="2.97392">
        <ele>440.53</ele>
        <time>2018-04-10T07:52:25.999Z</time>
      </trkpt>
      <trkpt lat="46.28977" lon="2.97402">
        <ele>440.24</ele>
        <time>2018-04-10T07:52:27.999Z</time>
      </trkpt>
      <trkpt lat="46.28971" lon="2.97414">
        <ele>440.35</ele>
        <time>2018-04-10T07:52:29.999Z</time>
      </trkpt>
      <trkpt lat="46.28967" lon="2.97426">
        <ele>440.71</ele>
        <time>2018-04-10T07:52:31.999Z</time>
      </trkpt>
      <trkpt lat="46.28966" lon="2.97441">
        <ele>441.58</ele>
        <time>2018-04-10T07:52:33.999Z</time>
      </trkpt>
      <trkpt lat="46.28967" lon="2.97455">
        <ele>442.51</ele>
        <time>2018-04-10T07:52:35.999Z</time>
      </trkpt>
      <trkpt lat="46.2897" lon="2.97469">
        <ele>443.41</ele>
        <time>2018-04-10T07:52:37.999Z</time>
      </trkpt>
      <trkpt lat="46.28974" lon="2.97482">
        <ele>444.63</ele>
        <time>2018-04-10T07:52:39.999Z</time>
      </trkpt>
      <trkpt lat="46.28981" lon="2.97498">
        <ele>445.98</ele>
        <time>2018-04-10T07:52:42.999Z</time>
      </trkpt>
      <trkpt lat="46.28987" lon="2.97515">
        <ele>446.31</ele>
        <time>2018-04-10T07:52:45.999Z</time>
      </trkpt>
      <trkpt lat="46.28994" lon="2.97531">
        <ele>446.14</ele>
        <time>2018-04-10T07:52:48.999Z</time>
      </trkpt>
      <trkpt lat="46.29003" lon="2.97543">
        <ele>445.74</ele>
        <time>2018-04-10T07:52:51.999Z</time>
      </trkpt>
      <trkpt lat="46.29013" lon="2.97556">
        <ele>445.64</ele>
        <time>2018-04-10T07:52:54.999Z</time>
      </trkpt>
      <trkpt lat="46.29023" lon="2.97568">
        <ele>445.52</ele>
        <time>2018-04-10T07:52:57.999Z</time>
      </trkpt>
      <trkpt lat="46.29033" lon="2.97581">
        <ele>445.62</ele>
        <time>2018-04-10T07:53:00.999Z</time>
      </trkpt>
      <trkpt lat="46.29039" lon="2.9759">
        <ele>445.83</ele>
        <time>2018-04-10T07:53:02.999Z</time>
      </trkpt>
      <trkpt lat="46.2905" lon="2.97603">
        <ele>446.77</ele>
        <time>2018-04-10T07:53:05.999Z</time>
      </trkpt>
      <trkpt lat="46.29057" lon="2.97612">
        <ele>447.39</ele>
        <time>2018-04-10T07:53:07.999Z</time>
      </trkpt>
      <trkpt lat="46.29067" lon="2.97624">
        <ele>448.21</ele>
        <time>2018-04-10T07:53:10.999Z</time>
      </trkpt>
      <trkpt lat="46.29075" lon="2.97636">
        <ele>448.81</ele>
        <time>2018-04-10T07:53:13.999Z</time>
      </trkpt>
      <trkpt lat="46.2908" lon="2.97651">
        <ele>449.79</ele>
        <time>2018-04-10T07:53:16.999Z</time>
      </trkpt>
      <trkpt lat="46.2908" lon="2.97668">
        <ele>450.99</ele>
        <time>2018-04-10T07:53:19.999Z</time>
      </trkpt>
      <trkpt lat="46.29075" lon="2.97683">
        <ele>451.74</ele>
        <time>2018-04-10T07:53:22.999Z</time>
      </trkpt>
      <trkpt lat="46.29065" lon="2.97693">
        <ele>451.9</ele>
        <time>2018-04-10T07:53:25.999Z</time>
      </trkpt>
      <trkpt lat="46.29054" lon="2.97696">
        <ele>452.12</ele>
        <time>2018-04-10T07:53:28.999Z</time>
      </trkpt>
      <trkpt lat="46.29042" lon="2.97698">
        <ele>452.2</ele>
        <time>2018-04-10T07:53:31.999Z</time>
      </trkpt>
      <trkpt lat="46.29032" lon="2.97698">
        <ele>452.49</ele>
        <time>2018-04-10T07:53:34.999Z</time>
      </trkpt>
      <trkpt lat="46.2902" lon="2.97694">
        <ele>451.57</ele>
        <time>2018-04-10T07:53:38.999Z</time>
      </trkpt>
      <trkpt lat="46.29009" lon="2.97688">
        <ele>451.86</ele>
        <time>2018-04-10T07:53:41.999Z</time>
      </trkpt>
      <trkpt lat="46.29" lon="2.97683">
        <ele>452.01</ele>
        <time>2018-04-10T07:53:43.999Z</time>
      </trkpt>
      <trkpt lat="46.2899" lon="2.97676">
        <ele>452.37</ele>
        <time>2018-04-10T07:53:45.999Z</time>
      </trkpt>
      <trkpt lat="46.2898" lon="2.9767">
        <ele>452.48</ele>
        <time>2018-04-10T07:53:47.999Z</time>
      </trkpt>
      <trkpt lat="46.28969" lon="2.97664">
        <ele>452.76</ele>
        <time>2018-04-10T07:53:49.999Z</time>
      </trkpt>
      <trkpt lat="46.28957" lon="2.97659">
        <ele>452.94</ele>
        <time>2018-04-10T07:53:51.999Z</time>
      </trkpt>
      <trkpt lat="46.28945" lon="2.97652">
        <ele>452.9</ele>
        <time>2018-04-10T07:53:53.999Z</time>
      </trkpt>
      <trkpt lat="46.28933" lon="2.97646">
        <ele>452.91</ele>
        <time>2018-04-10T07:53:55.999Z</time>
      </trkpt>
      <trkpt lat="46.2892" lon="2.97645">
        <ele>452.78</ele>
        <time>2018-04-10T07:53:57.999Z</time>
      </trkpt>
      <trkpt lat="46.28908" lon="2.9765">
        <ele>452.65</ele>
        <time>2018-04-10T07:53:59.999Z</time>
      </trkpt>
      <trkpt lat="46.28898" lon="2.9766">
        <ele>452.57</ele>
        <time>2018-04-10T07:54:01.999Z</time>
      </trkpt>
      <trkpt lat="46.28888" lon="2.97674">
        <ele>452.73</ele>
        <time>2018-04-10T07:54:03.999Z</time>
      </trkpt>
      <trkpt lat="46.2888" lon="2.97689">
        <ele>452.84</ele>
        <time>2018-04-10T07:54:05.999Z</time>
      </trkpt>
      <trkpt lat="46.28873" lon="2.97708">
        <ele>453.27</ele>
        <time>2018-04-10T07:54:07.999Z</time>
      </trkpt>
      <trkpt lat="46.28869" lon="2.9773">
        <ele>453.18</ele>
        <time>2018-04-10T07:54:09.999Z</time>
      </trkpt>
      <trkpt lat="46.28869" lon="2.97755">
        <ele>452.95</ele>
        <time>2018-04-10T07:54:11.999Z</time>
      </trkpt>
      <trkpt lat="46.28868" lon="2.97768">
        <ele>452.52</ele>
        <time>2018-04-10T07:54:12.999Z</time>
      </trkpt>
      <trkpt lat="46.28868" lon="2.97781">
        <ele>452.45</ele>
        <time>2018-04-10T07:54:13.999Z</time>
      </trkpt>
      <trkpt lat="46.28867" lon="2.97795">
        <ele>452.39</ele>
        <time>2018-04-10T07:54:14.999Z</time>
      </trkpt>
      <trkpt lat="46.28867" lon="2.97809">
        <ele>451.66</ele>
        <time>2018-04-10T07:54:15.999Z</time>
      </trkpt>
      <trkpt lat="46.28866" lon="2.97823">
        <ele>451.35</ele>
        <time>2018-04-10T07:54:16.999Z</time>
      </trkpt>
      <trkpt lat="46.28865" lon="2.97837">
        <ele>451.07</ele>
        <time>2018-04-10T07:54:17.999Z</time>
      </trkpt>
      <trkpt lat="46.28865" lon="2.97851">
        <ele>450.76</ele>
        <time>2018-04-10T07:54:18.999Z</time>
      </trkpt>
      <trkpt lat="46.28865" lon="2.97866">
        <ele>450.48</ele>
        <time>2018-04-10T07:54:19.999Z</time>
      </trkpt>
      <trkpt lat="46.28864" lon="2.97881">
        <ele>449.89</ele>
        <time>2018-04-10T07:54:20.999Z</time>
      </trkpt>
      <trkpt lat="46.28861" lon="2.97895">
        <ele>449.56</ele>
        <time>2018-04-10T07:54:21.999Z</time>
      </trkpt>
      <trkpt lat="46.28857" lon="2.9791">
        <ele>449.07</ele>
        <time>2018-04-10T07:54:22.999Z</time>
      </trkpt>
      <trkpt lat="46.28852" lon="2.97923">
        <ele>448.64</ele>
        <time>2018-04-10T07:54:23.999Z</time>
      </trkpt>
      <trkpt lat="46.28845" lon="2.97936">
        <ele>448.47</ele>
        <time>2018-04-10T07:54:24.999Z</time>
      </trkpt>
      <trkpt lat="46.28835" lon="2.97946">
        <ele>448.22</ele>
        <time>2018-04-10T07:54:25.999Z</time>
      </trkpt>
      <trkpt lat="46.28825" lon="2.97953">
        <ele>447.95</ele>
        <time>2018-04-10T07:54:26.999Z</time>
      </trkpt>
      <trkpt lat="46.28814" lon="2.97957">
        <ele>447.45</ele>
        <time>2018-04-10T07:54:27.999Z</time>
      </trkpt>
      <trkpt lat="46.28803" lon="2.97961">
        <ele>447.13</ele>
        <time>2018-04-10T07:54:28.999Z</time>
      </trkpt>
      <trkpt lat="46.28791" lon="2.97964">
        <ele>446.48</ele>
        <time>2018-04-10T07:54:29.999Z</time>
      </trkpt>
      <trkpt lat="46.28781" lon="2.97968">
        <ele>445.6</ele>
        <time>2018-04-10T07:54:30.999Z</time>
      </trkpt>
      <trkpt lat="46.2877" lon="2.97971">
        <ele>445.03</ele>
        <time>2018-04-10T07:54:31.999Z</time>
      </trkpt>
      <trkpt lat="46.28761" lon="2.97976">
        <ele>444.37</ele>
        <time>2018-04-10T07:54:32.999Z</time>
      </trkpt>
      <trkpt lat="46.28751" lon="2.9798">
        <ele>443.78</ele>
        <time>2018-04-10T07:54:33.999Z</time>
      </trkpt>
      <trkpt lat="46.28741" lon="2.97984">
        <ele>443.37</ele>
        <time>2018-04-10T07:54:34.999Z</time>
      </trkpt>
      <trkpt lat="46.28731" lon="2.97988">
        <ele>442.71</ele>
        <time>2018-04-10T07:54:35.999Z</time>
      </trkpt>
      <trkpt lat="46.28722" lon="2.97991">
        <ele>441.97</ele>
        <time>2018-04-10T07:54:36.999Z</time>
      </trkpt>
      <trkpt lat="46.28712" lon="2.97995">
        <ele>441.16</ele>
        <time>2018-04-10T07:54:37.999Z</time>
      </trkpt>
      <trkpt lat="46.28702" lon="2.97999">
        <ele>440.01</ele>
        <time>2018-04-10T07:54:38.999Z</time>
      </trkpt>
      <trkpt lat="46.28693" lon="2.98002">
        <ele>439.03</ele>
        <time>2018-04-10T07:54:39.999Z</time>
      </trkpt>
      <trkpt lat="46.28683" lon="2.98006">
        <ele>437.82</ele>
        <time>2018-04-10T07:54:40.999Z</time>
      </trkpt>
      <trkpt lat="46.28672" lon="2.98009">
        <ele>436.55</ele>
        <time>2018-04-10T07:54:41.999Z</time>
      </trkpt>
      <trkpt lat="46.28663" lon="2.98013">
        <ele>435.34</ele>
        <time>2018-04-10T07:54:42.999Z</time>
      </trkpt>
      <trkpt lat="46.28652" lon="2.98017">
        <ele>434.5</ele>
        <time>2018-04-10T07:54:43.999Z</time>
      </trkpt>
      <trkpt lat="46.28642" lon="2.98021">
        <ele>433.5</ele>
        <time>2018-04-10T07:54:44.999Z</time>
      </trkpt>
      <trkpt lat="46.28632" lon="2.98024">
        <ele>432.61</ele>
        <time>2018-04-10T07:54:45.999Z</time>
      </trkpt>
      <trkpt lat="46.28622" lon="2.98028">
        <ele>431.89</ele>
        <time>2018-04-10T07:54:46.999Z</time>
      </trkpt>
      <trkpt lat="46.28612" lon="2.9803">
        <ele>430.99</ele>
        <time>2018-04-10T07:54:47.999Z</time>
      </trkpt>
      <trkpt lat="46.28602" lon="2.98031">
        <ele>430.47</ele>
        <time>2018-04-10T07:54:48.999Z</time>
      </trkpt>
      <trkpt lat="46.2859" lon="2.98031">
        <ele>429.84</ele>
        <time>2018-04-10T07:54:49.999Z</time>
      </trkpt>
      <trkpt lat="46.2858" lon="2.9803">
        <ele>429.29</ele>
        <time>2018-04-10T07:54:50.999Z</time>
      </trkpt>
      <trkpt lat="46.28569" lon="2.98027">
        <ele>428.95</ele>
        <time>2018-04-10T07:54:51.999Z</time>
      </trkpt>
      <trkpt lat="46.28558" lon="2.98024">
        <ele>428.62</ele>
        <time>2018-04-10T07:54:52.999Z</time>
      </trkpt>
      <trkpt lat="46.28547" lon="2.98021">
        <ele>427.85</ele>
        <time>2018-04-10T07:54:53.999Z</time>
      </trkpt>
      <trkpt lat="46.28537" lon="2.98017">
        <ele>427.12</ele>
        <time>2018-04-10T07:54:54.999Z</time>
      </trkpt>
      <trkpt lat="46.28526" lon="2.98014">
        <ele>426.38</ele>
        <time>2018-04-10T07:54:55.999Z</time>
      </trkpt>
      <trkpt lat="46.28516" lon="2.9801">
        <ele>425.53</ele>
        <time>2018-04-10T07:54:56.999Z</time>
      </trkpt>
      <trkpt lat="46.28506" lon="2.98007">
        <ele>424.7</ele>
        <time>2018-04-10T07:54:57.999Z</time>
      </trkpt>
      <trkpt lat="46.28496" lon="2.98003">
        <ele>424.29</ele>
        <time>2018-04-10T07:54:58.999Z</time>
      </trkpt>
      <trkpt lat="46.28486" lon="2.98">
        <ele>423.86</ele>
        <time>2018-04-10T07:54:59.999Z</time>
      </trkpt>
      <trkpt lat="46.28476" lon="2.97997">
        <ele>423.47</ele>
        <time>2018-04-10T07:55:00.999Z</time>
      </trkpt>
      <trkpt lat="46.28466" lon="2.97996">
        <ele>423.11</ele>
        <time>2018-04-10T07:55:01.999Z</time>
      </trkpt>
      <trkpt lat="46.28457" lon="2.97996">
        <ele>423.16</ele>
        <time>2018-04-10T07:55:02.999Z</time>
      </trkpt>
      <trkpt lat="46.28448" lon="2.98">
        <ele>422.73</ele>
        <time>2018-04-10T07:55:03.999Z</time>
      </trkpt>
      <trkpt lat="46.28439" lon="2.98006">
        <ele>422.05</ele>
        <time>2018-04-10T07:55:04.999Z</time>
      </trkpt>
      <trkpt lat="46.2843" lon="2.98014">
        <ele>421.47</ele>
        <time>2018-04-10T07:55:05.999Z</time>
      </trkpt>
      <trkpt lat="46.28422" lon="2.98024">
        <ele>420.65</ele>
        <time>2018-04-10T07:55:06.999Z</time>
      </trkpt>
      <trkpt lat="46.28414" lon="2.98033">
        <ele>420.05</ele>
        <time>2018-04-10T07:55:07.999Z</time>
      </trkpt>
      <trkpt lat="46.28406" lon="2.98042">
        <ele>419.44</ele>
        <time>2018-04-10T07:55:08.999Z</time>
      </trkpt>
      <trkpt lat="46.28399" lon="2.98051">
        <ele>418.89</ele>
        <time>2018-04-10T07:55:09.999Z</time>
      </trkpt>
      <trkpt lat="46.28392" lon="2.9806">
        <ele>418.44</ele>
        <time>2018-04-10T07:55:10.999Z</time>
      </trkpt>
      <trkpt lat="46.28384" lon="2.98069">
        <ele>417.88</ele>
        <time>2018-04-10T07:55:11.999Z</time>
      </trkpt>
      <trkpt lat="46.28376" lon="2.98077">
        <ele>417.45</ele>
        <time>2018-04-10T07:55:12.999Z</time>
      </trkpt>
      <trkpt lat="46.28368" lon="2.98086">
        <ele>417.04</ele>
        <time>2018-04-10T07:55:13.999Z</time>
      </trkpt>
      <trkpt lat="46.28361" lon="2.98095">
        <ele>416.59</ele>
        <time>2018-04-10T07:55:14.999Z</time>
      </trkpt>
      <trkpt lat="46.28354" lon="2.98103">
        <ele>416.17</ele>
        <time>2018-04-10T07:55:15.999Z</time>
      </trkpt>
      <trkpt lat="46.28346" lon="2.98112">
        <ele>415.78</ele>
        <time>2018-04-10T07:55:16.999Z</time>
      </trkpt>
      <trkpt lat="46.28339" lon="2.98121">
        <ele>415.33</ele>
        <time>2018-04-10T07:55:17.999Z</time>
      </trkpt>
      <trkpt lat="46.28331" lon="2.98129">
        <ele>414.92</ele>
        <time>2018-04-10T07:55:18.999Z</time>
      </trkpt>
      <trkpt lat="46.28323" lon="2.98137">
        <ele>414.53</ele>
        <time>2018-04-10T07:55:19.999Z</time>
      </trkpt>
      <trkpt lat="46.28315" lon="2.98144">
        <ele>414.29</ele>
        <time>2018-04-10T07:55:20.999Z</time>
      </trkpt>
      <trkpt lat="46.28305" lon="2.9815">
        <ele>414.14</ele>
        <time>2018-04-10T07:55:21.999Z</time>
      </trkpt>
      <trkpt lat="46.28295" lon="2.98154">
        <ele>413.84</ele>
        <time>2018-04-10T07:55:22.999Z</time>
      </trkpt>
      <trkpt lat="46.28284" lon="2.98155">
        <ele>414.3</ele>
        <time>2018-04-10T07:55:23.999Z</time>
      </trkpt>
      <trkpt lat="46.28274" lon="2.98155">
        <ele>414.28</ele>
        <time>2018-04-10T07:55:24.999Z</time>
      </trkpt>
      <trkpt lat="46.28264" lon="2.98154">
        <ele>414.25</ele>
        <time>2018-04-10T07:55:25.999Z</time>
      </trkpt>
      <trkpt lat="46.28254" lon="2.98153">
        <ele>414.2</ele>
        <time>2018-04-10T07:55:26.999Z</time>
      </trkpt>
      <trkpt lat="46.28244" lon="2.98153">
        <ele>413.9</ele>
        <time>2018-04-10T07:55:27.999Z</time>
      </trkpt>
      <trkpt lat="46.28235" lon="2.98152">
        <ele>413.71</ele>
        <time>2018-04-10T07:55:28.999Z</time>
      </trkpt>
      <trkpt lat="46.28225" lon="2.98152">
        <ele>413.57</ele>
        <time>2018-04-10T07:55:29.999Z</time>
      </trkpt>
      <trkpt lat="46.28216" lon="2.98151">
        <ele>413.31</ele>
        <time>2018-04-10T07:55:30.999Z</time>
      </trkpt>
      <trkpt lat="46.28207" lon="2.98151">
        <ele>413.23</ele>
        <time>2018-04-10T07:55:31.999Z</time>
      </trkpt>
      <trkpt lat="46.28197" lon="2.9815">
        <ele>413.06</ele>
        <time>2018-04-10T07:55:32.999Z</time>
      </trkpt>
      <trkpt lat="46.28188" lon="2.9815">
        <ele>412.99</ele>
        <time>2018-04-10T07:55:33.999Z</time>
      </trkpt>
      <trkpt lat="46.28178" lon="2.9815">
        <ele>412.77</ele>
        <time>2018-04-10T07:55:34.999Z</time>
      </trkpt>
      <trkpt lat="46.28169" lon="2.9815">
        <ele>412.52</ele>
        <time>2018-04-10T07:55:35.999Z</time>
      </trkpt>
      <trkpt lat="46.28159" lon="2.9815">
        <ele>412.29</ele>
        <time>2018-04-10T07:55:36.999Z</time>
      </trkpt>
      <trkpt lat="46.2815" lon="2.98149">
        <ele>412</ele>
        <time>2018-04-10T07:55:37.999Z</time>
      </trkpt>
      <trkpt lat="46.2814" lon="2.98149">
        <ele>411.7</ele>
        <time>2018-04-10T07:55:38.999Z</time>
      </trkpt>
      <trkpt lat="46.28131" lon="2.98148">
        <ele>411.34</ele>
        <time>2018-04-10T07:55:39.999Z</time>
      </trkpt>
      <trkpt lat="46.28122" lon="2.98147">
        <ele>411.03</ele>
        <time>2018-04-10T07:55:40.999Z</time>
      </trkpt>
      <trkpt lat="46.28112" lon="2.98145">
        <ele>410.66</ele>
        <time>2018-04-10T07:55:41.999Z</time>
      </trkpt>
      <trkpt lat="46.28103" lon="2.98142">
        <ele>410.29</ele>
        <time>2018-04-10T07:55:42.999Z</time>
      </trkpt>
      <trkpt lat="46.28093" lon="2.98139">
        <ele>410.01</ele>
        <time>2018-04-10T07:55:43.999Z</time>
      </trkpt>
      <trkpt lat="46.28084" lon="2.98134">
        <ele>409.71</ele>
        <time>2018-04-10T07:55:44.999Z</time>
      </trkpt>
      <trkpt lat="46.28075" lon="2.98128">
        <ele>409.19</ele>
        <time>2018-04-10T07:55:45.999Z</time>
      </trkpt>
      <trkpt lat="46.28067" lon="2.98122">
        <ele>408.57</ele>
        <time>2018-04-10T07:55:46.999Z</time>
      </trkpt>
      <trkpt lat="46.28058" lon="2.98115">
        <ele>408.09</ele>
        <time>2018-04-10T07:55:47.999Z</time>
      </trkpt>
      <trkpt lat="46.2805" lon="2.98109">
        <ele>407.63</ele>
        <time>2018-04-10T07:55:48.999Z</time>
      </trkpt>
      <trkpt lat="46.28042" lon="2.98103">
        <ele>407.01</ele>
        <time>2018-04-10T07:55:49.999Z</time>
      </trkpt>
      <trkpt lat="46.28034" lon="2.98096">
        <ele>406.4</ele>
        <time>2018-04-10T07:55:50.999Z</time>
      </trkpt>
      <trkpt lat="46.28018" lon="2.98083">
        <ele>405.09</ele>
        <time>2018-04-10T07:55:52.999Z</time>
      </trkpt>
      <trkpt lat="46.2801" lon="2.98077">
        <ele>404.69</ele>
        <time>2018-04-10T07:55:53.999Z</time>
      </trkpt>
      <trkpt lat="46.27995" lon="2.98065">
        <ele>403.99</ele>
        <time>2018-04-10T07:55:55.999Z</time>
      </trkpt>
      <trkpt lat="46.2798" lon="2.98052">
        <ele>403.64</ele>
        <time>2018-04-10T07:55:57.999Z</time>
      </trkpt>
      <trkpt lat="46.27969" lon="2.98039">
        <ele>403.68</ele>
        <time>2018-04-10T07:55:59.999Z</time>
      </trkpt>
      <trkpt lat="46.27961" lon="2.98024">
        <ele>403.87</ele>
        <time>2018-04-10T07:56:01.999Z</time>
      </trkpt>
      <trkpt lat="46.27956" lon="2.98009">
        <ele>403.51</ele>
        <time>2018-04-10T07:56:03.999Z</time>
      </trkpt>
      <trkpt lat="46.2795" lon="2.97995">
        <ele>403.45</ele>
        <time>2018-04-10T07:56:05.999Z</time>
      </trkpt>
      <trkpt lat="46.27945" lon="2.9798">
        <ele>403.14</ele>
        <time>2018-04-10T07:56:07.999Z</time>
      </trkpt>
      <trkpt lat="46.2794" lon="2.97965">
        <ele>402.88</ele>
        <time>2018-04-10T07:56:09.999Z</time>
      </trkpt>
      <trkpt lat="46.27934" lon="2.97952">
        <ele>402.91</ele>
        <time>2018-04-10T07:56:11.999Z</time>
      </trkpt>
      <trkpt lat="46.27929" lon="2.97938">
        <ele>403.18</ele>
        <time>2018-04-10T07:56:13.999Z</time>
      </trkpt>
      <trkpt lat="46.27923" lon="2.97925">
        <ele>403.1</ele>
        <time>2018-04-10T07:56:15.999Z</time>
      </trkpt>
      <trkpt lat="46.27918" lon="2.97913">
        <ele>403.13</ele>
        <time>2018-04-10T07:56:17.999Z</time>
      </trkpt>
      <trkpt lat="46.2791" lon="2.97902">
        <ele>403.54</ele>
        <time>2018-04-10T07:56:19.999Z</time>
      </trkpt>
      <trkpt lat="46.279" lon="2.97891">
        <ele>404.33</ele>
        <time>2018-04-10T07:56:21.999Z</time>
      </trkpt>
      <trkpt lat="46.2789" lon="2.97885">
        <ele>404.85</ele>
        <time>2018-04-10T07:56:23.999Z</time>
      </trkpt>
      <trkpt lat="46.2788" lon="2.9788">
        <ele>405.1</ele>
        <time>2018-04-10T07:56:25.999Z</time>
      </trkpt>
      <trkpt lat="46.27869" lon="2.97879">
        <ele>405.94</ele>
        <time>2018-04-10T07:56:27.999Z</time>
      </trkpt>
      <trkpt lat="46.27859" lon="2.97884">
        <ele>406.56</ele>
        <time>2018-04-10T07:56:29.999Z</time>
      </trkpt>
      <trkpt lat="46.27849" lon="2.97892">
        <ele>407.2</ele>
        <time>2018-04-10T07:56:31.999Z</time>
      </trkpt>
      <trkpt lat="46.2784" lon="2.97901">
        <ele>407.88</ele>
        <time>2018-04-10T07:56:33.999Z</time>
      </trkpt>
      <trkpt lat="46.27831" lon="2.97908">
        <ele>408.85</ele>
        <time>2018-04-10T07:56:35.999Z</time>
      </trkpt>
      <trkpt lat="46.2782" lon="2.97911">
        <ele>409.39</ele>
        <time>2018-04-10T07:56:37.999Z</time>
      </trkpt>
      <trkpt lat="46.27807" lon="2.9791">
        <ele>409.74</ele>
        <time>2018-04-10T07:56:40.999Z</time>
      </trkpt>
      <trkpt lat="46.27795" lon="2.97907">
        <ele>411.18</ele>
        <time>2018-04-10T07:56:42.999Z</time>
      </trkpt>
      <trkpt lat="46.27785" lon="2.97904">
        <ele>412.51</ele>
        <time>2018-04-10T07:56:44.999Z</time>
      </trkpt>
      <trkpt lat="46.27775" lon="2.97901">
        <ele>413.73</ele>
        <time>2018-04-10T07:56:46.999Z</time>
      </trkpt>
      <trkpt lat="46.27763" lon="2.97898">
        <ele>415.41</ele>
        <time>2018-04-10T07:56:48.999Z</time>
      </trkpt>
      <trkpt lat="46.27752" lon="2.97896">
        <ele>416.26</ele>
        <time>2018-04-10T07:56:50.999Z</time>
      </trkpt>
      <trkpt lat="46.27742" lon="2.97891">
        <ele>417.04</ele>
        <time>2018-04-10T07:56:52.999Z</time>
      </trkpt>
      <trkpt lat="46.27731" lon="2.97885">
        <ele>417.84</ele>
        <time>2018-04-10T07:56:54.999Z</time>
      </trkpt>
      <trkpt lat="46.2772" lon="2.97878">
        <ele>419.17</ele>
        <time>2018-04-10T07:56:56.999Z</time>
      </trkpt>
      <trkpt lat="46.2771" lon="2.9787">
        <ele>419.18</ele>
        <time>2018-04-10T07:56:58.999Z</time>
      </trkpt>
      <trkpt lat="46.277" lon="2.97862">
        <ele>418.65</ele>
        <time>2018-04-10T07:57:00.999Z</time>
      </trkpt>
      <trkpt lat="46.27692" lon="2.97852">
        <ele>418.52</ele>
        <time>2018-04-10T07:57:02.999Z</time>
      </trkpt>
      <trkpt lat="46.27683" lon="2.97842">
        <ele>418.82</ele>
        <time>2018-04-10T07:57:04.999Z</time>
      </trkpt>
      <trkpt lat="46.27674" lon="2.97832">
        <ele>418.66</ele>
        <time>2018-04-10T07:57:06.999Z</time>
      </trkpt>
      <trkpt lat="46.27665" lon="2.97821">
        <ele>418.53</ele>
        <time>2018-04-10T07:57:08.999Z</time>
      </trkpt>
      <trkpt lat="46.27656" lon="2.97812">
        <ele>418.53</ele>
        <time>2018-04-10T07:57:10.999Z</time>
      </trkpt>
      <trkpt lat="46.27647" lon="2.97802">
        <ele>418.66</ele>
        <time>2018-04-10T07:57:12.999Z</time>
      </trkpt>
      <trkpt lat="46.27638" lon="2.97794">
        <ele>419.55</ele>
        <time>2018-04-10T07:57:14.999Z</time>
      </trkpt>
      <trkpt lat="46.27629" lon="2.97787">
        <ele>420.42</ele>
        <time>2018-04-10T07:57:16.999Z</time>
      </trkpt>
      <trkpt lat="46.27618" lon="2.97783">
        <ele>421.18</ele>
        <time>2018-04-10T07:57:18.999Z</time>
      </trkpt>
      <trkpt lat="46.27608" lon="2.97784">
        <ele>421.55</ele>
        <time>2018-04-10T07:57:20.999Z</time>
      </trkpt>
      <trkpt lat="46.27597" lon="2.97787">
        <ele>421.69</ele>
        <time>2018-04-10T07:57:22.999Z</time>
      </trkpt>
      <trkpt lat="46.27586" lon="2.9779">
        <ele>421.52</ele>
        <time>2018-04-10T07:57:24.999Z</time>
      </trkpt>
      <trkpt lat="46.27574" lon="2.9779">
        <ele>421.59</ele>
        <time>2018-04-10T07:57:26.999Z</time>
      </trkpt>
      <trkpt lat="46.27564" lon="2.97786">
        <ele>422.12</ele>
        <time>2018-04-10T07:57:28.999Z</time>
      </trkpt>
      <trkpt lat="46.27554" lon="2.97777">
        <ele>422.54</ele>
        <time>2018-04-10T07:57:30.999Z</time>
      </trkpt>
      <trkpt lat="46.27545" lon="2.97767">
        <ele>422.57</ele>
        <time>2018-04-10T07:57:32.999Z</time>
      </trkpt>
      <trkpt lat="46.27538" lon="2.97757">
        <ele>422.43</ele>
        <time>2018-04-10T07:57:34.999Z</time>
      </trkpt>
      <trkpt lat="46.2753" lon="2.97747">
        <ele>422.93</ele>
        <time>2018-04-10T07:57:36.999Z</time>
      </trkpt>
      <trkpt lat="46.27522" lon="2.97739">
        <ele>422.83</ele>
        <time>2018-04-10T07:57:38.999Z</time>
      </trkpt>
      <trkpt lat="46.27514" lon="2.97731">
        <ele>423.07</ele>
        <time>2018-04-10T07:57:40.999Z</time>
      </trkpt>
      <trkpt lat="46.27505" lon="2.97724">
        <ele>423.65</ele>
        <time>2018-04-10T07:57:42.999Z</time>
      </trkpt>
      <trkpt lat="46.27496" lon="2.97718">
        <ele>424.23</ele>
        <time>2018-04-10T07:57:44.999Z</time>
      </trkpt>
      <trkpt lat="46.27486" lon="2.97715">
        <ele>424.69</ele>
        <time>2018-04-10T07:57:46.999Z</time>
      </trkpt>
      <trkpt lat="46.27475" lon="2.97715">
        <ele>424.75</ele>
        <time>2018-04-10T07:57:48.999Z</time>
      </trkpt>
      <trkpt lat="46.27465" lon="2.97716">
        <ele>425.02</ele>
        <time>2018-04-10T07:57:50.999Z</time>
      </trkpt>
      <trkpt lat="46.27455" lon="2.97717">
        <ele>425.22</ele>
        <time>2018-04-10T07:57:52.999Z</time>
      </trkpt>
      <trkpt lat="46.27445" lon="2.97719">
        <ele>425.42</ele>
        <time>2018-04-10T07:57:54.999Z</time>
      </trkpt>
      <trkpt lat="46.27435" lon="2.97723">
        <ele>425.42</ele>
        <time>2018-04-10T07:57:56.999Z</time>
      </trkpt>
      <trkpt lat="46.27426" lon="2.97727">
        <ele>425.42</ele>
        <time>2018-04-10T07:57:58.999Z</time>
      </trkpt>
      <trkpt lat="46.27416" lon="2.97732">
        <ele>425.67</ele>
        <time>2018-04-10T07:58:00.999Z</time>
      </trkpt>
      <trkpt lat="46.27407" lon="2.97737">
        <ele>425.68</ele>
        <time>2018-04-10T07:58:02.999Z</time>
      </trkpt>
      <trkpt lat="46.27398" lon="2.9774">
        <ele>426.14</ele>
        <time>2018-04-10T07:58:04.999Z</time>
      </trkpt>
      <trkpt lat="46.27388" lon="2.97744">
        <ele>427.13</ele>
        <time>2018-04-10T07:58:06.999Z</time>
      </trkpt>
      <trkpt lat="46.27379" lon="2.97748">
        <ele>427.61</ele>
        <time>2018-04-10T07:58:08.999Z</time>
      </trkpt>
      <trkpt lat="46.2737" lon="2.9775">
        <ele>427.65</ele>
        <time>2018-04-10T07:58:10.999Z</time>
      </trkpt>
      <trkpt lat="46.27357" lon="2.97747">
        <ele>427.14</ele>
        <time>2018-04-10T07:58:13.999Z</time>
      </trkpt>
      <trkpt lat="46.2735" lon="2.97739">
        <ele>426.56</ele>
        <time>2018-04-10T07:58:15.999Z</time>
      </trkpt>
      <trkpt lat="46.27344" lon="2.97721">
        <ele>425.73</ele>
        <time>2018-04-10T07:58:18.999Z</time>
      </trkpt>
      <trkpt lat="46.27344" lon="2.97708">
        <ele>425.93</ele>
        <time>2018-04-10T07:58:20.999Z</time>
      </trkpt>
      <trkpt lat="46.27349" lon="2.97692">
        <ele>426.7</ele>
        <time>2018-04-10T07:58:23.999Z</time>
      </trkpt>
      <trkpt lat="46.27355" lon="2.97677">
        <ele>427.78</ele>
        <time>2018-04-10T07:58:26.999Z</time>
      </trkpt>
      <trkpt lat="46.27358" lon="2.97658">
        <ele>428.82</ele>
        <time>2018-04-10T07:58:29.999Z</time>
      </trkpt>
      <trkpt lat="46.27355" lon="2.97639">
        <ele>429.66</ele>
        <time>2018-04-10T07:58:32.999Z</time>
      </trkpt>
      <trkpt lat="46.27351" lon="2.97627">
        <ele>430.53</ele>
        <time>2018-04-10T07:58:34.999Z</time>
      </trkpt>
      <trkpt lat="46.27344" lon="2.97611">
        <ele>431.17</ele>
        <time>2018-04-10T07:58:37.999Z</time>
      </trkpt>
      <trkpt lat="46.27336" lon="2.97596">
        <ele>431.58</ele>
        <time>2018-04-10T07:58:40.999Z</time>
      </trkpt>
      <trkpt lat="46.27326" lon="2.97584">
        <ele>432.68</ele>
        <time>2018-04-10T07:58:43.999Z</time>
      </trkpt>
      <trkpt lat="46.27315" lon="2.97573">
        <ele>434.1</ele>
        <time>2018-04-10T07:58:46.999Z</time>
      </trkpt>
      <trkpt lat="46.27307" lon="2.97567">
        <ele>434.7</ele>
        <time>2018-04-10T07:58:48.999Z</time>
      </trkpt>
      <trkpt lat="46.27299" lon="2.9756">
        <ele>435.35</ele>
        <time>2018-04-10T07:58:50.999Z</time>
      </trkpt>
      <trkpt lat="46.27292" lon="2.97552">
        <ele>435.57</ele>
        <time>2018-04-10T07:58:52.999Z</time>
      </trkpt>
      <trkpt lat="46.27282" lon="2.97539">
        <ele>435.35</ele>
        <time>2018-04-10T07:58:55.999Z</time>
      </trkpt>
      <trkpt lat="46.27273" lon="2.97527">
        <ele>434.56</ele>
        <time>2018-04-10T07:58:58.999Z</time>
      </trkpt>
      <trkpt lat="46.27265" lon="2.97513">
        <ele>434.7</ele>
        <time>2018-04-10T07:59:01.999Z</time>
      </trkpt>
      <trkpt lat="46.27256" lon="2.97502">
        <ele>435.21</ele>
        <time>2018-04-10T07:59:04.999Z</time>
      </trkpt>
      <trkpt lat="46.27246" lon="2.97492">
        <ele>435.61</ele>
        <time>2018-04-10T07:59:07.999Z</time>
      </trkpt>
      <trkpt lat="46.27235" lon="2.97484">
        <ele>436.67</ele>
        <time>2018-04-10T07:59:10.999Z</time>
      </trkpt>
      <trkpt lat="46.27222" lon="2.97478">
        <ele>437.66</ele>
        <time>2018-04-10T07:59:13.999Z</time>
      </trkpt>
      <trkpt lat="46.27211" lon="2.97473">
        <ele>437.58</ele>
        <time>2018-04-10T07:59:16.999Z</time>
      </trkpt>
      <trkpt lat="46.27198" lon="2.97468">
        <ele>437.55</ele>
        <time>2018-04-10T07:59:19.999Z</time>
      </trkpt>
      <trkpt lat="46.2719" lon="2.97464">
        <ele>437.68</ele>
        <time>2018-04-10T07:59:21.999Z</time>
      </trkpt>
      <trkpt lat="46.27174" lon="2.97458">
        <ele>438.03</ele>
        <time>2018-04-10T07:59:25.999Z</time>
      </trkpt>
      <trkpt lat="46.27163" lon="2.97452">
        <ele>437.98</ele>
        <time>2018-04-10T07:59:28.999Z</time>
      </trkpt>
      <trkpt lat="46.27152" lon="2.97446">
        <ele>437.23</ele>
        <time>2018-04-10T07:59:31.999Z</time>
      </trkpt>
      <trkpt lat="46.27142" lon="2.97436">
        <ele>436.79</ele>
        <time>2018-04-10T07:59:34.999Z</time>
      </trkpt>
      <trkpt lat="46.27132" lon="2.97424">
        <ele>436.62</ele>
        <time>2018-04-10T07:59:37.999Z</time>
      </trkpt>
      <trkpt lat="46.27122" lon="2.97413">
        <ele>436.2</ele>
        <time>2018-04-10T07:59:40.999Z</time>
      </trkpt>
      <trkpt lat="46.2711" lon="2.97403">
        <ele>436.51</ele>
        <time>2018-04-10T07:59:43.999Z</time>
      </trkpt>
      <trkpt lat="46.27098" lon="2.97397">
        <ele>437.3</ele>
        <time>2018-04-10T07:59:46.999Z</time>
      </trkpt>
      <trkpt lat="46.27089" lon="2.97393">
        <ele>438.89</ele>
        <time>2018-04-10T07:59:48.999Z</time>
      </trkpt>
      <trkpt lat="46.27077" lon="2.97389">
        <ele>439.6</ele>
        <time>2018-04-10T07:59:51.999Z</time>
      </trkpt>
      <trkpt lat="46.27063" lon="2.97386">
        <ele>440.58</ele>
        <time>2018-04-10T07:59:54.999Z</time>
      </trkpt>
      <trkpt lat="46.27051" lon="2.97388">
        <ele>441.3</ele>
        <time>2018-04-10T07:59:57.999Z</time>
      </trkpt>
      <trkpt lat="46.27038" lon="2.97389">
        <ele>441.76</ele>
        <time>2018-04-10T08:00:00.999Z</time>
      </trkpt>
      <trkpt lat="46.27026" lon="2.97386">
        <ele>442.26</ele>
        <time>2018-04-10T08:00:03.999Z</time>
      </trkpt>
      <trkpt lat="46.27015" lon="2.97379">
        <ele>442.31</ele>
        <time>2018-04-10T08:00:06.999Z</time>
      </trkpt>
      <trkpt lat="46.27004" lon="2.9737">
        <ele>441.94</ele>
        <time>2018-04-10T08:00:09.999Z</time>
      </trkpt>
      <trkpt lat="46.26993" lon="2.97363">
        <ele>442.42</ele>
        <time>2018-04-10T08:00:12.999Z</time>
      </trkpt>
      <trkpt lat="46.26981" lon="2.97358">
        <ele>442.76</ele>
        <time>2018-04-10T08:00:15.999Z</time>
      </trkpt>
      <trkpt lat="46.26969" lon="2.97355">
        <ele>443.49</ele>
        <time>2018-04-10T08:00:18.999Z</time>
      </trkpt>
      <trkpt lat="46.26956" lon="2.97353">
        <ele>444.65</ele>
        <time>2018-04-10T08:00:21.999Z</time>
      </trkpt>
      <trkpt lat="46.26947" lon="2.97353">
        <ele>445.03</ele>
        <time>2018-04-10T08:00:23.999Z</time>
      </trkpt>
      <trkpt lat="46.26934" lon="2.97353">
        <ele>446.6</ele>
        <time>2018-04-10T08:00:26.999Z</time>
      </trkpt>
      <trkpt lat="46.26922" lon="2.97357">
        <ele>448.13</ele>
        <time>2018-04-10T08:00:29.999Z</time>
      </trkpt>
      <trkpt lat="46.26911" lon="2.97364">
        <ele>449.85</ele>
        <time>2018-04-10T08:00:32.999Z</time>
      </trkpt>
      <trkpt lat="46.26901" lon="2.97374">
        <ele>450.7</ele>
        <time>2018-04-10T08:00:35.999Z</time>
      </trkpt>
      <trkpt lat="46.26891" lon="2.97384">
        <ele>451.44</ele>
        <time>2018-04-10T08:00:38.999Z</time>
      </trkpt>
      <trkpt lat="46.2688" lon="2.97392">
        <ele>451.96</ele>
        <time>2018-04-10T08:00:41.999Z</time>
      </trkpt>
      <trkpt lat="46.26868" lon="2.97396">
        <ele>452.86</ele>
        <time>2018-04-10T08:00:44.999Z</time>
      </trkpt>
      <trkpt lat="46.26856" lon="2.97398">
        <ele>454.08</ele>
        <time>2018-04-10T08:00:47.999Z</time>
      </trkpt>
      <trkpt lat="46.26844" lon="2.97404">
        <ele>453.91</ele>
        <time>2018-04-10T08:00:50.999Z</time>
      </trkpt>
      <trkpt lat="46.26834" lon="2.97414">
        <ele>454.23</ele>
        <time>2018-04-10T08:00:53.999Z</time>
      </trkpt>
      <trkpt lat="46.26825" lon="2.97427">
        <ele>455.08</ele>
        <time>2018-04-10T08:00:56.999Z</time>
      </trkpt>
      <trkpt lat="46.26819" lon="2.97441">
        <ele>456.18</ele>
        <time>2018-04-10T08:00:59.999Z</time>
      </trkpt>
      <trkpt lat="46.26814" lon="2.97457">
        <ele>456.99</ele>
        <time>2018-04-10T08:01:02.999Z</time>
      </trkpt>
      <trkpt lat="46.26811" lon="2.97473">
        <ele>457.66</ele>
        <time>2018-04-10T08:01:05.999Z</time>
      </trkpt>
      <trkpt lat="46.2681" lon="2.97491">
        <ele>458.15</ele>
        <time>2018-04-10T08:01:08.999Z</time>
      </trkpt>
      <trkpt lat="46.26809" lon="2.9751">
        <ele>458.36</ele>
        <time>2018-04-10T08:01:11.999Z</time>
      </trkpt>
      <trkpt lat="46.26807" lon="2.97529">
        <ele>458.49</ele>
        <time>2018-04-10T08:01:14.999Z</time>
      </trkpt>
      <trkpt lat="46.26805" lon="2.97548">
        <ele>458.62</ele>
        <time>2018-04-10T08:01:17.999Z</time>
      </trkpt>
      <trkpt lat="46.26802" lon="2.97565">
        <ele>458.75</ele>
        <time>2018-04-10T08:01:20.999Z</time>
      </trkpt>
      <trkpt lat="46.26798" lon="2.97582">
        <ele>459.15</ele>
        <time>2018-04-10T08:01:23.999Z</time>
      </trkpt>
      <trkpt lat="46.26792" lon="2.97597">
        <ele>460.71</ele>
        <time>2018-04-10T08:01:26.999Z</time>
      </trkpt>
      <trkpt lat="46.26785" lon="2.97611">
        <ele>462</ele>
        <time>2018-04-10T08:01:29.999Z</time>
      </trkpt>
      <trkpt lat="46.26778" lon="2.97626">
        <ele>462.85</ele>
        <time>2018-04-10T08:01:32.999Z</time>
      </trkpt>
      <trkpt lat="46.26772" lon="2.97641">
        <ele>464.23</ele>
        <time>2018-04-10T08:01:35.999Z</time>
      </trkpt>
      <trkpt lat="46.26765" lon="2.97656">
        <ele>464.95</ele>
        <time>2018-04-10T08:01:38.999Z</time>
      </trkpt>
      <trkpt lat="46.26757" lon="2.9767">
        <ele>465.45</ele>
        <time>2018-04-10T08:01:41.999Z</time>
      </trkpt>
      <trkpt lat="46.26749" lon="2.97686">
        <ele>465.42</ele>
        <time>2018-04-10T08:01:44.999Z</time>
      </trkpt>
      <trkpt lat="46.26745" lon="2.97699">
        <ele>465.94</ele>
        <time>2018-04-10T08:01:46.999Z</time>
      </trkpt>
      <trkpt lat="46.26738" lon="2.97715">
        <ele>466.54</ele>
        <time>2018-04-10T08:01:49.999Z</time>
      </trkpt>
      <trkpt lat="46.26731" lon="2.9773">
        <ele>466.83</ele>
        <time>2018-04-10T08:01:52.999Z</time>
      </trkpt>
      <trkpt lat="46.26726" lon="2.97742">
        <ele>466.95</ele>
        <time>2018-04-10T08:01:54.999Z</time>
      </trkpt>
      <trkpt lat="46.26719" lon="2.97757">
        <ele>467.39</ele>
        <time>2018-04-10T08:01:57.999Z</time>
      </trkpt>
      <trkpt lat="46.26708" lon="2.97763">
        <ele>467.37</ele>
        <time>2018-04-10T08:02:00.999Z</time>
      </trkpt>
      <trkpt lat="46.26697" lon="2.97762">
        <ele>467.79</ele>
        <time>2018-04-10T08:02:02.999Z</time>
      </trkpt>
      <trkpt lat="46.26687" lon="2.97761">
        <ele>467.97</ele>
        <time>2018-04-10T08:02:04.999Z</time>
      </trkpt>
      <trkpt lat="46.26678" lon="2.97761">
        <ele>468.85</ele>
        <time>2018-04-10T08:02:06.999Z</time>
      </trkpt>
      <trkpt lat="46.26669" lon="2.9776">
        <ele>469.17</ele>
        <time>2018-04-10T08:02:08.999Z</time>
      </trkpt>
      <trkpt lat="46.26657" lon="2.97755">
        <ele>469.89</ele>
        <time>2018-04-10T08:02:11.999Z</time>
      </trkpt>
      <trkpt lat="46.26669" lon="2.9776">
        <ele>469.29</ele>
        <time>2018-04-10T08:02:20.999Z</time>
      </trkpt>
      <trkpt lat="46.26679" lon="2.97761">
        <ele>467.69</ele>
        <time>2018-04-10T08:02:22.999Z</time>
      </trkpt>
      <trkpt lat="46.2669" lon="2.97762">
        <ele>467.19</ele>
        <time>2018-04-10T08:02:24.999Z</time>
      </trkpt>
      <trkpt lat="46.267" lon="2.97763">
        <ele>467.15</ele>
        <time>2018-04-10T08:02:26.999Z</time>
      </trkpt>
      <trkpt lat="46.26709" lon="2.97773">
        <ele>467.52</ele>
        <time>2018-04-10T08:02:29.999Z</time>
      </trkpt>
      <trkpt lat="46.26703" lon="2.97791">
        <ele>467.69</ele>
        <time>2018-04-10T08:02:32.999Z</time>
      </trkpt>
      <trkpt lat="46.26696" lon="2.97802">
        <ele>468.03</ele>
        <time>2018-04-10T08:02:34.999Z</time>
      </trkpt>
      <trkpt lat="46.2669" lon="2.97812">
        <ele>468.64</ele>
        <time>2018-04-10T08:02:36.999Z</time>
      </trkpt>
      <trkpt lat="46.26684" lon="2.97822">
        <ele>469.3</ele>
        <time>2018-04-10T08:02:38.999Z</time>
      </trkpt>
      <trkpt lat="46.26677" lon="2.97832">
        <ele>469.58</ele>
        <time>2018-04-10T08:02:40.999Z</time>
      </trkpt>
      <trkpt lat="46.2667" lon="2.97843">
        <ele>469.34</ele>
        <time>2018-04-10T08:02:42.999Z</time>
      </trkpt>
      <trkpt lat="46.26663" lon="2.97855">
        <ele>468.98</ele>
        <time>2018-04-10T08:02:44.999Z</time>
      </trkpt>
      <trkpt lat="46.26656" lon="2.97866">
        <ele>468.86</ele>
        <time>2018-04-10T08:02:46.999Z</time>
      </trkpt>
      <trkpt lat="46.26648" lon="2.97878">
        <ele>468.71</ele>
        <time>2018-04-10T08:02:48.999Z</time>
      </trkpt>
      <trkpt lat="46.2664" lon="2.9789">
        <ele>468.49</ele>
        <time>2018-04-10T08:02:50.999Z</time>
      </trkpt>
      <trkpt lat="46.26633" lon="2.97903">
        <ele>468.39</ele>
        <time>2018-04-10T08:02:52.999Z</time>
      </trkpt>
      <trkpt lat="46.26625" lon="2.97915">
        <ele>468.26</ele>
        <time>2018-04-10T08:02:54.999Z</time>
      </trkpt>
      <trkpt lat="46.26617" lon="2.97927">
        <ele>468.23</ele>
        <time>2018-04-10T08:02:56.999Z</time>
      </trkpt>
      <trkpt lat="46.26609" lon="2.9794">
        <ele>468.37</ele>
        <time>2018-04-10T08:02:58.999Z</time>
      </trkpt>
      <trkpt lat="46.26601" lon="2.97952">
        <ele>468.74</ele>
        <time>2018-04-10T08:03:00.999Z</time>
      </trkpt>
      <trkpt lat="46.26594" lon="2.97965">
        <ele>469.17</ele>
        <time>2018-04-10T08:03:02.999Z</time>
      </trkpt>
      <trkpt lat="46.26586" lon="2.97977">
        <ele>469.45</ele>
        <time>2018-04-10T08:03:04.999Z</time>
      </trkpt>
      <trkpt lat="46.26578" lon="2.97989">
        <ele>469.62</ele>
        <time>2018-04-10T08:03:06.999Z</time>
      </trkpt>
      <trkpt lat="46.26571" lon="2.98002">
        <ele>469.47</ele>
        <time>2018-04-10T08:03:08.999Z</time>
      </trkpt>
      <trkpt lat="46.26563" lon="2.98016">
        <ele>469.41</ele>
        <time>2018-04-10T08:03:10.999Z</time>
      </trkpt>
      <trkpt lat="46.26555" lon="2.98029">
        <ele>469.67</ele>
        <time>2018-04-10T08:03:12.999Z</time>
      </trkpt>
      <trkpt lat="46.26547" lon="2.98042">
        <ele>470.1</ele>
        <time>2018-04-10T08:03:14.999Z</time>
      </trkpt>
      <trkpt lat="46.26539" lon="2.98055">
        <ele>470.44</ele>
        <time>2018-04-10T08:03:16.999Z</time>
      </trkpt>
      <trkpt lat="46.26531" lon="2.98069">
        <ele>470.9</ele>
        <time>2018-04-10T08:03:18.999Z</time>
      </trkpt>
      <trkpt lat="46.26523" lon="2.98082">
        <ele>471.04</ele>
        <time>2018-04-10T08:03:20.999Z</time>
      </trkpt>
      <trkpt lat="46.26515" lon="2.98094">
        <ele>471.09</ele>
        <time>2018-04-10T08:03:22.999Z</time>
      </trkpt>
      <trkpt lat="46.26508" lon="2.98106">
        <ele>471.23</ele>
        <time>2018-04-10T08:03:24.999Z</time>
      </trkpt>
      <trkpt lat="46.265" lon="2.98119">
        <ele>471.42</ele>
        <time>2018-04-10T08:03:26.999Z</time>
      </trkpt>
      <trkpt lat="46.26493" lon="2.98131">
        <ele>471.75</ele>
        <time>2018-04-10T08:03:28.999Z</time>
      </trkpt>
      <trkpt lat="46.26485" lon="2.98143">
        <ele>472.15</ele>
        <time>2018-04-10T08:03:30.999Z</time>
      </trkpt>
      <trkpt lat="46.26478" lon="2.98156">
        <ele>472.1</ele>
        <time>2018-04-10T08:03:32.999Z</time>
      </trkpt>
      <trkpt lat="46.2647" lon="2.98169">
        <ele>472.55</ele>
        <time>2018-04-10T08:03:34.999Z</time>
      </trkpt>
      <trkpt lat="46.26462" lon="2.98182">
        <ele>472.97</ele>
        <time>2018-04-10T08:03:36.999Z</time>
      </trkpt>
      <trkpt lat="46.26453" lon="2.98196">
        <ele>472.82</ele>
        <time>2018-04-10T08:03:38.999Z</time>
      </trkpt>
      <trkpt lat="46.26444" lon="2.98209">
        <ele>472.72</ele>
        <time>2018-04-10T08:03:40.999Z</time>
      </trkpt>
      <trkpt lat="46.26436" lon="2.98222">
        <ele>472.53</ele>
        <time>2018-04-10T08:03:42.999Z</time>
      </trkpt>
      <trkpt lat="46.26427" lon="2.98236">
        <ele>472.17</ele>
        <time>2018-04-10T08:03:44.999Z</time>
      </trkpt>
      <trkpt lat="46.26418" lon="2.98249">
        <ele>472.26</ele>
        <time>2018-04-10T08:03:46.999Z</time>
      </trkpt>
      <trkpt lat="46.26409" lon="2.98262">
        <ele>472.35</ele>
        <time>2018-04-10T08:03:48.999Z</time>
      </trkpt>
      <trkpt lat="46.264" lon="2.98276">
        <ele>472.2</ele>
        <time>2018-04-10T08:03:50.999Z</time>
      </trkpt>
      <trkpt lat="46.26392" lon="2.98289">
        <ele>472.02</ele>
        <time>2018-04-10T08:03:52.999Z</time>
      </trkpt>
      <trkpt lat="46.26384" lon="2.98303">
        <ele>471.77</ele>
        <time>2018-04-10T08:03:54.999Z</time>
      </trkpt>
      <trkpt lat="46.26375" lon="2.98317">
        <ele>471.5</ele>
        <time>2018-04-10T08:03:56.999Z</time>
      </trkpt>
      <trkpt lat="46.26366" lon="2.98331">
        <ele>471.51</ele>
        <time>2018-04-10T08:03:58.999Z</time>
      </trkpt>
      <trkpt lat="46.26358" lon="2.98345">
        <ele>471.42</ele>
        <time>2018-04-10T08:04:00.999Z</time>
      </trkpt>
      <trkpt lat="46.26349" lon="2.98358">
        <ele>471.36</ele>
        <time>2018-04-10T08:04:02.999Z</time>
      </trkpt>
      <trkpt lat="46.26341" lon="2.98372">
        <ele>471.71</ele>
        <time>2018-04-10T08:04:04.999Z</time>
      </trkpt>
      <trkpt lat="46.26332" lon="2.98386">
        <ele>471.58</ele>
        <time>2018-04-10T08:04:06.999Z</time>
      </trkpt>
      <trkpt lat="46.26323" lon="2.98401">
        <ele>471.43</ele>
        <time>2018-04-10T08:04:08.999Z</time>
      </trkpt>
      <trkpt lat="46.26315" lon="2.98414">
        <ele>471.31</ele>
        <time>2018-04-10T08:04:10.999Z</time>
      </trkpt>
      <trkpt lat="46.26307" lon="2.98427">
        <ele>470.96</ele>
        <time>2018-04-10T08:04:12.999Z</time>
      </trkpt>
      <trkpt lat="46.26299" lon="2.9844">
        <ele>470.93</ele>
        <time>2018-04-10T08:04:14.999Z</time>
      </trkpt>
      <trkpt lat="46.26291" lon="2.98452">
        <ele>471.16</ele>
        <time>2018-04-10T08:04:16.999Z</time>
      </trkpt>
      <trkpt lat="46.26283" lon="2.98464">
        <ele>471.46</ele>
        <time>2018-04-10T08:04:18.999Z</time>
      </trkpt>
      <trkpt lat="46.26277" lon="2.98475">
        <ele>471.76</ele>
        <time>2018-04-10T08:04:20.999Z</time>
      </trkpt>
      <trkpt lat="46.2627" lon="2.98485">
        <ele>472.14</ele>
        <time>2018-04-10T08:04:22.999Z</time>
      </trkpt>
      <trkpt lat="46.26263" lon="2.98496">
        <ele>472.35</ele>
        <time>2018-04-10T08:04:24.999Z</time>
      </trkpt>
      <trkpt lat="46.26257" lon="2.98506">
        <ele>472.97</ele>
        <time>2018-04-10T08:04:26.999Z</time>
      </trkpt>
      <trkpt lat="46.26251" lon="2.98517">
        <ele>473.76</ele>
        <time>2018-04-10T08:04:28.999Z</time>
      </trkpt>
      <trkpt lat="46.26245" lon="2.98526">
        <ele>474.2</ele>
        <time>2018-04-10T08:04:30.999Z</time>
      </trkpt>
      <trkpt lat="46.26239" lon="2.98536">
        <ele>474.42</ele>
        <time>2018-04-10T08:04:32.999Z</time>
      </trkpt>
      <trkpt lat="46.26232" lon="2.98547">
        <ele>474.54</ele>
        <time>2018-04-10T08:04:34.999Z</time>
      </trkpt>
      <trkpt lat="46.26226" lon="2.98557">
        <ele>474.66</ele>
        <time>2018-04-10T08:04:36.999Z</time>
      </trkpt>
      <trkpt lat="46.26219" lon="2.98568">
        <ele>474.84</ele>
        <time>2018-04-10T08:04:38.999Z</time>
      </trkpt>
      <trkpt lat="46.26213" lon="2.98578">
        <ele>474.98</ele>
        <time>2018-04-10T08:04:40.999Z</time>
      </trkpt>
      <trkpt lat="46.26206" lon="2.98588">
        <ele>474.94</ele>
        <time>2018-04-10T08:04:42.999Z</time>
      </trkpt>
      <trkpt lat="46.26199" lon="2.98598">
        <ele>475.2</ele>
        <time>2018-04-10T08:04:44.999Z</time>
      </trkpt>
      <trkpt lat="46.26193" lon="2.98608">
        <ele>475.9</ele>
        <time>2018-04-10T08:04:46.999Z</time>
      </trkpt>
      <trkpt lat="46.26187" lon="2.98618">
        <ele>476.22</ele>
        <time>2018-04-10T08:04:48.999Z</time>
      </trkpt>
      <trkpt lat="46.2618" lon="2.98629">
        <ele>476.53</ele>
        <time>2018-04-10T08:04:50.999Z</time>
      </trkpt>
      <trkpt lat="46.26173" lon="2.9864">
        <ele>476.96</ele>
        <time>2018-04-10T08:04:52.999Z</time>
      </trkpt>
      <trkpt lat="46.26167" lon="2.98651">
        <ele>477.3</ele>
        <time>2018-04-10T08:04:54.999Z</time>
      </trkpt>
      <trkpt lat="46.2616" lon="2.98662">
        <ele>477.8</ele>
        <time>2018-04-10T08:04:56.999Z</time>
      </trkpt>
      <trkpt lat="46.26154" lon="2.98672">
        <ele>478.14</ele>
        <time>2018-04-10T08:04:58.999Z</time>
      </trkpt>
      <trkpt lat="46.26147" lon="2.98683">
        <ele>478.24</ele>
        <time>2018-04-10T08:05:00.999Z</time>
      </trkpt>
      <trkpt lat="46.2614" lon="2.98694">
        <ele>478.4</ele>
        <time>2018-04-10T08:05:02.999Z</time>
      </trkpt>
      <trkpt lat="46.26134" lon="2.98704">
        <ele>478.57</ele>
        <time>2018-04-10T08:05:04.999Z</time>
      </trkpt>
      <trkpt lat="46.26128" lon="2.98716">
        <ele>478.62</ele>
        <time>2018-04-10T08:05:06.999Z</time>
      </trkpt>
      <trkpt lat="46.26122" lon="2.98727">
        <ele>478.85</ele>
        <time>2018-04-10T08:05:08.999Z</time>
      </trkpt>
      <trkpt lat="46.26115" lon="2.98738">
        <ele>479.04</ele>
        <time>2018-04-10T08:05:10.999Z</time>
      </trkpt>
      <trkpt lat="46.26111" lon="2.98749">
        <ele>479.42</ele>
        <time>2018-04-10T08:05:12.999Z</time>
      </trkpt>
      <trkpt lat="46.26104" lon="2.98765">
        <ele>479.74</ele>
        <time>2018-04-10T08:05:15.999Z</time>
      </trkpt>
      <trkpt lat="46.26098" lon="2.98782">
        <ele>480.19</ele>
        <time>2018-04-10T08:05:18.999Z</time>
      </trkpt>
      <trkpt lat="46.26092" lon="2.98799">
        <ele>480.56</ele>
        <time>2018-04-10T08:05:21.999Z</time>
      </trkpt>
      <trkpt lat="46.26086" lon="2.98817">
        <ele>481</ele>
        <time>2018-04-10T08:05:24.999Z</time>
      </trkpt>
      <trkpt lat="46.26081" lon="2.98834">
        <ele>481.75</ele>
        <time>2018-04-10T08:05:27.999Z</time>
      </trkpt>
      <trkpt lat="46.26076" lon="2.98851">
        <ele>482.54</ele>
        <time>2018-04-10T08:05:30.999Z</time>
      </trkpt>
      <trkpt lat="46.26072" lon="2.98866">
        <ele>483</ele>
        <time>2018-04-10T08:05:33.999Z</time>
      </trkpt>
      <trkpt lat="46.26067" lon="2.98882">
        <ele>483.54</ele>
        <time>2018-04-10T08:05:36.999Z</time>
      </trkpt>
      <trkpt lat="46.26062" lon="2.98898">
        <ele>484.14</ele>
        <time>2018-04-10T08:05:39.999Z</time>
      </trkpt>
      <trkpt lat="46.26057" lon="2.98913">
        <ele>484.63</ele>
        <time>2018-04-10T08:05:42.999Z</time>
      </trkpt>
      <trkpt lat="46.26053" lon="2.98928">
        <ele>485.16</ele>
        <time>2018-04-10T08:05:45.999Z</time>
      </trkpt>
      <trkpt lat="46.26047" lon="2.98943">
        <ele>485.33</ele>
        <time>2018-04-10T08:05:48.999Z</time>
      </trkpt>
      <trkpt lat="46.26042" lon="2.98959">
        <ele>485.6</ele>
        <time>2018-04-10T08:05:51.999Z</time>
      </trkpt>
      <trkpt lat="46.26037" lon="2.98976">
        <ele>486.17</ele>
        <time>2018-04-10T08:05:54.999Z</time>
      </trkpt>
      <trkpt lat="46.26032" lon="2.98992">
        <ele>486.81</ele>
        <time>2018-04-10T08:05:57.999Z</time>
      </trkpt>
      <trkpt lat="46.26025" lon="2.9901">
        <ele>487.65</ele>
        <time>2018-04-10T08:06:00.999Z</time>
      </trkpt>
      <trkpt lat="46.26021" lon="2.99022">
        <ele>488.01</ele>
        <time>2018-04-10T08:06:02.999Z</time>
      </trkpt>
      <trkpt lat="46.26015" lon="2.9904">
        <ele>488.06</ele>
        <time>2018-04-10T08:06:05.999Z</time>
      </trkpt>
      <trkpt lat="46.2601" lon="2.99057">
        <ele>488.94</ele>
        <time>2018-04-10T08:06:08.999Z</time>
      </trkpt>
      <trkpt lat="46.26004" lon="2.99074">
        <ele>489.34</ele>
        <time>2018-04-10T08:06:11.999Z</time>
      </trkpt>
      <trkpt lat="46.25998" lon="2.99091">
        <ele>490.29</ele>
        <time>2018-04-10T08:06:14.999Z</time>
      </trkpt>
      <trkpt lat="46.25994" lon="2.99104">
        <ele>491.18</ele>
        <time>2018-04-10T08:06:16.999Z</time>
      </trkpt>
      <trkpt lat="46.25989" lon="2.99121">
        <ele>492.27</ele>
        <time>2018-04-10T08:06:19.999Z</time>
      </trkpt>
      <trkpt lat="46.25983" lon="2.99137">
        <ele>493.4</ele>
        <time>2018-04-10T08:06:22.999Z</time>
      </trkpt>
      <trkpt lat="46.25978" lon="2.99154">
        <ele>494.24</ele>
        <time>2018-04-10T08:06:25.999Z</time>
      </trkpt>
      <trkpt lat="46.25972" lon="2.99171">
        <ele>495.22</ele>
        <time>2018-04-10T08:06:28.999Z</time>
      </trkpt>
      <trkpt lat="46.25969" lon="2.99183">
        <ele>495.81</ele>
        <time>2018-04-10T08:06:30.999Z</time>
      </trkpt>
      <trkpt lat="46.25965" lon="2.99197">
        <ele>496.4</ele>
        <time>2018-04-10T08:06:32.999Z</time>
      </trkpt>
      <trkpt lat="46.25961" lon="2.9921">
        <ele>496.92</ele>
        <time>2018-04-10T08:06:34.999Z</time>
      </trkpt>
      <trkpt lat="46.25957" lon="2.99225">
        <ele>497.32</ele>
        <time>2018-04-10T08:06:36.999Z</time>
      </trkpt>
      <trkpt lat="46.25952" lon="2.99239">
        <ele>497.61</ele>
        <time>2018-04-10T08:06:38.999Z</time>
      </trkpt>
      <trkpt lat="46.25948" lon="2.99253">
        <ele>497.55</ele>
        <time>2018-04-10T08:06:40.999Z</time>
      </trkpt>
      <trkpt lat="46.25943" lon="2.99266">
        <ele>497.61</ele>
        <time>2018-04-10T08:06:42.999Z</time>
      </trkpt>
      <trkpt lat="46.2594" lon="2.99279">
        <ele>497.94</ele>
        <time>2018-04-10T08:06:44.999Z</time>
      </trkpt>
      <trkpt lat="46.25936" lon="2.99291">
        <ele>497.85</ele>
        <time>2018-04-10T08:06:46.999Z</time>
      </trkpt>
      <trkpt lat="46.25932" lon="2.99303">
        <ele>497.76</ele>
        <time>2018-04-10T08:06:48.999Z</time>
      </trkpt>
      <trkpt lat="46.25928" lon="2.99317">
        <ele>497.5</ele>
        <time>2018-04-10T08:06:50.998Z</time>
      </trkpt>
      <trkpt lat="46.25924" lon="2.9933">
        <ele>497.36</ele>
        <time>2018-04-10T08:06:52.999Z</time>
      </trkpt>
      <trkpt lat="46.2592" lon="2.99344">
        <ele>497.21</ele>
        <time>2018-04-10T08:06:54.999Z</time>
      </trkpt>
      <trkpt lat="46.25916" lon="2.99358">
        <ele>497.04</ele>
        <time>2018-04-10T08:06:56.999Z</time>
      </trkpt>
      <trkpt lat="46.25912" lon="2.99372">
        <ele>496.69</ele>
        <time>2018-04-10T08:06:58.999Z</time>
      </trkpt>
      <trkpt lat="46.25909" lon="2.99386">
        <ele>496.01</ele>
        <time>2018-04-10T08:07:00.999Z</time>
      </trkpt>
      <trkpt lat="46.25905" lon="2.994">
        <ele>495.83</ele>
        <time>2018-04-10T08:07:02.999Z</time>
      </trkpt>
      <trkpt lat="46.25901" lon="2.99416">
        <ele>495.77</ele>
        <time>2018-04-10T08:07:04.999Z</time>
      </trkpt>
      <trkpt lat="46.25897" lon="2.99432">
        <ele>495.82</ele>
        <time>2018-04-10T08:07:06.999Z</time>
      </trkpt>
      <trkpt lat="46.25892" lon="2.99449">
        <ele>496.53</ele>
        <time>2018-04-10T08:07:08.999Z</time>
      </trkpt>
      <trkpt lat="46.25888" lon="2.99467">
        <ele>496.3</ele>
        <time>2018-04-10T08:07:10.999Z</time>
      </trkpt>
      <trkpt lat="46.25884" lon="2.99484">
        <ele>495.94</ele>
        <time>2018-04-10T08:07:12.999Z</time>
      </trkpt>
      <trkpt lat="46.2588" lon="2.99502">
        <ele>495.94</ele>
        <time>2018-04-10T08:07:14.999Z</time>
      </trkpt>
      <trkpt lat="46.25876" lon="2.9952">
        <ele>495.8</ele>
        <time>2018-04-10T08:07:16.999Z</time>
      </trkpt>
      <trkpt lat="46.25872" lon="2.99538">
        <ele>495.77</ele>
        <time>2018-04-10T08:07:18.999Z</time>
      </trkpt>
      <trkpt lat="46.25868" lon="2.99556">
        <ele>495.74</ele>
        <time>2018-04-10T08:07:20.999Z</time>
      </trkpt>
      <trkpt lat="46.25863" lon="2.99573">
        <ele>495.77</ele>
        <time>2018-04-10T08:07:22.999Z</time>
      </trkpt>
      <trkpt lat="46.25859" lon="2.99592">
        <ele>495.45</ele>
        <time>2018-04-10T08:07:24.999Z</time>
      </trkpt>
      <trkpt lat="46.25854" lon="2.99611">
        <ele>495.05</ele>
        <time>2018-04-10T08:07:26.999Z</time>
      </trkpt>
      <trkpt lat="46.25849" lon="2.99631">
        <ele>494.63</ele>
        <time>2018-04-10T08:07:28.999Z</time>
      </trkpt>
      <trkpt lat="46.25843" lon="2.99651">
        <ele>494.3</ele>
        <time>2018-04-10T08:07:30.999Z</time>
      </trkpt>
      <trkpt lat="46.25838" lon="2.99672">
        <ele>493.78</ele>
        <time>2018-04-10T08:07:32.999Z</time>
      </trkpt>
      <trkpt lat="46.2583" lon="2.99693">
        <ele>492.91</ele>
        <time>2018-04-10T08:07:34.999Z</time>
      </trkpt>
      <trkpt lat="46.25821" lon="2.99713">
        <ele>492.18</ele>
        <time>2018-04-10T08:07:36.999Z</time>
      </trkpt>
      <trkpt lat="46.2581" lon="2.99731">
        <ele>491.82</ele>
        <time>2018-04-10T08:07:38.999Z</time>
      </trkpt>
      <trkpt lat="46.25797" lon="2.99747">
        <ele>491.11</ele>
        <time>2018-04-10T08:07:40.999Z</time>
      </trkpt>
      <trkpt lat="46.25783" lon="2.99763">
        <ele>490.21</ele>
        <time>2018-04-10T08:07:42.999Z</time>
      </trkpt>
      <trkpt lat="46.25769" lon="2.99779">
        <ele>489.09</ele>
        <time>2018-04-10T08:07:44.999Z</time>
      </trkpt>
      <trkpt lat="46.25756" lon="2.99794">
        <ele>488.03</ele>
        <time>2018-04-10T08:07:46.999Z</time>
      </trkpt>
      <trkpt lat="46.25742" lon="2.9981">
        <ele>487.08</ele>
        <time>2018-04-10T08:07:48.999Z</time>
      </trkpt>
      <trkpt lat="46.25735" lon="2.99819">
        <ele>486.8</ele>
        <time>2018-04-10T08:07:49.999Z</time>
      </trkpt>
      <trkpt lat="46.25728" lon="2.99827">
        <ele>486.36</ele>
        <time>2018-04-10T08:07:50.999Z</time>
      </trkpt>
      <trkpt lat="46.25721" lon="2.99836">
        <ele>486.08</ele>
        <time>2018-04-10T08:07:51.999Z</time>
      </trkpt>
      <trkpt lat="46.25714" lon="2.99844">
        <ele>485.74</ele>
        <time>2018-04-10T08:07:52.999Z</time>
      </trkpt>
      <trkpt lat="46.25707" lon="2.99852">
        <ele>485.21</ele>
        <time>2018-04-10T08:07:53.999Z</time>
      </trkpt>
      <trkpt lat="46.25699" lon="2.99861">
        <ele>484.72</ele>
        <time>2018-04-10T08:07:54.999Z</time>
      </trkpt>
      <trkpt lat="46.25692" lon="2.99869">
        <ele>484.39</ele>
        <time>2018-04-10T08:07:55.999Z</time>
      </trkpt>
      <trkpt lat="46.25686" lon="2.99878">
        <ele>484.24</ele>
        <time>2018-04-10T08:07:56.999Z</time>
      </trkpt>
      <trkpt lat="46.25678" lon="2.99886">
        <ele>483.73</ele>
        <time>2018-04-10T08:07:57.999Z</time>
      </trkpt>
      <trkpt lat="46.25671" lon="2.99895">
        <ele>483.29</ele>
        <time>2018-04-10T08:07:58.999Z</time>
      </trkpt>
      <trkpt lat="46.25663" lon="2.99903">
        <ele>482.82</ele>
        <time>2018-04-10T08:07:59.999Z</time>
      </trkpt>
      <trkpt lat="46.25656" lon="2.99911">
        <ele>482.38</ele>
        <time>2018-04-10T08:08:00.999Z</time>
      </trkpt>
      <trkpt lat="46.25648" lon="2.9992">
        <ele>481.86</ele>
        <time>2018-04-10T08:08:01.999Z</time>
      </trkpt>
      <trkpt lat="46.2564" lon="2.99929">
        <ele>481.33</ele>
        <time>2018-04-10T08:08:02.999Z</time>
      </trkpt>
      <trkpt lat="46.25632" lon="2.99937">
        <ele>481.02</ele>
        <time>2018-04-10T08:08:03.999Z</time>
      </trkpt>
      <trkpt lat="46.25624" lon="2.99945">
        <ele>480.71</ele>
        <time>2018-04-10T08:08:04.999Z</time>
      </trkpt>
      <trkpt lat="46.25615" lon="2.99952">
        <ele>480.33</ele>
        <time>2018-04-10T08:08:05.999Z</time>
      </trkpt>
      <trkpt lat="46.25606" lon="2.9996">
        <ele>479.92</ele>
        <time>2018-04-10T08:08:06.999Z</time>
      </trkpt>
      <trkpt lat="46.25597" lon="2.99966">
        <ele>479.45</ele>
        <time>2018-04-10T08:08:07.999Z</time>
      </trkpt>
      <trkpt lat="46.25588" lon="2.99973">
        <ele>478.89</ele>
        <time>2018-04-10T08:08:08.999Z</time>
      </trkpt>
      <trkpt lat="46.25578" lon="2.99979">
        <ele>478.69</ele>
        <time>2018-04-10T08:08:09.999Z</time>
      </trkpt>
      <trkpt lat="46.25568" lon="2.99985">
        <ele>478.18</ele>
        <time>2018-04-10T08:08:10.999Z</time>
      </trkpt>
      <trkpt lat="46.25559" lon="2.99992">
        <ele>477.68</ele>
        <time>2018-04-10T08:08:11.999Z</time>
      </trkpt>
      <trkpt lat="46.25549" lon="2.99999">
        <ele>476.89</ele>
        <time>2018-04-10T08:08:12.999Z</time>
      </trkpt>
      <trkpt lat="46.25539" lon="3.00006">
        <ele>476.24</ele>
        <time>2018-04-10T08:08:13.999Z</time>
      </trkpt>
      <trkpt lat="46.25529" lon="3.00012">
        <ele>475.76</ele>
        <time>2018-04-10T08:08:14.999Z</time>
      </trkpt>
      <trkpt lat="46.25519" lon="3.00019">
        <ele>475.19</ele>
        <time>2018-04-10T08:08:15.999Z</time>
      </trkpt>
      <trkpt lat="46.25509" lon="3.00026">
        <ele>474.68</ele>
        <time>2018-04-10T08:08:16.999Z</time>
      </trkpt>
      <trkpt lat="46.25499" lon="3.00033">
        <ele>474.08</ele>
        <time>2018-04-10T08:08:17.999Z</time>
      </trkpt>
      <trkpt lat="46.25489" lon="3.00039">
        <ele>473.35</ele>
        <time>2018-04-10T08:08:18.999Z</time>
      </trkpt>
      <trkpt lat="46.25479" lon="3.00046">
        <ele>472.81</ele>
        <time>2018-04-10T08:08:19.999Z</time>
      </trkpt>
      <trkpt lat="46.25469" lon="3.00053">
        <ele>472.05</ele>
        <time>2018-04-10T08:08:20.999Z</time>
      </trkpt>
      <trkpt lat="46.25459" lon="3.0006">
        <ele>471.39</ele>
        <time>2018-04-10T08:08:21.999Z</time>
      </trkpt>
      <trkpt lat="46.25449" lon="3.00067">
        <ele>470.8</ele>
        <time>2018-04-10T08:08:22.999Z</time>
      </trkpt>
      <trkpt lat="46.2544" lon="3.00074">
        <ele>470.39</ele>
        <time>2018-04-10T08:08:23.999Z</time>
      </trkpt>
      <trkpt lat="46.2543" lon="3.00079">
        <ele>469.99</ele>
        <time>2018-04-10T08:08:24.999Z</time>
      </trkpt>
      <trkpt lat="46.25419" lon="3.00083">
        <ele>469.55</ele>
        <time>2018-04-10T08:08:25.999Z</time>
      </trkpt>
      <trkpt lat="46.25407" lon="3.00082">
        <ele>469.01</ele>
        <time>2018-04-10T08:08:26.999Z</time>
      </trkpt>
      <trkpt lat="46.25397" lon="3.00076">
        <ele>468.49</ele>
        <time>2018-04-10T08:08:27.999Z</time>
      </trkpt>
      <trkpt lat="46.25386" lon="3.00067">
        <ele>467.77</ele>
        <time>2018-04-10T08:08:28.999Z</time>
      </trkpt>
      <trkpt lat="46.25377" lon="3.00057">
        <ele>467.13</ele>
        <time>2018-04-10T08:08:29.999Z</time>
      </trkpt>
      <trkpt lat="46.25369" lon="3.00044">
        <ele>466.49</ele>
        <time>2018-04-10T08:08:30.999Z</time>
      </trkpt>
      <trkpt lat="46.25361" lon="3.00031">
        <ele>465.91</ele>
        <time>2018-04-10T08:08:31.999Z</time>
      </trkpt>
      <trkpt lat="46.25354" lon="3.00018">
        <ele>465.34</ele>
        <time>2018-04-10T08:08:32.999Z</time>
      </trkpt>
      <trkpt lat="46.25345" lon="3.00006">
        <ele>464.58</ele>
        <time>2018-04-10T08:08:33.999Z</time>
      </trkpt>
      <trkpt lat="46.25337" lon="2.99993">
        <ele>463.97</ele>
        <time>2018-04-10T08:08:34.999Z</time>
      </trkpt>
      <trkpt lat="46.25328" lon="2.99981">
        <ele>463.25</ele>
        <time>2018-04-10T08:08:35.999Z</time>
      </trkpt>
      <trkpt lat="46.2532" lon="2.99969">
        <ele>462.07</ele>
        <time>2018-04-10T08:08:36.999Z</time>
      </trkpt>
      <trkpt lat="46.25311" lon="2.99956">
        <ele>460.97</ele>
        <time>2018-04-10T08:08:37.999Z</time>
      </trkpt>
      <trkpt lat="46.25303" lon="2.99942">
        <ele>460.08</ele>
        <time>2018-04-10T08:08:38.999Z</time>
      </trkpt>
      <trkpt lat="46.25295" lon="2.99928">
        <ele>459.13</ele>
        <time>2018-04-10T08:08:39.999Z</time>
      </trkpt>
      <trkpt lat="46.25287" lon="2.99914">
        <ele>458.23</ele>
        <time>2018-04-10T08:08:40.999Z</time>
      </trkpt>
      <trkpt lat="46.2528" lon="2.99899">
        <ele>457.37</ele>
        <time>2018-04-10T08:08:41.999Z</time>
      </trkpt>
      <trkpt lat="46.25275" lon="2.99884">
        <ele>456.5</ele>
        <time>2018-04-10T08:08:42.999Z</time>
      </trkpt>
      <trkpt lat="46.25271" lon="2.99867">
        <ele>455.55</ele>
        <time>2018-04-10T08:08:43.999Z</time>
      </trkpt>
      <trkpt lat="46.2527" lon="2.99848">
        <ele>454.3</ele>
        <time>2018-04-10T08:08:44.999Z</time>
      </trkpt>
      <trkpt lat="46.25269" lon="2.99829">
        <ele>453.46</ele>
        <time>2018-04-10T08:08:45.999Z</time>
      </trkpt>
      <trkpt lat="46.25267" lon="2.9981">
        <ele>452.93</ele>
        <time>2018-04-10T08:08:46.999Z</time>
      </trkpt>
      <trkpt lat="46.25263" lon="2.99792">
        <ele>452.1</ele>
        <time>2018-04-10T08:08:47.999Z</time>
      </trkpt>
      <trkpt lat="46.25257" lon="2.99776">
        <ele>451.13</ele>
        <time>2018-04-10T08:08:48.999Z</time>
      </trkpt>
      <trkpt lat="46.2525" lon="2.9976">
        <ele>450.29</ele>
        <time>2018-04-10T08:08:49.999Z</time>
      </trkpt>
      <trkpt lat="46.25242" lon="2.99747">
        <ele>449.49</ele>
        <time>2018-04-10T08:08:50.999Z</time>
      </trkpt>
      <trkpt lat="46.25233" lon="2.99735">
        <ele>448.91</ele>
        <time>2018-04-10T08:08:51.999Z</time>
      </trkpt>
      <trkpt lat="46.25223" lon="2.99727">
        <ele>448.34</ele>
        <time>2018-04-10T08:08:52.999Z</time>
      </trkpt>
      <trkpt lat="46.25212" lon="2.99723">
        <ele>447.62</ele>
        <time>2018-04-10T08:08:53.999Z</time>
      </trkpt>
      <trkpt lat="46.252" lon="2.99723">
        <ele>446.71</ele>
        <time>2018-04-10T08:08:54.999Z</time>
      </trkpt>
      <trkpt lat="46.25188" lon="2.99727">
        <ele>446.12</ele>
        <time>2018-04-10T08:08:55.999Z</time>
      </trkpt>
      <trkpt lat="46.25177" lon="2.9973">
        <ele>444.66</ele>
        <time>2018-04-10T08:08:56.999Z</time>
      </trkpt>
      <trkpt lat="46.25166" lon="2.99729">
        <ele>443.08</ele>
        <time>2018-04-10T08:08:57.999Z</time>
      </trkpt>
      <trkpt lat="46.25156" lon="2.99725">
        <ele>442.05</ele>
        <time>2018-04-10T08:08:58.999Z</time>
      </trkpt>
      <trkpt lat="46.25147" lon="2.99716">
        <ele>440.98</ele>
        <time>2018-04-10T08:08:59.999Z</time>
      </trkpt>
      <trkpt lat="46.25139" lon="2.99704">
        <ele>440.17</ele>
        <time>2018-04-10T08:09:00.999Z</time>
      </trkpt>
      <trkpt lat="46.25132" lon="2.99691">
        <ele>439.54</ele>
        <time>2018-04-10T08:09:01.999Z</time>
      </trkpt>
      <trkpt lat="46.25128" lon="2.99675">
        <ele>438.9</ele>
        <time>2018-04-10T08:09:02.999Z</time>
      </trkpt>
      <trkpt lat="46.25125" lon="2.99659">
        <ele>438.06</ele>
        <time>2018-04-10T08:09:03.999Z</time>
      </trkpt>
      <trkpt lat="46.25123" lon="2.99643">
        <ele>437.34</ele>
        <time>2018-04-10T08:09:04.999Z</time>
      </trkpt>
      <trkpt lat="46.2512" lon="2.99627">
        <ele>436.74</ele>
        <time>2018-04-10T08:09:05.999Z</time>
      </trkpt>
      <trkpt lat="46.25117" lon="2.99611">
        <ele>436.14</ele>
        <time>2018-04-10T08:09:06.999Z</time>
      </trkpt>
      <trkpt lat="46.25114" lon="2.99596">
        <ele>435.59</ele>
        <time>2018-04-10T08:09:07.999Z</time>
      </trkpt>
      <trkpt lat="46.2511" lon="2.99582">
        <ele>435.22</ele>
        <time>2018-04-10T08:09:08.999Z</time>
      </trkpt>
      <trkpt lat="46.25102" lon="2.99571">
        <ele>434.77</ele>
        <time>2018-04-10T08:09:09.999Z</time>
      </trkpt>
      <trkpt lat="46.25092" lon="2.99565">
        <ele>434.41</ele>
        <time>2018-04-10T08:09:10.999Z</time>
      </trkpt>
      <trkpt lat="46.25081" lon="2.99563">
        <ele>433.93</ele>
        <time>2018-04-10T08:09:11.999Z</time>
      </trkpt>
      <trkpt lat="46.25069" lon="2.99564">
        <ele>433.22</ele>
        <time>2018-04-10T08:09:12.999Z</time>
      </trkpt>
      <trkpt lat="46.25058" lon="2.99566">
        <ele>432.56</ele>
        <time>2018-04-10T08:09:13.999Z</time>
      </trkpt>
      <trkpt lat="46.25046" lon="2.9957">
        <ele>432.01</ele>
        <time>2018-04-10T08:09:14.999Z</time>
      </trkpt>
      <trkpt lat="46.25035" lon="2.99574">
        <ele>431.45</ele>
        <time>2018-04-10T08:09:15.999Z</time>
      </trkpt>
      <trkpt lat="46.25024" lon="2.99579">
        <ele>430.61</ele>
        <time>2018-04-10T08:09:16.999Z</time>
      </trkpt>
      <trkpt lat="46.25015" lon="2.99583">
        <ele>429.97</ele>
        <time>2018-04-10T08:09:17.999Z</time>
      </trkpt>
      <trkpt lat="46.25004" lon="2.99585">
        <ele>429.6</ele>
        <time>2018-04-10T08:09:18.999Z</time>
      </trkpt>
      <trkpt lat="46.24993" lon="2.99584">
        <ele>429.18</ele>
        <time>2018-04-10T08:09:19.999Z</time>
      </trkpt>
      <trkpt lat="46.24983" lon="2.9958">
        <ele>428.38</ele>
        <time>2018-04-10T08:09:20.999Z</time>
      </trkpt>
      <trkpt lat="46.24971" lon="2.99576">
        <ele>427.69</ele>
        <time>2018-04-10T08:09:21.999Z</time>
      </trkpt>
      <trkpt lat="46.2496" lon="2.99573">
        <ele>427.31</ele>
        <time>2018-04-10T08:09:22.999Z</time>
      </trkpt>
      <trkpt lat="46.24947" lon="2.99572">
        <ele>426.57</ele>
        <time>2018-04-10T08:09:23.999Z</time>
      </trkpt>
      <trkpt lat="46.24936" lon="2.99573">
        <ele>426.4</ele>
        <time>2018-04-10T08:09:24.999Z</time>
      </trkpt>
      <trkpt lat="46.24925" lon="2.99574">
        <ele>426.1</ele>
        <time>2018-04-10T08:09:25.999Z</time>
      </trkpt>
      <trkpt lat="46.24913" lon="2.99573">
        <ele>425.59</ele>
        <time>2018-04-10T08:09:26.999Z</time>
      </trkpt>
      <trkpt lat="46.24903" lon="2.99571">
        <ele>424.81</ele>
        <time>2018-04-10T08:09:27.999Z</time>
      </trkpt>
      <trkpt lat="46.24893" lon="2.99564">
        <ele>424.2</ele>
        <time>2018-04-10T08:09:28.999Z</time>
      </trkpt>
      <trkpt lat="46.24884" lon="2.99555">
        <ele>423.3</ele>
        <time>2018-04-10T08:09:29.999Z</time>
      </trkpt>
      <trkpt lat="46.24878" lon="2.99542">
        <ele>422.59</ele>
        <time>2018-04-10T08:09:30.999Z</time>
      </trkpt>
      <trkpt lat="46.24873" lon="2.99528">
        <ele>421.92</ele>
        <time>2018-04-10T08:09:31.999Z</time>
      </trkpt>
      <trkpt lat="46.2487" lon="2.99512">
        <ele>421.04</ele>
        <time>2018-04-10T08:09:32.999Z</time>
      </trkpt>
      <trkpt lat="46.24868" lon="2.99495">
        <ele>420.2</ele>
        <time>2018-04-10T08:09:33.999Z</time>
      </trkpt>
      <trkpt lat="46.24866" lon="2.99478">
        <ele>419.37</ele>
        <time>2018-04-10T08:09:34.999Z</time>
      </trkpt>
      <trkpt lat="46.24865" lon="2.99461">
        <ele>418.57</ele>
        <time>2018-04-10T08:09:35.999Z</time>
      </trkpt>
      <trkpt lat="46.24863" lon="2.99444">
        <ele>417.84</ele>
        <time>2018-04-10T08:09:36.999Z</time>
      </trkpt>
      <trkpt lat="46.24862" lon="2.99427">
        <ele>417.22</ele>
        <time>2018-04-10T08:09:37.999Z</time>
      </trkpt>
      <trkpt lat="46.24862" lon="2.9941">
        <ele>416.62</ele>
        <time>2018-04-10T08:09:38.999Z</time>
      </trkpt>
      <trkpt lat="46.24862" lon="2.99394">
        <ele>416.05</ele>
        <time>2018-04-10T08:09:39.999Z</time>
      </trkpt>
      <trkpt lat="46.24861" lon="2.9938">
        <ele>415.58</ele>
        <time>2018-04-10T08:09:40.999Z</time>
      </trkpt>
      <trkpt lat="46.24851" lon="2.99361">
        <ele>414.75</ele>
        <time>2018-04-10T08:09:42.999Z</time>
      </trkpt>
      <trkpt lat="46.24842" lon="2.99357">
        <ele>414.35</ele>
        <time>2018-04-10T08:09:43.999Z</time>
      </trkpt>
      <trkpt lat="46.24832" lon="2.99356">
        <ele>413.86</ele>
        <time>2018-04-10T08:09:44.999Z</time>
      </trkpt>
      <trkpt lat="46.24821" lon="2.99356">
        <ele>413.46</ele>
        <time>2018-04-10T08:09:45.999Z</time>
      </trkpt>
      <trkpt lat="46.24811" lon="2.99356">
        <ele>413.07</ele>
        <time>2018-04-10T08:09:46.999Z</time>
      </trkpt>
      <trkpt lat="46.24802" lon="2.9935">
        <ele>412.55</ele>
        <time>2018-04-10T08:09:47.999Z</time>
      </trkpt>
      <trkpt lat="46.24795" lon="2.99341">
        <ele>411.94</ele>
        <time>2018-04-10T08:09:48.999Z</time>
      </trkpt>
      <trkpt lat="46.24789" lon="2.99329">
        <ele>411.31</ele>
        <time>2018-04-10T08:09:49.999Z</time>
      </trkpt>
      <trkpt lat="46.24785" lon="2.99316">
        <ele>410.46</ele>
        <time>2018-04-10T08:09:50.999Z</time>
      </trkpt>
      <trkpt lat="46.2478" lon="2.99304">
        <ele>409.64</ele>
        <time>2018-04-10T08:09:51.999Z</time>
      </trkpt>
      <trkpt lat="46.24776" lon="2.99289">
        <ele>408.54</ele>
        <time>2018-04-10T08:09:52.999Z</time>
      </trkpt>
      <trkpt lat="46.24773" lon="2.99273">
        <ele>407.8</ele>
        <time>2018-04-10T08:09:53.999Z</time>
      </trkpt>
      <trkpt lat="46.2477" lon="2.99258">
        <ele>407.13</ele>
        <time>2018-04-10T08:09:54.999Z</time>
      </trkpt>
      <trkpt lat="46.24767" lon="2.99243">
        <ele>406.54</ele>
        <time>2018-04-10T08:09:55.999Z</time>
      </trkpt>
      <trkpt lat="46.24764" lon="2.99228">
        <ele>406.58</ele>
        <time>2018-04-10T08:09:56.999Z</time>
      </trkpt>
      <trkpt lat="46.2476" lon="2.99214">
        <ele>406.14</ele>
        <time>2018-04-10T08:09:57.999Z</time>
      </trkpt>
      <trkpt lat="46.24756" lon="2.99203">
        <ele>405.69</ele>
        <time>2018-04-10T08:09:58.999Z</time>
      </trkpt>
      <trkpt lat="46.24743" lon="2.99186">
        <ele>404.71</ele>
        <time>2018-04-10T08:10:00.999Z</time>
      </trkpt>
      <trkpt lat="46.24734" lon="2.99183">
        <ele>403.72</ele>
        <time>2018-04-10T08:10:01.999Z</time>
      </trkpt>
      <trkpt lat="46.24725" lon="2.99183">
        <ele>402.9</ele>
        <time>2018-04-10T08:10:02.999Z</time>
      </trkpt>
      <trkpt lat="46.24715" lon="2.99185">
        <ele>401.99</ele>
        <time>2018-04-10T08:10:03.999Z</time>
      </trkpt>
      <trkpt lat="46.24699" lon="2.9919">
        <ele>400.33</ele>
        <time>2018-04-10T08:10:05.999Z</time>
      </trkpt>
      <trkpt lat="46.24688" lon="2.99202">
        <ele>399.27</ele>
        <time>2018-04-10T08:10:07.999Z</time>
      </trkpt>
      <trkpt lat="46.24684" lon="2.9922">
        <ele>397.3</ele>
        <time>2018-04-10T08:10:09.999Z</time>
      </trkpt>
      <trkpt lat="46.24688" lon="2.99239">
        <ele>394.85</ele>
        <time>2018-04-10T08:10:11.999Z</time>
      </trkpt>
      <trkpt lat="46.24694" lon="2.99257">
        <ele>393.4</ele>
        <time>2018-04-10T08:10:13.999Z</time>
      </trkpt>
      <trkpt lat="46.24701" lon="2.99272">
        <ele>392.71</ele>
        <time>2018-04-10T08:10:15.999Z</time>
      </trkpt>
      <trkpt lat="46.24707" lon="2.99288">
        <ele>392.81</ele>
        <time>2018-04-10T08:10:17.999Z</time>
      </trkpt>
      <trkpt lat="46.24711" lon="2.99302">
        <ele>393.64</ele>
        <time>2018-04-10T08:10:19.999Z</time>
      </trkpt>
      <trkpt lat="46.24714" lon="2.99316">
        <ele>394.41</ele>
        <time>2018-04-10T08:10:21.999Z</time>
      </trkpt>
      <trkpt lat="46.24717" lon="2.99328">
        <ele>395.12</ele>
        <time>2018-04-10T08:10:23.999Z</time>
      </trkpt>
      <trkpt lat="46.24719" lon="2.99341">
        <ele>396.71</ele>
        <time>2018-04-10T08:10:25.999Z</time>
      </trkpt>
      <trkpt lat="46.2472" lon="2.99354">
        <ele>398.56</ele>
        <time>2018-04-10T08:10:27.999Z</time>
      </trkpt>
      <trkpt lat="46.24721" lon="2.99368">
        <ele>400.52</ele>
        <time>2018-04-10T08:10:29.999Z</time>
      </trkpt>
      <trkpt lat="46.24721" lon="2.99387">
        <ele>403.71</ele>
        <time>2018-04-10T08:10:32.999Z</time>
      </trkpt>
      <trkpt lat="46.24723" lon="2.99407">
        <ele>407.8</ele>
        <time>2018-04-10T08:10:35.999Z</time>
      </trkpt>
      <trkpt lat="46.24722" lon="2.9942">
        <ele>410.44</ele>
        <time>2018-04-10T08:10:37.999Z</time>
      </trkpt>
      <trkpt lat="46.24722" lon="2.99439">
        <ele>414.09</ele>
        <time>2018-04-10T08:10:40.999Z</time>
      </trkpt>
      <trkpt lat="46.24717" lon="2.99456">
        <ele>415.73</ele>
        <time>2018-04-10T08:10:43.999Z</time>
      </trkpt>
      <trkpt lat="46.24711" lon="2.99472">
        <ele>419.35</ele>
        <time>2018-04-10T08:10:46.999Z</time>
      </trkpt>
      <trkpt lat="46.24704" lon="2.99484">
        <ele>420.88</ele>
        <time>2018-04-10T08:10:49.999Z</time>
      </trkpt>
      <trkpt lat="46.24694" lon="2.99492">
        <ele>421.29</ele>
        <time>2018-04-10T08:10:52.999Z</time>
      </trkpt>
      <trkpt lat="46.24683" lon="2.99498">
        <ele>421.3</ele>
        <time>2018-04-10T08:10:55.999Z</time>
      </trkpt>
      <trkpt lat="46.24674" lon="2.99505">
        <ele>421.72</ele>
        <time>2018-04-10T08:10:58.999Z</time>
      </trkpt>
      <trkpt lat="46.24666" lon="2.99513">
        <ele>422.68</ele>
        <time>2018-04-10T08:11:01.999Z</time>
      </trkpt>
      <trkpt lat="46.24657" lon="2.99521">
        <ele>423.41</ele>
        <time>2018-04-10T08:11:04.999Z</time>
      </trkpt>
      <trkpt lat="46.24648" lon="2.99529">
        <ele>424.05</ele>
        <time>2018-04-10T08:11:07.999Z</time>
      </trkpt>
      <trkpt lat="46.24639" lon="2.99538">
        <ele>424.77</ele>
        <time>2018-04-10T08:11:10.999Z</time>
      </trkpt>
      <trkpt lat="46.2463" lon="2.99547">
        <ele>425.41</ele>
        <time>2018-04-10T08:11:13.999Z</time>
      </trkpt>
      <trkpt lat="46.2462" lon="2.99554">
        <ele>425.69</ele>
        <time>2018-04-10T08:11:16.999Z</time>
      </trkpt>
      <trkpt lat="46.24608" lon="2.9956">
        <ele>425.44</ele>
        <time>2018-04-10T08:11:19.999Z</time>
      </trkpt>
      <trkpt lat="46.24599" lon="2.99561">
        <ele>424.98</ele>
        <time>2018-04-10T08:11:21.999Z</time>
      </trkpt>
      <trkpt lat="46.2459" lon="2.99561">
        <ele>424.38</ele>
        <time>2018-04-10T08:11:23.999Z</time>
      </trkpt>
      <trkpt lat="46.24578" lon="2.99559">
        <ele>423.38</ele>
        <time>2018-04-10T08:11:26.999Z</time>
      </trkpt>
      <trkpt lat="46.24568" lon="2.99556">
        <ele>422.58</ele>
        <time>2018-04-10T08:11:29.999Z</time>
      </trkpt>
      <trkpt lat="46.24557" lon="2.9955">
        <ele>422.41</ele>
        <time>2018-04-10T08:11:32.999Z</time>
      </trkpt>
      <trkpt lat="46.24548" lon="2.99541">
        <ele>421.8</ele>
        <time>2018-04-10T08:11:35.999Z</time>
      </trkpt>
      <trkpt lat="46.24537" lon="2.99535">
        <ele>423.23</ele>
        <time>2018-04-10T08:11:38.999Z</time>
      </trkpt>
      <trkpt lat="46.24527" lon="2.99528">
        <ele>423.93</ele>
        <time>2018-04-10T08:11:41.999Z</time>
      </trkpt>
      <trkpt lat="46.24517" lon="2.99519">
        <ele>424.42</ele>
        <time>2018-04-10T08:11:44.999Z</time>
      </trkpt>
      <trkpt lat="46.24507" lon="2.99513">
        <ele>424.68</ele>
        <time>2018-04-10T08:11:47.999Z</time>
      </trkpt>
      <trkpt lat="46.24498" lon="2.99511">
        <ele>425.3</ele>
        <time>2018-04-10T08:11:50.999Z</time>
      </trkpt>
      <trkpt lat="46.24488" lon="2.99511">
        <ele>425.7</ele>
        <time>2018-04-10T08:11:53.999Z</time>
      </trkpt>
      <trkpt lat="46.24479" lon="2.99512">
        <ele>425.85</ele>
        <time>2018-04-10T08:11:56.999Z</time>
      </trkpt>
      <trkpt lat="46.24469" lon="2.99514">
        <ele>426.86</ele>
        <time>2018-04-10T08:11:59.999Z</time>
      </trkpt>
      <trkpt lat="46.2446" lon="2.99517">
        <ele>427.8</ele>
        <time>2018-04-10T08:12:02.999Z</time>
      </trkpt>
      <trkpt lat="46.2445" lon="2.99521">
        <ele>428.73</ele>
        <time>2018-04-10T08:12:05.999Z</time>
      </trkpt>
      <trkpt lat="46.24441" lon="2.99526">
        <ele>429.47</ele>
        <time>2018-04-10T08:12:08.999Z</time>
      </trkpt>
      <trkpt lat="46.2443" lon="2.99532">
        <ele>430.13</ele>
        <time>2018-04-10T08:12:11.999Z</time>
      </trkpt>
      <trkpt lat="46.24419" lon="2.99535">
        <ele>430.28</ele>
        <time>2018-04-10T08:12:14.999Z</time>
      </trkpt>
      <trkpt lat="46.2441" lon="2.99533">
        <ele>429.54</ele>
        <time>2018-04-10T08:12:16.999Z</time>
      </trkpt>
      <trkpt lat="46.24401" lon="2.99529">
        <ele>429.09</ele>
        <time>2018-04-10T08:12:18.999Z</time>
      </trkpt>
      <trkpt lat="46.24392" lon="2.99524">
        <ele>428.89</ele>
        <time>2018-04-10T08:12:20.999Z</time>
      </trkpt>
      <trkpt lat="46.2438" lon="2.99519">
        <ele>427.93</ele>
        <time>2018-04-10T08:12:23.999Z</time>
      </trkpt>
      <trkpt lat="46.24369" lon="2.99513">
        <ele>426.7</ele>
        <time>2018-04-10T08:12:26.999Z</time>
      </trkpt>
      <trkpt lat="46.2436" lon="2.99507">
        <ele>424.66</ele>
        <time>2018-04-10T08:12:29.999Z</time>
      </trkpt>
      <trkpt lat="46.2435" lon="2.99502">
        <ele>422.96</ele>
        <time>2018-04-10T08:12:32.999Z</time>
      </trkpt>
      <trkpt lat="46.24341" lon="2.99498">
        <ele>421.47</ele>
        <time>2018-04-10T08:12:35.999Z</time>
      </trkpt>
      <trkpt lat="46.24332" lon="2.99495">
        <ele>422.44</ele>
        <time>2018-04-10T08:12:38.999Z</time>
      </trkpt>
      <trkpt lat="46.2432" lon="2.99494">
        <ele>425.31</ele>
        <time>2018-04-10T08:12:42.999Z</time>
      </trkpt>
      <trkpt lat="46.24308" lon="2.99499">
        <ele>426.82</ele>
        <time>2018-04-10T08:12:46.999Z</time>
      </trkpt>
      <trkpt lat="46.24299" lon="2.99504">
        <ele>427.44</ele>
        <time>2018-04-10T08:12:49.999Z</time>
      </trkpt>
      <trkpt lat="46.24291" lon="2.9951">
        <ele>428.01</ele>
        <time>2018-04-10T08:12:52.999Z</time>
      </trkpt>
      <trkpt lat="46.24281" lon="2.99517">
        <ele>428.91</ele>
        <time>2018-04-10T08:12:56.999Z</time>
      </trkpt>
      <trkpt lat="46.2427" lon="2.99523">
        <ele>430.19</ele>
        <time>2018-04-10T08:13:00.999Z</time>
      </trkpt>
      <trkpt lat="46.24259" lon="2.99529">
        <ele>431.79</ele>
        <time>2018-04-10T08:13:04.999Z</time>
      </trkpt>
      <trkpt lat="46.24248" lon="2.99534">
        <ele>433.78</ele>
        <time>2018-04-10T08:13:08.999Z</time>
      </trkpt>
      <trkpt lat="46.24238" lon="2.99539">
        <ele>436.09</ele>
        <time>2018-04-10T08:13:12.999Z</time>
      </trkpt>
      <trkpt lat="46.24229" lon="2.99545">
        <ele>438.04</ele>
        <time>2018-04-10T08:13:15.999Z</time>
      </trkpt>
      <trkpt lat="46.2422" lon="2.99552">
        <ele>439.42</ele>
        <time>2018-04-10T08:13:18.999Z</time>
      </trkpt>
      <trkpt lat="46.24211" lon="2.99559">
        <ele>440.5</ele>
        <time>2018-04-10T08:13:21.999Z</time>
      </trkpt>
      <trkpt lat="46.24203" lon="2.99567">
        <ele>442.56</ele>
        <time>2018-04-10T08:13:24.999Z</time>
      </trkpt>
      <trkpt lat="46.24194" lon="2.99574">
        <ele>442.94</ele>
        <time>2018-04-10T08:13:27.999Z</time>
      </trkpt>
      <trkpt lat="46.24186" lon="2.99583">
        <ele>444.42</ele>
        <time>2018-04-10T08:13:30.999Z</time>
      </trkpt>
      <trkpt lat="46.24178" lon="2.99593">
        <ele>446.88</ele>
        <time>2018-04-10T08:13:33.999Z</time>
      </trkpt>
      <trkpt lat="46.24169" lon="2.99603">
        <ele>450.02</ele>
        <time>2018-04-10T08:13:36.999Z</time>
      </trkpt>
      <trkpt lat="46.2416" lon="2.99612">
        <ele>451.18</ele>
        <time>2018-04-10T08:13:39.999Z</time>
      </trkpt>
      <trkpt lat="46.24149" lon="2.99622">
        <ele>450.6</ele>
        <time>2018-04-10T08:13:42.999Z</time>
      </trkpt>
      <trkpt lat="46.24139" lon="2.99631">
        <ele>449.02</ele>
        <time>2018-04-10T08:13:45.999Z</time>
      </trkpt>
      <trkpt lat="46.24129" lon="2.99639">
        <ele>449.24</ele>
        <time>2018-04-10T08:13:48.999Z</time>
      </trkpt>
      <trkpt lat="46.2412" lon="2.99648">
        <ele>449.35</ele>
        <time>2018-04-10T08:13:51.999Z</time>
      </trkpt>
      <trkpt lat="46.24112" lon="2.99655">
        <ele>447.56</ele>
        <time>2018-04-10T08:13:54.999Z</time>
      </trkpt>
      <trkpt lat="46.24105" lon="2.99663">
        <ele>446.81</ele>
        <time>2018-04-10T08:13:57.999Z</time>
      </trkpt>
      <trkpt lat="46.24097" lon="2.99672">
        <ele>446.97</ele>
        <time>2018-04-10T08:14:00.999Z</time>
      </trkpt>
      <trkpt lat="46.24091" lon="2.99682">
        <ele>446.91</ele>
        <time>2018-04-10T08:14:03.999Z</time>
      </trkpt>
      <trkpt lat="46.24084" lon="2.99694">
        <ele>445.87</ele>
        <time>2018-04-10T08:14:06.999Z</time>
      </trkpt>
      <trkpt lat="46.24077" lon="2.99709">
        <ele>445.47</ele>
        <time>2018-04-10T08:14:09.999Z</time>
      </trkpt>
      <trkpt lat="46.24073" lon="2.99725">
        <ele>446.15</ele>
        <time>2018-04-10T08:14:12.999Z</time>
      </trkpt>
      <trkpt lat="46.24072" lon="2.99743">
        <ele>447.36</ele>
        <time>2018-04-10T08:14:15.999Z</time>
      </trkpt>
      <trkpt lat="46.24074" lon="2.99761">
        <ele>448.03</ele>
        <time>2018-04-10T08:14:18.999Z</time>
      </trkpt>
      <trkpt lat="46.24078" lon="2.99777">
        <ele>449.13</ele>
        <time>2018-04-10T08:14:21.999Z</time>
      </trkpt>
      <trkpt lat="46.24083" lon="2.99793">
        <ele>449.95</ele>
        <time>2018-04-10T08:14:24.999Z</time>
      </trkpt>
      <trkpt lat="46.24086" lon="2.99808">
        <ele>450.36</ele>
        <time>2018-04-10T08:14:27.999Z</time>
      </trkpt>
      <trkpt lat="46.24088" lon="2.99824">
        <ele>450.77</ele>
        <time>2018-04-10T08:14:30.999Z</time>
      </trkpt>
      <trkpt lat="46.24089" lon="2.99839">
        <ele>451.27</ele>
        <time>2018-04-10T08:14:33.999Z</time>
      </trkpt>
      <trkpt lat="46.24087" lon="2.99853">
        <ele>452.65</ele>
        <time>2018-04-10T08:14:36.999Z</time>
      </trkpt>
      <trkpt lat="46.24085" lon="2.99867">
        <ele>454.72</ele>
        <time>2018-04-10T08:14:39.999Z</time>
      </trkpt>
      <trkpt lat="46.24084" lon="2.99881">
        <ele>456.57</ele>
        <time>2018-04-10T08:14:42.999Z</time>
      </trkpt>
      <trkpt lat="46.24081" lon="2.99895">
        <ele>458.74</ele>
        <time>2018-04-10T08:14:45.999Z</time>
      </trkpt>
      <trkpt lat="46.24079" lon="2.99908">
        <ele>460.94</ele>
        <time>2018-04-10T08:14:48.999Z</time>
      </trkpt>
      <trkpt lat="46.24075" lon="2.99921">
        <ele>463.08</ele>
        <time>2018-04-10T08:14:51.999Z</time>
      </trkpt>
      <trkpt lat="46.24072" lon="2.99933">
        <ele>466.96</ele>
        <time>2018-04-10T08:14:54.999Z</time>
      </trkpt>
      <trkpt lat="46.24067" lon="2.99946">
        <ele>469.22</ele>
        <time>2018-04-10T08:14:57.999Z</time>
      </trkpt>
      <trkpt lat="46.24063" lon="2.99958">
        <ele>472.02</ele>
        <time>2018-04-10T08:15:00.999Z</time>
      </trkpt>
      <trkpt lat="46.24059" lon="2.99971">
        <ele>473.36</ele>
        <time>2018-04-10T08:15:03.999Z</time>
      </trkpt>
      <trkpt lat="46.24057" lon="2.99988">
        <ele>475.47</ele>
        <time>2018-04-10T08:15:07.999Z</time>
      </trkpt>
      <trkpt lat="46.24055" lon="3">
        <ele>476.86</ele>
        <time>2018-04-10T08:15:10.999Z</time>
      </trkpt>
      <trkpt lat="46.24052" lon="3.00013">
        <ele>477.94</ele>
        <time>2018-04-10T08:15:13.999Z</time>
      </trkpt>
      <trkpt lat="46.24048" lon="3.00026">
        <ele>478.96</ele>
        <time>2018-04-10T08:15:16.999Z</time>
      </trkpt>
      <trkpt lat="46.24044" lon="3.00039">
        <ele>480.5</ele>
        <time>2018-04-10T08:15:19.999Z</time>
      </trkpt>
      <trkpt lat="46.24039" lon="3.0005">
        <ele>481.8</ele>
        <time>2018-04-10T08:15:22.999Z</time>
      </trkpt>
      <trkpt lat="46.24034" lon="3.00062">
        <ele>482.17</ele>
        <time>2018-04-10T08:15:25.999Z</time>
      </trkpt>
      <trkpt lat="46.2403" lon="3.00074">
        <ele>482.86</ele>
        <time>2018-04-10T08:15:28.999Z</time>
      </trkpt>
      <trkpt lat="46.24024" lon="3.00087">
        <ele>483.91</ele>
        <time>2018-04-10T08:15:31.999Z</time>
      </trkpt>
      <trkpt lat="46.24017" lon="3.001">
        <ele>485.1</ele>
        <time>2018-04-10T08:15:34.999Z</time>
      </trkpt>
      <trkpt lat="46.2401" lon="3.00112">
        <ele>486.36</ele>
        <time>2018-04-10T08:15:37.999Z</time>
      </trkpt>
      <trkpt lat="46.24003" lon="3.00124">
        <ele>487.43</ele>
        <time>2018-04-10T08:15:40.999Z</time>
      </trkpt>
      <trkpt lat="46.23997" lon="3.00136">
        <ele>488.34</ele>
        <time>2018-04-10T08:15:43.999Z</time>
      </trkpt>
      <trkpt lat="46.2399" lon="3.00145">
        <ele>489.44</ele>
        <time>2018-04-10T08:15:46.999Z</time>
      </trkpt>
      <trkpt lat="46.23985" lon="3.00157">
        <ele>489.79</ele>
        <time>2018-04-10T08:15:49.999Z</time>
      </trkpt>
      <trkpt lat="46.23981" lon="3.00169">
        <ele>490.64</ele>
        <time>2018-04-10T08:15:52.999Z</time>
      </trkpt>
      <trkpt lat="46.23977" lon="3.00182">
        <ele>491.31</ele>
        <time>2018-04-10T08:15:55.999Z</time>
      </trkpt>
      <trkpt lat="46.23973" lon="3.00195">
        <ele>491.59</ele>
        <time>2018-04-10T08:15:58.999Z</time>
      </trkpt>
      <trkpt lat="46.23969" lon="3.00209">
        <ele>491.91</ele>
        <time>2018-04-10T08:16:01.999Z</time>
      </trkpt>
      <trkpt lat="46.23966" lon="3.00224">
        <ele>492.22</ele>
        <time>2018-04-10T08:16:04.999Z</time>
      </trkpt>
      <trkpt lat="46.23963" lon="3.00239">
        <ele>493.03</ele>
        <time>2018-04-10T08:16:07.999Z</time>
      </trkpt>
      <trkpt lat="46.23961" lon="3.00254">
        <ele>493.51</ele>
        <time>2018-04-10T08:16:10.999Z</time>
      </trkpt>
      <trkpt lat="46.23957" lon="3.00269">
        <ele>493.52</ele>
        <time>2018-04-10T08:16:13.999Z</time>
      </trkpt>
      <trkpt lat="46.23951" lon="3.00282">
        <ele>494.07</ele>
        <time>2018-04-10T08:16:16.999Z</time>
      </trkpt>
      <trkpt lat="46.23945" lon="3.00295">
        <ele>495.14</ele>
        <time>2018-04-10T08:16:19.999Z</time>
      </trkpt>
      <trkpt lat="46.23938" lon="3.00305">
        <ele>496.65</ele>
        <time>2018-04-10T08:16:22.999Z</time>
      </trkpt>
      <trkpt lat="46.2393" lon="3.00314">
        <ele>496.68</ele>
        <time>2018-04-10T08:16:25.999Z</time>
      </trkpt>
      <trkpt lat="46.23922" lon="3.00322">
        <ele>495.83</ele>
        <time>2018-04-10T08:16:28.999Z</time>
      </trkpt>
      <trkpt lat="46.23914" lon="3.00331">
        <ele>496.43</ele>
        <time>2018-04-10T08:16:31.999Z</time>
      </trkpt>
      <trkpt lat="46.23906" lon="3.0034">
        <ele>497.79</ele>
        <time>2018-04-10T08:16:34.999Z</time>
      </trkpt>
      <trkpt lat="46.23898" lon="3.00351">
        <ele>499.05</ele>
        <time>2018-04-10T08:16:37.999Z</time>
      </trkpt>
      <trkpt lat="46.23891" lon="3.00362">
        <ele>500.17</ele>
        <time>2018-04-10T08:16:40.999Z</time>
      </trkpt>
      <trkpt lat="46.23885" lon="3.00376">
        <ele>501.28</ele>
        <time>2018-04-10T08:16:43.999Z</time>
      </trkpt>
      <trkpt lat="46.23879" lon="3.0039">
        <ele>501.51</ele>
        <time>2018-04-10T08:16:46.999Z</time>
      </trkpt>
      <trkpt lat="46.23875" lon="3.00407">
        <ele>501.71</ele>
        <time>2018-04-10T08:16:49.999Z</time>
      </trkpt>
      <trkpt lat="46.2387" lon="3.00425">
        <ele>502</ele>
        <time>2018-04-10T08:16:52.999Z</time>
      </trkpt>
      <trkpt lat="46.23867" lon="3.00437">
        <ele>502.03</ele>
        <time>2018-04-10T08:16:54.999Z</time>
      </trkpt>
      <trkpt lat="46.23864" lon="3.00455">
        <ele>502.41</ele>
        <time>2018-04-10T08:16:57.999Z</time>
      </trkpt>
      <trkpt lat="46.2386" lon="3.00473">
        <ele>502.51</ele>
        <time>2018-04-10T08:17:00.999Z</time>
      </trkpt>
      <trkpt lat="46.23856" lon="3.00488">
        <ele>503.31</ele>
        <time>2018-04-10T08:17:03.999Z</time>
      </trkpt>
      <trkpt lat="46.23851" lon="3.00503">
        <ele>504.43</ele>
        <time>2018-04-10T08:17:06.999Z</time>
      </trkpt>
      <trkpt lat="46.23848" lon="3.00517">
        <ele>505.81</ele>
        <time>2018-04-10T08:17:09.999Z</time>
      </trkpt>
      <trkpt lat="46.23846" lon="3.00533">
        <ele>506.9</ele>
        <time>2018-04-10T08:17:13.999Z</time>
      </trkpt>
      <trkpt lat="46.23842" lon="3.00548">
        <ele>507.96</ele>
        <time>2018-04-10T08:17:17.999Z</time>
      </trkpt>
      <trkpt lat="46.23838" lon="3.00565">
        <ele>508.73</ele>
        <time>2018-04-10T08:17:21.999Z</time>
      </trkpt>
      <trkpt lat="46.23836" lon="3.00579">
        <ele>508.32</ele>
        <time>2018-04-10T08:17:24.999Z</time>
      </trkpt>
      <trkpt lat="46.23833" lon="3.00594">
        <ele>507.43</ele>
        <time>2018-04-10T08:17:27.999Z</time>
      </trkpt>
      <trkpt lat="46.23829" lon="3.00609">
        <ele>506.34</ele>
        <time>2018-04-10T08:17:30.999Z</time>
      </trkpt>
      <trkpt lat="46.23823" lon="3.00622">
        <ele>504.81</ele>
        <time>2018-04-10T08:17:33.999Z</time>
      </trkpt>
      <trkpt lat="46.23816" lon="3.00636">
        <ele>503.73</ele>
        <time>2018-04-10T08:17:36.999Z</time>
      </trkpt>
      <trkpt lat="46.23809" lon="3.00647">
        <ele>502.95</ele>
        <time>2018-04-10T08:17:39.999Z</time>
      </trkpt>
      <trkpt lat="46.238" lon="3.00656">
        <ele>501.87</ele>
        <time>2018-04-10T08:17:42.999Z</time>
      </trkpt>
      <trkpt lat="46.23793" lon="3.00665">
        <ele>501.7</ele>
        <time>2018-04-10T08:17:45.999Z</time>
      </trkpt>
      <trkpt lat="46.23784" lon="3.00676">
        <ele>502.17</ele>
        <time>2018-04-10T08:17:49.999Z</time>
      </trkpt>
      <trkpt lat="46.23776" lon="3.00686">
        <ele>501.64</ele>
        <time>2018-04-10T08:17:53.999Z</time>
      </trkpt>
      <trkpt lat="46.23769" lon="3.00696">
        <ele>501.05</ele>
        <time>2018-04-10T08:17:56.999Z</time>
      </trkpt>
      <trkpt lat="46.23763" lon="3.00706">
        <ele>501.42</ele>
        <time>2018-04-10T08:17:59.999Z</time>
      </trkpt>
      <trkpt lat="46.23756" lon="3.00717">
        <ele>502.02</ele>
        <time>2018-04-10T08:18:02.999Z</time>
      </trkpt>
      <trkpt lat="46.2375" lon="3.00729">
        <ele>502.21</ele>
        <time>2018-04-10T08:18:05.999Z</time>
      </trkpt>
      <trkpt lat="46.23745" lon="3.00742">
        <ele>503.3</ele>
        <time>2018-04-10T08:18:08.999Z</time>
      </trkpt>
      <trkpt lat="46.23739" lon="3.00754">
        <ele>503.53</ele>
        <time>2018-04-10T08:18:11.999Z</time>
      </trkpt>
      <trkpt lat="46.23732" lon="3.00763">
        <ele>504.13</ele>
        <time>2018-04-10T08:18:14.999Z</time>
      </trkpt>
      <trkpt lat="46.23726" lon="3.00772">
        <ele>505.1</ele>
        <time>2018-04-10T08:18:17.999Z</time>
      </trkpt>
      <trkpt lat="46.23718" lon="3.00784">
        <ele>506.4</ele>
        <time>2018-04-10T08:18:21.999Z</time>
      </trkpt>
      <trkpt lat="46.23708" lon="3.00794">
        <ele>506.67</ele>
        <time>2018-04-10T08:18:25.999Z</time>
      </trkpt>
      <trkpt lat="46.237" lon="3.00806">
        <ele>507.76</ele>
        <time>2018-04-10T08:18:29.999Z</time>
      </trkpt>
      <trkpt lat="46.23693" lon="3.00815">
        <ele>508.08</ele>
        <time>2018-04-10T08:18:32.999Z</time>
      </trkpt>
      <trkpt lat="46.23686" lon="3.00824">
        <ele>508.93</ele>
        <time>2018-04-10T08:18:35.999Z</time>
      </trkpt>
      <trkpt lat="46.23678" lon="3.00837">
        <ele>509.55</ele>
        <time>2018-04-10T08:18:39.999Z</time>
      </trkpt>
      <trkpt lat="46.2367" lon="3.00848">
        <ele>510.5</ele>
        <time>2018-04-10T08:18:43.999Z</time>
      </trkpt>
      <trkpt lat="46.23663" lon="3.00856">
        <ele>511.41</ele>
        <time>2018-04-10T08:18:46.999Z</time>
      </trkpt>
      <trkpt lat="46.23655" lon="3.00863">
        <ele>511.92</ele>
        <time>2018-04-10T08:18:49.999Z</time>
      </trkpt>
      <trkpt lat="46.23648" lon="3.00871">
        <ele>512.96</ele>
        <time>2018-04-10T08:18:52.999Z</time>
      </trkpt>
      <trkpt lat="46.2364" lon="3.00879">
        <ele>513.93</ele>
        <time>2018-04-10T08:18:55.999Z</time>
      </trkpt>
      <trkpt lat="46.23633" lon="3.00888">
        <ele>514.39</ele>
        <time>2018-04-10T08:18:58.999Z</time>
      </trkpt>
      <trkpt lat="46.23626" lon="3.00899">
        <ele>514.05</ele>
        <time>2018-04-10T08:19:01.999Z</time>
      </trkpt>
      <trkpt lat="46.23619" lon="3.0091">
        <ele>513.39</ele>
        <time>2018-04-10T08:19:04.999Z</time>
      </trkpt>
      <trkpt lat="46.23612" lon="3.00921">
        <ele>513.5</ele>
        <time>2018-04-10T08:19:07.999Z</time>
      </trkpt>
      <trkpt lat="46.23604" lon="3.00931">
        <ele>513.68</ele>
        <time>2018-04-10T08:19:10.999Z</time>
      </trkpt>
      <trkpt lat="46.23595" lon="3.00941">
        <ele>514.13</ele>
        <time>2018-04-10T08:19:13.999Z</time>
      </trkpt>
      <trkpt lat="46.23585" lon="3.00952">
        <ele>513.85</ele>
        <time>2018-04-10T08:19:16.999Z</time>
      </trkpt>
      <trkpt lat="46.23576" lon="3.00964">
        <ele>513.43</ele>
        <time>2018-04-10T08:19:19.999Z</time>
      </trkpt>
      <trkpt lat="46.23567" lon="3.00978">
        <ele>513.21</ele>
        <time>2018-04-10T08:19:22.999Z</time>
      </trkpt>
      <trkpt lat="46.2356" lon="3.00994">
        <ele>513.58</ele>
        <time>2018-04-10T08:19:25.999Z</time>
      </trkpt>
      <trkpt lat="46.23554" lon="3.01006">
        <ele>513.8</ele>
        <time>2018-04-10T08:19:27.999Z</time>
      </trkpt>
      <trkpt lat="46.23549" lon="3.01019">
        <ele>513.89</ele>
        <time>2018-04-10T08:19:29.999Z</time>
      </trkpt>
      <trkpt lat="46.23545" lon="3.01034">
        <ele>513.66</ele>
        <time>2018-04-10T08:19:31.999Z</time>
      </trkpt>
      <trkpt lat="46.23541" lon="3.01049">
        <ele>513.58</ele>
        <time>2018-04-10T08:19:33.999Z</time>
      </trkpt>
      <trkpt lat="46.23538" lon="3.01065">
        <ele>513.61</ele>
        <time>2018-04-10T08:19:35.999Z</time>
      </trkpt>
      <trkpt lat="46.23536" lon="3.01083">
        <ele>513.51</ele>
        <time>2018-04-10T08:19:37.999Z</time>
      </trkpt>
      <trkpt lat="46.23533" lon="3.01101">
        <ele>513.31</ele>
        <time>2018-04-10T08:19:39.999Z</time>
      </trkpt>
      <trkpt lat="46.2353" lon="3.0112">
        <ele>513.05</ele>
        <time>2018-04-10T08:19:41.999Z</time>
      </trkpt>
      <trkpt lat="46.23528" lon="3.01138">
        <ele>513.07</ele>
        <time>2018-04-10T08:19:43.999Z</time>
      </trkpt>
      <trkpt lat="46.23525" lon="3.01158">
        <ele>513.49</ele>
        <time>2018-04-10T08:19:45.999Z</time>
      </trkpt>
      <trkpt lat="46.23522" lon="3.01177">
        <ele>513.46</ele>
        <time>2018-04-10T08:19:47.999Z</time>
      </trkpt>
      <trkpt lat="46.23519" lon="3.01196">
        <ele>513.25</ele>
        <time>2018-04-10T08:19:49.999Z</time>
      </trkpt>
      <trkpt lat="46.23516" lon="3.01216">
        <ele>513</ele>
        <time>2018-04-10T08:19:51.999Z</time>
      </trkpt>
      <trkpt lat="46.23513" lon="3.01236">
        <ele>512.37</ele>
        <time>2018-04-10T08:19:53.999Z</time>
      </trkpt>
      <trkpt lat="46.2351" lon="3.01257">
        <ele>511.99</ele>
        <time>2018-04-10T08:19:55.999Z</time>
      </trkpt>
      <trkpt lat="46.23507" lon="3.01278">
        <ele>511.98</ele>
        <time>2018-04-10T08:19:57.999Z</time>
      </trkpt>
      <trkpt lat="46.23503" lon="3.01298">
        <ele>511.89</ele>
        <time>2018-04-10T08:19:59.999Z</time>
      </trkpt>
      <trkpt lat="46.235" lon="3.01319">
        <ele>511.67</ele>
        <time>2018-04-10T08:20:01.999Z</time>
      </trkpt>
      <trkpt lat="46.23497" lon="3.0134">
        <ele>511.31</ele>
        <time>2018-04-10T08:20:03.999Z</time>
      </trkpt>
      <trkpt lat="46.23494" lon="3.01361">
        <ele>510.93</ele>
        <time>2018-04-10T08:20:05.999Z</time>
      </trkpt>
      <trkpt lat="46.23491" lon="3.01383">
        <ele>510.7</ele>
        <time>2018-04-10T08:20:07.999Z</time>
      </trkpt>
      <trkpt lat="46.23489" lon="3.01404">
        <ele>510.36</ele>
        <time>2018-04-10T08:20:09.999Z</time>
      </trkpt>
      <trkpt lat="46.23486" lon="3.01426">
        <ele>510.25</ele>
        <time>2018-04-10T08:20:11.999Z</time>
      </trkpt>
      <trkpt lat="46.23484" lon="3.01447">
        <ele>510.04</ele>
        <time>2018-04-10T08:20:13.999Z</time>
      </trkpt>
      <trkpt lat="46.23483" lon="3.0147">
        <ele>509.47</ele>
        <time>2018-04-10T08:20:15.999Z</time>
      </trkpt>
      <trkpt lat="46.23482" lon="3.01493">
        <ele>509.07</ele>
        <time>2018-04-10T08:20:17.999Z</time>
      </trkpt>
      <trkpt lat="46.2348" lon="3.01517">
        <ele>508.55</ele>
        <time>2018-04-10T08:20:19.999Z</time>
      </trkpt>
      <trkpt lat="46.23478" lon="3.0154">
        <ele>508.29</ele>
        <time>2018-04-10T08:20:21.999Z</time>
      </trkpt>
      <trkpt lat="46.23476" lon="3.01563">
        <ele>508.02</ele>
        <time>2018-04-10T08:20:23.999Z</time>
      </trkpt>
      <trkpt lat="46.23474" lon="3.01586">
        <ele>507.65</ele>
        <time>2018-04-10T08:20:25.999Z</time>
      </trkpt>
      <trkpt lat="46.23472" lon="3.0161">
        <ele>507.18</ele>
        <time>2018-04-10T08:20:27.999Z</time>
      </trkpt>
      <trkpt lat="46.2347" lon="3.01633">
        <ele>506.77</ele>
        <time>2018-04-10T08:20:29.999Z</time>
      </trkpt>
      <trkpt lat="46.23468" lon="3.01657">
        <ele>506.27</ele>
        <time>2018-04-10T08:20:31.999Z</time>
      </trkpt>
      <trkpt lat="46.23467" lon="3.01682">
        <ele>505.79</ele>
        <time>2018-04-10T08:20:33.999Z</time>
      </trkpt>
      <trkpt lat="46.23465" lon="3.01706">
        <ele>505.16</ele>
        <time>2018-04-10T08:20:35.999Z</time>
      </trkpt>
      <trkpt lat="46.23463" lon="3.01731">
        <ele>504.9</ele>
        <time>2018-04-10T08:20:37.999Z</time>
      </trkpt>
      <trkpt lat="46.23461" lon="3.01756">
        <ele>504.16</ele>
        <time>2018-04-10T08:20:39.999Z</time>
      </trkpt>
      <trkpt lat="46.2346" lon="3.01769">
        <ele>503.73</ele>
        <time>2018-04-10T08:20:40.999Z</time>
      </trkpt>
      <trkpt lat="46.23459" lon="3.01782">
        <ele>503.32</ele>
        <time>2018-04-10T08:20:41.999Z</time>
      </trkpt>
      <trkpt lat="46.23457" lon="3.01795">
        <ele>503.01</ele>
        <time>2018-04-10T08:20:42.999Z</time>
      </trkpt>
      <trkpt lat="46.23456" lon="3.01821">
        <ele>502.46</ele>
        <time>2018-04-10T08:20:44.999Z</time>
      </trkpt>
      <trkpt lat="46.23455" lon="3.01834">
        <ele>502.21</ele>
        <time>2018-04-10T08:20:45.999Z</time>
      </trkpt>
      <trkpt lat="46.23453" lon="3.01859">
        <ele>501.58</ele>
        <time>2018-04-10T08:20:47.999Z</time>
      </trkpt>
      <trkpt lat="46.23451" lon="3.01884">
        <ele>501.14</ele>
        <time>2018-04-10T08:20:49.999Z</time>
      </trkpt>
      <trkpt lat="46.23449" lon="3.0191">
        <ele>500.8</ele>
        <time>2018-04-10T08:20:51.999Z</time>
      </trkpt>
      <trkpt lat="46.23448" lon="3.01923">
        <ele>500.58</ele>
        <time>2018-04-10T08:20:52.999Z</time>
      </trkpt>
      <trkpt lat="46.23447" lon="3.01936">
        <ele>500.35</ele>
        <time>2018-04-10T08:20:53.999Z</time>
      </trkpt>
      <trkpt lat="46.23446" lon="3.01949">
        <ele>499.98</ele>
        <time>2018-04-10T08:20:54.999Z</time>
      </trkpt>
      <trkpt lat="46.23445" lon="3.01962">
        <ele>499.75</ele>
        <time>2018-04-10T08:20:55.999Z</time>
      </trkpt>
      <trkpt lat="46.23444" lon="3.01975">
        <ele>499.4</ele>
        <time>2018-04-10T08:20:56.999Z</time>
      </trkpt>
      <trkpt lat="46.23443" lon="3.01989">
        <ele>498.96</ele>
        <time>2018-04-10T08:20:57.999Z</time>
      </trkpt>
      <trkpt lat="46.23443" lon="3.02002">
        <ele>498.53</ele>
        <time>2018-04-10T08:20:58.999Z</time>
      </trkpt>
      <trkpt lat="46.23441" lon="3.02016">
        <ele>498.16</ele>
        <time>2018-04-10T08:20:59.999Z</time>
      </trkpt>
      <trkpt lat="46.23441" lon="3.0203">
        <ele>497.65</ele>
        <time>2018-04-10T08:21:00.999Z</time>
      </trkpt>
      <trkpt lat="46.2344" lon="3.02044">
        <ele>497.14</ele>
        <time>2018-04-10T08:21:01.999Z</time>
      </trkpt>
      <trkpt lat="46.23439" lon="3.02058">
        <ele>496.72</ele>
        <time>2018-04-10T08:21:02.999Z</time>
      </trkpt>
      <trkpt lat="46.23438" lon="3.02073">
        <ele>496.33</ele>
        <time>2018-04-10T08:21:03.999Z</time>
      </trkpt>
      <trkpt lat="46.23437" lon="3.02087">
        <ele>496.12</ele>
        <time>2018-04-10T08:21:04.999Z</time>
      </trkpt>
      <trkpt lat="46.23436" lon="3.02102">
        <ele>495.88</ele>
        <time>2018-04-10T08:21:05.999Z</time>
      </trkpt>
      <trkpt lat="46.23435" lon="3.02116">
        <ele>495.52</ele>
        <time>2018-04-10T08:21:06.999Z</time>
      </trkpt>
      <trkpt lat="46.23434" lon="3.02131">
        <ele>495.07</ele>
        <time>2018-04-10T08:21:07.999Z</time>
      </trkpt>
      <trkpt lat="46.23433" lon="3.02145">
        <ele>494.55</ele>
        <time>2018-04-10T08:21:08.999Z</time>
      </trkpt>
      <trkpt lat="46.23432" lon="3.0216">
        <ele>494.07</ele>
        <time>2018-04-10T08:21:09.999Z</time>
      </trkpt>
      <trkpt lat="46.23431" lon="3.02175">
        <ele>493.59</ele>
        <time>2018-04-10T08:21:10.999Z</time>
      </trkpt>
      <trkpt lat="46.23429" lon="3.02189">
        <ele>493.15</ele>
        <time>2018-04-10T08:21:11.999Z</time>
      </trkpt>
      <trkpt lat="46.23426" lon="3.02204">
        <ele>492.77</ele>
        <time>2018-04-10T08:21:12.999Z</time>
      </trkpt>
      <trkpt lat="46.23424" lon="3.02219">
        <ele>492.46</ele>
        <time>2018-04-10T08:21:13.999Z</time>
      </trkpt>
      <trkpt lat="46.23422" lon="3.02233">
        <ele>492.16</ele>
        <time>2018-04-10T08:21:14.999Z</time>
      </trkpt>
      <trkpt lat="46.23419" lon="3.02248">
        <ele>491.97</ele>
        <time>2018-04-10T08:21:15.999Z</time>
      </trkpt>
      <trkpt lat="46.23417" lon="3.02263">
        <ele>491.66</ele>
        <time>2018-04-10T08:21:16.999Z</time>
      </trkpt>
      <trkpt lat="46.23414" lon="3.02277">
        <ele>491.28</ele>
        <time>2018-04-10T08:21:17.999Z</time>
      </trkpt>
      <trkpt lat="46.23411" lon="3.02291">
        <ele>490.9</ele>
        <time>2018-04-10T08:21:18.999Z</time>
      </trkpt>
      <trkpt lat="46.23408" lon="3.02305">
        <ele>490.59</ele>
        <time>2018-04-10T08:21:19.999Z</time>
      </trkpt>
      <trkpt lat="46.23405" lon="3.02319">
        <ele>490.24</ele>
        <time>2018-04-10T08:21:20.999Z</time>
      </trkpt>
      <trkpt lat="46.23402" lon="3.02333">
        <ele>489.86</ele>
        <time>2018-04-10T08:21:21.999Z</time>
      </trkpt>
      <trkpt lat="46.23399" lon="3.02348">
        <ele>489.55</ele>
        <time>2018-04-10T08:21:22.999Z</time>
      </trkpt>
      <trkpt lat="46.23396" lon="3.02362">
        <ele>489.33</ele>
        <time>2018-04-10T08:21:23.999Z</time>
      </trkpt>
      <trkpt lat="46.23394" lon="3.02376">
        <ele>488.99</ele>
        <time>2018-04-10T08:21:24.999Z</time>
      </trkpt>
      <trkpt lat="46.23391" lon="3.02391">
        <ele>488.48</ele>
        <time>2018-04-10T08:21:25.999Z</time>
      </trkpt>
      <trkpt lat="46.23388" lon="3.02406">
        <ele>488.15</ele>
        <time>2018-04-10T08:21:26.999Z</time>
      </trkpt>
      <trkpt lat="46.23385" lon="3.02421">
        <ele>487.65</ele>
        <time>2018-04-10T08:21:27.999Z</time>
      </trkpt>
      <trkpt lat="46.23383" lon="3.02436">
        <ele>487.3</ele>
        <time>2018-04-10T08:21:28.999Z</time>
      </trkpt>
      <trkpt lat="46.2338" lon="3.02451">
        <ele>486.98</ele>
        <time>2018-04-10T08:21:29.999Z</time>
      </trkpt>
      <trkpt lat="46.23377" lon="3.02466">
        <ele>486.67</ele>
        <time>2018-04-10T08:21:30.999Z</time>
      </trkpt>
      <trkpt lat="46.23375" lon="3.02481">
        <ele>486.28</ele>
        <time>2018-04-10T08:21:31.999Z</time>
      </trkpt>
      <trkpt lat="46.23372" lon="3.02496">
        <ele>485.82</ele>
        <time>2018-04-10T08:21:32.999Z</time>
      </trkpt>
      <trkpt lat="46.23369" lon="3.02511">
        <ele>485.28</ele>
        <time>2018-04-10T08:21:33.999Z</time>
      </trkpt>
      <trkpt lat="46.23367" lon="3.02526">
        <ele>484.66</ele>
        <time>2018-04-10T08:21:34.999Z</time>
      </trkpt>
      <trkpt lat="46.23364" lon="3.02541">
        <ele>484.01</ele>
        <time>2018-04-10T08:21:35.999Z</time>
      </trkpt>
      <trkpt lat="46.23361" lon="3.02556">
        <ele>483.4</ele>
        <time>2018-04-10T08:21:36.999Z</time>
      </trkpt>
      <trkpt lat="46.23359" lon="3.02571">
        <ele>482.79</ele>
        <time>2018-04-10T08:21:37.999Z</time>
      </trkpt>
      <trkpt lat="46.23356" lon="3.02586">
        <ele>482.26</ele>
        <time>2018-04-10T08:21:38.999Z</time>
      </trkpt>
      <trkpt lat="46.23353" lon="3.02602">
        <ele>481.7</ele>
        <time>2018-04-10T08:21:39.999Z</time>
      </trkpt>
      <trkpt lat="46.2335" lon="3.02617">
        <ele>481.19</ele>
        <time>2018-04-10T08:21:40.999Z</time>
      </trkpt>
      <trkpt lat="46.23347" lon="3.02633">
        <ele>480.64</ele>
        <time>2018-04-10T08:21:41.999Z</time>
      </trkpt>
      <trkpt lat="46.23344" lon="3.02648">
        <ele>480.16</ele>
        <time>2018-04-10T08:21:42.999Z</time>
      </trkpt>
      <trkpt lat="46.23342" lon="3.02664">
        <ele>479.52</ele>
        <time>2018-04-10T08:21:43.999Z</time>
      </trkpt>
      <trkpt lat="46.23339" lon="3.0268">
        <ele>478.9</ele>
        <time>2018-04-10T08:21:44.999Z</time>
      </trkpt>
      <trkpt lat="46.23335" lon="3.02696">
        <ele>478.19</ele>
        <time>2018-04-10T08:21:45.999Z</time>
      </trkpt>
      <trkpt lat="46.23332" lon="3.02712">
        <ele>477.63</ele>
        <time>2018-04-10T08:21:46.999Z</time>
      </trkpt>
      <trkpt lat="46.23329" lon="3.02728">
        <ele>477.17</ele>
        <time>2018-04-10T08:21:47.999Z</time>
      </trkpt>
      <trkpt lat="46.23327" lon="3.02744">
        <ele>476.63</ele>
        <time>2018-04-10T08:21:48.999Z</time>
      </trkpt>
      <trkpt lat="46.23323" lon="3.02761">
        <ele>475.97</ele>
        <time>2018-04-10T08:21:49.999Z</time>
      </trkpt>
      <trkpt lat="46.2332" lon="3.02777">
        <ele>475.18</ele>
        <time>2018-04-10T08:21:50.999Z</time>
      </trkpt>
      <trkpt lat="46.23317" lon="3.02794">
        <ele>474.46</ele>
        <time>2018-04-10T08:21:51.999Z</time>
      </trkpt>
      <trkpt lat="46.23314" lon="3.0281">
        <ele>473.87</ele>
        <time>2018-04-10T08:21:52.999Z</time>
      </trkpt>
      <trkpt lat="46.23311" lon="3.02827">
        <ele>473.02</ele>
        <time>2018-04-10T08:21:53.999Z</time>
      </trkpt>
      <trkpt lat="46.23308" lon="3.02843">
        <ele>472.14</ele>
        <time>2018-04-10T08:21:54.999Z</time>
      </trkpt>
      <trkpt lat="46.23304" lon="3.0286">
        <ele>471.4</ele>
        <time>2018-04-10T08:21:55.999Z</time>
      </trkpt>
      <trkpt lat="46.23301" lon="3.02877">
        <ele>470.63</ele>
        <time>2018-04-10T08:21:56.999Z</time>
      </trkpt>
      <trkpt lat="46.23297" lon="3.02894">
        <ele>469.85</ele>
        <time>2018-04-10T08:21:57.999Z</time>
      </trkpt>
      <trkpt lat="46.23294" lon="3.02911">
        <ele>469.24</ele>
        <time>2018-04-10T08:21:58.999Z</time>
      </trkpt>
      <trkpt lat="46.23291" lon="3.02928">
        <ele>468.39</ele>
        <time>2018-04-10T08:21:59.999Z</time>
      </trkpt>
      <trkpt lat="46.23288" lon="3.02946">
        <ele>467.44</ele>
        <time>2018-04-10T08:22:00.999Z</time>
      </trkpt>
      <trkpt lat="46.23287" lon="3.02963">
        <ele>466.72</ele>
        <time>2018-04-10T08:22:01.999Z</time>
      </trkpt>
      <trkpt lat="46.23286" lon="3.02981">
        <ele>465.98</ele>
        <time>2018-04-10T08:22:02.999Z</time>
      </trkpt>
      <trkpt lat="46.23285" lon="3.02999">
        <ele>465.1</ele>
        <time>2018-04-10T08:22:03.999Z</time>
      </trkpt>
      <trkpt lat="46.23286" lon="3.03017">
        <ele>464.28</ele>
        <time>2018-04-10T08:22:04.999Z</time>
      </trkpt>
      <trkpt lat="46.23286" lon="3.03034">
        <ele>463.62</ele>
        <time>2018-04-10T08:22:05.999Z</time>
      </trkpt>
      <trkpt lat="46.23287" lon="3.03052">
        <ele>462.86</ele>
        <time>2018-04-10T08:22:06.999Z</time>
      </trkpt>
      <trkpt lat="46.23288" lon="3.0307">
        <ele>462.18</ele>
        <time>2018-04-10T08:22:07.999Z</time>
      </trkpt>
      <trkpt lat="46.2329" lon="3.03088">
        <ele>461.61</ele>
        <time>2018-04-10T08:22:08.999Z</time>
      </trkpt>
      <trkpt lat="46.23291" lon="3.03106">
        <ele>460.99</ele>
        <time>2018-04-10T08:22:09.999Z</time>
      </trkpt>
      <trkpt lat="46.23292" lon="3.03123">
        <ele>460.28</ele>
        <time>2018-04-10T08:22:10.999Z</time>
      </trkpt>
      <trkpt lat="46.23294" lon="3.0314">
        <ele>459.65</ele>
        <time>2018-04-10T08:22:11.999Z</time>
      </trkpt>
      <trkpt lat="46.23297" lon="3.03157">
        <ele>459.06</ele>
        <time>2018-04-10T08:22:12.999Z</time>
      </trkpt>
      <trkpt lat="46.23301" lon="3.03174">
        <ele>458.5</ele>
        <time>2018-04-10T08:22:13.999Z</time>
      </trkpt>
      <trkpt lat="46.23305" lon="3.03192">
        <ele>457.96</ele>
        <time>2018-04-10T08:22:14.999Z</time>
      </trkpt>
      <trkpt lat="46.23309" lon="3.03209">
        <ele>457.41</ele>
        <time>2018-04-10T08:22:15.999Z</time>
      </trkpt>
      <trkpt lat="46.23314" lon="3.03226">
        <ele>456.82</ele>
        <time>2018-04-10T08:22:16.999Z</time>
      </trkpt>
      <trkpt lat="46.23319" lon="3.03243">
        <ele>456.26</ele>
        <time>2018-04-10T08:22:17.999Z</time>
      </trkpt>
      <trkpt lat="46.23323" lon="3.03259">
        <ele>455.78</ele>
        <time>2018-04-10T08:22:18.999Z</time>
      </trkpt>
      <trkpt lat="46.23327" lon="3.03276">
        <ele>455.4</ele>
        <time>2018-04-10T08:22:19.999Z</time>
      </trkpt>
      <trkpt lat="46.2333" lon="3.03294">
        <ele>454.95</ele>
        <time>2018-04-10T08:22:20.999Z</time>
      </trkpt>
      <trkpt lat="46.23332" lon="3.03311">
        <ele>454.62</ele>
        <time>2018-04-10T08:22:21.999Z</time>
      </trkpt>
      <trkpt lat="46.23334" lon="3.03329">
        <ele>454.28</ele>
        <time>2018-04-10T08:22:22.999Z</time>
      </trkpt>
      <trkpt lat="46.23336" lon="3.03346">
        <ele>453.92</ele>
        <time>2018-04-10T08:22:23.999Z</time>
      </trkpt>
      <trkpt lat="46.2334" lon="3.03364">
        <ele>453.52</ele>
        <time>2018-04-10T08:22:24.999Z</time>
      </trkpt>
      <trkpt lat="46.23345" lon="3.0338">
        <ele>453.16</ele>
        <time>2018-04-10T08:22:25.999Z</time>
      </trkpt>
      <trkpt lat="46.23351" lon="3.03395">
        <ele>452.76</ele>
        <time>2018-04-10T08:22:26.999Z</time>
      </trkpt>
      <trkpt lat="46.23357" lon="3.03409">
        <ele>452.5</ele>
        <time>2018-04-10T08:22:27.999Z</time>
      </trkpt>
      <trkpt lat="46.23362" lon="3.0342">
        <ele>452.42</ele>
        <time>2018-04-10T08:22:28.999Z</time>
      </trkpt>
      <trkpt lat="46.23372" lon="3.03436">
        <ele>451.99</ele>
        <time>2018-04-10T08:22:30.999Z</time>
      </trkpt>
      <trkpt lat="46.23374" lon="3.0345">
        <ele>451.31</ele>
        <time>2018-04-10T08:22:32.999Z</time>
      </trkpt>
      <trkpt lat="46.23363" lon="3.03461">
        <ele>450.31</ele>
        <time>2018-04-10T08:22:34.999Z</time>
      </trkpt>
      <trkpt lat="46.23349" lon="3.03461">
        <ele>449.29</ele>
        <time>2018-04-10T08:22:36.999Z</time>
      </trkpt>
      <trkpt lat="46.23338" lon="3.03449">
        <ele>447.96</ele>
        <time>2018-04-10T08:22:38.999Z</time>
      </trkpt>
      <trkpt lat="46.23327" lon="3.03431">
        <ele>446.63</ele>
        <time>2018-04-10T08:22:40.999Z</time>
      </trkpt>
      <trkpt lat="46.23315" lon="3.03415">
        <ele>445.54</ele>
        <time>2018-04-10T08:22:42.999Z</time>
      </trkpt>
      <trkpt lat="46.23304" lon="3.03399">
        <ele>444.24</ele>
        <time>2018-04-10T08:22:44.999Z</time>
      </trkpt>
      <trkpt lat="46.23294" lon="3.03378">
        <ele>442.69</ele>
        <time>2018-04-10T08:22:46.999Z</time>
      </trkpt>
      <trkpt lat="46.23287" lon="3.03354">
        <ele>441.03</ele>
        <time>2018-04-10T08:22:48.999Z</time>
      </trkpt>
      <trkpt lat="46.23286" lon="3.03341">
        <ele>440.44</ele>
        <time>2018-04-10T08:22:49.999Z</time>
      </trkpt>
      <trkpt lat="46.23285" lon="3.03328">
        <ele>439.81</ele>
        <time>2018-04-10T08:22:50.999Z</time>
      </trkpt>
      <trkpt lat="46.23283" lon="3.03315">
        <ele>439.28</ele>
        <time>2018-04-10T08:22:51.999Z</time>
      </trkpt>
      <trkpt lat="46.2328" lon="3.03302">
        <ele>438.88</ele>
        <time>2018-04-10T08:22:52.999Z</time>
      </trkpt>
      <trkpt lat="46.23277" lon="3.03289">
        <ele>438.54</ele>
        <time>2018-04-10T08:22:53.999Z</time>
      </trkpt>
      <trkpt lat="46.23274" lon="3.03276">
        <ele>438.02</ele>
        <time>2018-04-10T08:22:54.999Z</time>
      </trkpt>
      <trkpt lat="46.2327" lon="3.03262">
        <ele>437.56</ele>
        <time>2018-04-10T08:22:55.999Z</time>
      </trkpt>
      <trkpt lat="46.23265" lon="3.03249">
        <ele>437.21</ele>
        <time>2018-04-10T08:22:56.999Z</time>
      </trkpt>
      <trkpt lat="46.2326" lon="3.03235">
        <ele>436.77</ele>
        <time>2018-04-10T08:22:57.999Z</time>
      </trkpt>
      <trkpt lat="46.23254" lon="3.03221">
        <ele>436.4</ele>
        <time>2018-04-10T08:22:58.999Z</time>
      </trkpt>
      <trkpt lat="46.23247" lon="3.03208">
        <ele>435.83</ele>
        <time>2018-04-10T08:22:59.999Z</time>
      </trkpt>
      <trkpt lat="46.2324" lon="3.03197">
        <ele>435.33</ele>
        <time>2018-04-10T08:23:00.999Z</time>
      </trkpt>
      <trkpt lat="46.23233" lon="3.03185">
        <ele>434.97</ele>
        <time>2018-04-10T08:23:01.999Z</time>
      </trkpt>
      <trkpt lat="46.23224" lon="3.03176">
        <ele>434.47</ele>
        <time>2018-04-10T08:23:02.999Z</time>
      </trkpt>
      <trkpt lat="46.23215" lon="3.03166">
        <ele>433.46</ele>
        <time>2018-04-10T08:23:03.999Z</time>
      </trkpt>
      <trkpt lat="46.23208" lon="3.03153">
        <ele>432.05</ele>
        <time>2018-04-10T08:23:04.999Z</time>
      </trkpt>
      <trkpt lat="46.23199" lon="3.03142">
        <ele>430.52</ele>
        <time>2018-04-10T08:23:05.999Z</time>
      </trkpt>
      <trkpt lat="46.2319" lon="3.03131">
        <ele>429.53</ele>
        <time>2018-04-10T08:23:06.999Z</time>
      </trkpt>
      <trkpt lat="46.23181" lon="3.03122">
        <ele>429.01</ele>
        <time>2018-04-10T08:23:07.999Z</time>
      </trkpt>
      <trkpt lat="46.23172" lon="3.03111">
        <ele>428.53</ele>
        <time>2018-04-10T08:23:08.999Z</time>
      </trkpt>
      <trkpt lat="46.23163" lon="3.031">
        <ele>427.95</ele>
        <time>2018-04-10T08:23:09.999Z</time>
      </trkpt>
      <trkpt lat="46.23154" lon="3.03089">
        <ele>427.3</ele>
        <time>2018-04-10T08:23:10.999Z</time>
      </trkpt>
      <trkpt lat="46.23145" lon="3.03079">
        <ele>426.6</ele>
        <time>2018-04-10T08:23:11.999Z</time>
      </trkpt>
      <trkpt lat="46.23136" lon="3.0307">
        <ele>426.02</ele>
        <time>2018-04-10T08:23:12.999Z</time>
      </trkpt>
      <trkpt lat="46.23127" lon="3.03062">
        <ele>425.78</ele>
        <time>2018-04-10T08:23:13.999Z</time>
      </trkpt>
      <trkpt lat="46.23117" lon="3.03056">
        <ele>425.14</ele>
        <time>2018-04-10T08:23:14.999Z</time>
      </trkpt>
      <trkpt lat="46.23106" lon="3.03052">
        <ele>424.36</ele>
        <time>2018-04-10T08:23:15.999Z</time>
      </trkpt>
      <trkpt lat="46.23097" lon="3.03051">
        <ele>423.82</ele>
        <time>2018-04-10T08:23:16.999Z</time>
      </trkpt>
      <trkpt lat="46.23087" lon="3.03051">
        <ele>423.32</ele>
        <time>2018-04-10T08:23:17.999Z</time>
      </trkpt>
      <trkpt lat="46.23077" lon="3.0305">
        <ele>422.94</ele>
        <time>2018-04-10T08:23:18.999Z</time>
      </trkpt>
      <trkpt lat="46.2306" lon="3.03048">
        <ele>422.28</ele>
        <time>2018-04-10T08:23:20.999Z</time>
      </trkpt>
      <trkpt lat="46.23045" lon="3.03041">
        <ele>421.64</ele>
        <time>2018-04-10T08:23:22.999Z</time>
      </trkpt>
      <trkpt lat="46.23034" lon="3.03033">
        <ele>420.9</ele>
        <time>2018-04-10T08:23:24.999Z</time>
      </trkpt>
      <trkpt lat="46.23025" lon="3.03027">
        <ele>420.1</ele>
        <time>2018-04-10T08:23:26.999Z</time>
      </trkpt>
      <trkpt lat="46.23016" lon="3.03021">
        <ele>419.35</ele>
        <time>2018-04-10T08:23:28.999Z</time>
      </trkpt>
      <trkpt lat="46.23008" lon="3.03017">
        <ele>419.15</ele>
        <time>2018-04-10T08:23:30.999Z</time>
      </trkpt>
      <trkpt lat="46.22995" lon="3.03011">
        <ele>418.59</ele>
        <time>2018-04-10T08:23:33.999Z</time>
      </trkpt>
      <trkpt lat="46.22985" lon="3.03004">
        <ele>418.29</ele>
        <time>2018-04-10T08:23:36.999Z</time>
      </trkpt>
      <trkpt lat="46.22974" lon="3.02995">
        <ele>418.22</ele>
        <time>2018-04-10T08:23:39.999Z</time>
      </trkpt>
      <trkpt lat="46.22964" lon="3.02988">
        <ele>417.94</ele>
        <time>2018-04-10T08:23:42.999Z</time>
      </trkpt>
      <trkpt lat="46.22953" lon="3.02982">
        <ele>417.7</ele>
        <time>2018-04-10T08:23:45.999Z</time>
      </trkpt>
      <trkpt lat="46.22943" lon="3.02979">
        <ele>417.6</ele>
        <time>2018-04-10T08:23:48.999Z</time>
      </trkpt>
      <trkpt lat="46.22931" lon="3.02977">
        <ele>417.26</ele>
        <time>2018-04-10T08:23:51.999Z</time>
      </trkpt>
      <trkpt lat="46.22919" lon="3.02973">
        <ele>417.57</ele>
        <time>2018-04-10T08:23:54.999Z</time>
      </trkpt>
      <trkpt lat="46.22907" lon="3.02971">
        <ele>417.63</ele>
        <time>2018-04-10T08:23:57.999Z</time>
      </trkpt>
      <trkpt lat="46.22896" lon="3.02969">
        <ele>417.53</ele>
        <time>2018-04-10T08:24:00.999Z</time>
      </trkpt>
      <trkpt lat="46.22885" lon="3.02966">
        <ele>418.14</ele>
        <time>2018-04-10T08:24:03.999Z</time>
      </trkpt>
      <trkpt lat="46.22874" lon="3.02965">
        <ele>419.17</ele>
        <time>2018-04-10T08:24:06.999Z</time>
      </trkpt>
      <trkpt lat="46.22863" lon="3.02962">
        <ele>420.44</ele>
        <time>2018-04-10T08:24:09.999Z</time>
      </trkpt>
      <trkpt lat="46.22852" lon="3.02962">
        <ele>421.92</ele>
        <time>2018-04-10T08:24:12.999Z</time>
      </trkpt>
      <trkpt lat="46.22842" lon="3.02964">
        <ele>423.44</ele>
        <time>2018-04-10T08:24:15.999Z</time>
      </trkpt>
      <trkpt lat="46.22831" lon="3.02967">
        <ele>424.89</ele>
        <time>2018-04-10T08:24:18.999Z</time>
      </trkpt>
      <trkpt lat="46.2282" lon="3.0297">
        <ele>425.92</ele>
        <time>2018-04-10T08:24:21.999Z</time>
      </trkpt>
      <trkpt lat="46.22809" lon="3.02969">
        <ele>426.98</ele>
        <time>2018-04-10T08:24:24.999Z</time>
      </trkpt>
      <trkpt lat="46.228" lon="3.02966">
        <ele>428.12</ele>
        <time>2018-04-10T08:24:27.999Z</time>
      </trkpt>
      <trkpt lat="46.22789" lon="3.02968">
        <ele>429.69</ele>
        <time>2018-04-10T08:24:30.999Z</time>
      </trkpt>
      <trkpt lat="46.22779" lon="3.02969">
        <ele>431.06</ele>
        <time>2018-04-10T08:24:33.999Z</time>
      </trkpt>
      <trkpt lat="46.22767" lon="3.02969">
        <ele>433.19</ele>
        <time>2018-04-10T08:24:37.999Z</time>
      </trkpt>
      <trkpt lat="46.22757" lon="3.02968">
        <ele>435.7</ele>
        <time>2018-04-10T08:24:41.999Z</time>
      </trkpt>
      <trkpt lat="46.22746" lon="3.02968">
        <ele>437.12</ele>
        <time>2018-04-10T08:24:44.999Z</time>
      </trkpt>
      <trkpt lat="46.22736" lon="3.02968">
        <ele>437.93</ele>
        <time>2018-04-10T08:24:46.999Z</time>
      </trkpt>
      <trkpt lat="46.22726" lon="3.02967">
        <ele>438.42</ele>
        <time>2018-04-10T08:24:48.999Z</time>
      </trkpt>
      <trkpt lat="46.22716" lon="3.02966">
        <ele>439.3</ele>
        <time>2018-04-10T08:24:50.999Z</time>
      </trkpt>
      <trkpt lat="46.22704" lon="3.02963">
        <ele>440.65</ele>
        <time>2018-04-10T08:24:53.999Z</time>
      </trkpt>
      <trkpt lat="46.22697" lon="3.02954">
        <ele>442.26</ele>
        <time>2018-04-10T08:24:56.999Z</time>
      </trkpt>
      <trkpt lat="46.2269" lon="3.0294">
        <ele>444.29</ele>
        <time>2018-04-10T08:25:00.998Z</time>
      </trkpt>
      <trkpt lat="46.22681" lon="3.02936">
        <ele>446.67</ele>
        <time>2018-04-10T08:25:03.999Z</time>
      </trkpt>
      <trkpt lat="46.2267" lon="3.02936">
        <ele>447.4</ele>
        <time>2018-04-10T08:25:07.999Z</time>
      </trkpt>
      <trkpt lat="46.22665" lon="3.02949">
        <ele>447.13</ele>
        <time>2018-04-10T08:25:13.999Z</time>
      </trkpt>
      <trkpt lat="46.22658" lon="3.02961">
        <ele>447.71</ele>
        <time>2018-04-10T08:25:17.999Z</time>
      </trkpt>
      <trkpt lat="46.22649" lon="3.02969">
        <ele>450.12</ele>
        <time>2018-04-10T08:25:21.999Z</time>
      </trkpt>
      <trkpt lat="46.22641" lon="3.02973">
        <ele>451.34</ele>
        <time>2018-04-10T08:25:24.999Z</time>
      </trkpt>
      <trkpt lat="46.22631" lon="3.02977">
        <ele>452.49</ele>
        <time>2018-04-10T08:25:27.999Z</time>
      </trkpt>
      <trkpt lat="46.2262" lon="3.02982">
        <ele>454.49</ele>
        <time>2018-04-10T08:25:31.999Z</time>
      </trkpt>
      <trkpt lat="46.2261" lon="3.02984">
        <ele>455.79</ele>
        <time>2018-04-10T08:25:34.999Z</time>
      </trkpt>
      <trkpt lat="46.226" lon="3.02986">
        <ele>458.07</ele>
        <time>2018-04-10T08:25:37.999Z</time>
      </trkpt>
      <trkpt lat="46.2259" lon="3.02982">
        <ele>459.9</ele>
        <time>2018-04-10T08:25:40.999Z</time>
      </trkpt>
      <trkpt lat="46.22582" lon="3.02972">
        <ele>461.73</ele>
        <time>2018-04-10T08:25:43.999Z</time>
      </trkpt>
      <trkpt lat="46.22574" lon="3.02964">
        <ele>464.11</ele>
        <time>2018-04-10T08:25:46.999Z</time>
      </trkpt>
      <trkpt lat="46.22568" lon="3.0295">
        <ele>465.66</ele>
        <time>2018-04-10T08:25:49.999Z</time>
      </trkpt>
      <trkpt lat="46.22563" lon="3.02933">
        <ele>466.62</ele>
        <time>2018-04-10T08:25:52.999Z</time>
      </trkpt>
      <trkpt lat="46.22558" lon="3.02917">
        <ele>467.3</ele>
        <time>2018-04-10T08:25:55.999Z</time>
      </trkpt>
      <trkpt lat="46.22553" lon="3.02902">
        <ele>469.14</ele>
        <time>2018-04-10T08:25:58.999Z</time>
      </trkpt>
      <trkpt lat="46.22547" lon="3.02889">
        <ele>470.58</ele>
        <time>2018-04-10T08:26:01.999Z</time>
      </trkpt>
      <trkpt lat="46.22539" lon="3.02878">
        <ele>470.85</ele>
        <time>2018-04-10T08:26:04.999Z</time>
      </trkpt>
      <trkpt lat="46.22527" lon="3.02871">
        <ele>470.43</ele>
        <time>2018-04-10T08:26:07.999Z</time>
      </trkpt>
      <trkpt lat="46.22515" lon="3.02869">
        <ele>470.86</ele>
        <time>2018-04-10T08:26:10.999Z</time>
      </trkpt>
      <trkpt lat="46.22503" lon="3.0287">
        <ele>471.9</ele>
        <time>2018-04-10T08:26:13.999Z</time>
      </trkpt>
      <trkpt lat="46.22492" lon="3.02869">
        <ele>472.65</ele>
        <time>2018-04-10T08:26:16.999Z</time>
      </trkpt>
      <trkpt lat="46.2248" lon="3.02866">
        <ele>474.03</ele>
        <time>2018-04-10T08:26:19.999Z</time>
      </trkpt>
      <trkpt lat="46.22468" lon="3.02861">
        <ele>475.52</ele>
        <time>2018-04-10T08:26:22.999Z</time>
      </trkpt>
      <trkpt lat="46.22458" lon="3.02854">
        <ele>475.82</ele>
        <time>2018-04-10T08:26:25.999Z</time>
      </trkpt>
      <trkpt lat="46.22452" lon="3.02839">
        <ele>475.12</ele>
        <time>2018-04-10T08:26:28.999Z</time>
      </trkpt>
      <trkpt lat="46.22447" lon="3.02824">
        <ele>473.9</ele>
        <time>2018-04-10T08:26:31.999Z</time>
      </trkpt>
      <trkpt lat="46.22443" lon="3.0281">
        <ele>472.9</ele>
        <time>2018-04-10T08:26:34.999Z</time>
      </trkpt>
      <trkpt lat="46.22439" lon="3.02795">
        <ele>474.33</ele>
        <time>2018-04-10T08:26:37.999Z</time>
      </trkpt>
      <trkpt lat="46.22437" lon="3.02778">
        <ele>474.86</ele>
        <time>2018-04-10T08:26:40.999Z</time>
      </trkpt>
      <trkpt lat="46.22438" lon="3.02764">
        <ele>475.34</ele>
        <time>2018-04-10T08:26:43.999Z</time>
      </trkpt>
      <trkpt lat="46.2244" lon="3.02751">
        <ele>476.9</ele>
        <time>2018-04-10T08:26:46.999Z</time>
      </trkpt>
      <trkpt lat="46.22443" lon="3.02738">
        <ele>478.08</ele>
        <time>2018-04-10T08:26:49.999Z</time>
      </trkpt>
      <trkpt lat="46.22445" lon="3.02723">
        <ele>478.58</ele>
        <time>2018-04-10T08:26:52.999Z</time>
      </trkpt>
      <trkpt lat="46.22442" lon="3.02707">
        <ele>478.02</ele>
        <time>2018-04-10T08:26:55.999Z</time>
      </trkpt>
      <trkpt lat="46.22435" lon="3.02693">
        <ele>477.18</ele>
        <time>2018-04-10T08:26:58.999Z</time>
      </trkpt>
      <trkpt lat="46.22424" lon="3.02685">
        <ele>475.48</ele>
        <time>2018-04-10T08:27:01.999Z</time>
      </trkpt>
      <trkpt lat="46.22414" lon="3.02679">
        <ele>474.03</ele>
        <time>2018-04-10T08:27:04.999Z</time>
      </trkpt>
      <trkpt lat="46.22405" lon="3.02673">
        <ele>472.27</ele>
        <time>2018-04-10T08:27:07.999Z</time>
      </trkpt>
      <trkpt lat="46.22396" lon="3.02666">
        <ele>471.19</ele>
        <time>2018-04-10T08:27:10.999Z</time>
      </trkpt>
      <trkpt lat="46.22387" lon="3.02658">
        <ele>470.21</ele>
        <time>2018-04-10T08:27:13.999Z</time>
      </trkpt>
      <trkpt lat="46.22376" lon="3.0265">
        <ele>469.33</ele>
        <time>2018-04-10T08:27:16.999Z</time>
      </trkpt>
      <trkpt lat="46.22366" lon="3.02643">
        <ele>468.8</ele>
        <time>2018-04-10T08:27:19.999Z</time>
      </trkpt>
      <trkpt lat="46.22358" lon="3.02633">
        <ele>468.9</ele>
        <time>2018-04-10T08:27:22.999Z</time>
      </trkpt>
      <trkpt lat="46.22352" lon="3.0262">
        <ele>468.72</ele>
        <time>2018-04-10T08:27:25.999Z</time>
      </trkpt>
      <trkpt lat="46.22347" lon="3.02606">
        <ele>468.77</ele>
        <time>2018-04-10T08:27:28.999Z</time>
      </trkpt>
      <trkpt lat="46.22339" lon="3.02595">
        <ele>469.1</ele>
        <time>2018-04-10T08:27:31.999Z</time>
      </trkpt>
      <trkpt lat="46.22332" lon="3.02586">
        <ele>469.64</ele>
        <time>2018-04-10T08:27:34.999Z</time>
      </trkpt>
      <trkpt lat="46.22324" lon="3.02576">
        <ele>469.92</ele>
        <time>2018-04-10T08:27:37.999Z</time>
      </trkpt>
      <trkpt lat="46.22317" lon="3.02566">
        <ele>470.49</ele>
        <time>2018-04-10T08:27:40.999Z</time>
      </trkpt>
      <trkpt lat="46.22309" lon="3.02555">
        <ele>471.11</ele>
        <time>2018-04-10T08:27:43.999Z</time>
      </trkpt>
      <trkpt lat="46.22302" lon="3.02544">
        <ele>471.54</ele>
        <time>2018-04-10T08:27:46.999Z</time>
      </trkpt>
      <trkpt lat="46.22294" lon="3.02532">
        <ele>472.7</ele>
        <time>2018-04-10T08:27:49.999Z</time>
      </trkpt>
      <trkpt lat="46.22286" lon="3.02521">
        <ele>474.03</ele>
        <time>2018-04-10T08:27:52.999Z</time>
      </trkpt>
      <trkpt lat="46.22276" lon="3.02513">
        <ele>475.44</ele>
        <time>2018-04-10T08:27:55.999Z</time>
      </trkpt>
      <trkpt lat="46.22268" lon="3.02505">
        <ele>475.79</ele>
        <time>2018-04-10T08:27:58.999Z</time>
      </trkpt>
      <trkpt lat="46.2226" lon="3.02497">
        <ele>476.17</ele>
        <time>2018-04-10T08:28:01.999Z</time>
      </trkpt>
      <trkpt lat="46.22252" lon="3.02484">
        <ele>477.01</ele>
        <time>2018-04-10T08:28:04.999Z</time>
      </trkpt>
      <trkpt lat="46.22246" lon="3.02474">
        <ele>478.1</ele>
        <time>2018-04-10T08:28:06.999Z</time>
      </trkpt>
      <trkpt lat="46.22238" lon="3.0246">
        <ele>479.51</ele>
        <time>2018-04-10T08:28:09.999Z</time>
      </trkpt>
      <trkpt lat="46.22231" lon="3.02447">
        <ele>480.03</ele>
        <time>2018-04-10T08:28:12.999Z</time>
      </trkpt>
      <trkpt lat="46.22223" lon="3.02435">
        <ele>480.55</ele>
        <time>2018-04-10T08:28:15.999Z</time>
      </trkpt>
      <trkpt lat="46.22216" lon="3.02424">
        <ele>481.04</ele>
        <time>2018-04-10T08:28:18.999Z</time>
      </trkpt>
      <trkpt lat="46.22208" lon="3.02414">
        <ele>481.5</ele>
        <time>2018-04-10T08:28:21.999Z</time>
      </trkpt>
      <trkpt lat="46.22201" lon="3.02402">
        <ele>481.62</ele>
        <time>2018-04-10T08:28:24.999Z</time>
      </trkpt>
      <trkpt lat="46.22194" lon="3.0239">
        <ele>481.75</ele>
        <time>2018-04-10T08:28:27.999Z</time>
      </trkpt>
      <trkpt lat="46.22187" lon="3.02378">
        <ele>482.19</ele>
        <time>2018-04-10T08:28:30.999Z</time>
      </trkpt>
      <trkpt lat="46.2218" lon="3.02367">
        <ele>483</ele>
        <time>2018-04-10T08:28:33.999Z</time>
      </trkpt>
      <trkpt lat="46.22174" lon="3.02354">
        <ele>483.86</ele>
        <time>2018-04-10T08:28:36.999Z</time>
      </trkpt>
      <trkpt lat="46.22169" lon="3.0234">
        <ele>485.28</ele>
        <time>2018-04-10T08:28:39.999Z</time>
      </trkpt>
      <trkpt lat="46.22165" lon="3.02326">
        <ele>486.69</ele>
        <time>2018-04-10T08:28:42.999Z</time>
      </trkpt>
      <trkpt lat="46.22163" lon="3.02312">
        <ele>487.99</ele>
        <time>2018-04-10T08:28:45.999Z</time>
      </trkpt>
      <trkpt lat="46.2216" lon="3.02298">
        <ele>489.25</ele>
        <time>2018-04-10T08:28:48.999Z</time>
      </trkpt>
      <trkpt lat="46.22158" lon="3.02284">
        <ele>490.09</ele>
        <time>2018-04-10T08:28:51.999Z</time>
      </trkpt>
      <trkpt lat="46.22155" lon="3.0227">
        <ele>490.77</ele>
        <time>2018-04-10T08:28:54.999Z</time>
      </trkpt>
      <trkpt lat="46.22152" lon="3.02256">
        <ele>491.23</ele>
        <time>2018-04-10T08:28:57.999Z</time>
      </trkpt>
      <trkpt lat="46.2215" lon="3.02242">
        <ele>491.55</ele>
        <time>2018-04-10T08:29:00.999Z</time>
      </trkpt>
      <trkpt lat="46.22147" lon="3.02227">
        <ele>492.03</ele>
        <time>2018-04-10T08:29:03.999Z</time>
      </trkpt>
      <trkpt lat="46.22145" lon="3.02212">
        <ele>492.46</ele>
        <time>2018-04-10T08:29:06.999Z</time>
      </trkpt>
      <trkpt lat="46.22142" lon="3.02198">
        <ele>492.94</ele>
        <time>2018-04-10T08:29:09.999Z</time>
      </trkpt>
      <trkpt lat="46.2214" lon="3.02183">
        <ele>493.38</ele>
        <time>2018-04-10T08:29:12.999Z</time>
      </trkpt>
      <trkpt lat="46.22137" lon="3.02169">
        <ele>493.24</ele>
        <time>2018-04-10T08:29:15.999Z</time>
      </trkpt>
      <trkpt lat="46.22134" lon="3.02155">
        <ele>493.51</ele>
        <time>2018-04-10T08:29:18.999Z</time>
      </trkpt>
      <trkpt lat="46.22131" lon="3.0214">
        <ele>493.99</ele>
        <time>2018-04-10T08:29:21.999Z</time>
      </trkpt>
      <trkpt lat="46.22128" lon="3.02126">
        <ele>494.83</ele>
        <time>2018-04-10T08:29:24.999Z</time>
      </trkpt>
      <trkpt lat="46.22126" lon="3.02112">
        <ele>495.29</ele>
        <time>2018-04-10T08:29:27.999Z</time>
      </trkpt>
      <trkpt lat="46.22124" lon="3.02098">
        <ele>495.72</ele>
        <time>2018-04-10T08:29:30.999Z</time>
      </trkpt>
      <trkpt lat="46.22121" lon="3.02083">
        <ele>495.95</ele>
        <time>2018-04-10T08:29:33.999Z</time>
      </trkpt>
      <trkpt lat="46.22119" lon="3.02067">
        <ele>496.58</ele>
        <time>2018-04-10T08:29:36.999Z</time>
      </trkpt>
      <trkpt lat="46.22117" lon="3.02052">
        <ele>496.96</ele>
        <time>2018-04-10T08:29:39.999Z</time>
      </trkpt>
      <trkpt lat="46.22115" lon="3.02035">
        <ele>497.22</ele>
        <time>2018-04-10T08:29:42.999Z</time>
      </trkpt>
      <trkpt lat="46.22115" lon="3.02019">
        <ele>498.11</ele>
        <time>2018-04-10T08:29:45.999Z</time>
      </trkpt>
      <trkpt lat="46.22116" lon="3.02001">
        <ele>499.38</ele>
        <time>2018-04-10T08:29:48.999Z</time>
      </trkpt>
      <trkpt lat="46.22116" lon="3.01984">
        <ele>500.13</ele>
        <time>2018-04-10T08:29:51.999Z</time>
      </trkpt>
      <trkpt lat="46.22117" lon="3.01966">
        <ele>500.57</ele>
        <time>2018-04-10T08:29:54.999Z</time>
      </trkpt>
      <trkpt lat="46.22117" lon="3.01948">
        <ele>500.99</ele>
        <time>2018-04-10T08:29:57.999Z</time>
      </trkpt>
      <trkpt lat="46.22117" lon="3.01931">
        <ele>501.3</ele>
        <time>2018-04-10T08:30:00.999Z</time>
      </trkpt>
      <trkpt lat="46.22116" lon="3.01912">
        <ele>501.82</ele>
        <time>2018-04-10T08:30:03.999Z</time>
      </trkpt>
      <trkpt lat="46.22116" lon="3.01898">
        <ele>502.26</ele>
        <time>2018-04-10T08:30:05.999Z</time>
      </trkpt>
      <trkpt lat="46.22117" lon="3.01884">
        <ele>502.78</ele>
        <time>2018-04-10T08:30:07.999Z</time>
      </trkpt>
      <trkpt lat="46.22117" lon="3.01871">
        <ele>502.89</ele>
        <time>2018-04-10T08:30:09.999Z</time>
      </trkpt>
      <trkpt lat="46.22117" lon="3.01852">
        <ele>502.94</ele>
        <time>2018-04-10T08:30:12.999Z</time>
      </trkpt>
      <trkpt lat="46.22117" lon="3.01832">
        <ele>503.31</ele>
        <time>2018-04-10T08:30:15.999Z</time>
      </trkpt>
      <trkpt lat="46.22117" lon="3.01814">
        <ele>504.02</ele>
        <time>2018-04-10T08:30:18.999Z</time>
      </trkpt>
      <trkpt lat="46.22117" lon="3.01795">
        <ele>504.97</ele>
        <time>2018-04-10T08:30:21.999Z</time>
      </trkpt>
      <trkpt lat="46.22117" lon="3.01781">
        <ele>505.06</ele>
        <time>2018-04-10T08:30:23.999Z</time>
      </trkpt>
      <trkpt lat="46.22118" lon="3.01768">
        <ele>505.2</ele>
        <time>2018-04-10T08:30:25.999Z</time>
      </trkpt>
      <trkpt lat="46.22117" lon="3.01755">
        <ele>505.53</ele>
        <time>2018-04-10T08:30:27.999Z</time>
      </trkpt>
      <trkpt lat="46.22114" lon="3.01741">
        <ele>505.81</ele>
        <time>2018-04-10T08:30:29.999Z</time>
      </trkpt>
      <trkpt lat="46.22111" lon="3.01729">
        <ele>506.09</ele>
        <time>2018-04-10T08:30:31.999Z</time>
      </trkpt>
      <trkpt lat="46.22105" lon="3.01717">
        <ele>506.76</ele>
        <time>2018-04-10T08:30:33.999Z</time>
      </trkpt>
      <trkpt lat="46.221" lon="3.01706">
        <ele>507.26</ele>
        <time>2018-04-10T08:30:35.999Z</time>
      </trkpt>
      <trkpt lat="46.22095" lon="3.01695">
        <ele>507.81</ele>
        <time>2018-04-10T08:30:37.999Z</time>
      </trkpt>
      <trkpt lat="46.22089" lon="3.01684">
        <ele>508.33</ele>
        <time>2018-04-10T08:30:39.999Z</time>
      </trkpt>
      <trkpt lat="46.22084" lon="3.01673">
        <ele>508.64</ele>
        <time>2018-04-10T08:30:41.999Z</time>
      </trkpt>
      <trkpt lat="46.22078" lon="3.01662">
        <ele>508.83</ele>
        <time>2018-04-10T08:30:43.999Z</time>
      </trkpt>
      <trkpt lat="46.22072" lon="3.01652">
        <ele>508.64</ele>
        <time>2018-04-10T08:30:45.999Z</time>
      </trkpt>
      <trkpt lat="46.22066" lon="3.01641">
        <ele>508.73</ele>
        <time>2018-04-10T08:30:47.999Z</time>
      </trkpt>
      <trkpt lat="46.2206" lon="3.01631">
        <ele>508.81</ele>
        <time>2018-04-10T08:30:49.999Z</time>
      </trkpt>
      <trkpt lat="46.22054" lon="3.01621">
        <ele>509.2</ele>
        <time>2018-04-10T08:30:51.999Z</time>
      </trkpt>
      <trkpt lat="46.22046" lon="3.01606">
        <ele>509.6</ele>
        <time>2018-04-10T08:30:54.999Z</time>
      </trkpt>
      <trkpt lat="46.22038" lon="3.01592">
        <ele>509.61</ele>
        <time>2018-04-10T08:30:57.999Z</time>
      </trkpt>
      <trkpt lat="46.2203" lon="3.01578">
        <ele>509.78</ele>
        <time>2018-04-10T08:31:00.999Z</time>
      </trkpt>
      <trkpt lat="46.2202" lon="3.01566">
        <ele>510.23</ele>
        <time>2018-04-10T08:31:03.999Z</time>
      </trkpt>
      <trkpt lat="46.22011" lon="3.01552">
        <ele>510.87</ele>
        <time>2018-04-10T08:31:06.999Z</time>
      </trkpt>
      <trkpt lat="46.22005" lon="3.01543">
        <ele>511.71</ele>
        <time>2018-04-10T08:31:08.999Z</time>
      </trkpt>
      <trkpt lat="46.21998" lon="3.01533">
        <ele>512.7</ele>
        <time>2018-04-10T08:31:10.999Z</time>
      </trkpt>
      <trkpt lat="46.21991" lon="3.01524">
        <ele>512.82</ele>
        <time>2018-04-10T08:31:12.999Z</time>
      </trkpt>
      <trkpt lat="46.21985" lon="3.01514">
        <ele>513.16</ele>
        <time>2018-04-10T08:31:14.999Z</time>
      </trkpt>
      <trkpt lat="46.21978" lon="3.01504">
        <ele>513.74</ele>
        <time>2018-04-10T08:31:16.999Z</time>
      </trkpt>
      <trkpt lat="46.21972" lon="3.01493">
        <ele>514.5</ele>
        <time>2018-04-10T08:31:18.999Z</time>
      </trkpt>
      <trkpt lat="46.21965" lon="3.01482">
        <ele>514.54</ele>
        <time>2018-04-10T08:31:20.999Z</time>
      </trkpt>
      <trkpt lat="46.21958" lon="3.01472">
        <ele>514.02</ele>
        <time>2018-04-10T08:31:22.999Z</time>
      </trkpt>
      <trkpt lat="46.21952" lon="3.01462">
        <ele>514.06</ele>
        <time>2018-04-10T08:31:24.999Z</time>
      </trkpt>
      <trkpt lat="46.21945" lon="3.01452">
        <ele>514.52</ele>
        <time>2018-04-10T08:31:26.999Z</time>
      </trkpt>
      <trkpt lat="46.21938" lon="3.01442">
        <ele>514.33</ele>
        <time>2018-04-10T08:31:28.999Z</time>
      </trkpt>
      <trkpt lat="46.21931" lon="3.01432">
        <ele>514.34</ele>
        <time>2018-04-10T08:31:30.999Z</time>
      </trkpt>
      <trkpt lat="46.21925" lon="3.01422">
        <ele>514.33</ele>
        <time>2018-04-10T08:31:32.999Z</time>
      </trkpt>
      <trkpt lat="46.21919" lon="3.01412">
        <ele>514.79</ele>
        <time>2018-04-10T08:31:34.999Z</time>
      </trkpt>
      <trkpt lat="46.21912" lon="3.01402">
        <ele>515.3</ele>
        <time>2018-04-10T08:31:36.999Z</time>
      </trkpt>
      <trkpt lat="46.21905" lon="3.01392">
        <ele>515.63</ele>
        <time>2018-04-10T08:31:38.999Z</time>
      </trkpt>
      <trkpt lat="46.21898" lon="3.01383">
        <ele>516.17</ele>
        <time>2018-04-10T08:31:40.999Z</time>
      </trkpt>
      <trkpt lat="46.21892" lon="3.01373">
        <ele>516.9</ele>
        <time>2018-04-10T08:31:42.999Z</time>
      </trkpt>
      <trkpt lat="46.21887" lon="3.01362">
        <ele>517.54</ele>
        <time>2018-04-10T08:31:44.999Z</time>
      </trkpt>
      <trkpt lat="46.21882" lon="3.01351">
        <ele>518.57</ele>
        <time>2018-04-10T08:31:46.999Z</time>
      </trkpt>
      <trkpt lat="46.21877" lon="3.01332">
        <ele>519.04</ele>
        <time>2018-04-10T08:31:49.999Z</time>
      </trkpt>
      <trkpt lat="46.21877" lon="3.01318">
        <ele>519.1</ele>
        <time>2018-04-10T08:31:51.999Z</time>
      </trkpt>
      <trkpt lat="46.21876" lon="3.01303">
        <ele>518.55</ele>
        <time>2018-04-10T08:31:53.999Z</time>
      </trkpt>
      <trkpt lat="46.21878" lon="3.01289">
        <ele>519.15</ele>
        <time>2018-04-10T08:31:55.999Z</time>
      </trkpt>
      <trkpt lat="46.21878" lon="3.01276">
        <ele>519.38</ele>
        <time>2018-04-10T08:31:57.999Z</time>
      </trkpt>
      <trkpt lat="46.2188" lon="3.01261">
        <ele>519.85</ele>
        <time>2018-04-10T08:31:59.999Z</time>
      </trkpt>
      <trkpt lat="46.2188" lon="3.01247">
        <ele>520.22</ele>
        <time>2018-04-10T08:32:01.999Z</time>
      </trkpt>
      <trkpt lat="46.21881" lon="3.01233">
        <ele>520.55</ele>
        <time>2018-04-10T08:32:03.999Z</time>
      </trkpt>
      <trkpt lat="46.21881" lon="3.0122">
        <ele>520.97</ele>
        <time>2018-04-10T08:32:05.999Z</time>
      </trkpt>
      <trkpt lat="46.21881" lon="3.01206">
        <ele>521.32</ele>
        <time>2018-04-10T08:32:07.999Z</time>
      </trkpt>
      <trkpt lat="46.2188" lon="3.0119">
        <ele>521.83</ele>
        <time>2018-04-10T08:32:09.999Z</time>
      </trkpt>
      <trkpt lat="46.21878" lon="3.01176">
        <ele>522.5</ele>
        <time>2018-04-10T08:32:11.999Z</time>
      </trkpt>
      <trkpt lat="46.21875" lon="3.01161">
        <ele>522.61</ele>
        <time>2018-04-10T08:32:13.999Z</time>
      </trkpt>
      <trkpt lat="46.21871" lon="3.01148">
        <ele>522.95</ele>
        <time>2018-04-10T08:32:15.999Z</time>
      </trkpt>
      <trkpt lat="46.21867" lon="3.01135">
        <ele>522.6</ele>
        <time>2018-04-10T08:32:17.999Z</time>
      </trkpt>
      <trkpt lat="46.21861" lon="3.01125">
        <ele>522.84</ele>
        <time>2018-04-10T08:32:19.999Z</time>
      </trkpt>
      <trkpt lat="46.21856" lon="3.01113">
        <ele>523.08</ele>
        <time>2018-04-10T08:32:21.999Z</time>
      </trkpt>
      <trkpt lat="46.21852" lon="3.01099">
        <ele>523.35</ele>
        <time>2018-04-10T08:32:23.999Z</time>
      </trkpt>
      <trkpt lat="46.21848" lon="3.01085">
        <ele>523.33</ele>
        <time>2018-04-10T08:32:25.999Z</time>
      </trkpt>
      <trkpt lat="46.21843" lon="3.01073">
        <ele>523.66</ele>
        <time>2018-04-10T08:32:27.999Z</time>
      </trkpt>
      <trkpt lat="46.21836" lon="3.01061">
        <ele>524.03</ele>
        <time>2018-04-10T08:32:29.999Z</time>
      </trkpt>
      <trkpt lat="46.2183" lon="3.0105">
        <ele>524.35</ele>
        <time>2018-04-10T08:32:31.999Z</time>
      </trkpt>
      <trkpt lat="46.21823" lon="3.01038">
        <ele>524.64</ele>
        <time>2018-04-10T08:32:33.999Z</time>
      </trkpt>
      <trkpt lat="46.21817" lon="3.01027">
        <ele>524.78</ele>
        <time>2018-04-10T08:32:35.999Z</time>
      </trkpt>
      <trkpt lat="46.21811" lon="3.01017">
        <ele>524.95</ele>
        <time>2018-04-10T08:32:37.999Z</time>
      </trkpt>
      <trkpt lat="46.21804" lon="3.01007">
        <ele>525.19</ele>
        <time>2018-04-10T08:32:39.999Z</time>
      </trkpt>
      <trkpt lat="46.21798" lon="3.00997">
        <ele>525.24</ele>
        <time>2018-04-10T08:32:41.999Z</time>
      </trkpt>
      <trkpt lat="46.21793" lon="3.00985">
        <ele>525.28</ele>
        <time>2018-04-10T08:32:43.999Z</time>
      </trkpt>
      <trkpt lat="46.21787" lon="3.00974">
        <ele>525.55</ele>
        <time>2018-04-10T08:32:45.999Z</time>
      </trkpt>
      <trkpt lat="46.2178" lon="3.00965">
        <ele>525.69</ele>
        <time>2018-04-10T08:32:47.999Z</time>
      </trkpt>
      <trkpt lat="46.21771" lon="3.0095">
        <ele>526.39</ele>
        <time>2018-04-10T08:32:50.999Z</time>
      </trkpt>
      <trkpt lat="46.21766" lon="3.0094">
        <ele>527.27</ele>
        <time>2018-04-10T08:32:52.999Z</time>
      </trkpt>
      <trkpt lat="46.21757" lon="3.00925">
        <ele>528.09</ele>
        <time>2018-04-10T08:32:55.999Z</time>
      </trkpt>
      <trkpt lat="46.21749" lon="3.0091">
        <ele>528.69</ele>
        <time>2018-04-10T08:32:58.999Z</time>
      </trkpt>
      <trkpt lat="46.21745" lon="3.00898">
        <ele>529.18</ele>
        <time>2018-04-10T08:33:00.999Z</time>
      </trkpt>
      <trkpt lat="46.21742" lon="3.00885">
        <ele>529.66</ele>
        <time>2018-04-10T08:33:02.999Z</time>
      </trkpt>
      <trkpt lat="46.21738" lon="3.00871">
        <ele>529.96</ele>
        <time>2018-04-10T08:33:04.999Z</time>
      </trkpt>
      <trkpt lat="46.21734" lon="3.00857">
        <ele>530.24</ele>
        <time>2018-04-10T08:33:06.999Z</time>
      </trkpt>
      <trkpt lat="46.21729" lon="3.00844">
        <ele>530.44</ele>
        <time>2018-04-10T08:33:08.999Z</time>
      </trkpt>
      <trkpt lat="46.21726" lon="3.0083">
        <ele>530.73</ele>
        <time>2018-04-10T08:33:10.999Z</time>
      </trkpt>
      <trkpt lat="46.21723" lon="3.00815">
        <ele>530.8</ele>
        <time>2018-04-10T08:33:12.999Z</time>
      </trkpt>
      <trkpt lat="46.21721" lon="3.008">
        <ele>530.55</ele>
        <time>2018-04-10T08:33:14.999Z</time>
      </trkpt>
      <trkpt lat="46.21718" lon="3.00787">
        <ele>530.88</ele>
        <time>2018-04-10T08:33:16.999Z</time>
      </trkpt>
      <trkpt lat="46.21713" lon="3.00774">
        <ele>531.09</ele>
        <time>2018-04-10T08:33:18.999Z</time>
      </trkpt>
      <trkpt lat="46.21709" lon="3.00761">
        <ele>530.98</ele>
        <time>2018-04-10T08:33:20.999Z</time>
      </trkpt>
      <trkpt lat="46.21706" lon="3.00748">
        <ele>530.98</ele>
        <time>2018-04-10T08:33:22.999Z</time>
      </trkpt>
      <trkpt lat="46.21702" lon="3.00736">
        <ele>531.17</ele>
        <time>2018-04-10T08:33:24.999Z</time>
      </trkpt>
      <trkpt lat="46.21698" lon="3.00723">
        <ele>531.12</ele>
        <time>2018-04-10T08:33:26.999Z</time>
      </trkpt>
      <trkpt lat="46.21695" lon="3.0071">
        <ele>531.27</ele>
        <time>2018-04-10T08:33:28.999Z</time>
      </trkpt>
      <trkpt lat="46.2169" lon="3.00698">
        <ele>531.83</ele>
        <time>2018-04-10T08:33:30.999Z</time>
      </trkpt>
      <trkpt lat="46.21686" lon="3.00687">
        <ele>532.49</ele>
        <time>2018-04-10T08:33:32.999Z</time>
      </trkpt>
      <trkpt lat="46.2168" lon="3.00671">
        <ele>533.5</ele>
        <time>2018-04-10T08:33:35.999Z</time>
      </trkpt>
      <trkpt lat="46.21676" lon="3.00656">
        <ele>534.81</ele>
        <time>2018-04-10T08:33:38.999Z</time>
      </trkpt>
      <trkpt lat="46.21672" lon="3.00641">
        <ele>535.65</ele>
        <time>2018-04-10T08:33:41.999Z</time>
      </trkpt>
      <trkpt lat="46.21669" lon="3.00625">
        <ele>536.21</ele>
        <time>2018-04-10T08:33:44.999Z</time>
      </trkpt>
      <trkpt lat="46.21666" lon="3.00609">
        <ele>536.94</ele>
        <time>2018-04-10T08:33:47.999Z</time>
      </trkpt>
      <trkpt lat="46.21663" lon="3.00593">
        <ele>538.66</ele>
        <time>2018-04-10T08:33:50.999Z</time>
      </trkpt>
      <trkpt lat="46.21661" lon="3.00577">
        <ele>539.61</ele>
        <time>2018-04-10T08:33:53.999Z</time>
      </trkpt>
      <trkpt lat="46.21659" lon="3.00561">
        <ele>540.92</ele>
        <time>2018-04-10T08:33:56.999Z</time>
      </trkpt>
      <trkpt lat="46.21659" lon="3.00547">
        <ele>542.27</ele>
        <time>2018-04-10T08:33:59.999Z</time>
      </trkpt>
      <trkpt lat="46.21663" lon="3.00532">
        <ele>543.47</ele>
        <time>2018-04-10T08:34:02.999Z</time>
      </trkpt>
      <trkpt lat="46.21666" lon="3.00519">
        <ele>544.59</ele>
        <time>2018-04-10T08:34:05.999Z</time>
      </trkpt>
      <trkpt lat="46.21669" lon="3.00506">
        <ele>545.3</ele>
        <time>2018-04-10T08:34:08.999Z</time>
      </trkpt>
      <trkpt lat="46.21675" lon="3.00493">
        <ele>546.44</ele>
        <time>2018-04-10T08:34:12.999Z</time>
      </trkpt>
      <trkpt lat="46.21682" lon="3.00484">
        <ele>548.27</ele>
        <time>2018-04-10T08:34:15.999Z</time>
      </trkpt>
      <trkpt lat="46.21689" lon="3.00475">
        <ele>549.8</ele>
        <time>2018-04-10T08:34:18.999Z</time>
      </trkpt>
      <trkpt lat="46.21697" lon="3.00466">
        <ele>550.15</ele>
        <time>2018-04-10T08:34:21.999Z</time>
      </trkpt>
      <trkpt lat="46.21705" lon="3.00455">
        <ele>550.99</ele>
        <time>2018-04-10T08:34:25.999Z</time>
      </trkpt>
      <trkpt lat="46.21712" lon="3.00446">
        <ele>552.56</ele>
        <time>2018-04-10T08:34:28.999Z</time>
      </trkpt>
      <trkpt lat="46.21718" lon="3.00436">
        <ele>553.17</ele>
        <time>2018-04-10T08:34:31.999Z</time>
      </trkpt>
      <trkpt lat="46.21724" lon="3.00425">
        <ele>553.13</ele>
        <time>2018-04-10T08:34:34.999Z</time>
      </trkpt>
      <trkpt lat="46.21727" lon="3.00412">
        <ele>553.33</ele>
        <time>2018-04-10T08:34:37.999Z</time>
      </trkpt>
      <trkpt lat="46.21729" lon="3.00398">
        <ele>554.06</ele>
        <time>2018-04-10T08:34:40.999Z</time>
      </trkpt>
      <trkpt lat="46.21728" lon="3.00381">
        <ele>554.71</ele>
        <time>2018-04-10T08:34:44.999Z</time>
      </trkpt>
      <trkpt lat="46.21725" lon="3.00369">
        <ele>555.41</ele>
        <time>2018-04-10T08:34:47.999Z</time>
      </trkpt>
      <trkpt lat="46.21721" lon="3.00356">
        <ele>555.97</ele>
        <time>2018-04-10T08:34:50.999Z</time>
      </trkpt>
      <trkpt lat="46.21717" lon="3.00344">
        <ele>556.69</ele>
        <time>2018-04-10T08:34:53.999Z</time>
      </trkpt>
      <trkpt lat="46.21712" lon="3.00332">
        <ele>556.56</ele>
        <time>2018-04-10T08:34:56.999Z</time>
      </trkpt>
      <trkpt lat="46.21707" lon="3.0032">
        <ele>556.87</ele>
        <time>2018-04-10T08:34:59.999Z</time>
      </trkpt>
      <trkpt lat="46.217" lon="3.0031">
        <ele>557.32</ele>
        <time>2018-04-10T08:35:02.999Z</time>
      </trkpt>
      <trkpt lat="46.21693" lon="3.00302">
        <ele>557.79</ele>
        <time>2018-04-10T08:35:05.999Z</time>
      </trkpt>
      <trkpt lat="46.21683" lon="3.00292">
        <ele>557.7</ele>
        <time>2018-04-10T08:35:09.999Z</time>
      </trkpt>
      <trkpt lat="46.21676" lon="3.00286">
        <ele>558.5</ele>
        <time>2018-04-10T08:35:12.999Z</time>
      </trkpt>
      <trkpt lat="46.21667" lon="3.00279">
        <ele>558.89</ele>
        <time>2018-04-10T08:35:15.999Z</time>
      </trkpt>
      <trkpt lat="46.21659" lon="3.00271">
        <ele>559.33</ele>
        <time>2018-04-10T08:35:18.999Z</time>
      </trkpt>
      <trkpt lat="46.21652" lon="3.00264">
        <ele>559.9</ele>
        <time>2018-04-10T08:35:21.999Z</time>
      </trkpt>
      <trkpt lat="46.21642" lon="3.00253">
        <ele>560.85</ele>
        <time>2018-04-10T08:35:25.999Z</time>
      </trkpt>
      <trkpt lat="46.21637" lon="3.00242">
        <ele>561.39</ele>
        <time>2018-04-10T08:35:28.999Z</time>
      </trkpt>
      <trkpt lat="46.21631" lon="3.00232">
        <ele>562.47</ele>
        <time>2018-04-10T08:35:31.999Z</time>
      </trkpt>
      <trkpt lat="46.21626" lon="3.0022">
        <ele>562.68</ele>
        <time>2018-04-10T08:35:34.999Z</time>
      </trkpt>
      <trkpt lat="46.2162" lon="3.00206">
        <ele>562.61</ele>
        <time>2018-04-10T08:35:37.999Z</time>
      </trkpt>
      <trkpt lat="46.21615" lon="3.00192">
        <ele>562.7</ele>
        <time>2018-04-10T08:35:40.999Z</time>
      </trkpt>
      <trkpt lat="46.21609" lon="3.0018">
        <ele>563.24</ele>
        <time>2018-04-10T08:35:43.999Z</time>
      </trkpt>
      <trkpt lat="46.21603" lon="3.00166">
        <ele>563.09</ele>
        <time>2018-04-10T08:35:46.999Z</time>
      </trkpt>
      <trkpt lat="46.21596" lon="3.00153">
        <ele>562.59</ele>
        <time>2018-04-10T08:35:49.999Z</time>
      </trkpt>
      <trkpt lat="46.21589" lon="3.0014">
        <ele>562.77</ele>
        <time>2018-04-10T08:35:52.999Z</time>
      </trkpt>
      <trkpt lat="46.21581" lon="3.00127">
        <ele>563.35</ele>
        <time>2018-04-10T08:35:55.999Z</time>
      </trkpt>
      <trkpt lat="46.21573" lon="3.00115">
        <ele>564.42</ele>
        <time>2018-04-10T08:35:58.999Z</time>
      </trkpt>
      <trkpt lat="46.21564" lon="3.00101">
        <ele>565.14</ele>
        <time>2018-04-10T08:36:01.999Z</time>
      </trkpt>
      <trkpt lat="46.21555" lon="3.00087">
        <ele>565.12</ele>
        <time>2018-04-10T08:36:04.999Z</time>
      </trkpt>
      <trkpt lat="46.21548" lon="3.00077">
        <ele>565.01</ele>
        <time>2018-04-10T08:36:06.999Z</time>
      </trkpt>
      <trkpt lat="46.21539" lon="3.00063">
        <ele>565.25</ele>
        <time>2018-04-10T08:36:09.999Z</time>
      </trkpt>
      <trkpt lat="46.21533" lon="3.00053">
        <ele>565.04</ele>
        <time>2018-04-10T08:36:11.999Z</time>
      </trkpt>
      <trkpt lat="46.21524" lon="3.00039">
        <ele>564.43</ele>
        <time>2018-04-10T08:36:14.999Z</time>
      </trkpt>
      <trkpt lat="46.21516" lon="3.00025">
        <ele>564.48</ele>
        <time>2018-04-10T08:36:17.999Z</time>
      </trkpt>
      <trkpt lat="46.21507" lon="3.00011">
        <ele>564.67</ele>
        <time>2018-04-10T08:36:20.999Z</time>
      </trkpt>
      <trkpt lat="46.21497" lon="2.99997">
        <ele>565.05</ele>
        <time>2018-04-10T08:36:23.999Z</time>
      </trkpt>
      <trkpt lat="46.21488" lon="2.99984">
        <ele>565.19</ele>
        <time>2018-04-10T08:36:26.999Z</time>
      </trkpt>
      <trkpt lat="46.21479" lon="2.99972">
        <ele>565.35</ele>
        <time>2018-04-10T08:36:29.999Z</time>
      </trkpt>
      <trkpt lat="46.21468" lon="2.99962">
        <ele>565.9</ele>
        <time>2018-04-10T08:36:32.999Z</time>
      </trkpt>
      <trkpt lat="46.21458" lon="2.99952">
        <ele>566.19</ele>
        <time>2018-04-10T08:36:35.999Z</time>
      </trkpt>
      <trkpt lat="46.21449" lon="2.99944">
        <ele>566.5</ele>
        <time>2018-04-10T08:36:38.999Z</time>
      </trkpt>
      <trkpt lat="46.21439" lon="2.99935">
        <ele>566.56</ele>
        <time>2018-04-10T08:36:41.999Z</time>
      </trkpt>
      <trkpt lat="46.2143" lon="2.99926">
        <ele>566.76</ele>
        <time>2018-04-10T08:36:44.999Z</time>
      </trkpt>
      <trkpt lat="46.21421" lon="2.99918">
        <ele>567.08</ele>
        <time>2018-04-10T08:36:47.999Z</time>
      </trkpt>
      <trkpt lat="46.21412" lon="2.9991">
        <ele>567.34</ele>
        <time>2018-04-10T08:36:50.999Z</time>
      </trkpt>
      <trkpt lat="46.21403" lon="2.99901">
        <ele>567.95</ele>
        <time>2018-04-10T08:36:53.999Z</time>
      </trkpt>
      <trkpt lat="46.21395" lon="2.99893">
        <ele>569.07</ele>
        <time>2018-04-10T08:36:56.999Z</time>
      </trkpt>
      <trkpt lat="46.21388" lon="2.99884">
        <ele>569.46</ele>
        <time>2018-04-10T08:36:59.999Z</time>
      </trkpt>
      <trkpt lat="46.21379" lon="2.99872">
        <ele>570.97</ele>
        <time>2018-04-10T08:37:03.999Z</time>
      </trkpt>
      <trkpt lat="46.21373" lon="2.99862">
        <ele>572.11</ele>
        <time>2018-04-10T08:37:06.999Z</time>
      </trkpt>
      <trkpt lat="46.21367" lon="2.99852">
        <ele>573.15</ele>
        <time>2018-04-10T08:37:09.999Z</time>
      </trkpt>
      <trkpt lat="46.2136" lon="2.99841">
        <ele>574.71</ele>
        <time>2018-04-10T08:37:12.999Z</time>
      </trkpt>
      <trkpt lat="46.21353" lon="2.99829">
        <ele>575.04</ele>
        <time>2018-04-10T08:37:15.999Z</time>
      </trkpt>
      <trkpt lat="46.21346" lon="2.99816">
        <ele>575.53</ele>
        <time>2018-04-10T08:37:18.999Z</time>
      </trkpt>
      <trkpt lat="46.2134" lon="2.99804">
        <ele>575.79</ele>
        <time>2018-04-10T08:37:21.999Z</time>
      </trkpt>
      <trkpt lat="46.21336" lon="2.9979">
        <ele>577.35</ele>
        <time>2018-04-10T08:37:24.999Z</time>
      </trkpt>
      <trkpt lat="46.21333" lon="2.99777">
        <ele>578.84</ele>
        <time>2018-04-10T08:37:27.999Z</time>
      </trkpt>
      <trkpt lat="46.21329" lon="2.99761">
        <ele>579.55</ele>
        <time>2018-04-10T08:37:30.999Z</time>
      </trkpt>
      <trkpt lat="46.21326" lon="2.99745">
        <ele>580.29</ele>
        <time>2018-04-10T08:37:33.999Z</time>
      </trkpt>
      <trkpt lat="46.21323" lon="2.99728">
        <ele>581.07</ele>
        <time>2018-04-10T08:37:36.999Z</time>
      </trkpt>
      <trkpt lat="46.21319" lon="2.99712">
        <ele>581.6</ele>
        <time>2018-04-10T08:37:39.999Z</time>
      </trkpt>
      <trkpt lat="46.21317" lon="2.99696">
        <ele>582.47</ele>
        <time>2018-04-10T08:37:42.999Z</time>
      </trkpt>
      <trkpt lat="46.21314" lon="2.9968">
        <ele>583.41</ele>
        <time>2018-04-10T08:37:45.999Z</time>
      </trkpt>
      <trkpt lat="46.21311" lon="2.99665">
        <ele>584.44</ele>
        <time>2018-04-10T08:37:48.999Z</time>
      </trkpt>
      <trkpt lat="46.21307" lon="2.99648">
        <ele>585.61</ele>
        <time>2018-04-10T08:37:51.999Z</time>
      </trkpt>
      <trkpt lat="46.21304" lon="2.99632">
        <ele>586.57</ele>
        <time>2018-04-10T08:37:54.999Z</time>
      </trkpt>
      <trkpt lat="46.213" lon="2.99616">
        <ele>587.01</ele>
        <time>2018-04-10T08:37:57.999Z</time>
      </trkpt>
      <trkpt lat="46.21296" lon="2.99601">
        <ele>587.37</ele>
        <time>2018-04-10T08:38:00.999Z</time>
      </trkpt>
      <trkpt lat="46.21293" lon="2.99585">
        <ele>588.51</ele>
        <time>2018-04-10T08:38:03.999Z</time>
      </trkpt>
      <trkpt lat="46.21287" lon="2.99572">
        <ele>589.54</ele>
        <time>2018-04-10T08:38:06.999Z</time>
      </trkpt>
      <trkpt lat="46.21281" lon="2.99559">
        <ele>590.03</ele>
        <time>2018-04-10T08:38:09.999Z</time>
      </trkpt>
      <trkpt lat="46.21275" lon="2.99547">
        <ele>590.73</ele>
        <time>2018-04-10T08:38:12.999Z</time>
      </trkpt>
      <trkpt lat="46.21268" lon="2.99536">
        <ele>591.34</ele>
        <time>2018-04-10T08:38:15.999Z</time>
      </trkpt>
      <trkpt lat="46.2126" lon="2.99527">
        <ele>591.47</ele>
        <time>2018-04-10T08:38:18.999Z</time>
      </trkpt>
      <trkpt lat="46.21252" lon="2.99516">
        <ele>591.09</ele>
        <time>2018-04-10T08:38:21.999Z</time>
      </trkpt>
      <trkpt lat="46.21244" lon="2.99506">
        <ele>591.37</ele>
        <time>2018-04-10T08:38:24.999Z</time>
      </trkpt>
      <trkpt lat="46.21236" lon="2.99497">
        <ele>591.55</ele>
        <time>2018-04-10T08:38:27.999Z</time>
      </trkpt>
      <trkpt lat="46.21228" lon="2.99488">
        <ele>591.04</ele>
        <time>2018-04-10T08:38:30.999Z</time>
      </trkpt>
      <trkpt lat="46.2122" lon="2.9948">
        <ele>590.78</ele>
        <time>2018-04-10T08:38:33.999Z</time>
      </trkpt>
      <trkpt lat="46.21212" lon="2.99471">
        <ele>591.34</ele>
        <time>2018-04-10T08:38:36.999Z</time>
      </trkpt>
      <trkpt lat="46.21204" lon="2.9946">
        <ele>592.06</ele>
        <time>2018-04-10T08:38:39.999Z</time>
      </trkpt>
      <trkpt lat="46.21195" lon="2.99449">
        <ele>592.59</ele>
        <time>2018-04-10T08:38:42.999Z</time>
      </trkpt>
      <trkpt lat="46.21186" lon="2.99439">
        <ele>593.6</ele>
        <time>2018-04-10T08:38:45.999Z</time>
      </trkpt>
      <trkpt lat="46.21177" lon="2.99428">
        <ele>594.29</ele>
        <time>2018-04-10T08:38:48.999Z</time>
      </trkpt>
      <trkpt lat="46.21168" lon="2.99417">
        <ele>595.1</ele>
        <time>2018-04-10T08:38:51.999Z</time>
      </trkpt>
      <trkpt lat="46.21158" lon="2.99406">
        <ele>595.67</ele>
        <time>2018-04-10T08:38:54.999Z</time>
      </trkpt>
      <trkpt lat="46.21149" lon="2.99395">
        <ele>596.17</ele>
        <time>2018-04-10T08:38:57.999Z</time>
      </trkpt>
      <trkpt lat="46.21139" lon="2.99385">
        <ele>596.82</ele>
        <time>2018-04-10T08:39:00.999Z</time>
      </trkpt>
      <trkpt lat="46.21129" lon="2.99374">
        <ele>597.35</ele>
        <time>2018-04-10T08:39:03.999Z</time>
      </trkpt>
      <trkpt lat="46.21118" lon="2.99366">
        <ele>597.7</ele>
        <time>2018-04-10T08:39:06.999Z</time>
      </trkpt>
      <trkpt lat="46.21107" lon="2.99357">
        <ele>598.52</ele>
        <time>2018-04-10T08:39:09.999Z</time>
      </trkpt>
      <trkpt lat="46.21099" lon="2.9935">
        <ele>598.8</ele>
        <time>2018-04-10T08:39:11.999Z</time>
      </trkpt>
      <trkpt lat="46.2109" lon="2.99344">
        <ele>599.08</ele>
        <time>2018-04-10T08:39:13.999Z</time>
      </trkpt>
      <trkpt lat="46.21079" lon="2.99334">
        <ele>599.36</ele>
        <time>2018-04-10T08:39:16.999Z</time>
      </trkpt>
      <trkpt lat="46.21071" lon="2.99326">
        <ele>599.36</ele>
        <time>2018-04-10T08:39:18.999Z</time>
      </trkpt>
      <trkpt lat="46.21064" lon="2.99317">
        <ele>599.8</ele>
        <time>2018-04-10T08:39:20.999Z</time>
      </trkpt>
      <trkpt lat="46.21056" lon="2.99307">
        <ele>600.3</ele>
        <time>2018-04-10T08:39:22.999Z</time>
      </trkpt>
      <trkpt lat="46.21049" lon="2.99298">
        <ele>600.82</ele>
        <time>2018-04-10T08:39:24.999Z</time>
      </trkpt>
      <trkpt lat="46.21042" lon="2.99288">
        <ele>601.51</ele>
        <time>2018-04-10T08:39:26.999Z</time>
      </trkpt>
      <trkpt lat="46.21035" lon="2.99277">
        <ele>602.14</ele>
        <time>2018-04-10T08:39:28.999Z</time>
      </trkpt>
      <trkpt lat="46.21029" lon="2.99266">
        <ele>602.6</ele>
        <time>2018-04-10T08:39:30.999Z</time>
      </trkpt>
      <trkpt lat="46.21022" lon="2.99255">
        <ele>602.95</ele>
        <time>2018-04-10T08:39:32.999Z</time>
      </trkpt>
      <trkpt lat="46.21016" lon="2.99245">
        <ele>603.19</ele>
        <time>2018-04-10T08:39:34.999Z</time>
      </trkpt>
      <trkpt lat="46.21007" lon="2.99232">
        <ele>603.53</ele>
        <time>2018-04-10T08:39:37.999Z</time>
      </trkpt>
      <trkpt lat="46.20997" lon="2.9922">
        <ele>603.7</ele>
        <time>2018-04-10T08:39:40.999Z</time>
      </trkpt>
      <trkpt lat="46.20987" lon="2.99209">
        <ele>603.43</ele>
        <time>2018-04-10T08:39:43.999Z</time>
      </trkpt>
      <trkpt lat="46.20976" lon="2.992">
        <ele>603.25</ele>
        <time>2018-04-10T08:39:46.999Z</time>
      </trkpt>
      <trkpt lat="46.20964" lon="2.99193">
        <ele>603.25</ele>
        <time>2018-04-10T08:39:49.999Z</time>
      </trkpt>
      <trkpt lat="46.20953" lon="2.99186">
        <ele>603.79</ele>
        <time>2018-04-10T08:39:52.999Z</time>
      </trkpt>
      <trkpt lat="46.20944" lon="2.99182">
        <ele>604.16</ele>
        <time>2018-04-10T08:39:54.999Z</time>
      </trkpt>
      <trkpt lat="46.20935" lon="2.99178">
        <ele>604.64</ele>
        <time>2018-04-10T08:39:56.999Z</time>
      </trkpt>
      <trkpt lat="46.20926" lon="2.99175">
        <ele>605.22</ele>
        <time>2018-04-10T08:39:58.999Z</time>
      </trkpt>
      <trkpt lat="46.20913" lon="2.99169">
        <ele>605.82</ele>
        <time>2018-04-10T08:40:01.999Z</time>
      </trkpt>
      <trkpt lat="46.20905" lon="2.99166">
        <ele>605.95</ele>
        <time>2018-04-10T08:40:03.999Z</time>
      </trkpt>
      <trkpt lat="46.20895" lon="2.99163">
        <ele>605.93</ele>
        <time>2018-04-10T08:40:05.999Z</time>
      </trkpt>
      <trkpt lat="46.20886" lon="2.99159">
        <ele>605.96</ele>
        <time>2018-04-10T08:40:07.999Z</time>
      </trkpt>
      <trkpt lat="46.20876" lon="2.99157">
        <ele>605.69</ele>
        <time>2018-04-10T08:40:09.999Z</time>
      </trkpt>
      <trkpt lat="46.20864" lon="2.99156">
        <ele>605.08</ele>
        <time>2018-04-10T08:40:11.999Z</time>
      </trkpt>
      <trkpt lat="46.20853" lon="2.99157">
        <ele>605.2</ele>
        <time>2018-04-10T08:40:13.999Z</time>
      </trkpt>
      <trkpt lat="46.20841" lon="2.99159">
        <ele>605.22</ele>
        <time>2018-04-10T08:40:15.999Z</time>
      </trkpt>
      <trkpt lat="46.20829" lon="2.99162">
        <ele>605.51</ele>
        <time>2018-04-10T08:40:17.999Z</time>
      </trkpt>
      <trkpt lat="46.20819" lon="2.99165">
        <ele>605.76</ele>
        <time>2018-04-10T08:40:19.999Z</time>
      </trkpt>
      <trkpt lat="46.20807" lon="2.99169">
        <ele>605.73</ele>
        <time>2018-04-10T08:40:21.999Z</time>
      </trkpt>
      <trkpt lat="46.20796" lon="2.99172">
        <ele>605.71</ele>
        <time>2018-04-10T08:40:23.999Z</time>
      </trkpt>
      <trkpt lat="46.20785" lon="2.99174">
        <ele>606.19</ele>
        <time>2018-04-10T08:40:25.999Z</time>
      </trkpt>
      <trkpt lat="46.20775" lon="2.99177">
        <ele>606.47</ele>
        <time>2018-04-10T08:40:27.999Z</time>
      </trkpt>
      <trkpt lat="46.20766" lon="2.9918">
        <ele>606.89</ele>
        <time>2018-04-10T08:40:29.999Z</time>
      </trkpt>
      <trkpt lat="46.20753" lon="2.99184">
        <ele>607.67</ele>
        <time>2018-04-10T08:40:32.999Z</time>
      </trkpt>
      <trkpt lat="46.20741" lon="2.99188">
        <ele>608.65</ele>
        <time>2018-04-10T08:40:35.999Z</time>
      </trkpt>
      <trkpt lat="46.20729" lon="2.99193">
        <ele>609.38</ele>
        <time>2018-04-10T08:40:38.999Z</time>
      </trkpt>
      <trkpt lat="46.20718" lon="2.99196">
        <ele>609.99</ele>
        <time>2018-04-10T08:40:41.999Z</time>
      </trkpt>
      <trkpt lat="46.20708" lon="2.992">
        <ele>610.64</ele>
        <time>2018-04-10T08:40:44.999Z</time>
      </trkpt>
      <trkpt lat="46.20697" lon="2.99203">
        <ele>610.89</ele>
        <time>2018-04-10T08:40:47.999Z</time>
      </trkpt>
      <trkpt lat="46.20688" lon="2.99205">
        <ele>611.73</ele>
        <time>2018-04-10T08:40:50.999Z</time>
      </trkpt>
      <trkpt lat="46.20676" lon="2.9921">
        <ele>612.83</ele>
        <time>2018-04-10T08:40:54.999Z</time>
      </trkpt>
      <trkpt lat="46.20667" lon="2.99213">
        <ele>613.57</ele>
        <time>2018-04-10T08:40:57.999Z</time>
      </trkpt>
      <trkpt lat="46.20656" lon="2.99216">
        <ele>614.61</ele>
        <time>2018-04-10T08:41:01.999Z</time>
      </trkpt>
      <trkpt lat="46.20647" lon="2.9922">
        <ele>615.22</ele>
        <time>2018-04-10T08:41:04.999Z</time>
      </trkpt>
      <trkpt lat="46.20637" lon="2.99223">
        <ele>616.27</ele>
        <time>2018-04-10T08:41:07.999Z</time>
      </trkpt>
      <trkpt lat="46.20627" lon="2.99226">
        <ele>617.37</ele>
        <time>2018-04-10T08:41:10.999Z</time>
      </trkpt>
      <trkpt lat="46.20618" lon="2.99229">
        <ele>617.77</ele>
        <time>2018-04-10T08:41:13.999Z</time>
      </trkpt>
      <trkpt lat="46.20607" lon="2.99232">
        <ele>617.51</ele>
        <time>2018-04-10T08:41:17.999Z</time>
      </trkpt>
      <trkpt lat="46.20595" lon="2.99236">
        <ele>617.57</ele>
        <time>2018-04-10T08:41:21.999Z</time>
      </trkpt>
      <trkpt lat="46.20586" lon="2.99239">
        <ele>618.22</ele>
        <time>2018-04-10T08:41:24.999Z</time>
      </trkpt>
      <trkpt lat="46.20577" lon="2.99241">
        <ele>618.52</ele>
        <time>2018-04-10T08:41:27.999Z</time>
      </trkpt>
      <trkpt lat="46.20565" lon="2.99244">
        <ele>618.91</ele>
        <time>2018-04-10T08:41:31.999Z</time>
      </trkpt>
      <trkpt lat="46.20556" lon="2.99244">
        <ele>618.3</ele>
        <time>2018-04-10T08:41:34.999Z</time>
      </trkpt>
      <trkpt lat="46.20544" lon="2.99243">
        <ele>617.8</ele>
        <time>2018-04-10T08:41:37.999Z</time>
      </trkpt>
      <trkpt lat="46.20533" lon="2.99241">
        <ele>617.61</ele>
        <time>2018-04-10T08:41:40.999Z</time>
      </trkpt>
      <trkpt lat="46.20522" lon="2.99238">
        <ele>617.7</ele>
        <time>2018-04-10T08:41:43.999Z</time>
      </trkpt>
      <trkpt lat="46.20509" lon="2.99235">
        <ele>617.83</ele>
        <time>2018-04-10T08:41:46.999Z</time>
      </trkpt>
      <trkpt lat="46.20497" lon="2.99232">
        <ele>618.27</ele>
        <time>2018-04-10T08:41:49.999Z</time>
      </trkpt>
      <trkpt lat="46.20484" lon="2.99229">
        <ele>618.58</ele>
        <time>2018-04-10T08:41:52.999Z</time>
      </trkpt>
      <trkpt lat="46.20475" lon="2.99227">
        <ele>618.54</ele>
        <time>2018-04-10T08:41:54.999Z</time>
      </trkpt>
      <trkpt lat="46.20462" lon="2.99223">
        <ele>618.48</ele>
        <time>2018-04-10T08:41:57.999Z</time>
      </trkpt>
      <trkpt lat="46.20449" lon="2.99218">
        <ele>618.59</ele>
        <time>2018-04-10T08:42:00.999Z</time>
      </trkpt>
      <trkpt lat="46.2044" lon="2.99215">
        <ele>618.59</ele>
        <time>2018-04-10T08:42:02.999Z</time>
      </trkpt>
      <trkpt lat="46.2043" lon="2.99211">
        <ele>618.32</ele>
        <time>2018-04-10T08:42:04.999Z</time>
      </trkpt>
      <trkpt lat="46.20421" lon="2.99207">
        <ele>618.03</ele>
        <time>2018-04-10T08:42:06.999Z</time>
      </trkpt>
      <trkpt lat="46.20411" lon="2.99202">
        <ele>617.57</ele>
        <time>2018-04-10T08:42:08.999Z</time>
      </trkpt>
      <trkpt lat="46.20401" lon="2.99197">
        <ele>617.07</ele>
        <time>2018-04-10T08:42:10.999Z</time>
      </trkpt>
      <trkpt lat="46.20392" lon="2.99191">
        <ele>617.2</ele>
        <time>2018-04-10T08:42:12.999Z</time>
      </trkpt>
      <trkpt lat="46.20383" lon="2.99186">
        <ele>617.51</ele>
        <time>2018-04-10T08:42:14.999Z</time>
      </trkpt>
      <trkpt lat="46.20373" lon="2.99181">
        <ele>617.95</ele>
        <time>2018-04-10T08:42:16.999Z</time>
      </trkpt>
      <trkpt lat="46.20364" lon="2.99175">
        <ele>618.05</ele>
        <time>2018-04-10T08:42:18.999Z</time>
      </trkpt>
      <trkpt lat="46.20354" lon="2.9917">
        <ele>618.08</ele>
        <time>2018-04-10T08:42:20.999Z</time>
      </trkpt>
      <trkpt lat="46.20346" lon="2.99166">
        <ele>618.26</ele>
        <time>2018-04-10T08:42:22.999Z</time>
      </trkpt>
      <trkpt lat="46.20337" lon="2.99162">
        <ele>618.7</ele>
        <time>2018-04-10T08:42:24.999Z</time>
      </trkpt>
      <trkpt lat="46.20328" lon="2.99158">
        <ele>618.94</ele>
        <time>2018-04-10T08:42:26.999Z</time>
      </trkpt>
      <trkpt lat="46.20319" lon="2.99155">
        <ele>619.33</ele>
        <time>2018-04-10T08:42:28.999Z</time>
      </trkpt>
      <trkpt lat="46.20309" lon="2.99151">
        <ele>619.76</ele>
        <time>2018-04-10T08:42:30.999Z</time>
      </trkpt>
      <trkpt lat="46.203" lon="2.99147">
        <ele>620.13</ele>
        <time>2018-04-10T08:42:32.999Z</time>
      </trkpt>
      <trkpt lat="46.2029" lon="2.99144">
        <ele>620.65</ele>
        <time>2018-04-10T08:42:34.999Z</time>
      </trkpt>
      <trkpt lat="46.20281" lon="2.99141">
        <ele>621.16</ele>
        <time>2018-04-10T08:42:36.999Z</time>
      </trkpt>
      <trkpt lat="46.20272" lon="2.99138">
        <ele>621.51</ele>
        <time>2018-04-10T08:42:38.999Z</time>
      </trkpt>
      <trkpt lat="46.20259" lon="2.99135">
        <ele>621.94</ele>
        <time>2018-04-10T08:42:41.999Z</time>
      </trkpt>
      <trkpt lat="46.20247" lon="2.99133">
        <ele>622.57</ele>
        <time>2018-04-10T08:42:44.999Z</time>
      </trkpt>
      <trkpt lat="46.20237" lon="2.99133">
        <ele>622.96</ele>
        <time>2018-04-10T08:42:46.999Z</time>
      </trkpt>
      <trkpt lat="46.20224" lon="2.99132">
        <ele>623.86</ele>
        <time>2018-04-10T08:42:49.999Z</time>
      </trkpt>
      <trkpt lat="46.20211" lon="2.99132">
        <ele>625.17</ele>
        <time>2018-04-10T08:42:52.999Z</time>
      </trkpt>
      <trkpt lat="46.20198" lon="2.99134">
        <ele>625.91</ele>
        <time>2018-04-10T08:42:55.999Z</time>
      </trkpt>
      <trkpt lat="46.20187" lon="2.99135">
        <ele>627</ele>
        <time>2018-04-10T08:42:58.998Z</time>
      </trkpt>
      <trkpt lat="46.20176" lon="2.99137">
        <ele>627.82</ele>
        <time>2018-04-10T08:43:01.999Z</time>
      </trkpt>
      <trkpt lat="46.20165" lon="2.99138">
        <ele>628.57</ele>
        <time>2018-04-10T08:43:04.999Z</time>
      </trkpt>
      <trkpt lat="46.20155" lon="2.9914">
        <ele>629.2</ele>
        <time>2018-04-10T08:43:07.999Z</time>
      </trkpt>
      <trkpt lat="46.20142" lon="2.99142">
        <ele>630.18</ele>
        <time>2018-04-10T08:43:11.999Z</time>
      </trkpt>
      <trkpt lat="46.20132" lon="2.99147">
        <ele>631.05</ele>
        <time>2018-04-10T08:43:14.999Z</time>
      </trkpt>
      <trkpt lat="46.20123" lon="2.99153">
        <ele>632.2</ele>
        <time>2018-04-10T08:43:17.999Z</time>
      </trkpt>
      <trkpt lat="46.20113" lon="2.99161">
        <ele>633.71</ele>
        <time>2018-04-10T08:43:21.999Z</time>
      </trkpt>
      <trkpt lat="46.20104" lon="2.99167">
        <ele>635.16</ele>
        <time>2018-04-10T08:43:25.999Z</time>
      </trkpt>
      <trkpt lat="46.20094" lon="2.9917">
        <ele>637.11</ele>
        <time>2018-04-10T08:43:29.999Z</time>
      </trkpt>
      <trkpt lat="46.20083" lon="2.99171">
        <ele>639.2</ele>
        <time>2018-04-10T08:43:33.999Z</time>
      </trkpt>
      <trkpt lat="46.20071" lon="2.99169">
        <ele>641.27</ele>
        <time>2018-04-10T08:43:37.999Z</time>
      </trkpt>
      <trkpt lat="46.20061" lon="2.99169">
        <ele>642.72</ele>
        <time>2018-04-10T08:43:40.999Z</time>
      </trkpt>
      <trkpt lat="46.20049" lon="2.9917">
        <ele>644.06</ele>
        <time>2018-04-10T08:43:43.999Z</time>
      </trkpt>
      <trkpt lat="46.20038" lon="2.99171">
        <ele>646.03</ele>
        <time>2018-04-10T08:43:46.999Z</time>
      </trkpt>
      <trkpt lat="46.20027" lon="2.99172">
        <ele>648.36</ele>
        <time>2018-04-10T08:43:49.999Z</time>
      </trkpt>
      <trkpt lat="46.20011" lon="2.99172">
        <ele>651.93</ele>
        <time>2018-04-10T08:43:53.999Z</time>
      </trkpt>
      <trkpt lat="46.19994" lon="2.99172">
        <ele>655.6</ele>
        <time>2018-04-10T08:43:57.999Z</time>
      </trkpt>
      <trkpt lat="46.19977" lon="2.99172">
        <ele>659.34</ele>
        <time>2018-04-10T08:44:01.999Z</time>
      </trkpt>
      <trkpt lat="46.19959" lon="2.99171">
        <ele>662.89</ele>
        <time>2018-04-10T08:44:05.999Z</time>
      </trkpt>
      <trkpt lat="46.19948" lon="2.9917">
        <ele>664.25</ele>
        <time>2018-04-10T08:44:07.999Z</time>
      </trkpt>
      <trkpt lat="46.19938" lon="2.99171">
        <ele>665.25</ele>
        <time>2018-04-10T08:44:09.999Z</time>
      </trkpt>
      <trkpt lat="46.19927" lon="2.9917">
        <ele>666.16</ele>
        <time>2018-04-10T08:44:11.999Z</time>
      </trkpt>
      <trkpt lat="46.19916" lon="2.99171">
        <ele>666.79</ele>
        <time>2018-04-10T08:44:13.999Z</time>
      </trkpt>
      <trkpt lat="46.19906" lon="2.9917">
        <ele>667.41</ele>
        <time>2018-04-10T08:44:15.999Z</time>
      </trkpt>
      <trkpt lat="46.19894" lon="2.9917">
        <ele>667.98</ele>
        <time>2018-04-10T08:44:17.999Z</time>
      </trkpt>
      <trkpt lat="46.19884" lon="2.99169">
        <ele>668.8</ele>
        <time>2018-04-10T08:44:19.999Z</time>
      </trkpt>
      <trkpt lat="46.19873" lon="2.99168">
        <ele>669.08</ele>
        <time>2018-04-10T08:44:21.999Z</time>
      </trkpt>
      <trkpt lat="46.1986" lon="2.99168">
        <ele>669.57</ele>
        <time>2018-04-10T08:44:23.999Z</time>
      </trkpt>
      <trkpt lat="46.19847" lon="2.99168">
        <ele>669.99</ele>
        <time>2018-04-10T08:44:25.999Z</time>
      </trkpt>
      <trkpt lat="46.19835" lon="2.99168">
        <ele>670.46</ele>
        <time>2018-04-10T08:44:27.999Z</time>
      </trkpt>
      <trkpt lat="46.19823" lon="2.99166">
        <ele>671.11</ele>
        <time>2018-04-10T08:44:29.999Z</time>
      </trkpt>
      <trkpt lat="46.19812" lon="2.99165">
        <ele>671.58</ele>
        <time>2018-04-10T08:44:31.999Z</time>
      </trkpt>
      <trkpt lat="46.19801" lon="2.99164">
        <ele>672.17</ele>
        <time>2018-04-10T08:44:33.999Z</time>
      </trkpt>
      <trkpt lat="46.19791" lon="2.99164">
        <ele>672.94</ele>
        <time>2018-04-10T08:44:35.999Z</time>
      </trkpt>
      <trkpt lat="46.1978" lon="2.99163">
        <ele>672.97</ele>
        <time>2018-04-10T08:44:37.999Z</time>
      </trkpt>
      <trkpt lat="46.19769" lon="2.99164">
        <ele>673.02</ele>
        <time>2018-04-10T08:44:39.999Z</time>
      </trkpt>
      <trkpt lat="46.19756" lon="2.99163">
        <ele>672.88</ele>
        <time>2018-04-10T08:44:42.999Z</time>
      </trkpt>
      <trkpt lat="46.19745" lon="2.99161">
        <ele>673.25</ele>
        <time>2018-04-10T08:44:45.999Z</time>
      </trkpt>
      <trkpt lat="46.19735" lon="2.99161">
        <ele>674.12</ele>
        <time>2018-04-10T08:44:48.999Z</time>
      </trkpt>
      <trkpt lat="46.19724" lon="2.99161">
        <ele>674.51</ele>
        <time>2018-04-10T08:44:51.999Z</time>
      </trkpt>
      <trkpt lat="46.19714" lon="2.99162">
        <ele>674.27</ele>
        <time>2018-04-10T08:44:53.999Z</time>
      </trkpt>
      <trkpt lat="46.197" lon="2.99163">
        <ele>674.12</ele>
        <time>2018-04-10T08:44:56.999Z</time>
      </trkpt>
      <trkpt lat="46.19689" lon="2.99164">
        <ele>674.01</ele>
        <time>2018-04-10T08:44:58.999Z</time>
      </trkpt>
      <trkpt lat="46.19679" lon="2.99164">
        <ele>674.07</ele>
        <time>2018-04-10T08:45:00.999Z</time>
      </trkpt>
      <trkpt lat="46.19668" lon="2.99165">
        <ele>673.41</ele>
        <time>2018-04-10T08:45:02.999Z</time>
      </trkpt>
      <trkpt lat="46.19656" lon="2.99165">
        <ele>672.95</ele>
        <time>2018-04-10T08:45:05.999Z</time>
      </trkpt>
      <trkpt lat="46.19647" lon="2.99164">
        <ele>673.95</ele>
        <time>2018-04-10T08:45:08.999Z</time>
      </trkpt>
      <trkpt lat="46.19636" lon="2.99162">
        <ele>674.49</ele>
        <time>2018-04-10T08:45:11.999Z</time>
      </trkpt>
      <trkpt lat="46.19624" lon="2.99159">
        <ele>674.9</ele>
        <time>2018-04-10T08:45:14.999Z</time>
      </trkpt>
      <trkpt lat="46.19614" lon="2.99156">
        <ele>675.05</ele>
        <time>2018-04-10T08:45:17.999Z</time>
      </trkpt>
      <trkpt lat="46.19603" lon="2.99154">
        <ele>675.25</ele>
        <time>2018-04-10T08:45:20.999Z</time>
      </trkpt>
      <trkpt lat="46.1959" lon="2.99153">
        <ele>674.71</ele>
        <time>2018-04-10T08:45:23.999Z</time>
      </trkpt>
      <trkpt lat="46.19578" lon="2.99153">
        <ele>675.22</ele>
        <time>2018-04-10T08:45:26.999Z</time>
      </trkpt>
      <trkpt lat="46.19569" lon="2.99152">
        <ele>676.39</ele>
        <time>2018-04-10T08:45:29.999Z</time>
      </trkpt>
      <trkpt lat="46.19556" lon="2.99152">
        <ele>676.79</ele>
        <time>2018-04-10T08:45:32.999Z</time>
      </trkpt>
      <trkpt lat="46.19546" lon="2.99152">
        <ele>676.68</ele>
        <time>2018-04-10T08:45:34.999Z</time>
      </trkpt>
      <trkpt lat="46.19536" lon="2.99151">
        <ele>676.56</ele>
        <time>2018-04-10T08:45:36.999Z</time>
      </trkpt>
      <trkpt lat="46.19525" lon="2.9915">
        <ele>676.57</ele>
        <time>2018-04-10T08:45:38.999Z</time>
      </trkpt>
      <trkpt lat="46.19512" lon="2.99149">
        <ele>676.57</ele>
        <time>2018-04-10T08:45:40.999Z</time>
      </trkpt>
      <trkpt lat="46.19499" lon="2.99148">
        <ele>676.75</ele>
        <time>2018-04-10T08:45:42.999Z</time>
      </trkpt>
      <trkpt lat="46.19485" lon="2.99147">
        <ele>676.37</ele>
        <time>2018-04-10T08:45:44.999Z</time>
      </trkpt>
      <trkpt lat="46.1947" lon="2.99148">
        <ele>676.11</ele>
        <time>2018-04-10T08:45:46.999Z</time>
      </trkpt>
      <trkpt lat="46.19458" lon="2.9915">
        <ele>675.73</ele>
        <time>2018-04-10T08:45:48.999Z</time>
      </trkpt>
      <trkpt lat="46.19445" lon="2.9915">
        <ele>675.21</ele>
        <time>2018-04-10T08:45:50.999Z</time>
      </trkpt>
      <trkpt lat="46.19433" lon="2.99149">
        <ele>675.2</ele>
        <time>2018-04-10T08:45:52.999Z</time>
      </trkpt>
      <trkpt lat="46.19423" lon="2.99148">
        <ele>675.22</ele>
        <time>2018-04-10T08:45:54.999Z</time>
      </trkpt>
      <trkpt lat="46.19409" lon="2.99148">
        <ele>674.41</ele>
        <time>2018-04-10T08:45:57.999Z</time>
      </trkpt>
      <trkpt lat="46.19397" lon="2.99147">
        <ele>675.06</ele>
        <time>2018-04-10T08:46:00.999Z</time>
      </trkpt>
      <trkpt lat="46.19384" lon="2.99146">
        <ele>675.78</ele>
        <time>2018-04-10T08:46:03.999Z</time>
      </trkpt>
      <trkpt lat="46.19374" lon="2.99144">
        <ele>676.52</ele>
        <time>2018-04-10T08:46:06.999Z</time>
      </trkpt>
      <trkpt lat="46.19362" lon="2.99144">
        <ele>677.42</ele>
        <time>2018-04-10T08:46:09.999Z</time>
      </trkpt>
      <trkpt lat="46.19352" lon="2.99144">
        <ele>677.75</ele>
        <time>2018-04-10T08:46:11.999Z</time>
      </trkpt>
      <trkpt lat="46.19341" lon="2.99143">
        <ele>678.81</ele>
        <time>2018-04-10T08:46:14.999Z</time>
      </trkpt>
      <trkpt lat="46.19328" lon="2.99142">
        <ele>680.25</ele>
        <time>2018-04-10T08:46:17.999Z</time>
      </trkpt>
      <trkpt lat="46.19317" lon="2.99142">
        <ele>681.19</ele>
        <time>2018-04-10T08:46:20.999Z</time>
      </trkpt>
      <trkpt lat="46.19307" lon="2.99141">
        <ele>682.29</ele>
        <time>2018-04-10T08:46:23.999Z</time>
      </trkpt>
      <trkpt lat="46.19297" lon="2.99142">
        <ele>683.6</ele>
        <time>2018-04-10T08:46:26.999Z</time>
      </trkpt>
      <trkpt lat="46.19285" lon="2.9914">
        <ele>684.62</ele>
        <time>2018-04-10T08:46:30.999Z</time>
      </trkpt>
      <trkpt lat="46.19274" lon="2.99139">
        <ele>686.12</ele>
        <time>2018-04-10T08:46:33.999Z</time>
      </trkpt>
      <trkpt lat="46.19265" lon="2.99137">
        <ele>688.04</ele>
        <time>2018-04-10T08:46:36.999Z</time>
      </trkpt>
      <trkpt lat="46.19255" lon="2.99136">
        <ele>689.11</ele>
        <time>2018-04-10T08:46:38.999Z</time>
      </trkpt>
      <trkpt lat="46.19245" lon="2.99136">
        <ele>689.58</ele>
        <time>2018-04-10T08:46:40.999Z</time>
      </trkpt>
      <trkpt lat="46.19235" lon="2.99136">
        <ele>689.94</ele>
        <time>2018-04-10T08:46:42.999Z</time>
      </trkpt>
      <trkpt lat="46.19225" lon="2.99135">
        <ele>690.21</ele>
        <time>2018-04-10T08:46:44.999Z</time>
      </trkpt>
      <trkpt lat="46.19211" lon="2.99135">
        <ele>692.53</ele>
        <time>2018-04-10T08:46:48.999Z</time>
      </trkpt>
      <trkpt lat="46.19201" lon="2.99136">
        <ele>692.31</ele>
        <time>2018-04-10T08:46:50.999Z</time>
      </trkpt>
      <trkpt lat="46.19191" lon="2.99136">
        <ele>691.54</ele>
        <time>2018-04-10T08:46:52.999Z</time>
      </trkpt>
      <trkpt lat="46.1918" lon="2.99136">
        <ele>690.27</ele>
        <time>2018-04-10T08:46:54.999Z</time>
      </trkpt>
      <trkpt lat="46.19167" lon="2.99136">
        <ele>688.11</ele>
        <time>2018-04-10T08:46:56.999Z</time>
      </trkpt>
      <trkpt lat="46.19152" lon="2.99136">
        <ele>685.54</ele>
        <time>2018-04-10T08:46:58.999Z</time>
      </trkpt>
      <trkpt lat="46.19138" lon="2.99134">
        <ele>683.15</ele>
        <time>2018-04-10T08:47:00.999Z</time>
      </trkpt>
      <trkpt lat="46.19126" lon="2.99133">
        <ele>681.51</ele>
        <time>2018-04-10T08:47:02.999Z</time>
      </trkpt>
      <trkpt lat="46.19115" lon="2.99132">
        <ele>680.63</ele>
        <time>2018-04-10T08:47:04.999Z</time>
      </trkpt>
      <trkpt lat="46.19105" lon="2.99131">
        <ele>679.95</ele>
        <time>2018-04-10T08:47:06.999Z</time>
      </trkpt>
      <trkpt lat="46.19095" lon="2.9913">
        <ele>678.71</ele>
        <time>2018-04-10T08:47:08.999Z</time>
      </trkpt>
      <trkpt lat="46.19083" lon="2.99129">
        <ele>678.16</ele>
        <time>2018-04-10T08:47:10.999Z</time>
      </trkpt>
      <trkpt lat="46.19073" lon="2.99128">
        <ele>677.57</ele>
        <time>2018-04-10T08:47:12.999Z</time>
      </trkpt>
      <trkpt lat="46.19062" lon="2.99127">
        <ele>677.13</ele>
        <time>2018-04-10T08:47:14.999Z</time>
      </trkpt>
      <trkpt lat="46.19051" lon="2.99126">
        <ele>676.28</ele>
        <time>2018-04-10T08:47:16.999Z</time>
      </trkpt>
      <trkpt lat="46.19037" lon="2.99126">
        <ele>675.14</ele>
        <time>2018-04-10T08:47:18.999Z</time>
      </trkpt>
      <trkpt lat="46.19025" lon="2.99125">
        <ele>674.82</ele>
        <time>2018-04-10T08:47:20.999Z</time>
      </trkpt>
      <trkpt lat="46.19013" lon="2.99124">
        <ele>674.17</ele>
        <time>2018-04-10T08:47:22.999Z</time>
      </trkpt>
      <trkpt lat="46.19001" lon="2.99123">
        <ele>673.81</ele>
        <time>2018-04-10T08:47:24.999Z</time>
      </trkpt>
      <trkpt lat="46.1899" lon="2.99122">
        <ele>673.59</ele>
        <time>2018-04-10T08:47:26.999Z</time>
      </trkpt>
      <trkpt lat="46.18979" lon="2.99121">
        <ele>673.97</ele>
        <time>2018-04-10T08:47:28.999Z</time>
      </trkpt>
      <trkpt lat="46.18968" lon="2.99119">
        <ele>674.85</ele>
        <time>2018-04-10T08:47:30.999Z</time>
      </trkpt>
      <trkpt lat="46.18958" lon="2.99118">
        <ele>675.38</ele>
        <time>2018-04-10T08:47:32.999Z</time>
      </trkpt>
      <trkpt lat="46.18947" lon="2.99118">
        <ele>676.06</ele>
        <time>2018-04-10T08:47:34.999Z</time>
      </trkpt>
      <trkpt lat="46.18937" lon="2.99118">
        <ele>676.65</ele>
        <time>2018-04-10T08:47:36.999Z</time>
      </trkpt>
      <trkpt lat="46.18928" lon="2.99117">
        <ele>677.49</ele>
        <time>2018-04-10T08:47:38.999Z</time>
      </trkpt>
      <trkpt lat="46.18918" lon="2.99117">
        <ele>677.95</ele>
        <time>2018-04-10T08:47:40.999Z</time>
      </trkpt>
      <trkpt lat="46.18908" lon="2.99116">
        <ele>678.16</ele>
        <time>2018-04-10T08:47:42.999Z</time>
      </trkpt>
      <trkpt lat="46.18899" lon="2.99116">
        <ele>678.34</ele>
        <time>2018-04-10T08:47:44.999Z</time>
      </trkpt>
      <trkpt lat="46.1889" lon="2.99116">
        <ele>679.09</ele>
        <time>2018-04-10T08:47:46.999Z</time>
      </trkpt>
      <trkpt lat="46.18878" lon="2.99116">
        <ele>680.35</ele>
        <time>2018-04-10T08:47:49.999Z</time>
      </trkpt>
      <trkpt lat="46.18865" lon="2.99117">
        <ele>681.46</ele>
        <time>2018-04-10T08:47:52.999Z</time>
      </trkpt>
      <trkpt lat="46.18852" lon="2.99118">
        <ele>682.39</ele>
        <time>2018-04-10T08:47:55.999Z</time>
      </trkpt>
      <trkpt lat="46.1884" lon="2.99118">
        <ele>683.8</ele>
        <time>2018-04-10T08:47:58.999Z</time>
      </trkpt>
      <trkpt lat="46.18827" lon="2.99118">
        <ele>685.07</ele>
        <time>2018-04-10T08:48:01.999Z</time>
      </trkpt>
      <trkpt lat="46.18815" lon="2.99114">
        <ele>685.39</ele>
        <time>2018-04-10T08:48:04.999Z</time>
      </trkpt>
      <trkpt lat="46.1881" lon="2.991">
        <ele>685.7</ele>
        <time>2018-04-10T08:48:07.999Z</time>
      </trkpt>
      <trkpt lat="46.18809" lon="2.99087">
        <ele>684.66</ele>
        <time>2018-04-10T08:48:10.999Z</time>
      </trkpt>
      <trkpt lat="46.18808" lon="2.99073">
        <ele>684.08</ele>
        <time>2018-04-10T08:48:13.999Z</time>
      </trkpt>
      <trkpt lat="46.18807" lon="2.99059">
        <ele>683.37</ele>
        <time>2018-04-10T08:48:16.999Z</time>
      </trkpt>
      <trkpt lat="46.18804" lon="2.99046">
        <ele>682.7</ele>
        <time>2018-04-10T08:48:19.999Z</time>
      </trkpt>
      <trkpt lat="46.18801" lon="2.99032">
        <ele>682.24</ele>
        <time>2018-04-10T08:48:22.999Z</time>
      </trkpt>
      <trkpt lat="46.18799" lon="2.99019">
        <ele>683.18</ele>
        <time>2018-04-10T08:48:25.999Z</time>
      </trkpt>
      <trkpt lat="46.18797" lon="2.99002">
        <ele>685.63</ele>
        <time>2018-04-10T08:48:29.999Z</time>
      </trkpt>
      <trkpt lat="46.18796" lon="2.98985">
        <ele>687.38</ele>
        <time>2018-04-10T08:48:33.999Z</time>
      </trkpt>
      <trkpt lat="46.18796" lon="2.98972">
        <ele>688.5</ele>
        <time>2018-04-10T08:48:36.999Z</time>
      </trkpt>
      <trkpt lat="46.18795" lon="2.98958">
        <ele>689.71</ele>
        <time>2018-04-10T08:48:39.999Z</time>
      </trkpt>
      <trkpt lat="46.18795" lon="2.98944">
        <ele>691.04</ele>
        <time>2018-04-10T08:48:42.999Z</time>
      </trkpt>
      <trkpt lat="46.18794" lon="2.98931">
        <ele>692.22</ele>
        <time>2018-04-10T08:48:45.999Z</time>
      </trkpt>
      <trkpt lat="46.18792" lon="2.98917">
        <ele>693.4</ele>
        <time>2018-04-10T08:48:48.999Z</time>
      </trkpt>
      <trkpt lat="46.18791" lon="2.98903">
        <ele>693.98</ele>
        <time>2018-04-10T08:48:51.999Z</time>
      </trkpt>
      <trkpt lat="46.18789" lon="2.98888">
        <ele>694.56</ele>
        <time>2018-04-10T08:48:54.999Z</time>
      </trkpt>
      <trkpt lat="46.18788" lon="2.98873">
        <ele>694.88</ele>
        <time>2018-04-10T08:48:57.999Z</time>
      </trkpt>
      <trkpt lat="46.18787" lon="2.98859">
        <ele>695.38</ele>
        <time>2018-04-10T08:49:00.999Z</time>
      </trkpt>
      <trkpt lat="46.18786" lon="2.98845">
        <ele>695.38</ele>
        <time>2018-04-10T08:49:03.999Z</time>
      </trkpt>
      <trkpt lat="46.18785" lon="2.98831">
        <ele>696.59</ele>
        <time>2018-04-10T08:49:06.999Z</time>
      </trkpt>
      <trkpt lat="46.18784" lon="2.98818">
        <ele>697.76</ele>
        <time>2018-04-10T08:49:09.999Z</time>
      </trkpt>
      <trkpt lat="46.1878" lon="2.98802">
        <ele>699.36</ele>
        <time>2018-04-10T08:49:13.999Z</time>
      </trkpt>
      <trkpt lat="46.18777" lon="2.98786">
        <ele>700.53</ele>
        <time>2018-04-10T08:49:17.999Z</time>
      </trkpt>
      <trkpt lat="46.18776" lon="2.98769">
        <ele>702.15</ele>
        <time>2018-04-10T08:49:21.999Z</time>
      </trkpt>
      <trkpt lat="46.18775" lon="2.98752">
        <ele>704.43</ele>
        <time>2018-04-10T08:49:25.999Z</time>
      </trkpt>
      <trkpt lat="46.18773" lon="2.98739">
        <ele>705</ele>
        <time>2018-04-10T08:49:28.999Z</time>
      </trkpt>
      <trkpt lat="46.18772" lon="2.98725">
        <ele>705.74</ele>
        <time>2018-04-10T08:49:31.999Z</time>
      </trkpt>
      <trkpt lat="46.18771" lon="2.98708">
        <ele>706.26</ele>
        <time>2018-04-10T08:49:35.999Z</time>
      </trkpt>
      <trkpt lat="46.1877" lon="2.98695">
        <ele>707.54</ele>
        <time>2018-04-10T08:49:38.999Z</time>
      </trkpt>
      <trkpt lat="46.1877" lon="2.98678">
        <ele>708.33</ele>
        <time>2018-04-10T08:49:42.999Z</time>
      </trkpt>
      <trkpt lat="46.18771" lon="2.98665">
        <ele>709.02</ele>
        <time>2018-04-10T08:49:45.999Z</time>
      </trkpt>
      <trkpt lat="46.18773" lon="2.98648">
        <ele>709.8</ele>
        <time>2018-04-10T08:49:49.999Z</time>
      </trkpt>
      <trkpt lat="46.18773" lon="2.98634">
        <ele>710.58</ele>
        <time>2018-04-10T08:49:52.999Z</time>
      </trkpt>
      <trkpt lat="46.18774" lon="2.98621">
        <ele>711.59</ele>
        <time>2018-04-10T08:49:55.999Z</time>
      </trkpt>
      <trkpt lat="46.18775" lon="2.98608">
        <ele>712.21</ele>
        <time>2018-04-10T08:49:58.999Z</time>
      </trkpt>
      <trkpt lat="46.18775" lon="2.98594">
        <ele>713.02</ele>
        <time>2018-04-10T08:50:01.999Z</time>
      </trkpt>
      <trkpt lat="46.18776" lon="2.98578">
        <ele>713.39</ele>
        <time>2018-04-10T08:50:05.999Z</time>
      </trkpt>
      <trkpt lat="46.18777" lon="2.98562">
        <ele>713.72</ele>
        <time>2018-04-10T08:50:09.999Z</time>
      </trkpt>
      <trkpt lat="46.18779" lon="2.98549">
        <ele>714.29</ele>
        <time>2018-04-10T08:50:12.999Z</time>
      </trkpt>
      <trkpt lat="46.1878" lon="2.98536">
        <ele>715.29</ele>
        <time>2018-04-10T08:50:15.999Z</time>
      </trkpt>
      <trkpt lat="46.18782" lon="2.98523">
        <ele>716.48</ele>
        <time>2018-04-10T08:50:18.999Z</time>
      </trkpt>
      <trkpt lat="46.18784" lon="2.9851">
        <ele>717.08</ele>
        <time>2018-04-10T08:50:21.999Z</time>
      </trkpt>
      <trkpt lat="46.18784" lon="2.98493">
        <ele>717.32</ele>
        <time>2018-04-10T08:50:25.999Z</time>
      </trkpt>
      <trkpt lat="46.18786" lon="2.9848">
        <ele>717.13</ele>
        <time>2018-04-10T08:50:28.999Z</time>
      </trkpt>
      <trkpt lat="46.18787" lon="2.98463">
        <ele>717.05</ele>
        <time>2018-04-10T08:50:32.999Z</time>
      </trkpt>
      <trkpt lat="46.18788" lon="2.98447">
        <ele>717.95</ele>
        <time>2018-04-10T08:50:36.999Z</time>
      </trkpt>
      <trkpt lat="46.1879" lon="2.98431">
        <ele>719.33</ele>
        <time>2018-04-10T08:50:40.999Z</time>
      </trkpt>
      <trkpt lat="46.1879" lon="2.98414">
        <ele>719.48</ele>
        <time>2018-04-10T08:50:44.999Z</time>
      </trkpt>
      <trkpt lat="46.18789" lon="2.98401">
        <ele>719.49</ele>
        <time>2018-04-10T08:50:47.999Z</time>
      </trkpt>
      <trkpt lat="46.18789" lon="2.98388">
        <ele>719.36</ele>
        <time>2018-04-10T08:50:50.999Z</time>
      </trkpt>
      <trkpt lat="46.18788" lon="2.98371">
        <ele>719.12</ele>
        <time>2018-04-10T08:50:54.999Z</time>
      </trkpt>
      <trkpt lat="46.18786" lon="2.98358">
        <ele>718.66</ele>
        <time>2018-04-10T08:50:57.999Z</time>
      </trkpt>
      <trkpt lat="46.18784" lon="2.98345">
        <ele>718.42</ele>
        <time>2018-04-10T08:51:00.999Z</time>
      </trkpt>
      <trkpt lat="46.18781" lon="2.98332">
        <ele>718.42</ele>
        <time>2018-04-10T08:51:03.999Z</time>
      </trkpt>
      <trkpt lat="46.18778" lon="2.98319">
        <ele>718.83</ele>
        <time>2018-04-10T08:51:06.999Z</time>
      </trkpt>
      <trkpt lat="46.18774" lon="2.98306">
        <ele>719.5</ele>
        <time>2018-04-10T08:51:09.999Z</time>
      </trkpt>
      <trkpt lat="46.18771" lon="2.98294">
        <ele>719.54</ele>
        <time>2018-04-10T08:51:12.999Z</time>
      </trkpt>
      <trkpt lat="46.18767" lon="2.98281">
        <ele>719.17</ele>
        <time>2018-04-10T08:51:15.999Z</time>
      </trkpt>
      <trkpt lat="46.18763" lon="2.98269">
        <ele>718.89</ele>
        <time>2018-04-10T08:51:18.999Z</time>
      </trkpt>
      <trkpt lat="46.18757" lon="2.98258">
        <ele>718.89</ele>
        <time>2018-04-10T08:51:21.999Z</time>
      </trkpt>
      <trkpt lat="46.18752" lon="2.98247">
        <ele>718.81</ele>
        <time>2018-04-10T08:51:24.999Z</time>
      </trkpt>
      <trkpt lat="46.18745" lon="2.98237">
        <ele>719.01</ele>
        <time>2018-04-10T08:51:27.999Z</time>
      </trkpt>
      <trkpt lat="46.18737" lon="2.98228">
        <ele>719.73</ele>
        <time>2018-04-10T08:51:30.999Z</time>
      </trkpt>
      <trkpt lat="46.18728" lon="2.9822">
        <ele>720.22</ele>
        <time>2018-04-10T08:51:33.999Z</time>
      </trkpt>
      <trkpt lat="46.18721" lon="2.98211">
        <ele>720.66</ele>
        <time>2018-04-10T08:51:36.999Z</time>
      </trkpt>
      <trkpt lat="46.18713" lon="2.98203">
        <ele>721.38</ele>
        <time>2018-04-10T08:51:39.999Z</time>
      </trkpt>
      <trkpt lat="46.18705" lon="2.98194">
        <ele>722.72</ele>
        <time>2018-04-10T08:51:42.999Z</time>
      </trkpt>
      <trkpt lat="46.18697" lon="2.98187">
        <ele>724.36</ele>
        <time>2018-04-10T08:51:45.999Z</time>
      </trkpt>
      <trkpt lat="46.18688" lon="2.9818">
        <ele>726.66</ele>
        <time>2018-04-10T08:51:49.999Z</time>
      </trkpt>
      <trkpt lat="46.18678" lon="2.98172">
        <ele>728.84</ele>
        <time>2018-04-10T08:51:53.999Z</time>
      </trkpt>
      <trkpt lat="46.1867" lon="2.98165">
        <ele>730.13</ele>
        <time>2018-04-10T08:51:56.999Z</time>
      </trkpt>
      <trkpt lat="46.18663" lon="2.98157">
        <ele>730.91</ele>
        <time>2018-04-10T08:51:59.999Z</time>
      </trkpt>
      <trkpt lat="46.18654" lon="2.98147">
        <ele>732.27</ele>
        <time>2018-04-10T08:52:03.999Z</time>
      </trkpt>
      <trkpt lat="46.18647" lon="2.98138">
        <ele>734.08</ele>
        <time>2018-04-10T08:52:07.999Z</time>
      </trkpt>
      <trkpt lat="46.18638" lon="2.98128">
        <ele>735.67</ele>
        <time>2018-04-10T08:52:11.999Z</time>
      </trkpt>
      <trkpt lat="46.18631" lon="2.9812">
        <ele>736.77</ele>
        <time>2018-04-10T08:52:14.999Z</time>
      </trkpt>
      <trkpt lat="46.18624" lon="2.98111">
        <ele>737.79</ele>
        <time>2018-04-10T08:52:17.999Z</time>
      </trkpt>
      <trkpt lat="46.18617" lon="2.98102">
        <ele>738.94</ele>
        <time>2018-04-10T08:52:20.999Z</time>
      </trkpt>
      <trkpt lat="46.1861" lon="2.98093">
        <ele>740.8</ele>
        <time>2018-04-10T08:52:23.999Z</time>
      </trkpt>
      <trkpt lat="46.18602" lon="2.98084">
        <ele>742.13</ele>
        <time>2018-04-10T08:52:26.999Z</time>
      </trkpt>
      <trkpt lat="46.18594" lon="2.98074">
        <ele>743.55</ele>
        <time>2018-04-10T08:52:29.999Z</time>
      </trkpt>
      <trkpt lat="46.18586" lon="2.98065">
        <ele>745.16</ele>
        <time>2018-04-10T08:52:32.999Z</time>
      </trkpt>
      <trkpt lat="46.18579" lon="2.98056">
        <ele>746.46</ele>
        <time>2018-04-10T08:52:35.999Z</time>
      </trkpt>
      <trkpt lat="46.18572" lon="2.98048">
        <ele>747.54</ele>
        <time>2018-04-10T08:52:38.999Z</time>
      </trkpt>
      <trkpt lat="46.18563" lon="2.98039">
        <ele>747.82</ele>
        <time>2018-04-10T08:52:41.999Z</time>
      </trkpt>
      <trkpt lat="46.18554" lon="2.98028">
        <ele>748.21</ele>
        <time>2018-04-10T08:52:44.999Z</time>
      </trkpt>
      <trkpt lat="46.18544" lon="2.98019">
        <ele>748.44</ele>
        <time>2018-04-10T08:52:47.999Z</time>
      </trkpt>
      <trkpt lat="46.18536" lon="2.98009">
        <ele>748.87</ele>
        <time>2018-04-10T08:52:50.999Z</time>
      </trkpt>
      <trkpt lat="46.18528" lon="2.98">
        <ele>749.41</ele>
        <time>2018-04-10T08:52:53.999Z</time>
      </trkpt>
      <trkpt lat="46.1852" lon="2.9799">
        <ele>749.46</ele>
        <time>2018-04-10T08:52:56.999Z</time>
      </trkpt>
      <trkpt lat="46.18513" lon="2.97979">
        <ele>750.38</ele>
        <time>2018-04-10T08:52:59.999Z</time>
      </trkpt>
      <trkpt lat="46.18507" lon="2.97967">
        <ele>751.49</ele>
        <time>2018-04-10T08:53:02.999Z</time>
      </trkpt>
      <trkpt lat="46.18502" lon="2.97953">
        <ele>751.41</ele>
        <time>2018-04-10T08:53:06.999Z</time>
      </trkpt>
      <trkpt lat="46.18499" lon="2.97937">
        <ele>751.01</ele>
        <time>2018-04-10T08:53:10.999Z</time>
      </trkpt>
      <trkpt lat="46.18499" lon="2.97923">
        <ele>751.05</ele>
        <time>2018-04-10T08:53:13.999Z</time>
      </trkpt>
      <trkpt lat="46.18498" lon="2.97907">
        <ele>751.11</ele>
        <time>2018-04-10T08:53:16.999Z</time>
      </trkpt>
      <trkpt lat="46.18498" lon="2.97893">
        <ele>751.22</ele>
        <time>2018-04-10T08:53:19.999Z</time>
      </trkpt>
      <trkpt lat="46.18497" lon="2.97879">
        <ele>751.56</ele>
        <time>2018-04-10T08:53:22.999Z</time>
      </trkpt>
      <trkpt lat="46.18495" lon="2.97864">
        <ele>752.33</ele>
        <time>2018-04-10T08:53:25.999Z</time>
      </trkpt>
      <trkpt lat="46.18494" lon="2.9785">
        <ele>752.85</ele>
        <time>2018-04-10T08:53:28.999Z</time>
      </trkpt>
      <trkpt lat="46.18493" lon="2.97836">
        <ele>753.64</ele>
        <time>2018-04-10T08:53:31.999Z</time>
      </trkpt>
      <trkpt lat="46.18491" lon="2.97822">
        <ele>753.86</ele>
        <time>2018-04-10T08:53:34.999Z</time>
      </trkpt>
      <trkpt lat="46.1849" lon="2.97809">
        <ele>754.44</ele>
        <time>2018-04-10T08:53:37.999Z</time>
      </trkpt>
      <trkpt lat="46.18488" lon="2.97797">
        <ele>754.41</ele>
        <time>2018-04-10T08:53:40.999Z</time>
      </trkpt>
      <trkpt lat="46.18484" lon="2.9778">
        <ele>755.13</ele>
        <time>2018-04-10T08:53:44.999Z</time>
      </trkpt>
      <trkpt lat="46.1848" lon="2.97767">
        <ele>755.83</ele>
        <time>2018-04-10T08:53:47.999Z</time>
      </trkpt>
      <trkpt lat="46.18476" lon="2.97754">
        <ele>756.84</ele>
        <time>2018-04-10T08:53:50.999Z</time>
      </trkpt>
      <trkpt lat="46.18472" lon="2.97742">
        <ele>757</ele>
        <time>2018-04-10T08:53:53.999Z</time>
      </trkpt>
      <trkpt lat="46.18468" lon="2.97729">
        <ele>757.08</ele>
        <time>2018-04-10T08:53:56.999Z</time>
      </trkpt>
      <trkpt lat="46.18464" lon="2.97715">
        <ele>756.61</ele>
        <time>2018-04-10T08:53:59.999Z</time>
      </trkpt>
      <trkpt lat="46.18458" lon="2.97703">
        <ele>755.92</ele>
        <time>2018-04-10T08:54:02.999Z</time>
      </trkpt>
      <trkpt lat="46.18451" lon="2.97689">
        <ele>755.13</ele>
        <time>2018-04-10T08:54:05.999Z</time>
      </trkpt>
      <trkpt lat="46.18443" lon="2.97674">
        <ele>754.33</ele>
        <time>2018-04-10T08:54:08.999Z</time>
      </trkpt>
      <trkpt lat="46.18437" lon="2.97664">
        <ele>753.87</ele>
        <time>2018-04-10T08:54:10.999Z</time>
      </trkpt>
      <trkpt lat="46.18431" lon="2.97654">
        <ele>754.06</ele>
        <time>2018-04-10T08:54:12.999Z</time>
      </trkpt>
      <trkpt lat="46.18423" lon="2.97638">
        <ele>753.45</ele>
        <time>2018-04-10T08:54:15.999Z</time>
      </trkpt>
      <trkpt lat="46.18418" lon="2.97627">
        <ele>752.54</ele>
        <time>2018-04-10T08:54:17.999Z</time>
      </trkpt>
      <trkpt lat="46.18412" lon="2.97616">
        <ele>751.53</ele>
        <time>2018-04-10T08:54:19.999Z</time>
      </trkpt>
      <trkpt lat="46.18407" lon="2.97604">
        <ele>750.5</ele>
        <time>2018-04-10T08:54:21.999Z</time>
      </trkpt>
      <trkpt lat="46.18401" lon="2.97593">
        <ele>750.21</ele>
        <time>2018-04-10T08:54:23.999Z</time>
      </trkpt>
      <trkpt lat="46.18396" lon="2.97582">
        <ele>749.89</ele>
        <time>2018-04-10T08:54:25.999Z</time>
      </trkpt>
      <trkpt lat="46.18391" lon="2.9757">
        <ele>749.25</ele>
        <time>2018-04-10T08:54:27.999Z</time>
      </trkpt>
      <trkpt lat="46.18385" lon="2.97557">
        <ele>748.78</ele>
        <time>2018-04-10T08:54:29.999Z</time>
      </trkpt>
      <trkpt lat="46.18379" lon="2.97546">
        <ele>748.33</ele>
        <time>2018-04-10T08:54:31.999Z</time>
      </trkpt>
      <trkpt lat="46.18373" lon="2.97535">
        <ele>748.03</ele>
        <time>2018-04-10T08:54:33.999Z</time>
      </trkpt>
      <trkpt lat="46.18367" lon="2.97524">
        <ele>747.78</ele>
        <time>2018-04-10T08:54:35.999Z</time>
      </trkpt>
      <trkpt lat="46.18359" lon="2.97514">
        <ele>747.74</ele>
        <time>2018-04-10T08:54:37.999Z</time>
      </trkpt>
      <trkpt lat="46.18353" lon="2.97502">
        <ele>747.94</ele>
        <time>2018-04-10T08:54:39.999Z</time>
      </trkpt>
      <trkpt lat="46.18346" lon="2.97489">
        <ele>748.05</ele>
        <time>2018-04-10T08:54:41.999Z</time>
      </trkpt>
      <trkpt lat="46.18338" lon="2.97478">
        <ele>748.32</ele>
        <time>2018-04-10T08:54:43.999Z</time>
      </trkpt>
      <trkpt lat="46.18331" lon="2.97466">
        <ele>748.07</ele>
        <time>2018-04-10T08:54:45.999Z</time>
      </trkpt>
      <trkpt lat="46.18324" lon="2.97453">
        <ele>747.98</ele>
        <time>2018-04-10T08:54:47.999Z</time>
      </trkpt>
      <trkpt lat="46.18319" lon="2.9744">
        <ele>748.06</ele>
        <time>2018-04-10T08:54:49.999Z</time>
      </trkpt>
      <trkpt lat="46.18313" lon="2.97427">
        <ele>748.04</ele>
        <time>2018-04-10T08:54:51.999Z</time>
      </trkpt>
      <trkpt lat="46.18308" lon="2.97413">
        <ele>748.27</ele>
        <time>2018-04-10T08:54:53.999Z</time>
      </trkpt>
      <trkpt lat="46.18301" lon="2.97401">
        <ele>748.82</ele>
        <time>2018-04-10T08:54:55.999Z</time>
      </trkpt>
      <trkpt lat="46.18294" lon="2.97388">
        <ele>749.26</ele>
        <time>2018-04-10T08:54:57.999Z</time>
      </trkpt>
      <trkpt lat="46.18287" lon="2.97376">
        <ele>750.04</ele>
        <time>2018-04-10T08:54:59.999Z</time>
      </trkpt>
      <trkpt lat="46.1828" lon="2.97365">
        <ele>751.18</ele>
        <time>2018-04-10T08:55:01.999Z</time>
      </trkpt>
      <trkpt lat="46.18275" lon="2.97351">
        <ele>751.95</ele>
        <time>2018-04-10T08:55:03.999Z</time>
      </trkpt>
      <trkpt lat="46.18268" lon="2.97338">
        <ele>752.51</ele>
        <time>2018-04-10T08:55:05.999Z</time>
      </trkpt>
      <trkpt lat="46.18261" lon="2.97324">
        <ele>752.79</ele>
        <time>2018-04-10T08:55:07.999Z</time>
      </trkpt>
      <trkpt lat="46.18254" lon="2.97311">
        <ele>752.6</ele>
        <time>2018-04-10T08:55:09.999Z</time>
      </trkpt>
      <trkpt lat="46.18247" lon="2.973">
        <ele>753.18</ele>
        <time>2018-04-10T08:55:11.999Z</time>
      </trkpt>
      <trkpt lat="46.1824" lon="2.97287">
        <ele>753.32</ele>
        <time>2018-04-10T08:55:13.999Z</time>
      </trkpt>
      <trkpt lat="46.18233" lon="2.97274">
        <ele>753.42</ele>
        <time>2018-04-10T08:55:15.999Z</time>
      </trkpt>
      <trkpt lat="46.18226" lon="2.97261">
        <ele>753.92</ele>
        <time>2018-04-10T08:55:17.999Z</time>
      </trkpt>
      <trkpt lat="46.18218" lon="2.97248">
        <ele>754.06</ele>
        <time>2018-04-10T08:55:19.999Z</time>
      </trkpt>
      <trkpt lat="46.1821" lon="2.97235">
        <ele>754.02</ele>
        <time>2018-04-10T08:55:21.999Z</time>
      </trkpt>
      <trkpt lat="46.18202" lon="2.97221">
        <ele>754.21</ele>
        <time>2018-04-10T08:55:23.999Z</time>
      </trkpt>
      <trkpt lat="46.18192" lon="2.97209">
        <ele>753.99</ele>
        <time>2018-04-10T08:55:25.999Z</time>
      </trkpt>
      <trkpt lat="46.18185" lon="2.97194">
        <ele>754.33</ele>
        <time>2018-04-10T08:55:27.999Z</time>
      </trkpt>
      <trkpt lat="46.18179" lon="2.97179">
        <ele>754.8</ele>
        <time>2018-04-10T08:55:29.999Z</time>
      </trkpt>
      <trkpt lat="46.18171" lon="2.97166">
        <ele>754.97</ele>
        <time>2018-04-10T08:55:31.999Z</time>
      </trkpt>
      <trkpt lat="46.18164" lon="2.97152">
        <ele>754.88</ele>
        <time>2018-04-10T08:55:33.999Z</time>
      </trkpt>
      <trkpt lat="46.18158" lon="2.97139">
        <ele>755.12</ele>
        <time>2018-04-10T08:55:35.999Z</time>
      </trkpt>
      <trkpt lat="46.1815" lon="2.97125">
        <ele>755.37</ele>
        <time>2018-04-10T08:55:37.999Z</time>
      </trkpt>
      <trkpt lat="46.18143" lon="2.97112">
        <ele>755.8</ele>
        <time>2018-04-10T08:55:39.999Z</time>
      </trkpt>
      <trkpt lat="46.18136" lon="2.97099">
        <ele>756.59</ele>
        <time>2018-04-10T08:55:41.999Z</time>
      </trkpt>
      <trkpt lat="46.18129" lon="2.97086">
        <ele>757.17</ele>
        <time>2018-04-10T08:55:43.999Z</time>
      </trkpt>
      <trkpt lat="46.18122" lon="2.97071">
        <ele>757.69</ele>
        <time>2018-04-10T08:55:45.999Z</time>
      </trkpt>
      <trkpt lat="46.18116" lon="2.97057">
        <ele>758.29</ele>
        <time>2018-04-10T08:55:47.999Z</time>
      </trkpt>
      <trkpt lat="46.18108" lon="2.97046">
        <ele>758.73</ele>
        <time>2018-04-10T08:55:49.999Z</time>
      </trkpt>
      <trkpt lat="46.18101" lon="2.97033">
        <ele>758.88</ele>
        <time>2018-04-10T08:55:51.999Z</time>
      </trkpt>
      <trkpt lat="46.18095" lon="2.97022">
        <ele>758.77</ele>
        <time>2018-04-10T08:55:53.999Z</time>
      </trkpt>
      <trkpt lat="46.18089" lon="2.97012">
        <ele>758.67</ele>
        <time>2018-04-10T08:55:55.999Z</time>
      </trkpt>
      <trkpt lat="46.18083" lon="2.97001">
        <ele>758.56</ele>
        <time>2018-04-10T08:55:57.999Z</time>
      </trkpt>
      <trkpt lat="46.18078" lon="2.9699">
        <ele>758.81</ele>
        <time>2018-04-10T08:55:59.999Z</time>
      </trkpt>
      <trkpt lat="46.18071" lon="2.9698">
        <ele>759.19</ele>
        <time>2018-04-10T08:56:01.999Z</time>
      </trkpt>
      <trkpt lat="46.18065" lon="2.96969">
        <ele>759.6</ele>
        <time>2018-04-10T08:56:03.999Z</time>
      </trkpt>
      <trkpt lat="46.1806" lon="2.96959">
        <ele>759.85</ele>
        <time>2018-04-10T08:56:05.999Z</time>
      </trkpt>
      <trkpt lat="46.18054" lon="2.96949">
        <ele>760.22</ele>
        <time>2018-04-10T08:56:07.999Z</time>
      </trkpt>
      <trkpt lat="46.18045" lon="2.96934">
        <ele>760.73</ele>
        <time>2018-04-10T08:56:10.999Z</time>
      </trkpt>
      <trkpt lat="46.18037" lon="2.96919">
        <ele>761.37</ele>
        <time>2018-04-10T08:56:13.999Z</time>
      </trkpt>
      <trkpt lat="46.18031" lon="2.9691">
        <ele>761.85</ele>
        <time>2018-04-10T08:56:15.999Z</time>
      </trkpt>
      <trkpt lat="46.18022" lon="2.96895">
        <ele>762.7</ele>
        <time>2018-04-10T08:56:18.999Z</time>
      </trkpt>
      <trkpt lat="46.18013" lon="2.96881">
        <ele>763.3</ele>
        <time>2018-04-10T08:56:21.999Z</time>
      </trkpt>
      <trkpt lat="46.18005" lon="2.96868">
        <ele>763.94</ele>
        <time>2018-04-10T08:56:24.999Z</time>
      </trkpt>
      <trkpt lat="46.17997" lon="2.96854">
        <ele>764.64</ele>
        <time>2018-04-10T08:56:27.999Z</time>
      </trkpt>
      <trkpt lat="46.17989" lon="2.96841">
        <ele>765.36</ele>
        <time>2018-04-10T08:56:30.999Z</time>
      </trkpt>
      <trkpt lat="46.1798" lon="2.96828">
        <ele>766</ele>
        <time>2018-04-10T08:56:33.999Z</time>
      </trkpt>
      <trkpt lat="46.17971" lon="2.96814">
        <ele>766.64</ele>
        <time>2018-04-10T08:56:36.999Z</time>
      </trkpt>
      <trkpt lat="46.17964" lon="2.968">
        <ele>766.84</ele>
        <time>2018-04-10T08:56:39.999Z</time>
      </trkpt>
      <trkpt lat="46.17959" lon="2.96785">
        <ele>766.66</ele>
        <time>2018-04-10T08:56:42.999Z</time>
      </trkpt>
      <trkpt lat="46.17951" lon="2.96771">
        <ele>766.98</ele>
        <time>2018-04-10T08:56:45.999Z</time>
      </trkpt>
      <trkpt lat="46.17943" lon="2.96757">
        <ele>766.51</ele>
        <time>2018-04-10T08:56:48.999Z</time>
      </trkpt>
      <trkpt lat="46.17936" lon="2.96743">
        <ele>765.57</ele>
        <time>2018-04-10T08:56:51.999Z</time>
      </trkpt>
      <trkpt lat="46.17928" lon="2.9673">
        <ele>765.38</ele>
        <time>2018-04-10T08:56:54.999Z</time>
      </trkpt>
      <trkpt lat="46.17921" lon="2.96717">
        <ele>765.49</ele>
        <time>2018-04-10T08:56:57.999Z</time>
      </trkpt>
      <trkpt lat="46.17912" lon="2.96704">
        <ele>765.73</ele>
        <time>2018-04-10T08:57:00.999Z</time>
      </trkpt>
      <trkpt lat="46.17904" lon="2.96691">
        <ele>766.17</ele>
        <time>2018-04-10T08:57:03.999Z</time>
      </trkpt>
      <trkpt lat="46.17896" lon="2.96678">
        <ele>766.22</ele>
        <time>2018-04-10T08:57:06.999Z</time>
      </trkpt>
      <trkpt lat="46.17888" lon="2.96665">
        <ele>766.85</ele>
        <time>2018-04-10T08:57:09.999Z</time>
      </trkpt>
      <trkpt lat="46.17881" lon="2.96652">
        <ele>767.43</ele>
        <time>2018-04-10T08:57:12.999Z</time>
      </trkpt>
      <trkpt lat="46.17873" lon="2.96639">
        <ele>768.62</ele>
        <time>2018-04-10T08:57:15.999Z</time>
      </trkpt>
      <trkpt lat="46.17865" lon="2.96625">
        <ele>769.85</ele>
        <time>2018-04-10T08:57:18.999Z</time>
      </trkpt>
      <trkpt lat="46.17858" lon="2.96612">
        <ele>771.13</ele>
        <time>2018-04-10T08:57:21.999Z</time>
      </trkpt>
      <trkpt lat="46.1785" lon="2.96599">
        <ele>772.19</ele>
        <time>2018-04-10T08:57:24.999Z</time>
      </trkpt>
      <trkpt lat="46.17841" lon="2.96585">
        <ele>773.15</ele>
        <time>2018-04-10T08:57:27.999Z</time>
      </trkpt>
      <trkpt lat="46.17833" lon="2.9657">
        <ele>773.86</ele>
        <time>2018-04-10T08:57:30.999Z</time>
      </trkpt>
      <trkpt lat="46.17825" lon="2.96556">
        <ele>774.55</ele>
        <time>2018-04-10T08:57:33.999Z</time>
      </trkpt>
      <trkpt lat="46.17818" lon="2.9654">
        <ele>774.9</ele>
        <time>2018-04-10T08:57:36.999Z</time>
      </trkpt>
      <trkpt lat="46.17811" lon="2.96524">
        <ele>775.08</ele>
        <time>2018-04-10T08:57:39.999Z</time>
      </trkpt>
      <trkpt lat="46.17806" lon="2.96513">
        <ele>774.77</ele>
        <time>2018-04-10T08:57:41.999Z</time>
      </trkpt>
      <trkpt lat="46.17801" lon="2.965">
        <ele>774.55</ele>
        <time>2018-04-10T08:57:43.999Z</time>
      </trkpt>
      <trkpt lat="46.17795" lon="2.96488">
        <ele>773.75</ele>
        <time>2018-04-10T08:57:45.999Z</time>
      </trkpt>
      <trkpt lat="46.1779" lon="2.96476">
        <ele>773.79</ele>
        <time>2018-04-10T08:57:47.999Z</time>
      </trkpt>
      <trkpt lat="46.17783" lon="2.96464">
        <ele>773.7</ele>
        <time>2018-04-10T08:57:49.999Z</time>
      </trkpt>
      <trkpt lat="46.17778" lon="2.96452">
        <ele>773.33</ele>
        <time>2018-04-10T08:57:51.999Z</time>
      </trkpt>
      <trkpt lat="46.17773" lon="2.9644">
        <ele>772.93</ele>
        <time>2018-04-10T08:57:53.999Z</time>
      </trkpt>
      <trkpt lat="46.17767" lon="2.9643">
        <ele>772.77</ele>
        <time>2018-04-10T08:57:55.999Z</time>
      </trkpt>
      <trkpt lat="46.17761" lon="2.9642">
        <ele>772.77</ele>
        <time>2018-04-10T08:57:57.999Z</time>
      </trkpt>
      <trkpt lat="46.17755" lon="2.9641">
        <ele>772.93</ele>
        <time>2018-04-10T08:57:59.999Z</time>
      </trkpt>
      <trkpt lat="46.17747" lon="2.96395">
        <ele>773.85</ele>
        <time>2018-04-10T08:58:02.999Z</time>
      </trkpt>
      <trkpt lat="46.17739" lon="2.96382">
        <ele>774.63</ele>
        <time>2018-04-10T08:58:05.999Z</time>
      </trkpt>
      <trkpt lat="46.1773" lon="2.96367">
        <ele>774.99</ele>
        <time>2018-04-10T08:58:08.999Z</time>
      </trkpt>
      <trkpt lat="46.17725" lon="2.96356">
        <ele>775.1</ele>
        <time>2018-04-10T08:58:10.999Z</time>
      </trkpt>
      <trkpt lat="46.1772" lon="2.96339">
        <ele>775.07</ele>
        <time>2018-04-10T08:58:13.999Z</time>
      </trkpt>
      <trkpt lat="46.17727" lon="2.96323">
        <ele>775.2</ele>
        <time>2018-04-10T08:58:16.999Z</time>
      </trkpt>
      <trkpt lat="46.17733" lon="2.9631">
        <ele>774.73</ele>
        <time>2018-04-10T08:58:18.999Z</time>
      </trkpt>
      <trkpt lat="46.1774" lon="2.96296">
        <ele>774.37</ele>
        <time>2018-04-10T08:58:20.999Z</time>
      </trkpt>
      <trkpt lat="46.17748" lon="2.96281">
        <ele>774.33</ele>
        <time>2018-04-10T08:58:22.999Z</time>
      </trkpt>
      <trkpt lat="46.17757" lon="2.96266">
        <ele>774.38</ele>
        <time>2018-04-10T08:58:24.999Z</time>
      </trkpt>
      <trkpt lat="46.17765" lon="2.96249">
        <ele>774.02</ele>
        <time>2018-04-10T08:58:26.999Z</time>
      </trkpt>
      <trkpt lat="46.17775" lon="2.96231">
        <ele>773.39</ele>
        <time>2018-04-10T08:58:28.999Z</time>
      </trkpt>
      <trkpt lat="46.17785" lon="2.96211">
        <ele>772.51</ele>
        <time>2018-04-10T08:58:30.999Z</time>
      </trkpt>
      <trkpt lat="46.17796" lon="2.9619">
        <ele>771.73</ele>
        <time>2018-04-10T08:58:32.999Z</time>
      </trkpt>
      <trkpt lat="46.17801" lon="2.96179">
        <ele>771.25</ele>
        <time>2018-04-10T08:58:33.999Z</time>
      </trkpt>
      <trkpt lat="46.17807" lon="2.96168">
        <ele>770.73</ele>
        <time>2018-04-10T08:58:34.999Z</time>
      </trkpt>
      <trkpt lat="46.17813" lon="2.96156">
        <ele>770.15</ele>
        <time>2018-04-10T08:58:35.999Z</time>
      </trkpt>
      <trkpt lat="46.17819" lon="2.96143">
        <ele>769.3</ele>
        <time>2018-04-10T08:58:36.999Z</time>
      </trkpt>
      <trkpt lat="46.17825" lon="2.96131">
        <ele>768.53</ele>
        <time>2018-04-10T08:58:37.999Z</time>
      </trkpt>
      <trkpt lat="46.17832" lon="2.96118">
        <ele>767.87</ele>
        <time>2018-04-10T08:58:38.999Z</time>
      </trkpt>
      <trkpt lat="46.17838" lon="2.96105">
        <ele>767.14</ele>
        <time>2018-04-10T08:58:39.999Z</time>
      </trkpt>
      <trkpt lat="46.17845" lon="2.96092">
        <ele>766.27</ele>
        <time>2018-04-10T08:58:40.999Z</time>
      </trkpt>
      <trkpt lat="46.17852" lon="2.96078">
        <ele>765.48</ele>
        <time>2018-04-10T08:58:41.999Z</time>
      </trkpt>
      <trkpt lat="46.1786" lon="2.96064">
        <ele>764.83</ele>
        <time>2018-04-10T08:58:42.999Z</time>
      </trkpt>
      <trkpt lat="46.17867" lon="2.9605">
        <ele>764.11</ele>
        <time>2018-04-10T08:58:43.999Z</time>
      </trkpt>
      <trkpt lat="46.17875" lon="2.96036">
        <ele>763.42</ele>
        <time>2018-04-10T08:58:44.999Z</time>
      </trkpt>
      <trkpt lat="46.17883" lon="2.9602">
        <ele>762.83</ele>
        <time>2018-04-10T08:58:45.999Z</time>
      </trkpt>
      <trkpt lat="46.17891" lon="2.96006">
        <ele>762.15</ele>
        <time>2018-04-10T08:58:46.999Z</time>
      </trkpt>
      <trkpt lat="46.17899" lon="2.95991">
        <ele>761.52</ele>
        <time>2018-04-10T08:58:47.999Z</time>
      </trkpt>
      <trkpt lat="46.17907" lon="2.95976">
        <ele>760.87</ele>
        <time>2018-04-10T08:58:48.999Z</time>
      </trkpt>
      <trkpt lat="46.17915" lon="2.95961">
        <ele>760.14</ele>
        <time>2018-04-10T08:58:49.999Z</time>
      </trkpt>
      <trkpt lat="46.17923" lon="2.95946">
        <ele>759.33</ele>
        <time>2018-04-10T08:58:50.999Z</time>
      </trkpt>
      <trkpt lat="46.17931" lon="2.95931">
        <ele>758.43</ele>
        <time>2018-04-10T08:58:51.999Z</time>
      </trkpt>
      <trkpt lat="46.1794" lon="2.95916">
        <ele>757.7</ele>
        <time>2018-04-10T08:58:52.999Z</time>
      </trkpt>
      <trkpt lat="46.17948" lon="2.959">
        <ele>756.97</ele>
        <time>2018-04-10T08:58:53.999Z</time>
      </trkpt>
      <trkpt lat="46.17957" lon="2.95884">
        <ele>756.17</ele>
        <time>2018-04-10T08:58:54.999Z</time>
      </trkpt>
      <trkpt lat="46.17966" lon="2.95868">
        <ele>755.3</ele>
        <time>2018-04-10T08:58:55.999Z</time>
      </trkpt>
      <trkpt lat="46.17974" lon="2.95853">
        <ele>754.48</ele>
        <time>2018-04-10T08:58:56.999Z</time>
      </trkpt>
      <trkpt lat="46.17983" lon="2.95837">
        <ele>753.61</ele>
        <time>2018-04-10T08:58:57.999Z</time>
      </trkpt>
      <trkpt lat="46.17991" lon="2.95822">
        <ele>752.75</ele>
        <time>2018-04-10T08:58:58.999Z</time>
      </trkpt>
      <trkpt lat="46.18001" lon="2.95806">
        <ele>751.97</ele>
        <time>2018-04-10T08:58:59.999Z</time>
      </trkpt>
      <trkpt lat="46.18011" lon="2.95792">
        <ele>751.26</ele>
        <time>2018-04-10T08:59:00.999Z</time>
      </trkpt>
      <trkpt lat="46.18021" lon="2.95778">
        <ele>750.57</ele>
        <time>2018-04-10T08:59:01.999Z</time>
      </trkpt>
      <trkpt lat="46.18033" lon="2.95764">
        <ele>749.67</ele>
        <time>2018-04-10T08:59:02.999Z</time>
      </trkpt>
      <trkpt lat="46.18044" lon="2.95751">
        <ele>748.61</ele>
        <time>2018-04-10T08:59:03.999Z</time>
      </trkpt>
      <trkpt lat="46.18055" lon="2.95738">
        <ele>747.97</ele>
        <time>2018-04-10T08:59:04.999Z</time>
      </trkpt>
      <trkpt lat="46.18066" lon="2.95727">
        <ele>747</ele>
        <time>2018-04-10T08:59:05.999Z</time>
      </trkpt>
      <trkpt lat="46.18077" lon="2.95716">
        <ele>746</ele>
        <time>2018-04-10T08:59:06.999Z</time>
      </trkpt>
      <trkpt lat="46.18089" lon="2.95704">
        <ele>745.14</ele>
        <time>2018-04-10T08:59:07.999Z</time>
      </trkpt>
      <trkpt lat="46.181" lon="2.95691">
        <ele>743.84</ele>
        <time>2018-04-10T08:59:08.999Z</time>
      </trkpt>
      <trkpt lat="46.18111" lon="2.95679">
        <ele>742.85</ele>
        <time>2018-04-10T08:59:09.999Z</time>
      </trkpt>
      <trkpt lat="46.18123" lon="2.95667">
        <ele>742.03</ele>
        <time>2018-04-10T08:59:10.999Z</time>
      </trkpt>
      <trkpt lat="46.18134" lon="2.95655">
        <ele>741.37</ele>
        <time>2018-04-10T08:59:11.999Z</time>
      </trkpt>
      <trkpt lat="46.18146" lon="2.95643">
        <ele>740.64</ele>
        <time>2018-04-10T08:59:12.999Z</time>
      </trkpt>
      <trkpt lat="46.18157" lon="2.9563">
        <ele>739.85</ele>
        <time>2018-04-10T08:59:13.999Z</time>
      </trkpt>
      <trkpt lat="46.18169" lon="2.95616">
        <ele>739.23</ele>
        <time>2018-04-10T08:59:14.999Z</time>
      </trkpt>
      <trkpt lat="46.18181" lon="2.95603">
        <ele>738.49</ele>
        <time>2018-04-10T08:59:15.999Z</time>
      </trkpt>
      <trkpt lat="46.18193" lon="2.95591">
        <ele>737.52</ele>
        <time>2018-04-10T08:59:16.999Z</time>
      </trkpt>
      <trkpt lat="46.18205" lon="2.95578">
        <ele>736.46</ele>
        <time>2018-04-10T08:59:17.999Z</time>
      </trkpt>
      <trkpt lat="46.18218" lon="2.95565">
        <ele>735.99</ele>
        <time>2018-04-10T08:59:18.999Z</time>
      </trkpt>
      <trkpt lat="46.1823" lon="2.95552">
        <ele>735.62</ele>
        <time>2018-04-10T08:59:19.999Z</time>
      </trkpt>
      <trkpt lat="46.18242" lon="2.9554">
        <ele>734.9</ele>
        <time>2018-04-10T08:59:20.999Z</time>
      </trkpt>
      <trkpt lat="46.18254" lon="2.95527">
        <ele>734.33</ele>
        <time>2018-04-10T08:59:21.999Z</time>
      </trkpt>
      <trkpt lat="46.18266" lon="2.95514">
        <ele>733.46</ele>
        <time>2018-04-10T08:59:22.999Z</time>
      </trkpt>
      <trkpt lat="46.18277" lon="2.95501">
        <ele>732.73</ele>
        <time>2018-04-10T08:59:23.999Z</time>
      </trkpt>
      <trkpt lat="46.18289" lon="2.95488">
        <ele>731.61</ele>
        <time>2018-04-10T08:59:24.999Z</time>
      </trkpt>
      <trkpt lat="46.183" lon="2.95475">
        <ele>730.31</ele>
        <time>2018-04-10T08:59:25.999Z</time>
      </trkpt>
      <trkpt lat="46.18311" lon="2.9546">
        <ele>728.87</ele>
        <time>2018-04-10T08:59:26.999Z</time>
      </trkpt>
      <trkpt lat="46.18321" lon="2.95444">
        <ele>727.5</ele>
        <time>2018-04-10T08:59:27.999Z</time>
      </trkpt>
      <trkpt lat="46.18331" lon="2.95426">
        <ele>726.33</ele>
        <time>2018-04-10T08:59:28.999Z</time>
      </trkpt>
      <trkpt lat="46.18339" lon="2.95408">
        <ele>724.76</ele>
        <time>2018-04-10T08:59:29.999Z</time>
      </trkpt>
      <trkpt lat="46.18346" lon="2.95389">
        <ele>723.24</ele>
        <time>2018-04-10T08:59:30.999Z</time>
      </trkpt>
      <trkpt lat="46.18354" lon="2.9537">
        <ele>721.52</ele>
        <time>2018-04-10T08:59:31.999Z</time>
      </trkpt>
      <trkpt lat="46.18361" lon="2.95351">
        <ele>720.02</ele>
        <time>2018-04-10T08:59:32.999Z</time>
      </trkpt>
      <trkpt lat="46.18368" lon="2.95333">
        <ele>718.94</ele>
        <time>2018-04-10T08:59:33.999Z</time>
      </trkpt>
      <trkpt lat="46.18376" lon="2.95314">
        <ele>717.71</ele>
        <time>2018-04-10T08:59:34.999Z</time>
      </trkpt>
      <trkpt lat="46.18383" lon="2.95295">
        <ele>716.09</ele>
        <time>2018-04-10T08:59:35.999Z</time>
      </trkpt>
      <trkpt lat="46.18391" lon="2.95277">
        <ele>714.47</ele>
        <time>2018-04-10T08:59:36.999Z</time>
      </trkpt>
      <trkpt lat="46.18399" lon="2.95259">
        <ele>712.99</ele>
        <time>2018-04-10T08:59:37.999Z</time>
      </trkpt>
      <trkpt lat="46.18406" lon="2.9524">
        <ele>711.5</ele>
        <time>2018-04-10T08:59:38.999Z</time>
      </trkpt>
      <trkpt lat="46.18414" lon="2.95222">
        <ele>710.03</ele>
        <time>2018-04-10T08:59:39.999Z</time>
      </trkpt>
      <trkpt lat="46.18421" lon="2.95204">
        <ele>708.21</ele>
        <time>2018-04-10T08:59:40.999Z</time>
      </trkpt>
      <trkpt lat="46.18428" lon="2.95186">
        <ele>707.12</ele>
        <time>2018-04-10T08:59:41.999Z</time>
      </trkpt>
      <trkpt lat="46.18435" lon="2.95167">
        <ele>706.33</ele>
        <time>2018-04-10T08:59:42.999Z</time>
      </trkpt>
      <trkpt lat="46.18441" lon="2.95148">
        <ele>705.46</ele>
        <time>2018-04-10T08:59:43.999Z</time>
      </trkpt>
      <trkpt lat="46.18446" lon="2.95128">
        <ele>704.62</ele>
        <time>2018-04-10T08:59:44.999Z</time>
      </trkpt>
      <trkpt lat="46.1845" lon="2.95107">
        <ele>703.74</ele>
        <time>2018-04-10T08:59:45.999Z</time>
      </trkpt>
      <trkpt lat="46.18452" lon="2.95085">
        <ele>702.63</ele>
        <time>2018-04-10T08:59:46.999Z</time>
      </trkpt>
      <trkpt lat="46.18453" lon="2.95063">
        <ele>701.68</ele>
        <time>2018-04-10T08:59:47.999Z</time>
      </trkpt>
      <trkpt lat="46.18453" lon="2.95041">
        <ele>700.6</ele>
        <time>2018-04-10T08:59:48.999Z</time>
      </trkpt>
      <trkpt lat="46.18453" lon="2.95019">
        <ele>699.43</ele>
        <time>2018-04-10T08:59:49.999Z</time>
      </trkpt>
      <trkpt lat="46.18454" lon="2.94997">
        <ele>698.33</ele>
        <time>2018-04-10T08:59:50.999Z</time>
      </trkpt>
      <trkpt lat="46.18454" lon="2.94976">
        <ele>697.18</ele>
        <time>2018-04-10T08:59:51.999Z</time>
      </trkpt>
      <trkpt lat="46.18456" lon="2.94954">
        <ele>696.18</ele>
        <time>2018-04-10T08:59:52.999Z</time>
      </trkpt>
      <trkpt lat="46.18457" lon="2.94932">
        <ele>695.15</ele>
        <time>2018-04-10T08:59:53.999Z</time>
      </trkpt>
      <trkpt lat="46.18457" lon="2.94909">
        <ele>694.13</ele>
        <time>2018-04-10T08:59:54.999Z</time>
      </trkpt>
      <trkpt lat="46.18458" lon="2.94887">
        <ele>693.26</ele>
        <time>2018-04-10T08:59:55.999Z</time>
      </trkpt>
      <trkpt lat="46.18459" lon="2.94864">
        <ele>692.29</ele>
        <time>2018-04-10T08:59:56.999Z</time>
      </trkpt>
      <trkpt lat="46.1846" lon="2.94842">
        <ele>691.05</ele>
        <time>2018-04-10T08:59:57.999Z</time>
      </trkpt>
      <trkpt lat="46.18461" lon="2.9482">
        <ele>689.88</ele>
        <time>2018-04-10T08:59:58.999Z</time>
      </trkpt>
      <trkpt lat="46.18462" lon="2.94798">
        <ele>688.71</ele>
        <time>2018-04-10T08:59:59.999Z</time>
      </trkpt>
      <trkpt lat="46.18462" lon="2.94776">
        <ele>687.68</ele>
        <time>2018-04-10T09:00:00.999Z</time>
      </trkpt>
      <trkpt lat="46.18463" lon="2.94755">
        <ele>686.5</ele>
        <time>2018-04-10T09:00:01.999Z</time>
      </trkpt>
      <trkpt lat="46.18464" lon="2.94734">
        <ele>685.53</ele>
        <time>2018-04-10T09:00:02.999Z</time>
      </trkpt>
      <trkpt lat="46.18465" lon="2.94712">
        <ele>684.57</ele>
        <time>2018-04-10T09:00:03.999Z</time>
      </trkpt>
      <trkpt lat="46.18466" lon="2.9469">
        <ele>683.62</ele>
        <time>2018-04-10T09:00:04.999Z</time>
      </trkpt>
      <trkpt lat="46.18466" lon="2.94669">
        <ele>682.77</ele>
        <time>2018-04-10T09:00:05.999Z</time>
      </trkpt>
      <trkpt lat="46.18468" lon="2.94647">
        <ele>681.49</ele>
        <time>2018-04-10T09:00:06.999Z</time>
      </trkpt>
      <trkpt lat="46.18469" lon="2.94627">
        <ele>680.31</ele>
        <time>2018-04-10T09:00:07.999Z</time>
      </trkpt>
      <trkpt lat="46.1847" lon="2.94607">
        <ele>679</ele>
        <time>2018-04-10T09:00:08.999Z</time>
      </trkpt>
      <trkpt lat="46.18472" lon="2.94586">
        <ele>677.77</ele>
        <time>2018-04-10T09:00:09.999Z</time>
      </trkpt>
      <trkpt lat="46.18473" lon="2.94565">
        <ele>676.79</ele>
        <time>2018-04-10T09:00:10.999Z</time>
      </trkpt>
      <trkpt lat="46.18474" lon="2.94544">
        <ele>675.98</ele>
        <time>2018-04-10T09:00:11.999Z</time>
      </trkpt>
      <trkpt lat="46.18475" lon="2.94524">
        <ele>675</ele>
        <time>2018-04-10T09:00:12.999Z</time>
      </trkpt>
      <trkpt lat="46.18475" lon="2.94504">
        <ele>673.92</ele>
        <time>2018-04-10T09:00:13.999Z</time>
      </trkpt>
      <trkpt lat="46.18472" lon="2.94485">
        <ele>673.03</ele>
        <time>2018-04-10T09:00:14.999Z</time>
      </trkpt>
      <trkpt lat="46.18465" lon="2.94468">
        <ele>672.5</ele>
        <time>2018-04-10T09:00:15.999Z</time>
      </trkpt>
      <trkpt lat="46.18456" lon="2.94452">
        <ele>672.22</ele>
        <time>2018-04-10T09:00:16.999Z</time>
      </trkpt>
      <trkpt lat="46.18446" lon="2.94436">
        <ele>671.84</ele>
        <time>2018-04-10T09:00:17.999Z</time>
      </trkpt>
      <trkpt lat="46.18435" lon="2.94423">
        <ele>671.45</ele>
        <time>2018-04-10T09:00:18.999Z</time>
      </trkpt>
      <trkpt lat="46.18424" lon="2.9441">
        <ele>671.15</ele>
        <time>2018-04-10T09:00:19.999Z</time>
      </trkpt>
      <trkpt lat="46.18413" lon="2.94398">
        <ele>670.65</ele>
        <time>2018-04-10T09:00:20.999Z</time>
      </trkpt>
      <trkpt lat="46.18403" lon="2.94385">
        <ele>670.13</ele>
        <time>2018-04-10T09:00:21.999Z</time>
      </trkpt>
      <trkpt lat="46.18393" lon="2.94373">
        <ele>669.5</ele>
        <time>2018-04-10T09:00:22.999Z</time>
      </trkpt>
      <trkpt lat="46.18385" lon="2.9436">
        <ele>668.62</ele>
        <time>2018-04-10T09:00:23.999Z</time>
      </trkpt>
      <trkpt lat="46.18379" lon="2.94345">
        <ele>667.66</ele>
        <time>2018-04-10T09:00:24.999Z</time>
      </trkpt>
      <trkpt lat="46.18375" lon="2.9433">
        <ele>666.88</ele>
        <time>2018-04-10T09:00:25.999Z</time>
      </trkpt>
      <trkpt lat="46.18373" lon="2.94312">
        <ele>666.01</ele>
        <time>2018-04-10T09:00:26.999Z</time>
      </trkpt>
      <trkpt lat="46.18374" lon="2.94293">
        <ele>665.1</ele>
        <time>2018-04-10T09:00:27.999Z</time>
      </trkpt>
      <trkpt lat="46.18376" lon="2.94275">
        <ele>664.18</ele>
        <time>2018-04-10T09:00:28.999Z</time>
      </trkpt>
      <trkpt lat="46.1838" lon="2.94256">
        <ele>663.29</ele>
        <time>2018-04-10T09:00:29.999Z</time>
      </trkpt>
      <trkpt lat="46.18383" lon="2.94238">
        <ele>662.47</ele>
        <time>2018-04-10T09:00:30.999Z</time>
      </trkpt>
      <trkpt lat="46.18388" lon="2.9422">
        <ele>661.83</ele>
        <time>2018-04-10T09:00:31.999Z</time>
      </trkpt>
      <trkpt lat="46.18392" lon="2.94201">
        <ele>661.2</ele>
        <time>2018-04-10T09:00:32.999Z</time>
      </trkpt>
      <trkpt lat="46.18397" lon="2.94183">
        <ele>660.62</ele>
        <time>2018-04-10T09:00:33.999Z</time>
      </trkpt>
      <trkpt lat="46.18402" lon="2.94165">
        <ele>659.91</ele>
        <time>2018-04-10T09:00:34.999Z</time>
      </trkpt>
      <trkpt lat="46.18406" lon="2.94147">
        <ele>659.3</ele>
        <time>2018-04-10T09:00:35.999Z</time>
      </trkpt>
      <trkpt lat="46.1841" lon="2.94129">
        <ele>658.65</ele>
        <time>2018-04-10T09:00:36.999Z</time>
      </trkpt>
      <trkpt lat="46.18414" lon="2.9411">
        <ele>657.92</ele>
        <time>2018-04-10T09:00:37.999Z</time>
      </trkpt>
      <trkpt lat="46.18417" lon="2.94091">
        <ele>657.22</ele>
        <time>2018-04-10T09:00:38.999Z</time>
      </trkpt>
      <trkpt lat="46.1842" lon="2.94071">
        <ele>656.48</ele>
        <time>2018-04-10T09:00:39.999Z</time>
      </trkpt>
      <trkpt lat="46.18425" lon="2.94054">
        <ele>655.84</ele>
        <time>2018-04-10T09:00:40.999Z</time>
      </trkpt>
      <trkpt lat="46.18429" lon="2.94035">
        <ele>655.23</ele>
        <time>2018-04-10T09:00:41.999Z</time>
      </trkpt>
      <trkpt lat="46.18434" lon="2.94016">
        <ele>654.51</ele>
        <time>2018-04-10T09:00:42.999Z</time>
      </trkpt>
      <trkpt lat="46.18438" lon="2.93997">
        <ele>653.99</ele>
        <time>2018-04-10T09:00:43.999Z</time>
      </trkpt>
      <trkpt lat="46.18441" lon="2.93978">
        <ele>653.65</ele>
        <time>2018-04-10T09:00:44.999Z</time>
      </trkpt>
      <trkpt lat="46.18443" lon="2.93958">
        <ele>653.09</ele>
        <time>2018-04-10T09:00:45.999Z</time>
      </trkpt>
      <trkpt lat="46.18442" lon="2.93939">
        <ele>652.39</ele>
        <time>2018-04-10T09:00:46.999Z</time>
      </trkpt>
      <trkpt lat="46.18438" lon="2.93921">
        <ele>651.74</ele>
        <time>2018-04-10T09:00:47.999Z</time>
      </trkpt>
      <trkpt lat="46.18431" lon="2.93905">
        <ele>650.51</ele>
        <time>2018-04-10T09:00:48.999Z</time>
      </trkpt>
      <trkpt lat="46.18422" lon="2.9389">
        <ele>649.39</ele>
        <time>2018-04-10T09:00:49.999Z</time>
      </trkpt>
      <trkpt lat="46.18412" lon="2.93876">
        <ele>648.3</ele>
        <time>2018-04-10T09:00:50.999Z</time>
      </trkpt>
      <trkpt lat="46.18402" lon="2.93864">
        <ele>647.1</ele>
        <time>2018-04-10T09:00:51.999Z</time>
      </trkpt>
      <trkpt lat="46.18392" lon="2.93851">
        <ele>646.21</ele>
        <time>2018-04-10T09:00:52.999Z</time>
      </trkpt>
      <trkpt lat="46.18382" lon="2.93837">
        <ele>645.37</ele>
        <time>2018-04-10T09:00:53.999Z</time>
      </trkpt>
      <trkpt lat="46.18373" lon="2.93824">
        <ele>644.65</ele>
        <time>2018-04-10T09:00:54.998Z</time>
      </trkpt>
      <trkpt lat="46.18364" lon="2.9381">
        <ele>643.77</ele>
        <time>2018-04-10T09:00:55.998Z</time>
      </trkpt>
      <trkpt lat="46.18355" lon="2.93796">
        <ele>643.25</ele>
        <time>2018-04-10T09:00:56.999Z</time>
      </trkpt>
      <trkpt lat="46.18347" lon="2.93782">
        <ele>642.33</ele>
        <time>2018-04-10T09:00:57.999Z</time>
      </trkpt>
      <trkpt lat="46.18339" lon="2.93768">
        <ele>641.47</ele>
        <time>2018-04-10T09:00:58.999Z</time>
      </trkpt>
      <trkpt lat="46.18331" lon="2.93755">
        <ele>640.72</ele>
        <time>2018-04-10T09:00:59.999Z</time>
      </trkpt>
      <trkpt lat="46.18322" lon="2.93741">
        <ele>640.11</ele>
        <time>2018-04-10T09:01:00.999Z</time>
      </trkpt>
      <trkpt lat="46.18314" lon="2.93728">
        <ele>639.75</ele>
        <time>2018-04-10T09:01:01.999Z</time>
      </trkpt>
      <trkpt lat="46.18305" lon="2.93714">
        <ele>638.72</ele>
        <time>2018-04-10T09:01:02.999Z</time>
      </trkpt>
      <trkpt lat="46.18297" lon="2.937">
        <ele>637.51</ele>
        <time>2018-04-10T09:01:03.999Z</time>
      </trkpt>
      <trkpt lat="46.18289" lon="2.93687">
        <ele>636.02</ele>
        <time>2018-04-10T09:01:04.999Z</time>
      </trkpt>
      <trkpt lat="46.18281" lon="2.93673">
        <ele>634.91</ele>
        <time>2018-04-10T09:01:05.999Z</time>
      </trkpt>
      <trkpt lat="46.18273" lon="2.9366">
        <ele>634.11</ele>
        <time>2018-04-10T09:01:06.999Z</time>
      </trkpt>
      <trkpt lat="46.18265" lon="2.93646">
        <ele>633.35</ele>
        <time>2018-04-10T09:01:07.999Z</time>
      </trkpt>
      <trkpt lat="46.18257" lon="2.93632">
        <ele>632.65</ele>
        <time>2018-04-10T09:01:08.999Z</time>
      </trkpt>
      <trkpt lat="46.18249" lon="2.93619">
        <ele>631.83</ele>
        <time>2018-04-10T09:01:09.999Z</time>
      </trkpt>
      <trkpt lat="46.18241" lon="2.93606">
        <ele>630.97</ele>
        <time>2018-04-10T09:01:10.999Z</time>
      </trkpt>
      <trkpt lat="46.18233" lon="2.93593">
        <ele>630.32</ele>
        <time>2018-04-10T09:01:11.999Z</time>
      </trkpt>
      <trkpt lat="46.18224" lon="2.93581">
        <ele>629.79</ele>
        <time>2018-04-10T09:01:12.999Z</time>
      </trkpt>
      <trkpt lat="46.18216" lon="2.93568">
        <ele>629.49</ele>
        <time>2018-04-10T09:01:13.999Z</time>
      </trkpt>
      <trkpt lat="46.18208" lon="2.93555">
        <ele>628.78</ele>
        <time>2018-04-10T09:01:14.999Z</time>
      </trkpt>
      <trkpt lat="46.18201" lon="2.93542">
        <ele>627.96</ele>
        <time>2018-04-10T09:01:15.999Z</time>
      </trkpt>
      <trkpt lat="46.18194" lon="2.93527">
        <ele>627.2</ele>
        <time>2018-04-10T09:01:16.999Z</time>
      </trkpt>
      <trkpt lat="46.18189" lon="2.93512">
        <ele>626.49</ele>
        <time>2018-04-10T09:01:17.999Z</time>
      </trkpt>
      <trkpt lat="46.18186" lon="2.93495">
        <ele>625.94</ele>
        <time>2018-04-10T09:01:18.999Z</time>
      </trkpt>
      <trkpt lat="46.18187" lon="2.93476">
        <ele>625.46</ele>
        <time>2018-04-10T09:01:19.999Z</time>
      </trkpt>
      <trkpt lat="46.1819" lon="2.93459">
        <ele>624.82</ele>
        <time>2018-04-10T09:01:20.999Z</time>
      </trkpt>
      <trkpt lat="46.18194" lon="2.93443">
        <ele>623.91</ele>
        <time>2018-04-10T09:01:21.999Z</time>
      </trkpt>
      <trkpt lat="46.182" lon="2.93427">
        <ele>623.14</ele>
        <time>2018-04-10T09:01:22.999Z</time>
      </trkpt>
      <trkpt lat="46.18204" lon="2.93411">
        <ele>622.46</ele>
        <time>2018-04-10T09:01:23.999Z</time>
      </trkpt>
      <trkpt lat="46.18207" lon="2.93395">
        <ele>621.72</ele>
        <time>2018-04-10T09:01:24.999Z</time>
      </trkpt>
      <trkpt lat="46.1821" lon="2.93379">
        <ele>621</ele>
        <time>2018-04-10T09:01:25.999Z</time>
      </trkpt>
      <trkpt lat="46.18211" lon="2.93364">
        <ele>620.21</ele>
        <time>2018-04-10T09:01:26.999Z</time>
      </trkpt>
      <trkpt lat="46.18211" lon="2.93348">
        <ele>619.8</ele>
        <time>2018-04-10T09:01:27.999Z</time>
      </trkpt>
      <trkpt lat="46.18211" lon="2.93331">
        <ele>619.51</ele>
        <time>2018-04-10T09:01:28.999Z</time>
      </trkpt>
      <trkpt lat="46.18211" lon="2.93315">
        <ele>619.09</ele>
        <time>2018-04-10T09:01:29.999Z</time>
      </trkpt>
      <trkpt lat="46.1821" lon="2.933">
        <ele>618.73</ele>
        <time>2018-04-10T09:01:30.999Z</time>
      </trkpt>
      <trkpt lat="46.18211" lon="2.93284">
        <ele>618.38</ele>
        <time>2018-04-10T09:01:31.999Z</time>
      </trkpt>
      <trkpt lat="46.18214" lon="2.9327">
        <ele>617.89</ele>
        <time>2018-04-10T09:01:32.999Z</time>
      </trkpt>
      <trkpt lat="46.18219" lon="2.93257">
        <ele>617.43</ele>
        <time>2018-04-10T09:01:33.999Z</time>
      </trkpt>
      <trkpt lat="46.18228" lon="2.93247">
        <ele>617.17</ele>
        <time>2018-04-10T09:01:34.999Z</time>
      </trkpt>
      <trkpt lat="46.18237" lon="2.93239">
        <ele>616.72</ele>
        <time>2018-04-10T09:01:35.999Z</time>
      </trkpt>
      <trkpt lat="46.18248" lon="2.93235">
        <ele>616.65</ele>
        <time>2018-04-10T09:01:36.999Z</time>
      </trkpt>
      <trkpt lat="46.18258" lon="2.93233">
        <ele>616.61</ele>
        <time>2018-04-10T09:01:37.999Z</time>
      </trkpt>
      <trkpt lat="46.18268" lon="2.93233">
        <ele>616.81</ele>
        <time>2018-04-10T09:01:38.999Z</time>
      </trkpt>
      <trkpt lat="46.18277" lon="2.93233">
        <ele>617.14</ele>
        <time>2018-04-10T09:01:39.999Z</time>
      </trkpt>
      <trkpt lat="46.18287" lon="2.93232">
        <ele>617.38</ele>
        <time>2018-04-10T09:01:40.999Z</time>
      </trkpt>
      <trkpt lat="46.18297" lon="2.9323">
        <ele>617.38</ele>
        <time>2018-04-10T09:01:41.999Z</time>
      </trkpt>
      <trkpt lat="46.18307" lon="2.93228">
        <ele>617.36</ele>
        <time>2018-04-10T09:01:42.999Z</time>
      </trkpt>
      <trkpt lat="46.18316" lon="2.93224">
        <ele>617.3</ele>
        <time>2018-04-10T09:01:43.999Z</time>
      </trkpt>
      <trkpt lat="46.18325" lon="2.93219">
        <ele>617.13</ele>
        <time>2018-04-10T09:01:44.999Z</time>
      </trkpt>
      <trkpt lat="46.18333" lon="2.93214">
        <ele>616.83</ele>
        <time>2018-04-10T09:01:45.999Z</time>
      </trkpt>
      <trkpt lat="46.18342" lon="2.93209">
        <ele>616.69</ele>
        <time>2018-04-10T09:01:46.999Z</time>
      </trkpt>
      <trkpt lat="46.1835" lon="2.93204">
        <ele>616.61</ele>
        <time>2018-04-10T09:01:47.999Z</time>
      </trkpt>
      <trkpt lat="46.18359" lon="2.93199">
        <ele>616.53</ele>
        <time>2018-04-10T09:01:48.999Z</time>
      </trkpt>
      <trkpt lat="46.18368" lon="2.93194">
        <ele>616.39</ele>
        <time>2018-04-10T09:01:49.999Z</time>
      </trkpt>
      <trkpt lat="46.18377" lon="2.9319">
        <ele>616.28</ele>
        <time>2018-04-10T09:01:50.999Z</time>
      </trkpt>
      <trkpt lat="46.18385" lon="2.93186">
        <ele>616.41</ele>
        <time>2018-04-10T09:01:51.999Z</time>
      </trkpt>
      <trkpt lat="46.18402" lon="2.93176">
        <ele>616.64</ele>
        <time>2018-04-10T09:01:53.999Z</time>
      </trkpt>
      <trkpt lat="46.1841" lon="2.93169">
        <ele>616.6</ele>
        <time>2018-04-10T09:01:54.999Z</time>
      </trkpt>
      <trkpt lat="46.18417" lon="2.93162">
        <ele>616.6</ele>
        <time>2018-04-10T09:01:55.999Z</time>
      </trkpt>
      <trkpt lat="46.18424" lon="2.93154">
        <ele>616.45</ele>
        <time>2018-04-10T09:01:56.999Z</time>
      </trkpt>
      <trkpt lat="46.18436" lon="2.93133">
        <ele>616.12</ele>
        <time>2018-04-10T09:01:58.999Z</time>
      </trkpt>
      <trkpt lat="46.18441" lon="2.9312">
        <ele>615.74</ele>
        <time>2018-04-10T09:01:59.999Z</time>
      </trkpt>
      <trkpt lat="46.18445" lon="2.93107">
        <ele>615.52</ele>
        <time>2018-04-10T09:02:00.999Z</time>
      </trkpt>
      <trkpt lat="46.18449" lon="2.93094">
        <ele>615.42</ele>
        <time>2018-04-10T09:02:01.999Z</time>
      </trkpt>
      <trkpt lat="46.18453" lon="2.93081">
        <ele>615.16</ele>
        <time>2018-04-10T09:02:02.999Z</time>
      </trkpt>
      <trkpt lat="46.18457" lon="2.93069">
        <ele>614.98</ele>
        <time>2018-04-10T09:02:03.999Z</time>
      </trkpt>
      <trkpt lat="46.18461" lon="2.93057">
        <ele>614.67</ele>
        <time>2018-04-10T09:02:04.999Z</time>
      </trkpt>
      <trkpt lat="46.18465" lon="2.93045">
        <ele>614.35</ele>
        <time>2018-04-10T09:02:05.999Z</time>
      </trkpt>
      <trkpt lat="46.1847" lon="2.93032">
        <ele>614.04</ele>
        <time>2018-04-10T09:02:06.999Z</time>
      </trkpt>
      <trkpt lat="46.18475" lon="2.93021">
        <ele>613.93</ele>
        <time>2018-04-10T09:02:07.999Z</time>
      </trkpt>
      <trkpt lat="46.18481" lon="2.9301">
        <ele>613.73</ele>
        <time>2018-04-10T09:02:08.999Z</time>
      </trkpt>
      <trkpt lat="46.18488" lon="2.93">
        <ele>613.85</ele>
        <time>2018-04-10T09:02:09.999Z</time>
      </trkpt>
      <trkpt lat="46.18497" lon="2.92991">
        <ele>613.83</ele>
        <time>2018-04-10T09:02:10.999Z</time>
      </trkpt>
      <trkpt lat="46.18506" lon="2.92983">
        <ele>613.67</ele>
        <time>2018-04-10T09:02:11.999Z</time>
      </trkpt>
      <trkpt lat="46.18516" lon="2.92976">
        <ele>613.46</ele>
        <time>2018-04-10T09:02:12.999Z</time>
      </trkpt>
      <trkpt lat="46.18526" lon="2.92968">
        <ele>613.31</ele>
        <time>2018-04-10T09:02:13.999Z</time>
      </trkpt>
      <trkpt lat="46.18537" lon="2.92961">
        <ele>613.08</ele>
        <time>2018-04-10T09:02:14.999Z</time>
      </trkpt>
      <trkpt lat="46.18547" lon="2.92954">
        <ele>612.73</ele>
        <time>2018-04-10T09:02:15.999Z</time>
      </trkpt>
      <trkpt lat="46.18558" lon="2.92947">
        <ele>612.48</ele>
        <time>2018-04-10T09:02:16.999Z</time>
      </trkpt>
      <trkpt lat="46.18568" lon="2.92939">
        <ele>612.22</ele>
        <time>2018-04-10T09:02:17.999Z</time>
      </trkpt>
      <trkpt lat="46.18578" lon="2.92931">
        <ele>611.77</ele>
        <time>2018-04-10T09:02:18.999Z</time>
      </trkpt>
      <trkpt lat="46.18589" lon="2.92923">
        <ele>611.32</ele>
        <time>2018-04-10T09:02:19.999Z</time>
      </trkpt>
      <trkpt lat="46.18599" lon="2.92915">
        <ele>610.99</ele>
        <time>2018-04-10T09:02:20.999Z</time>
      </trkpt>
      <trkpt lat="46.18609" lon="2.92906">
        <ele>610.66</ele>
        <time>2018-04-10T09:02:21.999Z</time>
      </trkpt>
      <trkpt lat="46.1862" lon="2.92898">
        <ele>610.14</ele>
        <time>2018-04-10T09:02:22.999Z</time>
      </trkpt>
      <trkpt lat="46.1863" lon="2.9289">
        <ele>609.79</ele>
        <time>2018-04-10T09:02:23.999Z</time>
      </trkpt>
      <trkpt lat="46.1864" lon="2.92881">
        <ele>609.35</ele>
        <time>2018-04-10T09:02:24.999Z</time>
      </trkpt>
      <trkpt lat="46.18651" lon="2.92873">
        <ele>609.01</ele>
        <time>2018-04-10T09:02:25.999Z</time>
      </trkpt>
      <trkpt lat="46.18662" lon="2.92865">
        <ele>608.74</ele>
        <time>2018-04-10T09:02:26.999Z</time>
      </trkpt>
      <trkpt lat="46.18672" lon="2.92857">
        <ele>608.53</ele>
        <time>2018-04-10T09:02:27.999Z</time>
      </trkpt>
      <trkpt lat="46.18683" lon="2.92848">
        <ele>608.2</ele>
        <time>2018-04-10T09:02:28.999Z</time>
      </trkpt>
      <trkpt lat="46.18694" lon="2.9284">
        <ele>607.73</ele>
        <time>2018-04-10T09:02:29.999Z</time>
      </trkpt>
      <trkpt lat="46.18704" lon="2.92832">
        <ele>607.38</ele>
        <time>2018-04-10T09:02:30.999Z</time>
      </trkpt>
      <trkpt lat="46.18715" lon="2.92824">
        <ele>607.06</ele>
        <time>2018-04-10T09:02:31.999Z</time>
      </trkpt>
      <trkpt lat="46.18726" lon="2.92815">
        <ele>606.72</ele>
        <time>2018-04-10T09:02:32.999Z</time>
      </trkpt>
      <trkpt lat="46.18736" lon="2.92807">
        <ele>606.4</ele>
        <time>2018-04-10T09:02:33.999Z</time>
      </trkpt>
      <trkpt lat="46.18747" lon="2.92799">
        <ele>605.87</ele>
        <time>2018-04-10T09:02:34.999Z</time>
      </trkpt>
      <trkpt lat="46.18758" lon="2.92791">
        <ele>605.44</ele>
        <time>2018-04-10T09:02:35.999Z</time>
      </trkpt>
      <trkpt lat="46.18769" lon="2.92782">
        <ele>605.07</ele>
        <time>2018-04-10T09:02:36.999Z</time>
      </trkpt>
      <trkpt lat="46.1878" lon="2.92774">
        <ele>604.77</ele>
        <time>2018-04-10T09:02:37.999Z</time>
      </trkpt>
      <trkpt lat="46.1879" lon="2.92766">
        <ele>604.53</ele>
        <time>2018-04-10T09:02:38.999Z</time>
      </trkpt>
      <trkpt lat="46.18801" lon="2.92758">
        <ele>604.06</ele>
        <time>2018-04-10T09:02:39.999Z</time>
      </trkpt>
      <trkpt lat="46.18812" lon="2.92749">
        <ele>603.66</ele>
        <time>2018-04-10T09:02:40.999Z</time>
      </trkpt>
      <trkpt lat="46.18823" lon="2.92741">
        <ele>603.17</ele>
        <time>2018-04-10T09:02:41.999Z</time>
      </trkpt>
      <trkpt lat="46.18834" lon="2.92732">
        <ele>602.69</ele>
        <time>2018-04-10T09:02:42.999Z</time>
      </trkpt>
      <trkpt lat="46.18845" lon="2.92724">
        <ele>602.42</ele>
        <time>2018-04-10T09:02:43.999Z</time>
      </trkpt>
      <trkpt lat="46.18855" lon="2.92715">
        <ele>602.08</ele>
        <time>2018-04-10T09:02:44.999Z</time>
      </trkpt>
      <trkpt lat="46.18866" lon="2.92707">
        <ele>601.66</ele>
        <time>2018-04-10T09:02:45.999Z</time>
      </trkpt>
      <trkpt lat="46.18876" lon="2.92699">
        <ele>601.34</ele>
        <time>2018-04-10T09:02:46.999Z</time>
      </trkpt>
      <trkpt lat="46.18887" lon="2.92691">
        <ele>600.9</ele>
        <time>2018-04-10T09:02:47.999Z</time>
      </trkpt>
      <trkpt lat="46.18897" lon="2.92682">
        <ele>600.43</ele>
        <time>2018-04-10T09:02:48.999Z</time>
      </trkpt>
      <trkpt lat="46.18908" lon="2.92674">
        <ele>599.92</ele>
        <time>2018-04-10T09:02:49.999Z</time>
      </trkpt>
      <trkpt lat="46.18919" lon="2.92666">
        <ele>599.28</ele>
        <time>2018-04-10T09:02:50.999Z</time>
      </trkpt>
      <trkpt lat="46.1893" lon="2.92657">
        <ele>598.72</ele>
        <time>2018-04-10T09:02:51.999Z</time>
      </trkpt>
      <trkpt lat="46.1894" lon="2.92649">
        <ele>598.12</ele>
        <time>2018-04-10T09:02:52.999Z</time>
      </trkpt>
      <trkpt lat="46.18951" lon="2.92641">
        <ele>597.48</ele>
        <time>2018-04-10T09:02:53.999Z</time>
      </trkpt>
      <trkpt lat="46.18963" lon="2.92632">
        <ele>596.94</ele>
        <time>2018-04-10T09:02:54.999Z</time>
      </trkpt>
      <trkpt lat="46.18973" lon="2.92624">
        <ele>596.35</ele>
        <time>2018-04-10T09:02:55.999Z</time>
      </trkpt>
      <trkpt lat="46.18984" lon="2.92616">
        <ele>595.76</ele>
        <time>2018-04-10T09:02:56.999Z</time>
      </trkpt>
      <trkpt lat="46.18995" lon="2.92607">
        <ele>595.19</ele>
        <time>2018-04-10T09:02:57.999Z</time>
      </trkpt>
      <trkpt lat="46.19006" lon="2.92599">
        <ele>594.52</ele>
        <time>2018-04-10T09:02:58.999Z</time>
      </trkpt>
      <trkpt lat="46.19017" lon="2.9259">
        <ele>593.96</ele>
        <time>2018-04-10T09:02:59.999Z</time>
      </trkpt>
      <trkpt lat="46.19028" lon="2.92581">
        <ele>593.53</ele>
        <time>2018-04-10T09:03:00.999Z</time>
      </trkpt>
      <trkpt lat="46.19038" lon="2.92573">
        <ele>593.06</ele>
        <time>2018-04-10T09:03:01.999Z</time>
      </trkpt>
      <trkpt lat="46.19049" lon="2.92564">
        <ele>592.51</ele>
        <time>2018-04-10T09:03:02.999Z</time>
      </trkpt>
      <trkpt lat="46.1906" lon="2.92556">
        <ele>591.99</ele>
        <time>2018-04-10T09:03:03.999Z</time>
      </trkpt>
      <trkpt lat="46.19071" lon="2.92547">
        <ele>591.57</ele>
        <time>2018-04-10T09:03:04.999Z</time>
      </trkpt>
      <trkpt lat="46.19082" lon="2.92539">
        <ele>591.1</ele>
        <time>2018-04-10T09:03:05.999Z</time>
      </trkpt>
      <trkpt lat="46.19093" lon="2.92531">
        <ele>590.68</ele>
        <time>2018-04-10T09:03:06.999Z</time>
      </trkpt>
      <trkpt lat="46.19104" lon="2.92522">
        <ele>590.25</ele>
        <time>2018-04-10T09:03:07.999Z</time>
      </trkpt>
      <trkpt lat="46.19114" lon="2.92513">
        <ele>589.95</ele>
        <time>2018-04-10T09:03:08.999Z</time>
      </trkpt>
      <trkpt lat="46.19125" lon="2.92505">
        <ele>589.53</ele>
        <time>2018-04-10T09:03:09.999Z</time>
      </trkpt>
      <trkpt lat="46.19136" lon="2.92496">
        <ele>589.09</ele>
        <time>2018-04-10T09:03:10.999Z</time>
      </trkpt>
      <trkpt lat="46.19147" lon="2.92488">
        <ele>588.59</ele>
        <time>2018-04-10T09:03:11.999Z</time>
      </trkpt>
      <trkpt lat="46.19157" lon="2.92481">
        <ele>588.29</ele>
        <time>2018-04-10T09:03:12.999Z</time>
      </trkpt>
      <trkpt lat="46.19168" lon="2.92473">
        <ele>588</ele>
        <time>2018-04-10T09:03:13.999Z</time>
      </trkpt>
      <trkpt lat="46.19178" lon="2.92464">
        <ele>587.77</ele>
        <time>2018-04-10T09:03:14.999Z</time>
      </trkpt>
      <trkpt lat="46.19189" lon="2.92456">
        <ele>587.4</ele>
        <time>2018-04-10T09:03:15.999Z</time>
      </trkpt>
      <trkpt lat="46.19199" lon="2.92448">
        <ele>586.93</ele>
        <time>2018-04-10T09:03:16.999Z</time>
      </trkpt>
      <trkpt lat="46.19209" lon="2.9244">
        <ele>586.45</ele>
        <time>2018-04-10T09:03:17.999Z</time>
      </trkpt>
      <trkpt lat="46.1922" lon="2.92432">
        <ele>585.91</ele>
        <time>2018-04-10T09:03:18.999Z</time>
      </trkpt>
      <trkpt lat="46.1923" lon="2.92423">
        <ele>585.31</ele>
        <time>2018-04-10T09:03:19.999Z</time>
      </trkpt>
      <trkpt lat="46.1924" lon="2.92415">
        <ele>584.78</ele>
        <time>2018-04-10T09:03:20.999Z</time>
      </trkpt>
      <trkpt lat="46.1925" lon="2.92407">
        <ele>584.27</ele>
        <time>2018-04-10T09:03:21.999Z</time>
      </trkpt>
      <trkpt lat="46.1926" lon="2.924">
        <ele>583.86</ele>
        <time>2018-04-10T09:03:22.999Z</time>
      </trkpt>
      <trkpt lat="46.1927" lon="2.92392">
        <ele>583.44</ele>
        <time>2018-04-10T09:03:23.999Z</time>
      </trkpt>
      <trkpt lat="46.1928" lon="2.92385">
        <ele>582.97</ele>
        <time>2018-04-10T09:03:24.999Z</time>
      </trkpt>
      <trkpt lat="46.1929" lon="2.92377">
        <ele>582.75</ele>
        <time>2018-04-10T09:03:25.999Z</time>
      </trkpt>
      <trkpt lat="46.193" lon="2.92369">
        <ele>582.59</ele>
        <time>2018-04-10T09:03:26.999Z</time>
      </trkpt>
      <trkpt lat="46.1931" lon="2.92361">
        <ele>582.42</ele>
        <time>2018-04-10T09:03:27.999Z</time>
      </trkpt>
      <trkpt lat="46.1932" lon="2.92354">
        <ele>582.32</ele>
        <time>2018-04-10T09:03:28.999Z</time>
      </trkpt>
      <trkpt lat="46.1933" lon="2.92346">
        <ele>582.07</ele>
        <time>2018-04-10T09:03:29.999Z</time>
      </trkpt>
      <trkpt lat="46.19339" lon="2.92338">
        <ele>581.74</ele>
        <time>2018-04-10T09:03:30.999Z</time>
      </trkpt>
      <trkpt lat="46.1935" lon="2.92331">
        <ele>581.4</ele>
        <time>2018-04-10T09:03:31.999Z</time>
      </trkpt>
      <trkpt lat="46.1936" lon="2.92323">
        <ele>581.12</ele>
        <time>2018-04-10T09:03:32.999Z</time>
      </trkpt>
      <trkpt lat="46.1937" lon="2.92315">
        <ele>580.69</ele>
        <time>2018-04-10T09:03:33.999Z</time>
      </trkpt>
      <trkpt lat="46.19379" lon="2.92307">
        <ele>580.3</ele>
        <time>2018-04-10T09:03:34.999Z</time>
      </trkpt>
      <trkpt lat="46.19389" lon="2.923">
        <ele>579.87</ele>
        <time>2018-04-10T09:03:35.999Z</time>
      </trkpt>
      <trkpt lat="46.19399" lon="2.92292">
        <ele>579.45</ele>
        <time>2018-04-10T09:03:36.999Z</time>
      </trkpt>
      <trkpt lat="46.19409" lon="2.92285">
        <ele>579.08</ele>
        <time>2018-04-10T09:03:37.999Z</time>
      </trkpt>
      <trkpt lat="46.19419" lon="2.92277">
        <ele>578.76</ele>
        <time>2018-04-10T09:03:38.999Z</time>
      </trkpt>
      <trkpt lat="46.19429" lon="2.92269">
        <ele>578.51</ele>
        <time>2018-04-10T09:03:39.999Z</time>
      </trkpt>
      <trkpt lat="46.19438" lon="2.92262">
        <ele>578.34</ele>
        <time>2018-04-10T09:03:40.999Z</time>
      </trkpt>
      <trkpt lat="46.19448" lon="2.92254">
        <ele>578.14</ele>
        <time>2018-04-10T09:03:41.999Z</time>
      </trkpt>
      <trkpt lat="46.19458" lon="2.92247">
        <ele>577.9</ele>
        <time>2018-04-10T09:03:42.999Z</time>
      </trkpt>
      <trkpt lat="46.19468" lon="2.92239">
        <ele>577.63</ele>
        <time>2018-04-10T09:03:43.999Z</time>
      </trkpt>
      <trkpt lat="46.19478" lon="2.92232">
        <ele>577.35</ele>
        <time>2018-04-10T09:03:44.999Z</time>
      </trkpt>
      <trkpt lat="46.19487" lon="2.92225">
        <ele>576.91</ele>
        <time>2018-04-10T09:03:45.999Z</time>
      </trkpt>
      <trkpt lat="46.19496" lon="2.92217">
        <ele>576.6</ele>
        <time>2018-04-10T09:03:46.999Z</time>
      </trkpt>
      <trkpt lat="46.19506" lon="2.9221">
        <ele>576.39</ele>
        <time>2018-04-10T09:03:47.999Z</time>
      </trkpt>
      <trkpt lat="46.19516" lon="2.92202">
        <ele>576.13</ele>
        <time>2018-04-10T09:03:48.999Z</time>
      </trkpt>
      <trkpt lat="46.19526" lon="2.92194">
        <ele>575.98</ele>
        <time>2018-04-10T09:03:49.999Z</time>
      </trkpt>
      <trkpt lat="46.19535" lon="2.92186">
        <ele>575.83</ele>
        <time>2018-04-10T09:03:50.999Z</time>
      </trkpt>
      <trkpt lat="46.19545" lon="2.92179">
        <ele>575.57</ele>
        <time>2018-04-10T09:03:51.999Z</time>
      </trkpt>
      <trkpt lat="46.19555" lon="2.92172">
        <ele>575.31</ele>
        <time>2018-04-10T09:03:52.999Z</time>
      </trkpt>
      <trkpt lat="46.19565" lon="2.92164">
        <ele>575.06</ele>
        <time>2018-04-10T09:03:53.999Z</time>
      </trkpt>
      <trkpt lat="46.19575" lon="2.92156">
        <ele>574.81</ele>
        <time>2018-04-10T09:03:54.999Z</time>
      </trkpt>
      <trkpt lat="46.19585" lon="2.92148">
        <ele>574.49</ele>
        <time>2018-04-10T09:03:55.999Z</time>
      </trkpt>
      <trkpt lat="46.19595" lon="2.92141">
        <ele>574.04</ele>
        <time>2018-04-10T09:03:56.999Z</time>
      </trkpt>
      <trkpt lat="46.19605" lon="2.92133">
        <ele>573.64</ele>
        <time>2018-04-10T09:03:57.999Z</time>
      </trkpt>
      <trkpt lat="46.19616" lon="2.92126">
        <ele>573.26</ele>
        <time>2018-04-10T09:03:58.999Z</time>
      </trkpt>
      <trkpt lat="46.19627" lon="2.9212">
        <ele>572.98</ele>
        <time>2018-04-10T09:03:59.999Z</time>
      </trkpt>
      <trkpt lat="46.19638" lon="2.92115">
        <ele>572.68</ele>
        <time>2018-04-10T09:04:00.999Z</time>
      </trkpt>
      <trkpt lat="46.1965" lon="2.92111">
        <ele>572.44</ele>
        <time>2018-04-10T09:04:01.999Z</time>
      </trkpt>
      <trkpt lat="46.19661" lon="2.92107">
        <ele>572.22</ele>
        <time>2018-04-10T09:04:02.999Z</time>
      </trkpt>
      <trkpt lat="46.19673" lon="2.92105">
        <ele>572.1</ele>
        <time>2018-04-10T09:04:03.999Z</time>
      </trkpt>
      <trkpt lat="46.19685" lon="2.92102">
        <ele>572.01</ele>
        <time>2018-04-10T09:04:04.999Z</time>
      </trkpt>
      <trkpt lat="46.19698" lon="2.921">
        <ele>571.89</ele>
        <time>2018-04-10T09:04:05.999Z</time>
      </trkpt>
      <trkpt lat="46.19709" lon="2.92097">
        <ele>571.57</ele>
        <time>2018-04-10T09:04:06.999Z</time>
      </trkpt>
      <trkpt lat="46.19721" lon="2.92095">
        <ele>571.16</ele>
        <time>2018-04-10T09:04:07.999Z</time>
      </trkpt>
      <trkpt lat="46.19733" lon="2.92092">
        <ele>570.79</ele>
        <time>2018-04-10T09:04:08.999Z</time>
      </trkpt>
      <trkpt lat="46.19745" lon="2.9209">
        <ele>570.35</ele>
        <time>2018-04-10T09:04:09.999Z</time>
      </trkpt>
      <trkpt lat="46.19757" lon="2.92087">
        <ele>569.62</ele>
        <time>2018-04-10T09:04:10.999Z</time>
      </trkpt>
      <trkpt lat="46.19769" lon="2.92086">
        <ele>569.29</ele>
        <time>2018-04-10T09:04:11.999Z</time>
      </trkpt>
      <trkpt lat="46.19782" lon="2.92085">
        <ele>568.95</ele>
        <time>2018-04-10T09:04:12.999Z</time>
      </trkpt>
      <trkpt lat="46.19795" lon="2.92086">
        <ele>568.74</ele>
        <time>2018-04-10T09:04:13.999Z</time>
      </trkpt>
      <trkpt lat="46.19807" lon="2.92089">
        <ele>568.43</ele>
        <time>2018-04-10T09:04:14.999Z</time>
      </trkpt>
      <trkpt lat="46.19819" lon="2.92094">
        <ele>567.84</ele>
        <time>2018-04-10T09:04:15.999Z</time>
      </trkpt>
      <trkpt lat="46.19831" lon="2.92099">
        <ele>567.17</ele>
        <time>2018-04-10T09:04:16.999Z</time>
      </trkpt>
      <trkpt lat="46.19842" lon="2.92105">
        <ele>566.77</ele>
        <time>2018-04-10T09:04:17.999Z</time>
      </trkpt>
      <trkpt lat="46.19852" lon="2.92111">
        <ele>566.4</ele>
        <time>2018-04-10T09:04:18.999Z</time>
      </trkpt>
      <trkpt lat="46.19863" lon="2.92117">
        <ele>566.14</ele>
        <time>2018-04-10T09:04:19.999Z</time>
      </trkpt>
      <trkpt lat="46.19873" lon="2.92123">
        <ele>565.92</ele>
        <time>2018-04-10T09:04:20.999Z</time>
      </trkpt>
      <trkpt lat="46.19883" lon="2.92129">
        <ele>565.61</ele>
        <time>2018-04-10T09:04:21.999Z</time>
      </trkpt>
      <trkpt lat="46.19893" lon="2.92135">
        <ele>565.08</ele>
        <time>2018-04-10T09:04:22.999Z</time>
      </trkpt>
      <trkpt lat="46.19901" lon="2.9214">
        <ele>564.59</ele>
        <time>2018-04-10T09:04:23.999Z</time>
      </trkpt>
      <trkpt lat="46.1991" lon="2.92145">
        <ele>564.22</ele>
        <time>2018-04-10T09:04:24.999Z</time>
      </trkpt>
      <trkpt lat="46.19918" lon="2.9215">
        <ele>564.09</ele>
        <time>2018-04-10T09:04:25.999Z</time>
      </trkpt>
      <trkpt lat="46.19934" lon="2.92159">
        <ele>563.45</ele>
        <time>2018-04-10T09:04:27.999Z</time>
      </trkpt>
      <trkpt lat="46.19949" lon="2.92167">
        <ele>562.73</ele>
        <time>2018-04-10T09:04:29.999Z</time>
      </trkpt>
      <trkpt lat="46.19965" lon="2.92175">
        <ele>561.38</ele>
        <time>2018-04-10T09:04:31.999Z</time>
      </trkpt>
      <trkpt lat="46.19974" lon="2.9218">
        <ele>560.66</ele>
        <time>2018-04-10T09:04:32.999Z</time>
      </trkpt>
      <trkpt lat="46.19983" lon="2.92185">
        <ele>560.13</ele>
        <time>2018-04-10T09:04:33.999Z</time>
      </trkpt>
      <trkpt lat="46.19992" lon="2.92191">
        <ele>559.85</ele>
        <time>2018-04-10T09:04:34.999Z</time>
      </trkpt>
      <trkpt lat="46.20002" lon="2.92197">
        <ele>559.34</ele>
        <time>2018-04-10T09:04:35.999Z</time>
      </trkpt>
      <trkpt lat="46.20012" lon="2.92204">
        <ele>558.88</ele>
        <time>2018-04-10T09:04:36.999Z</time>
      </trkpt>
      <trkpt lat="46.20021" lon="2.9221">
        <ele>558.5</ele>
        <time>2018-04-10T09:04:37.999Z</time>
      </trkpt>
      <trkpt lat="46.20031" lon="2.92216">
        <ele>558.04</ele>
        <time>2018-04-10T09:04:38.999Z</time>
      </trkpt>
      <trkpt lat="46.20041" lon="2.92222">
        <ele>557.58</ele>
        <time>2018-04-10T09:04:39.999Z</time>
      </trkpt>
      <trkpt lat="46.2005" lon="2.92229">
        <ele>557.14</ele>
        <time>2018-04-10T09:04:40.999Z</time>
      </trkpt>
      <trkpt lat="46.2006" lon="2.92235">
        <ele>556.65</ele>
        <time>2018-04-10T09:04:41.999Z</time>
      </trkpt>
      <trkpt lat="46.20071" lon="2.9224">
        <ele>556.3</ele>
        <time>2018-04-10T09:04:42.999Z</time>
      </trkpt>
      <trkpt lat="46.20081" lon="2.92246">
        <ele>555.92</ele>
        <time>2018-04-10T09:04:43.999Z</time>
      </trkpt>
      <trkpt lat="46.20091" lon="2.92252">
        <ele>555.56</ele>
        <time>2018-04-10T09:04:44.999Z</time>
      </trkpt>
      <trkpt lat="46.20102" lon="2.92259">
        <ele>555.32</ele>
        <time>2018-04-10T09:04:45.999Z</time>
      </trkpt>
      <trkpt lat="46.20112" lon="2.92265">
        <ele>555.08</ele>
        <time>2018-04-10T09:04:46.999Z</time>
      </trkpt>
      <trkpt lat="46.20123" lon="2.92272">
        <ele>554.86</ele>
        <time>2018-04-10T09:04:47.999Z</time>
      </trkpt>
      <trkpt lat="46.20134" lon="2.92278">
        <ele>554.55</ele>
        <time>2018-04-10T09:04:48.999Z</time>
      </trkpt>
      <trkpt lat="46.20145" lon="2.92285">
        <ele>554.17</ele>
        <time>2018-04-10T09:04:49.999Z</time>
      </trkpt>
      <trkpt lat="46.20156" lon="2.92292">
        <ele>553.83</ele>
        <time>2018-04-10T09:04:50.999Z</time>
      </trkpt>
      <trkpt lat="46.20167" lon="2.92299">
        <ele>553.48</ele>
        <time>2018-04-10T09:04:51.999Z</time>
      </trkpt>
      <trkpt lat="46.20178" lon="2.92305">
        <ele>553.02</ele>
        <time>2018-04-10T09:04:52.999Z</time>
      </trkpt>
      <trkpt lat="46.2019" lon="2.92312">
        <ele>552.62</ele>
        <time>2018-04-10T09:04:53.999Z</time>
      </trkpt>
      <trkpt lat="46.20201" lon="2.92318">
        <ele>552.16</ele>
        <time>2018-04-10T09:04:54.999Z</time>
      </trkpt>
      <trkpt lat="46.20213" lon="2.92323">
        <ele>551.68</ele>
        <time>2018-04-10T09:04:55.999Z</time>
      </trkpt>
      <trkpt lat="46.20226" lon="2.92327">
        <ele>551.15</ele>
        <time>2018-04-10T09:04:56.999Z</time>
      </trkpt>
      <trkpt lat="46.20238" lon="2.92328">
        <ele>550.53</ele>
        <time>2018-04-10T09:04:57.999Z</time>
      </trkpt>
      <trkpt lat="46.2025" lon="2.92327">
        <ele>549.76</ele>
        <time>2018-04-10T09:04:58.999Z</time>
      </trkpt>
      <trkpt lat="46.20263" lon="2.92324">
        <ele>548.81</ele>
        <time>2018-04-10T09:04:59.999Z</time>
      </trkpt>
      <trkpt lat="46.20277" lon="2.92321">
        <ele>547.75</ele>
        <time>2018-04-10T09:05:00.999Z</time>
      </trkpt>
      <trkpt lat="46.2029" lon="2.92317">
        <ele>546.89</ele>
        <time>2018-04-10T09:05:01.999Z</time>
      </trkpt>
      <trkpt lat="46.20304" lon="2.92313">
        <ele>545.92</ele>
        <time>2018-04-10T09:05:02.999Z</time>
      </trkpt>
      <trkpt lat="46.20318" lon="2.9231">
        <ele>545.15</ele>
        <time>2018-04-10T09:05:03.999Z</time>
      </trkpt>
      <trkpt lat="46.20331" lon="2.92307">
        <ele>544.22</ele>
        <time>2018-04-10T09:05:04.999Z</time>
      </trkpt>
      <trkpt lat="46.20345" lon="2.92303">
        <ele>543.41</ele>
        <time>2018-04-10T09:05:05.999Z</time>
      </trkpt>
      <trkpt lat="46.20358" lon="2.923">
        <ele>542.68</ele>
        <time>2018-04-10T09:05:06.999Z</time>
      </trkpt>
      <trkpt lat="46.20372" lon="2.92297">
        <ele>541.89</ele>
        <time>2018-04-10T09:05:07.999Z</time>
      </trkpt>
      <trkpt lat="46.20386" lon="2.92294">
        <ele>541.02</ele>
        <time>2018-04-10T09:05:08.999Z</time>
      </trkpt>
      <trkpt lat="46.204" lon="2.92291">
        <ele>540.35</ele>
        <time>2018-04-10T09:05:09.999Z</time>
      </trkpt>
      <trkpt lat="46.20414" lon="2.92287">
        <ele>539.58</ele>
        <time>2018-04-10T09:05:10.999Z</time>
      </trkpt>
      <trkpt lat="46.20427" lon="2.92284">
        <ele>538.86</ele>
        <time>2018-04-10T09:05:11.999Z</time>
      </trkpt>
      <trkpt lat="46.20441" lon="2.92283">
        <ele>538.4</ele>
        <time>2018-04-10T09:05:12.999Z</time>
      </trkpt>
      <trkpt lat="46.20454" lon="2.92285">
        <ele>537.97</ele>
        <time>2018-04-10T09:05:13.999Z</time>
      </trkpt>
      <trkpt lat="46.20468" lon="2.9229">
        <ele>537.53</ele>
        <time>2018-04-10T09:05:14.999Z</time>
      </trkpt>
      <trkpt lat="46.2048" lon="2.92299">
        <ele>537.21</ele>
        <time>2018-04-10T09:05:15.999Z</time>
      </trkpt>
      <trkpt lat="46.20491" lon="2.9231">
        <ele>536.68</ele>
        <time>2018-04-10T09:05:16.999Z</time>
      </trkpt>
      <trkpt lat="46.20503" lon="2.92322">
        <ele>536</ele>
        <time>2018-04-10T09:05:17.999Z</time>
      </trkpt>
      <trkpt lat="46.20513" lon="2.92333">
        <ele>535.19</ele>
        <time>2018-04-10T09:05:18.999Z</time>
      </trkpt>
      <trkpt lat="46.20524" lon="2.92345">
        <ele>534.46</ele>
        <time>2018-04-10T09:05:19.999Z</time>
      </trkpt>
      <trkpt lat="46.20535" lon="2.92356">
        <ele>533.65</ele>
        <time>2018-04-10T09:05:20.999Z</time>
      </trkpt>
      <trkpt lat="46.20546" lon="2.92367">
        <ele>532.97</ele>
        <time>2018-04-10T09:05:21.999Z</time>
      </trkpt>
      <trkpt lat="46.20557" lon="2.92377">
        <ele>532.23</ele>
        <time>2018-04-10T09:05:22.999Z</time>
      </trkpt>
      <trkpt lat="46.20568" lon="2.92388">
        <ele>531.63</ele>
        <time>2018-04-10T09:05:23.999Z</time>
      </trkpt>
      <trkpt lat="46.20579" lon="2.92398">
        <ele>531.08</ele>
        <time>2018-04-10T09:05:24.999Z</time>
      </trkpt>
      <trkpt lat="46.2059" lon="2.92408">
        <ele>530.46</ele>
        <time>2018-04-10T09:05:25.999Z</time>
      </trkpt>
      <trkpt lat="46.20601" lon="2.92417">
        <ele>529.68</ele>
        <time>2018-04-10T09:05:26.999Z</time>
      </trkpt>
      <trkpt lat="46.20614" lon="2.92424">
        <ele>528.78</ele>
        <time>2018-04-10T09:05:27.999Z</time>
      </trkpt>
      <trkpt lat="46.20626" lon="2.92429">
        <ele>528</ele>
        <time>2018-04-10T09:05:28.999Z</time>
      </trkpt>
      <trkpt lat="46.20639" lon="2.92433">
        <ele>527.24</ele>
        <time>2018-04-10T09:05:29.999Z</time>
      </trkpt>
      <trkpt lat="46.20652" lon="2.92435">
        <ele>526.58</ele>
        <time>2018-04-10T09:05:30.999Z</time>
      </trkpt>
      <trkpt lat="46.20665" lon="2.92437">
        <ele>525.96</ele>
        <time>2018-04-10T09:05:31.999Z</time>
      </trkpt>
      <trkpt lat="46.20677" lon="2.92437">
        <ele>525.25</ele>
        <time>2018-04-10T09:05:32.999Z</time>
      </trkpt>
      <trkpt lat="46.20688" lon="2.92438">
        <ele>524.45</ele>
        <time>2018-04-10T09:05:33.999Z</time>
      </trkpt>
      <trkpt lat="46.20699" lon="2.92436">
        <ele>523.49</ele>
        <time>2018-04-10T09:05:34.999Z</time>
      </trkpt>
      <trkpt lat="46.20709" lon="2.92431">
        <ele>522.6</ele>
        <time>2018-04-10T09:05:35.999Z</time>
      </trkpt>
      <trkpt lat="46.20719" lon="2.92423">
        <ele>521.77</ele>
        <time>2018-04-10T09:05:36.999Z</time>
      </trkpt>
      <trkpt lat="46.20728" lon="2.92413">
        <ele>520.94</ele>
        <time>2018-04-10T09:05:37.999Z</time>
      </trkpt>
      <trkpt lat="46.20736" lon="2.924">
        <ele>519.88</ele>
        <time>2018-04-10T09:05:38.999Z</time>
      </trkpt>
      <trkpt lat="46.20744" lon="2.92386">
        <ele>518.95</ele>
        <time>2018-04-10T09:05:39.999Z</time>
      </trkpt>
      <trkpt lat="46.2075" lon="2.92371">
        <ele>518.06</ele>
        <time>2018-04-10T09:05:40.999Z</time>
      </trkpt>
      <trkpt lat="46.20758" lon="2.92356">
        <ele>517.16</ele>
        <time>2018-04-10T09:05:41.999Z</time>
      </trkpt>
      <trkpt lat="46.20765" lon="2.92341">
        <ele>516.26</ele>
        <time>2018-04-10T09:05:42.999Z</time>
      </trkpt>
      <trkpt lat="46.20773" lon="2.92328">
        <ele>515.47</ele>
        <time>2018-04-10T09:05:43.999Z</time>
      </trkpt>
      <trkpt lat="46.20783" lon="2.92316">
        <ele>514.72</ele>
        <time>2018-04-10T09:05:44.999Z</time>
      </trkpt>
      <trkpt lat="46.20794" lon="2.92306">
        <ele>514.01</ele>
        <time>2018-04-10T09:05:45.999Z</time>
      </trkpt>
      <trkpt lat="46.20806" lon="2.92297">
        <ele>513.21</ele>
        <time>2018-04-10T09:05:46.999Z</time>
      </trkpt>
      <trkpt lat="46.20818" lon="2.9229">
        <ele>512.47</ele>
        <time>2018-04-10T09:05:47.999Z</time>
      </trkpt>
      <trkpt lat="46.20829" lon="2.92284">
        <ele>511.69</ele>
        <time>2018-04-10T09:05:48.999Z</time>
      </trkpt>
      <trkpt lat="46.20842" lon="2.92276">
        <ele>510.98</ele>
        <time>2018-04-10T09:05:49.999Z</time>
      </trkpt>
      <trkpt lat="46.20854" lon="2.9227">
        <ele>510.16</ele>
        <time>2018-04-10T09:05:50.999Z</time>
      </trkpt>
      <trkpt lat="46.20866" lon="2.92265">
        <ele>509.5</ele>
        <time>2018-04-10T09:05:51.999Z</time>
      </trkpt>
      <trkpt lat="46.20879" lon="2.9226">
        <ele>508.82</ele>
        <time>2018-04-10T09:05:52.999Z</time>
      </trkpt>
      <trkpt lat="46.20893" lon="2.92259">
        <ele>508.16</ele>
        <time>2018-04-10T09:05:53.999Z</time>
      </trkpt>
      <trkpt lat="46.20906" lon="2.92259">
        <ele>507.34</ele>
        <time>2018-04-10T09:05:54.999Z</time>
      </trkpt>
      <trkpt lat="46.2092" lon="2.92262">
        <ele>506.5</ele>
        <time>2018-04-10T09:05:55.999Z</time>
      </trkpt>
      <trkpt lat="46.20933" lon="2.92264">
        <ele>505.94</ele>
        <time>2018-04-10T09:05:56.999Z</time>
      </trkpt>
      <trkpt lat="46.20947" lon="2.92268">
        <ele>505.29</ele>
        <time>2018-04-10T09:05:57.999Z</time>
      </trkpt>
      <trkpt lat="46.2096" lon="2.92272">
        <ele>504.63</ele>
        <time>2018-04-10T09:05:58.999Z</time>
      </trkpt>
      <trkpt lat="46.20972" lon="2.92276">
        <ele>504.05</ele>
        <time>2018-04-10T09:05:59.999Z</time>
      </trkpt>
      <trkpt lat="46.20986" lon="2.92279">
        <ele>503.41</ele>
        <time>2018-04-10T09:06:00.999Z</time>
      </trkpt>
      <trkpt lat="46.20998" lon="2.92284">
        <ele>502.77</ele>
        <time>2018-04-10T09:06:01.999Z</time>
      </trkpt>
      <trkpt lat="46.21011" lon="2.92289">
        <ele>502.17</ele>
        <time>2018-04-10T09:06:02.999Z</time>
      </trkpt>
      <trkpt lat="46.21022" lon="2.92296">
        <ele>501.64</ele>
        <time>2018-04-10T09:06:03.999Z</time>
      </trkpt>
      <trkpt lat="46.21034" lon="2.92301">
        <ele>501.06</ele>
        <time>2018-04-10T09:06:04.999Z</time>
      </trkpt>
      <trkpt lat="46.21044" lon="2.92304">
        <ele>500.5</ele>
        <time>2018-04-10T09:06:05.999Z</time>
      </trkpt>
      <trkpt lat="46.21053" lon="2.92305">
        <ele>499.95</ele>
        <time>2018-04-10T09:06:06.999Z</time>
      </trkpt>
      <trkpt lat="46.21069" lon="2.92294">
        <ele>498.74</ele>
        <time>2018-04-10T09:06:08.999Z</time>
      </trkpt>
      <trkpt lat="46.21076" lon="2.92284">
        <ele>498.11</ele>
        <time>2018-04-10T09:06:09.999Z</time>
      </trkpt>
      <trkpt lat="46.2108" lon="2.9227">
        <ele>497.47</ele>
        <time>2018-04-10T09:06:10.999Z</time>
      </trkpt>
      <trkpt lat="46.21083" lon="2.92255">
        <ele>496.69</ele>
        <time>2018-04-10T09:06:11.999Z</time>
      </trkpt>
      <trkpt lat="46.21084" lon="2.92239">
        <ele>495.93</ele>
        <time>2018-04-10T09:06:12.999Z</time>
      </trkpt>
      <trkpt lat="46.21083" lon="2.92223">
        <ele>495.23</ele>
        <time>2018-04-10T09:06:13.999Z</time>
      </trkpt>
      <trkpt lat="46.21082" lon="2.92208">
        <ele>494.62</ele>
        <time>2018-04-10T09:06:14.999Z</time>
      </trkpt>
      <trkpt lat="46.21084" lon="2.92193">
        <ele>494.2</ele>
        <time>2018-04-10T09:06:15.999Z</time>
      </trkpt>
      <trkpt lat="46.21088" lon="2.9218">
        <ele>493.81</ele>
        <time>2018-04-10T09:06:16.999Z</time>
      </trkpt>
      <trkpt lat="46.21095" lon="2.92167">
        <ele>493.46</ele>
        <time>2018-04-10T09:06:17.999Z</time>
      </trkpt>
      <trkpt lat="46.21102" lon="2.92155">
        <ele>493.19</ele>
        <time>2018-04-10T09:06:18.999Z</time>
      </trkpt>
      <trkpt lat="46.2111" lon="2.92145">
        <ele>492.84</ele>
        <time>2018-04-10T09:06:19.999Z</time>
      </trkpt>
      <trkpt lat="46.21119" lon="2.92136">
        <ele>492.45</ele>
        <time>2018-04-10T09:06:20.999Z</time>
      </trkpt>
      <trkpt lat="46.2113" lon="2.92127">
        <ele>492.09</ele>
        <time>2018-04-10T09:06:21.999Z</time>
      </trkpt>
      <trkpt lat="46.21141" lon="2.9212">
        <ele>491.59</ele>
        <time>2018-04-10T09:06:22.999Z</time>
      </trkpt>
      <trkpt lat="46.21151" lon="2.92113">
        <ele>491.14</ele>
        <time>2018-04-10T09:06:23.999Z</time>
      </trkpt>
      <trkpt lat="46.21162" lon="2.92108">
        <ele>490.51</ele>
        <time>2018-04-10T09:06:24.999Z</time>
      </trkpt>
      <trkpt lat="46.21174" lon="2.92105">
        <ele>489.97</ele>
        <time>2018-04-10T09:06:25.999Z</time>
      </trkpt>
      <trkpt lat="46.21185" lon="2.92102">
        <ele>489.35</ele>
        <time>2018-04-10T09:06:26.999Z</time>
      </trkpt>
      <trkpt lat="46.21195" lon="2.92098">
        <ele>488.32</ele>
        <time>2018-04-10T09:06:27.999Z</time>
      </trkpt>
      <trkpt lat="46.21204" lon="2.92092">
        <ele>487.27</ele>
        <time>2018-04-10T09:06:28.999Z</time>
      </trkpt>
      <trkpt lat="46.21213" lon="2.92084">
        <ele>486.35</ele>
        <time>2018-04-10T09:06:29.999Z</time>
      </trkpt>
      <trkpt lat="46.21221" lon="2.92074">
        <ele>485.43</ele>
        <time>2018-04-10T09:06:30.999Z</time>
      </trkpt>
      <trkpt lat="46.21229" lon="2.92062">
        <ele>484.85</ele>
        <time>2018-04-10T09:06:31.999Z</time>
      </trkpt>
      <trkpt lat="46.21236" lon="2.9205">
        <ele>484.29</ele>
        <time>2018-04-10T09:06:32.999Z</time>
      </trkpt>
      <trkpt lat="46.21245" lon="2.92037">
        <ele>483.81</ele>
        <time>2018-04-10T09:06:33.999Z</time>
      </trkpt>
      <trkpt lat="46.21254" lon="2.92026">
        <ele>483.31</ele>
        <time>2018-04-10T09:06:34.999Z</time>
      </trkpt>
      <trkpt lat="46.21264" lon="2.92017">
        <ele>482.75</ele>
        <time>2018-04-10T09:06:35.999Z</time>
      </trkpt>
      <trkpt lat="46.21274" lon="2.92012">
        <ele>482.26</ele>
        <time>2018-04-10T09:06:36.999Z</time>
      </trkpt>
      <trkpt lat="46.21285" lon="2.9201">
        <ele>481.86</ele>
        <time>2018-04-10T09:06:37.999Z</time>
      </trkpt>
      <trkpt lat="46.21297" lon="2.92009">
        <ele>481.5</ele>
        <time>2018-04-10T09:06:38.999Z</time>
      </trkpt>
      <trkpt lat="46.21309" lon="2.92008">
        <ele>480.96</ele>
        <time>2018-04-10T09:06:39.999Z</time>
      </trkpt>
      <trkpt lat="46.21322" lon="2.92007">
        <ele>480.47</ele>
        <time>2018-04-10T09:06:40.999Z</time>
      </trkpt>
      <trkpt lat="46.21333" lon="2.92005">
        <ele>479.89</ele>
        <time>2018-04-10T09:06:41.999Z</time>
      </trkpt>
      <trkpt lat="46.21344" lon="2.92001">
        <ele>479.19</ele>
        <time>2018-04-10T09:06:42.999Z</time>
      </trkpt>
      <trkpt lat="46.21355" lon="2.91996">
        <ele>478.32</ele>
        <time>2018-04-10T09:06:43.999Z</time>
      </trkpt>
      <trkpt lat="46.21367" lon="2.91991">
        <ele>477.61</ele>
        <time>2018-04-10T09:06:44.999Z</time>
      </trkpt>
      <trkpt lat="46.21378" lon="2.91986">
        <ele>476.8</ele>
        <time>2018-04-10T09:06:45.999Z</time>
      </trkpt>
      <trkpt lat="46.21389" lon="2.91981">
        <ele>476.06</ele>
        <time>2018-04-10T09:06:46.999Z</time>
      </trkpt>
      <trkpt lat="46.21401" lon="2.91975">
        <ele>475.15</ele>
        <time>2018-04-10T09:06:47.999Z</time>
      </trkpt>
      <trkpt lat="46.21412" lon="2.91969">
        <ele>474.03</ele>
        <time>2018-04-10T09:06:48.999Z</time>
      </trkpt>
      <trkpt lat="46.21422" lon="2.91962">
        <ele>472.89</ele>
        <time>2018-04-10T09:06:49.999Z</time>
      </trkpt>
      <trkpt lat="46.21433" lon="2.91956">
        <ele>471.76</ele>
        <time>2018-04-10T09:06:50.999Z</time>
      </trkpt>
      <trkpt lat="46.21444" lon="2.9195">
        <ele>470.93</ele>
        <time>2018-04-10T09:06:51.999Z</time>
      </trkpt>
      <trkpt lat="46.21454" lon="2.91945">
        <ele>470.13</ele>
        <time>2018-04-10T09:06:52.999Z</time>
      </trkpt>
      <trkpt lat="46.21464" lon="2.9194">
        <ele>469.27</ele>
        <time>2018-04-10T09:06:53.999Z</time>
      </trkpt>
      <trkpt lat="46.21474" lon="2.91936">
        <ele>468.52</ele>
        <time>2018-04-10T09:06:54.999Z</time>
      </trkpt>
      <trkpt lat="46.21483" lon="2.91933">
        <ele>467.97</ele>
        <time>2018-04-10T09:06:55.999Z</time>
      </trkpt>
      <trkpt lat="46.21493" lon="2.91932">
        <ele>467.81</ele>
        <time>2018-04-10T09:06:56.999Z</time>
      </trkpt>
      <trkpt lat="46.21502" lon="2.91932">
        <ele>467.63</ele>
        <time>2018-04-10T09:06:57.999Z</time>
      </trkpt>
      <trkpt lat="46.21518" lon="2.91939">
        <ele>466.61</ele>
        <time>2018-04-10T09:06:59.999Z</time>
      </trkpt>
      <trkpt lat="46.21531" lon="2.91949">
        <ele>465.99</ele>
        <time>2018-04-10T09:07:01.999Z</time>
      </trkpt>
      <trkpt lat="46.21543" lon="2.91958">
        <ele>465.69</ele>
        <time>2018-04-10T09:07:03.999Z</time>
      </trkpt>
      <trkpt lat="46.21555" lon="2.91963">
        <ele>465.64</ele>
        <time>2018-04-10T09:07:05.999Z</time>
      </trkpt>
      <trkpt lat="46.21567" lon="2.91964">
        <ele>466.83</ele>
        <time>2018-04-10T09:07:07.999Z</time>
      </trkpt>
      <trkpt lat="46.21579" lon="2.91962">
        <ele>467.65</ele>
        <time>2018-04-10T09:07:09.999Z</time>
      </trkpt>
      <trkpt lat="46.2159" lon="2.91957">
        <ele>468.85</ele>
        <time>2018-04-10T09:07:11.999Z</time>
      </trkpt>
      <trkpt lat="46.21601" lon="2.91951">
        <ele>469.78</ele>
        <time>2018-04-10T09:07:13.999Z</time>
      </trkpt>
      <trkpt lat="46.21611" lon="2.91947">
        <ele>470.7</ele>
        <time>2018-04-10T09:07:15.999Z</time>
      </trkpt>
      <trkpt lat="46.21621" lon="2.91942">
        <ele>471.49</ele>
        <time>2018-04-10T09:07:17.999Z</time>
      </trkpt>
      <trkpt lat="46.21632" lon="2.91938">
        <ele>472.28</ele>
        <time>2018-04-10T09:07:19.999Z</time>
      </trkpt>
      <trkpt lat="46.21642" lon="2.91932">
        <ele>472.59</ele>
        <time>2018-04-10T09:07:21.999Z</time>
      </trkpt>
      <trkpt lat="46.21651" lon="2.91927">
        <ele>473.35</ele>
        <time>2018-04-10T09:07:23.999Z</time>
      </trkpt>
      <trkpt lat="46.21661" lon="2.91922">
        <ele>474.01</ele>
        <time>2018-04-10T09:07:25.999Z</time>
      </trkpt>
      <trkpt lat="46.21671" lon="2.91918">
        <ele>474.6</ele>
        <time>2018-04-10T09:07:27.999Z</time>
      </trkpt>
      <trkpt lat="46.21679" lon="2.91913">
        <ele>475.03</ele>
        <time>2018-04-10T09:07:29.999Z</time>
      </trkpt>
      <trkpt lat="46.21688" lon="2.91909">
        <ele>475.03</ele>
        <time>2018-04-10T09:07:31.999Z</time>
      </trkpt>
      <trkpt lat="46.21698" lon="2.91906">
        <ele>475.07</ele>
        <time>2018-04-10T09:07:33.999Z</time>
      </trkpt>
      <trkpt lat="46.21706" lon="2.91902">
        <ele>474.94</ele>
        <time>2018-04-10T09:07:35.999Z</time>
      </trkpt>
      <trkpt lat="46.21716" lon="2.91901">
        <ele>475.12</ele>
        <time>2018-04-10T09:07:37.999Z</time>
      </trkpt>
      <trkpt lat="46.21726" lon="2.91899">
        <ele>475.51</ele>
        <time>2018-04-10T09:07:39.999Z</time>
      </trkpt>
      <trkpt lat="46.21739" lon="2.91897">
        <ele>477.04</ele>
        <time>2018-04-10T09:07:42.999Z</time>
      </trkpt>
      <trkpt lat="46.21748" lon="2.91894">
        <ele>478.35</ele>
        <time>2018-04-10T09:07:44.999Z</time>
      </trkpt>
      <trkpt lat="46.21761" lon="2.91891">
        <ele>479.67</ele>
        <time>2018-04-10T09:07:47.999Z</time>
      </trkpt>
      <trkpt lat="46.21772" lon="2.91885">
        <ele>480.94</ele>
        <time>2018-04-10T09:07:50.999Z</time>
      </trkpt>
      <trkpt lat="46.21782" lon="2.91874">
        <ele>483.06</ele>
        <time>2018-04-10T09:07:53.999Z</time>
      </trkpt>
      <trkpt lat="46.2179" lon="2.91863">
        <ele>484.91</ele>
        <time>2018-04-10T09:07:56.999Z</time>
      </trkpt>
      <trkpt lat="46.21797" lon="2.9185">
        <ele>485.15</ele>
        <time>2018-04-10T09:08:00.999Z</time>
      </trkpt>
      <trkpt lat="46.21804" lon="2.91836">
        <ele>485.7</ele>
        <time>2018-04-10T09:08:04.999Z</time>
      </trkpt>
      <trkpt lat="46.21807" lon="2.91823">
        <ele>486.47</ele>
        <time>2018-04-10T09:08:07.999Z</time>
      </trkpt>
      <trkpt lat="46.21807" lon="2.91807">
        <ele>487.26</ele>
        <time>2018-04-10T09:08:10.999Z</time>
      </trkpt>
      <trkpt lat="46.21806" lon="2.91792">
        <ele>487.44</ele>
        <time>2018-04-10T09:08:13.999Z</time>
      </trkpt>
      <trkpt lat="46.21803" lon="2.91778">
        <ele>487.95</ele>
        <time>2018-04-10T09:08:16.999Z</time>
      </trkpt>
      <trkpt lat="46.21799" lon="2.91764">
        <ele>489.32</ele>
        <time>2018-04-10T09:08:19.999Z</time>
      </trkpt>
      <trkpt lat="46.21793" lon="2.91752">
        <ele>490.94</ele>
        <time>2018-04-10T09:08:22.999Z</time>
      </trkpt>
      <trkpt lat="46.21788" lon="2.91741">
        <ele>492.6</ele>
        <time>2018-04-10T09:08:25.999Z</time>
      </trkpt>
      <trkpt lat="46.21783" lon="2.91728">
        <ele>493.52</ele>
        <time>2018-04-10T09:08:28.999Z</time>
      </trkpt>
      <trkpt lat="46.21781" lon="2.91713">
        <ele>493.47</ele>
        <time>2018-04-10T09:08:31.999Z</time>
      </trkpt>
      <trkpt lat="46.21777" lon="2.91699">
        <ele>494.21</ele>
        <time>2018-04-10T09:08:34.999Z</time>
      </trkpt>
      <trkpt lat="46.21774" lon="2.91686">
        <ele>495.12</ele>
        <time>2018-04-10T09:08:37.999Z</time>
      </trkpt>
      <trkpt lat="46.2177" lon="2.91674">
        <ele>496.67</ele>
        <time>2018-04-10T09:08:40.999Z</time>
      </trkpt>
      <trkpt lat="46.21767" lon="2.91662">
        <ele>498.09</ele>
        <time>2018-04-10T09:08:43.999Z</time>
      </trkpt>
      <trkpt lat="46.21763" lon="2.91646">
        <ele>499.27</ele>
        <time>2018-04-10T09:08:47.999Z</time>
      </trkpt>
      <trkpt lat="46.21761" lon="2.91632">
        <ele>499.08</ele>
        <time>2018-04-10T09:08:50.999Z</time>
      </trkpt>
      <trkpt lat="46.21759" lon="2.91619">
        <ele>499.51</ele>
        <time>2018-04-10T09:08:53.999Z</time>
      </trkpt>
      <trkpt lat="46.21756" lon="2.91606">
        <ele>500.61</ele>
        <time>2018-04-10T09:08:56.999Z</time>
      </trkpt>
      <trkpt lat="46.21754" lon="2.9159">
        <ele>500.99</ele>
        <time>2018-04-10T09:08:59.999Z</time>
      </trkpt>
      <trkpt lat="46.21751" lon="2.91576">
        <ele>501.39</ele>
        <time>2018-04-10T09:09:02.999Z</time>
      </trkpt>
      <trkpt lat="46.21747" lon="2.91562">
        <ele>502.71</ele>
        <time>2018-04-10T09:09:05.999Z</time>
      </trkpt>
      <trkpt lat="46.21745" lon="2.91545">
        <ele>504.82</ele>
        <time>2018-04-10T09:09:09.999Z</time>
      </trkpt>
      <trkpt lat="46.21743" lon="2.91529">
        <ele>506.34</ele>
        <time>2018-04-10T09:09:13.999Z</time>
      </trkpt>
      <trkpt lat="46.21743" lon="2.91515">
        <ele>507.08</ele>
        <time>2018-04-10T09:09:16.999Z</time>
      </trkpt>
      <trkpt lat="46.21742" lon="2.91497">
        <ele>507.86</ele>
        <time>2018-04-10T09:09:20.999Z</time>
      </trkpt>
      <trkpt lat="46.21742" lon="2.91484">
        <ele>508.41</ele>
        <time>2018-04-10T09:09:23.999Z</time>
      </trkpt>
      <trkpt lat="46.21742" lon="2.91468">
        <ele>510.2</ele>
        <time>2018-04-10T09:09:27.999Z</time>
      </trkpt>
      <trkpt lat="46.21742" lon="2.91451">
        <ele>512.38</ele>
        <time>2018-04-10T09:09:31.999Z</time>
      </trkpt>
      <trkpt lat="46.21739" lon="2.91436">
        <ele>514.54</ele>
        <time>2018-04-10T09:09:36.999Z</time>
      </trkpt>
      <trkpt lat="46.21738" lon="2.91423">
        <ele>516.08</ele>
        <time>2018-04-10T09:09:40.999Z</time>
      </trkpt>
      <trkpt lat="46.21737" lon="2.9141">
        <ele>517.88</ele>
        <time>2018-04-10T09:09:44.999Z</time>
      </trkpt>
      <trkpt lat="46.21736" lon="2.91395">
        <ele>519.1</ele>
        <time>2018-04-10T09:09:48.999Z</time>
      </trkpt>
      <trkpt lat="46.21735" lon="2.91378">
        <ele>520.57</ele>
        <time>2018-04-10T09:09:52.999Z</time>
      </trkpt>
      <trkpt lat="46.21736" lon="2.91364">
        <ele>521.66</ele>
        <time>2018-04-10T09:09:55.999Z</time>
      </trkpt>
      <trkpt lat="46.21736" lon="2.9135">
        <ele>521.87</ele>
        <time>2018-04-10T09:09:58.999Z</time>
      </trkpt>
      <trkpt lat="46.21737" lon="2.91337">
        <ele>522.26</ele>
        <time>2018-04-10T09:10:01.999Z</time>
      </trkpt>
      <trkpt lat="46.21738" lon="2.91323">
        <ele>523.78</ele>
        <time>2018-04-10T09:10:04.999Z</time>
      </trkpt>
      <trkpt lat="46.21738" lon="2.91307">
        <ele>524.76</ele>
        <time>2018-04-10T09:10:08.999Z</time>
      </trkpt>
      <trkpt lat="46.21738" lon="2.91291">
        <ele>526.16</ele>
        <time>2018-04-10T09:10:12.999Z</time>
      </trkpt>
      <trkpt lat="46.21736" lon="2.91276">
        <ele>527.74</ele>
        <time>2018-04-10T09:10:16.999Z</time>
      </trkpt>
      <trkpt lat="46.21735" lon="2.9126">
        <ele>529.07</ele>
        <time>2018-04-10T09:10:20.999Z</time>
      </trkpt>
      <trkpt lat="46.21735" lon="2.91246">
        <ele>529.6</ele>
        <time>2018-04-10T09:10:23.999Z</time>
      </trkpt>
      <trkpt lat="46.21734" lon="2.9123">
        <ele>529.75</ele>
        <time>2018-04-10T09:10:26.999Z</time>
      </trkpt>
      <trkpt lat="46.21733" lon="2.91215">
        <ele>530.45</ele>
        <time>2018-04-10T09:10:29.999Z</time>
      </trkpt>
      <trkpt lat="46.21733" lon="2.91198">
        <ele>531.27</ele>
        <time>2018-04-10T09:10:32.999Z</time>
      </trkpt>
      <trkpt lat="46.21732" lon="2.91185">
        <ele>532.84</ele>
        <time>2018-04-10T09:10:35.999Z</time>
      </trkpt>
      <trkpt lat="46.2173" lon="2.91172">
        <ele>534.22</ele>
        <time>2018-04-10T09:10:38.999Z</time>
      </trkpt>
      <trkpt lat="46.21727" lon="2.91158">
        <ele>535.66</ele>
        <time>2018-04-10T09:10:41.999Z</time>
      </trkpt>
      <trkpt lat="46.21722" lon="2.91145">
        <ele>536.56</ele>
        <time>2018-04-10T09:10:44.999Z</time>
      </trkpt>
      <trkpt lat="46.21714" lon="2.91133">
        <ele>537.24</ele>
        <time>2018-04-10T09:10:47.999Z</time>
      </trkpt>
      <trkpt lat="46.21708" lon="2.91121">
        <ele>537.92</ele>
        <time>2018-04-10T09:10:50.999Z</time>
      </trkpt>
      <trkpt lat="46.21702" lon="2.91109">
        <ele>537.81</ele>
        <time>2018-04-10T09:10:53.999Z</time>
      </trkpt>
      <trkpt lat="46.21694" lon="2.91097">
        <ele>537.99</ele>
        <time>2018-04-10T09:10:57.999Z</time>
      </trkpt>
      <trkpt lat="46.21688" lon="2.91086">
        <ele>537.97</ele>
        <time>2018-04-10T09:11:00.999Z</time>
      </trkpt>
      <trkpt lat="46.21679" lon="2.91074">
        <ele>538.31</ele>
        <time>2018-04-10T09:11:03.999Z</time>
      </trkpt>
      <trkpt lat="46.21671" lon="2.91062">
        <ele>538.92</ele>
        <time>2018-04-10T09:11:06.999Z</time>
      </trkpt>
      <trkpt lat="46.21664" lon="2.9105">
        <ele>539.22</ele>
        <time>2018-04-10T09:11:09.999Z</time>
      </trkpt>
      <trkpt lat="46.21656" lon="2.91039">
        <ele>539.05</ele>
        <time>2018-04-10T09:11:12.999Z</time>
      </trkpt>
      <trkpt lat="46.2165" lon="2.91027">
        <ele>538.91</ele>
        <time>2018-04-10T09:11:15.999Z</time>
      </trkpt>
      <trkpt lat="46.21644" lon="2.91014">
        <ele>538.56</ele>
        <time>2018-04-10T09:11:18.999Z</time>
      </trkpt>
      <trkpt lat="46.2164" lon="2.91001">
        <ele>538.53</ele>
        <time>2018-04-10T09:11:21.999Z</time>
      </trkpt>
      <trkpt lat="46.21637" lon="2.90985">
        <ele>538.52</ele>
        <time>2018-04-10T09:11:24.999Z</time>
      </trkpt>
      <trkpt lat="46.21634" lon="2.9097">
        <ele>538.3</ele>
        <time>2018-04-10T09:11:27.999Z</time>
      </trkpt>
      <trkpt lat="46.21632" lon="2.90955">
        <ele>537.77</ele>
        <time>2018-04-10T09:11:30.999Z</time>
      </trkpt>
      <trkpt lat="46.2163" lon="2.90939">
        <ele>537.09</ele>
        <time>2018-04-10T09:11:33.999Z</time>
      </trkpt>
      <trkpt lat="46.21629" lon="2.90925">
        <ele>536.81</ele>
        <time>2018-04-10T09:11:36.999Z</time>
      </trkpt>
      <trkpt lat="46.21629" lon="2.9091">
        <ele>536.79</ele>
        <time>2018-04-10T09:11:39.999Z</time>
      </trkpt>
      <trkpt lat="46.21631" lon="2.90897">
        <ele>536.76</ele>
        <time>2018-04-10T09:11:42.999Z</time>
      </trkpt>
      <trkpt lat="46.21635" lon="2.90882">
        <ele>536.88</ele>
        <time>2018-04-10T09:11:45.999Z</time>
      </trkpt>
      <trkpt lat="46.21638" lon="2.90868">
        <ele>536.61</ele>
        <time>2018-04-10T09:11:48.999Z</time>
      </trkpt>
      <trkpt lat="46.21643" lon="2.90855">
        <ele>536.66</ele>
        <time>2018-04-10T09:11:51.999Z</time>
      </trkpt>
      <trkpt lat="46.21648" lon="2.90842">
        <ele>537.37</ele>
        <time>2018-04-10T09:11:54.999Z</time>
      </trkpt>
      <trkpt lat="46.21652" lon="2.90829">
        <ele>537.87</ele>
        <time>2018-04-10T09:11:57.999Z</time>
      </trkpt>
      <trkpt lat="46.21656" lon="2.90816">
        <ele>538.22</ele>
        <time>2018-04-10T09:12:00.999Z</time>
      </trkpt>
      <trkpt lat="46.2166" lon="2.90803">
        <ele>539</ele>
        <time>2018-04-10T09:12:03.999Z</time>
      </trkpt>
      <trkpt lat="46.21665" lon="2.90791">
        <ele>539.62</ele>
        <time>2018-04-10T09:12:06.999Z</time>
      </trkpt>
      <trkpt lat="46.2167" lon="2.90777">
        <ele>539.72</ele>
        <time>2018-04-10T09:12:09.999Z</time>
      </trkpt>
      <trkpt lat="46.21675" lon="2.90764">
        <ele>539.8</ele>
        <time>2018-04-10T09:12:12.999Z</time>
      </trkpt>
      <trkpt lat="46.2168" lon="2.90751">
        <ele>540.29</ele>
        <time>2018-04-10T09:12:15.999Z</time>
      </trkpt>
      <trkpt lat="46.21685" lon="2.90738">
        <ele>541.19</ele>
        <time>2018-04-10T09:12:18.999Z</time>
      </trkpt>
      <trkpt lat="46.2169" lon="2.90725">
        <ele>541.71</ele>
        <time>2018-04-10T09:12:21.999Z</time>
      </trkpt>
      <trkpt lat="46.21695" lon="2.90713">
        <ele>542.55</ele>
        <time>2018-04-10T09:12:24.999Z</time>
      </trkpt>
      <trkpt lat="46.21701" lon="2.907">
        <ele>543.92</ele>
        <time>2018-04-10T09:12:27.999Z</time>
      </trkpt>
      <trkpt lat="46.21706" lon="2.90688">
        <ele>545.23</ele>
        <time>2018-04-10T09:12:30.999Z</time>
      </trkpt>
      <trkpt lat="46.21711" lon="2.90675">
        <ele>545.82</ele>
        <time>2018-04-10T09:12:33.999Z</time>
      </trkpt>
      <trkpt lat="46.21716" lon="2.90663">
        <ele>546.31</ele>
        <time>2018-04-10T09:12:36.999Z</time>
      </trkpt>
      <trkpt lat="46.2172" lon="2.90651">
        <ele>546.85</ele>
        <time>2018-04-10T09:12:39.999Z</time>
      </trkpt>
      <trkpt lat="46.21724" lon="2.9064">
        <ele>546.91</ele>
        <time>2018-04-10T09:12:43.999Z</time>
      </trkpt>
      <trkpt lat="46.21728" lon="2.90625">
        <ele>548.81</ele>
        <time>2018-04-10T09:14:55.999Z</time>
      </trkpt>
      <trkpt lat="46.21734" lon="2.90611">
        <ele>548.45</ele>
        <time>2018-04-10T09:14:59.999Z</time>
      </trkpt>
      <trkpt lat="46.21739" lon="2.90597">
        <ele>548.6</ele>
        <time>2018-04-10T09:15:02.999Z</time>
      </trkpt>
      <trkpt lat="46.21745" lon="2.90582">
        <ele>548.75</ele>
        <time>2018-04-10T09:15:05.999Z</time>
      </trkpt>
      <trkpt lat="46.2175" lon="2.90569">
        <ele>548.45</ele>
        <time>2018-04-10T09:15:07.999Z</time>
      </trkpt>
      <trkpt lat="46.21755" lon="2.90557">
        <ele>548.17</ele>
        <time>2018-04-10T09:15:09.999Z</time>
      </trkpt>
      <trkpt lat="46.21761" lon="2.90543">
        <ele>547.9</ele>
        <time>2018-04-10T09:15:11.999Z</time>
      </trkpt>
      <trkpt lat="46.21767" lon="2.90528">
        <ele>547.35</ele>
        <time>2018-04-10T09:15:13.999Z</time>
      </trkpt>
      <trkpt lat="46.21772" lon="2.90512">
        <ele>546.88</ele>
        <time>2018-04-10T09:15:15.999Z</time>
      </trkpt>
      <trkpt lat="46.21779" lon="2.90494">
        <ele>546.36</ele>
        <time>2018-04-10T09:15:17.999Z</time>
      </trkpt>
      <trkpt lat="46.21784" lon="2.90475">
        <ele>546.36</ele>
        <time>2018-04-10T09:15:19.999Z</time>
      </trkpt>
      <trkpt lat="46.21792" lon="2.90454">
        <ele>545.98</ele>
        <time>2018-04-10T09:15:21.999Z</time>
      </trkpt>
      <trkpt lat="46.21799" lon="2.90433">
        <ele>545.76</ele>
        <time>2018-04-10T09:15:23.999Z</time>
      </trkpt>
      <trkpt lat="46.21808" lon="2.90411">
        <ele>545.11</ele>
        <time>2018-04-10T09:15:25.999Z</time>
      </trkpt>
      <trkpt lat="46.21816" lon="2.90388">
        <ele>544.08</ele>
        <time>2018-04-10T09:15:27.999Z</time>
      </trkpt>
      <trkpt lat="46.21821" lon="2.90377">
        <ele>543.66</ele>
        <time>2018-04-10T09:15:28.999Z</time>
      </trkpt>
      <trkpt lat="46.21825" lon="2.90365">
        <ele>543.12</ele>
        <time>2018-04-10T09:15:29.999Z</time>
      </trkpt>
      <trkpt lat="46.2183" lon="2.90352">
        <ele>542.86</ele>
        <time>2018-04-10T09:15:30.999Z</time>
      </trkpt>
      <trkpt lat="46.21835" lon="2.90339">
        <ele>542.32</ele>
        <time>2018-04-10T09:15:31.999Z</time>
      </trkpt>
      <trkpt lat="46.2184" lon="2.90326">
        <ele>541.75</ele>
        <time>2018-04-10T09:15:32.999Z</time>
      </trkpt>
      <trkpt lat="46.21845" lon="2.90313">
        <ele>541.31</ele>
        <time>2018-04-10T09:15:33.999Z</time>
      </trkpt>
      <trkpt lat="46.21849" lon="2.903">
        <ele>540.79</ele>
        <time>2018-04-10T09:15:34.999Z</time>
      </trkpt>
      <trkpt lat="46.21853" lon="2.90288">
        <ele>540.42</ele>
        <time>2018-04-10T09:15:35.999Z</time>
      </trkpt>
      <trkpt lat="46.21857" lon="2.90275">
        <ele>540.17</ele>
        <time>2018-04-10T09:15:36.999Z</time>
      </trkpt>
      <trkpt lat="46.2186" lon="2.90263">
        <ele>539.76</ele>
        <time>2018-04-10T09:15:37.999Z</time>
      </trkpt>
      <trkpt lat="46.21865" lon="2.90239">
        <ele>539.01</ele>
        <time>2018-04-10T09:15:39.999Z</time>
      </trkpt>
      <trkpt lat="46.21869" lon="2.90217">
        <ele>538.2</ele>
        <time>2018-04-10T09:15:41.999Z</time>
      </trkpt>
      <trkpt lat="46.21872" lon="2.90196">
        <ele>537.19</ele>
        <time>2018-04-10T09:15:43.999Z</time>
      </trkpt>
      <trkpt lat="46.21876" lon="2.90177">
        <ele>536.13</ele>
        <time>2018-04-10T09:15:45.999Z</time>
      </trkpt>
      <trkpt lat="46.2188" lon="2.90158">
        <ele>535.34</ele>
        <time>2018-04-10T09:15:47.999Z</time>
      </trkpt>
      <trkpt lat="46.21883" lon="2.90139">
        <ele>534.74</ele>
        <time>2018-04-10T09:15:49.999Z</time>
      </trkpt>
      <trkpt lat="46.21885" lon="2.90119">
        <ele>534.56</ele>
        <time>2018-04-10T09:15:51.999Z</time>
      </trkpt>
      <trkpt lat="46.21888" lon="2.901">
        <ele>534.4</ele>
        <time>2018-04-10T09:15:53.999Z</time>
      </trkpt>
      <trkpt lat="46.21891" lon="2.90079">
        <ele>534.1</ele>
        <time>2018-04-10T09:15:55.999Z</time>
      </trkpt>
      <trkpt lat="46.21895" lon="2.90059">
        <ele>533.54</ele>
        <time>2018-04-10T09:15:57.999Z</time>
      </trkpt>
      <trkpt lat="46.21898" lon="2.90038">
        <ele>533.15</ele>
        <time>2018-04-10T09:15:59.999Z</time>
      </trkpt>
      <trkpt lat="46.21901" lon="2.90018">
        <ele>532.6</ele>
        <time>2018-04-10T09:16:01.999Z</time>
      </trkpt>
      <trkpt lat="46.21904" lon="2.89997">
        <ele>531.88</ele>
        <time>2018-04-10T09:16:03.999Z</time>
      </trkpt>
      <trkpt lat="46.21907" lon="2.89976">
        <ele>531.16</ele>
        <time>2018-04-10T09:16:05.999Z</time>
      </trkpt>
      <trkpt lat="46.21909" lon="2.89955">
        <ele>530.42</ele>
        <time>2018-04-10T09:16:07.999Z</time>
      </trkpt>
      <trkpt lat="46.21913" lon="2.89935">
        <ele>529.99</ele>
        <time>2018-04-10T09:16:09.999Z</time>
      </trkpt>
      <trkpt lat="46.21915" lon="2.89915">
        <ele>529.68</ele>
        <time>2018-04-10T09:16:11.999Z</time>
      </trkpt>
      <trkpt lat="46.21919" lon="2.89897">
        <ele>529.58</ele>
        <time>2018-04-10T09:16:13.999Z</time>
      </trkpt>
      <trkpt lat="46.21922" lon="2.89878">
        <ele>529.62</ele>
        <time>2018-04-10T09:16:15.999Z</time>
      </trkpt>
      <trkpt lat="46.21924" lon="2.89861">
        <ele>529.79</ele>
        <time>2018-04-10T09:16:17.999Z</time>
      </trkpt>
      <trkpt lat="46.21926" lon="2.89845">
        <ele>529.93</ele>
        <time>2018-04-10T09:16:19.999Z</time>
      </trkpt>
      <trkpt lat="46.21928" lon="2.8983">
        <ele>529.97</ele>
        <time>2018-04-10T09:16:21.999Z</time>
      </trkpt>
      <trkpt lat="46.21931" lon="2.89814">
        <ele>530.19</ele>
        <time>2018-04-10T09:16:23.999Z</time>
      </trkpt>
      <trkpt lat="46.21933" lon="2.89799">
        <ele>530.63</ele>
        <time>2018-04-10T09:16:25.999Z</time>
      </trkpt>
      <trkpt lat="46.21935" lon="2.89783">
        <ele>530.71</ele>
        <time>2018-04-10T09:16:27.999Z</time>
      </trkpt>
      <trkpt lat="46.21937" lon="2.89767">
        <ele>530.7</ele>
        <time>2018-04-10T09:16:29.999Z</time>
      </trkpt>
      <trkpt lat="46.21939" lon="2.89752">
        <ele>530.5</ele>
        <time>2018-04-10T09:16:31.999Z</time>
      </trkpt>
      <trkpt lat="46.21941" lon="2.89737">
        <ele>530.34</ele>
        <time>2018-04-10T09:16:33.999Z</time>
      </trkpt>
      <trkpt lat="46.21944" lon="2.89721">
        <ele>529.96</ele>
        <time>2018-04-10T09:16:35.999Z</time>
      </trkpt>
      <trkpt lat="46.21947" lon="2.89706">
        <ele>530.05</ele>
        <time>2018-04-10T09:16:37.999Z</time>
      </trkpt>
      <trkpt lat="46.2195" lon="2.89691">
        <ele>530.12</ele>
        <time>2018-04-10T09:16:39.999Z</time>
      </trkpt>
      <trkpt lat="46.21954" lon="2.89675">
        <ele>530.12</ele>
        <time>2018-04-10T09:16:41.999Z</time>
      </trkpt>
      <trkpt lat="46.21959" lon="2.89661">
        <ele>530.2</ele>
        <time>2018-04-10T09:16:43.999Z</time>
      </trkpt>
      <trkpt lat="46.21967" lon="2.89646">
        <ele>530.8</ele>
        <time>2018-04-10T09:16:45.999Z</time>
      </trkpt>
      <trkpt lat="46.21975" lon="2.89631">
        <ele>531.08</ele>
        <time>2018-04-10T09:16:47.999Z</time>
      </trkpt>
      <trkpt lat="46.21983" lon="2.89615">
        <ele>531.65</ele>
        <time>2018-04-10T09:16:49.999Z</time>
      </trkpt>
      <trkpt lat="46.21992" lon="2.896">
        <ele>531.89</ele>
        <time>2018-04-10T09:16:51.999Z</time>
      </trkpt>
      <trkpt lat="46.22001" lon="2.89584">
        <ele>531.96</ele>
        <time>2018-04-10T09:16:53.999Z</time>
      </trkpt>
      <trkpt lat="46.22011" lon="2.89567">
        <ele>532.02</ele>
        <time>2018-04-10T09:16:55.999Z</time>
      </trkpt>
      <trkpt lat="46.2202" lon="2.8955">
        <ele>532.02</ele>
        <time>2018-04-10T09:16:57.999Z</time>
      </trkpt>
      <trkpt lat="46.22029" lon="2.89534">
        <ele>532.23</ele>
        <time>2018-04-10T09:16:59.999Z</time>
      </trkpt>
      <trkpt lat="46.22039" lon="2.89518">
        <ele>532.44</ele>
        <time>2018-04-10T09:17:01.999Z</time>
      </trkpt>
      <trkpt lat="46.22048" lon="2.89501">
        <ele>532.73</ele>
        <time>2018-04-10T09:17:03.999Z</time>
      </trkpt>
      <trkpt lat="46.22057" lon="2.89486">
        <ele>533.11</ele>
        <time>2018-04-10T09:17:05.999Z</time>
      </trkpt>
      <trkpt lat="46.22066" lon="2.89471">
        <ele>533.6</ele>
        <time>2018-04-10T09:17:07.999Z</time>
      </trkpt>
      <trkpt lat="46.22074" lon="2.89456">
        <ele>533.91</ele>
        <time>2018-04-10T09:17:09.999Z</time>
      </trkpt>
      <trkpt lat="46.22083" lon="2.89443">
        <ele>534.54</ele>
        <time>2018-04-10T09:17:11.999Z</time>
      </trkpt>
      <trkpt lat="46.22091" lon="2.8943">
        <ele>534.81</ele>
        <time>2018-04-10T09:17:13.999Z</time>
      </trkpt>
      <trkpt lat="46.22099" lon="2.89418">
        <ele>535.05</ele>
        <time>2018-04-10T09:17:15.999Z</time>
      </trkpt>
      <trkpt lat="46.22106" lon="2.89406">
        <ele>535.47</ele>
        <time>2018-04-10T09:17:17.999Z</time>
      </trkpt>
      <trkpt lat="46.22113" lon="2.89395">
        <ele>535.97</ele>
        <time>2018-04-10T09:17:19.999Z</time>
      </trkpt>
      <trkpt lat="46.2212" lon="2.89383">
        <ele>536.13</ele>
        <time>2018-04-10T09:17:21.999Z</time>
      </trkpt>
      <trkpt lat="46.22128" lon="2.89371">
        <ele>536.39</ele>
        <time>2018-04-10T09:17:23.999Z</time>
      </trkpt>
      <trkpt lat="46.22135" lon="2.8936">
        <ele>536.78</ele>
        <time>2018-04-10T09:17:25.999Z</time>
      </trkpt>
      <trkpt lat="46.22142" lon="2.89348">
        <ele>537.14</ele>
        <time>2018-04-10T09:17:27.999Z</time>
      </trkpt>
      <trkpt lat="46.22149" lon="2.89337">
        <ele>537.58</ele>
        <time>2018-04-10T09:17:29.999Z</time>
      </trkpt>
      <trkpt lat="46.22156" lon="2.89327">
        <ele>538.39</ele>
        <time>2018-04-10T09:17:31.999Z</time>
      </trkpt>
      <trkpt lat="46.22163" lon="2.89316">
        <ele>539.09</ele>
        <time>2018-04-10T09:17:33.999Z</time>
      </trkpt>
      <trkpt lat="46.22171" lon="2.89304">
        <ele>539.45</ele>
        <time>2018-04-10T09:17:35.999Z</time>
      </trkpt>
      <trkpt lat="46.22178" lon="2.89291">
        <ele>540.04</ele>
        <time>2018-04-10T09:17:37.999Z</time>
      </trkpt>
      <trkpt lat="46.22185" lon="2.89279">
        <ele>540.54</ele>
        <time>2018-04-10T09:17:39.999Z</time>
      </trkpt>
      <trkpt lat="46.22192" lon="2.89268">
        <ele>541</ele>
        <time>2018-04-10T09:17:41.999Z</time>
      </trkpt>
      <trkpt lat="46.222" lon="2.89256">
        <ele>541.17</ele>
        <time>2018-04-10T09:17:43.999Z</time>
      </trkpt>
      <trkpt lat="46.22207" lon="2.89245">
        <ele>541.53</ele>
        <time>2018-04-10T09:17:45.999Z</time>
      </trkpt>
      <trkpt lat="46.22214" lon="2.89234">
        <ele>541.77</ele>
        <time>2018-04-10T09:17:47.999Z</time>
      </trkpt>
      <trkpt lat="46.22221" lon="2.89222">
        <ele>541.98</ele>
        <time>2018-04-10T09:17:49.999Z</time>
      </trkpt>
      <trkpt lat="46.22227" lon="2.89209">
        <ele>542.03</ele>
        <time>2018-04-10T09:17:51.999Z</time>
      </trkpt>
      <trkpt lat="46.22233" lon="2.89196">
        <ele>542</ele>
        <time>2018-04-10T09:17:53.999Z</time>
      </trkpt>
      <trkpt lat="46.22238" lon="2.89182">
        <ele>542.17</ele>
        <time>2018-04-10T09:17:55.999Z</time>
      </trkpt>
      <trkpt lat="46.22242" lon="2.89168">
        <ele>542.4</ele>
        <time>2018-04-10T09:17:57.999Z</time>
      </trkpt>
      <trkpt lat="46.22246" lon="2.89153">
        <ele>542.29</ele>
        <time>2018-04-10T09:17:59.999Z</time>
      </trkpt>
      <trkpt lat="46.22248" lon="2.89138">
        <ele>542.48</ele>
        <time>2018-04-10T09:18:01.999Z</time>
      </trkpt>
      <trkpt lat="46.2225" lon="2.89123">
        <ele>542.49</ele>
        <time>2018-04-10T09:18:03.999Z</time>
      </trkpt>
      <trkpt lat="46.22254" lon="2.89107">
        <ele>542.23</ele>
        <time>2018-04-10T09:18:05.999Z</time>
      </trkpt>
      <trkpt lat="46.22257" lon="2.8909">
        <ele>541.97</ele>
        <time>2018-04-10T09:18:07.999Z</time>
      </trkpt>
      <trkpt lat="46.22261" lon="2.89071">
        <ele>542.27</ele>
        <time>2018-04-10T09:18:09.999Z</time>
      </trkpt>
      <trkpt lat="46.22265" lon="2.89053">
        <ele>542.73</ele>
        <time>2018-04-10T09:18:11.999Z</time>
      </trkpt>
      <trkpt lat="46.22268" lon="2.89035">
        <ele>543.25</ele>
        <time>2018-04-10T09:18:13.999Z</time>
      </trkpt>
      <trkpt lat="46.2227" lon="2.89018">
        <ele>543.66</ele>
        <time>2018-04-10T09:18:15.999Z</time>
      </trkpt>
      <trkpt lat="46.22273" lon="2.89">
        <ele>544.19</ele>
        <time>2018-04-10T09:18:17.999Z</time>
      </trkpt>
      <trkpt lat="46.22276" lon="2.88981">
        <ele>544.6</ele>
        <time>2018-04-10T09:18:19.999Z</time>
      </trkpt>
      <trkpt lat="46.22279" lon="2.88962">
        <ele>544.71</ele>
        <time>2018-04-10T09:18:21.999Z</time>
      </trkpt>
      <trkpt lat="46.22282" lon="2.88943">
        <ele>544.72</ele>
        <time>2018-04-10T09:18:23.999Z</time>
      </trkpt>
      <trkpt lat="46.22286" lon="2.88922">
        <ele>544.96</ele>
        <time>2018-04-10T09:18:25.999Z</time>
      </trkpt>
      <trkpt lat="46.22289" lon="2.889">
        <ele>545.18</ele>
        <time>2018-04-10T09:18:27.999Z</time>
      </trkpt>
      <trkpt lat="46.22292" lon="2.88878">
        <ele>545.14</ele>
        <time>2018-04-10T09:18:29.999Z</time>
      </trkpt>
      <trkpt lat="46.22296" lon="2.88855">
        <ele>545.24</ele>
        <time>2018-04-10T09:18:31.999Z</time>
      </trkpt>
      <trkpt lat="46.223" lon="2.88831">
        <ele>545.45</ele>
        <time>2018-04-10T09:18:33.999Z</time>
      </trkpt>
      <trkpt lat="46.22303" lon="2.88808">
        <ele>545.54</ele>
        <time>2018-04-10T09:18:35.999Z</time>
      </trkpt>
      <trkpt lat="46.22308" lon="2.88785">
        <ele>546.37</ele>
        <time>2018-04-10T09:18:37.999Z</time>
      </trkpt>
      <trkpt lat="46.22314" lon="2.88763">
        <ele>546.89</ele>
        <time>2018-04-10T09:18:39.999Z</time>
      </trkpt>
      <trkpt lat="46.22321" lon="2.88741">
        <ele>546.91</ele>
        <time>2018-04-10T09:18:41.999Z</time>
      </trkpt>
      <trkpt lat="46.22327" lon="2.8872">
        <ele>546.74</ele>
        <time>2018-04-10T09:18:43.999Z</time>
      </trkpt>
      <trkpt lat="46.22334" lon="2.88699">
        <ele>546.68</ele>
        <time>2018-04-10T09:18:45.998Z</time>
      </trkpt>
      <trkpt lat="46.2234" lon="2.88677">
        <ele>546.71</ele>
        <time>2018-04-10T09:18:47.999Z</time>
      </trkpt>
      <trkpt lat="46.22347" lon="2.88656">
        <ele>545.95</ele>
        <time>2018-04-10T09:18:49.999Z</time>
      </trkpt>
      <trkpt lat="46.22354" lon="2.88636">
        <ele>545.51</ele>
        <time>2018-04-10T09:18:51.999Z</time>
      </trkpt>
      <trkpt lat="46.22361" lon="2.88615">
        <ele>545.13</ele>
        <time>2018-04-10T09:18:53.999Z</time>
      </trkpt>
      <trkpt lat="46.22367" lon="2.88594">
        <ele>544.67</ele>
        <time>2018-04-10T09:18:55.999Z</time>
      </trkpt>
      <trkpt lat="46.22373" lon="2.88572">
        <ele>544.08</ele>
        <time>2018-04-10T09:18:57.999Z</time>
      </trkpt>
      <trkpt lat="46.22379" lon="2.88549">
        <ele>543.58</ele>
        <time>2018-04-10T09:18:59.999Z</time>
      </trkpt>
      <trkpt lat="46.22384" lon="2.88527">
        <ele>543.07</ele>
        <time>2018-04-10T09:19:01.999Z</time>
      </trkpt>
      <trkpt lat="46.22389" lon="2.88504">
        <ele>542.49</ele>
        <time>2018-04-10T09:19:03.999Z</time>
      </trkpt>
      <trkpt lat="46.22394" lon="2.88482">
        <ele>541.72</ele>
        <time>2018-04-10T09:19:05.999Z</time>
      </trkpt>
      <trkpt lat="46.22398" lon="2.8846">
        <ele>541.33</ele>
        <time>2018-04-10T09:19:07.999Z</time>
      </trkpt>
      <trkpt lat="46.22402" lon="2.88438">
        <ele>540.84</ele>
        <time>2018-04-10T09:19:09.999Z</time>
      </trkpt>
      <trkpt lat="46.22405" lon="2.88415">
        <ele>540.22</ele>
        <time>2018-04-10T09:19:11.999Z</time>
      </trkpt>
      <trkpt lat="46.22408" lon="2.88392">
        <ele>539.72</ele>
        <time>2018-04-10T09:19:13.999Z</time>
      </trkpt>
      <trkpt lat="46.22411" lon="2.8837">
        <ele>539.33</ele>
        <time>2018-04-10T09:19:15.999Z</time>
      </trkpt>
      <trkpt lat="46.22413" lon="2.88348">
        <ele>538.96</ele>
        <time>2018-04-10T09:19:17.999Z</time>
      </trkpt>
      <trkpt lat="46.22415" lon="2.88327">
        <ele>538.89</ele>
        <time>2018-04-10T09:19:19.999Z</time>
      </trkpt>
      <trkpt lat="46.22418" lon="2.88304">
        <ele>538.8</ele>
        <time>2018-04-10T09:19:21.999Z</time>
      </trkpt>
      <trkpt lat="46.22421" lon="2.88282">
        <ele>538.65</ele>
        <time>2018-04-10T09:19:23.999Z</time>
      </trkpt>
      <trkpt lat="46.22424" lon="2.8826">
        <ele>538.34</ele>
        <time>2018-04-10T09:19:25.999Z</time>
      </trkpt>
      <trkpt lat="46.22426" lon="2.88238">
        <ele>538.31</ele>
        <time>2018-04-10T09:19:27.999Z</time>
      </trkpt>
      <trkpt lat="46.22429" lon="2.88215">
        <ele>538.34</ele>
        <time>2018-04-10T09:19:29.999Z</time>
      </trkpt>
      <trkpt lat="46.22432" lon="2.88194">
        <ele>538.22</ele>
        <time>2018-04-10T09:19:31.999Z</time>
      </trkpt>
      <trkpt lat="46.22435" lon="2.88172">
        <ele>538.44</ele>
        <time>2018-04-10T09:19:33.999Z</time>
      </trkpt>
      <trkpt lat="46.22438" lon="2.8815">
        <ele>538.63</ele>
        <time>2018-04-10T09:19:35.999Z</time>
      </trkpt>
      <trkpt lat="46.22441" lon="2.88128">
        <ele>538.55</ele>
        <time>2018-04-10T09:19:37.999Z</time>
      </trkpt>
      <trkpt lat="46.22443" lon="2.88106">
        <ele>538.5</ele>
        <time>2018-04-10T09:19:39.999Z</time>
      </trkpt>
      <trkpt lat="46.22446" lon="2.88083">
        <ele>538.46</ele>
        <time>2018-04-10T09:19:41.999Z</time>
      </trkpt>
      <trkpt lat="46.2245" lon="2.88061">
        <ele>538.48</ele>
        <time>2018-04-10T09:19:43.999Z</time>
      </trkpt>
      <trkpt lat="46.22453" lon="2.88039">
        <ele>538.42</ele>
        <time>2018-04-10T09:19:45.999Z</time>
      </trkpt>
      <trkpt lat="46.22455" lon="2.88017">
        <ele>538.46</ele>
        <time>2018-04-10T09:19:47.999Z</time>
      </trkpt>
      <trkpt lat="46.22458" lon="2.87995">
        <ele>538.51</ele>
        <time>2018-04-10T09:19:49.999Z</time>
      </trkpt>
      <trkpt lat="46.2246" lon="2.87973">
        <ele>538.3</ele>
        <time>2018-04-10T09:19:51.999Z</time>
      </trkpt>
      <trkpt lat="46.22463" lon="2.87951">
        <ele>537.89</ele>
        <time>2018-04-10T09:19:53.999Z</time>
      </trkpt>
      <trkpt lat="46.22465" lon="2.8793">
        <ele>537.7</ele>
        <time>2018-04-10T09:19:55.999Z</time>
      </trkpt>
      <trkpt lat="46.22467" lon="2.87909">
        <ele>537.92</ele>
        <time>2018-04-10T09:19:57.999Z</time>
      </trkpt>
      <trkpt lat="46.22469" lon="2.8789">
        <ele>538.59</ele>
        <time>2018-04-10T09:19:59.999Z</time>
      </trkpt>
      <trkpt lat="46.22472" lon="2.87872">
        <ele>538.62</ele>
        <time>2018-04-10T09:20:01.999Z</time>
      </trkpt>
      <trkpt lat="46.22475" lon="2.87855">
        <ele>538.71</ele>
        <time>2018-04-10T09:20:03.999Z</time>
      </trkpt>
      <trkpt lat="46.22476" lon="2.87842">
        <ele>539.4</ele>
        <time>2018-04-10T09:20:05.999Z</time>
      </trkpt>
      <trkpt lat="46.22478" lon="2.87823">
        <ele>540.96</ele>
        <time>2018-04-10T09:20:08.999Z</time>
      </trkpt>
      <trkpt lat="46.22484" lon="2.87808">
        <ele>542.06</ele>
        <time>2018-04-10T09:20:11.999Z</time>
      </trkpt>
      <trkpt lat="46.22492" lon="2.87793">
        <ele>542.43</ele>
        <time>2018-04-10T09:20:14.999Z</time>
      </trkpt>
      <trkpt lat="46.22491" lon="2.87774">
        <ele>543.27</ele>
        <time>2018-04-10T09:20:17.999Z</time>
      </trkpt>
      <trkpt lat="46.22487" lon="2.87758">
        <ele>544.07</ele>
        <time>2018-04-10T09:20:20.999Z</time>
      </trkpt>
      <trkpt lat="46.22487" lon="2.8774">
        <ele>545.14</ele>
        <time>2018-04-10T09:20:23.999Z</time>
      </trkpt>
      <trkpt lat="46.22489" lon="2.87723">
        <ele>546.54</ele>
        <time>2018-04-10T09:20:26.999Z</time>
      </trkpt>
      <trkpt lat="46.22491" lon="2.87706">
        <ele>547.82</ele>
        <time>2018-04-10T09:20:29.999Z</time>
      </trkpt>
      <trkpt lat="46.22492" lon="2.87691">
        <ele>548.88</ele>
        <time>2018-04-10T09:20:32.999Z</time>
      </trkpt>
      <trkpt lat="46.22495" lon="2.87675">
        <ele>549.8</ele>
        <time>2018-04-10T09:20:35.999Z</time>
      </trkpt>
      <trkpt lat="46.22498" lon="2.8766">
        <ele>550.95</ele>
        <time>2018-04-10T09:20:38.999Z</time>
      </trkpt>
      <trkpt lat="46.225" lon="2.87645">
        <ele>552.16</ele>
        <time>2018-04-10T09:20:41.999Z</time>
      </trkpt>
      <trkpt lat="46.22501" lon="2.8763">
        <ele>553.23</ele>
        <time>2018-04-10T09:20:44.999Z</time>
      </trkpt>
      <trkpt lat="46.22503" lon="2.87614">
        <ele>554.43</ele>
        <time>2018-04-10T09:20:47.999Z</time>
      </trkpt>
      <trkpt lat="46.22505" lon="2.87598">
        <ele>555.47</ele>
        <time>2018-04-10T09:20:50.999Z</time>
      </trkpt>
      <trkpt lat="46.22506" lon="2.87583">
        <ele>556.96</ele>
        <time>2018-04-10T09:20:53.999Z</time>
      </trkpt>
      <trkpt lat="46.22507" lon="2.87568">
        <ele>557.66</ele>
        <time>2018-04-10T09:20:56.999Z</time>
      </trkpt>
      <trkpt lat="46.22508" lon="2.87553">
        <ele>558.81</ele>
        <time>2018-04-10T09:20:59.999Z</time>
      </trkpt>
      <trkpt lat="46.22511" lon="2.87536">
        <ele>560.14</ele>
        <time>2018-04-10T09:21:02.999Z</time>
      </trkpt>
      <trkpt lat="46.22512" lon="2.8752">
        <ele>561.22</ele>
        <time>2018-04-10T09:21:05.999Z</time>
      </trkpt>
      <trkpt lat="46.22514" lon="2.87504">
        <ele>561.76</ele>
        <time>2018-04-10T09:21:08.999Z</time>
      </trkpt>
      <trkpt lat="46.22515" lon="2.87491">
        <ele>562.06</ele>
        <time>2018-04-10T09:21:11.999Z</time>
      </trkpt>
      <trkpt lat="46.22517" lon="2.87478">
        <ele>563.41</ele>
        <time>2018-04-10T09:21:14.999Z</time>
      </trkpt>
      <trkpt lat="46.22519" lon="2.87461">
        <ele>564.61</ele>
        <time>2018-04-10T09:21:18.999Z</time>
      </trkpt>
      <trkpt lat="46.22521" lon="2.87444">
        <ele>565.89</ele>
        <time>2018-04-10T09:21:22.999Z</time>
      </trkpt>
      <trkpt lat="46.22525" lon="2.87428">
        <ele>566.77</ele>
        <time>2018-04-10T09:21:26.999Z</time>
      </trkpt>
      <trkpt lat="46.22526" lon="2.87412">
        <ele>568.38</ele>
        <time>2018-04-10T09:21:30.999Z</time>
      </trkpt>
      <trkpt lat="46.22528" lon="2.87399">
        <ele>569.29</ele>
        <time>2018-04-10T09:21:33.999Z</time>
      </trkpt>
      <trkpt lat="46.2253" lon="2.87385">
        <ele>569.83</ele>
        <time>2018-04-10T09:21:36.999Z</time>
      </trkpt>
      <trkpt lat="46.2253" lon="2.87372">
        <ele>570.42</ele>
        <time>2018-04-10T09:21:39.999Z</time>
      </trkpt>
      <trkpt lat="46.2253" lon="2.87359">
        <ele>570.66</ele>
        <time>2018-04-10T09:21:42.999Z</time>
      </trkpt>
      <trkpt lat="46.22532" lon="2.87345">
        <ele>571.19</ele>
        <time>2018-04-10T09:21:45.999Z</time>
      </trkpt>
      <trkpt lat="46.22534" lon="2.87328">
        <ele>572.17</ele>
        <time>2018-04-10T09:21:49.999Z</time>
      </trkpt>
      <trkpt lat="46.22535" lon="2.87315">
        <ele>572.33</ele>
        <time>2018-04-10T09:21:52.999Z</time>
      </trkpt>
      <trkpt lat="46.22536" lon="2.87301">
        <ele>572.85</ele>
        <time>2018-04-10T09:21:55.999Z</time>
      </trkpt>
      <trkpt lat="46.22537" lon="2.87287">
        <ele>573.75</ele>
        <time>2018-04-10T09:21:58.999Z</time>
      </trkpt>
      <trkpt lat="46.22538" lon="2.87273">
        <ele>574.56</ele>
        <time>2018-04-10T09:22:01.999Z</time>
      </trkpt>
      <trkpt lat="46.22538" lon="2.8726">
        <ele>575.65</ele>
        <time>2018-04-10T09:22:04.999Z</time>
      </trkpt>
      <trkpt lat="46.22543" lon="2.87245">
        <ele>576.74</ele>
        <time>2018-04-10T09:22:08.999Z</time>
      </trkpt>
      <trkpt lat="46.22545" lon="2.87231">
        <ele>577.04</ele>
        <time>2018-04-10T09:22:11.999Z</time>
      </trkpt>
      <trkpt lat="46.22548" lon="2.87214">
        <ele>577.15</ele>
        <time>2018-04-10T09:22:14.999Z</time>
      </trkpt>
      <trkpt lat="46.22549" lon="2.87197">
        <ele>577.71</ele>
        <time>2018-04-10T09:22:17.999Z</time>
      </trkpt>
      <trkpt lat="46.22551" lon="2.87179">
        <ele>578.43</ele>
        <time>2018-04-10T09:22:20.999Z</time>
      </trkpt>
      <trkpt lat="46.22551" lon="2.87165">
        <ele>578.38</ele>
        <time>2018-04-10T09:22:22.999Z</time>
      </trkpt>
      <trkpt lat="46.22554" lon="2.87152">
        <ele>578.45</ele>
        <time>2018-04-10T09:22:24.999Z</time>
      </trkpt>
      <trkpt lat="46.22557" lon="2.87138">
        <ele>578.2</ele>
        <time>2018-04-10T09:22:26.999Z</time>
      </trkpt>
      <trkpt lat="46.2256" lon="2.87123">
        <ele>577.29</ele>
        <time>2018-04-10T09:22:28.999Z</time>
      </trkpt>
      <trkpt lat="46.22562" lon="2.87107">
        <ele>576.37</ele>
        <time>2018-04-10T09:22:30.999Z</time>
      </trkpt>
      <trkpt lat="46.22564" lon="2.8709">
        <ele>576</ele>
        <time>2018-04-10T09:22:32.999Z</time>
      </trkpt>
      <trkpt lat="46.22566" lon="2.87074">
        <ele>575.84</ele>
        <time>2018-04-10T09:22:34.999Z</time>
      </trkpt>
      <trkpt lat="46.22569" lon="2.87058">
        <ele>576.92</ele>
        <time>2018-04-10T09:22:36.999Z</time>
      </trkpt>
      <trkpt lat="46.22575" lon="2.87043">
        <ele>577.2</ele>
        <time>2018-04-10T09:22:38.999Z</time>
      </trkpt>
      <trkpt lat="46.22581" lon="2.87028">
        <ele>576.86</ele>
        <time>2018-04-10T09:22:40.999Z</time>
      </trkpt>
      <trkpt lat="46.22588" lon="2.87014">
        <ele>576.75</ele>
        <time>2018-04-10T09:22:42.999Z</time>
      </trkpt>
      <trkpt lat="46.22595" lon="2.86999">
        <ele>576.57</ele>
        <time>2018-04-10T09:22:44.999Z</time>
      </trkpt>
      <trkpt lat="46.22601" lon="2.86983">
        <ele>576.34</ele>
        <time>2018-04-10T09:22:46.999Z</time>
      </trkpt>
      <trkpt lat="46.22608" lon="2.86968">
        <ele>576.02</ele>
        <time>2018-04-10T09:22:48.999Z</time>
      </trkpt>
      <trkpt lat="46.22615" lon="2.86953">
        <ele>575.82</ele>
        <time>2018-04-10T09:22:50.999Z</time>
      </trkpt>
      <trkpt lat="46.22623" lon="2.8694">
        <ele>575.69</ele>
        <time>2018-04-10T09:22:52.999Z</time>
      </trkpt>
      <trkpt lat="46.22631" lon="2.86927">
        <ele>575.89</ele>
        <time>2018-04-10T09:22:54.999Z</time>
      </trkpt>
      <trkpt lat="46.2264" lon="2.86913">
        <ele>575.84</ele>
        <time>2018-04-10T09:22:56.999Z</time>
      </trkpt>
      <trkpt lat="46.22649" lon="2.869">
        <ele>575.67</ele>
        <time>2018-04-10T09:22:58.999Z</time>
      </trkpt>
      <trkpt lat="46.22657" lon="2.86888">
        <ele>575.54</ele>
        <time>2018-04-10T09:23:00.999Z</time>
      </trkpt>
      <trkpt lat="46.22665" lon="2.86875">
        <ele>575.18</ele>
        <time>2018-04-10T09:23:02.999Z</time>
      </trkpt>
      <trkpt lat="46.22674" lon="2.86863">
        <ele>574.8</ele>
        <time>2018-04-10T09:23:04.999Z</time>
      </trkpt>
      <trkpt lat="46.22683" lon="2.86852">
        <ele>574.47</ele>
        <time>2018-04-10T09:23:06.999Z</time>
      </trkpt>
      <trkpt lat="46.22691" lon="2.86842">
        <ele>574.67</ele>
        <time>2018-04-10T09:23:08.999Z</time>
      </trkpt>
      <trkpt lat="46.22699" lon="2.86831">
        <ele>574.64</ele>
        <time>2018-04-10T09:23:10.999Z</time>
      </trkpt>
      <trkpt lat="46.22706" lon="2.86819">
        <ele>574.64</ele>
        <time>2018-04-10T09:23:12.999Z</time>
      </trkpt>
      <trkpt lat="46.22712" lon="2.86807">
        <ele>574.49</ele>
        <time>2018-04-10T09:23:14.999Z</time>
      </trkpt>
      <trkpt lat="46.22719" lon="2.86796">
        <ele>574.7</ele>
        <time>2018-04-10T09:23:16.999Z</time>
      </trkpt>
      <trkpt lat="46.22725" lon="2.86785">
        <ele>575.26</ele>
        <time>2018-04-10T09:23:18.999Z</time>
      </trkpt>
      <trkpt lat="46.22731" lon="2.86773">
        <ele>575.36</ele>
        <time>2018-04-10T09:23:20.999Z</time>
      </trkpt>
      <trkpt lat="46.22736" lon="2.86761">
        <ele>576.03</ele>
        <time>2018-04-10T09:23:22.999Z</time>
      </trkpt>
      <trkpt lat="46.2274" lon="2.86747">
        <ele>576.88</ele>
        <time>2018-04-10T09:23:24.999Z</time>
      </trkpt>
      <trkpt lat="46.22744" lon="2.86729">
        <ele>577.67</ele>
        <time>2018-04-10T09:23:27.999Z</time>
      </trkpt>
      <trkpt lat="46.22745" lon="2.86713">
        <ele>578.35</ele>
        <time>2018-04-10T09:23:30.999Z</time>
      </trkpt>
      <trkpt lat="46.22746" lon="2.86696">
        <ele>578.77</ele>
        <time>2018-04-10T09:23:33.999Z</time>
      </trkpt>
      <trkpt lat="46.22744" lon="2.8668">
        <ele>579.41</ele>
        <time>2018-04-10T09:23:36.999Z</time>
      </trkpt>
      <trkpt lat="46.22744" lon="2.86665">
        <ele>580.13</ele>
        <time>2018-04-10T09:23:39.999Z</time>
      </trkpt>
      <trkpt lat="46.22742" lon="2.8665">
        <ele>581.73</ele>
        <time>2018-04-10T09:23:42.999Z</time>
      </trkpt>
      <trkpt lat="46.2274" lon="2.86634">
        <ele>583.19</ele>
        <time>2018-04-10T09:23:45.999Z</time>
      </trkpt>
      <trkpt lat="46.22738" lon="2.8662">
        <ele>584.42</ele>
        <time>2018-04-10T09:23:48.999Z</time>
      </trkpt>
      <trkpt lat="46.22736" lon="2.86604">
        <ele>585.12</ele>
        <time>2018-04-10T09:23:51.999Z</time>
      </trkpt>
      <trkpt lat="46.22735" lon="2.8659">
        <ele>585.62</ele>
        <time>2018-04-10T09:23:54.999Z</time>
      </trkpt>
      <trkpt lat="46.22733" lon="2.86575">
        <ele>585.99</ele>
        <time>2018-04-10T09:23:57.999Z</time>
      </trkpt>
      <trkpt lat="46.22731" lon="2.86561">
        <ele>586.14</ele>
        <time>2018-04-10T09:24:00.999Z</time>
      </trkpt>
      <trkpt lat="46.2273" lon="2.86546">
        <ele>586.39</ele>
        <time>2018-04-10T09:24:03.999Z</time>
      </trkpt>
      <trkpt lat="46.22729" lon="2.86531">
        <ele>586.89</ele>
        <time>2018-04-10T09:24:06.999Z</time>
      </trkpt>
      <trkpt lat="46.22728" lon="2.86517">
        <ele>587.66</ele>
        <time>2018-04-10T09:24:09.999Z</time>
      </trkpt>
      <trkpt lat="46.22727" lon="2.86502">
        <ele>588.35</ele>
        <time>2018-04-10T09:24:12.999Z</time>
      </trkpt>
      <trkpt lat="46.22726" lon="2.86487">
        <ele>588.61</ele>
        <time>2018-04-10T09:24:15.999Z</time>
      </trkpt>
      <trkpt lat="46.22727" lon="2.86473">
        <ele>589.3</ele>
        <time>2018-04-10T09:24:18.999Z</time>
      </trkpt>
      <trkpt lat="46.22729" lon="2.86459">
        <ele>589.87</ele>
        <time>2018-04-10T09:24:21.999Z</time>
      </trkpt>
      <trkpt lat="46.2273" lon="2.86444">
        <ele>590.63</ele>
        <time>2018-04-10T09:24:24.999Z</time>
      </trkpt>
      <trkpt lat="46.22731" lon="2.86428">
        <ele>591.13</ele>
        <time>2018-04-10T09:24:27.999Z</time>
      </trkpt>
      <trkpt lat="46.22733" lon="2.86413">
        <ele>591.87</ele>
        <time>2018-04-10T09:24:30.999Z</time>
      </trkpt>
      <trkpt lat="46.22734" lon="2.86397">
        <ele>592.61</ele>
        <time>2018-04-10T09:24:33.999Z</time>
      </trkpt>
      <trkpt lat="46.22736" lon="2.86381">
        <ele>593.09</ele>
        <time>2018-04-10T09:24:36.999Z</time>
      </trkpt>
      <trkpt lat="46.22739" lon="2.86365">
        <ele>593.63</ele>
        <time>2018-04-10T09:24:39.999Z</time>
      </trkpt>
      <trkpt lat="46.2274" lon="2.8635">
        <ele>594.28</ele>
        <time>2018-04-10T09:24:42.999Z</time>
      </trkpt>
      <trkpt lat="46.22741" lon="2.86336">
        <ele>595.09</ele>
        <time>2018-04-10T09:24:45.999Z</time>
      </trkpt>
      <trkpt lat="46.22741" lon="2.86321">
        <ele>595.62</ele>
        <time>2018-04-10T09:24:48.999Z</time>
      </trkpt>
      <trkpt lat="46.22743" lon="2.86306">
        <ele>595.99</ele>
        <time>2018-04-10T09:24:51.999Z</time>
      </trkpt>
      <trkpt lat="46.22745" lon="2.86291">
        <ele>596.75</ele>
        <time>2018-04-10T09:24:54.999Z</time>
      </trkpt>
      <trkpt lat="46.22748" lon="2.86276">
        <ele>597.01</ele>
        <time>2018-04-10T09:24:57.999Z</time>
      </trkpt>
      <trkpt lat="46.2275" lon="2.86261">
        <ele>597.28</ele>
        <time>2018-04-10T09:25:00.999Z</time>
      </trkpt>
      <trkpt lat="46.22752" lon="2.86247">
        <ele>598.12</ele>
        <time>2018-04-10T09:25:03.999Z</time>
      </trkpt>
      <trkpt lat="46.22754" lon="2.86231">
        <ele>598.63</ele>
        <time>2018-04-10T09:25:06.999Z</time>
      </trkpt>
      <trkpt lat="46.22753" lon="2.86215">
        <ele>599.11</ele>
        <time>2018-04-10T09:25:09.999Z</time>
      </trkpt>
      <trkpt lat="46.22752" lon="2.86197">
        <ele>599.52</ele>
        <time>2018-04-10T09:25:12.999Z</time>
      </trkpt>
      <trkpt lat="46.22749" lon="2.86184">
        <ele>599.89</ele>
        <time>2018-04-10T09:25:14.999Z</time>
      </trkpt>
      <trkpt lat="46.22747" lon="2.86172">
        <ele>600.45</ele>
        <time>2018-04-10T09:25:16.999Z</time>
      </trkpt>
      <trkpt lat="46.22746" lon="2.86153">
        <ele>601.66</ele>
        <time>2018-04-10T09:25:19.999Z</time>
      </trkpt>
      <trkpt lat="46.22752" lon="2.86136">
        <ele>602.04</ele>
        <time>2018-04-10T09:25:22.999Z</time>
      </trkpt>
      <trkpt lat="46.22763" lon="2.86126">
        <ele>602.08</ele>
        <time>2018-04-10T09:25:25.999Z</time>
      </trkpt>
      <trkpt lat="46.22774" lon="2.8612">
        <ele>602.66</ele>
        <time>2018-04-10T09:25:28.999Z</time>
      </trkpt>
      <trkpt lat="46.22786" lon="2.86114">
        <ele>604.2</ele>
        <time>2018-04-10T09:25:31.999Z</time>
      </trkpt>
      <trkpt lat="46.22793" lon="2.86106">
        <ele>604.07</ele>
        <time>2018-04-10T09:25:33.999Z</time>
      </trkpt>
      <trkpt lat="46.22797" lon="2.86094">
        <ele>604.01</ele>
        <time>2018-04-10T09:25:35.999Z</time>
      </trkpt>
      <trkpt lat="46.22801" lon="2.8608">
        <ele>604.05</ele>
        <time>2018-04-10T09:25:37.999Z</time>
      </trkpt>
      <trkpt lat="46.22807" lon="2.86067">
        <ele>604.04</ele>
        <time>2018-04-10T09:25:39.999Z</time>
      </trkpt>
      <trkpt lat="46.22811" lon="2.86054">
        <ele>604.51</ele>
        <time>2018-04-10T09:25:41.999Z</time>
      </trkpt>
      <trkpt lat="46.22814" lon="2.8604">
        <ele>604.85</ele>
        <time>2018-04-10T09:25:43.999Z</time>
      </trkpt>
      <trkpt lat="46.22815" lon="2.86025">
        <ele>605.04</ele>
        <time>2018-04-10T09:25:45.999Z</time>
      </trkpt>
      <trkpt lat="46.22815" lon="2.8601">
        <ele>605.7</ele>
        <time>2018-04-10T09:25:47.999Z</time>
      </trkpt>
      <trkpt lat="46.22814" lon="2.85994">
        <ele>606.81</ele>
        <time>2018-04-10T09:25:49.999Z</time>
      </trkpt>
      <trkpt lat="46.22815" lon="2.8598">
        <ele>607.48</ele>
        <time>2018-04-10T09:25:51.999Z</time>
      </trkpt>
      <trkpt lat="46.22817" lon="2.85965">
        <ele>607.99</ele>
        <time>2018-04-10T09:25:53.999Z</time>
      </trkpt>
      <trkpt lat="46.2282" lon="2.85948">
        <ele>608.14</ele>
        <time>2018-04-10T09:25:55.999Z</time>
      </trkpt>
      <trkpt lat="46.22822" lon="2.85931">
        <ele>608.04</ele>
        <time>2018-04-10T09:25:57.999Z</time>
      </trkpt>
      <trkpt lat="46.22824" lon="2.85914">
        <ele>607.52</ele>
        <time>2018-04-10T09:25:59.999Z</time>
      </trkpt>
      <trkpt lat="46.22825" lon="2.85894">
        <ele>606</ele>
        <time>2018-04-10T09:26:01.999Z</time>
      </trkpt>
      <trkpt lat="46.22826" lon="2.85873">
        <ele>605.56</ele>
        <time>2018-04-10T09:26:03.999Z</time>
      </trkpt>
      <trkpt lat="46.22826" lon="2.85849">
        <ele>605.35</ele>
        <time>2018-04-10T09:26:05.999Z</time>
      </trkpt>
      <trkpt lat="46.22826" lon="2.85824">
        <ele>604.94</ele>
        <time>2018-04-10T09:26:07.999Z</time>
      </trkpt>
      <trkpt lat="46.22826" lon="2.8581">
        <ele>604.6</ele>
        <time>2018-04-10T09:26:08.999Z</time>
      </trkpt>
      <trkpt lat="46.22826" lon="2.85797">
        <ele>604.18</ele>
        <time>2018-04-10T09:26:09.999Z</time>
      </trkpt>
      <trkpt lat="46.22827" lon="2.85783">
        <ele>603.7</ele>
        <time>2018-04-10T09:26:10.999Z</time>
      </trkpt>
      <trkpt lat="46.22827" lon="2.85768">
        <ele>603.2</ele>
        <time>2018-04-10T09:26:11.999Z</time>
      </trkpt>
      <trkpt lat="46.22827" lon="2.85754">
        <ele>602.59</ele>
        <time>2018-04-10T09:26:12.999Z</time>
      </trkpt>
      <trkpt lat="46.22827" lon="2.85739">
        <ele>602.07</ele>
        <time>2018-04-10T09:26:13.999Z</time>
      </trkpt>
      <trkpt lat="46.22827" lon="2.85724">
        <ele>601.61</ele>
        <time>2018-04-10T09:26:14.999Z</time>
      </trkpt>
      <trkpt lat="46.22827" lon="2.85708">
        <ele>601.23</ele>
        <time>2018-04-10T09:26:15.999Z</time>
      </trkpt>
      <trkpt lat="46.22828" lon="2.85691">
        <ele>600.65</ele>
        <time>2018-04-10T09:26:16.999Z</time>
      </trkpt>
      <trkpt lat="46.22828" lon="2.85675">
        <ele>600.07</ele>
        <time>2018-04-10T09:26:17.999Z</time>
      </trkpt>
      <trkpt lat="46.22828" lon="2.85658">
        <ele>599.46</ele>
        <time>2018-04-10T09:26:18.999Z</time>
      </trkpt>
      <trkpt lat="46.22828" lon="2.8564">
        <ele>598.88</ele>
        <time>2018-04-10T09:26:19.999Z</time>
      </trkpt>
      <trkpt lat="46.22828" lon="2.85623">
        <ele>598.42</ele>
        <time>2018-04-10T09:26:20.999Z</time>
      </trkpt>
      <trkpt lat="46.22829" lon="2.85604">
        <ele>597.68</ele>
        <time>2018-04-10T09:26:21.999Z</time>
      </trkpt>
      <trkpt lat="46.22829" lon="2.85586">
        <ele>597.15</ele>
        <time>2018-04-10T09:26:22.999Z</time>
      </trkpt>
      <trkpt lat="46.22829" lon="2.85567">
        <ele>596.71</ele>
        <time>2018-04-10T09:26:23.999Z</time>
      </trkpt>
      <trkpt lat="46.22829" lon="2.85549">
        <ele>596.46</ele>
        <time>2018-04-10T09:26:24.999Z</time>
      </trkpt>
      <trkpt lat="46.22829" lon="2.8553">
        <ele>595.98</ele>
        <time>2018-04-10T09:26:25.999Z</time>
      </trkpt>
      <trkpt lat="46.22829" lon="2.85511">
        <ele>595.47</ele>
        <time>2018-04-10T09:26:26.999Z</time>
      </trkpt>
      <trkpt lat="46.2283" lon="2.85492">
        <ele>595.06</ele>
        <time>2018-04-10T09:26:27.999Z</time>
      </trkpt>
      <trkpt lat="46.2283" lon="2.85473">
        <ele>594.8</ele>
        <time>2018-04-10T09:26:28.999Z</time>
      </trkpt>
      <trkpt lat="46.22831" lon="2.85453">
        <ele>594.45</ele>
        <time>2018-04-10T09:26:29.999Z</time>
      </trkpt>
      <trkpt lat="46.22831" lon="2.85434">
        <ele>594.05</ele>
        <time>2018-04-10T09:26:30.999Z</time>
      </trkpt>
      <trkpt lat="46.22831" lon="2.85414">
        <ele>593.53</ele>
        <time>2018-04-10T09:26:31.999Z</time>
      </trkpt>
      <trkpt lat="46.22831" lon="2.85395">
        <ele>592.82</ele>
        <time>2018-04-10T09:26:32.999Z</time>
      </trkpt>
      <trkpt lat="46.22831" lon="2.85376">
        <ele>592.46</ele>
        <time>2018-04-10T09:26:33.999Z</time>
      </trkpt>
      <trkpt lat="46.22831" lon="2.85356">
        <ele>591.9</ele>
        <time>2018-04-10T09:26:34.999Z</time>
      </trkpt>
      <trkpt lat="46.22831" lon="2.85337">
        <ele>591.09</ele>
        <time>2018-04-10T09:26:35.999Z</time>
      </trkpt>
      <trkpt lat="46.22832" lon="2.85318">
        <ele>590.36</ele>
        <time>2018-04-10T09:26:36.999Z</time>
      </trkpt>
      <trkpt lat="46.22832" lon="2.85299">
        <ele>589.43</ele>
        <time>2018-04-10T09:26:37.999Z</time>
      </trkpt>
      <trkpt lat="46.22833" lon="2.85279">
        <ele>588.48</ele>
        <time>2018-04-10T09:26:38.999Z</time>
      </trkpt>
      <trkpt lat="46.22833" lon="2.8526">
        <ele>587.6</ele>
        <time>2018-04-10T09:26:39.999Z</time>
      </trkpt>
      <trkpt lat="46.22833" lon="2.8524">
        <ele>586.82</ele>
        <time>2018-04-10T09:26:40.999Z</time>
      </trkpt>
      <trkpt lat="46.22833" lon="2.8522">
        <ele>586.04</ele>
        <time>2018-04-10T09:26:41.999Z</time>
      </trkpt>
      <trkpt lat="46.22833" lon="2.85201">
        <ele>585.15</ele>
        <time>2018-04-10T09:26:42.999Z</time>
      </trkpt>
      <trkpt lat="46.22834" lon="2.85181">
        <ele>584.2</ele>
        <time>2018-04-10T09:26:43.999Z</time>
      </trkpt>
      <trkpt lat="46.22834" lon="2.85161">
        <ele>583.22</ele>
        <time>2018-04-10T09:26:44.999Z</time>
      </trkpt>
      <trkpt lat="46.22834" lon="2.8514">
        <ele>582</ele>
        <time>2018-04-10T09:26:45.999Z</time>
      </trkpt>
      <trkpt lat="46.22834" lon="2.8512">
        <ele>581.01</ele>
        <time>2018-04-10T09:26:46.999Z</time>
      </trkpt>
      <trkpt lat="46.22835" lon="2.851">
        <ele>579.9</ele>
        <time>2018-04-10T09:26:47.999Z</time>
      </trkpt>
      <trkpt lat="46.22834" lon="2.8508">
        <ele>579.47</ele>
        <time>2018-04-10T09:26:48.999Z</time>
      </trkpt>
      <trkpt lat="46.22834" lon="2.8506">
        <ele>578.69</ele>
        <time>2018-04-10T09:26:49.999Z</time>
      </trkpt>
      <trkpt lat="46.22835" lon="2.85039">
        <ele>577.84</ele>
        <time>2018-04-10T09:26:50.999Z</time>
      </trkpt>
      <trkpt lat="46.22836" lon="2.85019">
        <ele>577.02</ele>
        <time>2018-04-10T09:26:51.999Z</time>
      </trkpt>
      <trkpt lat="46.22837" lon="2.84998">
        <ele>576.35</ele>
        <time>2018-04-10T09:26:52.999Z</time>
      </trkpt>
      <trkpt lat="46.22839" lon="2.84978">
        <ele>575.75</ele>
        <time>2018-04-10T09:26:53.999Z</time>
      </trkpt>
      <trkpt lat="46.22842" lon="2.8496">
        <ele>575.29</ele>
        <time>2018-04-10T09:26:54.999Z</time>
      </trkpt>
      <trkpt lat="46.22846" lon="2.84942">
        <ele>574.8</ele>
        <time>2018-04-10T09:26:55.999Z</time>
      </trkpt>
      <trkpt lat="46.22851" lon="2.84925">
        <ele>574.38</ele>
        <time>2018-04-10T09:26:56.999Z</time>
      </trkpt>
      <trkpt lat="46.22856" lon="2.8491">
        <ele>573.95</ele>
        <time>2018-04-10T09:26:57.999Z</time>
      </trkpt>
      <trkpt lat="46.22861" lon="2.84896">
        <ele>573.59</ele>
        <time>2018-04-10T09:26:58.999Z</time>
      </trkpt>
      <trkpt lat="46.22866" lon="2.84883">
        <ele>573.3</ele>
        <time>2018-04-10T09:26:59.999Z</time>
      </trkpt>
      <trkpt lat="46.2287" lon="2.84871">
        <ele>573.01</ele>
        <time>2018-04-10T09:27:00.999Z</time>
      </trkpt>
      <trkpt lat="46.22878" lon="2.84849">
        <ele>572.4</ele>
        <time>2018-04-10T09:27:02.999Z</time>
      </trkpt>
      <trkpt lat="46.22885" lon="2.8483">
        <ele>572.04</ele>
        <time>2018-04-10T09:27:04.999Z</time>
      </trkpt>
      <trkpt lat="46.22891" lon="2.84813">
        <ele>571.38</ele>
        <time>2018-04-10T09:27:06.999Z</time>
      </trkpt>
      <trkpt lat="46.22895" lon="2.84795">
        <ele>571</ele>
        <time>2018-04-10T09:27:08.999Z</time>
      </trkpt>
      <trkpt lat="46.229" lon="2.8478">
        <ele>571.04</ele>
        <time>2018-04-10T09:27:10.999Z</time>
      </trkpt>
      <trkpt lat="46.22905" lon="2.84766">
        <ele>571.01</ele>
        <time>2018-04-10T09:27:12.999Z</time>
      </trkpt>
      <trkpt lat="46.22909" lon="2.84754">
        <ele>571.06</ele>
        <time>2018-04-10T09:27:14.999Z</time>
      </trkpt>
      <trkpt lat="46.22915" lon="2.84737">
        <ele>571.48</ele>
        <time>2018-04-10T09:27:17.999Z</time>
      </trkpt>
      <trkpt lat="46.22919" lon="2.84723">
        <ele>572.28</ele>
        <time>2018-04-10T09:27:20.999Z</time>
      </trkpt>
      <trkpt lat="46.22924" lon="2.84707">
        <ele>573.77</ele>
        <time>2018-04-10T09:27:23.999Z</time>
      </trkpt>
      <trkpt lat="46.22929" lon="2.84693">
        <ele>574.33</ele>
        <time>2018-04-10T09:27:26.999Z</time>
      </trkpt>
      <trkpt lat="46.22934" lon="2.84678">
        <ele>575.1</ele>
        <time>2018-04-10T09:27:29.999Z</time>
      </trkpt>
      <trkpt lat="46.22938" lon="2.84664">
        <ele>576.3</ele>
        <time>2018-04-10T09:27:32.999Z</time>
      </trkpt>
      <trkpt lat="46.22943" lon="2.84649">
        <ele>577.83</ele>
        <time>2018-04-10T09:27:35.999Z</time>
      </trkpt>
      <trkpt lat="46.22947" lon="2.84636">
        <ele>578.9</ele>
        <time>2018-04-10T09:27:38.999Z</time>
      </trkpt>
      <trkpt lat="46.22951" lon="2.84621">
        <ele>579.98</ele>
        <time>2018-04-10T09:27:41.999Z</time>
      </trkpt>
      <trkpt lat="46.22957" lon="2.84606">
        <ele>581.34</ele>
        <time>2018-04-10T09:27:44.999Z</time>
      </trkpt>
      <trkpt lat="46.22962" lon="2.8459">
        <ele>582.15</ele>
        <time>2018-04-10T09:27:47.999Z</time>
      </trkpt>
      <trkpt lat="46.22967" lon="2.84574">
        <ele>583.12</ele>
        <time>2018-04-10T09:27:50.999Z</time>
      </trkpt>
      <trkpt lat="46.22972" lon="2.8456">
        <ele>583.96</ele>
        <time>2018-04-10T09:27:53.999Z</time>
      </trkpt>
      <trkpt lat="46.22976" lon="2.84547">
        <ele>585.02</ele>
        <time>2018-04-10T09:27:56.999Z</time>
      </trkpt>
      <trkpt lat="46.22979" lon="2.84533">
        <ele>586.07</ele>
        <time>2018-04-10T09:27:59.999Z</time>
      </trkpt>
      <trkpt lat="46.22982" lon="2.84517">
        <ele>586.77</ele>
        <time>2018-04-10T09:28:02.999Z</time>
      </trkpt>
      <trkpt lat="46.22984" lon="2.84501">
        <ele>587.62</ele>
        <time>2018-04-10T09:28:05.999Z</time>
      </trkpt>
      <trkpt lat="46.22985" lon="2.84484">
        <ele>588.23</ele>
        <time>2018-04-10T09:28:08.999Z</time>
      </trkpt>
      <trkpt lat="46.22984" lon="2.84467">
        <ele>588.68</ele>
        <time>2018-04-10T09:28:11.999Z</time>
      </trkpt>
      <trkpt lat="46.22984" lon="2.84453">
        <ele>588.83</ele>
        <time>2018-04-10T09:28:13.999Z</time>
      </trkpt>
      <trkpt lat="46.22984" lon="2.8444">
        <ele>589.35</ele>
        <time>2018-04-10T09:28:15.999Z</time>
      </trkpt>
      <trkpt lat="46.22983" lon="2.84427">
        <ele>589.84</ele>
        <time>2018-04-10T09:28:17.999Z</time>
      </trkpt>
      <trkpt lat="46.22982" lon="2.84412">
        <ele>590.68</ele>
        <time>2018-04-10T09:28:19.999Z</time>
      </trkpt>
      <trkpt lat="46.22982" lon="2.84396">
        <ele>591.27</ele>
        <time>2018-04-10T09:28:21.999Z</time>
      </trkpt>
      <trkpt lat="46.22982" lon="2.8438">
        <ele>591.23</ele>
        <time>2018-04-10T09:28:23.999Z</time>
      </trkpt>
      <trkpt lat="46.22982" lon="2.84365">
        <ele>591.15</ele>
        <time>2018-04-10T09:28:25.999Z</time>
      </trkpt>
      <trkpt lat="46.22982" lon="2.8435">
        <ele>591.32</ele>
        <time>2018-04-10T09:28:27.999Z</time>
      </trkpt>
      <trkpt lat="46.22982" lon="2.84333">
        <ele>591.3</ele>
        <time>2018-04-10T09:28:29.999Z</time>
      </trkpt>
      <trkpt lat="46.22982" lon="2.84316">
        <ele>590.17</ele>
        <time>2018-04-10T09:28:31.999Z</time>
      </trkpt>
      <trkpt lat="46.22981" lon="2.84298">
        <ele>589.5</ele>
        <time>2018-04-10T09:28:33.999Z</time>
      </trkpt>
      <trkpt lat="46.22981" lon="2.84279">
        <ele>589.01</ele>
        <time>2018-04-10T09:28:35.999Z</time>
      </trkpt>
      <trkpt lat="46.22981" lon="2.8426">
        <ele>588.8</ele>
        <time>2018-04-10T09:28:37.999Z</time>
      </trkpt>
      <trkpt lat="46.22981" lon="2.8424">
        <ele>588.68</ele>
        <time>2018-04-10T09:28:39.999Z</time>
      </trkpt>
      <trkpt lat="46.2298" lon="2.8422">
        <ele>589.31</ele>
        <time>2018-04-10T09:28:41.999Z</time>
      </trkpt>
      <trkpt lat="46.22979" lon="2.84198">
        <ele>588.8</ele>
        <time>2018-04-10T09:28:43.999Z</time>
      </trkpt>
      <trkpt lat="46.22979" lon="2.84174">
        <ele>588.29</ele>
        <time>2018-04-10T09:28:45.999Z</time>
      </trkpt>
      <trkpt lat="46.22978" lon="2.84149">
        <ele>587.89</ele>
        <time>2018-04-10T09:28:47.999Z</time>
      </trkpt>
      <trkpt lat="46.22977" lon="2.84124">
        <ele>587.56</ele>
        <time>2018-04-10T09:28:49.999Z</time>
      </trkpt>
      <trkpt lat="46.22977" lon="2.84111">
        <ele>587.45</ele>
        <time>2018-04-10T09:28:50.999Z</time>
      </trkpt>
      <trkpt lat="46.22977" lon="2.84097">
        <ele>587.25</ele>
        <time>2018-04-10T09:28:51.999Z</time>
      </trkpt>
      <trkpt lat="46.22976" lon="2.84084">
        <ele>587</ele>
        <time>2018-04-10T09:28:52.999Z</time>
      </trkpt>
      <trkpt lat="46.22976" lon="2.8407">
        <ele>587.06</ele>
        <time>2018-04-10T09:28:53.999Z</time>
      </trkpt>
      <trkpt lat="46.22975" lon="2.84056">
        <ele>586.86</ele>
        <time>2018-04-10T09:28:54.999Z</time>
      </trkpt>
      <trkpt lat="46.22974" lon="2.84042">
        <ele>586.7</ele>
        <time>2018-04-10T09:28:55.999Z</time>
      </trkpt>
      <trkpt lat="46.22974" lon="2.84029">
        <ele>586.39</ele>
        <time>2018-04-10T09:28:56.999Z</time>
      </trkpt>
      <trkpt lat="46.22973" lon="2.84015">
        <ele>585.89</ele>
        <time>2018-04-10T09:28:57.999Z</time>
      </trkpt>
      <trkpt lat="46.22973" lon="2.84">
        <ele>585.44</ele>
        <time>2018-04-10T09:28:58.999Z</time>
      </trkpt>
      <trkpt lat="46.22973" lon="2.83984">
        <ele>584.94</ele>
        <time>2018-04-10T09:28:59.999Z</time>
      </trkpt>
      <trkpt lat="46.22973" lon="2.83968">
        <ele>584.22</ele>
        <time>2018-04-10T09:29:00.999Z</time>
      </trkpt>
      <trkpt lat="46.22973" lon="2.83952">
        <ele>583.67</ele>
        <time>2018-04-10T09:29:01.999Z</time>
      </trkpt>
      <trkpt lat="46.22974" lon="2.83937">
        <ele>583.15</ele>
        <time>2018-04-10T09:29:02.999Z</time>
      </trkpt>
      <trkpt lat="46.22977" lon="2.83921">
        <ele>582.77</ele>
        <time>2018-04-10T09:29:03.999Z</time>
      </trkpt>
      <trkpt lat="46.22981" lon="2.83906">
        <ele>582.27</ele>
        <time>2018-04-10T09:29:04.999Z</time>
      </trkpt>
      <trkpt lat="46.22985" lon="2.8389">
        <ele>581.69</ele>
        <time>2018-04-10T09:29:05.999Z</time>
      </trkpt>
      <trkpt lat="46.2299" lon="2.83875">
        <ele>581.2</ele>
        <time>2018-04-10T09:29:06.999Z</time>
      </trkpt>
      <trkpt lat="46.22996" lon="2.8386">
        <ele>580.67</ele>
        <time>2018-04-10T09:29:07.999Z</time>
      </trkpt>
      <trkpt lat="46.23001" lon="2.83844">
        <ele>580.2</ele>
        <time>2018-04-10T09:29:08.999Z</time>
      </trkpt>
      <trkpt lat="46.23006" lon="2.83828">
        <ele>579.56</ele>
        <time>2018-04-10T09:29:09.999Z</time>
      </trkpt>
      <trkpt lat="46.23012" lon="2.83811">
        <ele>578.93</ele>
        <time>2018-04-10T09:29:10.999Z</time>
      </trkpt>
      <trkpt lat="46.23017" lon="2.83795">
        <ele>578.28</ele>
        <time>2018-04-10T09:29:11.999Z</time>
      </trkpt>
      <trkpt lat="46.23022" lon="2.83779">
        <ele>577.61</ele>
        <time>2018-04-10T09:29:12.999Z</time>
      </trkpt>
      <trkpt lat="46.23027" lon="2.83762">
        <ele>577.17</ele>
        <time>2018-04-10T09:29:13.999Z</time>
      </trkpt>
      <trkpt lat="46.23032" lon="2.83745">
        <ele>576.6</ele>
        <time>2018-04-10T09:29:14.999Z</time>
      </trkpt>
      <trkpt lat="46.23038" lon="2.83729">
        <ele>576</ele>
        <time>2018-04-10T09:29:15.999Z</time>
      </trkpt>
      <trkpt lat="46.23043" lon="2.83712">
        <ele>575.38</ele>
        <time>2018-04-10T09:29:16.999Z</time>
      </trkpt>
      <trkpt lat="46.23048" lon="2.83695">
        <ele>574.69</ele>
        <time>2018-04-10T09:29:17.999Z</time>
      </trkpt>
      <trkpt lat="46.23053" lon="2.83678">
        <ele>574.17</ele>
        <time>2018-04-10T09:29:18.999Z</time>
      </trkpt>
      <trkpt lat="46.23059" lon="2.83661">
        <ele>573.69</ele>
        <time>2018-04-10T09:29:19.999Z</time>
      </trkpt>
      <trkpt lat="46.23064" lon="2.83644">
        <ele>573.15</ele>
        <time>2018-04-10T09:29:20.999Z</time>
      </trkpt>
      <trkpt lat="46.23068" lon="2.83626">
        <ele>572.38</ele>
        <time>2018-04-10T09:29:21.999Z</time>
      </trkpt>
      <trkpt lat="46.23072" lon="2.83608">
        <ele>571.61</ele>
        <time>2018-04-10T09:29:22.999Z</time>
      </trkpt>
      <trkpt lat="46.23077" lon="2.8359">
        <ele>570.74</ele>
        <time>2018-04-10T09:29:23.999Z</time>
      </trkpt>
      <trkpt lat="46.23081" lon="2.83571">
        <ele>569.98</ele>
        <time>2018-04-10T09:29:24.999Z</time>
      </trkpt>
      <trkpt lat="46.23085" lon="2.83553">
        <ele>569.28</ele>
        <time>2018-04-10T09:29:25.999Z</time>
      </trkpt>
      <trkpt lat="46.23089" lon="2.83535">
        <ele>568.57</ele>
        <time>2018-04-10T09:29:26.999Z</time>
      </trkpt>
      <trkpt lat="46.23095" lon="2.83518">
        <ele>568.02</ele>
        <time>2018-04-10T09:29:27.999Z</time>
      </trkpt>
      <trkpt lat="46.23101" lon="2.83503">
        <ele>567.16</ele>
        <time>2018-04-10T09:29:28.999Z</time>
      </trkpt>
      <trkpt lat="46.23109" lon="2.83488">
        <ele>566.46</ele>
        <time>2018-04-10T09:29:29.999Z</time>
      </trkpt>
      <trkpt lat="46.23118" lon="2.83473">
        <ele>565.83</ele>
        <time>2018-04-10T09:29:30.999Z</time>
      </trkpt>
      <trkpt lat="46.23127" lon="2.83456">
        <ele>565.17</ele>
        <time>2018-04-10T09:29:31.999Z</time>
      </trkpt>
      <trkpt lat="46.23133" lon="2.83439">
        <ele>564.49</ele>
        <time>2018-04-10T09:29:32.999Z</time>
      </trkpt>
      <trkpt lat="46.23137" lon="2.83421">
        <ele>563.8</ele>
        <time>2018-04-10T09:29:33.999Z</time>
      </trkpt>
      <trkpt lat="46.23138" lon="2.83402">
        <ele>563.15</ele>
        <time>2018-04-10T09:29:34.999Z</time>
      </trkpt>
      <trkpt lat="46.23138" lon="2.83382">
        <ele>562.63</ele>
        <time>2018-04-10T09:29:35.999Z</time>
      </trkpt>
      <trkpt lat="46.23135" lon="2.83363">
        <ele>562.11</ele>
        <time>2018-04-10T09:29:36.999Z</time>
      </trkpt>
      <trkpt lat="46.23132" lon="2.83344">
        <ele>561.61</ele>
        <time>2018-04-10T09:29:37.999Z</time>
      </trkpt>
      <trkpt lat="46.23129" lon="2.83326">
        <ele>561.22</ele>
        <time>2018-04-10T09:29:38.999Z</time>
      </trkpt>
      <trkpt lat="46.23126" lon="2.83308">
        <ele>560.85</ele>
        <time>2018-04-10T09:29:39.999Z</time>
      </trkpt>
      <trkpt lat="46.23125" lon="2.83291">
        <ele>560.51</ele>
        <time>2018-04-10T09:29:40.999Z</time>
      </trkpt>
      <trkpt lat="46.23127" lon="2.83275">
        <ele>560.07</ele>
        <time>2018-04-10T09:29:41.999Z</time>
      </trkpt>
      <trkpt lat="46.2313" lon="2.8326">
        <ele>559.53</ele>
        <time>2018-04-10T09:29:42.999Z</time>
      </trkpt>
      <trkpt lat="46.23135" lon="2.83246">
        <ele>559</ele>
        <time>2018-04-10T09:29:43.999Z</time>
      </trkpt>
      <trkpt lat="46.23142" lon="2.83233">
        <ele>558.51</ele>
        <time>2018-04-10T09:29:44.999Z</time>
      </trkpt>
      <trkpt lat="46.2315" lon="2.83221">
        <ele>558</ele>
        <time>2018-04-10T09:29:45.999Z</time>
      </trkpt>
      <trkpt lat="46.2316" lon="2.83211">
        <ele>557.62</ele>
        <time>2018-04-10T09:29:46.999Z</time>
      </trkpt>
      <trkpt lat="46.23171" lon="2.83201">
        <ele>557.33</ele>
        <time>2018-04-10T09:29:47.999Z</time>
      </trkpt>
      <trkpt lat="46.23183" lon="2.83191">
        <ele>557.07</ele>
        <time>2018-04-10T09:29:48.999Z</time>
      </trkpt>
      <trkpt lat="46.23194" lon="2.8318">
        <ele>556.8</ele>
        <time>2018-04-10T09:29:49.999Z</time>
      </trkpt>
      <trkpt lat="46.23205" lon="2.8317">
        <ele>556.35</ele>
        <time>2018-04-10T09:29:50.999Z</time>
      </trkpt>
      <trkpt lat="46.23216" lon="2.8316">
        <ele>555.91</ele>
        <time>2018-04-10T09:29:51.999Z</time>
      </trkpt>
      <trkpt lat="46.23227" lon="2.83151">
        <ele>555.5</ele>
        <time>2018-04-10T09:29:52.999Z</time>
      </trkpt>
      <trkpt lat="46.23239" lon="2.83142">
        <ele>555</ele>
        <time>2018-04-10T09:29:53.999Z</time>
      </trkpt>
      <trkpt lat="46.2325" lon="2.83135">
        <ele>554.53</ele>
        <time>2018-04-10T09:29:54.999Z</time>
      </trkpt>
      <trkpt lat="46.23262" lon="2.83127">
        <ele>553.99</ele>
        <time>2018-04-10T09:29:55.999Z</time>
      </trkpt>
      <trkpt lat="46.23274" lon="2.8312">
        <ele>553.21</ele>
        <time>2018-04-10T09:29:56.999Z</time>
      </trkpt>
      <trkpt lat="46.23286" lon="2.83112">
        <ele>552.47</ele>
        <time>2018-04-10T09:29:57.999Z</time>
      </trkpt>
      <trkpt lat="46.23298" lon="2.83104">
        <ele>551.63</ele>
        <time>2018-04-10T09:29:58.999Z</time>
      </trkpt>
      <trkpt lat="46.2331" lon="2.83096">
        <ele>550.95</ele>
        <time>2018-04-10T09:29:59.999Z</time>
      </trkpt>
      <trkpt lat="46.23322" lon="2.83088">
        <ele>550.48</ele>
        <time>2018-04-10T09:30:00.999Z</time>
      </trkpt>
      <trkpt lat="46.23335" lon="2.83082">
        <ele>550.28</ele>
        <time>2018-04-10T09:30:01.999Z</time>
      </trkpt>
      <trkpt lat="46.23347" lon="2.83078">
        <ele>549.93</ele>
        <time>2018-04-10T09:30:02.999Z</time>
      </trkpt>
      <trkpt lat="46.2336" lon="2.83077">
        <ele>549.43</ele>
        <time>2018-04-10T09:30:03.999Z</time>
      </trkpt>
      <trkpt lat="46.23372" lon="2.83077">
        <ele>549.24</ele>
        <time>2018-04-10T09:30:04.999Z</time>
      </trkpt>
      <trkpt lat="46.23385" lon="2.83081">
        <ele>548.59</ele>
        <time>2018-04-10T09:30:05.999Z</time>
      </trkpt>
      <trkpt lat="46.23396" lon="2.83085">
        <ele>547.72</ele>
        <time>2018-04-10T09:30:06.999Z</time>
      </trkpt>
      <trkpt lat="46.23406" lon="2.8309">
        <ele>546.85</ele>
        <time>2018-04-10T09:30:07.999Z</time>
      </trkpt>
      <trkpt lat="46.23416" lon="2.83095">
        <ele>546.1</ele>
        <time>2018-04-10T09:30:08.999Z</time>
      </trkpt>
      <trkpt lat="46.23426" lon="2.83099">
        <ele>545.56</ele>
        <time>2018-04-10T09:30:09.999Z</time>
      </trkpt>
      <trkpt lat="46.23436" lon="2.83101">
        <ele>544.97</ele>
        <time>2018-04-10T09:30:10.999Z</time>
      </trkpt>
      <trkpt lat="46.23445" lon="2.83102">
        <ele>544.36</ele>
        <time>2018-04-10T09:30:11.999Z</time>
      </trkpt>
      <trkpt lat="46.23455" lon="2.83102">
        <ele>543.9</ele>
        <time>2018-04-10T09:30:12.999Z</time>
      </trkpt>
      <trkpt lat="46.23464" lon="2.83102">
        <ele>543.53</ele>
        <time>2018-04-10T09:30:13.999Z</time>
      </trkpt>
      <trkpt lat="46.23473" lon="2.83099">
        <ele>543.09</ele>
        <time>2018-04-10T09:30:14.999Z</time>
      </trkpt>
      <trkpt lat="46.23489" lon="2.83092">
        <ele>542.62</ele>
        <time>2018-04-10T09:30:16.999Z</time>
      </trkpt>
      <trkpt lat="46.23504" lon="2.83083">
        <ele>542.43</ele>
        <time>2018-04-10T09:30:18.999Z</time>
      </trkpt>
      <trkpt lat="46.23518" lon="2.83073">
        <ele>542.62</ele>
        <time>2018-04-10T09:30:20.999Z</time>
      </trkpt>
      <trkpt lat="46.2353" lon="2.83063">
        <ele>542.71</ele>
        <time>2018-04-10T09:30:22.999Z</time>
      </trkpt>
      <trkpt lat="46.2354" lon="2.83054">
        <ele>543.01</ele>
        <time>2018-04-10T09:30:24.999Z</time>
      </trkpt>
      <trkpt lat="46.23549" lon="2.83043">
        <ele>542.87</ele>
        <time>2018-04-10T09:30:26.999Z</time>
      </trkpt>
      <trkpt lat="46.23555" lon="2.83031">
        <ele>543.03</ele>
        <time>2018-04-10T09:30:28.999Z</time>
      </trkpt>
      <trkpt lat="46.23562" lon="2.83018">
        <ele>543.05</ele>
        <time>2018-04-10T09:30:30.999Z</time>
      </trkpt>
      <trkpt lat="46.23566" lon="2.83004">
        <ele>543.18</ele>
        <time>2018-04-10T09:30:32.999Z</time>
      </trkpt>
      <trkpt lat="46.23568" lon="2.8299">
        <ele>543.66</ele>
        <time>2018-04-10T09:30:34.999Z</time>
      </trkpt>
      <trkpt lat="46.23571" lon="2.82975">
        <ele>543.79</ele>
        <time>2018-04-10T09:30:36.999Z</time>
      </trkpt>
      <trkpt lat="46.23573" lon="2.8296">
        <ele>543.92</ele>
        <time>2018-04-10T09:30:38.999Z</time>
      </trkpt>
      <trkpt lat="46.23574" lon="2.82946">
        <ele>543.99</ele>
        <time>2018-04-10T09:30:40.999Z</time>
      </trkpt>
      <trkpt lat="46.23576" lon="2.82932">
        <ele>543.96</ele>
        <time>2018-04-10T09:30:42.999Z</time>
      </trkpt>
      <trkpt lat="46.23578" lon="2.82919">
        <ele>544.13</ele>
        <time>2018-04-10T09:30:44.999Z</time>
      </trkpt>
      <trkpt lat="46.23579" lon="2.829">
        <ele>544.55</ele>
        <time>2018-04-10T09:30:47.999Z</time>
      </trkpt>
      <trkpt lat="46.23581" lon="2.82887">
        <ele>544.85</ele>
        <time>2018-04-10T09:30:49.999Z</time>
      </trkpt>
      <trkpt lat="46.23582" lon="2.82873">
        <ele>545.79</ele>
        <time>2018-04-10T09:30:51.999Z</time>
      </trkpt>
      <trkpt lat="46.23582" lon="2.8286">
        <ele>547.4</ele>
        <time>2018-04-10T09:30:53.999Z</time>
      </trkpt>
      <trkpt lat="46.23585" lon="2.82841">
        <ele>548.5</ele>
        <time>2018-04-10T09:30:56.999Z</time>
      </trkpt>
      <trkpt lat="46.23587" lon="2.82828">
        <ele>549.25</ele>
        <time>2018-04-10T09:30:58.999Z</time>
      </trkpt>
      <trkpt lat="46.23589" lon="2.82809">
        <ele>550.67</ele>
        <time>2018-04-10T09:31:01.999Z</time>
      </trkpt>
      <trkpt lat="46.2359" lon="2.82791">
        <ele>552.33</ele>
        <time>2018-04-10T09:31:04.999Z</time>
      </trkpt>
      <trkpt lat="46.23592" lon="2.82778">
        <ele>553.04</ele>
        <time>2018-04-10T09:31:06.999Z</time>
      </trkpt>
      <trkpt lat="46.23594" lon="2.82766">
        <ele>553.81</ele>
        <time>2018-04-10T09:31:08.999Z</time>
      </trkpt>
      <trkpt lat="46.23598" lon="2.82753">
        <ele>554.41</ele>
        <time>2018-04-10T09:31:10.999Z</time>
      </trkpt>
      <trkpt lat="46.23602" lon="2.82739">
        <ele>554.63</ele>
        <time>2018-04-10T09:31:12.999Z</time>
      </trkpt>
      <trkpt lat="46.23608" lon="2.82727">
        <ele>554.82</ele>
        <time>2018-04-10T09:31:14.999Z</time>
      </trkpt>
      <trkpt lat="46.23615" lon="2.82714">
        <ele>555.12</ele>
        <time>2018-04-10T09:31:16.999Z</time>
      </trkpt>
      <trkpt lat="46.23623" lon="2.82702">
        <ele>555.22</ele>
        <time>2018-04-10T09:31:18.999Z</time>
      </trkpt>
      <trkpt lat="46.23633" lon="2.82688">
        <ele>555.34</ele>
        <time>2018-04-10T09:31:20.999Z</time>
      </trkpt>
      <trkpt lat="46.23644" lon="2.82673">
        <ele>554.89</ele>
        <time>2018-04-10T09:31:22.999Z</time>
      </trkpt>
      <trkpt lat="46.23656" lon="2.82657">
        <ele>554.14</ele>
        <time>2018-04-10T09:31:24.999Z</time>
      </trkpt>
      <trkpt lat="46.23669" lon="2.8264">
        <ele>553.8</ele>
        <time>2018-04-10T09:31:26.999Z</time>
      </trkpt>
      <trkpt lat="46.23682" lon="2.82623">
        <ele>553.33</ele>
        <time>2018-04-10T09:31:28.999Z</time>
      </trkpt>
      <trkpt lat="46.23689" lon="2.82613">
        <ele>553.09</ele>
        <time>2018-04-10T09:31:29.999Z</time>
      </trkpt>
      <trkpt lat="46.23696" lon="2.82604">
        <ele>553.05</ele>
        <time>2018-04-10T09:31:30.999Z</time>
      </trkpt>
      <trkpt lat="46.23704" lon="2.82594">
        <ele>553.1</ele>
        <time>2018-04-10T09:31:31.999Z</time>
      </trkpt>
      <trkpt lat="46.23711" lon="2.82584">
        <ele>552.74</ele>
        <time>2018-04-10T09:31:32.999Z</time>
      </trkpt>
      <trkpt lat="46.23719" lon="2.82575">
        <ele>552.39</ele>
        <time>2018-04-10T09:31:33.999Z</time>
      </trkpt>
      <trkpt lat="46.23726" lon="2.82565">
        <ele>552.22</ele>
        <time>2018-04-10T09:31:34.999Z</time>
      </trkpt>
      <trkpt lat="46.23734" lon="2.82555">
        <ele>551.96</ele>
        <time>2018-04-10T09:31:35.999Z</time>
      </trkpt>
      <trkpt lat="46.23742" lon="2.82545">
        <ele>551.75</ele>
        <time>2018-04-10T09:31:36.999Z</time>
      </trkpt>
      <trkpt lat="46.2375" lon="2.82535">
        <ele>551.57</ele>
        <time>2018-04-10T09:31:37.999Z</time>
      </trkpt>
      <trkpt lat="46.23758" lon="2.82525">
        <ele>551.34</ele>
        <time>2018-04-10T09:31:38.999Z</time>
      </trkpt>
      <trkpt lat="46.23766" lon="2.82514">
        <ele>551.32</ele>
        <time>2018-04-10T09:31:39.999Z</time>
      </trkpt>
      <trkpt lat="46.23774" lon="2.82503">
        <ele>551.14</ele>
        <time>2018-04-10T09:31:40.999Z</time>
      </trkpt>
      <trkpt lat="46.23782" lon="2.82493">
        <ele>551.14</ele>
        <time>2018-04-10T09:31:41.999Z</time>
      </trkpt>
      <trkpt lat="46.2379" lon="2.82482">
        <ele>551.24</ele>
        <time>2018-04-10T09:31:42.999Z</time>
      </trkpt>
      <trkpt lat="46.23798" lon="2.82472">
        <ele>551.07</ele>
        <time>2018-04-10T09:31:43.999Z</time>
      </trkpt>
      <trkpt lat="46.23807" lon="2.82461">
        <ele>550.7</ele>
        <time>2018-04-10T09:31:44.999Z</time>
      </trkpt>
      <trkpt lat="46.23815" lon="2.8245">
        <ele>550.58</ele>
        <time>2018-04-10T09:31:45.999Z</time>
      </trkpt>
      <trkpt lat="46.23823" lon="2.8244">
        <ele>550.32</ele>
        <time>2018-04-10T09:31:46.999Z</time>
      </trkpt>
      <trkpt lat="46.23831" lon="2.82428">
        <ele>550.04</ele>
        <time>2018-04-10T09:31:47.999Z</time>
      </trkpt>
      <trkpt lat="46.23839" lon="2.82417">
        <ele>550.1</ele>
        <time>2018-04-10T09:31:48.999Z</time>
      </trkpt>
      <trkpt lat="46.23847" lon="2.82408">
        <ele>549.94</ele>
        <time>2018-04-10T09:31:49.999Z</time>
      </trkpt>
      <trkpt lat="46.23855" lon="2.82398">
        <ele>549.55</ele>
        <time>2018-04-10T09:31:50.999Z</time>
      </trkpt>
      <trkpt lat="46.23867" lon="2.82383">
        <ele>548.92</ele>
        <time>2018-04-10T09:31:52.999Z</time>
      </trkpt>
      <trkpt lat="46.2387" lon="2.8237">
        <ele>548.35</ele>
        <time>2018-04-10T09:31:54.999Z</time>
      </trkpt>
      <trkpt lat="46.23863" lon="2.82355">
        <ele>548</ele>
        <time>2018-04-10T09:31:56.999Z</time>
      </trkpt>
      <trkpt lat="46.23852" lon="2.82342">
        <ele>547.94</ele>
        <time>2018-04-10T09:31:58.999Z</time>
      </trkpt>
      <trkpt lat="46.23842" lon="2.82331">
        <ele>547.19</ele>
        <time>2018-04-10T09:32:00.999Z</time>
      </trkpt>
      <trkpt lat="46.23834" lon="2.82317">
        <ele>546.36</ele>
        <time>2018-04-10T09:32:02.999Z</time>
      </trkpt>
      <trkpt lat="46.23822" lon="2.82294">
        <ele>545.54</ele>
        <time>2018-04-10T09:32:05.999Z</time>
      </trkpt>
      <trkpt lat="46.23816" lon="2.82276">
        <ele>545.11</ele>
        <time>2018-04-10T09:32:07.999Z</time>
      </trkpt>
      <trkpt lat="46.23811" lon="2.82246">
        <ele>543.88</ele>
        <time>2018-04-10T09:32:10.999Z</time>
      </trkpt>
      <trkpt lat="46.23811" lon="2.82225">
        <ele>542.91</ele>
        <time>2018-04-10T09:32:12.999Z</time>
      </trkpt>
      <trkpt lat="46.23813" lon="2.82203">
        <ele>542.1</ele>
        <time>2018-04-10T09:32:14.999Z</time>
      </trkpt>
      <trkpt lat="46.23819" lon="2.8217">
        <ele>541.31</ele>
        <time>2018-04-10T09:32:17.999Z</time>
      </trkpt>
      <trkpt lat="46.23824" lon="2.82147">
        <ele>541.09</ele>
        <time>2018-04-10T09:32:19.999Z</time>
      </trkpt>
      <trkpt lat="46.23828" lon="2.82126">
        <ele>541.04</ele>
        <time>2018-04-10T09:32:21.999Z</time>
      </trkpt>
      <trkpt lat="46.23832" lon="2.82106">
        <ele>541.05</ele>
        <time>2018-04-10T09:32:23.999Z</time>
      </trkpt>
      <trkpt lat="46.23836" lon="2.82084">
        <ele>540.81</ele>
        <time>2018-04-10T09:32:25.999Z</time>
      </trkpt>
      <trkpt lat="46.23842" lon="2.82051">
        <ele>540.32</ele>
        <time>2018-04-10T09:32:28.999Z</time>
      </trkpt>
      <trkpt lat="46.23845" lon="2.82028">
        <ele>540.32</ele>
        <time>2018-04-10T09:32:30.999Z</time>
      </trkpt>
      <trkpt lat="46.23848" lon="2.82004">
        <ele>540.13</ele>
        <time>2018-04-10T09:32:32.999Z</time>
      </trkpt>
      <trkpt lat="46.2385" lon="2.81981">
        <ele>539.92</ele>
        <time>2018-04-10T09:32:34.999Z</time>
      </trkpt>
      <trkpt lat="46.23851" lon="2.81947">
        <ele>540.01</ele>
        <time>2018-04-10T09:32:37.999Z</time>
      </trkpt>
      <trkpt lat="46.2385" lon="2.81924">
        <ele>540.03</ele>
        <time>2018-04-10T09:32:39.999Z</time>
      </trkpt>
      <trkpt lat="46.23848" lon="2.81901">
        <ele>539.83</ele>
        <time>2018-04-10T09:32:41.999Z</time>
      </trkpt>
      <trkpt lat="46.23845" lon="2.81879">
        <ele>539.43</ele>
        <time>2018-04-10T09:32:43.999Z</time>
      </trkpt>
      <trkpt lat="46.23843" lon="2.81858">
        <ele>539.62</ele>
        <time>2018-04-10T09:32:45.999Z</time>
      </trkpt>
      <trkpt lat="46.23842" lon="2.81837">
        <ele>539.64</ele>
        <time>2018-04-10T09:32:47.999Z</time>
      </trkpt>
      <trkpt lat="46.23835" lon="2.81819">
        <ele>539.69</ele>
        <time>2018-04-10T09:32:49.999Z</time>
      </trkpt>
      <trkpt lat="46.23824" lon="2.81806">
        <ele>540.28</ele>
        <time>2018-04-10T09:32:51.999Z</time>
      </trkpt>
      <trkpt lat="46.23807" lon="2.81797">
        <ele>541.22</ele>
        <time>2018-04-10T09:32:54.999Z</time>
      </trkpt>
      <trkpt lat="46.23797" lon="2.81792">
        <ele>541.6</ele>
        <time>2018-04-10T09:32:56.999Z</time>
      </trkpt>
      <trkpt lat="46.23788" lon="2.81787">
        <ele>541.56</ele>
        <time>2018-04-10T09:32:58.999Z</time>
      </trkpt>
      <trkpt lat="46.23778" lon="2.81779">
        <ele>542.37</ele>
        <time>2018-04-10T09:33:01.999Z</time>
      </trkpt>
      <trkpt lat="46.23768" lon="2.81768">
        <ele>543.9</ele>
        <time>2018-04-10T09:33:04.999Z</time>
      </trkpt>
      <trkpt lat="46.23758" lon="2.81754">
        <ele>544.99</ele>
        <time>2018-04-10T09:33:07.999Z</time>
      </trkpt>
      <trkpt lat="46.23752" lon="2.81744">
        <ele>546.1</ele>
        <time>2018-04-10T09:33:09.999Z</time>
      </trkpt>
      <trkpt lat="46.23746" lon="2.81734">
        <ele>546.96</ele>
        <time>2018-04-10T09:33:11.999Z</time>
      </trkpt>
      <trkpt lat="46.23737" lon="2.81721">
        <ele>548.14</ele>
        <time>2018-04-10T09:33:14.999Z</time>
      </trkpt>
      <trkpt lat="46.23727" lon="2.81708">
        <ele>549.37</ele>
        <time>2018-04-10T09:33:17.999Z</time>
      </trkpt>
      <trkpt lat="46.23717" lon="2.81697">
        <ele>550.21</ele>
        <time>2018-04-10T09:33:20.999Z</time>
      </trkpt>
      <trkpt lat="46.23708" lon="2.81685">
        <ele>550.3</ele>
        <time>2018-04-10T09:33:23.999Z</time>
      </trkpt>
      <trkpt lat="46.23699" lon="2.81674">
        <ele>550.7</ele>
        <time>2018-04-10T09:33:26.999Z</time>
      </trkpt>
      <trkpt lat="46.2369" lon="2.81665">
        <ele>551.5</ele>
        <time>2018-04-10T09:33:29.999Z</time>
      </trkpt>
      <trkpt lat="46.23681" lon="2.81655">
        <ele>551.85</ele>
        <time>2018-04-10T09:33:32.999Z</time>
      </trkpt>
      <trkpt lat="46.23669" lon="2.81646">
        <ele>552.65</ele>
        <time>2018-04-10T09:33:35.999Z</time>
      </trkpt>
      <trkpt lat="46.23658" lon="2.81637">
        <ele>553.96</ele>
        <time>2018-04-10T09:33:38.999Z</time>
      </trkpt>
      <trkpt lat="46.23645" lon="2.81631">
        <ele>555.01</ele>
        <time>2018-04-10T09:33:41.999Z</time>
      </trkpt>
      <trkpt lat="46.23636" lon="2.81625">
        <ele>556.25</ele>
        <time>2018-04-10T09:33:44.999Z</time>
      </trkpt>
      <trkpt lat="46.23625" lon="2.81618">
        <ele>557.45</ele>
        <time>2018-04-10T09:33:48.999Z</time>
      </trkpt>
      <trkpt lat="46.23614" lon="2.81611">
        <ele>558.81</ele>
        <time>2018-04-10T09:33:52.999Z</time>
      </trkpt>
      <trkpt lat="46.23605" lon="2.816">
        <ele>559.63</ele>
        <time>2018-04-10T09:33:56.999Z</time>
      </trkpt>
      <trkpt lat="46.23597" lon="2.81589">
        <ele>559.88</ele>
        <time>2018-04-10T09:34:00.999Z</time>
      </trkpt>
      <trkpt lat="46.23587" lon="2.8158">
        <ele>560.14</ele>
        <time>2018-04-10T09:34:04.999Z</time>
      </trkpt>
      <trkpt lat="46.2358" lon="2.81572">
        <ele>560.67</ele>
        <time>2018-04-10T09:34:07.999Z</time>
      </trkpt>
      <trkpt lat="46.23571" lon="2.81562">
        <ele>561.2</ele>
        <time>2018-04-10T09:34:11.999Z</time>
      </trkpt>
      <trkpt lat="46.23565" lon="2.81552">
        <ele>561.86</ele>
        <time>2018-04-10T09:34:15.999Z</time>
      </trkpt>
      <trkpt lat="46.23557" lon="2.81544">
        <ele>563.41</ele>
        <time>2018-04-10T09:34:19.999Z</time>
      </trkpt>
      <trkpt lat="46.23551" lon="2.81534">
        <ele>564.79</ele>
        <time>2018-04-10T09:34:23.999Z</time>
      </trkpt>
      <trkpt lat="46.23544" lon="2.81523">
        <ele>565.83</ele>
        <time>2018-04-10T09:34:27.999Z</time>
      </trkpt>
      <trkpt lat="46.23538" lon="2.81512">
        <ele>566.98</ele>
        <time>2018-04-10T09:34:31.999Z</time>
      </trkpt>
      <trkpt lat="46.23531" lon="2.81501">
        <ele>567.76</ele>
        <time>2018-04-10T09:34:35.999Z</time>
      </trkpt>
      <trkpt lat="46.23524" lon="2.81489">
        <ele>568.95</ele>
        <time>2018-04-10T09:34:39.999Z</time>
      </trkpt>
      <trkpt lat="46.23516" lon="2.81478">
        <ele>570.05</ele>
        <time>2018-04-10T09:34:43.999Z</time>
      </trkpt>
      <trkpt lat="46.23508" lon="2.81465">
        <ele>570.21</ele>
        <time>2018-04-10T09:34:47.999Z</time>
      </trkpt>
      <trkpt lat="46.23501" lon="2.81456">
        <ele>570.9</ele>
        <time>2018-04-10T09:34:50.999Z</time>
      </trkpt>
      <trkpt lat="46.23495" lon="2.81445">
        <ele>571.06</ele>
        <time>2018-04-10T09:34:53.999Z</time>
      </trkpt>
      <trkpt lat="46.23489" lon="2.81436">
        <ele>571.29</ele>
        <time>2018-04-10T09:34:56.999Z</time>
      </trkpt>
      <trkpt lat="46.23483" lon="2.81425">
        <ele>571.94</ele>
        <time>2018-04-10T09:34:59.999Z</time>
      </trkpt>
      <trkpt lat="46.23476" lon="2.81412">
        <ele>573.07</ele>
        <time>2018-04-10T09:35:03.999Z</time>
      </trkpt>
      <trkpt lat="46.23471" lon="2.81397">
        <ele>572.9</ele>
        <time>2018-04-10T09:35:07.999Z</time>
      </trkpt>
      <trkpt lat="46.23467" lon="2.81384">
        <ele>572.98</ele>
        <time>2018-04-10T09:35:10.999Z</time>
      </trkpt>
      <trkpt lat="46.23464" lon="2.81371">
        <ele>573.27</ele>
        <time>2018-04-10T09:35:13.999Z</time>
      </trkpt>
      <trkpt lat="46.2346" lon="2.81358">
        <ele>573.47</ele>
        <time>2018-04-10T09:35:16.999Z</time>
      </trkpt>
      <trkpt lat="46.23457" lon="2.81345">
        <ele>573.86</ele>
        <time>2018-04-10T09:35:19.999Z</time>
      </trkpt>
      <trkpt lat="46.23455" lon="2.81332">
        <ele>573.84</ele>
        <time>2018-04-10T09:35:22.999Z</time>
      </trkpt>
      <trkpt lat="46.23451" lon="2.81318">
        <ele>573.72</ele>
        <time>2018-04-10T09:35:25.999Z</time>
      </trkpt>
      <trkpt lat="46.23447" lon="2.81304">
        <ele>573.63</ele>
        <time>2018-04-10T09:35:28.999Z</time>
      </trkpt>
      <trkpt lat="46.23442" lon="2.81291">
        <ele>574.14</ele>
        <time>2018-04-10T09:35:31.999Z</time>
      </trkpt>
      <trkpt lat="46.23439" lon="2.81277">
        <ele>574.44</ele>
        <time>2018-04-10T09:35:34.999Z</time>
      </trkpt>
      <trkpt lat="46.23437" lon="2.81263">
        <ele>575.06</ele>
        <time>2018-04-10T09:35:37.999Z</time>
      </trkpt>
      <trkpt lat="46.23434" lon="2.81249">
        <ele>575.92</ele>
        <time>2018-04-10T09:35:40.999Z</time>
      </trkpt>
      <trkpt lat="46.23432" lon="2.81235">
        <ele>576.41</ele>
        <time>2018-04-10T09:35:43.999Z</time>
      </trkpt>
      <trkpt lat="46.23428" lon="2.81221">
        <ele>576.4</ele>
        <time>2018-04-10T09:35:46.999Z</time>
      </trkpt>
      <trkpt lat="46.23425" lon="2.81206">
        <ele>576.1</ele>
        <time>2018-04-10T09:35:49.999Z</time>
      </trkpt>
      <trkpt lat="46.23421" lon="2.81193">
        <ele>576</ele>
        <time>2018-04-10T09:35:52.999Z</time>
      </trkpt>
      <trkpt lat="46.23418" lon="2.81178">
        <ele>575.99</ele>
        <time>2018-04-10T09:35:55.999Z</time>
      </trkpt>
      <trkpt lat="46.23415" lon="2.81165">
        <ele>576.32</ele>
        <time>2018-04-10T09:35:58.999Z</time>
      </trkpt>
      <trkpt lat="46.23411" lon="2.81151">
        <ele>577.46</ele>
        <time>2018-04-10T09:36:01.999Z</time>
      </trkpt>
      <trkpt lat="46.23407" lon="2.81136">
        <ele>578.26</ele>
        <time>2018-04-10T09:36:04.999Z</time>
      </trkpt>
      <trkpt lat="46.23404" lon="2.81123">
        <ele>578.15</ele>
        <time>2018-04-10T09:36:07.999Z</time>
      </trkpt>
      <trkpt lat="46.23401" lon="2.81108">
        <ele>578.46</ele>
        <time>2018-04-10T09:36:10.999Z</time>
      </trkpt>
      <trkpt lat="46.23397" lon="2.8109">
        <ele>578.5</ele>
        <time>2018-04-10T09:36:13.999Z</time>
      </trkpt>
      <trkpt lat="46.23394" lon="2.81078">
        <ele>578.59</ele>
        <time>2018-04-10T09:36:15.999Z</time>
      </trkpt>
      <trkpt lat="46.23391" lon="2.81065">
        <ele>578.64</ele>
        <time>2018-04-10T09:36:17.999Z</time>
      </trkpt>
      <trkpt lat="46.23387" lon="2.81051">
        <ele>578.72</ele>
        <time>2018-04-10T09:36:19.999Z</time>
      </trkpt>
      <trkpt lat="46.23385" lon="2.81036">
        <ele>578.56</ele>
        <time>2018-04-10T09:36:21.999Z</time>
      </trkpt>
      <trkpt lat="46.23382" lon="2.81021">
        <ele>578.41</ele>
        <time>2018-04-10T09:36:23.999Z</time>
      </trkpt>
      <trkpt lat="46.2338" lon="2.81004">
        <ele>578.34</ele>
        <time>2018-04-10T09:36:25.999Z</time>
      </trkpt>
      <trkpt lat="46.23378" lon="2.80987">
        <ele>578.36</ele>
        <time>2018-04-10T09:36:27.999Z</time>
      </trkpt>
      <trkpt lat="46.23377" lon="2.80969">
        <ele>578.26</ele>
        <time>2018-04-10T09:36:29.999Z</time>
      </trkpt>
      <trkpt lat="46.23376" lon="2.8095">
        <ele>578.07</ele>
        <time>2018-04-10T09:36:31.999Z</time>
      </trkpt>
      <trkpt lat="46.23375" lon="2.8093">
        <ele>577.96</ele>
        <time>2018-04-10T09:36:33.998Z</time>
      </trkpt>
      <trkpt lat="46.23375" lon="2.80909">
        <ele>577.51</ele>
        <time>2018-04-10T09:36:35.999Z</time>
      </trkpt>
      <trkpt lat="46.23375" lon="2.80887">
        <ele>577.35</ele>
        <time>2018-04-10T09:36:37.999Z</time>
      </trkpt>
      <trkpt lat="46.23375" lon="2.80865">
        <ele>576.9</ele>
        <time>2018-04-10T09:36:39.999Z</time>
      </trkpt>
      <trkpt lat="46.23373" lon="2.80841">
        <ele>576.48</ele>
        <time>2018-04-10T09:36:41.999Z</time>
      </trkpt>
      <trkpt lat="46.23373" lon="2.80816">
        <ele>576.07</ele>
        <time>2018-04-10T09:36:43.999Z</time>
      </trkpt>
      <trkpt lat="46.23374" lon="2.80791">
        <ele>575.45</ele>
        <time>2018-04-10T09:36:45.999Z</time>
      </trkpt>
      <trkpt lat="46.23374" lon="2.80778">
        <ele>575.24</ele>
        <time>2018-04-10T09:36:46.999Z</time>
      </trkpt>
      <trkpt lat="46.23374" lon="2.80765">
        <ele>575.14</ele>
        <time>2018-04-10T09:36:47.999Z</time>
      </trkpt>
      <trkpt lat="46.23373" lon="2.8074">
        <ele>574.98</ele>
        <time>2018-04-10T09:36:49.999Z</time>
      </trkpt>
      <trkpt lat="46.23373" lon="2.80726">
        <ele>574.73</ele>
        <time>2018-04-10T09:36:50.999Z</time>
      </trkpt>
      <trkpt lat="46.23373" lon="2.80712">
        <ele>574.38</ele>
        <time>2018-04-10T09:36:51.999Z</time>
      </trkpt>
      <trkpt lat="46.23373" lon="2.80698">
        <ele>574.19</ele>
        <time>2018-04-10T09:36:52.999Z</time>
      </trkpt>
      <trkpt lat="46.23372" lon="2.80685">
        <ele>574.02</ele>
        <time>2018-04-10T09:36:53.999Z</time>
      </trkpt>
      <trkpt lat="46.23372" lon="2.80671">
        <ele>574.08</ele>
        <time>2018-04-10T09:36:54.999Z</time>
      </trkpt>
      <trkpt lat="46.23371" lon="2.80645">
        <ele>573.98</ele>
        <time>2018-04-10T09:36:56.999Z</time>
      </trkpt>
      <trkpt lat="46.23371" lon="2.80631">
        <ele>573.81</ele>
        <time>2018-04-10T09:36:57.999Z</time>
      </trkpt>
      <trkpt lat="46.2337" lon="2.80617">
        <ele>573.57</ele>
        <time>2018-04-10T09:36:58.999Z</time>
      </trkpt>
      <trkpt lat="46.2337" lon="2.80603">
        <ele>573.33</ele>
        <time>2018-04-10T09:36:59.999Z</time>
      </trkpt>
      <trkpt lat="46.2337" lon="2.80589">
        <ele>573.13</ele>
        <time>2018-04-10T09:37:00.999Z</time>
      </trkpt>
      <trkpt lat="46.2337" lon="2.80575">
        <ele>572.89</ele>
        <time>2018-04-10T09:37:01.999Z</time>
      </trkpt>
      <trkpt lat="46.2337" lon="2.80561">
        <ele>572.62</ele>
        <time>2018-04-10T09:37:02.999Z</time>
      </trkpt>
      <trkpt lat="46.2337" lon="2.80546">
        <ele>572.32</ele>
        <time>2018-04-10T09:37:03.999Z</time>
      </trkpt>
      <trkpt lat="46.2337" lon="2.80532">
        <ele>571.87</ele>
        <time>2018-04-10T09:37:04.999Z</time>
      </trkpt>
      <trkpt lat="46.23369" lon="2.80518">
        <ele>571.45</ele>
        <time>2018-04-10T09:37:05.999Z</time>
      </trkpt>
      <trkpt lat="46.23368" lon="2.80503">
        <ele>571</ele>
        <time>2018-04-10T09:37:06.999Z</time>
      </trkpt>
      <trkpt lat="46.23367" lon="2.80488">
        <ele>570.67</ele>
        <time>2018-04-10T09:37:07.999Z</time>
      </trkpt>
      <trkpt lat="46.23366" lon="2.80472">
        <ele>570.22</ele>
        <time>2018-04-10T09:37:08.999Z</time>
      </trkpt>
      <trkpt lat="46.23364" lon="2.80457">
        <ele>569.82</ele>
        <time>2018-04-10T09:37:09.999Z</time>
      </trkpt>
      <trkpt lat="46.23363" lon="2.80442">
        <ele>569.48</ele>
        <time>2018-04-10T09:37:10.999Z</time>
      </trkpt>
      <trkpt lat="46.23362" lon="2.80426">
        <ele>569.1</ele>
        <time>2018-04-10T09:37:11.999Z</time>
      </trkpt>
      <trkpt lat="46.2336" lon="2.80411">
        <ele>568.89</ele>
        <time>2018-04-10T09:37:12.999Z</time>
      </trkpt>
      <trkpt lat="46.23359" lon="2.80396">
        <ele>568.64</ele>
        <time>2018-04-10T09:37:13.999Z</time>
      </trkpt>
      <trkpt lat="46.23358" lon="2.8038">
        <ele>568.28</ele>
        <time>2018-04-10T09:37:14.999Z</time>
      </trkpt>
      <trkpt lat="46.23357" lon="2.80365">
        <ele>567.76</ele>
        <time>2018-04-10T09:37:15.999Z</time>
      </trkpt>
      <trkpt lat="46.23356" lon="2.8035">
        <ele>567.24</ele>
        <time>2018-04-10T09:37:16.999Z</time>
      </trkpt>
      <trkpt lat="46.23355" lon="2.80334">
        <ele>566.59</ele>
        <time>2018-04-10T09:37:17.999Z</time>
      </trkpt>
      <trkpt lat="46.23354" lon="2.80318">
        <ele>565.98</ele>
        <time>2018-04-10T09:37:18.999Z</time>
      </trkpt>
      <trkpt lat="46.23352" lon="2.80303">
        <ele>565.34</ele>
        <time>2018-04-10T09:37:19.999Z</time>
      </trkpt>
      <trkpt lat="46.23351" lon="2.80287">
        <ele>564.78</ele>
        <time>2018-04-10T09:37:20.999Z</time>
      </trkpt>
      <trkpt lat="46.2335" lon="2.80272">
        <ele>564.19</ele>
        <time>2018-04-10T09:37:21.999Z</time>
      </trkpt>
      <trkpt lat="46.23349" lon="2.80256">
        <ele>563.71</ele>
        <time>2018-04-10T09:37:22.999Z</time>
      </trkpt>
      <trkpt lat="46.23348" lon="2.8024">
        <ele>563.1</ele>
        <time>2018-04-10T09:37:23.999Z</time>
      </trkpt>
      <trkpt lat="46.23346" lon="2.80224">
        <ele>562.57</ele>
        <time>2018-04-10T09:37:24.999Z</time>
      </trkpt>
      <trkpt lat="46.23344" lon="2.80208">
        <ele>562.05</ele>
        <time>2018-04-10T09:37:25.999Z</time>
      </trkpt>
      <trkpt lat="46.23342" lon="2.80192">
        <ele>561.4</ele>
        <time>2018-04-10T09:37:26.999Z</time>
      </trkpt>
      <trkpt lat="46.2334" lon="2.80176">
        <ele>560.83</ele>
        <time>2018-04-10T09:37:27.999Z</time>
      </trkpt>
      <trkpt lat="46.23336" lon="2.8016">
        <ele>560.14</ele>
        <time>2018-04-10T09:37:28.999Z</time>
      </trkpt>
      <trkpt lat="46.23332" lon="2.80145">
        <ele>559.53</ele>
        <time>2018-04-10T09:37:29.999Z</time>
      </trkpt>
      <trkpt lat="46.23327" lon="2.80129">
        <ele>558.92</ele>
        <time>2018-04-10T09:37:30.999Z</time>
      </trkpt>
      <trkpt lat="46.23321" lon="2.80114">
        <ele>558.49</ele>
        <time>2018-04-10T09:37:31.999Z</time>
      </trkpt>
      <trkpt lat="46.23315" lon="2.801">
        <ele>558.14</ele>
        <time>2018-04-10T09:37:32.999Z</time>
      </trkpt>
      <trkpt lat="46.23311" lon="2.80085">
        <ele>557.78</ele>
        <time>2018-04-10T09:37:33.999Z</time>
      </trkpt>
      <trkpt lat="46.23307" lon="2.8007">
        <ele>557.39</ele>
        <time>2018-04-10T09:37:34.999Z</time>
      </trkpt>
      <trkpt lat="46.23305" lon="2.80054">
        <ele>556.87</ele>
        <time>2018-04-10T09:37:35.999Z</time>
      </trkpt>
      <trkpt lat="46.23303" lon="2.80038">
        <ele>556.49</ele>
        <time>2018-04-10T09:37:36.999Z</time>
      </trkpt>
      <trkpt lat="46.23303" lon="2.80021">
        <ele>556.25</ele>
        <time>2018-04-10T09:37:37.999Z</time>
      </trkpt>
      <trkpt lat="46.23303" lon="2.80004">
        <ele>555.72</ele>
        <time>2018-04-10T09:37:38.999Z</time>
      </trkpt>
      <trkpt lat="46.23303" lon="2.79986">
        <ele>555.03</ele>
        <time>2018-04-10T09:37:39.999Z</time>
      </trkpt>
      <trkpt lat="46.23303" lon="2.79969">
        <ele>554.52</ele>
        <time>2018-04-10T09:37:40.999Z</time>
      </trkpt>
      <trkpt lat="46.23303" lon="2.79951">
        <ele>554.13</ele>
        <time>2018-04-10T09:37:41.999Z</time>
      </trkpt>
      <trkpt lat="46.23302" lon="2.79934">
        <ele>553.38</ele>
        <time>2018-04-10T09:37:42.999Z</time>
      </trkpt>
      <trkpt lat="46.23299" lon="2.79916">
        <ele>552.71</ele>
        <time>2018-04-10T09:37:43.999Z</time>
      </trkpt>
      <trkpt lat="46.23296" lon="2.79899">
        <ele>551.78</ele>
        <time>2018-04-10T09:37:44.999Z</time>
      </trkpt>
      <trkpt lat="46.23291" lon="2.79881">
        <ele>551.01</ele>
        <time>2018-04-10T09:37:45.999Z</time>
      </trkpt>
      <trkpt lat="46.23285" lon="2.79865">
        <ele>550.17</ele>
        <time>2018-04-10T09:37:46.999Z</time>
      </trkpt>
      <trkpt lat="46.23279" lon="2.79848">
        <ele>549.21</ele>
        <time>2018-04-10T09:37:47.999Z</time>
      </trkpt>
      <trkpt lat="46.23275" lon="2.79832">
        <ele>548.21</ele>
        <time>2018-04-10T09:37:48.999Z</time>
      </trkpt>
      <trkpt lat="46.23271" lon="2.79816">
        <ele>547.17</ele>
        <time>2018-04-10T09:37:49.999Z</time>
      </trkpt>
      <trkpt lat="46.23269" lon="2.798">
        <ele>546.22</ele>
        <time>2018-04-10T09:37:50.999Z</time>
      </trkpt>
      <trkpt lat="46.23267" lon="2.79786">
        <ele>545.13</ele>
        <time>2018-04-10T09:37:51.999Z</time>
      </trkpt>
      <trkpt lat="46.23268" lon="2.79772">
        <ele>543.65</ele>
        <time>2018-04-10T09:37:52.999Z</time>
      </trkpt>
      <trkpt lat="46.23271" lon="2.79758">
        <ele>542.79</ele>
        <time>2018-04-10T09:37:53.999Z</time>
      </trkpt>
      <trkpt lat="46.23277" lon="2.79746">
        <ele>541.97</ele>
        <time>2018-04-10T09:37:54.999Z</time>
      </trkpt>
      <trkpt lat="46.23285" lon="2.79735">
        <ele>541.22</ele>
        <time>2018-04-10T09:37:55.999Z</time>
      </trkpt>
      <trkpt lat="46.23293" lon="2.79725">
        <ele>540.49</ele>
        <time>2018-04-10T09:37:56.999Z</time>
      </trkpt>
      <trkpt lat="46.23302" lon="2.79715">
        <ele>539.63</ele>
        <time>2018-04-10T09:37:57.999Z</time>
      </trkpt>
      <trkpt lat="46.23309" lon="2.79705">
        <ele>538.64</ele>
        <time>2018-04-10T09:37:58.999Z</time>
      </trkpt>
      <trkpt lat="46.23314" lon="2.79682">
        <ele>537.15</ele>
        <time>2018-04-10T09:38:00.999Z</time>
      </trkpt>
      <trkpt lat="46.23312" lon="2.79669">
        <ele>536.57</ele>
        <time>2018-04-10T09:38:01.999Z</time>
      </trkpt>
      <trkpt lat="46.23307" lon="2.79655">
        <ele>536.03</ele>
        <time>2018-04-10T09:38:02.999Z</time>
      </trkpt>
      <trkpt lat="46.233" lon="2.79642">
        <ele>535.39</ele>
        <time>2018-04-10T09:38:03.999Z</time>
      </trkpt>
      <trkpt lat="46.23291" lon="2.79631">
        <ele>534.84</ele>
        <time>2018-04-10T09:38:04.999Z</time>
      </trkpt>
      <trkpt lat="46.23282" lon="2.79621">
        <ele>534.16</ele>
        <time>2018-04-10T09:38:05.999Z</time>
      </trkpt>
      <trkpt lat="46.23272" lon="2.79611">
        <ele>533.58</ele>
        <time>2018-04-10T09:38:06.999Z</time>
      </trkpt>
      <trkpt lat="46.23262" lon="2.79601">
        <ele>532.76</ele>
        <time>2018-04-10T09:38:07.999Z</time>
      </trkpt>
      <trkpt lat="46.23252" lon="2.79592">
        <ele>531.93</ele>
        <time>2018-04-10T09:38:08.999Z</time>
      </trkpt>
      <trkpt lat="46.23242" lon="2.79582">
        <ele>531.15</ele>
        <time>2018-04-10T09:38:09.999Z</time>
      </trkpt>
      <trkpt lat="46.23234" lon="2.79571">
        <ele>530.35</ele>
        <time>2018-04-10T09:38:10.999Z</time>
      </trkpt>
      <trkpt lat="46.23227" lon="2.79559">
        <ele>529.64</ele>
        <time>2018-04-10T09:38:11.999Z</time>
      </trkpt>
      <trkpt lat="46.2322" lon="2.79546">
        <ele>529.03</ele>
        <time>2018-04-10T09:38:12.999Z</time>
      </trkpt>
      <trkpt lat="46.23216" lon="2.79531">
        <ele>528.46</ele>
        <time>2018-04-10T09:38:13.999Z</time>
      </trkpt>
      <trkpt lat="46.23213" lon="2.79514">
        <ele>527.59</ele>
        <time>2018-04-10T09:38:14.999Z</time>
      </trkpt>
      <trkpt lat="46.23211" lon="2.79497">
        <ele>526.66</ele>
        <time>2018-04-10T09:38:15.999Z</time>
      </trkpt>
      <trkpt lat="46.23211" lon="2.79478">
        <ele>525.61</ele>
        <time>2018-04-10T09:38:16.999Z</time>
      </trkpt>
      <trkpt lat="46.23212" lon="2.79459">
        <ele>524.55</ele>
        <time>2018-04-10T09:38:17.999Z</time>
      </trkpt>
      <trkpt lat="46.23214" lon="2.79441">
        <ele>523.32</ele>
        <time>2018-04-10T09:38:18.999Z</time>
      </trkpt>
      <trkpt lat="46.23216" lon="2.79422">
        <ele>522</ele>
        <time>2018-04-10T09:38:19.999Z</time>
      </trkpt>
      <trkpt lat="46.23217" lon="2.79404">
        <ele>520.66</ele>
        <time>2018-04-10T09:38:20.999Z</time>
      </trkpt>
      <trkpt lat="46.23218" lon="2.79385">
        <ele>519.45</ele>
        <time>2018-04-10T09:38:21.999Z</time>
      </trkpt>
      <trkpt lat="46.23218" lon="2.79366">
        <ele>518.41</ele>
        <time>2018-04-10T09:38:22.999Z</time>
      </trkpt>
      <trkpt lat="46.23216" lon="2.79347">
        <ele>517.26</ele>
        <time>2018-04-10T09:38:23.999Z</time>
      </trkpt>
      <trkpt lat="46.23212" lon="2.79328">
        <ele>516.17</ele>
        <time>2018-04-10T09:38:24.999Z</time>
      </trkpt>
      <trkpt lat="46.23208" lon="2.79309">
        <ele>515.41</ele>
        <time>2018-04-10T09:38:25.999Z</time>
      </trkpt>
      <trkpt lat="46.23205" lon="2.79291">
        <ele>514.32</ele>
        <time>2018-04-10T09:38:26.999Z</time>
      </trkpt>
      <trkpt lat="46.23201" lon="2.79272">
        <ele>513.14</ele>
        <time>2018-04-10T09:38:27.999Z</time>
      </trkpt>
      <trkpt lat="46.23198" lon="2.79254">
        <ele>512.3</ele>
        <time>2018-04-10T09:38:28.999Z</time>
      </trkpt>
      <trkpt lat="46.23194" lon="2.79235">
        <ele>511.26</ele>
        <time>2018-04-10T09:38:29.999Z</time>
      </trkpt>
      <trkpt lat="46.23191" lon="2.79216">
        <ele>510.16</ele>
        <time>2018-04-10T09:38:30.999Z</time>
      </trkpt>
      <trkpt lat="46.23187" lon="2.79197">
        <ele>508.65</ele>
        <time>2018-04-10T09:38:31.999Z</time>
      </trkpt>
      <trkpt lat="46.23182" lon="2.79178">
        <ele>507.72</ele>
        <time>2018-04-10T09:38:32.999Z</time>
      </trkpt>
      <trkpt lat="46.23176" lon="2.79159">
        <ele>506.99</ele>
        <time>2018-04-10T09:38:33.999Z</time>
      </trkpt>
      <trkpt lat="46.23169" lon="2.79142">
        <ele>506.32</ele>
        <time>2018-04-10T09:38:34.999Z</time>
      </trkpt>
      <trkpt lat="46.2316" lon="2.79126">
        <ele>505.79</ele>
        <time>2018-04-10T09:38:35.999Z</time>
      </trkpt>
      <trkpt lat="46.2315" lon="2.79113">
        <ele>505.37</ele>
        <time>2018-04-10T09:38:36.999Z</time>
      </trkpt>
      <trkpt lat="46.2314" lon="2.79101">
        <ele>504.78</ele>
        <time>2018-04-10T09:38:37.999Z</time>
      </trkpt>
      <trkpt lat="46.2313" lon="2.79091">
        <ele>504.08</ele>
        <time>2018-04-10T09:38:38.999Z</time>
      </trkpt>
      <trkpt lat="46.23121" lon="2.79081">
        <ele>503.37</ele>
        <time>2018-04-10T09:38:39.999Z</time>
      </trkpt>
      <trkpt lat="46.23113" lon="2.79071">
        <ele>503.06</ele>
        <time>2018-04-10T09:38:40.999Z</time>
      </trkpt>
      <trkpt lat="46.23108" lon="2.79059">
        <ele>502.67</ele>
        <time>2018-04-10T09:38:41.999Z</time>
      </trkpt>
      <trkpt lat="46.23106" lon="2.79045">
        <ele>502.43</ele>
        <time>2018-04-10T09:38:42.999Z</time>
      </trkpt>
      <trkpt lat="46.23105" lon="2.79032">
        <ele>502.06</ele>
        <time>2018-04-10T09:38:43.999Z</time>
      </trkpt>
      <trkpt lat="46.23111" lon="2.79008">
        <ele>501.5</ele>
        <time>2018-04-10T09:38:45.999Z</time>
      </trkpt>
      <trkpt lat="46.2312" lon="2.7899">
        <ele>501.42</ele>
        <time>2018-04-10T09:38:47.999Z</time>
      </trkpt>
      <trkpt lat="46.2313" lon="2.78974">
        <ele>502.03</ele>
        <time>2018-04-10T09:38:49.999Z</time>
      </trkpt>
      <trkpt lat="46.23139" lon="2.78963">
        <ele>502.68</ele>
        <time>2018-04-10T09:38:51.999Z</time>
      </trkpt>
      <trkpt lat="46.23149" lon="2.78953">
        <ele>504.04</ele>
        <time>2018-04-10T09:38:53.999Z</time>
      </trkpt>
      <trkpt lat="46.23156" lon="2.78943">
        <ele>504.59</ele>
        <time>2018-04-10T09:38:55.999Z</time>
      </trkpt>
      <trkpt lat="46.23166" lon="2.78929">
        <ele>504.72</ele>
        <time>2018-04-10T09:38:58.999Z</time>
      </trkpt>
      <trkpt lat="46.23171" lon="2.78917">
        <ele>505.11</ele>
        <time>2018-04-10T09:39:00.999Z</time>
      </trkpt>
      <trkpt lat="46.23174" lon="2.78905">
        <ele>505.19</ele>
        <time>2018-04-10T09:39:02.999Z</time>
      </trkpt>
      <trkpt lat="46.23177" lon="2.78888">
        <ele>505.63</ele>
        <time>2018-04-10T09:39:05.999Z</time>
      </trkpt>
      <trkpt lat="46.23177" lon="2.78873">
        <ele>506.38</ele>
        <time>2018-04-10T09:39:08.999Z</time>
      </trkpt>
      <trkpt lat="46.23177" lon="2.78857">
        <ele>506.68</ele>
        <time>2018-04-10T09:39:11.999Z</time>
      </trkpt>
      <trkpt lat="46.23173" lon="2.78843">
        <ele>507.35</ele>
        <time>2018-04-10T09:39:14.999Z</time>
      </trkpt>
      <trkpt lat="46.23167" lon="2.78828">
        <ele>509.24</ele>
        <time>2018-04-10T09:39:17.999Z</time>
      </trkpt>
      <trkpt lat="46.23159" lon="2.78815">
        <ele>511.72</ele>
        <time>2018-04-10T09:39:20.999Z</time>
      </trkpt>
      <trkpt lat="46.23153" lon="2.78804">
        <ele>513.12</ele>
        <time>2018-04-10T09:39:23.999Z</time>
      </trkpt>
      <trkpt lat="46.23147" lon="2.78794">
        <ele>513.6</ele>
        <time>2018-04-10T09:39:26.999Z</time>
      </trkpt>
      <trkpt lat="46.2314" lon="2.78781">
        <ele>514.2</ele>
        <time>2018-04-10T09:39:30.999Z</time>
      </trkpt>
      <trkpt lat="46.23133" lon="2.78769">
        <ele>514.46</ele>
        <time>2018-04-10T09:39:34.999Z</time>
      </trkpt>
      <trkpt lat="46.23126" lon="2.78757">
        <ele>515.24</ele>
        <time>2018-04-10T09:39:38.999Z</time>
      </trkpt>
      <trkpt lat="46.23118" lon="2.78744">
        <ele>516.27</ele>
        <time>2018-04-10T09:39:42.999Z</time>
      </trkpt>
      <trkpt lat="46.23111" lon="2.78734">
        <ele>517</ele>
        <time>2018-04-10T09:39:45.999Z</time>
      </trkpt>
      <trkpt lat="46.23102" lon="2.78722">
        <ele>518.27</ele>
        <time>2018-04-10T09:39:49.999Z</time>
      </trkpt>
      <trkpt lat="46.23093" lon="2.78711">
        <ele>519.69</ele>
        <time>2018-04-10T09:39:53.999Z</time>
      </trkpt>
      <trkpt lat="46.23086" lon="2.78702">
        <ele>520.73</ele>
        <time>2018-04-10T09:39:57.999Z</time>
      </trkpt>
      <trkpt lat="46.23078" lon="2.78695">
        <ele>522.54</ele>
        <time>2018-04-10T09:40:01.999Z</time>
      </trkpt>
      <trkpt lat="46.23069" lon="2.78687">
        <ele>524.35</ele>
        <time>2018-04-10T09:40:05.999Z</time>
      </trkpt>
      <trkpt lat="46.23061" lon="2.78678">
        <ele>525.96</ele>
        <time>2018-04-10T09:40:09.999Z</time>
      </trkpt>
      <trkpt lat="46.23053" lon="2.7867">
        <ele>526.87</ele>
        <time>2018-04-10T09:40:13.999Z</time>
      </trkpt>
      <trkpt lat="46.23045" lon="2.78663">
        <ele>527.43</ele>
        <time>2018-04-10T09:40:17.999Z</time>
      </trkpt>
      <trkpt lat="46.23037" lon="2.78656">
        <ele>528.91</ele>
        <time>2018-04-10T09:40:21.999Z</time>
      </trkpt>
      <trkpt lat="46.23028" lon="2.7865">
        <ele>530.62</ele>
        <time>2018-04-10T09:40:25.999Z</time>
      </trkpt>
      <trkpt lat="46.23019" lon="2.78643">
        <ele>531.88</ele>
        <time>2018-04-10T09:40:29.999Z</time>
      </trkpt>
      <trkpt lat="46.2301" lon="2.78635">
        <ele>532.28</ele>
        <time>2018-04-10T09:40:33.999Z</time>
      </trkpt>
      <trkpt lat="46.23002" lon="2.78627">
        <ele>533.87</ele>
        <time>2018-04-10T09:40:37.999Z</time>
      </trkpt>
      <trkpt lat="46.22992" lon="2.78618">
        <ele>536.23</ele>
        <time>2018-04-10T09:40:41.999Z</time>
      </trkpt>
      <trkpt lat="46.22983" lon="2.78608">
        <ele>537.93</ele>
        <time>2018-04-10T09:40:45.999Z</time>
      </trkpt>
      <trkpt lat="46.22973" lon="2.786">
        <ele>539.99</ele>
        <time>2018-04-10T09:40:49.999Z</time>
      </trkpt>
      <trkpt lat="46.22964" lon="2.78592">
        <ele>541.79</ele>
        <time>2018-04-10T09:40:53.999Z</time>
      </trkpt>
      <trkpt lat="46.22955" lon="2.78583">
        <ele>543.01</ele>
        <time>2018-04-10T09:40:57.999Z</time>
      </trkpt>
      <trkpt lat="46.22948" lon="2.78576">
        <ele>544</ele>
        <time>2018-04-10T09:41:00.999Z</time>
      </trkpt>
      <trkpt lat="46.22939" lon="2.78569">
        <ele>545.29</ele>
        <time>2018-04-10T09:41:04.999Z</time>
      </trkpt>
      <trkpt lat="46.22929" lon="2.78559">
        <ele>546.43</ele>
        <time>2018-04-10T09:41:08.999Z</time>
      </trkpt>
      <trkpt lat="46.22921" lon="2.78548">
        <ele>546.72</ele>
        <time>2018-04-10T09:41:12.999Z</time>
      </trkpt>
      <trkpt lat="46.22914" lon="2.7854">
        <ele>546.57</ele>
        <time>2018-04-10T09:41:15.999Z</time>
      </trkpt>
      <trkpt lat="46.22905" lon="2.78533">
        <ele>546.77</ele>
        <time>2018-04-10T09:41:18.999Z</time>
      </trkpt>
      <trkpt lat="46.22897" lon="2.78525">
        <ele>547.27</ele>
        <time>2018-04-10T09:41:21.999Z</time>
      </trkpt>
      <trkpt lat="46.22889" lon="2.78517">
        <ele>547.49</ele>
        <time>2018-04-10T09:41:24.999Z</time>
      </trkpt>
      <trkpt lat="46.2288" lon="2.78508">
        <ele>547.71</ele>
        <time>2018-04-10T09:41:27.999Z</time>
      </trkpt>
      <trkpt lat="46.22872" lon="2.78497">
        <ele>547.78</ele>
        <time>2018-04-10T09:41:30.999Z</time>
      </trkpt>
      <trkpt lat="46.22862" lon="2.78485">
        <ele>547.59</ele>
        <time>2018-04-10T09:41:33.999Z</time>
      </trkpt>
      <trkpt lat="46.22856" lon="2.78476">
        <ele>547.19</ele>
        <time>2018-04-10T09:41:35.999Z</time>
      </trkpt>
      <trkpt lat="46.2285" lon="2.78465">
        <ele>546.88</ele>
        <time>2018-04-10T09:41:37.999Z</time>
      </trkpt>
      <trkpt lat="46.22845" lon="2.78452">
        <ele>546.66</ele>
        <time>2018-04-10T09:41:39.999Z</time>
      </trkpt>
      <trkpt lat="46.22841" lon="2.78439">
        <ele>546.58</ele>
        <time>2018-04-10T09:41:41.999Z</time>
      </trkpt>
      <trkpt lat="46.22837" lon="2.78426">
        <ele>546.58</ele>
        <time>2018-04-10T09:41:43.999Z</time>
      </trkpt>
      <trkpt lat="46.22834" lon="2.78413">
        <ele>546.63</ele>
        <time>2018-04-10T09:41:45.999Z</time>
      </trkpt>
      <trkpt lat="46.22831" lon="2.78399">
        <ele>546.74</ele>
        <time>2018-04-10T09:41:47.999Z</time>
      </trkpt>
      <trkpt lat="46.2283" lon="2.78385">
        <ele>546.89</ele>
        <time>2018-04-10T09:41:49.999Z</time>
      </trkpt>
      <trkpt lat="46.22828" lon="2.78369">
        <ele>546.74</ele>
        <time>2018-04-10T09:41:51.999Z</time>
      </trkpt>
      <trkpt lat="46.22825" lon="2.78351">
        <ele>546.52</ele>
        <time>2018-04-10T09:41:53.999Z</time>
      </trkpt>
      <trkpt lat="46.22821" lon="2.78332">
        <ele>545.67</ele>
        <time>2018-04-10T09:41:55.999Z</time>
      </trkpt>
      <trkpt lat="46.22817" lon="2.78308">
        <ele>543.99</ele>
        <time>2018-04-10T09:41:57.999Z</time>
      </trkpt>
      <trkpt lat="46.22814" lon="2.78283">
        <ele>542.18</ele>
        <time>2018-04-10T09:41:59.999Z</time>
      </trkpt>
      <trkpt lat="46.22812" lon="2.7827">
        <ele>541.42</ele>
        <time>2018-04-10T09:42:00.999Z</time>
      </trkpt>
      <trkpt lat="46.22811" lon="2.78257">
        <ele>540.74</ele>
        <time>2018-04-10T09:42:01.999Z</time>
      </trkpt>
      <trkpt lat="46.22809" lon="2.78243">
        <ele>539.95</ele>
        <time>2018-04-10T09:42:02.999Z</time>
      </trkpt>
      <trkpt lat="46.22807" lon="2.78228">
        <ele>539.12</ele>
        <time>2018-04-10T09:42:03.999Z</time>
      </trkpt>
      <trkpt lat="46.22804" lon="2.78214">
        <ele>538.08</ele>
        <time>2018-04-10T09:42:04.999Z</time>
      </trkpt>
      <trkpt lat="46.22802" lon="2.78199">
        <ele>537.2</ele>
        <time>2018-04-10T09:42:05.999Z</time>
      </trkpt>
      <trkpt lat="46.228" lon="2.78185">
        <ele>536.2</ele>
        <time>2018-04-10T09:42:06.999Z</time>
      </trkpt>
      <trkpt lat="46.22799" lon="2.78171">
        <ele>535.24</ele>
        <time>2018-04-10T09:42:07.999Z</time>
      </trkpt>
      <trkpt lat="46.22798" lon="2.78156">
        <ele>534.38</ele>
        <time>2018-04-10T09:42:08.999Z</time>
      </trkpt>
      <trkpt lat="46.22799" lon="2.78142">
        <ele>533.74</ele>
        <time>2018-04-10T09:42:09.999Z</time>
      </trkpt>
      <trkpt lat="46.22802" lon="2.78129">
        <ele>533.24</ele>
        <time>2018-04-10T09:42:10.999Z</time>
      </trkpt>
      <trkpt lat="46.22807" lon="2.78116">
        <ele>532.91</ele>
        <time>2018-04-10T09:42:11.999Z</time>
      </trkpt>
      <trkpt lat="46.22814" lon="2.78104">
        <ele>532.67</ele>
        <time>2018-04-10T09:42:12.999Z</time>
      </trkpt>
      <trkpt lat="46.22822" lon="2.78094">
        <ele>532.67</ele>
        <time>2018-04-10T09:42:13.999Z</time>
      </trkpt>
      <trkpt lat="46.22831" lon="2.78085">
        <ele>532.4</ele>
        <time>2018-04-10T09:42:14.999Z</time>
      </trkpt>
      <trkpt lat="46.22839" lon="2.78077">
        <ele>531.73</ele>
        <time>2018-04-10T09:42:15.999Z</time>
      </trkpt>
      <trkpt lat="46.22847" lon="2.7807">
        <ele>531.06</ele>
        <time>2018-04-10T09:42:16.999Z</time>
      </trkpt>
      <trkpt lat="46.22862" lon="2.78063">
        <ele>530.17</ele>
        <time>2018-04-10T09:42:18.999Z</time>
      </trkpt>
      <trkpt lat="46.2287" lon="2.78054">
        <ele>529.41</ele>
        <time>2018-04-10T09:42:21.999Z</time>
      </trkpt>
      <trkpt lat="46.22861" lon="2.78039">
        <ele>527.34</ele>
        <time>2018-04-10T09:42:24.999Z</time>
      </trkpt>
      <trkpt lat="46.22851" lon="2.78031">
        <ele>526.38</ele>
        <time>2018-04-10T09:42:26.999Z</time>
      </trkpt>
      <trkpt lat="46.22839" lon="2.78027">
        <ele>525.35</ele>
        <time>2018-04-10T09:42:28.999Z</time>
      </trkpt>
      <trkpt lat="46.22825" lon="2.78022">
        <ele>523.93</ele>
        <time>2018-04-10T09:42:30.999Z</time>
      </trkpt>
      <trkpt lat="46.2281" lon="2.78014">
        <ele>522.5</ele>
        <time>2018-04-10T09:42:32.999Z</time>
      </trkpt>
      <trkpt lat="46.22794" lon="2.78007">
        <ele>521.18</ele>
        <time>2018-04-10T09:42:34.999Z</time>
      </trkpt>
      <trkpt lat="46.22777" lon="2.7801">
        <ele>519.99</ele>
        <time>2018-04-10T09:42:36.999Z</time>
      </trkpt>
      <trkpt lat="46.22768" lon="2.78015">
        <ele>519.43</ele>
        <time>2018-04-10T09:42:37.999Z</time>
      </trkpt>
      <trkpt lat="46.2276" lon="2.78022">
        <ele>518.68</ele>
        <time>2018-04-10T09:42:38.999Z</time>
      </trkpt>
      <trkpt lat="46.22751" lon="2.7803">
        <ele>517.89</ele>
        <time>2018-04-10T09:42:39.999Z</time>
      </trkpt>
      <trkpt lat="46.22743" lon="2.78037">
        <ele>517.19</ele>
        <time>2018-04-10T09:42:40.999Z</time>
      </trkpt>
      <trkpt lat="46.22734" lon="2.78043">
        <ele>516.38</ele>
        <time>2018-04-10T09:42:41.999Z</time>
      </trkpt>
      <trkpt lat="46.22723" lon="2.78047">
        <ele>515.53</ele>
        <time>2018-04-10T09:42:42.999Z</time>
      </trkpt>
      <trkpt lat="46.22713" lon="2.78049">
        <ele>514.71</ele>
        <time>2018-04-10T09:42:43.999Z</time>
      </trkpt>
      <trkpt lat="46.22703" lon="2.78049">
        <ele>514.05</ele>
        <time>2018-04-10T09:42:44.999Z</time>
      </trkpt>
      <trkpt lat="46.22692" lon="2.78049">
        <ele>513.38</ele>
        <time>2018-04-10T09:42:45.999Z</time>
      </trkpt>
      <trkpt lat="46.22682" lon="2.7805">
        <ele>512.6</ele>
        <time>2018-04-10T09:42:46.999Z</time>
      </trkpt>
      <trkpt lat="46.22672" lon="2.78053">
        <ele>511.87</ele>
        <time>2018-04-10T09:42:47.999Z</time>
      </trkpt>
      <trkpt lat="46.22662" lon="2.78058">
        <ele>511.13</ele>
        <time>2018-04-10T09:42:48.999Z</time>
      </trkpt>
      <trkpt lat="46.22649" lon="2.78071">
        <ele>510.23</ele>
        <time>2018-04-10T09:42:50.999Z</time>
      </trkpt>
      <trkpt lat="46.22638" lon="2.78075">
        <ele>509.15</ele>
        <time>2018-04-10T09:42:52.999Z</time>
      </trkpt>
      <trkpt lat="46.22624" lon="2.78056">
        <ele>508.41</ele>
        <time>2018-04-10T09:42:54.999Z</time>
      </trkpt>
      <trkpt lat="46.22619" lon="2.78043">
        <ele>507.85</ele>
        <time>2018-04-10T09:42:55.999Z</time>
      </trkpt>
      <trkpt lat="46.22617" lon="2.78028">
        <ele>507.2</ele>
        <time>2018-04-10T09:42:56.999Z</time>
      </trkpt>
      <trkpt lat="46.22617" lon="2.78012">
        <ele>506.77</ele>
        <time>2018-04-10T09:42:57.999Z</time>
      </trkpt>
      <trkpt lat="46.2262" lon="2.77996">
        <ele>506.41</ele>
        <time>2018-04-10T09:42:58.999Z</time>
      </trkpt>
      <trkpt lat="46.22623" lon="2.77982">
        <ele>506.22</ele>
        <time>2018-04-10T09:42:59.999Z</time>
      </trkpt>
      <trkpt lat="46.22627" lon="2.77969">
        <ele>505.86</ele>
        <time>2018-04-10T09:43:00.999Z</time>
      </trkpt>
      <trkpt lat="46.22631" lon="2.77956">
        <ele>505.46</ele>
        <time>2018-04-10T09:43:01.999Z</time>
      </trkpt>
      <trkpt lat="46.22635" lon="2.77944">
        <ele>505.14</ele>
        <time>2018-04-10T09:43:02.999Z</time>
      </trkpt>
      <trkpt lat="46.22639" lon="2.77933">
        <ele>504.53</ele>
        <time>2018-04-10T09:43:03.999Z</time>
      </trkpt>
      <trkpt lat="46.22647" lon="2.77912">
        <ele>503.91</ele>
        <time>2018-04-10T09:43:05.999Z</time>
      </trkpt>
      <trkpt lat="46.22655" lon="2.77895">
        <ele>503.7</ele>
        <time>2018-04-10T09:43:07.999Z</time>
      </trkpt>
      <trkpt lat="46.22662" lon="2.7788">
        <ele>503.25</ele>
        <time>2018-04-10T09:43:09.999Z</time>
      </trkpt>
      <trkpt lat="46.22668" lon="2.77868">
        <ele>502.83</ele>
        <time>2018-04-10T09:43:11.999Z</time>
      </trkpt>
      <trkpt lat="46.22673" lon="2.77855">
        <ele>502.61</ele>
        <time>2018-04-10T09:43:13.999Z</time>
      </trkpt>
      <trkpt lat="46.22675" lon="2.77842">
        <ele>502.52</ele>
        <time>2018-04-10T09:43:15.999Z</time>
      </trkpt>
      <trkpt lat="46.22674" lon="2.77823">
        <ele>502.77</ele>
        <time>2018-04-10T09:43:18.999Z</time>
      </trkpt>
      <trkpt lat="46.22672" lon="2.77807">
        <ele>502.75</ele>
        <time>2018-04-10T09:43:21.999Z</time>
      </trkpt>
      <trkpt lat="46.22669" lon="2.77792">
        <ele>503.09</ele>
        <time>2018-04-10T09:43:24.999Z</time>
      </trkpt>
      <trkpt lat="46.2267" lon="2.77775">
        <ele>502.82</ele>
        <time>2018-04-10T09:43:27.999Z</time>
      </trkpt>
      <trkpt lat="46.22678" lon="2.77761">
        <ele>503.15</ele>
        <time>2018-04-10T09:43:30.999Z</time>
      </trkpt>
      <trkpt lat="46.22689" lon="2.77755">
        <ele>504.49</ele>
        <time>2018-04-10T09:43:33.999Z</time>
      </trkpt>
      <trkpt lat="46.22702" lon="2.77755">
        <ele>506.86</ele>
        <time>2018-04-10T09:43:36.999Z</time>
      </trkpt>
      <trkpt lat="46.22715" lon="2.77755">
        <ele>508.5</ele>
        <time>2018-04-10T09:43:39.999Z</time>
      </trkpt>
      <trkpt lat="46.22727" lon="2.77753">
        <ele>509.9</ele>
        <time>2018-04-10T09:43:42.999Z</time>
      </trkpt>
      <trkpt lat="46.22738" lon="2.77748">
        <ele>511.12</ele>
        <time>2018-04-10T09:43:45.999Z</time>
      </trkpt>
      <trkpt lat="46.22746" lon="2.77738">
        <ele>512.09</ele>
        <time>2018-04-10T09:43:48.999Z</time>
      </trkpt>
      <trkpt lat="46.22751" lon="2.77726">
        <ele>512.04</ele>
        <time>2018-04-10T09:43:51.999Z</time>
      </trkpt>
      <trkpt lat="46.22754" lon="2.77712">
        <ele>512.1</ele>
        <time>2018-04-10T09:43:54.999Z</time>
      </trkpt>
      <trkpt lat="46.22757" lon="2.77699">
        <ele>512.84</ele>
        <time>2018-04-10T09:43:57.999Z</time>
      </trkpt>
      <trkpt lat="46.2276" lon="2.77686">
        <ele>513.26</ele>
        <time>2018-04-10T09:44:00.999Z</time>
      </trkpt>
      <trkpt lat="46.22767" lon="2.77673">
        <ele>513.43</ele>
        <time>2018-04-10T09:44:03.999Z</time>
      </trkpt>
      <trkpt lat="46.22775" lon="2.77666">
        <ele>514.07</ele>
        <time>2018-04-10T09:44:06.999Z</time>
      </trkpt>
      <trkpt lat="46.22784" lon="2.77663">
        <ele>514.56</ele>
        <time>2018-04-10T09:44:09.999Z</time>
      </trkpt>
      <trkpt lat="46.22794" lon="2.77659">
        <ele>516.04</ele>
        <time>2018-04-10T09:44:12.999Z</time>
      </trkpt>
      <trkpt lat="46.22802" lon="2.77654">
        <ele>516.98</ele>
        <time>2018-04-10T09:44:15.999Z</time>
      </trkpt>
      <trkpt lat="46.22811" lon="2.77642">
        <ele>517.72</ele>
        <time>2018-04-10T09:44:19.999Z</time>
      </trkpt>
      <trkpt lat="46.22816" lon="2.77626">
        <ele>518.04</ele>
        <time>2018-04-10T09:44:23.999Z</time>
      </trkpt>
      <trkpt lat="46.22817" lon="2.77613">
        <ele>518.36</ele>
        <time>2018-04-10T09:44:26.999Z</time>
      </trkpt>
      <trkpt lat="46.22816" lon="2.77597">
        <ele>519.29</ele>
        <time>2018-04-10T09:44:30.999Z</time>
      </trkpt>
      <trkpt lat="46.2281" lon="2.77583">
        <ele>520.75</ele>
        <time>2018-04-10T09:44:34.999Z</time>
      </trkpt>
      <trkpt lat="46.22803" lon="2.7757">
        <ele>521.34</ele>
        <time>2018-04-10T09:44:38.999Z</time>
      </trkpt>
      <trkpt lat="46.22796" lon="2.77562">
        <ele>521.93</ele>
        <time>2018-04-10T09:44:41.999Z</time>
      </trkpt>
      <trkpt lat="46.22789" lon="2.77554">
        <ele>522.56</ele>
        <time>2018-04-10T09:44:44.999Z</time>
      </trkpt>
      <trkpt lat="46.22779" lon="2.77544">
        <ele>523.59</ele>
        <time>2018-04-10T09:44:48.999Z</time>
      </trkpt>
      <trkpt lat="46.2277" lon="2.77536">
        <ele>523.6</ele>
        <time>2018-04-10T09:44:52.999Z</time>
      </trkpt>
      <trkpt lat="46.22761" lon="2.77527">
        <ele>523.5</ele>
        <time>2018-04-10T09:44:56.999Z</time>
      </trkpt>
      <trkpt lat="46.22754" lon="2.77519">
        <ele>523.45</ele>
        <time>2018-04-10T09:44:59.999Z</time>
      </trkpt>
      <trkpt lat="46.22746" lon="2.77511">
        <ele>523.53</ele>
        <time>2018-04-10T09:45:02.999Z</time>
      </trkpt>
      <trkpt lat="46.22737" lon="2.77503">
        <ele>524.35</ele>
        <time>2018-04-10T09:45:05.999Z</time>
      </trkpt>
      <trkpt lat="46.22729" lon="2.77495">
        <ele>525.38</ele>
        <time>2018-04-10T09:45:08.999Z</time>
      </trkpt>
      <trkpt lat="46.22721" lon="2.77488">
        <ele>526.24</ele>
        <time>2018-04-10T09:45:11.999Z</time>
      </trkpt>
      <trkpt lat="46.22712" lon="2.7748">
        <ele>527.36</ele>
        <time>2018-04-10T09:45:14.999Z</time>
      </trkpt>
      <trkpt lat="46.22704" lon="2.77472">
        <ele>528.29</ele>
        <time>2018-04-10T09:45:17.999Z</time>
      </trkpt>
      <trkpt lat="46.22697" lon="2.77463">
        <ele>528.95</ele>
        <time>2018-04-10T09:45:20.999Z</time>
      </trkpt>
      <trkpt lat="46.22689" lon="2.77454">
        <ele>530.05</ele>
        <time>2018-04-10T09:45:23.999Z</time>
      </trkpt>
      <trkpt lat="46.22681" lon="2.77447">
        <ele>531.04</ele>
        <time>2018-04-10T09:45:26.999Z</time>
      </trkpt>
      <trkpt lat="46.22673" lon="2.77439">
        <ele>531.9</ele>
        <time>2018-04-10T09:45:29.999Z</time>
      </trkpt>
      <trkpt lat="46.22666" lon="2.77431">
        <ele>532.63</ele>
        <time>2018-04-10T09:45:32.999Z</time>
      </trkpt>
      <trkpt lat="46.22656" lon="2.77422">
        <ele>533.69</ele>
        <time>2018-04-10T09:45:36.999Z</time>
      </trkpt>
      <trkpt lat="46.22648" lon="2.77415">
        <ele>533.86</ele>
        <time>2018-04-10T09:45:39.999Z</time>
      </trkpt>
      <trkpt lat="46.2264" lon="2.77407">
        <ele>534.35</ele>
        <time>2018-04-10T09:45:42.999Z</time>
      </trkpt>
      <trkpt lat="46.22633" lon="2.77398">
        <ele>535.14</ele>
        <time>2018-04-10T09:45:45.999Z</time>
      </trkpt>
      <trkpt lat="46.22627" lon="2.77388">
        <ele>535.81</ele>
        <time>2018-04-10T09:45:48.999Z</time>
      </trkpt>
      <trkpt lat="46.22619" lon="2.77376">
        <ele>537</ele>
        <time>2018-04-10T09:45:52.999Z</time>
      </trkpt>
      <trkpt lat="46.22614" lon="2.77364">
        <ele>537.84</ele>
        <time>2018-04-10T09:45:55.999Z</time>
      </trkpt>
      <trkpt lat="46.22611" lon="2.77351">
        <ele>538.5</ele>
        <time>2018-04-10T09:45:58.999Z</time>
      </trkpt>
      <trkpt lat="46.22608" lon="2.77337">
        <ele>539.13</ele>
        <time>2018-04-10T09:46:01.999Z</time>
      </trkpt>
      <trkpt lat="46.22606" lon="2.77324">
        <ele>539.23</ele>
        <time>2018-04-10T09:46:04.999Z</time>
      </trkpt>
      <trkpt lat="46.22606" lon="2.7731">
        <ele>539.61</ele>
        <time>2018-04-10T09:46:07.999Z</time>
      </trkpt>
      <trkpt lat="46.22606" lon="2.77297">
        <ele>540.12</ele>
        <time>2018-04-10T09:46:10.999Z</time>
      </trkpt>
      <trkpt lat="46.22608" lon="2.77284">
        <ele>541.7</ele>
        <time>2018-04-10T09:46:13.999Z</time>
      </trkpt>
      <trkpt lat="46.2261" lon="2.77267">
        <ele>542.07</ele>
        <time>2018-04-10T09:46:17.999Z</time>
      </trkpt>
      <trkpt lat="46.22611" lon="2.77254">
        <ele>542.51</ele>
        <time>2018-04-10T09:46:20.999Z</time>
      </trkpt>
      <trkpt lat="46.22613" lon="2.77241">
        <ele>542.95</ele>
        <time>2018-04-10T09:46:23.999Z</time>
      </trkpt>
      <trkpt lat="46.22614" lon="2.77225">
        <ele>544.21</ele>
        <time>2018-04-10T09:46:27.999Z</time>
      </trkpt>
      <trkpt lat="46.22614" lon="2.77211">
        <ele>545.16</ele>
        <time>2018-04-10T09:46:30.999Z</time>
      </trkpt>
      <trkpt lat="46.22615" lon="2.77197">
        <ele>546.04</ele>
        <time>2018-04-10T09:46:33.999Z</time>
      </trkpt>
      <trkpt lat="46.22616" lon="2.77183">
        <ele>546.64</ele>
        <time>2018-04-10T09:46:36.999Z</time>
      </trkpt>
      <trkpt lat="46.22618" lon="2.77169">
        <ele>547.07</ele>
        <time>2018-04-10T09:46:39.999Z</time>
      </trkpt>
      <trkpt lat="46.22619" lon="2.77153">
        <ele>547.68</ele>
        <time>2018-04-10T09:46:43.999Z</time>
      </trkpt>
      <trkpt lat="46.22619" lon="2.77136">
        <ele>548.29</ele>
        <time>2018-04-10T09:46:47.999Z</time>
      </trkpt>
      <trkpt lat="46.2262" lon="2.7712">
        <ele>549.1</ele>
        <time>2018-04-10T09:46:51.999Z</time>
      </trkpt>
      <trkpt lat="46.2262" lon="2.77106">
        <ele>549.63</ele>
        <time>2018-04-10T09:46:54.999Z</time>
      </trkpt>
      <trkpt lat="46.22622" lon="2.77093">
        <ele>550.54</ele>
        <time>2018-04-10T09:46:57.999Z</time>
      </trkpt>
      <trkpt lat="46.22623" lon="2.77077">
        <ele>551.77</ele>
        <time>2018-04-10T09:47:01.999Z</time>
      </trkpt>
      <trkpt lat="46.22625" lon="2.77064">
        <ele>552.37</ele>
        <time>2018-04-10T09:47:04.999Z</time>
      </trkpt>
      <trkpt lat="46.22627" lon="2.7705">
        <ele>552.09</ele>
        <time>2018-04-10T09:47:07.999Z</time>
      </trkpt>
      <trkpt lat="46.22628" lon="2.77036">
        <ele>552.29</ele>
        <time>2018-04-10T09:47:10.999Z</time>
      </trkpt>
      <trkpt lat="46.2263" lon="2.77022">
        <ele>552.11</ele>
        <time>2018-04-10T09:47:13.999Z</time>
      </trkpt>
      <trkpt lat="46.22632" lon="2.77008">
        <ele>552.02</ele>
        <time>2018-04-10T09:47:16.999Z</time>
      </trkpt>
      <trkpt lat="46.22634" lon="2.76994">
        <ele>552.22</ele>
        <time>2018-04-10T09:47:19.999Z</time>
      </trkpt>
      <trkpt lat="46.22635" lon="2.76981">
        <ele>552.57</ele>
        <time>2018-04-10T09:47:22.999Z</time>
      </trkpt>
      <trkpt lat="46.22637" lon="2.76968">
        <ele>552.96</ele>
        <time>2018-04-10T09:47:25.999Z</time>
      </trkpt>
      <trkpt lat="46.22638" lon="2.76955">
        <ele>553.68</ele>
        <time>2018-04-10T09:47:28.999Z</time>
      </trkpt>
      <trkpt lat="46.2264" lon="2.76938">
        <ele>554.85</ele>
        <time>2018-04-10T09:47:32.999Z</time>
      </trkpt>
      <trkpt lat="46.22641" lon="2.76924">
        <ele>555.27</ele>
        <time>2018-04-10T09:47:35.999Z</time>
      </trkpt>
      <trkpt lat="46.22641" lon="2.76911">
        <ele>555.17</ele>
        <time>2018-04-10T09:47:38.999Z</time>
      </trkpt>
      <trkpt lat="46.22642" lon="2.76898">
        <ele>555.69</ele>
        <time>2018-04-10T09:47:41.999Z</time>
      </trkpt>
      <trkpt lat="46.22644" lon="2.76885">
        <ele>556.63</ele>
        <time>2018-04-10T09:47:44.999Z</time>
      </trkpt>
      <trkpt lat="46.22645" lon="2.76871">
        <ele>557.4</ele>
        <time>2018-04-10T09:47:47.999Z</time>
      </trkpt>
      <trkpt lat="46.22646" lon="2.76856">
        <ele>557.87</ele>
        <time>2018-04-10T09:47:50.999Z</time>
      </trkpt>
      <trkpt lat="46.22648" lon="2.76841">
        <ele>558.48</ele>
        <time>2018-04-10T09:47:53.999Z</time>
      </trkpt>
      <trkpt lat="46.2265" lon="2.76825">
        <ele>558.21</ele>
        <time>2018-04-10T09:47:56.999Z</time>
      </trkpt>
      <trkpt lat="46.22651" lon="2.76808">
        <ele>558.75</ele>
        <time>2018-04-10T09:47:59.999Z</time>
      </trkpt>
      <trkpt lat="46.22652" lon="2.76792">
        <ele>558.98</ele>
        <time>2018-04-10T09:48:02.999Z</time>
      </trkpt>
      <trkpt lat="46.22652" lon="2.76774">
        <ele>558.89</ele>
        <time>2018-04-10T09:48:05.999Z</time>
      </trkpt>
      <trkpt lat="46.2265" lon="2.76756">
        <ele>558.65</ele>
        <time>2018-04-10T09:48:08.999Z</time>
      </trkpt>
      <trkpt lat="46.22643" lon="2.76741">
        <ele>558.84</ele>
        <time>2018-04-10T09:48:11.999Z</time>
      </trkpt>
      <trkpt lat="46.22635" lon="2.76728">
        <ele>560.07</ele>
        <time>2018-04-10T09:48:14.999Z</time>
      </trkpt>
      <trkpt lat="46.22627" lon="2.76719">
        <ele>561.57</ele>
        <time>2018-04-10T09:48:17.999Z</time>
      </trkpt>
      <trkpt lat="46.22619" lon="2.76707">
        <ele>562.45</ele>
        <time>2018-04-10T09:48:21.999Z</time>
      </trkpt>
      <trkpt lat="46.22611" lon="2.76696">
        <ele>563.19</ele>
        <time>2018-04-10T09:48:25.999Z</time>
      </trkpt>
      <trkpt lat="46.22603" lon="2.76687">
        <ele>563.96</ele>
        <time>2018-04-10T09:48:29.999Z</time>
      </trkpt>
      <trkpt lat="46.22596" lon="2.76678">
        <ele>565.04</ele>
        <time>2018-04-10T09:48:33.999Z</time>
      </trkpt>
      <trkpt lat="46.22588" lon="2.76666">
        <ele>567.1</ele>
        <time>2018-04-10T09:48:38.999Z</time>
      </trkpt>
      <trkpt lat="46.22582" lon="2.76653">
        <ele>568.38</ele>
        <time>2018-04-10T09:48:42.999Z</time>
      </trkpt>
      <trkpt lat="46.22577" lon="2.76641">
        <ele>568.71</ele>
        <time>2018-04-10T09:48:45.999Z</time>
      </trkpt>
      <trkpt lat="46.22574" lon="2.76628">
        <ele>568.9</ele>
        <time>2018-04-10T09:48:48.999Z</time>
      </trkpt>
      <trkpt lat="46.22572" lon="2.76615">
        <ele>569.4</ele>
        <time>2018-04-10T09:48:51.999Z</time>
      </trkpt>
      <trkpt lat="46.22569" lon="2.76598">
        <ele>569.25</ele>
        <time>2018-04-10T09:48:55.999Z</time>
      </trkpt>
      <trkpt lat="46.22567" lon="2.76582">
        <ele>569.25</ele>
        <time>2018-04-10T09:48:59.999Z</time>
      </trkpt>
      <trkpt lat="46.22564" lon="2.76565">
        <ele>569.61</ele>
        <time>2018-04-10T09:49:03.999Z</time>
      </trkpt>
      <trkpt lat="46.22563" lon="2.76549">
        <ele>570.22</ele>
        <time>2018-04-10T09:49:07.999Z</time>
      </trkpt>
      <trkpt lat="46.22561" lon="2.76537">
        <ele>570.27</ele>
        <time>2018-04-10T09:49:10.999Z</time>
      </trkpt>
      <trkpt lat="46.22558" lon="2.76524">
        <ele>570.7</ele>
        <time>2018-04-10T09:49:13.999Z</time>
      </trkpt>
      <trkpt lat="46.22556" lon="2.7651">
        <ele>571.29</ele>
        <time>2018-04-10T09:49:16.999Z</time>
      </trkpt>
      <trkpt lat="46.22554" lon="2.76495">
        <ele>571.98</ele>
        <time>2018-04-10T09:49:19.999Z</time>
      </trkpt>
      <trkpt lat="46.22551" lon="2.76479">
        <ele>572.43</ele>
        <time>2018-04-10T09:49:22.999Z</time>
      </trkpt>
      <trkpt lat="46.22548" lon="2.76462">
        <ele>572.58</ele>
        <time>2018-04-10T09:49:25.999Z</time>
      </trkpt>
      <trkpt lat="46.22546" lon="2.76444">
        <ele>572.55</ele>
        <time>2018-04-10T09:49:28.999Z</time>
      </trkpt>
      <trkpt lat="46.22544" lon="2.76431">
        <ele>572.6</ele>
        <time>2018-04-10T09:49:30.999Z</time>
      </trkpt>
      <trkpt lat="46.22542" lon="2.76418">
        <ele>572.46</ele>
        <time>2018-04-10T09:49:32.999Z</time>
      </trkpt>
      <trkpt lat="46.22538" lon="2.76401">
        <ele>572.45</ele>
        <time>2018-04-10T09:49:35.999Z</time>
      </trkpt>
      <trkpt lat="46.22536" lon="2.76382">
        <ele>572.47</ele>
        <time>2018-04-10T09:49:38.999Z</time>
      </trkpt>
      <trkpt lat="46.22532" lon="2.76364">
        <ele>572.36</ele>
        <time>2018-04-10T09:49:41.999Z</time>
      </trkpt>
      <trkpt lat="46.2253" lon="2.76346">
        <ele>572.42</ele>
        <time>2018-04-10T09:49:44.999Z</time>
      </trkpt>
      <trkpt lat="46.22529" lon="2.76328">
        <ele>573.14</ele>
        <time>2018-04-10T09:49:47.999Z</time>
      </trkpt>
      <trkpt lat="46.22525" lon="2.76313">
        <ele>573.89</ele>
        <time>2018-04-10T09:49:50.999Z</time>
      </trkpt>
      <trkpt lat="46.22522" lon="2.76297">
        <ele>574.58</ele>
        <time>2018-04-10T09:49:53.999Z</time>
      </trkpt>
      <trkpt lat="46.2252" lon="2.7628">
        <ele>574.89</ele>
        <time>2018-04-10T09:49:56.999Z</time>
      </trkpt>
      <trkpt lat="46.22517" lon="2.76264">
        <ele>575.35</ele>
        <time>2018-04-10T09:49:59.999Z</time>
      </trkpt>
      <trkpt lat="46.22513" lon="2.76247">
        <ele>575.59</ele>
        <time>2018-04-10T09:50:02.999Z</time>
      </trkpt>
      <trkpt lat="46.2251" lon="2.7623">
        <ele>575.5</ele>
        <time>2018-04-10T09:50:05.999Z</time>
      </trkpt>
      <trkpt lat="46.22506" lon="2.76213">
        <ele>576.1</ele>
        <time>2018-04-10T09:50:08.999Z</time>
      </trkpt>
      <trkpt lat="46.22502" lon="2.76197">
        <ele>576.37</ele>
        <time>2018-04-10T09:50:11.999Z</time>
      </trkpt>
      <trkpt lat="46.22497" lon="2.76179">
        <ele>576.04</ele>
        <time>2018-04-10T09:50:14.999Z</time>
      </trkpt>
      <trkpt lat="46.22491" lon="2.76163">
        <ele>576.35</ele>
        <time>2018-04-10T09:50:17.999Z</time>
      </trkpt>
      <trkpt lat="46.22484" lon="2.76146">
        <ele>576.71</ele>
        <time>2018-04-10T09:50:20.999Z</time>
      </trkpt>
      <trkpt lat="46.2248" lon="2.76134">
        <ele>576.82</ele>
        <time>2018-04-10T09:50:22.999Z</time>
      </trkpt>
      <trkpt lat="46.22475" lon="2.76121">
        <ele>576.77</ele>
        <time>2018-04-10T09:50:24.999Z</time>
      </trkpt>
      <trkpt lat="46.22471" lon="2.76109">
        <ele>576.89</ele>
        <time>2018-04-10T09:50:26.999Z</time>
      </trkpt>
      <trkpt lat="46.22466" lon="2.76096">
        <ele>576.92</ele>
        <time>2018-04-10T09:50:28.999Z</time>
      </trkpt>
      <trkpt lat="46.22461" lon="2.76082">
        <ele>576.96</ele>
        <time>2018-04-10T09:50:30.999Z</time>
      </trkpt>
      <trkpt lat="46.22457" lon="2.76066">
        <ele>576.79</ele>
        <time>2018-04-10T09:50:32.999Z</time>
      </trkpt>
      <trkpt lat="46.22451" lon="2.76052">
        <ele>576.77</ele>
        <time>2018-04-10T09:50:34.999Z</time>
      </trkpt>
      <trkpt lat="46.22446" lon="2.76037">
        <ele>576.83</ele>
        <time>2018-04-10T09:50:36.999Z</time>
      </trkpt>
      <trkpt lat="46.22441" lon="2.76021">
        <ele>576.48</ele>
        <time>2018-04-10T09:50:38.999Z</time>
      </trkpt>
      <trkpt lat="46.22434" lon="2.76005">
        <ele>576.04</ele>
        <time>2018-04-10T09:50:40.999Z</time>
      </trkpt>
      <trkpt lat="46.22427" lon="2.75988">
        <ele>575.3</ele>
        <time>2018-04-10T09:50:42.999Z</time>
      </trkpt>
      <trkpt lat="46.22418" lon="2.75973">
        <ele>575.35</ele>
        <time>2018-04-10T09:50:44.999Z</time>
      </trkpt>
      <trkpt lat="46.22407" lon="2.75958">
        <ele>574.58</ele>
        <time>2018-04-10T09:50:46.999Z</time>
      </trkpt>
      <trkpt lat="46.22394" lon="2.75946">
        <ele>573.86</ele>
        <time>2018-04-10T09:50:48.999Z</time>
      </trkpt>
      <trkpt lat="46.22381" lon="2.75934">
        <ele>573.69</ele>
        <time>2018-04-10T09:50:50.999Z</time>
      </trkpt>
      <trkpt lat="46.22367" lon="2.75923">
        <ele>573.01</ele>
        <time>2018-04-10T09:50:52.999Z</time>
      </trkpt>
      <trkpt lat="46.22352" lon="2.75912">
        <ele>572.25</ele>
        <time>2018-04-10T09:50:54.999Z</time>
      </trkpt>
      <trkpt lat="46.22337" lon="2.75902">
        <ele>571.22</ele>
        <time>2018-04-10T09:50:56.999Z</time>
      </trkpt>
      <trkpt lat="46.22319" lon="2.75896">
        <ele>570.15</ele>
        <time>2018-04-10T09:50:58.999Z</time>
      </trkpt>
      <trkpt lat="46.22311" lon="2.75894">
        <ele>569.82</ele>
        <time>2018-04-10T09:50:59.999Z</time>
      </trkpt>
      <trkpt lat="46.22302" lon="2.75891">
        <ele>569.53</ele>
        <time>2018-04-10T09:51:00.999Z</time>
      </trkpt>
      <trkpt lat="46.22292" lon="2.75889">
        <ele>569.48</ele>
        <time>2018-04-10T09:51:01.999Z</time>
      </trkpt>
      <trkpt lat="46.22284" lon="2.75886">
        <ele>569.25</ele>
        <time>2018-04-10T09:51:02.999Z</time>
      </trkpt>
      <trkpt lat="46.22274" lon="2.75884">
        <ele>569.04</ele>
        <time>2018-04-10T09:51:03.999Z</time>
      </trkpt>
      <trkpt lat="46.22257" lon="2.75878">
        <ele>568.81</ele>
        <time>2018-04-10T09:51:05.999Z</time>
      </trkpt>
      <trkpt lat="46.2224" lon="2.75872">
        <ele>568.52</ele>
        <time>2018-04-10T09:51:07.999Z</time>
      </trkpt>
      <trkpt lat="46.22231" lon="2.75869">
        <ele>568.18</ele>
        <time>2018-04-10T09:51:08.999Z</time>
      </trkpt>
      <trkpt lat="46.22214" lon="2.75861">
        <ele>567.55</ele>
        <time>2018-04-10T09:51:10.999Z</time>
      </trkpt>
      <trkpt lat="46.22206" lon="2.75855">
        <ele>567.22</ele>
        <time>2018-04-10T09:51:11.999Z</time>
      </trkpt>
      <trkpt lat="46.22192" lon="2.75841">
        <ele>566.69</ele>
        <time>2018-04-10T09:51:13.999Z</time>
      </trkpt>
      <trkpt lat="46.22178" lon="2.75827">
        <ele>566.21</ele>
        <time>2018-04-10T09:51:15.999Z</time>
      </trkpt>
      <trkpt lat="46.22165" lon="2.75814">
        <ele>565.62</ele>
        <time>2018-04-10T09:51:17.999Z</time>
      </trkpt>
      <trkpt lat="46.2215" lon="2.75801">
        <ele>565.09</ele>
        <time>2018-04-10T09:51:19.999Z</time>
      </trkpt>
      <trkpt lat="46.22136" lon="2.75789">
        <ele>564.58</ele>
        <time>2018-04-10T09:51:21.999Z</time>
      </trkpt>
      <trkpt lat="46.22122" lon="2.75778">
        <ele>564.03</ele>
        <time>2018-04-10T09:51:23.999Z</time>
      </trkpt>
      <trkpt lat="46.22108" lon="2.75769">
        <ele>563.39</ele>
        <time>2018-04-10T09:51:25.999Z</time>
      </trkpt>
      <trkpt lat="46.22094" lon="2.7576">
        <ele>562.63</ele>
        <time>2018-04-10T09:51:27.999Z</time>
      </trkpt>
      <trkpt lat="46.22078" lon="2.75751">
        <ele>562.17</ele>
        <time>2018-04-10T09:51:29.999Z</time>
      </trkpt>
      <trkpt lat="46.22063" lon="2.75741">
        <ele>561.37</ele>
        <time>2018-04-10T09:51:31.999Z</time>
      </trkpt>
      <trkpt lat="46.22048" lon="2.75731">
        <ele>560.61</ele>
        <time>2018-04-10T09:51:33.999Z</time>
      </trkpt>
      <trkpt lat="46.22034" lon="2.75718">
        <ele>560.09</ele>
        <time>2018-04-10T09:51:35.999Z</time>
      </trkpt>
      <trkpt lat="46.22022" lon="2.75701">
        <ele>559.52</ele>
        <time>2018-04-10T09:51:37.999Z</time>
      </trkpt>
      <trkpt lat="46.2201" lon="2.75682">
        <ele>558.94</ele>
        <time>2018-04-10T09:51:39.999Z</time>
      </trkpt>
      <trkpt lat="46.22" lon="2.75661">
        <ele>558.22</ele>
        <time>2018-04-10T09:51:41.999Z</time>
      </trkpt>
      <trkpt lat="46.2199" lon="2.7564">
        <ele>557.74</ele>
        <time>2018-04-10T09:51:43.999Z</time>
      </trkpt>
      <trkpt lat="46.2198" lon="2.75619">
        <ele>557.28</ele>
        <time>2018-04-10T09:51:45.999Z</time>
      </trkpt>
      <trkpt lat="46.21969" lon="2.75599">
        <ele>557.17</ele>
        <time>2018-04-10T09:51:47.999Z</time>
      </trkpt>
      <trkpt lat="46.21962" lon="2.7559">
        <ele>557.36</ele>
        <time>2018-04-10T09:51:48.999Z</time>
      </trkpt>
      <trkpt lat="46.21955" lon="2.7558">
        <ele>557.41</ele>
        <time>2018-04-10T09:51:49.999Z</time>
      </trkpt>
      <trkpt lat="46.21948" lon="2.75571">
        <ele>557.22</ele>
        <time>2018-04-10T09:51:50.999Z</time>
      </trkpt>
      <trkpt lat="46.21942" lon="2.75561">
        <ele>556.8</ele>
        <time>2018-04-10T09:51:51.999Z</time>
      </trkpt>
      <trkpt lat="46.21936" lon="2.7555">
        <ele>556.26</ele>
        <time>2018-04-10T09:51:52.999Z</time>
      </trkpt>
      <trkpt lat="46.21932" lon="2.75538">
        <ele>555.72</ele>
        <time>2018-04-10T09:51:53.999Z</time>
      </trkpt>
      <trkpt lat="46.2193" lon="2.75524">
        <ele>555.21</ele>
        <time>2018-04-10T09:51:54.999Z</time>
      </trkpt>
      <trkpt lat="46.2193" lon="2.75511">
        <ele>554.92</ele>
        <time>2018-04-10T09:51:55.999Z</time>
      </trkpt>
      <trkpt lat="46.21932" lon="2.75496">
        <ele>554.44</ele>
        <time>2018-04-10T09:51:56.999Z</time>
      </trkpt>
      <trkpt lat="46.21935" lon="2.75482">
        <ele>553.76</ele>
        <time>2018-04-10T09:51:57.999Z</time>
      </trkpt>
      <trkpt lat="46.21938" lon="2.75469">
        <ele>553.34</ele>
        <time>2018-04-10T09:51:58.999Z</time>
      </trkpt>
      <trkpt lat="46.21941" lon="2.75455">
        <ele>552.97</ele>
        <time>2018-04-10T09:51:59.999Z</time>
      </trkpt>
      <trkpt lat="46.21943" lon="2.7544">
        <ele>552.57</ele>
        <time>2018-04-10T09:52:00.999Z</time>
      </trkpt>
      <trkpt lat="46.21944" lon="2.75426">
        <ele>552.05</ele>
        <time>2018-04-10T09:52:01.999Z</time>
      </trkpt>
      <trkpt lat="46.21944" lon="2.75411">
        <ele>551.41</ele>
        <time>2018-04-10T09:52:02.999Z</time>
      </trkpt>
      <trkpt lat="46.21944" lon="2.75395">
        <ele>550.61</ele>
        <time>2018-04-10T09:52:03.999Z</time>
      </trkpt>
      <trkpt lat="46.21944" lon="2.75379">
        <ele>549.93</ele>
        <time>2018-04-10T09:52:04.999Z</time>
      </trkpt>
      <trkpt lat="46.21943" lon="2.75362">
        <ele>549.21</ele>
        <time>2018-04-10T09:52:05.999Z</time>
      </trkpt>
      <trkpt lat="46.21943" lon="2.75346">
        <ele>548.56</ele>
        <time>2018-04-10T09:52:06.999Z</time>
      </trkpt>
      <trkpt lat="46.21942" lon="2.7533">
        <ele>547.8</ele>
        <time>2018-04-10T09:52:07.999Z</time>
      </trkpt>
      <trkpt lat="46.21942" lon="2.75314">
        <ele>546.85</ele>
        <time>2018-04-10T09:52:08.999Z</time>
      </trkpt>
      <trkpt lat="46.21942" lon="2.75298">
        <ele>545.96</ele>
        <time>2018-04-10T09:52:09.999Z</time>
      </trkpt>
      <trkpt lat="46.21941" lon="2.75283">
        <ele>545.04</ele>
        <time>2018-04-10T09:52:10.999Z</time>
      </trkpt>
      <trkpt lat="46.21938" lon="2.75267">
        <ele>544.37</ele>
        <time>2018-04-10T09:52:11.999Z</time>
      </trkpt>
      <trkpt lat="46.21933" lon="2.75253">
        <ele>543.81</ele>
        <time>2018-04-10T09:52:12.999Z</time>
      </trkpt>
      <trkpt lat="46.21926" lon="2.7524">
        <ele>542.93</ele>
        <time>2018-04-10T09:52:13.999Z</time>
      </trkpt>
      <trkpt lat="46.21916" lon="2.75229">
        <ele>542.56</ele>
        <time>2018-04-10T09:52:14.999Z</time>
      </trkpt>
      <trkpt lat="46.21906" lon="2.75219">
        <ele>541.86</ele>
        <time>2018-04-10T09:52:15.999Z</time>
      </trkpt>
      <trkpt lat="46.21896" lon="2.7521">
        <ele>541.43</ele>
        <time>2018-04-10T09:52:16.999Z</time>
      </trkpt>
      <trkpt lat="46.21887" lon="2.75202">
        <ele>541.09</ele>
        <time>2018-04-10T09:52:17.999Z</time>
      </trkpt>
      <trkpt lat="46.21879" lon="2.75195">
        <ele>540.9</ele>
        <time>2018-04-10T09:52:18.999Z</time>
      </trkpt>
      <trkpt lat="46.21871" lon="2.75187">
        <ele>540.77</ele>
        <time>2018-04-10T09:52:19.999Z</time>
      </trkpt>
      <trkpt lat="46.21859" lon="2.75173">
        <ele>540.45</ele>
        <time>2018-04-10T09:52:21.999Z</time>
      </trkpt>
      <trkpt lat="46.21849" lon="2.7516">
        <ele>540.61</ele>
        <time>2018-04-10T09:52:23.999Z</time>
      </trkpt>
      <trkpt lat="46.21843" lon="2.75147">
        <ele>540.58</ele>
        <time>2018-04-10T09:52:25.999Z</time>
      </trkpt>
      <trkpt lat="46.21839" lon="2.75133">
        <ele>540.58</ele>
        <time>2018-04-10T09:52:27.999Z</time>
      </trkpt>
      <trkpt lat="46.21837" lon="2.75118">
        <ele>541.28</ele>
        <time>2018-04-10T09:52:30.999Z</time>
      </trkpt>
      <trkpt lat="46.21837" lon="2.75103">
        <ele>541.85</ele>
        <time>2018-04-10T09:52:33.999Z</time>
      </trkpt>
      <trkpt lat="46.21836" lon="2.75088">
        <ele>542.41</ele>
        <time>2018-04-10T09:52:36.999Z</time>
      </trkpt>
      <trkpt lat="46.21834" lon="2.75071">
        <ele>543.26</ele>
        <time>2018-04-10T09:52:39.999Z</time>
      </trkpt>
      <trkpt lat="46.21832" lon="2.75056">
        <ele>543.7</ele>
        <time>2018-04-10T09:52:42.999Z</time>
      </trkpt>
      <trkpt lat="46.21831" lon="2.7504">
        <ele>544.27</ele>
        <time>2018-04-10T09:52:45.999Z</time>
      </trkpt>
      <trkpt lat="46.21832" lon="2.75022">
        <ele>544.47</ele>
        <time>2018-04-10T09:52:48.999Z</time>
      </trkpt>
      <trkpt lat="46.2184" lon="2.75009">
        <ele>544.94</ele>
        <time>2018-04-10T09:52:51.999Z</time>
      </trkpt>
      <trkpt lat="46.21848" lon="2.74999">
        <ele>546.67</ele>
        <time>2018-04-10T09:52:54.999Z</time>
      </trkpt>
      <trkpt lat="46.21856" lon="2.74991">
        <ele>548.69</ele>
        <time>2018-04-10T09:52:57.999Z</time>
      </trkpt>
      <trkpt lat="46.21867" lon="2.74984">
        <ele>549.59</ele>
        <time>2018-04-10T09:53:00.999Z</time>
      </trkpt>
      <trkpt lat="46.21878" lon="2.74976">
        <ele>550.71</ele>
        <time>2018-04-10T09:53:03.999Z</time>
      </trkpt>
      <trkpt lat="46.21889" lon="2.74967">
        <ele>551.56</ele>
        <time>2018-04-10T09:53:06.999Z</time>
      </trkpt>
      <trkpt lat="46.21901" lon="2.74958">
        <ele>552.88</ele>
        <time>2018-04-10T09:53:09.999Z</time>
      </trkpt>
      <trkpt lat="46.21912" lon="2.74949">
        <ele>553.9</ele>
        <time>2018-04-10T09:53:12.999Z</time>
      </trkpt>
      <trkpt lat="46.21922" lon="2.74939">
        <ele>554.83</ele>
        <time>2018-04-10T09:53:15.999Z</time>
      </trkpt>
      <trkpt lat="46.21931" lon="2.74928">
        <ele>555.8</ele>
        <time>2018-04-10T09:53:18.999Z</time>
      </trkpt>
      <trkpt lat="46.21937" lon="2.74916">
        <ele>556.62</ele>
        <time>2018-04-10T09:53:21.999Z</time>
      </trkpt>
      <trkpt lat="46.21942" lon="2.74904">
        <ele>557.07</ele>
        <time>2018-04-10T09:53:24.999Z</time>
      </trkpt>
      <trkpt lat="46.21946" lon="2.74893">
        <ele>557.36</ele>
        <time>2018-04-10T09:53:27.999Z</time>
      </trkpt>
      <trkpt lat="46.2195" lon="2.7488">
        <ele>557.96</ele>
        <time>2018-04-10T09:53:30.999Z</time>
      </trkpt>
      <trkpt lat="46.21954" lon="2.74867">
        <ele>558.76</ele>
        <time>2018-04-10T09:53:33.999Z</time>
      </trkpt>
      <trkpt lat="46.21957" lon="2.74854">
        <ele>558.87</ele>
        <time>2018-04-10T09:53:36.999Z</time>
      </trkpt>
      <trkpt lat="46.2196" lon="2.7484">
        <ele>559.53</ele>
        <time>2018-04-10T09:53:39.999Z</time>
      </trkpt>
      <trkpt lat="46.21964" lon="2.74826">
        <ele>560.05</ele>
        <time>2018-04-10T09:53:42.999Z</time>
      </trkpt>
      <trkpt lat="46.21969" lon="2.74811">
        <ele>560.62</ele>
        <time>2018-04-10T09:53:45.999Z</time>
      </trkpt>
      <trkpt lat="46.21973" lon="2.74797">
        <ele>561.47</ele>
        <time>2018-04-10T09:53:48.999Z</time>
      </trkpt>
      <trkpt lat="46.21978" lon="2.74781">
        <ele>561.95</ele>
        <time>2018-04-10T09:53:51.999Z</time>
      </trkpt>
      <trkpt lat="46.21983" lon="2.74766">
        <ele>562.34</ele>
        <time>2018-04-10T09:53:54.999Z</time>
      </trkpt>
      <trkpt lat="46.21986" lon="2.74751">
        <ele>562.55</ele>
        <time>2018-04-10T09:53:57.999Z</time>
      </trkpt>
      <trkpt lat="46.21989" lon="2.74735">
        <ele>562.69</ele>
        <time>2018-04-10T09:54:00.999Z</time>
      </trkpt>
      <trkpt lat="46.21991" lon="2.74722">
        <ele>562.86</ele>
        <time>2018-04-10T09:54:02.999Z</time>
      </trkpt>
      <trkpt lat="46.21994" lon="2.74706">
        <ele>563.22</ele>
        <time>2018-04-10T09:54:04.999Z</time>
      </trkpt>
      <trkpt lat="46.21997" lon="2.74688">
        <ele>562.93</ele>
        <time>2018-04-10T09:54:06.999Z</time>
      </trkpt>
      <trkpt lat="46.22" lon="2.74666">
        <ele>562.64</ele>
        <time>2018-04-10T09:54:08.999Z</time>
      </trkpt>
      <trkpt lat="46.22004" lon="2.74644">
        <ele>562.44</ele>
        <time>2018-04-10T09:54:10.999Z</time>
      </trkpt>
      <trkpt lat="46.22009" lon="2.74622">
        <ele>562.63</ele>
        <time>2018-04-10T09:54:12.999Z</time>
      </trkpt>
      <trkpt lat="46.22015" lon="2.746">
        <ele>562.4</ele>
        <time>2018-04-10T09:54:14.999Z</time>
      </trkpt>
      <trkpt lat="46.22022" lon="2.74577">
        <ele>561.76</ele>
        <time>2018-04-10T09:54:16.998Z</time>
      </trkpt>
      <trkpt lat="46.2203" lon="2.74555">
        <ele>561.57</ele>
        <time>2018-04-10T09:54:18.999Z</time>
      </trkpt>
      <trkpt lat="46.2204" lon="2.74534">
        <ele>560.45</ele>
        <time>2018-04-10T09:54:20.999Z</time>
      </trkpt>
      <trkpt lat="46.22045" lon="2.74523">
        <ele>560.23</ele>
        <time>2018-04-10T09:54:21.999Z</time>
      </trkpt>
      <trkpt lat="46.2205" lon="2.74512">
        <ele>559.88</ele>
        <time>2018-04-10T09:54:22.999Z</time>
      </trkpt>
      <trkpt lat="46.22055" lon="2.74501">
        <ele>559.66</ele>
        <time>2018-04-10T09:54:23.999Z</time>
      </trkpt>
      <trkpt lat="46.22059" lon="2.74489">
        <ele>559.46</ele>
        <time>2018-04-10T09:54:24.999Z</time>
      </trkpt>
      <trkpt lat="46.22063" lon="2.74477">
        <ele>559.15</ele>
        <time>2018-04-10T09:54:25.999Z</time>
      </trkpt>
      <trkpt lat="46.22067" lon="2.74464">
        <ele>558.7</ele>
        <time>2018-04-10T09:54:26.999Z</time>
      </trkpt>
      <trkpt lat="46.2207" lon="2.74451">
        <ele>558.39</ele>
        <time>2018-04-10T09:54:27.999Z</time>
      </trkpt>
      <trkpt lat="46.22072" lon="2.74437">
        <ele>558.01</ele>
        <time>2018-04-10T09:54:28.999Z</time>
      </trkpt>
      <trkpt lat="46.22074" lon="2.74423">
        <ele>557.55</ele>
        <time>2018-04-10T09:54:29.999Z</time>
      </trkpt>
      <trkpt lat="46.22076" lon="2.74408">
        <ele>556.78</ele>
        <time>2018-04-10T09:54:30.999Z</time>
      </trkpt>
      <trkpt lat="46.22077" lon="2.74393">
        <ele>556.14</ele>
        <time>2018-04-10T09:54:31.999Z</time>
      </trkpt>
      <trkpt lat="46.22078" lon="2.74376">
        <ele>555.66</ele>
        <time>2018-04-10T09:54:32.999Z</time>
      </trkpt>
      <trkpt lat="46.2208" lon="2.7436">
        <ele>555.01</ele>
        <time>2018-04-10T09:54:33.999Z</time>
      </trkpt>
      <trkpt lat="46.2208" lon="2.74344">
        <ele>554.31</ele>
        <time>2018-04-10T09:54:34.999Z</time>
      </trkpt>
      <trkpt lat="46.22081" lon="2.74329">
        <ele>553.75</ele>
        <time>2018-04-10T09:54:35.999Z</time>
      </trkpt>
      <trkpt lat="46.22082" lon="2.74314">
        <ele>553.42</ele>
        <time>2018-04-10T09:54:36.999Z</time>
      </trkpt>
      <trkpt lat="46.22083" lon="2.743">
        <ele>553.35</ele>
        <time>2018-04-10T09:54:37.999Z</time>
      </trkpt>
      <trkpt lat="46.22084" lon="2.74276">
        <ele>553.59</ele>
        <time>2018-04-10T09:54:39.999Z</time>
      </trkpt>
      <trkpt lat="46.22086" lon="2.74256">
        <ele>553.63</ele>
        <time>2018-04-10T09:54:41.999Z</time>
      </trkpt>
      <trkpt lat="46.22087" lon="2.7424">
        <ele>553.58</ele>
        <time>2018-04-10T09:54:43.999Z</time>
      </trkpt>
      <trkpt lat="46.22088" lon="2.74225">
        <ele>553.67</ele>
        <time>2018-04-10T09:54:45.999Z</time>
      </trkpt>
      <trkpt lat="46.2209" lon="2.74208">
        <ele>554.3</ele>
        <time>2018-04-10T09:54:48.999Z</time>
      </trkpt>
      <trkpt lat="46.22091" lon="2.74192">
        <ele>554.5</ele>
        <time>2018-04-10T09:54:51.999Z</time>
      </trkpt>
      <trkpt lat="46.22093" lon="2.74176">
        <ele>554.88</ele>
        <time>2018-04-10T09:54:54.999Z</time>
      </trkpt>
      <trkpt lat="46.22094" lon="2.7416">
        <ele>555.09</ele>
        <time>2018-04-10T09:54:57.999Z</time>
      </trkpt>
      <trkpt lat="46.22096" lon="2.74144">
        <ele>555.34</ele>
        <time>2018-04-10T09:55:00.999Z</time>
      </trkpt>
      <trkpt lat="46.22097" lon="2.74128">
        <ele>556.08</ele>
        <time>2018-04-10T09:55:03.999Z</time>
      </trkpt>
      <trkpt lat="46.221" lon="2.74111">
        <ele>557.28</ele>
        <time>2018-04-10T09:55:06.999Z</time>
      </trkpt>
      <trkpt lat="46.22104" lon="2.74096">
        <ele>558.42</ele>
        <time>2018-04-10T09:55:09.999Z</time>
      </trkpt>
      <trkpt lat="46.22107" lon="2.74082">
        <ele>559.25</ele>
        <time>2018-04-10T09:55:12.999Z</time>
      </trkpt>
      <trkpt lat="46.2211" lon="2.74069">
        <ele>560.05</ele>
        <time>2018-04-10T09:55:15.999Z</time>
      </trkpt>
      <trkpt lat="46.22114" lon="2.74057">
        <ele>560.72</ele>
        <time>2018-04-10T09:55:18.999Z</time>
      </trkpt>
      <trkpt lat="46.22118" lon="2.74044">
        <ele>561.4</ele>
        <time>2018-04-10T09:55:21.999Z</time>
      </trkpt>
      <trkpt lat="46.22122" lon="2.74031">
        <ele>561.63</ele>
        <time>2018-04-10T09:55:24.999Z</time>
      </trkpt>
      <trkpt lat="46.22127" lon="2.74016">
        <ele>562.19</ele>
        <time>2018-04-10T09:55:27.999Z</time>
      </trkpt>
      <trkpt lat="46.22131" lon="2.74001">
        <ele>562.79</ele>
        <time>2018-04-10T09:55:30.999Z</time>
      </trkpt>
      <trkpt lat="46.22136" lon="2.73986">
        <ele>563.53</ele>
        <time>2018-04-10T09:55:33.999Z</time>
      </trkpt>
      <trkpt lat="46.22139" lon="2.7397">
        <ele>564.44</ele>
        <time>2018-04-10T09:55:36.999Z</time>
      </trkpt>
      <trkpt lat="46.22143" lon="2.73954">
        <ele>564.91</ele>
        <time>2018-04-10T09:55:39.999Z</time>
      </trkpt>
      <trkpt lat="46.22148" lon="2.73937">
        <ele>565.07</ele>
        <time>2018-04-10T09:55:42.999Z</time>
      </trkpt>
      <trkpt lat="46.22152" lon="2.7392">
        <ele>565.59</ele>
        <time>2018-04-10T09:55:45.999Z</time>
      </trkpt>
      <trkpt lat="46.22155" lon="2.73903">
        <ele>566.3</ele>
        <time>2018-04-10T09:55:48.999Z</time>
      </trkpt>
      <trkpt lat="46.22157" lon="2.7389">
        <ele>566.45</ele>
        <time>2018-04-10T09:55:50.999Z</time>
      </trkpt>
      <trkpt lat="46.22159" lon="2.73875">
        <ele>566.29</ele>
        <time>2018-04-10T09:55:52.999Z</time>
      </trkpt>
      <trkpt lat="46.22161" lon="2.7386">
        <ele>566.4</ele>
        <time>2018-04-10T09:55:54.999Z</time>
      </trkpt>
      <trkpt lat="46.22162" lon="2.73844">
        <ele>566.07</ele>
        <time>2018-04-10T09:55:56.999Z</time>
      </trkpt>
      <trkpt lat="46.22164" lon="2.73827">
        <ele>565.46</ele>
        <time>2018-04-10T09:55:58.999Z</time>
      </trkpt>
      <trkpt lat="46.22166" lon="2.73807">
        <ele>565.01</ele>
        <time>2018-04-10T09:56:00.999Z</time>
      </trkpt>
      <trkpt lat="46.22169" lon="2.73787">
        <ele>565.9</ele>
        <time>2018-04-10T09:56:02.999Z</time>
      </trkpt>
      <trkpt lat="46.22172" lon="2.73763">
        <ele>565.52</ele>
        <time>2018-04-10T09:56:04.999Z</time>
      </trkpt>
      <trkpt lat="46.22174" lon="2.7375">
        <ele>564.93</ele>
        <time>2018-04-10T09:56:05.999Z</time>
      </trkpt>
      <trkpt lat="46.22176" lon="2.73737">
        <ele>564.37</ele>
        <time>2018-04-10T09:56:06.999Z</time>
      </trkpt>
      <trkpt lat="46.22178" lon="2.73723">
        <ele>563.8</ele>
        <time>2018-04-10T09:56:07.999Z</time>
      </trkpt>
      <trkpt lat="46.22179" lon="2.73708">
        <ele>563.05</ele>
        <time>2018-04-10T09:56:08.999Z</time>
      </trkpt>
      <trkpt lat="46.22181" lon="2.73693">
        <ele>562.36</ele>
        <time>2018-04-10T09:56:09.999Z</time>
      </trkpt>
      <trkpt lat="46.22184" lon="2.73678">
        <ele>560.87</ele>
        <time>2018-04-10T09:56:10.999Z</time>
      </trkpt>
      <trkpt lat="46.22187" lon="2.73663">
        <ele>560.53</ele>
        <time>2018-04-10T09:56:11.999Z</time>
      </trkpt>
      <trkpt lat="46.22191" lon="2.73648">
        <ele>559.85</ele>
        <time>2018-04-10T09:56:12.999Z</time>
      </trkpt>
      <trkpt lat="46.22195" lon="2.73634">
        <ele>559.13</ele>
        <time>2018-04-10T09:56:13.999Z</time>
      </trkpt>
      <trkpt lat="46.22201" lon="2.7362">
        <ele>558.41</ele>
        <time>2018-04-10T09:56:14.999Z</time>
      </trkpt>
      <trkpt lat="46.22208" lon="2.73607">
        <ele>557.82</ele>
        <time>2018-04-10T09:56:15.999Z</time>
      </trkpt>
      <trkpt lat="46.22217" lon="2.73594">
        <ele>557.1</ele>
        <time>2018-04-10T09:56:16.999Z</time>
      </trkpt>
      <trkpt lat="46.22225" lon="2.73581">
        <ele>556.35</ele>
        <time>2018-04-10T09:56:17.999Z</time>
      </trkpt>
      <trkpt lat="46.22232" lon="2.73567">
        <ele>555.48</ele>
        <time>2018-04-10T09:56:18.999Z</time>
      </trkpt>
      <trkpt lat="46.22239" lon="2.73553">
        <ele>554.54</ele>
        <time>2018-04-10T09:56:19.999Z</time>
      </trkpt>
      <trkpt lat="46.22245" lon="2.73538">
        <ele>553.48</ele>
        <time>2018-04-10T09:56:20.999Z</time>
      </trkpt>
      <trkpt lat="46.22252" lon="2.73521">
        <ele>552.4</ele>
        <time>2018-04-10T09:56:21.999Z</time>
      </trkpt>
      <trkpt lat="46.22258" lon="2.73505">
        <ele>551.38</ele>
        <time>2018-04-10T09:56:22.999Z</time>
      </trkpt>
      <trkpt lat="46.22264" lon="2.73489">
        <ele>550.42</ele>
        <time>2018-04-10T09:56:23.999Z</time>
      </trkpt>
      <trkpt lat="46.22269" lon="2.73472">
        <ele>549.53</ele>
        <time>2018-04-10T09:56:24.999Z</time>
      </trkpt>
      <trkpt lat="46.22276" lon="2.73456">
        <ele>548.6</ele>
        <time>2018-04-10T09:56:25.999Z</time>
      </trkpt>
      <trkpt lat="46.22282" lon="2.73439">
        <ele>547.61</ele>
        <time>2018-04-10T09:56:26.999Z</time>
      </trkpt>
      <trkpt lat="46.22288" lon="2.73424">
        <ele>546.79</ele>
        <time>2018-04-10T09:56:27.999Z</time>
      </trkpt>
      <trkpt lat="46.22294" lon="2.73409">
        <ele>546.08</ele>
        <time>2018-04-10T09:56:28.999Z</time>
      </trkpt>
      <trkpt lat="46.22299" lon="2.73395">
        <ele>545.5</ele>
        <time>2018-04-10T09:56:29.999Z</time>
      </trkpt>
      <trkpt lat="46.22304" lon="2.73382">
        <ele>544.94</ele>
        <time>2018-04-10T09:56:30.999Z</time>
      </trkpt>
      <trkpt lat="46.22311" lon="2.73361">
        <ele>543.98</ele>
        <time>2018-04-10T09:56:32.999Z</time>
      </trkpt>
      <trkpt lat="46.22312" lon="2.73343">
        <ele>543.15</ele>
        <time>2018-04-10T09:56:34.999Z</time>
      </trkpt>
      <trkpt lat="46.22308" lon="2.73329">
        <ele>541.85</ele>
        <time>2018-04-10T09:56:36.999Z</time>
      </trkpt>
      <trkpt lat="46.22312" lon="2.73313">
        <ele>541.05</ele>
        <time>2018-04-10T09:56:39.999Z</time>
      </trkpt>
      <trkpt lat="46.22321" lon="2.73302">
        <ele>540.56</ele>
        <time>2018-04-10T09:56:41.999Z</time>
      </trkpt>
      <trkpt lat="46.22331" lon="2.7329">
        <ele>539.62</ele>
        <time>2018-04-10T09:56:43.999Z</time>
      </trkpt>
      <trkpt lat="46.2234" lon="2.73277">
        <ele>539.34</ele>
        <time>2018-04-10T09:56:45.999Z</time>
      </trkpt>
      <trkpt lat="46.22352" lon="2.73261">
        <ele>538.36</ele>
        <time>2018-04-10T09:56:47.999Z</time>
      </trkpt>
      <trkpt lat="46.22363" lon="2.73246">
        <ele>537.68</ele>
        <time>2018-04-10T09:56:49.999Z</time>
      </trkpt>
      <trkpt lat="46.22374" lon="2.73231">
        <ele>537.27</ele>
        <time>2018-04-10T09:56:51.999Z</time>
      </trkpt>
      <trkpt lat="46.22385" lon="2.73215">
        <ele>537.14</ele>
        <time>2018-04-10T09:56:53.999Z</time>
      </trkpt>
      <trkpt lat="46.22395" lon="2.732">
        <ele>536.82</ele>
        <time>2018-04-10T09:56:55.999Z</time>
      </trkpt>
      <trkpt lat="46.22406" lon="2.73186">
        <ele>536.59</ele>
        <time>2018-04-10T09:56:57.999Z</time>
      </trkpt>
      <trkpt lat="46.22417" lon="2.73172">
        <ele>536.51</ele>
        <time>2018-04-10T09:56:59.999Z</time>
      </trkpt>
      <trkpt lat="46.22427" lon="2.73159">
        <ele>536.48</ele>
        <time>2018-04-10T09:57:01.999Z</time>
      </trkpt>
      <trkpt lat="46.22437" lon="2.73146">
        <ele>536.85</ele>
        <time>2018-04-10T09:57:03.999Z</time>
      </trkpt>
      <trkpt lat="46.22447" lon="2.73134">
        <ele>537.23</ele>
        <time>2018-04-10T09:57:05.999Z</time>
      </trkpt>
      <trkpt lat="46.22456" lon="2.73123">
        <ele>537.69</ele>
        <time>2018-04-10T09:57:07.999Z</time>
      </trkpt>
      <trkpt lat="46.22463" lon="2.73111">
        <ele>538.32</ele>
        <time>2018-04-10T09:57:09.999Z</time>
      </trkpt>
      <trkpt lat="46.2247" lon="2.73101">
        <ele>538.85</ele>
        <time>2018-04-10T09:57:11.999Z</time>
      </trkpt>
      <trkpt lat="46.22478" lon="2.73091">
        <ele>539.25</ele>
        <time>2018-04-10T09:57:13.999Z</time>
      </trkpt>
      <trkpt lat="46.22484" lon="2.73081">
        <ele>540.09</ele>
        <time>2018-04-10T09:57:15.999Z</time>
      </trkpt>
      <trkpt lat="46.22491" lon="2.73071">
        <ele>540.35</ele>
        <time>2018-04-10T09:57:17.999Z</time>
      </trkpt>
      <trkpt lat="46.22499" lon="2.73061">
        <ele>540.72</ele>
        <time>2018-04-10T09:57:19.999Z</time>
      </trkpt>
      <trkpt lat="46.22506" lon="2.7305">
        <ele>541.19</ele>
        <time>2018-04-10T09:57:21.999Z</time>
      </trkpt>
      <trkpt lat="46.22512" lon="2.7304">
        <ele>541.22</ele>
        <time>2018-04-10T09:57:23.999Z</time>
      </trkpt>
      <trkpt lat="46.22518" lon="2.7303">
        <ele>541.59</ele>
        <time>2018-04-10T09:57:25.999Z</time>
      </trkpt>
      <trkpt lat="46.22525" lon="2.73019">
        <ele>542.04</ele>
        <time>2018-04-10T09:57:27.999Z</time>
      </trkpt>
      <trkpt lat="46.22533" lon="2.73009">
        <ele>542.43</ele>
        <time>2018-04-10T09:57:29.999Z</time>
      </trkpt>
      <trkpt lat="46.2254" lon="2.72997">
        <ele>543.38</ele>
        <time>2018-04-10T09:57:31.999Z</time>
      </trkpt>
      <trkpt lat="46.22547" lon="2.72987">
        <ele>544.02</ele>
        <time>2018-04-10T09:57:33.999Z</time>
      </trkpt>
      <trkpt lat="46.22555" lon="2.72977">
        <ele>544.74</ele>
        <time>2018-04-10T09:57:35.999Z</time>
      </trkpt>
      <trkpt lat="46.22561" lon="2.72968">
        <ele>545.12</ele>
        <time>2018-04-10T09:57:37.999Z</time>
      </trkpt>
      <trkpt lat="46.22568" lon="2.72959">
        <ele>545.51</ele>
        <time>2018-04-10T09:57:39.999Z</time>
      </trkpt>
      <trkpt lat="46.22578" lon="2.72946">
        <ele>546.63</ele>
        <time>2018-04-10T09:57:42.999Z</time>
      </trkpt>
      <trkpt lat="46.22588" lon="2.72933">
        <ele>548.19</ele>
        <time>2018-04-10T09:57:45.999Z</time>
      </trkpt>
      <trkpt lat="46.22596" lon="2.72921">
        <ele>548.64</ele>
        <time>2018-04-10T09:57:48.999Z</time>
      </trkpt>
      <trkpt lat="46.22605" lon="2.72908">
        <ele>549.73</ele>
        <time>2018-04-10T09:57:51.999Z</time>
      </trkpt>
      <trkpt lat="46.22614" lon="2.72896">
        <ele>550.86</ele>
        <time>2018-04-10T09:57:54.999Z</time>
      </trkpt>
      <trkpt lat="46.22623" lon="2.72884">
        <ele>551.69</ele>
        <time>2018-04-10T09:57:57.999Z</time>
      </trkpt>
      <trkpt lat="46.2263" lon="2.72873">
        <ele>552.8</ele>
        <time>2018-04-10T09:58:00.999Z</time>
      </trkpt>
      <trkpt lat="46.22638" lon="2.72862">
        <ele>553.29</ele>
        <time>2018-04-10T09:58:03.999Z</time>
      </trkpt>
      <trkpt lat="46.22646" lon="2.72851">
        <ele>553.74</ele>
        <time>2018-04-10T09:58:06.999Z</time>
      </trkpt>
      <trkpt lat="46.22653" lon="2.7284">
        <ele>554.98</ele>
        <time>2018-04-10T09:58:09.999Z</time>
      </trkpt>
      <trkpt lat="46.22661" lon="2.72829">
        <ele>556.59</ele>
        <time>2018-04-10T09:58:12.999Z</time>
      </trkpt>
      <trkpt lat="46.22669" lon="2.72819">
        <ele>557.9</ele>
        <time>2018-04-10T09:58:15.999Z</time>
      </trkpt>
      <trkpt lat="46.22678" lon="2.72807">
        <ele>558.88</ele>
        <time>2018-04-10T09:58:18.999Z</time>
      </trkpt>
      <trkpt lat="46.22685" lon="2.72795">
        <ele>559.82</ele>
        <time>2018-04-10T09:58:21.999Z</time>
      </trkpt>
      <trkpt lat="46.22694" lon="2.72782">
        <ele>560.35</ele>
        <time>2018-04-10T09:58:24.999Z</time>
      </trkpt>
      <trkpt lat="46.22701" lon="2.72773">
        <ele>560.52</ele>
        <time>2018-04-10T09:58:26.999Z</time>
      </trkpt>
      <trkpt lat="46.22707" lon="2.72764">
        <ele>560.5</ele>
        <time>2018-04-10T09:58:28.999Z</time>
      </trkpt>
      <trkpt lat="46.22714" lon="2.72755">
        <ele>560.52</ele>
        <time>2018-04-10T09:58:30.999Z</time>
      </trkpt>
      <trkpt lat="46.22724" lon="2.72742">
        <ele>560.14</ele>
        <time>2018-04-10T09:58:33.999Z</time>
      </trkpt>
      <trkpt lat="46.22733" lon="2.72728">
        <ele>559.71</ele>
        <time>2018-04-10T09:58:36.999Z</time>
      </trkpt>
      <trkpt lat="46.2274" lon="2.72719">
        <ele>559.58</ele>
        <time>2018-04-10T09:58:38.999Z</time>
      </trkpt>
      <trkpt lat="46.22747" lon="2.72709">
        <ele>559.77</ele>
        <time>2018-04-10T09:58:40.999Z</time>
      </trkpt>
      <trkpt lat="46.22754" lon="2.72699">
        <ele>559.37</ele>
        <time>2018-04-10T09:58:42.999Z</time>
      </trkpt>
      <trkpt lat="46.22762" lon="2.7269">
        <ele>559.15</ele>
        <time>2018-04-10T09:58:44.999Z</time>
      </trkpt>
      <trkpt lat="46.22769" lon="2.7268">
        <ele>559.1</ele>
        <time>2018-04-10T09:58:46.999Z</time>
      </trkpt>
      <trkpt lat="46.22775" lon="2.7267">
        <ele>559.28</ele>
        <time>2018-04-10T09:58:48.999Z</time>
      </trkpt>
      <trkpt lat="46.22783" lon="2.7266">
        <ele>559.65</ele>
        <time>2018-04-10T09:58:50.999Z</time>
      </trkpt>
      <trkpt lat="46.22791" lon="2.7265">
        <ele>559.86</ele>
        <time>2018-04-10T09:58:52.999Z</time>
      </trkpt>
      <trkpt lat="46.22797" lon="2.7264">
        <ele>560.14</ele>
        <time>2018-04-10T09:58:54.999Z</time>
      </trkpt>
      <trkpt lat="46.22804" lon="2.7263">
        <ele>560.39</ele>
        <time>2018-04-10T09:58:56.999Z</time>
      </trkpt>
      <trkpt lat="46.2281" lon="2.72619">
        <ele>561.1</ele>
        <time>2018-04-10T09:58:58.999Z</time>
      </trkpt>
      <trkpt lat="46.22817" lon="2.72609">
        <ele>561.7</ele>
        <time>2018-04-10T09:59:00.999Z</time>
      </trkpt>
      <trkpt lat="46.22825" lon="2.72599">
        <ele>562.2</ele>
        <time>2018-04-10T09:59:02.999Z</time>
      </trkpt>
      <trkpt lat="46.22831" lon="2.72589">
        <ele>562.93</ele>
        <time>2018-04-10T09:59:04.999Z</time>
      </trkpt>
      <trkpt lat="46.22838" lon="2.72578">
        <ele>563.71</ele>
        <time>2018-04-10T09:59:06.999Z</time>
      </trkpt>
      <trkpt lat="46.22845" lon="2.72568">
        <ele>563.99</ele>
        <time>2018-04-10T09:59:08.999Z</time>
      </trkpt>
      <trkpt lat="46.22853" lon="2.72558">
        <ele>564.46</ele>
        <time>2018-04-10T09:59:10.999Z</time>
      </trkpt>
      <trkpt lat="46.22861" lon="2.72547">
        <ele>564.69</ele>
        <time>2018-04-10T09:59:12.999Z</time>
      </trkpt>
      <trkpt lat="46.2287" lon="2.72535">
        <ele>564.53</ele>
        <time>2018-04-10T09:59:14.999Z</time>
      </trkpt>
      <trkpt lat="46.22879" lon="2.72522">
        <ele>564.36</ele>
        <time>2018-04-10T09:59:16.999Z</time>
      </trkpt>
      <trkpt lat="46.22889" lon="2.72509">
        <ele>563.99</ele>
        <time>2018-04-10T09:59:18.999Z</time>
      </trkpt>
      <trkpt lat="46.22899" lon="2.72495">
        <ele>563.44</ele>
        <time>2018-04-10T09:59:20.999Z</time>
      </trkpt>
      <trkpt lat="46.22909" lon="2.72481">
        <ele>562.65</ele>
        <time>2018-04-10T09:59:22.999Z</time>
      </trkpt>
      <trkpt lat="46.2292" lon="2.72467">
        <ele>562.37</ele>
        <time>2018-04-10T09:59:24.999Z</time>
      </trkpt>
      <trkpt lat="46.2293" lon="2.72451">
        <ele>561.84</ele>
        <time>2018-04-10T09:59:26.999Z</time>
      </trkpt>
      <trkpt lat="46.22942" lon="2.72435">
        <ele>561.23</ele>
        <time>2018-04-10T09:59:28.999Z</time>
      </trkpt>
      <trkpt lat="46.22953" lon="2.72419">
        <ele>560.89</ele>
        <time>2018-04-10T09:59:30.999Z</time>
      </trkpt>
      <trkpt lat="46.22966" lon="2.72403">
        <ele>560.49</ele>
        <time>2018-04-10T09:59:32.999Z</time>
      </trkpt>
      <trkpt lat="46.22978" lon="2.72384">
        <ele>559.93</ele>
        <time>2018-04-10T09:59:34.999Z</time>
      </trkpt>
      <trkpt lat="46.2299" lon="2.72365">
        <ele>559.25</ele>
        <time>2018-04-10T09:59:36.999Z</time>
      </trkpt>
      <trkpt lat="46.22997" lon="2.72356">
        <ele>558.83</ele>
        <time>2018-04-10T09:59:37.999Z</time>
      </trkpt>
      <trkpt lat="46.23004" lon="2.72346">
        <ele>558.51</ele>
        <time>2018-04-10T09:59:38.999Z</time>
      </trkpt>
      <trkpt lat="46.23011" lon="2.72336">
        <ele>558.11</ele>
        <time>2018-04-10T09:59:39.999Z</time>
      </trkpt>
      <trkpt lat="46.23017" lon="2.72326">
        <ele>557.79</ele>
        <time>2018-04-10T09:59:40.999Z</time>
      </trkpt>
      <trkpt lat="46.23024" lon="2.72315">
        <ele>557.43</ele>
        <time>2018-04-10T09:59:41.999Z</time>
      </trkpt>
      <trkpt lat="46.23031" lon="2.72303">
        <ele>557.21</ele>
        <time>2018-04-10T09:59:42.999Z</time>
      </trkpt>
      <trkpt lat="46.23037" lon="2.72292">
        <ele>557.07</ele>
        <time>2018-04-10T09:59:43.999Z</time>
      </trkpt>
      <trkpt lat="46.23044" lon="2.7228">
        <ele>556.7</ele>
        <time>2018-04-10T09:59:44.999Z</time>
      </trkpt>
      <trkpt lat="46.23051" lon="2.72268">
        <ele>556.01</ele>
        <time>2018-04-10T09:59:45.999Z</time>
      </trkpt>
      <trkpt lat="46.23058" lon="2.72256">
        <ele>555.27</ele>
        <time>2018-04-10T09:59:46.999Z</time>
      </trkpt>
      <trkpt lat="46.23066" lon="2.72244">
        <ele>554.59</ele>
        <time>2018-04-10T09:59:47.999Z</time>
      </trkpt>
      <trkpt lat="46.23073" lon="2.72231">
        <ele>553.98</ele>
        <time>2018-04-10T09:59:48.999Z</time>
      </trkpt>
      <trkpt lat="46.2308" lon="2.72218">
        <ele>553.21</ele>
        <time>2018-04-10T09:59:49.999Z</time>
      </trkpt>
      <trkpt lat="46.23088" lon="2.72204">
        <ele>552.4</ele>
        <time>2018-04-10T09:59:50.999Z</time>
      </trkpt>
      <trkpt lat="46.23095" lon="2.7219">
        <ele>551.8</ele>
        <time>2018-04-10T09:59:51.999Z</time>
      </trkpt>
      <trkpt lat="46.23103" lon="2.72177">
        <ele>551.14</ele>
        <time>2018-04-10T09:59:52.999Z</time>
      </trkpt>
      <trkpt lat="46.23111" lon="2.72163">
        <ele>550.44</ele>
        <time>2018-04-10T09:59:53.999Z</time>
      </trkpt>
      <trkpt lat="46.23119" lon="2.72148">
        <ele>549.7</ele>
        <time>2018-04-10T09:59:54.999Z</time>
      </trkpt>
      <trkpt lat="46.23128" lon="2.72133">
        <ele>548.75</ele>
        <time>2018-04-10T09:59:55.999Z</time>
      </trkpt>
      <trkpt lat="46.23136" lon="2.72119">
        <ele>548.04</ele>
        <time>2018-04-10T09:59:56.999Z</time>
      </trkpt>
      <trkpt lat="46.23145" lon="2.72103">
        <ele>546.92</ele>
        <time>2018-04-10T09:59:57.999Z</time>
      </trkpt>
      <trkpt lat="46.23153" lon="2.72088">
        <ele>545.58</ele>
        <time>2018-04-10T09:59:58.999Z</time>
      </trkpt>
      <trkpt lat="46.23162" lon="2.72073">
        <ele>544.29</ele>
        <time>2018-04-10T09:59:59.999Z</time>
      </trkpt>
      <trkpt lat="46.23171" lon="2.72057">
        <ele>543.34</ele>
        <time>2018-04-10T10:00:00.999Z</time>
      </trkpt>
      <trkpt lat="46.2318" lon="2.72041">
        <ele>542.25</ele>
        <time>2018-04-10T10:00:01.999Z</time>
      </trkpt>
      <trkpt lat="46.2319" lon="2.72026">
        <ele>541.3</ele>
        <time>2018-04-10T10:00:02.999Z</time>
      </trkpt>
      <trkpt lat="46.23199" lon="2.7201">
        <ele>540.36</ele>
        <time>2018-04-10T10:00:03.999Z</time>
      </trkpt>
      <trkpt lat="46.23209" lon="2.71994">
        <ele>539.1</ele>
        <time>2018-04-10T10:00:04.999Z</time>
      </trkpt>
      <trkpt lat="46.23218" lon="2.71978">
        <ele>537.96</ele>
        <time>2018-04-10T10:00:05.999Z</time>
      </trkpt>
      <trkpt lat="46.23228" lon="2.71962">
        <ele>536.87</ele>
        <time>2018-04-10T10:00:06.999Z</time>
      </trkpt>
      <trkpt lat="46.23237" lon="2.71947">
        <ele>535.66</ele>
        <time>2018-04-10T10:00:07.999Z</time>
      </trkpt>
      <trkpt lat="46.23246" lon="2.71931">
        <ele>534.71</ele>
        <time>2018-04-10T10:00:08.999Z</time>
      </trkpt>
      <trkpt lat="46.23256" lon="2.71916">
        <ele>533.35</ele>
        <time>2018-04-10T10:00:09.999Z</time>
      </trkpt>
      <trkpt lat="46.23265" lon="2.719">
        <ele>532.17</ele>
        <time>2018-04-10T10:00:10.999Z</time>
      </trkpt>
      <trkpt lat="46.23274" lon="2.71884">
        <ele>531.27</ele>
        <time>2018-04-10T10:00:11.999Z</time>
      </trkpt>
      <trkpt lat="46.23283" lon="2.71868">
        <ele>530.53</ele>
        <time>2018-04-10T10:00:12.999Z</time>
      </trkpt>
      <trkpt lat="46.23293" lon="2.71852">
        <ele>529.51</ele>
        <time>2018-04-10T10:00:13.999Z</time>
      </trkpt>
      <trkpt lat="46.23303" lon="2.71836">
        <ele>528.35</ele>
        <time>2018-04-10T10:00:14.999Z</time>
      </trkpt>
      <trkpt lat="46.23312" lon="2.7182">
        <ele>527.1</ele>
        <time>2018-04-10T10:00:15.999Z</time>
      </trkpt>
      <trkpt lat="46.23321" lon="2.71805">
        <ele>526</ele>
        <time>2018-04-10T10:00:16.999Z</time>
      </trkpt>
      <trkpt lat="46.2333" lon="2.71789">
        <ele>524.93</ele>
        <time>2018-04-10T10:00:17.999Z</time>
      </trkpt>
      <trkpt lat="46.2334" lon="2.71773">
        <ele>523.94</ele>
        <time>2018-04-10T10:00:18.999Z</time>
      </trkpt>
      <trkpt lat="46.23349" lon="2.71758">
        <ele>522.71</ele>
        <time>2018-04-10T10:00:19.999Z</time>
      </trkpt>
      <trkpt lat="46.23358" lon="2.71742">
        <ele>521.87</ele>
        <time>2018-04-10T10:00:20.999Z</time>
      </trkpt>
      <trkpt lat="46.23367" lon="2.71727">
        <ele>520.91</ele>
        <time>2018-04-10T10:00:21.999Z</time>
      </trkpt>
      <trkpt lat="46.23377" lon="2.71711">
        <ele>520.05</ele>
        <time>2018-04-10T10:00:22.999Z</time>
      </trkpt>
      <trkpt lat="46.23386" lon="2.71696">
        <ele>519.11</ele>
        <time>2018-04-10T10:00:23.999Z</time>
      </trkpt>
      <trkpt lat="46.23395" lon="2.7168">
        <ele>518.2</ele>
        <time>2018-04-10T10:00:24.999Z</time>
      </trkpt>
      <trkpt lat="46.23404" lon="2.71664">
        <ele>517.31</ele>
        <time>2018-04-10T10:00:25.999Z</time>
      </trkpt>
      <trkpt lat="46.23414" lon="2.71648">
        <ele>516.31</ele>
        <time>2018-04-10T10:00:26.999Z</time>
      </trkpt>
      <trkpt lat="46.23423" lon="2.71633">
        <ele>515.38</ele>
        <time>2018-04-10T10:00:27.999Z</time>
      </trkpt>
      <trkpt lat="46.23432" lon="2.71618">
        <ele>514.47</ele>
        <time>2018-04-10T10:00:28.999Z</time>
      </trkpt>
      <trkpt lat="46.23441" lon="2.71603">
        <ele>513.55</ele>
        <time>2018-04-10T10:00:29.999Z</time>
      </trkpt>
      <trkpt lat="46.2345" lon="2.71589">
        <ele>512.59</ele>
        <time>2018-04-10T10:00:30.999Z</time>
      </trkpt>
      <trkpt lat="46.23459" lon="2.71575">
        <ele>511.62</ele>
        <time>2018-04-10T10:00:31.999Z</time>
      </trkpt>
      <trkpt lat="46.23469" lon="2.71561">
        <ele>510.64</ele>
        <time>2018-04-10T10:00:32.999Z</time>
      </trkpt>
      <trkpt lat="46.23478" lon="2.71547">
        <ele>509.66</ele>
        <time>2018-04-10T10:00:33.999Z</time>
      </trkpt>
      <trkpt lat="46.23488" lon="2.71534">
        <ele>508.72</ele>
        <time>2018-04-10T10:00:34.999Z</time>
      </trkpt>
      <trkpt lat="46.23499" lon="2.71521">
        <ele>507.89</ele>
        <time>2018-04-10T10:00:35.999Z</time>
      </trkpt>
      <trkpt lat="46.23509" lon="2.71508">
        <ele>507</ele>
        <time>2018-04-10T10:00:36.999Z</time>
      </trkpt>
      <trkpt lat="46.2352" lon="2.71495">
        <ele>506.29</ele>
        <time>2018-04-10T10:00:37.999Z</time>
      </trkpt>
      <trkpt lat="46.2353" lon="2.71483">
        <ele>505.57</ele>
        <time>2018-04-10T10:00:38.999Z</time>
      </trkpt>
      <trkpt lat="46.23541" lon="2.7147">
        <ele>504.92</ele>
        <time>2018-04-10T10:00:39.999Z</time>
      </trkpt>
      <trkpt lat="46.2355" lon="2.71457">
        <ele>504.04</ele>
        <time>2018-04-10T10:00:40.999Z</time>
      </trkpt>
      <trkpt lat="46.23561" lon="2.71444">
        <ele>503.22</ele>
        <time>2018-04-10T10:00:41.999Z</time>
      </trkpt>
      <trkpt lat="46.23572" lon="2.71432">
        <ele>502.49</ele>
        <time>2018-04-10T10:00:42.999Z</time>
      </trkpt>
      <trkpt lat="46.23583" lon="2.7142">
        <ele>501.78</ele>
        <time>2018-04-10T10:00:43.999Z</time>
      </trkpt>
      <trkpt lat="46.23594" lon="2.71408">
        <ele>501.11</ele>
        <time>2018-04-10T10:00:44.999Z</time>
      </trkpt>
      <trkpt lat="46.23605" lon="2.71397">
        <ele>500.45</ele>
        <time>2018-04-10T10:00:45.999Z</time>
      </trkpt>
      <trkpt lat="46.23617" lon="2.71386">
        <ele>499.82</ele>
        <time>2018-04-10T10:00:46.999Z</time>
      </trkpt>
      <trkpt lat="46.23628" lon="2.71375">
        <ele>499.27</ele>
        <time>2018-04-10T10:00:47.999Z</time>
      </trkpt>
      <trkpt lat="46.23639" lon="2.71365">
        <ele>498.7</ele>
        <time>2018-04-10T10:00:48.999Z</time>
      </trkpt>
      <trkpt lat="46.2365" lon="2.71354">
        <ele>498.09</ele>
        <time>2018-04-10T10:00:49.999Z</time>
      </trkpt>
      <trkpt lat="46.23661" lon="2.71344">
        <ele>497.46</ele>
        <time>2018-04-10T10:00:50.999Z</time>
      </trkpt>
      <trkpt lat="46.23672" lon="2.71335">
        <ele>496.82</ele>
        <time>2018-04-10T10:00:51.999Z</time>
      </trkpt>
      <trkpt lat="46.23682" lon="2.71325">
        <ele>496.3</ele>
        <time>2018-04-10T10:00:52.999Z</time>
      </trkpt>
      <trkpt lat="46.23693" lon="2.71315">
        <ele>496.05</ele>
        <time>2018-04-10T10:00:53.999Z</time>
      </trkpt>
      <trkpt lat="46.23703" lon="2.71305">
        <ele>495.52</ele>
        <time>2018-04-10T10:00:54.999Z</time>
      </trkpt>
      <trkpt lat="46.23714" lon="2.71296">
        <ele>494.98</ele>
        <time>2018-04-10T10:00:55.999Z</time>
      </trkpt>
      <trkpt lat="46.23725" lon="2.71286">
        <ele>494.47</ele>
        <time>2018-04-10T10:00:56.999Z</time>
      </trkpt>
      <trkpt lat="46.23735" lon="2.71277">
        <ele>493.86</ele>
        <time>2018-04-10T10:00:57.999Z</time>
      </trkpt>
      <trkpt lat="46.23746" lon="2.71267">
        <ele>493.22</ele>
        <time>2018-04-10T10:00:58.999Z</time>
      </trkpt>
      <trkpt lat="46.23757" lon="2.71256">
        <ele>492.66</ele>
        <time>2018-04-10T10:00:59.999Z</time>
      </trkpt>
      <trkpt lat="46.23768" lon="2.71245">
        <ele>492.11</ele>
        <time>2018-04-10T10:01:00.999Z</time>
      </trkpt>
      <trkpt lat="46.23779" lon="2.71234">
        <ele>491.36</ele>
        <time>2018-04-10T10:01:01.999Z</time>
      </trkpt>
      <trkpt lat="46.2379" lon="2.71223">
        <ele>490.77</ele>
        <time>2018-04-10T10:01:02.999Z</time>
      </trkpt>
      <trkpt lat="46.23801" lon="2.71212">
        <ele>489.9</ele>
        <time>2018-04-10T10:01:03.999Z</time>
      </trkpt>
      <trkpt lat="46.23813" lon="2.71199">
        <ele>489.34</ele>
        <time>2018-04-10T10:01:04.999Z</time>
      </trkpt>
      <trkpt lat="46.23825" lon="2.71187">
        <ele>488.83</ele>
        <time>2018-04-10T10:01:05.999Z</time>
      </trkpt>
      <trkpt lat="46.23837" lon="2.71176">
        <ele>488.41</ele>
        <time>2018-04-10T10:01:06.999Z</time>
      </trkpt>
      <trkpt lat="46.23848" lon="2.71165">
        <ele>488.14</ele>
        <time>2018-04-10T10:01:07.999Z</time>
      </trkpt>
      <trkpt lat="46.2386" lon="2.71154">
        <ele>487.94</ele>
        <time>2018-04-10T10:01:08.999Z</time>
      </trkpt>
      <trkpt lat="46.23872" lon="2.71143">
        <ele>487.65</ele>
        <time>2018-04-10T10:01:09.999Z</time>
      </trkpt>
      <trkpt lat="46.23882" lon="2.71132">
        <ele>487.36</ele>
        <time>2018-04-10T10:01:10.999Z</time>
      </trkpt>
      <trkpt lat="46.23892" lon="2.71121">
        <ele>487.58</ele>
        <time>2018-04-10T10:01:11.999Z</time>
      </trkpt>
      <trkpt lat="46.23902" lon="2.7111">
        <ele>487.68</ele>
        <time>2018-04-10T10:01:12.999Z</time>
      </trkpt>
      <trkpt lat="46.23911" lon="2.71099">
        <ele>487.76</ele>
        <time>2018-04-10T10:01:13.999Z</time>
      </trkpt>
      <trkpt lat="46.2392" lon="2.71088">
        <ele>487.81</ele>
        <time>2018-04-10T10:01:14.999Z</time>
      </trkpt>
      <trkpt lat="46.23928" lon="2.71078">
        <ele>487.71</ele>
        <time>2018-04-10T10:01:15.999Z</time>
      </trkpt>
      <trkpt lat="46.23935" lon="2.71069">
        <ele>487.57</ele>
        <time>2018-04-10T10:01:16.999Z</time>
      </trkpt>
      <trkpt lat="46.23948" lon="2.71051">
        <ele>487.83</ele>
        <time>2018-04-10T10:01:18.999Z</time>
      </trkpt>
      <trkpt lat="46.23958" lon="2.71036">
        <ele>488.45</ele>
        <time>2018-04-10T10:01:20.999Z</time>
      </trkpt>
      <trkpt lat="46.23967" lon="2.71025">
        <ele>488.57</ele>
        <time>2018-04-10T10:01:22.999Z</time>
      </trkpt>
      <trkpt lat="46.23974" lon="2.71015">
        <ele>488.72</ele>
        <time>2018-04-10T10:01:24.999Z</time>
      </trkpt>
      <trkpt lat="46.23981" lon="2.71005">
        <ele>488.74</ele>
        <time>2018-04-10T10:01:27.999Z</time>
      </trkpt>
      <trkpt lat="46.23989" lon="2.70995">
        <ele>488.85</ele>
        <time>2018-04-10T10:01:31.999Z</time>
      </trkpt>
      <trkpt lat="46.23996" lon="2.70985">
        <ele>490.42</ele>
        <time>2018-04-10T10:01:35.999Z</time>
      </trkpt>
      <trkpt lat="46.24004" lon="2.70973">
        <ele>492.07</ele>
        <time>2018-04-10T10:01:39.999Z</time>
      </trkpt>
      <trkpt lat="46.24011" lon="2.70962">
        <ele>492.62</ele>
        <time>2018-04-10T10:01:43.999Z</time>
      </trkpt>
      <trkpt lat="46.24019" lon="2.7095">
        <ele>494.06</ele>
        <time>2018-04-10T10:01:47.999Z</time>
      </trkpt>
      <trkpt lat="46.24025" lon="2.70938">
        <ele>496.18</ele>
        <time>2018-04-10T10:01:51.999Z</time>
      </trkpt>
      <trkpt lat="46.24033" lon="2.70927">
        <ele>498.37</ele>
        <time>2018-04-10T10:01:55.999Z</time>
      </trkpt>
      <trkpt lat="46.24041" lon="2.70916">
        <ele>500.63</ele>
        <time>2018-04-10T10:01:59.999Z</time>
      </trkpt>
      <trkpt lat="46.24047" lon="2.70904">
        <ele>502.69</ele>
        <time>2018-04-10T10:02:03.999Z</time>
      </trkpt>
      <trkpt lat="46.24055" lon="2.70892">
        <ele>504.43</ele>
        <time>2018-04-10T10:02:07.999Z</time>
      </trkpt>
      <trkpt lat="46.24062" lon="2.70881">
        <ele>505.43</ele>
        <time>2018-04-10T10:02:11.999Z</time>
      </trkpt>
      <trkpt lat="46.2407" lon="2.70869">
        <ele>506.45</ele>
        <time>2018-04-10T10:02:15.999Z</time>
      </trkpt>
      <trkpt lat="46.24077" lon="2.70858">
        <ele>506.99</ele>
        <time>2018-04-10T10:02:19.999Z</time>
      </trkpt>
      <trkpt lat="46.24084" lon="2.70847">
        <ele>508.68</ele>
        <time>2018-04-10T10:02:23.999Z</time>
      </trkpt>
      <trkpt lat="46.24093" lon="2.70835">
        <ele>510.31</ele>
        <time>2018-04-10T10:02:27.999Z</time>
      </trkpt>
      <trkpt lat="46.24101" lon="2.70823">
        <ele>511.77</ele>
        <time>2018-04-10T10:02:31.999Z</time>
      </trkpt>
      <trkpt lat="46.24109" lon="2.70811">
        <ele>513.2</ele>
        <time>2018-04-10T10:02:35.999Z</time>
      </trkpt>
      <trkpt lat="46.24118" lon="2.70801">
        <ele>514.35</ele>
        <time>2018-04-10T10:02:39.999Z</time>
      </trkpt>
      <trkpt lat="46.24127" lon="2.70791">
        <ele>515.63</ele>
        <time>2018-04-10T10:02:43.999Z</time>
      </trkpt>
      <trkpt lat="46.24137" lon="2.70781">
        <ele>516.05</ele>
        <time>2018-04-10T10:02:47.999Z</time>
      </trkpt>
      <trkpt lat="46.24145" lon="2.70773">
        <ele>516.9</ele>
        <time>2018-04-10T10:02:50.999Z</time>
      </trkpt>
      <trkpt lat="46.24153" lon="2.70766">
        <ele>518.49</ele>
        <time>2018-04-10T10:02:53.999Z</time>
      </trkpt>
      <trkpt lat="46.24161" lon="2.70759">
        <ele>520.49</ele>
        <time>2018-04-10T10:02:56.999Z</time>
      </trkpt>
      <trkpt lat="46.24169" lon="2.70752">
        <ele>522</ele>
        <time>2018-04-10T10:02:59.999Z</time>
      </trkpt>
      <trkpt lat="46.24177" lon="2.70745">
        <ele>522.88</ele>
        <time>2018-04-10T10:03:02.999Z</time>
      </trkpt>
      <trkpt lat="46.24186" lon="2.70738">
        <ele>523.31</ele>
        <time>2018-04-10T10:03:05.999Z</time>
      </trkpt>
      <trkpt lat="46.24194" lon="2.7073">
        <ele>523.72</ele>
        <time>2018-04-10T10:03:08.999Z</time>
      </trkpt>
      <trkpt lat="46.24202" lon="2.70723">
        <ele>524.01</ele>
        <time>2018-04-10T10:03:11.999Z</time>
      </trkpt>
      <trkpt lat="46.2421" lon="2.70716">
        <ele>524.44</ele>
        <time>2018-04-10T10:03:14.999Z</time>
      </trkpt>
      <trkpt lat="46.24219" lon="2.70711">
        <ele>524.45</ele>
        <time>2018-04-10T10:03:17.999Z</time>
      </trkpt>
      <trkpt lat="46.2423" lon="2.70703">
        <ele>525.34</ele>
        <time>2018-04-10T10:03:21.999Z</time>
      </trkpt>
      <trkpt lat="46.24239" lon="2.70696">
        <ele>526.18</ele>
        <time>2018-04-10T10:03:24.999Z</time>
      </trkpt>
      <trkpt lat="46.24247" lon="2.7069">
        <ele>527.22</ele>
        <time>2018-04-10T10:03:27.999Z</time>
      </trkpt>
      <trkpt lat="46.24256" lon="2.70685">
        <ele>527.89</ele>
        <time>2018-04-10T10:03:30.999Z</time>
      </trkpt>
      <trkpt lat="46.24265" lon="2.70678">
        <ele>528.92</ele>
        <time>2018-04-10T10:03:33.999Z</time>
      </trkpt>
      <trkpt lat="46.24274" lon="2.70671">
        <ele>530.09</ele>
        <time>2018-04-10T10:03:36.999Z</time>
      </trkpt>
      <trkpt lat="46.24282" lon="2.70666">
        <ele>531.06</ele>
        <time>2018-04-10T10:03:39.999Z</time>
      </trkpt>
      <trkpt lat="46.24293" lon="2.7066">
        <ele>532.65</ele>
        <time>2018-04-10T10:03:43.999Z</time>
      </trkpt>
      <trkpt lat="46.24302" lon="2.70656">
        <ele>533.55</ele>
        <time>2018-04-10T10:03:46.999Z</time>
      </trkpt>
      <trkpt lat="46.24311" lon="2.70652">
        <ele>534.84</ele>
        <time>2018-04-10T10:03:49.999Z</time>
      </trkpt>
      <trkpt lat="46.2432" lon="2.70649">
        <ele>535.6</ele>
        <time>2018-04-10T10:03:52.999Z</time>
      </trkpt>
      <trkpt lat="46.24329" lon="2.70644">
        <ele>536.35</ele>
        <time>2018-04-10T10:03:55.999Z</time>
      </trkpt>
      <trkpt lat="46.24339" lon="2.7064">
        <ele>537.1</ele>
        <time>2018-04-10T10:03:58.999Z</time>
      </trkpt>
      <trkpt lat="46.24348" lon="2.70636">
        <ele>537.66</ele>
        <time>2018-04-10T10:04:01.999Z</time>
      </trkpt>
      <trkpt lat="46.24358" lon="2.70633">
        <ele>538</ele>
        <time>2018-04-10T10:04:04.999Z</time>
      </trkpt>
      <trkpt lat="46.24367" lon="2.7063">
        <ele>538.6</ele>
        <time>2018-04-10T10:04:07.999Z</time>
      </trkpt>
      <trkpt lat="46.24376" lon="2.70627">
        <ele>538.78</ele>
        <time>2018-04-10T10:04:10.999Z</time>
      </trkpt>
      <trkpt lat="46.24385" lon="2.70623">
        <ele>538.6</ele>
        <time>2018-04-10T10:04:13.999Z</time>
      </trkpt>
      <trkpt lat="46.24397" lon="2.70619">
        <ele>538.89</ele>
        <time>2018-04-10T10:04:17.999Z</time>
      </trkpt>
      <trkpt lat="46.24406" lon="2.70617">
        <ele>538.74</ele>
        <time>2018-04-10T10:04:20.999Z</time>
      </trkpt>
      <trkpt lat="46.24414" lon="2.70613">
        <ele>538.94</ele>
        <time>2018-04-10T10:04:23.999Z</time>
      </trkpt>
      <trkpt lat="46.24423" lon="2.70608">
        <ele>539.68</ele>
        <time>2018-04-10T10:04:26.999Z</time>
      </trkpt>
      <trkpt lat="46.24432" lon="2.70604">
        <ele>540.58</ele>
        <time>2018-04-10T10:04:29.999Z</time>
      </trkpt>
      <trkpt lat="46.24442" lon="2.70599">
        <ele>541.85</ele>
        <time>2018-04-10T10:04:32.999Z</time>
      </trkpt>
      <trkpt lat="46.24451" lon="2.70593">
        <ele>543.97</ele>
        <time>2018-04-10T10:04:35.999Z</time>
      </trkpt>
      <trkpt lat="46.2446" lon="2.70587">
        <ele>544.96</ele>
        <time>2018-04-10T10:04:38.999Z</time>
      </trkpt>
      <trkpt lat="46.24469" lon="2.70582">
        <ele>545.5</ele>
        <time>2018-04-10T10:04:41.999Z</time>
      </trkpt>
      <trkpt lat="46.24478" lon="2.70576">
        <ele>545.94</ele>
        <time>2018-04-10T10:04:44.999Z</time>
      </trkpt>
      <trkpt lat="46.2449" lon="2.7057">
        <ele>546.86</ele>
        <time>2018-04-10T10:04:48.999Z</time>
      </trkpt>
      <trkpt lat="46.24501" lon="2.70565">
        <ele>546.82</ele>
        <time>2018-04-10T10:04:51.999Z</time>
      </trkpt>
      <trkpt lat="46.2451" lon="2.7056">
        <ele>547.22</ele>
        <time>2018-04-10T10:04:54.999Z</time>
      </trkpt>
      <trkpt lat="46.24518" lon="2.70554">
        <ele>547.22</ele>
        <time>2018-04-10T10:04:57.999Z</time>
      </trkpt>
      <trkpt lat="46.24527" lon="2.70549">
        <ele>546.91</ele>
        <time>2018-04-10T10:05:00.999Z</time>
      </trkpt>
      <trkpt lat="46.24538" lon="2.70543">
        <ele>547.04</ele>
        <time>2018-04-10T10:05:04.999Z</time>
      </trkpt>
      <trkpt lat="46.24548" lon="2.70536">
        <ele>546.48</ele>
        <time>2018-04-10T10:05:07.999Z</time>
      </trkpt>
      <trkpt lat="46.24557" lon="2.7053">
        <ele>546.26</ele>
        <time>2018-04-10T10:05:10.999Z</time>
      </trkpt>
      <trkpt lat="46.24565" lon="2.70524">
        <ele>546.42</ele>
        <time>2018-04-10T10:05:13.999Z</time>
      </trkpt>
      <trkpt lat="46.24574" lon="2.70518">
        <ele>546.51</ele>
        <time>2018-04-10T10:05:16.999Z</time>
      </trkpt>
      <trkpt lat="46.24583" lon="2.70512">
        <ele>546.66</ele>
        <time>2018-04-10T10:05:19.999Z</time>
      </trkpt>
      <trkpt lat="46.24592" lon="2.70506">
        <ele>546.32</ele>
        <time>2018-04-10T10:05:22.999Z</time>
      </trkpt>
      <trkpt lat="46.24603" lon="2.70499">
        <ele>547.04</ele>
        <time>2018-04-10T10:05:25.999Z</time>
      </trkpt>
      <trkpt lat="46.24611" lon="2.70493">
        <ele>547.36</ele>
        <time>2018-04-10T10:05:27.999Z</time>
      </trkpt>
      <trkpt lat="46.24621" lon="2.70488">
        <ele>547.43</ele>
        <time>2018-04-10T10:05:29.999Z</time>
      </trkpt>
      <trkpt lat="46.24631" lon="2.70482">
        <ele>547.72</ele>
        <time>2018-04-10T10:05:31.999Z</time>
      </trkpt>
      <trkpt lat="46.24642" lon="2.70476">
        <ele>547.95</ele>
        <time>2018-04-10T10:05:33.999Z</time>
      </trkpt>
      <trkpt lat="46.24653" lon="2.70468">
        <ele>548.04</ele>
        <time>2018-04-10T10:05:35.999Z</time>
      </trkpt>
      <trkpt lat="46.24664" lon="2.70461">
        <ele>548.26</ele>
        <time>2018-04-10T10:05:37.999Z</time>
      </trkpt>
      <trkpt lat="46.24677" lon="2.70455">
        <ele>548.24</ele>
        <time>2018-04-10T10:05:39.999Z</time>
      </trkpt>
      <trkpt lat="46.24689" lon="2.70448">
        <ele>548.02</ele>
        <time>2018-04-10T10:05:41.999Z</time>
      </trkpt>
      <trkpt lat="46.24701" lon="2.7044">
        <ele>548</ele>
        <time>2018-04-10T10:05:43.999Z</time>
      </trkpt>
      <trkpt lat="46.24714" lon="2.70432">
        <ele>548.14</ele>
        <time>2018-04-10T10:05:45.999Z</time>
      </trkpt>
      <trkpt lat="46.24727" lon="2.70424">
        <ele>548.28</ele>
        <time>2018-04-10T10:05:47.999Z</time>
      </trkpt>
      <trkpt lat="46.24741" lon="2.70415">
        <ele>548.23</ele>
        <time>2018-04-10T10:05:49.999Z</time>
      </trkpt>
      <trkpt lat="46.24754" lon="2.70407">
        <ele>548.82</ele>
        <time>2018-04-10T10:05:51.999Z</time>
      </trkpt>
      <trkpt lat="46.24768" lon="2.70398">
        <ele>549.24</ele>
        <time>2018-04-10T10:05:53.999Z</time>
      </trkpt>
      <trkpt lat="46.24781" lon="2.70388">
        <ele>549.33</ele>
        <time>2018-04-10T10:05:55.999Z</time>
      </trkpt>
      <trkpt lat="46.24795" lon="2.70379">
        <ele>549.15</ele>
        <time>2018-04-10T10:05:57.999Z</time>
      </trkpt>
      <trkpt lat="46.24808" lon="2.70369">
        <ele>549</ele>
        <time>2018-04-10T10:05:59.999Z</time>
      </trkpt>
      <trkpt lat="46.24822" lon="2.7036">
        <ele>549.48</ele>
        <time>2018-04-10T10:06:01.999Z</time>
      </trkpt>
      <trkpt lat="46.24835" lon="2.70352">
        <ele>549.21</ele>
        <time>2018-04-10T10:06:03.999Z</time>
      </trkpt>
      <trkpt lat="46.24849" lon="2.70344">
        <ele>548.97</ele>
        <time>2018-04-10T10:06:05.999Z</time>
      </trkpt>
      <trkpt lat="46.24862" lon="2.70336">
        <ele>548.63</ele>
        <time>2018-04-10T10:06:07.999Z</time>
      </trkpt>
      <trkpt lat="46.24876" lon="2.70327">
        <ele>548.64</ele>
        <time>2018-04-10T10:06:09.999Z</time>
      </trkpt>
      <trkpt lat="46.24891" lon="2.70318">
        <ele>548.65</ele>
        <time>2018-04-10T10:06:11.999Z</time>
      </trkpt>
      <trkpt lat="46.24904" lon="2.7031">
        <ele>548.72</ele>
        <time>2018-04-10T10:06:13.999Z</time>
      </trkpt>
      <trkpt lat="46.24918" lon="2.70301">
        <ele>548.89</ele>
        <time>2018-04-10T10:06:15.999Z</time>
      </trkpt>
      <trkpt lat="46.24933" lon="2.70292">
        <ele>549.05</ele>
        <time>2018-04-10T10:06:17.999Z</time>
      </trkpt>
      <trkpt lat="46.24948" lon="2.70283">
        <ele>548.96</ele>
        <time>2018-04-10T10:06:19.999Z</time>
      </trkpt>
      <trkpt lat="46.24963" lon="2.70274">
        <ele>548.71</ele>
        <time>2018-04-10T10:06:21.999Z</time>
      </trkpt>
      <trkpt lat="46.24978" lon="2.70265">
        <ele>548.01</ele>
        <time>2018-04-10T10:06:23.999Z</time>
      </trkpt>
      <trkpt lat="46.24993" lon="2.70255">
        <ele>547.91</ele>
        <time>2018-04-10T10:06:25.999Z</time>
      </trkpt>
      <trkpt lat="46.25008" lon="2.70246">
        <ele>547.82</ele>
        <time>2018-04-10T10:06:27.999Z</time>
      </trkpt>
      <trkpt lat="46.25024" lon="2.70237">
        <ele>547.53</ele>
        <time>2018-04-10T10:06:29.999Z</time>
      </trkpt>
      <trkpt lat="46.25039" lon="2.70228">
        <ele>547.13</ele>
        <time>2018-04-10T10:06:31.999Z</time>
      </trkpt>
      <trkpt lat="46.25053" lon="2.70219">
        <ele>546.62</ele>
        <time>2018-04-10T10:06:33.999Z</time>
      </trkpt>
      <trkpt lat="46.25068" lon="2.7021">
        <ele>546.41</ele>
        <time>2018-04-10T10:06:35.999Z</time>
      </trkpt>
      <trkpt lat="46.25082" lon="2.702">
        <ele>546.56</ele>
        <time>2018-04-10T10:06:37.999Z</time>
      </trkpt>
      <trkpt lat="46.25094" lon="2.7019">
        <ele>546.83</ele>
        <time>2018-04-10T10:06:39.999Z</time>
      </trkpt>
      <trkpt lat="46.25107" lon="2.70181">
        <ele>548.05</ele>
        <time>2018-04-10T10:06:41.999Z</time>
      </trkpt>
      <trkpt lat="46.2512" lon="2.70174">
        <ele>549.15</ele>
        <time>2018-04-10T10:06:43.999Z</time>
      </trkpt>
      <trkpt lat="46.25132" lon="2.70166">
        <ele>550.17</ele>
        <time>2018-04-10T10:06:45.999Z</time>
      </trkpt>
      <trkpt lat="46.25143" lon="2.70158">
        <ele>551.17</ele>
        <time>2018-04-10T10:06:47.999Z</time>
      </trkpt>
      <trkpt lat="46.25155" lon="2.70156">
        <ele>551.63</ele>
        <time>2018-04-10T10:06:49.999Z</time>
      </trkpt>
      <trkpt lat="46.25167" lon="2.70166">
        <ele>552.58</ele>
        <time>2018-04-10T10:06:51.999Z</time>
      </trkpt>
      <trkpt lat="46.25176" lon="2.7018">
        <ele>552.83</ele>
        <time>2018-04-10T10:06:53.999Z</time>
      </trkpt>
      <trkpt lat="46.25183" lon="2.70195">
        <ele>552.75</ele>
        <time>2018-04-10T10:06:55.999Z</time>
      </trkpt>
      <trkpt lat="46.2519" lon="2.70211">
        <ele>552.34</ele>
        <time>2018-04-10T10:06:57.999Z</time>
      </trkpt>
      <trkpt lat="46.25199" lon="2.70226">
        <ele>551.39</ele>
        <time>2018-04-10T10:06:59.999Z</time>
      </trkpt>
      <trkpt lat="46.25207" lon="2.70241">
        <ele>551.72</ele>
        <time>2018-04-10T10:07:01.999Z</time>
      </trkpt>
      <trkpt lat="46.25215" lon="2.70257">
        <ele>551.76</ele>
        <time>2018-04-10T10:07:03.999Z</time>
      </trkpt>
      <trkpt lat="46.25222" lon="2.70273">
        <ele>551.54</ele>
        <time>2018-04-10T10:07:05.999Z</time>
      </trkpt>
      <trkpt lat="46.25229" lon="2.70289">
        <ele>551.58</ele>
        <time>2018-04-10T10:07:07.999Z</time>
      </trkpt>
      <trkpt lat="46.25237" lon="2.70304">
        <ele>551.41</ele>
        <time>2018-04-10T10:07:09.999Z</time>
      </trkpt>
      <trkpt lat="46.25243" lon="2.70319">
        <ele>551.67</ele>
        <time>2018-04-10T10:07:11.999Z</time>
      </trkpt>
      <trkpt lat="46.2525" lon="2.70332">
        <ele>552.31</ele>
        <time>2018-04-10T10:07:13.999Z</time>
      </trkpt>
      <trkpt lat="46.25255" lon="2.70345">
        <ele>552.96</ele>
        <time>2018-04-10T10:07:15.999Z</time>
      </trkpt>
      <trkpt lat="46.25261" lon="2.70358">
        <ele>553.64</ele>
        <time>2018-04-10T10:07:17.999Z</time>
      </trkpt>
      <trkpt lat="46.25267" lon="2.70372">
        <ele>554.17</ele>
        <time>2018-04-10T10:07:19.999Z</time>
      </trkpt>
      <trkpt lat="46.25272" lon="2.70385">
        <ele>554.7</ele>
        <time>2018-04-10T10:07:21.999Z</time>
      </trkpt>
      <trkpt lat="46.25277" lon="2.70398">
        <ele>554.94</ele>
        <time>2018-04-10T10:07:23.999Z</time>
      </trkpt>
      <trkpt lat="46.25282" lon="2.70411">
        <ele>554.58</ele>
        <time>2018-04-10T10:07:25.999Z</time>
      </trkpt>
      <trkpt lat="46.25287" lon="2.70425">
        <ele>553.91</ele>
        <time>2018-04-10T10:07:27.999Z</time>
      </trkpt>
      <trkpt lat="46.25292" lon="2.7044">
        <ele>553.94</ele>
        <time>2018-04-10T10:07:29.999Z</time>
      </trkpt>
      <trkpt lat="46.25297" lon="2.70453">
        <ele>553.73</ele>
        <time>2018-04-10T10:07:31.999Z</time>
      </trkpt>
      <trkpt lat="46.25302" lon="2.70467">
        <ele>553.11</ele>
        <time>2018-04-10T10:07:33.999Z</time>
      </trkpt>
      <trkpt lat="46.25307" lon="2.70481">
        <ele>552.62</ele>
        <time>2018-04-10T10:07:35.999Z</time>
      </trkpt>
      <trkpt lat="46.25312" lon="2.70495">
        <ele>552.22</ele>
        <time>2018-04-10T10:07:37.999Z</time>
      </trkpt>
      <trkpt lat="46.25316" lon="2.70509">
        <ele>552.54</ele>
        <time>2018-04-10T10:07:39.999Z</time>
      </trkpt>
      <trkpt lat="46.25321" lon="2.70522">
        <ele>552.28</ele>
        <time>2018-04-10T10:07:41.999Z</time>
      </trkpt>
      <trkpt lat="46.25327" lon="2.70535">
        <ele>551.64</ele>
        <time>2018-04-10T10:07:43.999Z</time>
      </trkpt>
      <trkpt lat="46.25332" lon="2.70549">
        <ele>551.56</ele>
        <time>2018-04-10T10:07:45.999Z</time>
      </trkpt>
      <trkpt lat="46.25338" lon="2.70561">
        <ele>551.6</ele>
        <time>2018-04-10T10:07:47.999Z</time>
      </trkpt>
      <trkpt lat="46.25344" lon="2.70574">
        <ele>551.35</ele>
        <time>2018-04-10T10:07:49.999Z</time>
      </trkpt>
      <trkpt lat="46.25351" lon="2.70587">
        <ele>551.3</ele>
        <time>2018-04-10T10:07:51.999Z</time>
      </trkpt>
      <trkpt lat="46.25357" lon="2.70601">
        <ele>551.44</ele>
        <time>2018-04-10T10:07:53.999Z</time>
      </trkpt>
      <trkpt lat="46.25365" lon="2.70616">
        <ele>551.62</ele>
        <time>2018-04-10T10:07:55.999Z</time>
      </trkpt>
      <trkpt lat="46.25374" lon="2.7063">
        <ele>551.79</ele>
        <time>2018-04-10T10:07:57.999Z</time>
      </trkpt>
      <trkpt lat="46.25383" lon="2.70646">
        <ele>551.76</ele>
        <time>2018-04-10T10:07:59.999Z</time>
      </trkpt>
      <trkpt lat="46.25393" lon="2.70662">
        <ele>551.78</ele>
        <time>2018-04-10T10:08:01.999Z</time>
      </trkpt>
      <trkpt lat="46.25402" lon="2.7068">
        <ele>551.9</ele>
        <time>2018-04-10T10:08:03.999Z</time>
      </trkpt>
      <trkpt lat="46.25413" lon="2.70699">
        <ele>551.84</ele>
        <time>2018-04-10T10:08:05.999Z</time>
      </trkpt>
      <trkpt lat="46.25425" lon="2.70718">
        <ele>551.76</ele>
        <time>2018-04-10T10:08:07.999Z</time>
      </trkpt>
      <trkpt lat="46.25436" lon="2.70738">
        <ele>551.76</ele>
        <time>2018-04-10T10:08:09.999Z</time>
      </trkpt>
      <trkpt lat="46.25448" lon="2.70758">
        <ele>551.85</ele>
        <time>2018-04-10T10:08:11.999Z</time>
      </trkpt>
      <trkpt lat="46.25454" lon="2.70768">
        <ele>551.58</ele>
        <time>2018-04-10T10:08:12.999Z</time>
      </trkpt>
      <trkpt lat="46.25461" lon="2.70777">
        <ele>551.44</ele>
        <time>2018-04-10T10:08:13.999Z</time>
      </trkpt>
      <trkpt lat="46.25468" lon="2.70786">
        <ele>551.12</ele>
        <time>2018-04-10T10:08:14.999Z</time>
      </trkpt>
      <trkpt lat="46.25477" lon="2.70795">
        <ele>550.4</ele>
        <time>2018-04-10T10:08:15.999Z</time>
      </trkpt>
      <trkpt lat="46.25485" lon="2.70803">
        <ele>550.04</ele>
        <time>2018-04-10T10:08:16.999Z</time>
      </trkpt>
      <trkpt lat="46.25494" lon="2.70812">
        <ele>549.7</ele>
        <time>2018-04-10T10:08:17.999Z</time>
      </trkpt>
      <trkpt lat="46.25503" lon="2.7082">
        <ele>549.26</ele>
        <time>2018-04-10T10:08:18.999Z</time>
      </trkpt>
      <trkpt lat="46.25512" lon="2.70828">
        <ele>548.55</ele>
        <time>2018-04-10T10:08:19.999Z</time>
      </trkpt>
      <trkpt lat="46.25522" lon="2.70837">
        <ele>547.63</ele>
        <time>2018-04-10T10:08:20.999Z</time>
      </trkpt>
      <trkpt lat="46.25531" lon="2.70846">
        <ele>547.02</ele>
        <time>2018-04-10T10:08:21.999Z</time>
      </trkpt>
      <trkpt lat="46.25541" lon="2.70855">
        <ele>546.49</ele>
        <time>2018-04-10T10:08:22.999Z</time>
      </trkpt>
      <trkpt lat="46.25551" lon="2.70864">
        <ele>545.84</ele>
        <time>2018-04-10T10:08:23.999Z</time>
      </trkpt>
      <trkpt lat="46.2556" lon="2.70874">
        <ele>545.15</ele>
        <time>2018-04-10T10:08:24.999Z</time>
      </trkpt>
      <trkpt lat="46.2557" lon="2.70884">
        <ele>544.35</ele>
        <time>2018-04-10T10:08:25.999Z</time>
      </trkpt>
      <trkpt lat="46.2558" lon="2.70895">
        <ele>543.63</ele>
        <time>2018-04-10T10:08:26.999Z</time>
      </trkpt>
      <trkpt lat="46.25589" lon="2.70906">
        <ele>542.87</ele>
        <time>2018-04-10T10:08:27.999Z</time>
      </trkpt>
      <trkpt lat="46.25598" lon="2.70918">
        <ele>542.28</ele>
        <time>2018-04-10T10:08:28.999Z</time>
      </trkpt>
      <trkpt lat="46.25607" lon="2.7093">
        <ele>541.58</ele>
        <time>2018-04-10T10:08:29.999Z</time>
      </trkpt>
      <trkpt lat="46.25615" lon="2.70943">
        <ele>541.03</ele>
        <time>2018-04-10T10:08:30.999Z</time>
      </trkpt>
      <trkpt lat="46.25623" lon="2.70956">
        <ele>540.42</ele>
        <time>2018-04-10T10:08:31.999Z</time>
      </trkpt>
      <trkpt lat="46.25631" lon="2.70969">
        <ele>539.75</ele>
        <time>2018-04-10T10:08:32.999Z</time>
      </trkpt>
      <trkpt lat="46.25639" lon="2.70982">
        <ele>538.89</ele>
        <time>2018-04-10T10:08:33.999Z</time>
      </trkpt>
      <trkpt lat="46.25646" lon="2.70994">
        <ele>538.34</ele>
        <time>2018-04-10T10:08:34.999Z</time>
      </trkpt>
      <trkpt lat="46.25654" lon="2.71007">
        <ele>537.97</ele>
        <time>2018-04-10T10:08:35.999Z</time>
      </trkpt>
      <trkpt lat="46.25662" lon="2.71019">
        <ele>537.64</ele>
        <time>2018-04-10T10:08:36.999Z</time>
      </trkpt>
      <trkpt lat="46.25671" lon="2.7103">
        <ele>537.09</ele>
        <time>2018-04-10T10:08:37.999Z</time>
      </trkpt>
      <trkpt lat="46.25679" lon="2.71041">
        <ele>536.54</ele>
        <time>2018-04-10T10:08:38.999Z</time>
      </trkpt>
      <trkpt lat="46.25688" lon="2.71052">
        <ele>536.06</ele>
        <time>2018-04-10T10:08:39.999Z</time>
      </trkpt>
      <trkpt lat="46.25697" lon="2.71062">
        <ele>535.45</ele>
        <time>2018-04-10T10:08:40.999Z</time>
      </trkpt>
      <trkpt lat="46.25707" lon="2.7107">
        <ele>534.87</ele>
        <time>2018-04-10T10:08:41.999Z</time>
      </trkpt>
      <trkpt lat="46.25718" lon="2.71077">
        <ele>534.24</ele>
        <time>2018-04-10T10:08:42.999Z</time>
      </trkpt>
      <trkpt lat="46.25728" lon="2.71084">
        <ele>533.55</ele>
        <time>2018-04-10T10:08:43.999Z</time>
      </trkpt>
      <trkpt lat="46.25739" lon="2.7109">
        <ele>532.87</ele>
        <time>2018-04-10T10:08:44.999Z</time>
      </trkpt>
      <trkpt lat="46.2575" lon="2.71096">
        <ele>532.29</ele>
        <time>2018-04-10T10:08:45.999Z</time>
      </trkpt>
      <trkpt lat="46.2576" lon="2.71102">
        <ele>531.7</ele>
        <time>2018-04-10T10:08:46.999Z</time>
      </trkpt>
      <trkpt lat="46.25771" lon="2.71109">
        <ele>531.22</ele>
        <time>2018-04-10T10:08:47.999Z</time>
      </trkpt>
      <trkpt lat="46.25781" lon="2.71115">
        <ele>530.7</ele>
        <time>2018-04-10T10:08:48.999Z</time>
      </trkpt>
      <trkpt lat="46.25791" lon="2.71121">
        <ele>530.25</ele>
        <time>2018-04-10T10:08:49.999Z</time>
      </trkpt>
      <trkpt lat="46.25801" lon="2.71127">
        <ele>529.7</ele>
        <time>2018-04-10T10:08:50.999Z</time>
      </trkpt>
      <trkpt lat="46.25811" lon="2.71133">
        <ele>529.38</ele>
        <time>2018-04-10T10:08:51.999Z</time>
      </trkpt>
      <trkpt lat="46.25821" lon="2.71138">
        <ele>529.07</ele>
        <time>2018-04-10T10:08:52.999Z</time>
      </trkpt>
      <trkpt lat="46.25831" lon="2.71143">
        <ele>528.92</ele>
        <time>2018-04-10T10:08:53.999Z</time>
      </trkpt>
      <trkpt lat="46.2584" lon="2.71149">
        <ele>528.64</ele>
        <time>2018-04-10T10:08:54.999Z</time>
      </trkpt>
      <trkpt lat="46.2585" lon="2.71155">
        <ele>528.45</ele>
        <time>2018-04-10T10:08:55.999Z</time>
      </trkpt>
      <trkpt lat="46.2586" lon="2.7116">
        <ele>528.24</ele>
        <time>2018-04-10T10:08:56.999Z</time>
      </trkpt>
      <trkpt lat="46.2587" lon="2.71165">
        <ele>527.85</ele>
        <time>2018-04-10T10:08:57.999Z</time>
      </trkpt>
      <trkpt lat="46.2588" lon="2.71171">
        <ele>527.4</ele>
        <time>2018-04-10T10:08:58.999Z</time>
      </trkpt>
      <trkpt lat="46.2589" lon="2.71176">
        <ele>527.19</ele>
        <time>2018-04-10T10:08:59.999Z</time>
      </trkpt>
      <trkpt lat="46.259" lon="2.71181">
        <ele>526.85</ele>
        <time>2018-04-10T10:09:00.999Z</time>
      </trkpt>
      <trkpt lat="46.25909" lon="2.71186">
        <ele>526.45</ele>
        <time>2018-04-10T10:09:01.999Z</time>
      </trkpt>
      <trkpt lat="46.25919" lon="2.71191">
        <ele>526.01</ele>
        <time>2018-04-10T10:09:02.999Z</time>
      </trkpt>
      <trkpt lat="46.25929" lon="2.71196">
        <ele>525.76</ele>
        <time>2018-04-10T10:09:03.999Z</time>
      </trkpt>
      <trkpt lat="46.25938" lon="2.71202">
        <ele>525.49</ele>
        <time>2018-04-10T10:09:04.999Z</time>
      </trkpt>
      <trkpt lat="46.25948" lon="2.71208">
        <ele>525.15</ele>
        <time>2018-04-10T10:09:05.999Z</time>
      </trkpt>
      <trkpt lat="46.25957" lon="2.71214">
        <ele>524.81</ele>
        <time>2018-04-10T10:09:06.999Z</time>
      </trkpt>
      <trkpt lat="46.25966" lon="2.7122">
        <ele>524.5</ele>
        <time>2018-04-10T10:09:07.999Z</time>
      </trkpt>
      <trkpt lat="46.25975" lon="2.71225">
        <ele>524.34</ele>
        <time>2018-04-10T10:09:08.999Z</time>
      </trkpt>
      <trkpt lat="46.25985" lon="2.71231">
        <ele>524.28</ele>
        <time>2018-04-10T10:09:09.999Z</time>
      </trkpt>
      <trkpt lat="46.25994" lon="2.71236">
        <ele>523.98</ele>
        <time>2018-04-10T10:09:10.999Z</time>
      </trkpt>
      <trkpt lat="46.26003" lon="2.71242">
        <ele>523.73</ele>
        <time>2018-04-10T10:09:11.999Z</time>
      </trkpt>
      <trkpt lat="46.26012" lon="2.71248">
        <ele>523.57</ele>
        <time>2018-04-10T10:09:12.999Z</time>
      </trkpt>
      <trkpt lat="46.26022" lon="2.71255">
        <ele>523.46</ele>
        <time>2018-04-10T10:09:13.999Z</time>
      </trkpt>
      <trkpt lat="46.26032" lon="2.71262">
        <ele>523.12</ele>
        <time>2018-04-10T10:09:14.999Z</time>
      </trkpt>
      <trkpt lat="46.26041" lon="2.71269">
        <ele>522.72</ele>
        <time>2018-04-10T10:09:15.999Z</time>
      </trkpt>
      <trkpt lat="46.26051" lon="2.71276">
        <ele>522.37</ele>
        <time>2018-04-10T10:09:16.999Z</time>
      </trkpt>
      <trkpt lat="46.26061" lon="2.71284">
        <ele>522.27</ele>
        <time>2018-04-10T10:09:17.999Z</time>
      </trkpt>
      <trkpt lat="46.2607" lon="2.71291">
        <ele>522.06</ele>
        <time>2018-04-10T10:09:18.999Z</time>
      </trkpt>
      <trkpt lat="46.2608" lon="2.713">
        <ele>521.76</ele>
        <time>2018-04-10T10:09:19.999Z</time>
      </trkpt>
      <trkpt lat="46.26091" lon="2.71308">
        <ele>521.46</ele>
        <time>2018-04-10T10:09:20.999Z</time>
      </trkpt>
      <trkpt lat="46.26101" lon="2.71316">
        <ele>521.18</ele>
        <time>2018-04-10T10:09:21.999Z</time>
      </trkpt>
      <trkpt lat="46.26112" lon="2.71325">
        <ele>521.15</ele>
        <time>2018-04-10T10:09:22.999Z</time>
      </trkpt>
      <trkpt lat="46.26122" lon="2.71334">
        <ele>520.96</ele>
        <time>2018-04-10T10:09:23.999Z</time>
      </trkpt>
      <trkpt lat="46.26133" lon="2.71343">
        <ele>520.52</ele>
        <time>2018-04-10T10:09:24.999Z</time>
      </trkpt>
      <trkpt lat="46.26144" lon="2.71352">
        <ele>519.92</ele>
        <time>2018-04-10T10:09:25.999Z</time>
      </trkpt>
      <trkpt lat="46.26156" lon="2.71361">
        <ele>519.31</ele>
        <time>2018-04-10T10:09:26.999Z</time>
      </trkpt>
      <trkpt lat="46.26167" lon="2.71371">
        <ele>518.8</ele>
        <time>2018-04-10T10:09:27.999Z</time>
      </trkpt>
      <trkpt lat="46.26179" lon="2.7138">
        <ele>518.3</ele>
        <time>2018-04-10T10:09:28.999Z</time>
      </trkpt>
      <trkpt lat="46.2619" lon="2.7139">
        <ele>517.7</ele>
        <time>2018-04-10T10:09:29.999Z</time>
      </trkpt>
      <trkpt lat="46.26212" lon="2.71411">
        <ele>516.61</ele>
        <time>2018-04-10T10:09:31.999Z</time>
      </trkpt>
      <trkpt lat="46.26223" lon="2.71422">
        <ele>516.1</ele>
        <time>2018-04-10T10:09:32.999Z</time>
      </trkpt>
      <trkpt lat="46.26234" lon="2.71433">
        <ele>515.58</ele>
        <time>2018-04-10T10:09:33.999Z</time>
      </trkpt>
      <trkpt lat="46.26244" lon="2.71445">
        <ele>515.06</ele>
        <time>2018-04-10T10:09:34.999Z</time>
      </trkpt>
      <trkpt lat="46.26254" lon="2.71458">
        <ele>514.46</ele>
        <time>2018-04-10T10:09:35.999Z</time>
      </trkpt>
      <trkpt lat="46.26263" lon="2.71472">
        <ele>513.91</ele>
        <time>2018-04-10T10:09:36.999Z</time>
      </trkpt>
      <trkpt lat="46.26272" lon="2.71486">
        <ele>513.32</ele>
        <time>2018-04-10T10:09:37.999Z</time>
      </trkpt>
      <trkpt lat="46.2628" lon="2.71501">
        <ele>512.59</ele>
        <time>2018-04-10T10:09:38.999Z</time>
      </trkpt>
      <trkpt lat="46.26288" lon="2.71517">
        <ele>511.97</ele>
        <time>2018-04-10T10:09:39.999Z</time>
      </trkpt>
      <trkpt lat="46.26296" lon="2.71533">
        <ele>511.38</ele>
        <time>2018-04-10T10:09:40.999Z</time>
      </trkpt>
      <trkpt lat="46.26303" lon="2.7155">
        <ele>510.75</ele>
        <time>2018-04-10T10:09:41.999Z</time>
      </trkpt>
      <trkpt lat="46.2631" lon="2.71567">
        <ele>510.11</ele>
        <time>2018-04-10T10:09:42.999Z</time>
      </trkpt>
      <trkpt lat="46.26317" lon="2.71584">
        <ele>509.42</ele>
        <time>2018-04-10T10:09:43.999Z</time>
      </trkpt>
      <trkpt lat="46.26324" lon="2.716">
        <ele>508.91</ele>
        <time>2018-04-10T10:09:44.999Z</time>
      </trkpt>
      <trkpt lat="46.26331" lon="2.71617">
        <ele>508.34</ele>
        <time>2018-04-10T10:09:45.999Z</time>
      </trkpt>
      <trkpt lat="46.26339" lon="2.71634">
        <ele>507.87</ele>
        <time>2018-04-10T10:09:46.999Z</time>
      </trkpt>
      <trkpt lat="46.26346" lon="2.7165">
        <ele>507.35</ele>
        <time>2018-04-10T10:09:47.999Z</time>
      </trkpt>
      <trkpt lat="46.26354" lon="2.71667">
        <ele>506.99</ele>
        <time>2018-04-10T10:09:48.999Z</time>
      </trkpt>
      <trkpt lat="46.26362" lon="2.71683">
        <ele>506.62</ele>
        <time>2018-04-10T10:09:49.999Z</time>
      </trkpt>
      <trkpt lat="46.26369" lon="2.71699">
        <ele>506.44</ele>
        <time>2018-04-10T10:09:50.999Z</time>
      </trkpt>
      <trkpt lat="46.26376" lon="2.71715">
        <ele>506.3</ele>
        <time>2018-04-10T10:09:51.999Z</time>
      </trkpt>
      <trkpt lat="46.26383" lon="2.71731">
        <ele>505.99</ele>
        <time>2018-04-10T10:09:52.999Z</time>
      </trkpt>
      <trkpt lat="46.26389" lon="2.71747">
        <ele>505.73</ele>
        <time>2018-04-10T10:09:53.999Z</time>
      </trkpt>
      <trkpt lat="46.26396" lon="2.71763">
        <ele>505.47</ele>
        <time>2018-04-10T10:09:54.999Z</time>
      </trkpt>
      <trkpt lat="46.26402" lon="2.71779">
        <ele>505.1</ele>
        <time>2018-04-10T10:09:55.999Z</time>
      </trkpt>
      <trkpt lat="46.26408" lon="2.71794">
        <ele>504.83</ele>
        <time>2018-04-10T10:09:56.999Z</time>
      </trkpt>
      <trkpt lat="46.26413" lon="2.7181">
        <ele>504.59</ele>
        <time>2018-04-10T10:09:57.999Z</time>
      </trkpt>
      <trkpt lat="46.26419" lon="2.71825">
        <ele>504.39</ele>
        <time>2018-04-10T10:09:58.999Z</time>
      </trkpt>
      <trkpt lat="46.26425" lon="2.7184">
        <ele>504.12</ele>
        <time>2018-04-10T10:09:59.999Z</time>
      </trkpt>
      <trkpt lat="46.2643" lon="2.71855">
        <ele>503.84</ele>
        <time>2018-04-10T10:10:00.999Z</time>
      </trkpt>
      <trkpt lat="46.26435" lon="2.71871">
        <ele>503.67</ele>
        <time>2018-04-10T10:10:01.999Z</time>
      </trkpt>
      <trkpt lat="46.2644" lon="2.71886">
        <ele>503.56</ele>
        <time>2018-04-10T10:10:02.999Z</time>
      </trkpt>
      <trkpt lat="46.26445" lon="2.71901">
        <ele>503.41</ele>
        <time>2018-04-10T10:10:03.999Z</time>
      </trkpt>
      <trkpt lat="46.2645" lon="2.71916">
        <ele>503.17</ele>
        <time>2018-04-10T10:10:04.999Z</time>
      </trkpt>
      <trkpt lat="46.26455" lon="2.7193">
        <ele>502.98</ele>
        <time>2018-04-10T10:10:05.999Z</time>
      </trkpt>
      <trkpt lat="46.2646" lon="2.71944">
        <ele>502.89</ele>
        <time>2018-04-10T10:10:06.999Z</time>
      </trkpt>
      <trkpt lat="46.26466" lon="2.71957">
        <ele>502.88</ele>
        <time>2018-04-10T10:10:07.999Z</time>
      </trkpt>
      <trkpt lat="46.26472" lon="2.71971">
        <ele>502.72</ele>
        <time>2018-04-10T10:10:08.999Z</time>
      </trkpt>
      <trkpt lat="46.26479" lon="2.71984">
        <ele>502.61</ele>
        <time>2018-04-10T10:10:09.999Z</time>
      </trkpt>
      <trkpt lat="46.26485" lon="2.71997">
        <ele>502.47</ele>
        <time>2018-04-10T10:10:10.999Z</time>
      </trkpt>
      <trkpt lat="46.26493" lon="2.7201">
        <ele>502.14</ele>
        <time>2018-04-10T10:10:11.999Z</time>
      </trkpt>
      <trkpt lat="46.26501" lon="2.72022">
        <ele>501.83</ele>
        <time>2018-04-10T10:10:12.999Z</time>
      </trkpt>
      <trkpt lat="46.2651" lon="2.72034">
        <ele>501.38</ele>
        <time>2018-04-10T10:10:13.999Z</time>
      </trkpt>
      <trkpt lat="46.26518" lon="2.72045">
        <ele>500.69</ele>
        <time>2018-04-10T10:10:14.999Z</time>
      </trkpt>
      <trkpt lat="46.26528" lon="2.72056">
        <ele>499.98</ele>
        <time>2018-04-10T10:10:15.999Z</time>
      </trkpt>
      <trkpt lat="46.26537" lon="2.72067">
        <ele>499.66</ele>
        <time>2018-04-10T10:10:16.999Z</time>
      </trkpt>
      <trkpt lat="46.26547" lon="2.72078">
        <ele>499.15</ele>
        <time>2018-04-10T10:10:17.999Z</time>
      </trkpt>
      <trkpt lat="46.26556" lon="2.72089">
        <ele>498.66</ele>
        <time>2018-04-10T10:10:18.999Z</time>
      </trkpt>
      <trkpt lat="46.26566" lon="2.72101">
        <ele>497.98</ele>
        <time>2018-04-10T10:10:19.999Z</time>
      </trkpt>
      <trkpt lat="46.26576" lon="2.72112">
        <ele>497.42</ele>
        <time>2018-04-10T10:10:20.999Z</time>
      </trkpt>
      <trkpt lat="46.26586" lon="2.72124">
        <ele>496.97</ele>
        <time>2018-04-10T10:10:21.999Z</time>
      </trkpt>
      <trkpt lat="46.26596" lon="2.72136">
        <ele>496.67</ele>
        <time>2018-04-10T10:10:22.999Z</time>
      </trkpt>
      <trkpt lat="46.26606" lon="2.72149">
        <ele>496.28</ele>
        <time>2018-04-10T10:10:23.999Z</time>
      </trkpt>
      <trkpt lat="46.26615" lon="2.72162">
        <ele>495.76</ele>
        <time>2018-04-10T10:10:24.999Z</time>
      </trkpt>
      <trkpt lat="46.26624" lon="2.72177">
        <ele>495.27</ele>
        <time>2018-04-10T10:10:25.999Z</time>
      </trkpt>
      <trkpt lat="46.26632" lon="2.72192">
        <ele>494.72</ele>
        <time>2018-04-10T10:10:26.999Z</time>
      </trkpt>
      <trkpt lat="46.2664" lon="2.72209">
        <ele>494.2</ele>
        <time>2018-04-10T10:10:27.999Z</time>
      </trkpt>
      <trkpt lat="46.26646" lon="2.72226">
        <ele>493.58</ele>
        <time>2018-04-10T10:10:28.999Z</time>
      </trkpt>
      <trkpt lat="46.26652" lon="2.72245">
        <ele>492.82</ele>
        <time>2018-04-10T10:10:29.999Z</time>
      </trkpt>
      <trkpt lat="46.26657" lon="2.72264">
        <ele>492.26</ele>
        <time>2018-04-10T10:10:30.999Z</time>
      </trkpt>
      <trkpt lat="46.26661" lon="2.72282">
        <ele>491.67</ele>
        <time>2018-04-10T10:10:31.999Z</time>
      </trkpt>
      <trkpt lat="46.26666" lon="2.72301">
        <ele>491.09</ele>
        <time>2018-04-10T10:10:32.999Z</time>
      </trkpt>
      <trkpt lat="46.26671" lon="2.7232">
        <ele>490.57</ele>
        <time>2018-04-10T10:10:33.999Z</time>
      </trkpt>
      <trkpt lat="46.26675" lon="2.72339">
        <ele>489.96</ele>
        <time>2018-04-10T10:10:34.999Z</time>
      </trkpt>
      <trkpt lat="46.26679" lon="2.72357">
        <ele>489.29</ele>
        <time>2018-04-10T10:10:35.999Z</time>
      </trkpt>
      <trkpt lat="46.26684" lon="2.72376">
        <ele>488.62</ele>
        <time>2018-04-10T10:10:36.999Z</time>
      </trkpt>
      <trkpt lat="46.26689" lon="2.72395">
        <ele>487.97</ele>
        <time>2018-04-10T10:10:37.999Z</time>
      </trkpt>
      <trkpt lat="46.26693" lon="2.72414">
        <ele>487.28</ele>
        <time>2018-04-10T10:10:38.999Z</time>
      </trkpt>
      <trkpt lat="46.26698" lon="2.72433">
        <ele>486.6</ele>
        <time>2018-04-10T10:10:39.999Z</time>
      </trkpt>
      <trkpt lat="46.26703" lon="2.72452">
        <ele>485.89</ele>
        <time>2018-04-10T10:10:40.999Z</time>
      </trkpt>
      <trkpt lat="46.26708" lon="2.72471">
        <ele>485.02</ele>
        <time>2018-04-10T10:10:41.999Z</time>
      </trkpt>
      <trkpt lat="46.26713" lon="2.72489">
        <ele>484.12</ele>
        <time>2018-04-10T10:10:42.999Z</time>
      </trkpt>
      <trkpt lat="46.2672" lon="2.72507">
        <ele>483.27</ele>
        <time>2018-04-10T10:10:43.999Z</time>
      </trkpt>
      <trkpt lat="46.26728" lon="2.72524">
        <ele>482.32</ele>
        <time>2018-04-10T10:10:44.999Z</time>
      </trkpt>
      <trkpt lat="46.26737" lon="2.7254">
        <ele>481.31</ele>
        <time>2018-04-10T10:10:45.999Z</time>
      </trkpt>
      <trkpt lat="46.26747" lon="2.72554">
        <ele>480.19</ele>
        <time>2018-04-10T10:10:46.999Z</time>
      </trkpt>
      <trkpt lat="46.26758" lon="2.72568">
        <ele>478.68</ele>
        <time>2018-04-10T10:10:47.999Z</time>
      </trkpt>
      <trkpt lat="46.2677" lon="2.72581">
        <ele>477.19</ele>
        <time>2018-04-10T10:10:48.999Z</time>
      </trkpt>
      <trkpt lat="46.26782" lon="2.72594">
        <ele>475.94</ele>
        <time>2018-04-10T10:10:49.999Z</time>
      </trkpt>
      <trkpt lat="46.26795" lon="2.72607">
        <ele>474.85</ele>
        <time>2018-04-10T10:10:50.999Z</time>
      </trkpt>
      <trkpt lat="46.26807" lon="2.7262">
        <ele>473.47</ele>
        <time>2018-04-10T10:10:51.999Z</time>
      </trkpt>
      <trkpt lat="46.2682" lon="2.72634">
        <ele>472.36</ele>
        <time>2018-04-10T10:10:52.999Z</time>
      </trkpt>
      <trkpt lat="46.26832" lon="2.72648">
        <ele>471.13</ele>
        <time>2018-04-10T10:10:53.999Z</time>
      </trkpt>
      <trkpt lat="46.26844" lon="2.72663">
        <ele>469.93</ele>
        <time>2018-04-10T10:10:54.999Z</time>
      </trkpt>
      <trkpt lat="46.26857" lon="2.72678">
        <ele>468.91</ele>
        <time>2018-04-10T10:10:55.999Z</time>
      </trkpt>
      <trkpt lat="46.26868" lon="2.72695">
        <ele>467.78</ele>
        <time>2018-04-10T10:10:56.999Z</time>
      </trkpt>
      <trkpt lat="46.26878" lon="2.72712">
        <ele>466.82</ele>
        <time>2018-04-10T10:10:57.999Z</time>
      </trkpt>
      <trkpt lat="46.26888" lon="2.72731">
        <ele>465.86</ele>
        <time>2018-04-10T10:10:58.999Z</time>
      </trkpt>
      <trkpt lat="46.26896" lon="2.7275">
        <ele>464.76</ele>
        <time>2018-04-10T10:10:59.999Z</time>
      </trkpt>
      <trkpt lat="46.26904" lon="2.7277">
        <ele>463.62</ele>
        <time>2018-04-10T10:11:00.999Z</time>
      </trkpt>
      <trkpt lat="46.26911" lon="2.72789">
        <ele>462.57</ele>
        <time>2018-04-10T10:11:01.999Z</time>
      </trkpt>
      <trkpt lat="46.26918" lon="2.72808">
        <ele>461.48</ele>
        <time>2018-04-10T10:11:02.999Z</time>
      </trkpt>
      <trkpt lat="46.26926" lon="2.72827">
        <ele>460.35</ele>
        <time>2018-04-10T10:11:03.999Z</time>
      </trkpt>
      <trkpt lat="46.26934" lon="2.72845">
        <ele>459.23</ele>
        <time>2018-04-10T10:11:04.999Z</time>
      </trkpt>
      <trkpt lat="46.26942" lon="2.72863">
        <ele>458.3</ele>
        <time>2018-04-10T10:11:05.999Z</time>
      </trkpt>
      <trkpt lat="46.2695" lon="2.72882">
        <ele>457.65</ele>
        <time>2018-04-10T10:11:06.999Z</time>
      </trkpt>
      <trkpt lat="46.26958" lon="2.729">
        <ele>457.29</ele>
        <time>2018-04-10T10:11:07.999Z</time>
      </trkpt>
      <trkpt lat="46.26966" lon="2.72919">
        <ele>456.75</ele>
        <time>2018-04-10T10:11:08.999Z</time>
      </trkpt>
      <trkpt lat="46.26973" lon="2.72936">
        <ele>456.28</ele>
        <time>2018-04-10T10:11:09.999Z</time>
      </trkpt>
      <trkpt lat="46.2698" lon="2.72953">
        <ele>455.98</ele>
        <time>2018-04-10T10:11:10.999Z</time>
      </trkpt>
      <trkpt lat="46.26988" lon="2.72969">
        <ele>455.84</ele>
        <time>2018-04-10T10:11:11.999Z</time>
      </trkpt>
      <trkpt lat="46.26994" lon="2.72984">
        <ele>455.71</ele>
        <time>2018-04-10T10:11:12.999Z</time>
      </trkpt>
      <trkpt lat="46.27" lon="2.72998">
        <ele>455.49</ele>
        <time>2018-04-10T10:11:13.999Z</time>
      </trkpt>
      <trkpt lat="46.27006" lon="2.73012">
        <ele>455.23</ele>
        <time>2018-04-10T10:11:14.999Z</time>
      </trkpt>
      <trkpt lat="46.27011" lon="2.73025">
        <ele>455.11</ele>
        <time>2018-04-10T10:11:15.999Z</time>
      </trkpt>
      <trkpt lat="46.27016" lon="2.73037">
        <ele>455.1</ele>
        <time>2018-04-10T10:11:16.999Z</time>
      </trkpt>
      <trkpt lat="46.27022" lon="2.73049">
        <ele>455.08</ele>
        <time>2018-04-10T10:11:17.999Z</time>
      </trkpt>
      <trkpt lat="46.27027" lon="2.73061">
        <ele>454.97</ele>
        <time>2018-04-10T10:11:18.999Z</time>
      </trkpt>
      <trkpt lat="46.27032" lon="2.73072">
        <ele>455.12</ele>
        <time>2018-04-10T10:11:19.999Z</time>
      </trkpt>
      <trkpt lat="46.27036" lon="2.73084">
        <ele>455.45</ele>
        <time>2018-04-10T10:11:20.999Z</time>
      </trkpt>
      <trkpt lat="46.27045" lon="2.73106">
        <ele>455.57</ele>
        <time>2018-04-10T10:11:22.999Z</time>
      </trkpt>
      <trkpt lat="46.27054" lon="2.73126">
        <ele>455.66</ele>
        <time>2018-04-10T10:11:24.999Z</time>
      </trkpt>
      <trkpt lat="46.27062" lon="2.73146">
        <ele>455.89</ele>
        <time>2018-04-10T10:11:26.999Z</time>
      </trkpt>
      <trkpt lat="46.27069" lon="2.73164">
        <ele>455.88</ele>
        <time>2018-04-10T10:11:28.999Z</time>
      </trkpt>
      <trkpt lat="46.27076" lon="2.7318">
        <ele>456.29</ele>
        <time>2018-04-10T10:11:30.999Z</time>
      </trkpt>
      <trkpt lat="46.27082" lon="2.73194">
        <ele>456.5</ele>
        <time>2018-04-10T10:11:32.999Z</time>
      </trkpt>
      <trkpt lat="46.27088" lon="2.73209">
        <ele>456.69</ele>
        <time>2018-04-10T10:11:34.999Z</time>
      </trkpt>
      <trkpt lat="46.27094" lon="2.73224">
        <ele>456.94</ele>
        <time>2018-04-10T10:11:36.999Z</time>
      </trkpt>
      <trkpt lat="46.271" lon="2.7324">
        <ele>457.17</ele>
        <time>2018-04-10T10:11:38.999Z</time>
      </trkpt>
      <trkpt lat="46.27105" lon="2.73257">
        <ele>457.78</ele>
        <time>2018-04-10T10:11:40.999Z</time>
      </trkpt>
      <trkpt lat="46.27111" lon="2.73273">
        <ele>458.63</ele>
        <time>2018-04-10T10:11:42.999Z</time>
      </trkpt>
      <trkpt lat="46.27117" lon="2.73289">
        <ele>459.32</ele>
        <time>2018-04-10T10:11:44.999Z</time>
      </trkpt>
      <trkpt lat="46.27123" lon="2.73305">
        <ele>460.25</ele>
        <time>2018-04-10T10:11:46.999Z</time>
      </trkpt>
      <trkpt lat="46.2713" lon="2.73322">
        <ele>461.09</ele>
        <time>2018-04-10T10:11:48.999Z</time>
      </trkpt>
      <trkpt lat="46.27136" lon="2.7334">
        <ele>461.8</ele>
        <time>2018-04-10T10:11:50.999Z</time>
      </trkpt>
      <trkpt lat="46.27142" lon="2.73357">
        <ele>462.54</ele>
        <time>2018-04-10T10:11:52.999Z</time>
      </trkpt>
      <trkpt lat="46.2715" lon="2.73375">
        <ele>463.18</ele>
        <time>2018-04-10T10:11:54.999Z</time>
      </trkpt>
      <trkpt lat="46.27156" lon="2.73393">
        <ele>463.14</ele>
        <time>2018-04-10T10:11:56.999Z</time>
      </trkpt>
      <trkpt lat="46.27165" lon="2.73412">
        <ele>463.14</ele>
        <time>2018-04-10T10:11:58.999Z</time>
      </trkpt>
      <trkpt lat="46.27175" lon="2.73428">
        <ele>463.67</ele>
        <time>2018-04-10T10:12:00.999Z</time>
      </trkpt>
      <trkpt lat="46.27187" lon="2.73445">
        <ele>464</ele>
        <time>2018-04-10T10:12:02.998Z</time>
      </trkpt>
      <trkpt lat="46.27198" lon="2.73461">
        <ele>464.34</ele>
        <time>2018-04-10T10:12:04.999Z</time>
      </trkpt>
      <trkpt lat="46.27211" lon="2.73477">
        <ele>464.55</ele>
        <time>2018-04-10T10:12:06.999Z</time>
      </trkpt>
      <trkpt lat="46.27224" lon="2.73493">
        <ele>464.8</ele>
        <time>2018-04-10T10:12:08.999Z</time>
      </trkpt>
      <trkpt lat="46.27237" lon="2.7351">
        <ele>465.12</ele>
        <time>2018-04-10T10:12:10.999Z</time>
      </trkpt>
      <trkpt lat="46.2725" lon="2.73526">
        <ele>465.24</ele>
        <time>2018-04-10T10:12:12.999Z</time>
      </trkpt>
      <trkpt lat="46.27258" lon="2.73535">
        <ele>465.16</ele>
        <time>2018-04-10T10:12:13.999Z</time>
      </trkpt>
      <trkpt lat="46.27265" lon="2.73542">
        <ele>464.9</ele>
        <time>2018-04-10T10:12:14.999Z</time>
      </trkpt>
      <trkpt lat="46.27273" lon="2.7355">
        <ele>464.4</ele>
        <time>2018-04-10T10:12:15.999Z</time>
      </trkpt>
      <trkpt lat="46.2728" lon="2.73558">
        <ele>463.97</ele>
        <time>2018-04-10T10:12:16.999Z</time>
      </trkpt>
      <trkpt lat="46.27288" lon="2.73566">
        <ele>463.61</ele>
        <time>2018-04-10T10:12:17.999Z</time>
      </trkpt>
      <trkpt lat="46.27296" lon="2.73573">
        <ele>463.34</ele>
        <time>2018-04-10T10:12:18.999Z</time>
      </trkpt>
      <trkpt lat="46.27305" lon="2.73579">
        <ele>462.76</ele>
        <time>2018-04-10T10:12:19.999Z</time>
      </trkpt>
      <trkpt lat="46.27314" lon="2.73586">
        <ele>462.3</ele>
        <time>2018-04-10T10:12:20.999Z</time>
      </trkpt>
      <trkpt lat="46.27323" lon="2.73594">
        <ele>461.95</ele>
        <time>2018-04-10T10:12:21.999Z</time>
      </trkpt>
      <trkpt lat="46.27332" lon="2.73601">
        <ele>461.56</ele>
        <time>2018-04-10T10:12:22.999Z</time>
      </trkpt>
      <trkpt lat="46.2734" lon="2.73608">
        <ele>461.26</ele>
        <time>2018-04-10T10:12:23.999Z</time>
      </trkpt>
      <trkpt lat="46.27349" lon="2.73615">
        <ele>460.97</ele>
        <time>2018-04-10T10:12:24.999Z</time>
      </trkpt>
      <trkpt lat="46.27358" lon="2.73621">
        <ele>460.63</ele>
        <time>2018-04-10T10:12:25.999Z</time>
      </trkpt>
      <trkpt lat="46.27367" lon="2.73626">
        <ele>460.38</ele>
        <time>2018-04-10T10:12:26.999Z</time>
      </trkpt>
      <trkpt lat="46.27376" lon="2.73632">
        <ele>460.15</ele>
        <time>2018-04-10T10:12:27.999Z</time>
      </trkpt>
      <trkpt lat="46.27385" lon="2.73638">
        <ele>459.95</ele>
        <time>2018-04-10T10:12:28.999Z</time>
      </trkpt>
      <trkpt lat="46.27394" lon="2.73643">
        <ele>459.85</ele>
        <time>2018-04-10T10:12:29.999Z</time>
      </trkpt>
      <trkpt lat="46.27403" lon="2.73648">
        <ele>459.75</ele>
        <time>2018-04-10T10:12:30.999Z</time>
      </trkpt>
      <trkpt lat="46.27412" lon="2.73654">
        <ele>459.71</ele>
        <time>2018-04-10T10:12:31.999Z</time>
      </trkpt>
      <trkpt lat="46.27421" lon="2.73659">
        <ele>459.61</ele>
        <time>2018-04-10T10:12:32.999Z</time>
      </trkpt>
      <trkpt lat="46.2743" lon="2.73665">
        <ele>459.46</ele>
        <time>2018-04-10T10:12:33.999Z</time>
      </trkpt>
      <trkpt lat="46.27438" lon="2.73672">
        <ele>459.18</ele>
        <time>2018-04-10T10:12:34.999Z</time>
      </trkpt>
      <trkpt lat="46.27447" lon="2.73679">
        <ele>459.02</ele>
        <time>2018-04-10T10:12:35.999Z</time>
      </trkpt>
      <trkpt lat="46.27455" lon="2.73687">
        <ele>458.71</ele>
        <time>2018-04-10T10:12:36.999Z</time>
      </trkpt>
      <trkpt lat="46.27464" lon="2.73695">
        <ele>458.44</ele>
        <time>2018-04-10T10:12:37.999Z</time>
      </trkpt>
      <trkpt lat="46.27471" lon="2.73704">
        <ele>458.28</ele>
        <time>2018-04-10T10:12:38.999Z</time>
      </trkpt>
      <trkpt lat="46.27479" lon="2.73714">
        <ele>458.01</ele>
        <time>2018-04-10T10:12:39.999Z</time>
      </trkpt>
      <trkpt lat="46.27486" lon="2.73723">
        <ele>457.73</ele>
        <time>2018-04-10T10:12:40.999Z</time>
      </trkpt>
      <trkpt lat="46.27494" lon="2.73733">
        <ele>457.39</ele>
        <time>2018-04-10T10:12:41.999Z</time>
      </trkpt>
      <trkpt lat="46.27501" lon="2.73744">
        <ele>457.01</ele>
        <time>2018-04-10T10:12:42.999Z</time>
      </trkpt>
      <trkpt lat="46.27508" lon="2.73755">
        <ele>456.4</ele>
        <time>2018-04-10T10:12:43.999Z</time>
      </trkpt>
      <trkpt lat="46.27515" lon="2.73766">
        <ele>455.88</ele>
        <time>2018-04-10T10:12:44.999Z</time>
      </trkpt>
      <trkpt lat="46.27522" lon="2.73777">
        <ele>455.38</ele>
        <time>2018-04-10T10:12:45.999Z</time>
      </trkpt>
      <trkpt lat="46.27529" lon="2.73788">
        <ele>454.96</ele>
        <time>2018-04-10T10:12:46.999Z</time>
      </trkpt>
      <trkpt lat="46.27536" lon="2.73798">
        <ele>454.31</ele>
        <time>2018-04-10T10:12:47.999Z</time>
      </trkpt>
      <trkpt lat="46.27543" lon="2.73809">
        <ele>453.8</ele>
        <time>2018-04-10T10:12:48.999Z</time>
      </trkpt>
      <trkpt lat="46.2755" lon="2.7382">
        <ele>453.38</ele>
        <time>2018-04-10T10:12:49.999Z</time>
      </trkpt>
      <trkpt lat="46.27557" lon="2.7383">
        <ele>453.12</ele>
        <time>2018-04-10T10:12:50.999Z</time>
      </trkpt>
      <trkpt lat="46.27564" lon="2.73841">
        <ele>452.85</ele>
        <time>2018-04-10T10:12:51.999Z</time>
      </trkpt>
      <trkpt lat="46.27571" lon="2.73851">
        <ele>452.4</ele>
        <time>2018-04-10T10:12:52.999Z</time>
      </trkpt>
      <trkpt lat="46.27578" lon="2.73861">
        <ele>452.01</ele>
        <time>2018-04-10T10:12:53.999Z</time>
      </trkpt>
      <trkpt lat="46.27586" lon="2.73872">
        <ele>451.65</ele>
        <time>2018-04-10T10:12:54.999Z</time>
      </trkpt>
      <trkpt lat="46.27593" lon="2.73883">
        <ele>451.24</ele>
        <time>2018-04-10T10:12:55.999Z</time>
      </trkpt>
      <trkpt lat="46.276" lon="2.73894">
        <ele>450.89</ele>
        <time>2018-04-10T10:12:56.999Z</time>
      </trkpt>
      <trkpt lat="46.27608" lon="2.73904">
        <ele>450.58</ele>
        <time>2018-04-10T10:12:57.999Z</time>
      </trkpt>
      <trkpt lat="46.27615" lon="2.73915">
        <ele>450.38</ele>
        <time>2018-04-10T10:12:58.999Z</time>
      </trkpt>
      <trkpt lat="46.27622" lon="2.73926">
        <ele>450.45</ele>
        <time>2018-04-10T10:12:59.999Z</time>
      </trkpt>
      <trkpt lat="46.27628" lon="2.73937">
        <ele>450.38</ele>
        <time>2018-04-10T10:13:00.999Z</time>
      </trkpt>
      <trkpt lat="46.27633" lon="2.73949">
        <ele>450.36</ele>
        <time>2018-04-10T10:13:01.999Z</time>
      </trkpt>
      <trkpt lat="46.27639" lon="2.73962">
        <ele>450.3</ele>
        <time>2018-04-10T10:13:02.999Z</time>
      </trkpt>
      <trkpt lat="46.27644" lon="2.73974">
        <ele>450.27</ele>
        <time>2018-04-10T10:13:03.999Z</time>
      </trkpt>
      <trkpt lat="46.27649" lon="2.73987">
        <ele>450.02</ele>
        <time>2018-04-10T10:13:04.999Z</time>
      </trkpt>
      <trkpt lat="46.27653" lon="2.73999">
        <ele>450</ele>
        <time>2018-04-10T10:13:05.999Z</time>
      </trkpt>
      <trkpt lat="46.27658" lon="2.74012">
        <ele>450.12</ele>
        <time>2018-04-10T10:13:06.999Z</time>
      </trkpt>
      <trkpt lat="46.27662" lon="2.74024">
        <ele>450.27</ele>
        <time>2018-04-10T10:13:07.999Z</time>
      </trkpt>
      <trkpt lat="46.27667" lon="2.74037">
        <ele>450.37</ele>
        <time>2018-04-10T10:13:08.999Z</time>
      </trkpt>
      <trkpt lat="46.27672" lon="2.74049">
        <ele>450.45</ele>
        <time>2018-04-10T10:13:09.999Z</time>
      </trkpt>
      <trkpt lat="46.27677" lon="2.74061">
        <ele>450.62</ele>
        <time>2018-04-10T10:13:10.999Z</time>
      </trkpt>
      <trkpt lat="46.27682" lon="2.74073">
        <ele>450.76</ele>
        <time>2018-04-10T10:13:11.999Z</time>
      </trkpt>
      <trkpt lat="46.27687" lon="2.74085">
        <ele>450.85</ele>
        <time>2018-04-10T10:13:12.999Z</time>
      </trkpt>
      <trkpt lat="46.27692" lon="2.74096">
        <ele>450.7</ele>
        <time>2018-04-10T10:13:13.999Z</time>
      </trkpt>
      <trkpt lat="46.27696" lon="2.74107">
        <ele>450.76</ele>
        <time>2018-04-10T10:13:14.999Z</time>
      </trkpt>
      <trkpt lat="46.27701" lon="2.74119">
        <ele>450.9</ele>
        <time>2018-04-10T10:13:15.999Z</time>
      </trkpt>
      <trkpt lat="46.27705" lon="2.74131">
        <ele>450.79</ele>
        <time>2018-04-10T10:13:16.999Z</time>
      </trkpt>
      <trkpt lat="46.27713" lon="2.74153">
        <ele>450.62</ele>
        <time>2018-04-10T10:13:18.999Z</time>
      </trkpt>
      <trkpt lat="46.27721" lon="2.74176">
        <ele>450.34</ele>
        <time>2018-04-10T10:13:20.999Z</time>
      </trkpt>
      <trkpt lat="46.27729" lon="2.74199">
        <ele>450.12</ele>
        <time>2018-04-10T10:13:22.999Z</time>
      </trkpt>
      <trkpt lat="46.27736" lon="2.74221">
        <ele>449.5</ele>
        <time>2018-04-10T10:13:24.999Z</time>
      </trkpt>
      <trkpt lat="46.27746" lon="2.74241">
        <ele>448.92</ele>
        <time>2018-04-10T10:13:26.999Z</time>
      </trkpt>
      <trkpt lat="46.27758" lon="2.74258">
        <ele>448.75</ele>
        <time>2018-04-10T10:13:28.999Z</time>
      </trkpt>
      <trkpt lat="46.2777" lon="2.74275">
        <ele>448.59</ele>
        <time>2018-04-10T10:13:30.999Z</time>
      </trkpt>
      <trkpt lat="46.27782" lon="2.74291">
        <ele>448.65</ele>
        <time>2018-04-10T10:13:32.999Z</time>
      </trkpt>
      <trkpt lat="46.27798" lon="2.743">
        <ele>448.64</ele>
        <time>2018-04-10T10:13:34.999Z</time>
      </trkpt>
      <trkpt lat="46.27815" lon="2.74298">
        <ele>447.96</ele>
        <time>2018-04-10T10:13:36.999Z</time>
      </trkpt>
      <trkpt lat="46.27825" lon="2.74295">
        <ele>447.48</ele>
        <time>2018-04-10T10:13:37.999Z</time>
      </trkpt>
      <trkpt lat="46.27834" lon="2.7429">
        <ele>446.98</ele>
        <time>2018-04-10T10:13:38.999Z</time>
      </trkpt>
      <trkpt lat="46.27844" lon="2.74286">
        <ele>446.62</ele>
        <time>2018-04-10T10:13:39.999Z</time>
      </trkpt>
      <trkpt lat="46.27854" lon="2.74282">
        <ele>446.25</ele>
        <time>2018-04-10T10:13:40.999Z</time>
      </trkpt>
      <trkpt lat="46.27864" lon="2.74278">
        <ele>445.73</ele>
        <time>2018-04-10T10:13:41.999Z</time>
      </trkpt>
      <trkpt lat="46.27874" lon="2.74274">
        <ele>445.33</ele>
        <time>2018-04-10T10:13:42.999Z</time>
      </trkpt>
      <trkpt lat="46.27885" lon="2.7427">
        <ele>444.96</ele>
        <time>2018-04-10T10:13:43.999Z</time>
      </trkpt>
      <trkpt lat="46.27895" lon="2.74266">
        <ele>444.82</ele>
        <time>2018-04-10T10:13:44.999Z</time>
      </trkpt>
      <trkpt lat="46.27906" lon="2.74261">
        <ele>444.57</ele>
        <time>2018-04-10T10:13:45.999Z</time>
      </trkpt>
      <trkpt lat="46.27917" lon="2.74257">
        <ele>444.24</ele>
        <time>2018-04-10T10:13:46.999Z</time>
      </trkpt>
      <trkpt lat="46.27929" lon="2.74253">
        <ele>443.76</ele>
        <time>2018-04-10T10:13:47.999Z</time>
      </trkpt>
      <trkpt lat="46.2794" lon="2.74248">
        <ele>443.31</ele>
        <time>2018-04-10T10:13:48.999Z</time>
      </trkpt>
      <trkpt lat="46.27951" lon="2.74244">
        <ele>442.51</ele>
        <time>2018-04-10T10:13:49.999Z</time>
      </trkpt>
      <trkpt lat="46.27963" lon="2.74239">
        <ele>441.69</ele>
        <time>2018-04-10T10:13:50.999Z</time>
      </trkpt>
      <trkpt lat="46.27974" lon="2.74235">
        <ele>441.06</ele>
        <time>2018-04-10T10:13:51.999Z</time>
      </trkpt>
      <trkpt lat="46.27986" lon="2.74231">
        <ele>440.2</ele>
        <time>2018-04-10T10:13:52.999Z</time>
      </trkpt>
      <trkpt lat="46.27998" lon="2.74227">
        <ele>439.49</ele>
        <time>2018-04-10T10:13:53.999Z</time>
      </trkpt>
      <trkpt lat="46.2801" lon="2.74222">
        <ele>438.64</ele>
        <time>2018-04-10T10:13:54.999Z</time>
      </trkpt>
      <trkpt lat="46.28022" lon="2.74218">
        <ele>437.96</ele>
        <time>2018-04-10T10:13:55.999Z</time>
      </trkpt>
      <trkpt lat="46.28034" lon="2.74213">
        <ele>437.33</ele>
        <time>2018-04-10T10:13:56.999Z</time>
      </trkpt>
      <trkpt lat="46.28045" lon="2.74209">
        <ele>436.49</ele>
        <time>2018-04-10T10:13:57.999Z</time>
      </trkpt>
      <trkpt lat="46.28057" lon="2.74205">
        <ele>435.85</ele>
        <time>2018-04-10T10:13:58.999Z</time>
      </trkpt>
      <trkpt lat="46.28069" lon="2.742">
        <ele>435.13</ele>
        <time>2018-04-10T10:13:59.999Z</time>
      </trkpt>
      <trkpt lat="46.28081" lon="2.74196">
        <ele>434.3</ele>
        <time>2018-04-10T10:14:00.999Z</time>
      </trkpt>
      <trkpt lat="46.28093" lon="2.74192">
        <ele>433.66</ele>
        <time>2018-04-10T10:14:01.999Z</time>
      </trkpt>
      <trkpt lat="46.28105" lon="2.74187">
        <ele>432.79</ele>
        <time>2018-04-10T10:14:02.999Z</time>
      </trkpt>
      <trkpt lat="46.28117" lon="2.74183">
        <ele>432.12</ele>
        <time>2018-04-10T10:14:03.999Z</time>
      </trkpt>
      <trkpt lat="46.28128" lon="2.74179">
        <ele>431.6</ele>
        <time>2018-04-10T10:14:04.999Z</time>
      </trkpt>
      <trkpt lat="46.2814" lon="2.74175">
        <ele>431.05</ele>
        <time>2018-04-10T10:14:05.999Z</time>
      </trkpt>
      <trkpt lat="46.28152" lon="2.74171">
        <ele>430.49</ele>
        <time>2018-04-10T10:14:06.999Z</time>
      </trkpt>
      <trkpt lat="46.28163" lon="2.74167">
        <ele>430.04</ele>
        <time>2018-04-10T10:14:07.999Z</time>
      </trkpt>
      <trkpt lat="46.28175" lon="2.74163">
        <ele>429.52</ele>
        <time>2018-04-10T10:14:08.999Z</time>
      </trkpt>
      <trkpt lat="46.28186" lon="2.74159">
        <ele>429.04</ele>
        <time>2018-04-10T10:14:09.999Z</time>
      </trkpt>
      <trkpt lat="46.28197" lon="2.74155">
        <ele>428.56</ele>
        <time>2018-04-10T10:14:10.999Z</time>
      </trkpt>
      <trkpt lat="46.28208" lon="2.74151">
        <ele>428.13</ele>
        <time>2018-04-10T10:14:11.999Z</time>
      </trkpt>
      <trkpt lat="46.28219" lon="2.74147">
        <ele>427.66</ele>
        <time>2018-04-10T10:14:12.999Z</time>
      </trkpt>
      <trkpt lat="46.2823" lon="2.74143">
        <ele>427.37</ele>
        <time>2018-04-10T10:14:13.999Z</time>
      </trkpt>
      <trkpt lat="46.28241" lon="2.74139">
        <ele>427.09</ele>
        <time>2018-04-10T10:14:14.999Z</time>
      </trkpt>
      <trkpt lat="46.28252" lon="2.74135">
        <ele>426.96</ele>
        <time>2018-04-10T10:14:15.999Z</time>
      </trkpt>
      <trkpt lat="46.28263" lon="2.74131">
        <ele>426.67</ele>
        <time>2018-04-10T10:14:16.999Z</time>
      </trkpt>
      <trkpt lat="46.28274" lon="2.74127">
        <ele>426.38</ele>
        <time>2018-04-10T10:14:17.999Z</time>
      </trkpt>
      <trkpt lat="46.28284" lon="2.74123">
        <ele>426.19</ele>
        <time>2018-04-10T10:14:18.999Z</time>
      </trkpt>
      <trkpt lat="46.28294" lon="2.74119">
        <ele>425.9</ele>
        <time>2018-04-10T10:14:19.999Z</time>
      </trkpt>
      <trkpt lat="46.28305" lon="2.74116">
        <ele>425.67</ele>
        <time>2018-04-10T10:14:20.999Z</time>
      </trkpt>
      <trkpt lat="46.28315" lon="2.74114">
        <ele>425.47</ele>
        <time>2018-04-10T10:14:21.999Z</time>
      </trkpt>
      <trkpt lat="46.28325" lon="2.74113">
        <ele>425.26</ele>
        <time>2018-04-10T10:14:22.999Z</time>
      </trkpt>
      <trkpt lat="46.28335" lon="2.74114">
        <ele>425.16</ele>
        <time>2018-04-10T10:14:23.999Z</time>
      </trkpt>
      <trkpt lat="46.28344" lon="2.74118">
        <ele>425.25</ele>
        <time>2018-04-10T10:14:24.999Z</time>
      </trkpt>
      <trkpt lat="46.28353" lon="2.74122">
        <ele>425.36</ele>
        <time>2018-04-10T10:14:25.999Z</time>
      </trkpt>
      <trkpt lat="46.28362" lon="2.74126">
        <ele>425.39</ele>
        <time>2018-04-10T10:14:26.999Z</time>
      </trkpt>
      <trkpt lat="46.2837" lon="2.74132">
        <ele>425.3</ele>
        <time>2018-04-10T10:14:27.999Z</time>
      </trkpt>
      <trkpt lat="46.28384" lon="2.74146">
        <ele>424.94</ele>
        <time>2018-04-10T10:14:29.999Z</time>
      </trkpt>
      <trkpt lat="46.28399" lon="2.74159">
        <ele>424.82</ele>
        <time>2018-04-10T10:14:31.999Z</time>
      </trkpt>
      <trkpt lat="46.28413" lon="2.7417">
        <ele>424.73</ele>
        <time>2018-04-10T10:14:33.999Z</time>
      </trkpt>
      <trkpt lat="46.28426" lon="2.7418">
        <ele>424.41</ele>
        <time>2018-04-10T10:14:35.999Z</time>
      </trkpt>
      <trkpt lat="46.28439" lon="2.74189">
        <ele>424.32</ele>
        <time>2018-04-10T10:14:37.999Z</time>
      </trkpt>
      <trkpt lat="46.2845" lon="2.742">
        <ele>424.38</ele>
        <time>2018-04-10T10:14:39.999Z</time>
      </trkpt>
      <trkpt lat="46.2846" lon="2.74213">
        <ele>424.44</ele>
        <time>2018-04-10T10:14:41.999Z</time>
      </trkpt>
      <trkpt lat="46.28468" lon="2.74227">
        <ele>424.7</ele>
        <time>2018-04-10T10:14:43.999Z</time>
      </trkpt>
      <trkpt lat="46.28475" lon="2.7424">
        <ele>424.98</ele>
        <time>2018-04-10T10:14:45.999Z</time>
      </trkpt>
      <trkpt lat="46.28483" lon="2.74254">
        <ele>425.27</ele>
        <time>2018-04-10T10:14:47.999Z</time>
      </trkpt>
      <trkpt lat="46.28489" lon="2.74268">
        <ele>425.78</ele>
        <time>2018-04-10T10:14:49.999Z</time>
      </trkpt>
      <trkpt lat="46.28495" lon="2.74282">
        <ele>426.8</ele>
        <time>2018-04-10T10:14:51.999Z</time>
      </trkpt>
      <trkpt lat="46.285" lon="2.74296">
        <ele>426.88</ele>
        <time>2018-04-10T10:14:53.999Z</time>
      </trkpt>
      <trkpt lat="46.28504" lon="2.7431">
        <ele>427.4</ele>
        <time>2018-04-10T10:14:55.999Z</time>
      </trkpt>
      <trkpt lat="46.28507" lon="2.74326">
        <ele>428.44</ele>
        <time>2018-04-10T10:14:57.999Z</time>
      </trkpt>
      <trkpt lat="46.2851" lon="2.74343">
        <ele>429.29</ele>
        <time>2018-04-10T10:14:59.999Z</time>
      </trkpt>
      <trkpt lat="46.28514" lon="2.74358">
        <ele>430.4</ele>
        <time>2018-04-10T10:15:01.999Z</time>
      </trkpt>
      <trkpt lat="46.28518" lon="2.74373">
        <ele>431.54</ele>
        <time>2018-04-10T10:15:03.999Z</time>
      </trkpt>
      <trkpt lat="46.28522" lon="2.7439">
        <ele>432.45</ele>
        <time>2018-04-10T10:15:05.999Z</time>
      </trkpt>
      <trkpt lat="46.28526" lon="2.74406">
        <ele>432.98</ele>
        <time>2018-04-10T10:15:07.999Z</time>
      </trkpt>
      <trkpt lat="46.28531" lon="2.74421">
        <ele>434.6</ele>
        <time>2018-04-10T10:15:09.999Z</time>
      </trkpt>
      <trkpt lat="46.28535" lon="2.74437">
        <ele>434.87</ele>
        <time>2018-04-10T10:15:11.999Z</time>
      </trkpt>
      <trkpt lat="46.28539" lon="2.74451">
        <ele>435.64</ele>
        <time>2018-04-10T10:15:13.999Z</time>
      </trkpt>
      <trkpt lat="46.28543" lon="2.74465">
        <ele>436.88</ele>
        <time>2018-04-10T10:15:15.999Z</time>
      </trkpt>
      <trkpt lat="46.28543" lon="2.74485">
        <ele>438.4</ele>
        <time>2018-04-10T10:15:18.999Z</time>
      </trkpt>
      <trkpt lat="46.28546" lon="2.74498">
        <ele>439.27</ele>
        <time>2018-04-10T10:15:20.999Z</time>
      </trkpt>
      <trkpt lat="46.28555" lon="2.74506">
        <ele>440.3</ele>
        <time>2018-04-10T10:15:22.999Z</time>
      </trkpt>
      <trkpt lat="46.28565" lon="2.74506">
        <ele>441.02</ele>
        <time>2018-04-10T10:15:24.999Z</time>
      </trkpt>
      <trkpt lat="46.28573" lon="2.74498">
        <ele>440.95</ele>
        <time>2018-04-10T10:15:26.999Z</time>
      </trkpt>
      <trkpt lat="46.28578" lon="2.74485">
        <ele>441.1</ele>
        <time>2018-04-10T10:15:28.999Z</time>
      </trkpt>
      <trkpt lat="46.28578" lon="2.7447">
        <ele>441.03</ele>
        <time>2018-04-10T10:15:30.999Z</time>
      </trkpt>
      <trkpt lat="46.28587" lon="2.74455">
        <ele>441.81</ele>
        <time>2018-04-10T10:15:33.999Z</time>
      </trkpt>
      <trkpt lat="46.28598" lon="2.74454">
        <ele>443.42</ele>
        <time>2018-04-10T10:15:35.999Z</time>
      </trkpt>
      <trkpt lat="46.28608" lon="2.74452">
        <ele>445.08</ele>
        <time>2018-04-10T10:15:37.999Z</time>
      </trkpt>
      <trkpt lat="46.28618" lon="2.74449">
        <ele>445.65</ele>
        <time>2018-04-10T10:15:39.999Z</time>
      </trkpt>
      <trkpt lat="46.28629" lon="2.74447">
        <ele>445.74</ele>
        <time>2018-04-10T10:15:41.999Z</time>
      </trkpt>
      <trkpt lat="46.28638" lon="2.74444">
        <ele>445.85</ele>
        <time>2018-04-10T10:15:43.999Z</time>
      </trkpt>
      <trkpt lat="46.28648" lon="2.74441">
        <ele>446.25</ele>
        <time>2018-04-10T10:15:45.999Z</time>
      </trkpt>
      <trkpt lat="46.28658" lon="2.74439">
        <ele>446.98</ele>
        <time>2018-04-10T10:15:47.999Z</time>
      </trkpt>
      <trkpt lat="46.28668" lon="2.74436">
        <ele>447.18</ele>
        <time>2018-04-10T10:15:49.999Z</time>
      </trkpt>
      <trkpt lat="46.28677" lon="2.74433">
        <ele>447.53</ele>
        <time>2018-04-10T10:15:51.999Z</time>
      </trkpt>
      <trkpt lat="46.28686" lon="2.7443">
        <ele>448.24</ele>
        <time>2018-04-10T10:15:53.999Z</time>
      </trkpt>
      <trkpt lat="46.28696" lon="2.74427">
        <ele>449.07</ele>
        <time>2018-04-10T10:15:55.999Z</time>
      </trkpt>
      <trkpt lat="46.28705" lon="2.74425">
        <ele>449.29</ele>
        <time>2018-04-10T10:15:57.999Z</time>
      </trkpt>
      <trkpt lat="46.28714" lon="2.74422">
        <ele>449.95</ele>
        <time>2018-04-10T10:15:59.999Z</time>
      </trkpt>
      <trkpt lat="46.28723" lon="2.74417">
        <ele>450.56</ele>
        <time>2018-04-10T10:16:01.999Z</time>
      </trkpt>
      <trkpt lat="46.28733" lon="2.74414">
        <ele>451.2</ele>
        <time>2018-04-10T10:16:03.999Z</time>
      </trkpt>
      <trkpt lat="46.28742" lon="2.74408">
        <ele>452.86</ele>
        <time>2018-04-10T10:16:05.999Z</time>
      </trkpt>
      <trkpt lat="46.28751" lon="2.74402">
        <ele>453.67</ele>
        <time>2018-04-10T10:16:07.999Z</time>
      </trkpt>
      <trkpt lat="46.2876" lon="2.74396">
        <ele>453.91</ele>
        <time>2018-04-10T10:16:09.999Z</time>
      </trkpt>
      <trkpt lat="46.28769" lon="2.7439">
        <ele>454.12</ele>
        <time>2018-04-10T10:16:11.999Z</time>
      </trkpt>
      <trkpt lat="46.28779" lon="2.74386">
        <ele>454.68</ele>
        <time>2018-04-10T10:16:13.999Z</time>
      </trkpt>
      <trkpt lat="46.28789" lon="2.7438">
        <ele>454.72</ele>
        <time>2018-04-10T10:16:15.999Z</time>
      </trkpt>
      <trkpt lat="46.28801" lon="2.74374">
        <ele>455.47</ele>
        <time>2018-04-10T10:16:17.999Z</time>
      </trkpt>
      <trkpt lat="46.28812" lon="2.74366">
        <ele>455.89</ele>
        <time>2018-04-10T10:16:19.999Z</time>
      </trkpt>
      <trkpt lat="46.28824" lon="2.74356">
        <ele>456.51</ele>
        <time>2018-04-10T10:16:21.999Z</time>
      </trkpt>
      <trkpt lat="46.28836" lon="2.74344">
        <ele>457.08</ele>
        <time>2018-04-10T10:16:23.999Z</time>
      </trkpt>
      <trkpt lat="46.28848" lon="2.74331">
        <ele>457.46</ele>
        <time>2018-04-10T10:16:25.999Z</time>
      </trkpt>
      <trkpt lat="46.28859" lon="2.74314">
        <ele>457.3</ele>
        <time>2018-04-10T10:16:27.999Z</time>
      </trkpt>
      <trkpt lat="46.28868" lon="2.74297">
        <ele>457.25</ele>
        <time>2018-04-10T10:16:29.999Z</time>
      </trkpt>
      <trkpt lat="46.28875" lon="2.74281">
        <ele>457.66</ele>
        <time>2018-04-10T10:16:31.999Z</time>
      </trkpt>
      <trkpt lat="46.28883" lon="2.74266">
        <ele>458.24</ele>
        <time>2018-04-10T10:16:33.999Z</time>
      </trkpt>
      <trkpt lat="46.28891" lon="2.7425">
        <ele>458.42</ele>
        <time>2018-04-10T10:16:35.999Z</time>
      </trkpt>
      <trkpt lat="46.28902" lon="2.74233">
        <ele>458.03</ele>
        <time>2018-04-10T10:16:37.999Z</time>
      </trkpt>
      <trkpt lat="46.28914" lon="2.74217">
        <ele>458.15</ele>
        <time>2018-04-10T10:16:39.999Z</time>
      </trkpt>
      <trkpt lat="46.28924" lon="2.74201">
        <ele>458.59</ele>
        <time>2018-04-10T10:16:41.999Z</time>
      </trkpt>
      <trkpt lat="46.28936" lon="2.74185">
        <ele>459.38</ele>
        <time>2018-04-10T10:16:43.999Z</time>
      </trkpt>
      <trkpt lat="46.28948" lon="2.74168">
        <ele>459.91</ele>
        <time>2018-04-10T10:16:45.999Z</time>
      </trkpt>
      <trkpt lat="46.2896" lon="2.74154">
        <ele>459.98</ele>
        <time>2018-04-10T10:16:47.999Z</time>
      </trkpt>
      <trkpt lat="46.28973" lon="2.7414">
        <ele>460.76</ele>
        <time>2018-04-10T10:16:49.999Z</time>
      </trkpt>
      <trkpt lat="46.28987" lon="2.74127">
        <ele>460.89</ele>
        <time>2018-04-10T10:16:51.999Z</time>
      </trkpt>
      <trkpt lat="46.29" lon="2.74115">
        <ele>460.28</ele>
        <time>2018-04-10T10:16:53.999Z</time>
      </trkpt>
      <trkpt lat="46.29014" lon="2.74106">
        <ele>460.06</ele>
        <time>2018-04-10T10:16:55.999Z</time>
      </trkpt>
      <trkpt lat="46.29031" lon="2.74102">
        <ele>459.11</ele>
        <time>2018-04-10T10:16:57.999Z</time>
      </trkpt>
      <trkpt lat="46.29047" lon="2.74102">
        <ele>458.38</ele>
        <time>2018-04-10T10:16:59.999Z</time>
      </trkpt>
      <trkpt lat="46.29062" lon="2.74102">
        <ele>457.5</ele>
        <time>2018-04-10T10:17:01.999Z</time>
      </trkpt>
      <trkpt lat="46.29076" lon="2.74096">
        <ele>456.32</ele>
        <time>2018-04-10T10:17:03.999Z</time>
      </trkpt>
      <trkpt lat="46.29092" lon="2.74092">
        <ele>455.56</ele>
        <time>2018-04-10T10:17:05.999Z</time>
      </trkpt>
      <trkpt lat="46.29107" lon="2.74089">
        <ele>455.18</ele>
        <time>2018-04-10T10:17:07.999Z</time>
      </trkpt>
      <trkpt lat="46.29124" lon="2.74085">
        <ele>455.14</ele>
        <time>2018-04-10T10:17:09.999Z</time>
      </trkpt>
      <trkpt lat="46.2914" lon="2.74081">
        <ele>454.72</ele>
        <time>2018-04-10T10:17:11.999Z</time>
      </trkpt>
      <trkpt lat="46.29157" lon="2.74076">
        <ele>454.2</ele>
        <time>2018-04-10T10:17:13.999Z</time>
      </trkpt>
      <trkpt lat="46.29173" lon="2.74072">
        <ele>453.09</ele>
        <time>2018-04-10T10:17:15.999Z</time>
      </trkpt>
      <trkpt lat="46.29188" lon="2.74068">
        <ele>452.27</ele>
        <time>2018-04-10T10:17:17.999Z</time>
      </trkpt>
      <trkpt lat="46.29204" lon="2.74063">
        <ele>451.32</ele>
        <time>2018-04-10T10:17:19.999Z</time>
      </trkpt>
      <trkpt lat="46.29219" lon="2.74056">
        <ele>450.94</ele>
        <time>2018-04-10T10:17:21.999Z</time>
      </trkpt>
      <trkpt lat="46.29236" lon="2.74048">
        <ele>450.05</ele>
        <time>2018-04-10T10:17:23.999Z</time>
      </trkpt>
      <trkpt lat="46.29244" lon="2.74043">
        <ele>449.66</ele>
        <time>2018-04-10T10:17:24.999Z</time>
      </trkpt>
      <trkpt lat="46.29253" lon="2.74037">
        <ele>449.18</ele>
        <time>2018-04-10T10:17:25.999Z</time>
      </trkpt>
      <trkpt lat="46.29268" lon="2.74024">
        <ele>448.57</ele>
        <time>2018-04-10T10:17:27.999Z</time>
      </trkpt>
      <trkpt lat="46.29282" lon="2.74011">
        <ele>447.52</ele>
        <time>2018-04-10T10:17:29.999Z</time>
      </trkpt>
      <trkpt lat="46.29298" lon="2.73999">
        <ele>446.07</ele>
        <time>2018-04-10T10:17:31.999Z</time>
      </trkpt>
      <trkpt lat="46.29314" lon="2.73988">
        <ele>444.62</ele>
        <time>2018-04-10T10:17:33.999Z</time>
      </trkpt>
      <trkpt lat="46.29331" lon="2.73979">
        <ele>443.34</ele>
        <time>2018-04-10T10:17:35.999Z</time>
      </trkpt>
      <trkpt lat="46.29339" lon="2.73974">
        <ele>442.93</ele>
        <time>2018-04-10T10:17:36.999Z</time>
      </trkpt>
      <trkpt lat="46.29347" lon="2.73966">
        <ele>442.26</ele>
        <time>2018-04-10T10:17:37.999Z</time>
      </trkpt>
      <trkpt lat="46.29355" lon="2.73958">
        <ele>441.65</ele>
        <time>2018-04-10T10:17:38.999Z</time>
      </trkpt>
      <trkpt lat="46.29372" lon="2.73944">
        <ele>440.7</ele>
        <time>2018-04-10T10:17:40.999Z</time>
      </trkpt>
      <trkpt lat="46.2938" lon="2.73937">
        <ele>440.48</ele>
        <time>2018-04-10T10:17:41.999Z</time>
      </trkpt>
      <trkpt lat="46.29389" lon="2.7393">
        <ele>440.38</ele>
        <time>2018-04-10T10:17:42.999Z</time>
      </trkpt>
      <trkpt lat="46.29398" lon="2.73923">
        <ele>439.98</ele>
        <time>2018-04-10T10:17:43.999Z</time>
      </trkpt>
      <trkpt lat="46.29406" lon="2.73917">
        <ele>439.89</ele>
        <time>2018-04-10T10:17:44.999Z</time>
      </trkpt>
      <trkpt lat="46.29416" lon="2.7391">
        <ele>439.61</ele>
        <time>2018-04-10T10:17:45.999Z</time>
      </trkpt>
      <trkpt lat="46.29424" lon="2.73904">
        <ele>439.32</ele>
        <time>2018-04-10T10:17:46.999Z</time>
      </trkpt>
      <trkpt lat="46.29433" lon="2.73897">
        <ele>439.01</ele>
        <time>2018-04-10T10:17:47.999Z</time>
      </trkpt>
      <trkpt lat="46.29442" lon="2.73889">
        <ele>438.61</ele>
        <time>2018-04-10T10:17:48.999Z</time>
      </trkpt>
      <trkpt lat="46.29452" lon="2.73882">
        <ele>437.89</ele>
        <time>2018-04-10T10:17:49.999Z</time>
      </trkpt>
      <trkpt lat="46.29462" lon="2.73874">
        <ele>437.05</ele>
        <time>2018-04-10T10:17:50.999Z</time>
      </trkpt>
      <trkpt lat="46.29472" lon="2.73865">
        <ele>436.37</ele>
        <time>2018-04-10T10:17:51.999Z</time>
      </trkpt>
      <trkpt lat="46.29483" lon="2.73855">
        <ele>435.83</ele>
        <time>2018-04-10T10:17:52.999Z</time>
      </trkpt>
      <trkpt lat="46.29493" lon="2.73845">
        <ele>435.24</ele>
        <time>2018-04-10T10:17:53.999Z</time>
      </trkpt>
      <trkpt lat="46.29505" lon="2.73835">
        <ele>434.52</ele>
        <time>2018-04-10T10:17:54.999Z</time>
      </trkpt>
      <trkpt lat="46.29516" lon="2.73826">
        <ele>433.94</ele>
        <time>2018-04-10T10:17:55.999Z</time>
      </trkpt>
      <trkpt lat="46.29529" lon="2.73816">
        <ele>433.21</ele>
        <time>2018-04-10T10:17:56.999Z</time>
      </trkpt>
      <trkpt lat="46.29541" lon="2.73804">
        <ele>432.7</ele>
        <time>2018-04-10T10:17:57.999Z</time>
      </trkpt>
      <trkpt lat="46.29552" lon="2.73792">
        <ele>432.02</ele>
        <time>2018-04-10T10:17:58.999Z</time>
      </trkpt>
      <trkpt lat="46.29561" lon="2.7378">
        <ele>431.63</ele>
        <time>2018-04-10T10:17:59.999Z</time>
      </trkpt>
      <trkpt lat="46.29569" lon="2.73769">
        <ele>431.61</ele>
        <time>2018-04-10T10:18:00.999Z</time>
      </trkpt>
      <trkpt lat="46.29578" lon="2.73759">
        <ele>431.4</ele>
        <time>2018-04-10T10:18:01.999Z</time>
      </trkpt>
      <trkpt lat="46.29586" lon="2.73751">
        <ele>431.53</ele>
        <time>2018-04-10T10:18:02.999Z</time>
      </trkpt>
      <trkpt lat="46.29599" lon="2.7374">
        <ele>431.12</ele>
        <time>2018-04-10T10:18:04.999Z</time>
      </trkpt>
      <trkpt lat="46.2961" lon="2.73735">
        <ele>431.55</ele>
        <time>2018-04-10T10:18:06.999Z</time>
      </trkpt>
      <trkpt lat="46.2962" lon="2.7374">
        <ele>433.72</ele>
        <time>2018-04-10T10:18:09.999Z</time>
      </trkpt>
      <trkpt lat="46.29628" lon="2.73744">
        <ele>433.93</ele>
        <time>2018-04-10T10:18:12.999Z</time>
      </trkpt>
      <trkpt lat="46.29633" lon="2.73731">
        <ele>432.75</ele>
        <time>2018-04-10T10:18:15.999Z</time>
      </trkpt>
      <trkpt lat="46.29639" lon="2.7372">
        <ele>431.67</ele>
        <time>2018-04-10T10:18:17.999Z</time>
      </trkpt>
      <trkpt lat="46.29648" lon="2.7371">
        <ele>430.44</ele>
        <time>2018-04-10T10:18:19.999Z</time>
      </trkpt>
      <trkpt lat="46.2966" lon="2.737">
        <ele>429.48</ele>
        <time>2018-04-10T10:18:21.999Z</time>
      </trkpt>
      <trkpt lat="46.29672" lon="2.73687">
        <ele>428.86</ele>
        <time>2018-04-10T10:18:23.999Z</time>
      </trkpt>
      <trkpt lat="46.29685" lon="2.73674">
        <ele>428.16</ele>
        <time>2018-04-10T10:18:25.999Z</time>
      </trkpt>
      <trkpt lat="46.29698" lon="2.7366">
        <ele>427.64</ele>
        <time>2018-04-10T10:18:27.999Z</time>
      </trkpt>
      <trkpt lat="46.29712" lon="2.73647">
        <ele>426.85</ele>
        <time>2018-04-10T10:18:29.999Z</time>
      </trkpt>
      <trkpt lat="46.29728" lon="2.73634">
        <ele>425.86</ele>
        <time>2018-04-10T10:18:31.999Z</time>
      </trkpt>
      <trkpt lat="46.29735" lon="2.73627">
        <ele>425.08</ele>
        <time>2018-04-10T10:18:32.999Z</time>
      </trkpt>
      <trkpt lat="46.29743" lon="2.73621">
        <ele>424.39</ele>
        <time>2018-04-10T10:18:33.999Z</time>
      </trkpt>
      <trkpt lat="46.29751" lon="2.73614">
        <ele>423.98</ele>
        <time>2018-04-10T10:18:34.999Z</time>
      </trkpt>
      <trkpt lat="46.29759" lon="2.73607">
        <ele>423.73</ele>
        <time>2018-04-10T10:18:35.999Z</time>
      </trkpt>
      <trkpt lat="46.29767" lon="2.73601">
        <ele>423.3</ele>
        <time>2018-04-10T10:18:36.999Z</time>
      </trkpt>
      <trkpt lat="46.29775" lon="2.73593">
        <ele>422.91</ele>
        <time>2018-04-10T10:18:37.999Z</time>
      </trkpt>
      <trkpt lat="46.29783" lon="2.73586">
        <ele>422.73</ele>
        <time>2018-04-10T10:18:38.999Z</time>
      </trkpt>
      <trkpt lat="46.29791" lon="2.7358">
        <ele>422.4</ele>
        <time>2018-04-10T10:18:39.999Z</time>
      </trkpt>
      <trkpt lat="46.29799" lon="2.73573">
        <ele>422.2</ele>
        <time>2018-04-10T10:18:40.999Z</time>
      </trkpt>
      <trkpt lat="46.29807" lon="2.73566">
        <ele>422.02</ele>
        <time>2018-04-10T10:18:41.999Z</time>
      </trkpt>
      <trkpt lat="46.29822" lon="2.73553">
        <ele>421.62</ele>
        <time>2018-04-10T10:18:43.999Z</time>
      </trkpt>
      <trkpt lat="46.29837" lon="2.7354">
        <ele>420.73</ele>
        <time>2018-04-10T10:18:45.999Z</time>
      </trkpt>
      <trkpt lat="46.29845" lon="2.73533">
        <ele>420.29</ele>
        <time>2018-04-10T10:18:46.999Z</time>
      </trkpt>
      <trkpt lat="46.29853" lon="2.73526">
        <ele>419.81</ele>
        <time>2018-04-10T10:18:47.999Z</time>
      </trkpt>
      <trkpt lat="46.29868" lon="2.73513">
        <ele>418.85</ele>
        <time>2018-04-10T10:18:49.999Z</time>
      </trkpt>
      <trkpt lat="46.29883" lon="2.735">
        <ele>417.91</ele>
        <time>2018-04-10T10:18:51.999Z</time>
      </trkpt>
      <trkpt lat="46.29898" lon="2.73488">
        <ele>417.23</ele>
        <time>2018-04-10T10:18:53.999Z</time>
      </trkpt>
      <trkpt lat="46.29912" lon="2.73475">
        <ele>417.2</ele>
        <time>2018-04-10T10:18:55.999Z</time>
      </trkpt>
      <trkpt lat="46.29926" lon="2.73462">
        <ele>416.81</ele>
        <time>2018-04-10T10:18:57.999Z</time>
      </trkpt>
      <trkpt lat="46.29939" lon="2.73451">
        <ele>416.37</ele>
        <time>2018-04-10T10:18:59.999Z</time>
      </trkpt>
      <trkpt lat="46.29951" lon="2.73439">
        <ele>416.03</ele>
        <time>2018-04-10T10:19:01.999Z</time>
      </trkpt>
      <trkpt lat="46.29963" lon="2.73428">
        <ele>415.45</ele>
        <time>2018-04-10T10:19:03.999Z</time>
      </trkpt>
      <trkpt lat="46.29974" lon="2.73418">
        <ele>415.33</ele>
        <time>2018-04-10T10:19:05.999Z</time>
      </trkpt>
      <trkpt lat="46.29984" lon="2.73411">
        <ele>414.51</ele>
        <time>2018-04-10T10:19:07.999Z</time>
      </trkpt>
      <trkpt lat="46.29992" lon="2.73418">
        <ele>413.73</ele>
        <time>2018-04-10T10:19:09.999Z</time>
      </trkpt>
      <trkpt lat="46.29995" lon="2.73439">
        <ele>414.47</ele>
        <time>2018-04-10T10:19:11.999Z</time>
      </trkpt>
      <trkpt lat="46.29997" lon="2.73462">
        <ele>413.98</ele>
        <time>2018-04-10T10:19:13.999Z</time>
      </trkpt>
      <trkpt lat="46.29999" lon="2.73486">
        <ele>413.37</ele>
        <time>2018-04-10T10:19:15.999Z</time>
      </trkpt>
      <trkpt lat="46.3" lon="2.7351">
        <ele>413.35</ele>
        <time>2018-04-10T10:19:17.999Z</time>
      </trkpt>
      <trkpt lat="46.30002" lon="2.73535">
        <ele>413.7</ele>
        <time>2018-04-10T10:19:19.999Z</time>
      </trkpt>
      <trkpt lat="46.30003" lon="2.73559">
        <ele>413.8</ele>
        <time>2018-04-10T10:19:21.999Z</time>
      </trkpt>
      <trkpt lat="46.30004" lon="2.73583">
        <ele>414.37</ele>
        <time>2018-04-10T10:19:23.999Z</time>
      </trkpt>
      <trkpt lat="46.30006" lon="2.73608">
        <ele>414.66</ele>
        <time>2018-04-10T10:19:25.999Z</time>
      </trkpt>
      <trkpt lat="46.30006" lon="2.73621">
        <ele>414.69</ele>
        <time>2018-04-10T10:19:26.999Z</time>
      </trkpt>
      <trkpt lat="46.30007" lon="2.73634">
        <ele>414.53</ele>
        <time>2018-04-10T10:19:27.999Z</time>
      </trkpt>
      <trkpt lat="46.30007" lon="2.73658">
        <ele>413.73</ele>
        <time>2018-04-10T10:19:29.999Z</time>
      </trkpt>
      <trkpt lat="46.30009" lon="2.73683">
        <ele>412.95</ele>
        <time>2018-04-10T10:19:31.999Z</time>
      </trkpt>
      <trkpt lat="46.30011" lon="2.73719">
        <ele>412.06</ele>
        <time>2018-04-10T10:19:34.999Z</time>
      </trkpt>
      <trkpt lat="46.30012" lon="2.73743">
        <ele>411.6</ele>
        <time>2018-04-10T10:19:36.999Z</time>
      </trkpt>
      <trkpt lat="46.30013" lon="2.73766">
        <ele>411.14</ele>
        <time>2018-04-10T10:19:38.999Z</time>
      </trkpt>
      <trkpt lat="46.30014" lon="2.73789">
        <ele>410.57</ele>
        <time>2018-04-10T10:19:40.999Z</time>
      </trkpt>
      <trkpt lat="46.30016" lon="2.73812">
        <ele>409.94</ele>
        <time>2018-04-10T10:19:42.999Z</time>
      </trkpt>
      <trkpt lat="46.30017" lon="2.73834">
        <ele>409.77</ele>
        <time>2018-04-10T10:19:44.999Z</time>
      </trkpt>
      <trkpt lat="46.30018" lon="2.73866">
        <ele>409.13</ele>
        <time>2018-04-10T10:19:47.999Z</time>
      </trkpt>
      <trkpt lat="46.30019" lon="2.73887">
        <ele>409.17</ele>
        <time>2018-04-10T10:19:49.999Z</time>
      </trkpt>
      <trkpt lat="46.30021" lon="2.73908">
        <ele>409.06</ele>
        <time>2018-04-10T10:19:51.999Z</time>
      </trkpt>
      <trkpt lat="46.30022" lon="2.73927">
        <ele>409.09</ele>
        <time>2018-04-10T10:19:53.999Z</time>
      </trkpt>
      <trkpt lat="46.30024" lon="2.73945">
        <ele>409.37</ele>
        <time>2018-04-10T10:19:55.999Z</time>
      </trkpt>
      <trkpt lat="46.30026" lon="2.73973">
        <ele>409.88</ele>
        <time>2018-04-10T10:19:58.999Z</time>
      </trkpt>
      <trkpt lat="46.30029" lon="2.73992">
        <ele>410.04</ele>
        <time>2018-04-10T10:20:00.999Z</time>
      </trkpt>
      <trkpt lat="46.30031" lon="2.7401">
        <ele>410.05</ele>
        <time>2018-04-10T10:20:02.999Z</time>
      </trkpt>
      <trkpt lat="46.30035" lon="2.74027">
        <ele>410.27</ele>
        <time>2018-04-10T10:20:04.999Z</time>
      </trkpt>
      <trkpt lat="46.3004" lon="2.74051">
        <ele>410.68</ele>
        <time>2018-04-10T10:20:07.999Z</time>
      </trkpt>
      <trkpt lat="46.30045" lon="2.74069">
        <ele>410.67</ele>
        <time>2018-04-10T10:20:09.999Z</time>
      </trkpt>
      <trkpt lat="46.30048" lon="2.74086">
        <ele>411.28</ele>
        <time>2018-04-10T10:20:11.999Z</time>
      </trkpt>
      <trkpt lat="46.30052" lon="2.74103">
        <ele>411.59</ele>
        <time>2018-04-10T10:20:13.999Z</time>
      </trkpt>
      <trkpt lat="46.30059" lon="2.74126">
        <ele>411.88</ele>
        <time>2018-04-10T10:20:16.999Z</time>
      </trkpt>
      <trkpt lat="46.3006" lon="2.74147">
        <ele>412.93</ele>
        <time>2018-04-10T10:20:19.999Z</time>
      </trkpt>
      <trkpt lat="46.30064" lon="2.74161">
        <ele>413.91</ele>
        <time>2018-04-10T10:20:22.999Z</time>
      </trkpt>
      <trkpt lat="46.30068" lon="2.74174">
        <ele>414.63</ele>
        <time>2018-04-10T10:20:24.999Z</time>
      </trkpt>
      <trkpt lat="46.30071" lon="2.74189">
        <ele>415.26</ele>
        <time>2018-04-10T10:20:26.999Z</time>
      </trkpt>
      <trkpt lat="46.30073" lon="2.74205">
        <ele>415.51</ele>
        <time>2018-04-10T10:20:28.999Z</time>
      </trkpt>
      <trkpt lat="46.30075" lon="2.74221">
        <ele>415.91</ele>
        <time>2018-04-10T10:20:30.999Z</time>
      </trkpt>
      <trkpt lat="46.30077" lon="2.74237">
        <ele>416.22</ele>
        <time>2018-04-10T10:20:32.999Z</time>
      </trkpt>
      <trkpt lat="46.30079" lon="2.74252">
        <ele>416.57</ele>
        <time>2018-04-10T10:20:34.999Z</time>
      </trkpt>
      <trkpt lat="46.3008" lon="2.74267">
        <ele>417.03</ele>
        <time>2018-04-10T10:20:36.999Z</time>
      </trkpt>
      <trkpt lat="46.30083" lon="2.74282">
        <ele>417.49</ele>
        <time>2018-04-10T10:20:38.999Z</time>
      </trkpt>
      <trkpt lat="46.30085" lon="2.74297">
        <ele>417.83</ele>
        <time>2018-04-10T10:20:40.999Z</time>
      </trkpt>
      <trkpt lat="46.30087" lon="2.74313">
        <ele>417.83</ele>
        <time>2018-04-10T10:20:42.999Z</time>
      </trkpt>
      <trkpt lat="46.30089" lon="2.74328">
        <ele>417.67</ele>
        <time>2018-04-10T10:20:44.999Z</time>
      </trkpt>
      <trkpt lat="46.30092" lon="2.74344">
        <ele>417.52</ele>
        <time>2018-04-10T10:20:46.999Z</time>
      </trkpt>
      <trkpt lat="46.30095" lon="2.74359">
        <ele>417.43</ele>
        <time>2018-04-10T10:20:48.999Z</time>
      </trkpt>
      <trkpt lat="46.30097" lon="2.74375">
        <ele>417.45</ele>
        <time>2018-04-10T10:20:50.999Z</time>
      </trkpt>
      <trkpt lat="46.301" lon="2.74391">
        <ele>417.52</ele>
        <time>2018-04-10T10:20:52.999Z</time>
      </trkpt>
      <trkpt lat="46.30102" lon="2.74407">
        <ele>417.26</ele>
        <time>2018-04-10T10:20:54.999Z</time>
      </trkpt>
      <trkpt lat="46.30103" lon="2.74423">
        <ele>417.3</ele>
        <time>2018-04-10T10:20:56.999Z</time>
      </trkpt>
      <trkpt lat="46.30105" lon="2.74439">
        <ele>417.26</ele>
        <time>2018-04-10T10:20:58.999Z</time>
      </trkpt>
      <trkpt lat="46.30107" lon="2.74455">
        <ele>417.27</ele>
        <time>2018-04-10T10:21:00.999Z</time>
      </trkpt>
      <trkpt lat="46.30109" lon="2.74471">
        <ele>417.2</ele>
        <time>2018-04-10T10:21:02.999Z</time>
      </trkpt>
      <trkpt lat="46.3011" lon="2.74486">
        <ele>417.37</ele>
        <time>2018-04-10T10:21:04.999Z</time>
      </trkpt>
      <trkpt lat="46.30113" lon="2.74503">
        <ele>417.81</ele>
        <time>2018-04-10T10:21:06.999Z</time>
      </trkpt>
      <trkpt lat="46.30115" lon="2.74519">
        <ele>418.05</ele>
        <time>2018-04-10T10:21:08.999Z</time>
      </trkpt>
      <trkpt lat="46.30117" lon="2.74534">
        <ele>418.72</ele>
        <time>2018-04-10T10:21:10.999Z</time>
      </trkpt>
      <trkpt lat="46.30119" lon="2.7455">
        <ele>419.28</ele>
        <time>2018-04-10T10:21:12.999Z</time>
      </trkpt>
      <trkpt lat="46.3012" lon="2.74565">
        <ele>419.47</ele>
        <time>2018-04-10T10:21:14.999Z</time>
      </trkpt>
      <trkpt lat="46.30121" lon="2.7458">
        <ele>420</ele>
        <time>2018-04-10T10:21:16.999Z</time>
      </trkpt>
      <trkpt lat="46.30121" lon="2.74595">
        <ele>420.16</ele>
        <time>2018-04-10T10:21:18.999Z</time>
      </trkpt>
      <trkpt lat="46.30121" lon="2.74609">
        <ele>420.02</ele>
        <time>2018-04-10T10:21:20.999Z</time>
      </trkpt>
      <trkpt lat="46.3012" lon="2.74627">
        <ele>420.2</ele>
        <time>2018-04-10T10:21:23.999Z</time>
      </trkpt>
      <trkpt lat="46.30126" lon="2.74639">
        <ele>421.03</ele>
        <time>2018-04-10T10:21:26.999Z</time>
      </trkpt>
      <trkpt lat="46.30135" lon="2.74642">
        <ele>421.08</ele>
        <time>2018-04-10T10:21:28.999Z</time>
      </trkpt>
      <trkpt lat="46.30146" lon="2.74646">
        <ele>421.13</ele>
        <time>2018-04-10T10:21:30.999Z</time>
      </trkpt>
      <trkpt lat="46.30157" lon="2.7465">
        <ele>421.06</ele>
        <time>2018-04-10T10:21:32.999Z</time>
      </trkpt>
      <trkpt lat="46.30168" lon="2.74656">
        <ele>420.68</ele>
        <time>2018-04-10T10:21:34.999Z</time>
      </trkpt>
      <trkpt lat="46.30181" lon="2.74662">
        <ele>420.26</ele>
        <time>2018-04-10T10:21:36.999Z</time>
      </trkpt>
      <trkpt lat="46.30194" lon="2.74668">
        <ele>419.61</ele>
        <time>2018-04-10T10:21:38.999Z</time>
      </trkpt>
      <trkpt lat="46.30208" lon="2.74675">
        <ele>419.32</ele>
        <time>2018-04-10T10:21:40.999Z</time>
      </trkpt>
      <trkpt lat="46.30221" lon="2.74683">
        <ele>419.48</ele>
        <time>2018-04-10T10:21:42.999Z</time>
      </trkpt>
      <trkpt lat="46.30233" lon="2.74691">
        <ele>419.51</ele>
        <time>2018-04-10T10:21:44.999Z</time>
      </trkpt>
      <trkpt lat="46.30245" lon="2.74699">
        <ele>419.27</ele>
        <time>2018-04-10T10:21:46.999Z</time>
      </trkpt>
      <trkpt lat="46.30259" lon="2.74706">
        <ele>418.77</ele>
        <time>2018-04-10T10:21:48.999Z</time>
      </trkpt>
      <trkpt lat="46.30272" lon="2.74712">
        <ele>418.1</ele>
        <time>2018-04-10T10:21:50.999Z</time>
      </trkpt>
      <trkpt lat="46.30284" lon="2.74718">
        <ele>417.83</ele>
        <time>2018-04-10T10:21:52.999Z</time>
      </trkpt>
      <trkpt lat="46.30296" lon="2.74725">
        <ele>417.51</ele>
        <time>2018-04-10T10:21:54.999Z</time>
      </trkpt>
      <trkpt lat="46.30307" lon="2.74731">
        <ele>417.14</ele>
        <time>2018-04-10T10:21:56.999Z</time>
      </trkpt>
      <trkpt lat="46.30317" lon="2.74738">
        <ele>417.03</ele>
        <time>2018-04-10T10:21:58.999Z</time>
      </trkpt>
      <trkpt lat="46.30325" lon="2.74747">
        <ele>417.22</ele>
        <time>2018-04-10T10:22:00.999Z</time>
      </trkpt>
      <trkpt lat="46.30332" lon="2.74758">
        <ele>417.42</ele>
        <time>2018-04-10T10:22:02.999Z</time>
      </trkpt>
      <trkpt lat="46.30341" lon="2.74767">
        <ele>417.83</ele>
        <time>2018-04-10T10:22:04.999Z</time>
      </trkpt>
      <trkpt lat="46.30351" lon="2.7477">
        <ele>418.24</ele>
        <time>2018-04-10T10:22:06.999Z</time>
      </trkpt>
      <trkpt lat="46.30362" lon="2.74768">
        <ele>418.13</ele>
        <time>2018-04-10T10:22:08.999Z</time>
      </trkpt>
      <trkpt lat="46.30373" lon="2.74767">
        <ele>418.33</ele>
        <time>2018-04-10T10:22:10.999Z</time>
      </trkpt>
      <trkpt lat="46.30383" lon="2.74772">
        <ele>418.52</ele>
        <time>2018-04-10T10:22:12.999Z</time>
      </trkpt>
      <trkpt lat="46.30393" lon="2.74781">
        <ele>419.05</ele>
        <time>2018-04-10T10:22:15.999Z</time>
      </trkpt>
      <trkpt lat="46.30402" lon="2.74789">
        <ele>419.6</ele>
        <time>2018-04-10T10:22:18.999Z</time>
      </trkpt>
      <trkpt lat="46.30411" lon="2.74795">
        <ele>420.54</ele>
        <time>2018-04-10T10:22:21.999Z</time>
      </trkpt>
      <trkpt lat="46.30419" lon="2.74802">
        <ele>421.21</ele>
        <time>2018-04-10T10:22:24.999Z</time>
      </trkpt>
      <trkpt lat="46.30427" lon="2.74809">
        <ele>421.75</ele>
        <time>2018-04-10T10:22:27.999Z</time>
      </trkpt>
      <trkpt lat="46.30436" lon="2.74814">
        <ele>422.62</ele>
        <time>2018-04-10T10:22:30.999Z</time>
      </trkpt>
      <trkpt lat="46.30444" lon="2.74821">
        <ele>423.31</ele>
        <time>2018-04-10T10:22:33.999Z</time>
      </trkpt>
      <trkpt lat="46.30452" lon="2.74827">
        <ele>424.29</ele>
        <time>2018-04-10T10:22:36.999Z</time>
      </trkpt>
      <trkpt lat="46.30463" lon="2.74835">
        <ele>425.57</ele>
        <time>2018-04-10T10:22:40.999Z</time>
      </trkpt>
      <trkpt lat="46.30471" lon="2.74841">
        <ele>426.29</ele>
        <time>2018-04-10T10:22:43.999Z</time>
      </trkpt>
      <trkpt lat="46.30479" lon="2.7485">
        <ele>426.85</ele>
        <time>2018-04-10T10:22:46.999Z</time>
      </trkpt>
      <trkpt lat="46.30487" lon="2.7486">
        <ele>427.41</ele>
        <time>2018-04-10T10:22:49.999Z</time>
      </trkpt>
      <trkpt lat="46.30493" lon="2.74871">
        <ele>428.15</ele>
        <time>2018-04-10T10:22:52.999Z</time>
      </trkpt>
      <trkpt lat="46.30498" lon="2.74882">
        <ele>429.06</ele>
        <time>2018-04-10T10:22:55.999Z</time>
      </trkpt>
      <trkpt lat="46.30503" lon="2.74894">
        <ele>429.46</ele>
        <time>2018-04-10T10:22:58.999Z</time>
      </trkpt>
      <trkpt lat="46.30509" lon="2.74906">
        <ele>429.84</ele>
        <time>2018-04-10T10:23:01.999Z</time>
      </trkpt>
      <trkpt lat="46.30514" lon="2.74918">
        <ele>430.7</ele>
        <time>2018-04-10T10:23:04.999Z</time>
      </trkpt>
      <trkpt lat="46.30519" lon="2.74929">
        <ele>431.46</ele>
        <time>2018-04-10T10:23:07.999Z</time>
      </trkpt>
      <trkpt lat="46.30525" lon="2.74941">
        <ele>432.57</ele>
        <time>2018-04-10T10:23:10.999Z</time>
      </trkpt>
      <trkpt lat="46.30531" lon="2.74953">
        <ele>433.47</ele>
        <time>2018-04-10T10:23:13.999Z</time>
      </trkpt>
      <trkpt lat="46.30537" lon="2.74965">
        <ele>434.5</ele>
        <time>2018-04-10T10:23:16.999Z</time>
      </trkpt>
      <trkpt lat="46.30543" lon="2.74976">
        <ele>435.06</ele>
        <time>2018-04-10T10:23:19.999Z</time>
      </trkpt>
      <trkpt lat="46.30548" lon="2.74989">
        <ele>435.3</ele>
        <time>2018-04-10T10:23:22.999Z</time>
      </trkpt>
      <trkpt lat="46.30553" lon="2.75002">
        <ele>435.5</ele>
        <time>2018-04-10T10:23:25.999Z</time>
      </trkpt>
      <trkpt lat="46.30558" lon="2.75014">
        <ele>435.8</ele>
        <time>2018-04-10T10:23:28.999Z</time>
      </trkpt>
      <trkpt lat="46.30563" lon="2.75027">
        <ele>436.36</ele>
        <time>2018-04-10T10:23:31.999Z</time>
      </trkpt>
      <trkpt lat="46.30569" lon="2.7504">
        <ele>436.75</ele>
        <time>2018-04-10T10:23:34.999Z</time>
      </trkpt>
      <trkpt lat="46.30575" lon="2.75053">
        <ele>436.18</ele>
        <time>2018-04-10T10:23:37.999Z</time>
      </trkpt>
      <trkpt lat="46.30582" lon="2.75069">
        <ele>437.39</ele>
        <time>2018-04-10T10:23:40.999Z</time>
      </trkpt>
      <trkpt lat="46.30588" lon="2.7508">
        <ele>437.02</ele>
        <time>2018-04-10T10:23:42.999Z</time>
      </trkpt>
      <trkpt lat="46.30595" lon="2.75092">
        <ele>436.5</ele>
        <time>2018-04-10T10:23:44.999Z</time>
      </trkpt>
      <trkpt lat="46.30605" lon="2.75104">
        <ele>436.18</ele>
        <time>2018-04-10T10:23:46.999Z</time>
      </trkpt>
      <trkpt lat="46.30613" lon="2.75118">
        <ele>435.49</ele>
        <time>2018-04-10T10:23:48.999Z</time>
      </trkpt>
      <trkpt lat="46.30622" lon="2.75135">
        <ele>435.11</ele>
        <time>2018-04-10T10:23:50.999Z</time>
      </trkpt>
      <trkpt lat="46.30629" lon="2.75153">
        <ele>434.68</ele>
        <time>2018-04-10T10:23:52.999Z</time>
      </trkpt>
      <trkpt lat="46.30634" lon="2.75173">
        <ele>434.39</ele>
        <time>2018-04-10T10:23:54.999Z</time>
      </trkpt>
      <trkpt lat="46.3064" lon="2.75194">
        <ele>434.14</ele>
        <time>2018-04-10T10:23:56.999Z</time>
      </trkpt>
      <trkpt lat="46.30645" lon="2.75216">
        <ele>433.88</ele>
        <time>2018-04-10T10:23:58.999Z</time>
      </trkpt>
      <trkpt lat="46.30649" lon="2.75239">
        <ele>433.3</ele>
        <time>2018-04-10T10:24:00.999Z</time>
      </trkpt>
      <trkpt lat="46.30656" lon="2.7526">
        <ele>432.87</ele>
        <time>2018-04-10T10:24:02.999Z</time>
      </trkpt>
      <trkpt lat="46.30668" lon="2.75279">
        <ele>432.85</ele>
        <time>2018-04-10T10:24:04.999Z</time>
      </trkpt>
      <trkpt lat="46.30675" lon="2.75287">
        <ele>432.43</ele>
        <time>2018-04-10T10:24:05.999Z</time>
      </trkpt>
      <trkpt lat="46.30683" lon="2.75293">
        <ele>432.12</ele>
        <time>2018-04-10T10:24:06.999Z</time>
      </trkpt>
      <trkpt lat="46.30692" lon="2.75299">
        <ele>431.77</ele>
        <time>2018-04-10T10:24:07.999Z</time>
      </trkpt>
      <trkpt lat="46.30701" lon="2.75303">
        <ele>431.52</ele>
        <time>2018-04-10T10:24:08.999Z</time>
      </trkpt>
      <trkpt lat="46.30711" lon="2.75307">
        <ele>430.95</ele>
        <time>2018-04-10T10:24:09.999Z</time>
      </trkpt>
      <trkpt lat="46.30721" lon="2.7531">
        <ele>430.21</ele>
        <time>2018-04-10T10:24:10.999Z</time>
      </trkpt>
      <trkpt lat="46.30731" lon="2.75314">
        <ele>429.64</ele>
        <time>2018-04-10T10:24:11.999Z</time>
      </trkpt>
      <trkpt lat="46.30741" lon="2.75318">
        <ele>428.82</ele>
        <time>2018-04-10T10:24:12.999Z</time>
      </trkpt>
      <trkpt lat="46.30752" lon="2.75323">
        <ele>428.81</ele>
        <time>2018-04-10T10:24:13.999Z</time>
      </trkpt>
      <trkpt lat="46.30763" lon="2.75328">
        <ele>428.49</ele>
        <time>2018-04-10T10:24:14.999Z</time>
      </trkpt>
      <trkpt lat="46.30773" lon="2.75333">
        <ele>428.07</ele>
        <time>2018-04-10T10:24:15.999Z</time>
      </trkpt>
      <trkpt lat="46.30783" lon="2.75337">
        <ele>427.55</ele>
        <time>2018-04-10T10:24:16.999Z</time>
      </trkpt>
      <trkpt lat="46.30793" lon="2.75341">
        <ele>426.92</ele>
        <time>2018-04-10T10:24:17.999Z</time>
      </trkpt>
      <trkpt lat="46.30804" lon="2.75345">
        <ele>426.33</ele>
        <time>2018-04-10T10:24:18.999Z</time>
      </trkpt>
      <trkpt lat="46.30814" lon="2.75349">
        <ele>425.68</ele>
        <time>2018-04-10T10:24:19.999Z</time>
      </trkpt>
      <trkpt lat="46.30825" lon="2.75353">
        <ele>424.77</ele>
        <time>2018-04-10T10:24:20.999Z</time>
      </trkpt>
      <trkpt lat="46.30835" lon="2.75356">
        <ele>424.2</ele>
        <time>2018-04-10T10:24:21.999Z</time>
      </trkpt>
      <trkpt lat="46.30846" lon="2.7536">
        <ele>423.71</ele>
        <time>2018-04-10T10:24:22.999Z</time>
      </trkpt>
      <trkpt lat="46.30856" lon="2.75363">
        <ele>423.37</ele>
        <time>2018-04-10T10:24:23.999Z</time>
      </trkpt>
      <trkpt lat="46.30867" lon="2.75367">
        <ele>422.93</ele>
        <time>2018-04-10T10:24:24.999Z</time>
      </trkpt>
      <trkpt lat="46.30877" lon="2.7537">
        <ele>422.22</ele>
        <time>2018-04-10T10:24:25.999Z</time>
      </trkpt>
      <trkpt lat="46.30887" lon="2.75373">
        <ele>421.48</ele>
        <time>2018-04-10T10:24:26.999Z</time>
      </trkpt>
      <trkpt lat="46.30902" lon="2.75377">
        <ele>420.03</ele>
        <time>2018-04-10T10:24:28.999Z</time>
      </trkpt>
      <trkpt lat="46.30912" lon="2.75379">
        <ele>418.43</ele>
        <time>2018-04-10T10:24:30.999Z</time>
      </trkpt>
      <trkpt lat="46.30924" lon="2.75382">
        <ele>417.22</ele>
        <time>2018-04-10T10:24:32.999Z</time>
      </trkpt>
      <trkpt lat="46.30938" lon="2.75389">
        <ele>416.64</ele>
        <time>2018-04-10T10:24:34.999Z</time>
      </trkpt>
      <trkpt lat="46.30954" lon="2.75398">
        <ele>415.91</ele>
        <time>2018-04-10T10:24:36.999Z</time>
      </trkpt>
      <trkpt lat="46.30969" lon="2.75408">
        <ele>414.85</ele>
        <time>2018-04-10T10:24:38.999Z</time>
      </trkpt>
      <trkpt lat="46.30984" lon="2.75419">
        <ele>414.25</ele>
        <time>2018-04-10T10:24:40.999Z</time>
      </trkpt>
      <trkpt lat="46.31" lon="2.75428">
        <ele>413.59</ele>
        <time>2018-04-10T10:24:42.999Z</time>
      </trkpt>
      <trkpt lat="46.31017" lon="2.7543">
        <ele>413.09</ele>
        <time>2018-04-10T10:24:44.999Z</time>
      </trkpt>
      <trkpt lat="46.31034" lon="2.75424">
        <ele>412.56</ele>
        <time>2018-04-10T10:24:46.999Z</time>
      </trkpt>
      <trkpt lat="46.31042" lon="2.75418">
        <ele>412.44</ele>
        <time>2018-04-10T10:24:47.999Z</time>
      </trkpt>
      <trkpt lat="46.3105" lon="2.75411">
        <ele>412.3</ele>
        <time>2018-04-10T10:24:48.999Z</time>
      </trkpt>
      <trkpt lat="46.31065" lon="2.75401">
        <ele>411.84</ele>
        <time>2018-04-10T10:24:50.999Z</time>
      </trkpt>
      <trkpt lat="46.31081" lon="2.75395">
        <ele>411.73</ele>
        <time>2018-04-10T10:24:52.999Z</time>
      </trkpt>
      <trkpt lat="46.31091" lon="2.75393">
        <ele>411.36</ele>
        <time>2018-04-10T10:24:54.999Z</time>
      </trkpt>
      <trkpt lat="46.31099" lon="2.75385">
        <ele>410.21</ele>
        <time>2018-04-10T10:25:03.999Z</time>
      </trkpt>
      <trkpt lat="46.31109" lon="2.75389">
        <ele>410.28</ele>
        <time>2018-04-10T10:25:08.999Z</time>
      </trkpt>
      <trkpt lat="46.31117" lon="2.75381">
        <ele>410.71</ele>
        <time>2018-04-10T10:27:12.999Z</time>
      </trkpt>
    </trkseg>
  </trk>
</gpx>